<?xml version="1.0" encoding="UTF-8" standalone="no" ?>
<gpx xmlns="http://www.topografix.com/GPX/1/1" xmlns:xsi="http://www.w3.org/2001/XMLSchema-instance" xsi:schemaLocation="http://www.topografix.com/GPX/1/1 http://www.topografix.com/GPX/1/1/gpx.xsd" version="1.1" creator="VisuGPX - https://www.visugpx.com">
  <metadata>
    <name>REIMS SACY MONTCHENOT LUDES VS AVENAY MUTRY FAUX VERZY RILLY MONTCHENOT SACY </name>
    <desc><![CDATA[La T° 24° APM est mieux que celle du matin un 10°. Par contre le vent est du ++ et très pénible. Je n'ai pas fait de tracé : l'idée aller faire l'ascension de la cote des FAUX de VERZY en passant par MONTCHENOT en AR. Pour arriver à la 1ére cote : je passe quelques talus : SACY, ECUEIL, CHAMERY, NOGENT. 
1) MONTCHENOT 
2) LUDES - VILLE en SELVE
3) GERMAINE
talus jusqu'à AVENAY VAL d'OR
4) MUTRY route de vignes croisement BOUZY
5) FAUX de VERZY versant long faux plat
6) VERZENAY PHARE
7) VERZENAY MOULIN 
talus CHIGNY, RILLY, VILLERS ALLERAND
8) MONTCHENOT]]></desc>
  </metadata>
  <trk>
    <name><![CDATA[REIMS SACY MONTCHENOT LUDES VS AVENAY MUTRY FAUX VERZY RILLY MONTCHENOT SACY _1]]></name>
    <trkseg>
      <trkpt lat="49.25892" lon="4.0358">
        <ele>88</ele>
        <time>2026-08-24T10:44:44Z</time>
      </trkpt>
      <trkpt lat="49.25883" lon="4.03596">
        <ele>88</ele>
        <time>2026-08-24T10:44:45Z</time>
      </trkpt>
      <trkpt lat="49.25859" lon="4.03574">
        <ele>88.2</ele>
        <time>2026-08-24T10:44:58Z</time>
      </trkpt>
      <trkpt lat="49.25858" lon="4.03569">
        <ele>88.2</ele>
        <time>2026-08-24T10:44:59Z</time>
      </trkpt>
      <trkpt lat="49.25857" lon="4.03564">
        <ele>88.2</ele>
        <time>2026-08-24T10:45:00Z</time>
      </trkpt>
      <trkpt lat="49.25857" lon="4.03559">
        <ele>88.2</ele>
        <time>2026-08-24T10:45:01Z</time>
      </trkpt>
      <trkpt lat="49.25856" lon="4.03554">
        <ele>88.2</ele>
        <time>2026-08-24T10:45:02Z</time>
      </trkpt>
      <trkpt lat="49.25854" lon="4.03551">
        <ele>88.2</ele>
        <time>2026-08-24T10:45:03Z</time>
      </trkpt>
      <trkpt lat="49.25853" lon="4.03546">
        <ele>88.2</ele>
        <time>2026-08-24T10:45:04Z</time>
      </trkpt>
      <trkpt lat="49.25852" lon="4.03542">
        <ele>88.4</ele>
        <time>2026-08-24T10:45:05Z</time>
      </trkpt>
      <trkpt lat="49.25852" lon="4.03539">
        <ele>88.4</ele>
        <time>2026-08-24T10:45:06Z</time>
      </trkpt>
      <trkpt lat="49.25851" lon="4.03533">
        <ele>88.4</ele>
        <time>2026-08-24T10:45:07Z</time>
      </trkpt>
      <trkpt lat="49.2585" lon="4.0353">
        <ele>88.4</ele>
        <time>2026-08-24T10:45:08Z</time>
      </trkpt>
      <trkpt lat="49.25849" lon="4.03525">
        <ele>88.4</ele>
        <time>2026-08-24T10:45:09Z</time>
      </trkpt>
      <trkpt lat="49.25848" lon="4.03521">
        <ele>88.4</ele>
        <time>2026-08-24T10:45:10Z</time>
      </trkpt>
      <trkpt lat="49.25846" lon="4.03518">
        <ele>88.4</ele>
        <time>2026-08-24T10:45:11Z</time>
      </trkpt>
      <trkpt lat="49.25845" lon="4.03514">
        <ele>88.4</ele>
        <time>2026-08-24T10:45:12Z</time>
      </trkpt>
      <trkpt lat="49.25844" lon="4.0351">
        <ele>88.4</ele>
        <time>2026-08-24T10:45:13Z</time>
      </trkpt>
      <trkpt lat="49.25842" lon="4.03506">
        <ele>88.4</ele>
        <time>2026-08-24T10:45:14Z</time>
      </trkpt>
      <trkpt lat="49.25841" lon="4.03502">
        <ele>88.4</ele>
        <time>2026-08-24T10:45:15Z</time>
      </trkpt>
      <trkpt lat="49.25839" lon="4.035">
        <ele>88.4</ele>
        <time>2026-08-24T10:45:16Z</time>
      </trkpt>
      <trkpt lat="49.25838" lon="4.035">
        <ele>88.4</ele>
        <time>2026-08-24T10:45:17Z</time>
      </trkpt>
      <trkpt lat="49.25836" lon="4.03498">
        <ele>88.4</ele>
        <time>2026-08-24T10:45:18Z</time>
      </trkpt>
      <trkpt lat="49.25836" lon="4.03496">
        <ele>88.2</ele>
        <time>2026-08-24T10:45:19Z</time>
      </trkpt>
      <trkpt lat="49.25836" lon="4.03494">
        <ele>88.2</ele>
        <time>2026-08-24T10:45:20Z</time>
      </trkpt>
      <trkpt lat="49.25838" lon="4.03492">
        <ele>88.2</ele>
        <time>2026-08-24T10:45:21Z</time>
      </trkpt>
      <trkpt lat="49.25839" lon="4.03482">
        <ele>88.2</ele>
        <time>2026-08-24T10:45:22Z</time>
      </trkpt>
      <trkpt lat="49.25839" lon="4.03473">
        <ele>88.2</ele>
        <time>2026-08-24T10:45:23Z</time>
      </trkpt>
      <trkpt lat="49.25842" lon="4.03466">
        <ele>88.2</ele>
        <time>2026-08-24T10:45:24Z</time>
      </trkpt>
      <trkpt lat="49.25844" lon="4.03462">
        <ele>88.2</ele>
        <time>2026-08-24T10:45:25Z</time>
      </trkpt>
      <trkpt lat="49.25847" lon="4.03458">
        <ele>88.2</ele>
        <time>2026-08-24T10:45:26Z</time>
      </trkpt>
      <trkpt lat="49.2585" lon="4.03454">
        <ele>88.2</ele>
        <time>2026-08-24T10:45:27Z</time>
      </trkpt>
      <trkpt lat="49.25853" lon="4.0345">
        <ele>88.2</ele>
        <time>2026-08-24T10:45:28Z</time>
      </trkpt>
      <trkpt lat="49.25857" lon="4.03445">
        <ele>88</ele>
        <time>2026-08-24T10:45:29Z</time>
      </trkpt>
      <trkpt lat="49.25862" lon="4.03442">
        <ele>88</ele>
        <time>2026-08-24T10:45:30Z</time>
      </trkpt>
      <trkpt lat="49.25868" lon="4.03439">
        <ele>88</ele>
        <time>2026-08-24T10:45:31Z</time>
      </trkpt>
      <trkpt lat="49.25872" lon="4.0344">
        <ele>88</ele>
        <time>2026-08-24T10:45:32Z</time>
      </trkpt>
      <trkpt lat="49.25877" lon="4.03438">
        <ele>88</ele>
        <time>2026-08-24T10:45:33Z</time>
      </trkpt>
      <trkpt lat="49.25881" lon="4.03435">
        <ele>88</ele>
        <time>2026-08-24T10:45:34Z</time>
      </trkpt>
      <trkpt lat="49.25885" lon="4.03433">
        <ele>87.8</ele>
        <time>2026-08-24T10:45:35Z</time>
      </trkpt>
      <trkpt lat="49.25889" lon="4.0343">
        <ele>87.8</ele>
        <time>2026-08-24T10:45:36Z</time>
      </trkpt>
      <trkpt lat="49.25892" lon="4.03427">
        <ele>87.8</ele>
        <time>2026-08-24T10:45:37Z</time>
      </trkpt>
      <trkpt lat="49.25896" lon="4.03424">
        <ele>88</ele>
        <time>2026-08-24T10:45:38Z</time>
      </trkpt>
      <trkpt lat="49.259" lon="4.03422">
        <ele>88</ele>
        <time>2026-08-24T10:45:39Z</time>
      </trkpt>
      <trkpt lat="49.25905" lon="4.03419">
        <ele>88</ele>
        <time>2026-08-24T10:45:40Z</time>
      </trkpt>
      <trkpt lat="49.25909" lon="4.03416">
        <ele>88.2</ele>
        <time>2026-08-24T10:45:41Z</time>
      </trkpt>
      <trkpt lat="49.25913" lon="4.03413">
        <ele>88.2</ele>
        <time>2026-08-24T10:45:42Z</time>
      </trkpt>
      <trkpt lat="49.25917" lon="4.0341">
        <ele>88.2</ele>
        <time>2026-08-24T10:45:43Z</time>
      </trkpt>
      <trkpt lat="49.2592" lon="4.03407">
        <ele>88.4</ele>
        <time>2026-08-24T10:45:44Z</time>
      </trkpt>
      <trkpt lat="49.25924" lon="4.03404">
        <ele>88.6</ele>
        <time>2026-08-24T10:45:45Z</time>
      </trkpt>
      <trkpt lat="49.25928" lon="4.03401">
        <ele>88.6</ele>
        <time>2026-08-24T10:45:46Z</time>
      </trkpt>
      <trkpt lat="49.25931" lon="4.03398">
        <ele>88.8</ele>
        <time>2026-08-24T10:45:47Z</time>
      </trkpt>
      <trkpt lat="49.25934" lon="4.03396">
        <ele>88.8</ele>
        <time>2026-08-24T10:45:48Z</time>
      </trkpt>
      <trkpt lat="49.25937" lon="4.03393">
        <ele>89</ele>
        <time>2026-08-24T10:45:49Z</time>
      </trkpt>
      <trkpt lat="49.2594" lon="4.03389">
        <ele>89</ele>
        <time>2026-08-24T10:45:50Z</time>
      </trkpt>
      <trkpt lat="49.25943" lon="4.03384">
        <ele>89</ele>
        <time>2026-08-24T10:45:51Z</time>
      </trkpt>
      <trkpt lat="49.25944" lon="4.03378">
        <ele>89.2</ele>
        <time>2026-08-24T10:45:52Z</time>
      </trkpt>
      <trkpt lat="49.25944" lon="4.03373">
        <ele>89.2</ele>
        <time>2026-08-24T10:45:53Z</time>
      </trkpt>
      <trkpt lat="49.25942" lon="4.03367">
        <ele>89.2</ele>
        <time>2026-08-24T10:45:54Z</time>
      </trkpt>
      <trkpt lat="49.2594" lon="4.03361">
        <ele>89</ele>
        <time>2026-08-24T10:45:55Z</time>
      </trkpt>
      <trkpt lat="49.25938" lon="4.03354">
        <ele>89</ele>
        <time>2026-08-24T10:45:56Z</time>
      </trkpt>
      <trkpt lat="49.25936" lon="4.03348">
        <ele>88.8</ele>
        <time>2026-08-24T10:45:57Z</time>
      </trkpt>
      <trkpt lat="49.25934" lon="4.03341">
        <ele>88.8</ele>
        <time>2026-08-24T10:45:58Z</time>
      </trkpt>
      <trkpt lat="49.25931" lon="4.03334">
        <ele>88.6</ele>
        <time>2026-08-24T10:45:59Z</time>
      </trkpt>
      <trkpt lat="49.25929" lon="4.03327">
        <ele>88.6</ele>
        <time>2026-08-24T10:46:00Z</time>
      </trkpt>
      <trkpt lat="49.25926" lon="4.0332">
        <ele>88.6</ele>
        <time>2026-08-24T10:46:01Z</time>
      </trkpt>
      <trkpt lat="49.25924" lon="4.03313">
        <ele>88.4</ele>
        <time>2026-08-24T10:46:02Z</time>
      </trkpt>
      <trkpt lat="49.25922" lon="4.03307">
        <ele>88.4</ele>
        <time>2026-08-24T10:46:03Z</time>
      </trkpt>
      <trkpt lat="49.2592" lon="4.033">
        <ele>88.4</ele>
        <time>2026-08-24T10:46:04Z</time>
      </trkpt>
      <trkpt lat="49.25917" lon="4.03294">
        <ele>88.2</ele>
        <time>2026-08-24T10:46:05Z</time>
      </trkpt>
      <trkpt lat="49.25914" lon="4.03287">
        <ele>88.2</ele>
        <time>2026-08-24T10:46:06Z</time>
      </trkpt>
      <trkpt lat="49.25912" lon="4.0328">
        <ele>88.2</ele>
        <time>2026-08-24T10:46:07Z</time>
      </trkpt>
      <trkpt lat="49.2591" lon="4.03273">
        <ele>88.2</ele>
        <time>2026-08-24T10:46:08Z</time>
      </trkpt>
      <trkpt lat="49.25908" lon="4.03266">
        <ele>88.2</ele>
        <time>2026-08-24T10:46:09Z</time>
      </trkpt>
      <trkpt lat="49.25905" lon="4.03259">
        <ele>88.2</ele>
        <time>2026-08-24T10:46:10Z</time>
      </trkpt>
      <trkpt lat="49.25903" lon="4.03252">
        <ele>88.2</ele>
        <time>2026-08-24T10:46:11Z</time>
      </trkpt>
      <trkpt lat="49.25901" lon="4.03245">
        <ele>88</ele>
        <time>2026-08-24T10:46:12Z</time>
      </trkpt>
      <trkpt lat="49.25899" lon="4.03238">
        <ele>88</ele>
        <time>2026-08-24T10:46:13Z</time>
      </trkpt>
      <trkpt lat="49.25896" lon="4.03231">
        <ele>88</ele>
        <time>2026-08-24T10:46:14Z</time>
      </trkpt>
      <trkpt lat="49.25894" lon="4.03224">
        <ele>87.8</ele>
        <time>2026-08-24T10:46:15Z</time>
      </trkpt>
      <trkpt lat="49.25892" lon="4.03218">
        <ele>87.8</ele>
        <time>2026-08-24T10:46:16Z</time>
      </trkpt>
      <trkpt lat="49.2589" lon="4.03211">
        <ele>87.8</ele>
        <time>2026-08-24T10:46:17Z</time>
      </trkpt>
      <trkpt lat="49.25888" lon="4.03205">
        <ele>87.8</ele>
        <time>2026-08-24T10:46:18Z</time>
      </trkpt>
      <trkpt lat="49.25886" lon="4.032">
        <ele>87.6</ele>
        <time>2026-08-24T10:46:19Z</time>
      </trkpt>
      <trkpt lat="49.25886" lon="4.03195">
        <ele>87.6</ele>
        <time>2026-08-24T10:46:20Z</time>
      </trkpt>
      <trkpt lat="49.25885" lon="4.0319">
        <ele>87.6</ele>
        <time>2026-08-24T10:46:21Z</time>
      </trkpt>
      <trkpt lat="49.25885" lon="4.03186">
        <ele>87.6</ele>
        <time>2026-08-24T10:46:22Z</time>
      </trkpt>
      <trkpt lat="49.25883" lon="4.03181">
        <ele>87.6</ele>
        <time>2026-08-24T10:46:23Z</time>
      </trkpt>
      <trkpt lat="49.25881" lon="4.03177">
        <ele>87.4</ele>
        <time>2026-08-24T10:46:24Z</time>
      </trkpt>
      <trkpt lat="49.25879" lon="4.03173">
        <ele>87.4</ele>
        <time>2026-08-24T10:46:25Z</time>
      </trkpt>
      <trkpt lat="49.25876" lon="4.0317">
        <ele>87.4</ele>
        <time>2026-08-24T10:46:26Z</time>
      </trkpt>
      <trkpt lat="49.25874" lon="4.03165">
        <ele>87.2</ele>
        <time>2026-08-24T10:46:27Z</time>
      </trkpt>
      <trkpt lat="49.25872" lon="4.03159">
        <ele>87</ele>
        <time>2026-08-24T10:46:28Z</time>
      </trkpt>
      <trkpt lat="49.2587" lon="4.03152">
        <ele>87</ele>
        <time>2026-08-24T10:46:29Z</time>
      </trkpt>
      <trkpt lat="49.25868" lon="4.03145">
        <ele>86.8</ele>
        <time>2026-08-24T10:46:30Z</time>
      </trkpt>
      <trkpt lat="49.25866" lon="4.03138">
        <ele>86.8</ele>
        <time>2026-08-24T10:46:31Z</time>
      </trkpt>
      <trkpt lat="49.25864" lon="4.03131">
        <ele>86.8</ele>
        <time>2026-08-24T10:46:32Z</time>
      </trkpt>
      <trkpt lat="49.25862" lon="4.03124">
        <ele>86.8</ele>
        <time>2026-08-24T10:46:33Z</time>
      </trkpt>
      <trkpt lat="49.25859" lon="4.03118">
        <ele>86.6</ele>
        <time>2026-08-24T10:46:34Z</time>
      </trkpt>
      <trkpt lat="49.25857" lon="4.03111">
        <ele>86.6</ele>
        <time>2026-08-24T10:46:35Z</time>
      </trkpt>
      <trkpt lat="49.25854" lon="4.03104">
        <ele>86.6</ele>
        <time>2026-08-24T10:46:36Z</time>
      </trkpt>
      <trkpt lat="49.25852" lon="4.03097">
        <ele>86.6</ele>
        <time>2026-08-24T10:46:37Z</time>
      </trkpt>
      <trkpt lat="49.2585" lon="4.03092">
        <ele>86.6</ele>
        <time>2026-08-24T10:46:38Z</time>
      </trkpt>
      <trkpt lat="49.25848" lon="4.03087">
        <ele>86.8</ele>
        <time>2026-08-24T10:46:39Z</time>
      </trkpt>
      <trkpt lat="49.25848" lon="4.03083">
        <ele>86.8</ele>
        <time>2026-08-24T10:46:40Z</time>
      </trkpt>
      <trkpt lat="49.25848" lon="4.03081">
        <ele>86.8</ele>
        <time>2026-08-24T10:46:41Z</time>
      </trkpt>
      <trkpt lat="49.25849" lon="4.03079">
        <ele>86.8</ele>
        <time>2026-08-24T10:46:42Z</time>
      </trkpt>
      <trkpt lat="49.25849" lon="4.03077">
        <ele>86.8</ele>
        <time>2026-08-24T10:46:43Z</time>
      </trkpt>
      <trkpt lat="49.25849" lon="4.03076">
        <ele>86.8</ele>
        <time>2026-08-24T10:46:44Z</time>
      </trkpt>
      <trkpt lat="49.25849" lon="4.03073">
        <ele>86.8</ele>
        <time>2026-08-24T10:46:45Z</time>
      </trkpt>
      <trkpt lat="49.25848" lon="4.0307">
        <ele>86.8</ele>
        <time>2026-08-24T10:46:46Z</time>
      </trkpt>
      <trkpt lat="49.25846" lon="4.03067">
        <ele>86.8</ele>
        <time>2026-08-24T10:46:47Z</time>
      </trkpt>
      <trkpt lat="49.25843" lon="4.03064">
        <ele>86.6</ele>
        <time>2026-08-24T10:46:48Z</time>
      </trkpt>
      <trkpt lat="49.25841" lon="4.03061">
        <ele>86.6</ele>
        <time>2026-08-24T10:46:49Z</time>
      </trkpt>
      <trkpt lat="49.25838" lon="4.03057">
        <ele>86.4</ele>
        <time>2026-08-24T10:46:50Z</time>
      </trkpt>
      <trkpt lat="49.25836" lon="4.03051">
        <ele>86.2</ele>
        <time>2026-08-24T10:46:51Z</time>
      </trkpt>
      <trkpt lat="49.25833" lon="4.03046">
        <ele>86.2</ele>
        <time>2026-08-24T10:46:52Z</time>
      </trkpt>
      <trkpt lat="49.2583" lon="4.0304">
        <ele>86.2</ele>
        <time>2026-08-24T10:46:53Z</time>
      </trkpt>
      <trkpt lat="49.25827" lon="4.03034">
        <ele>86</ele>
        <time>2026-08-24T10:46:54Z</time>
      </trkpt>
      <trkpt lat="49.25825" lon="4.03027">
        <ele>86</ele>
        <time>2026-08-24T10:46:55Z</time>
      </trkpt>
      <trkpt lat="49.25821" lon="4.03021">
        <ele>85.8</ele>
        <time>2026-08-24T10:46:56Z</time>
      </trkpt>
      <trkpt lat="49.25818" lon="4.03015">
        <ele>85.8</ele>
        <time>2026-08-24T10:46:57Z</time>
      </trkpt>
      <trkpt lat="49.25815" lon="4.03008">
        <ele>85.6</ele>
        <time>2026-08-24T10:46:58Z</time>
      </trkpt>
      <trkpt lat="49.25812" lon="4.03002">
        <ele>85.4</ele>
        <time>2026-08-24T10:46:59Z</time>
      </trkpt>
      <trkpt lat="49.25809" lon="4.02996">
        <ele>85.2</ele>
        <time>2026-08-24T10:47:00Z</time>
      </trkpt>
      <trkpt lat="49.25807" lon="4.0299">
        <ele>85</ele>
        <time>2026-08-24T10:47:01Z</time>
      </trkpt>
      <trkpt lat="49.25804" lon="4.02984">
        <ele>85</ele>
        <time>2026-08-24T10:47:02Z</time>
      </trkpt>
      <trkpt lat="49.25802" lon="4.02981">
        <ele>85</ele>
        <time>2026-08-24T10:47:03Z</time>
      </trkpt>
      <trkpt lat="49.258" lon="4.02977">
        <ele>85</ele>
        <time>2026-08-24T10:47:04Z</time>
      </trkpt>
      <trkpt lat="49.25799" lon="4.02974">
        <ele>85</ele>
        <time>2026-08-24T10:47:05Z</time>
      </trkpt>
      <trkpt lat="49.25798" lon="4.02971">
        <ele>85</ele>
        <time>2026-08-24T10:47:06Z</time>
      </trkpt>
      <trkpt lat="49.25797" lon="4.02968">
        <ele>85</ele>
        <time>2026-08-24T10:47:07Z</time>
      </trkpt>
      <trkpt lat="49.25796" lon="4.02964">
        <ele>85</ele>
        <time>2026-08-24T10:47:08Z</time>
      </trkpt>
      <trkpt lat="49.25797" lon="4.0296">
        <ele>85.2</ele>
        <time>2026-08-24T10:47:09Z</time>
      </trkpt>
      <trkpt lat="49.25796" lon="4.02957">
        <ele>85.2</ele>
        <time>2026-08-24T10:47:10Z</time>
      </trkpt>
      <trkpt lat="49.25795" lon="4.02953">
        <ele>85.2</ele>
        <time>2026-08-24T10:47:11Z</time>
      </trkpt>
      <trkpt lat="49.25794" lon="4.02949">
        <ele>85</ele>
        <time>2026-08-24T10:47:12Z</time>
      </trkpt>
      <trkpt lat="49.25792" lon="4.02945">
        <ele>85.2</ele>
        <time>2026-08-24T10:47:13Z</time>
      </trkpt>
      <trkpt lat="49.2579" lon="4.02941">
        <ele>85.2</ele>
        <time>2026-08-24T10:47:14Z</time>
      </trkpt>
      <trkpt lat="49.25789" lon="4.02937">
        <ele>85.2</ele>
        <time>2026-08-24T10:47:15Z</time>
      </trkpt>
      <trkpt lat="49.25787" lon="4.02933">
        <ele>85.2</ele>
        <time>2026-08-24T10:47:16Z</time>
      </trkpt>
      <trkpt lat="49.25786" lon="4.02929">
        <ele>85</ele>
        <time>2026-08-24T10:47:17Z</time>
      </trkpt>
      <trkpt lat="49.25784" lon="4.02924">
        <ele>85</ele>
        <time>2026-08-24T10:47:18Z</time>
      </trkpt>
      <trkpt lat="49.25782" lon="4.0292">
        <ele>84.8</ele>
        <time>2026-08-24T10:47:19Z</time>
      </trkpt>
      <trkpt lat="49.2578" lon="4.02917">
        <ele>84.8</ele>
        <time>2026-08-24T10:47:20Z</time>
      </trkpt>
      <trkpt lat="49.25778" lon="4.02914">
        <ele>84.8</ele>
        <time>2026-08-24T10:47:21Z</time>
      </trkpt>
      <trkpt lat="49.25776" lon="4.02912">
        <ele>84.8</ele>
        <time>2026-08-24T10:47:22Z</time>
      </trkpt>
      <trkpt lat="49.25775" lon="4.0291">
        <ele>84.8</ele>
        <time>2026-08-24T10:47:23Z</time>
      </trkpt>
      <trkpt lat="49.25773" lon="4.02907">
        <ele>84.8</ele>
        <time>2026-08-24T10:47:24Z</time>
      </trkpt>
      <trkpt lat="49.25772" lon="4.02905">
        <ele>84.6</ele>
        <time>2026-08-24T10:47:25Z</time>
      </trkpt>
      <trkpt lat="49.25772" lon="4.02903">
        <ele>84.6</ele>
        <time>2026-08-24T10:47:26Z</time>
      </trkpt>
      <trkpt lat="49.25771" lon="4.02901">
        <ele>84.6</ele>
        <time>2026-08-24T10:47:27Z</time>
      </trkpt>
      <trkpt lat="49.25768" lon="4.029">
        <ele>84.4</ele>
        <time>2026-08-24T10:47:28Z</time>
      </trkpt>
      <trkpt lat="49.25766" lon="4.02899">
        <ele>84.4</ele>
        <time>2026-08-24T10:47:29Z</time>
      </trkpt>
      <trkpt lat="49.25763" lon="4.02897">
        <ele>84.4</ele>
        <time>2026-08-24T10:47:30Z</time>
      </trkpt>
      <trkpt lat="49.25761" lon="4.02896">
        <ele>84.2</ele>
        <time>2026-08-24T10:47:31Z</time>
      </trkpt>
      <trkpt lat="49.25758" lon="4.02896">
        <ele>84.2</ele>
        <time>2026-08-24T10:47:32Z</time>
      </trkpt>
      <trkpt lat="49.25756" lon="4.02896">
        <ele>84</ele>
        <time>2026-08-24T10:47:33Z</time>
      </trkpt>
      <trkpt lat="49.25754" lon="4.02896">
        <ele>84</ele>
        <time>2026-08-24T10:47:34Z</time>
      </trkpt>
      <trkpt lat="49.25752" lon="4.02897">
        <ele>84</ele>
        <time>2026-08-24T10:47:35Z</time>
      </trkpt>
      <trkpt lat="49.25751" lon="4.02897">
        <ele>84</ele>
        <time>2026-08-24T10:47:36Z</time>
      </trkpt>
      <trkpt lat="49.25748" lon="4.02898">
        <ele>84</ele>
        <time>2026-08-24T10:47:37Z</time>
      </trkpt>
      <trkpt lat="49.25746" lon="4.02899">
        <ele>84</ele>
        <time>2026-08-24T10:47:38Z</time>
      </trkpt>
      <trkpt lat="49.25743" lon="4.029">
        <ele>84</ele>
        <time>2026-08-24T10:47:39Z</time>
      </trkpt>
      <trkpt lat="49.2574" lon="4.02902">
        <ele>84</ele>
        <time>2026-08-24T10:47:40Z</time>
      </trkpt>
      <trkpt lat="49.25738" lon="4.02902">
        <ele>84.2</ele>
        <time>2026-08-24T10:47:41Z</time>
      </trkpt>
      <trkpt lat="49.25734" lon="4.02903">
        <ele>84.2</ele>
        <time>2026-08-24T10:47:42Z</time>
      </trkpt>
      <trkpt lat="49.25731" lon="4.02903">
        <ele>84.4</ele>
        <time>2026-08-24T10:47:43Z</time>
      </trkpt>
      <trkpt lat="49.25728" lon="4.02903">
        <ele>84.4</ele>
        <time>2026-08-24T10:47:44Z</time>
      </trkpt>
      <trkpt lat="49.25725" lon="4.02904">
        <ele>84.6</ele>
        <time>2026-08-24T10:47:45Z</time>
      </trkpt>
      <trkpt lat="49.25722" lon="4.02904">
        <ele>84.6</ele>
        <time>2026-08-24T10:47:46Z</time>
      </trkpt>
      <trkpt lat="49.2572" lon="4.02905">
        <ele>84.8</ele>
        <time>2026-08-24T10:47:47Z</time>
      </trkpt>
      <trkpt lat="49.25717" lon="4.02906">
        <ele>85</ele>
        <time>2026-08-24T10:47:48Z</time>
      </trkpt>
      <trkpt lat="49.25715" lon="4.02906">
        <ele>85.2</ele>
        <time>2026-08-24T10:47:49Z</time>
      </trkpt>
      <trkpt lat="49.25711" lon="4.02907">
        <ele>85.2</ele>
        <time>2026-08-24T10:47:50Z</time>
      </trkpt>
      <trkpt lat="49.25708" lon="4.02908">
        <ele>85.4</ele>
        <time>2026-08-24T10:47:51Z</time>
      </trkpt>
      <trkpt lat="49.25704" lon="4.02908">
        <ele>85.2</ele>
        <time>2026-08-24T10:47:52Z</time>
      </trkpt>
      <trkpt lat="49.25702" lon="4.02909">
        <ele>85.2</ele>
        <time>2026-08-24T10:47:53Z</time>
      </trkpt>
      <trkpt lat="49.25699" lon="4.0291">
        <ele>85.2</ele>
        <time>2026-08-24T10:47:54Z</time>
      </trkpt>
      <trkpt lat="49.25696" lon="4.02912">
        <ele>85.2</ele>
        <time>2026-08-24T10:47:55Z</time>
      </trkpt>
      <trkpt lat="49.25693" lon="4.02912">
        <ele>85.2</ele>
        <time>2026-08-24T10:47:56Z</time>
      </trkpt>
      <trkpt lat="49.25689" lon="4.02913">
        <ele>85.2</ele>
        <time>2026-08-24T10:47:57Z</time>
      </trkpt>
      <trkpt lat="49.25686" lon="4.02915">
        <ele>85.2</ele>
        <time>2026-08-24T10:47:58Z</time>
      </trkpt>
      <trkpt lat="49.25682" lon="4.02916">
        <ele>85.4</ele>
        <time>2026-08-24T10:47:59Z</time>
      </trkpt>
      <trkpt lat="49.25678" lon="4.02917">
        <ele>85.6</ele>
        <time>2026-08-24T10:48:00Z</time>
      </trkpt>
      <trkpt lat="49.25674" lon="4.02917">
        <ele>85.6</ele>
        <time>2026-08-24T10:48:01Z</time>
      </trkpt>
      <trkpt lat="49.2567" lon="4.02918">
        <ele>85.8</ele>
        <time>2026-08-24T10:48:02Z</time>
      </trkpt>
      <trkpt lat="49.25666" lon="4.02919">
        <ele>85.8</ele>
        <time>2026-08-24T10:48:03Z</time>
      </trkpt>
      <trkpt lat="49.25662" lon="4.02921">
        <ele>85.8</ele>
        <time>2026-08-24T10:48:04Z</time>
      </trkpt>
      <trkpt lat="49.25657" lon="4.02923">
        <ele>85.8</ele>
        <time>2026-08-24T10:48:05Z</time>
      </trkpt>
      <trkpt lat="49.25652" lon="4.02925">
        <ele>85.8</ele>
        <time>2026-08-24T10:48:06Z</time>
      </trkpt>
      <trkpt lat="49.25647" lon="4.02926">
        <ele>85.6</ele>
        <time>2026-08-24T10:48:07Z</time>
      </trkpt>
      <trkpt lat="49.25643" lon="4.02928">
        <ele>85.6</ele>
        <time>2026-08-24T10:48:08Z</time>
      </trkpt>
      <trkpt lat="49.25639" lon="4.0293">
        <ele>85.4</ele>
        <time>2026-08-24T10:48:09Z</time>
      </trkpt>
      <trkpt lat="49.25634" lon="4.02933">
        <ele>85.2</ele>
        <time>2026-08-24T10:48:10Z</time>
      </trkpt>
      <trkpt lat="49.2563" lon="4.02936">
        <ele>85</ele>
        <time>2026-08-24T10:48:11Z</time>
      </trkpt>
      <trkpt lat="49.25625" lon="4.02939">
        <ele>84.8</ele>
        <time>2026-08-24T10:48:12Z</time>
      </trkpt>
      <trkpt lat="49.2562" lon="4.02943">
        <ele>84.6</ele>
        <time>2026-08-24T10:48:13Z</time>
      </trkpt>
      <trkpt lat="49.25613" lon="4.02948">
        <ele>84.4</ele>
        <time>2026-08-24T10:48:14Z</time>
      </trkpt>
      <trkpt lat="49.25608" lon="4.02955">
        <ele>84.2</ele>
        <time>2026-08-24T10:48:15Z</time>
      </trkpt>
      <trkpt lat="49.25605" lon="4.02958">
        <ele>84.2</ele>
        <time>2026-08-24T10:48:16Z</time>
      </trkpt>
      <trkpt lat="49.25601" lon="4.0296">
        <ele>84</ele>
        <time>2026-08-24T10:48:17Z</time>
      </trkpt>
      <trkpt lat="49.25598" lon="4.02962">
        <ele>84</ele>
        <time>2026-08-24T10:48:18Z</time>
      </trkpt>
      <trkpt lat="49.25596" lon="4.02965">
        <ele>84</ele>
        <time>2026-08-24T10:48:19Z</time>
      </trkpt>
      <trkpt lat="49.25593" lon="4.0297">
        <ele>83.8</ele>
        <time>2026-08-24T10:48:20Z</time>
      </trkpt>
      <trkpt lat="49.25591" lon="4.02971">
        <ele>83.8</ele>
        <time>2026-08-24T10:48:21Z</time>
      </trkpt>
      <trkpt lat="49.2559" lon="4.02968">
        <ele>83.8</ele>
        <time>2026-08-24T10:48:22Z</time>
      </trkpt>
      <trkpt lat="49.25589" lon="4.02965">
        <ele>83.6</ele>
        <time>2026-08-24T10:48:23Z</time>
      </trkpt>
      <trkpt lat="49.25588" lon="4.0296">
        <ele>83.6</ele>
        <time>2026-08-24T10:48:24Z</time>
      </trkpt>
      <trkpt lat="49.25587" lon="4.02955">
        <ele>83.6</ele>
        <time>2026-08-24T10:48:25Z</time>
      </trkpt>
      <trkpt lat="49.25586" lon="4.0295">
        <ele>83.4</ele>
        <time>2026-08-24T10:48:26Z</time>
      </trkpt>
      <trkpt lat="49.25584" lon="4.02944">
        <ele>83.2</ele>
        <time>2026-08-24T10:48:27Z</time>
      </trkpt>
      <trkpt lat="49.25582" lon="4.02937">
        <ele>83</ele>
        <time>2026-08-24T10:48:28Z</time>
      </trkpt>
      <trkpt lat="49.2558" lon="4.02931">
        <ele>82.8</ele>
        <time>2026-08-24T10:48:29Z</time>
      </trkpt>
      <trkpt lat="49.25578" lon="4.02925">
        <ele>82.8</ele>
        <time>2026-08-24T10:48:30Z</time>
      </trkpt>
      <trkpt lat="49.25576" lon="4.02919">
        <ele>82.6</ele>
        <time>2026-08-24T10:48:31Z</time>
      </trkpt>
      <trkpt lat="49.25575" lon="4.02913">
        <ele>82.4</ele>
        <time>2026-08-24T10:48:32Z</time>
      </trkpt>
      <trkpt lat="49.25573" lon="4.02908">
        <ele>82.4</ele>
        <time>2026-08-24T10:48:33Z</time>
      </trkpt>
      <trkpt lat="49.25572" lon="4.02904">
        <ele>82.4</ele>
        <time>2026-08-24T10:48:34Z</time>
      </trkpt>
      <trkpt lat="49.2557" lon="4.029">
        <ele>82.4</ele>
        <time>2026-08-24T10:48:35Z</time>
      </trkpt>
      <trkpt lat="49.25567" lon="4.02895">
        <ele>82.4</ele>
        <time>2026-08-24T10:48:36Z</time>
      </trkpt>
      <trkpt lat="49.25565" lon="4.0289">
        <ele>82.2</ele>
        <time>2026-08-24T10:48:37Z</time>
      </trkpt>
      <trkpt lat="49.25563" lon="4.02885">
        <ele>82.2</ele>
        <time>2026-08-24T10:48:38Z</time>
      </trkpt>
      <trkpt lat="49.2556" lon="4.02878">
        <ele>82.2</ele>
        <time>2026-08-24T10:48:39Z</time>
      </trkpt>
      <trkpt lat="49.25558" lon="4.02872">
        <ele>82</ele>
        <time>2026-08-24T10:48:40Z</time>
      </trkpt>
      <trkpt lat="49.25556" lon="4.02865">
        <ele>82</ele>
        <time>2026-08-24T10:48:41Z</time>
      </trkpt>
      <trkpt lat="49.25553" lon="4.02858">
        <ele>82</ele>
        <time>2026-08-24T10:48:42Z</time>
      </trkpt>
      <trkpt lat="49.25551" lon="4.0285">
        <ele>82</ele>
        <time>2026-08-24T10:48:43Z</time>
      </trkpt>
      <trkpt lat="49.25549" lon="4.02843">
        <ele>82</ele>
        <time>2026-08-24T10:48:44Z</time>
      </trkpt>
      <trkpt lat="49.25546" lon="4.02836">
        <ele>82</ele>
        <time>2026-08-24T10:48:45Z</time>
      </trkpt>
      <trkpt lat="49.25544" lon="4.02828">
        <ele>82</ele>
        <time>2026-08-24T10:48:46Z</time>
      </trkpt>
      <trkpt lat="49.25542" lon="4.02821">
        <ele>81.8</ele>
        <time>2026-08-24T10:48:47Z</time>
      </trkpt>
      <trkpt lat="49.25539" lon="4.02814">
        <ele>81.4</ele>
        <time>2026-08-24T10:48:48Z</time>
      </trkpt>
      <trkpt lat="49.25537" lon="4.02807">
        <ele>81.2</ele>
        <time>2026-08-24T10:48:49Z</time>
      </trkpt>
      <trkpt lat="49.25534" lon="4.028">
        <ele>81.2</ele>
        <time>2026-08-24T10:48:50Z</time>
      </trkpt>
      <trkpt lat="49.25532" lon="4.02793">
        <ele>81.2</ele>
        <time>2026-08-24T10:48:51Z</time>
      </trkpt>
      <trkpt lat="49.2553" lon="4.02786">
        <ele>81</ele>
        <time>2026-08-24T10:48:52Z</time>
      </trkpt>
      <trkpt lat="49.25528" lon="4.02779">
        <ele>81.2</ele>
        <time>2026-08-24T10:48:53Z</time>
      </trkpt>
      <trkpt lat="49.25525" lon="4.02773">
        <ele>81.2</ele>
        <time>2026-08-24T10:48:54Z</time>
      </trkpt>
      <trkpt lat="49.25523" lon="4.02767">
        <ele>81.2</ele>
        <time>2026-08-24T10:48:55Z</time>
      </trkpt>
      <trkpt lat="49.2552" lon="4.02762">
        <ele>81.2</ele>
        <time>2026-08-24T10:48:56Z</time>
      </trkpt>
      <trkpt lat="49.25519" lon="4.02758">
        <ele>81.2</ele>
        <time>2026-08-24T10:48:57Z</time>
      </trkpt>
      <trkpt lat="49.25517" lon="4.02753">
        <ele>81.2</ele>
        <time>2026-08-24T10:48:58Z</time>
      </trkpt>
      <trkpt lat="49.25517" lon="4.02748">
        <ele>81.2</ele>
        <time>2026-08-24T10:48:59Z</time>
      </trkpt>
      <trkpt lat="49.25517" lon="4.02742">
        <ele>81.2</ele>
        <time>2026-08-24T10:49:00Z</time>
      </trkpt>
      <trkpt lat="49.25518" lon="4.02736">
        <ele>81.4</ele>
        <time>2026-08-24T10:49:01Z</time>
      </trkpt>
      <trkpt lat="49.25518" lon="4.02729">
        <ele>81.2</ele>
        <time>2026-08-24T10:49:02Z</time>
      </trkpt>
      <trkpt lat="49.25517" lon="4.02723">
        <ele>81</ele>
        <time>2026-08-24T10:49:03Z</time>
      </trkpt>
      <trkpt lat="49.25516" lon="4.02717">
        <ele>81.2</ele>
        <time>2026-08-24T10:49:04Z</time>
      </trkpt>
      <trkpt lat="49.25513" lon="4.02711">
        <ele>81.4</ele>
        <time>2026-08-24T10:49:05Z</time>
      </trkpt>
      <trkpt lat="49.25509" lon="4.02707">
        <ele>81.2</ele>
        <time>2026-08-24T10:49:06Z</time>
      </trkpt>
      <trkpt lat="49.25506" lon="4.02703">
        <ele>81.2</ele>
        <time>2026-08-24T10:49:07Z</time>
      </trkpt>
      <trkpt lat="49.25503" lon="4.02697">
        <ele>81</ele>
        <time>2026-08-24T10:49:08Z</time>
      </trkpt>
      <trkpt lat="49.25501" lon="4.02691">
        <ele>81</ele>
        <time>2026-08-24T10:49:09Z</time>
      </trkpt>
      <trkpt lat="49.25499" lon="4.02685">
        <ele>80.6</ele>
        <time>2026-08-24T10:49:10Z</time>
      </trkpt>
      <trkpt lat="49.25497" lon="4.02678">
        <ele>80.4</ele>
        <time>2026-08-24T10:49:11Z</time>
      </trkpt>
      <trkpt lat="49.25494" lon="4.02671">
        <ele>80.6</ele>
        <time>2026-08-24T10:49:12Z</time>
      </trkpt>
      <trkpt lat="49.25492" lon="4.02664">
        <ele>80.6</ele>
        <time>2026-08-24T10:49:13Z</time>
      </trkpt>
      <trkpt lat="49.25489" lon="4.02657">
        <ele>80.6</ele>
        <time>2026-08-24T10:49:14Z</time>
      </trkpt>
      <trkpt lat="49.25487" lon="4.02651">
        <ele>80.6</ele>
        <time>2026-08-24T10:49:15Z</time>
      </trkpt>
      <trkpt lat="49.25484" lon="4.02644">
        <ele>80.6</ele>
        <time>2026-08-24T10:49:16Z</time>
      </trkpt>
      <trkpt lat="49.25481" lon="4.02637">
        <ele>80.6</ele>
        <time>2026-08-24T10:49:17Z</time>
      </trkpt>
      <trkpt lat="49.25479" lon="4.0263">
        <ele>80.6</ele>
        <time>2026-08-24T10:49:18Z</time>
      </trkpt>
      <trkpt lat="49.25477" lon="4.02622">
        <ele>80.6</ele>
        <time>2026-08-24T10:49:19Z</time>
      </trkpt>
      <trkpt lat="49.25475" lon="4.02614">
        <ele>80.4</ele>
        <time>2026-08-24T10:49:20Z</time>
      </trkpt>
      <trkpt lat="49.25473" lon="4.02606">
        <ele>80.4</ele>
        <time>2026-08-24T10:49:21Z</time>
      </trkpt>
      <trkpt lat="49.25469" lon="4.02598">
        <ele>80.2</ele>
        <time>2026-08-24T10:49:22Z</time>
      </trkpt>
      <trkpt lat="49.25465" lon="4.02591">
        <ele>80.2</ele>
        <time>2026-08-24T10:49:23Z</time>
      </trkpt>
      <trkpt lat="49.25462" lon="4.02585">
        <ele>80.2</ele>
        <time>2026-08-24T10:49:24Z</time>
      </trkpt>
      <trkpt lat="49.25459" lon="4.02579">
        <ele>80.2</ele>
        <time>2026-08-24T10:49:25Z</time>
      </trkpt>
      <trkpt lat="49.25458" lon="4.02571">
        <ele>80.2</ele>
        <time>2026-08-24T10:49:26Z</time>
      </trkpt>
      <trkpt lat="49.25457" lon="4.02564">
        <ele>80</ele>
        <time>2026-08-24T10:49:27Z</time>
      </trkpt>
      <trkpt lat="49.25455" lon="4.02558">
        <ele>80</ele>
        <time>2026-08-24T10:49:28Z</time>
      </trkpt>
      <trkpt lat="49.25453" lon="4.02552">
        <ele>80</ele>
        <time>2026-08-24T10:49:29Z</time>
      </trkpt>
      <trkpt lat="49.25451" lon="4.02546">
        <ele>79.8</ele>
        <time>2026-08-24T10:49:30Z</time>
      </trkpt>
      <trkpt lat="49.25447" lon="4.02539">
        <ele>79.8</ele>
        <time>2026-08-24T10:49:31Z</time>
      </trkpt>
      <trkpt lat="49.25444" lon="4.02533">
        <ele>79.6</ele>
        <time>2026-08-24T10:49:32Z</time>
      </trkpt>
      <trkpt lat="49.25441" lon="4.02527">
        <ele>79.6</ele>
        <time>2026-08-24T10:49:33Z</time>
      </trkpt>
      <trkpt lat="49.25438" lon="4.0252">
        <ele>79.6</ele>
        <time>2026-08-24T10:49:34Z</time>
      </trkpt>
      <trkpt lat="49.25436" lon="4.02513">
        <ele>79.8</ele>
        <time>2026-08-24T10:49:35Z</time>
      </trkpt>
      <trkpt lat="49.25433" lon="4.02506">
        <ele>79.8</ele>
        <time>2026-08-24T10:49:36Z</time>
      </trkpt>
      <trkpt lat="49.25431" lon="4.02498">
        <ele>79.8</ele>
        <time>2026-08-24T10:49:37Z</time>
      </trkpt>
      <trkpt lat="49.25428" lon="4.02491">
        <ele>79.8</ele>
        <time>2026-08-24T10:49:38Z</time>
      </trkpt>
      <trkpt lat="49.25426" lon="4.02483">
        <ele>79.6</ele>
        <time>2026-08-24T10:49:39Z</time>
      </trkpt>
      <trkpt lat="49.25423" lon="4.02476">
        <ele>79.6</ele>
        <time>2026-08-24T10:49:40Z</time>
      </trkpt>
      <trkpt lat="49.2542" lon="4.02468">
        <ele>79.6</ele>
        <time>2026-08-24T10:49:41Z</time>
      </trkpt>
      <trkpt lat="49.25418" lon="4.0246">
        <ele>79.4</ele>
        <time>2026-08-24T10:49:42Z</time>
      </trkpt>
      <trkpt lat="49.25415" lon="4.02453">
        <ele>79.4</ele>
        <time>2026-08-24T10:49:43Z</time>
      </trkpt>
      <trkpt lat="49.25412" lon="4.02445">
        <ele>79.4</ele>
        <time>2026-08-24T10:49:44Z</time>
      </trkpt>
      <trkpt lat="49.25409" lon="4.02438">
        <ele>79.4</ele>
        <time>2026-08-24T10:49:45Z</time>
      </trkpt>
      <trkpt lat="49.25407" lon="4.02431">
        <ele>79.4</ele>
        <time>2026-08-24T10:49:46Z</time>
      </trkpt>
      <trkpt lat="49.25404" lon="4.02424">
        <ele>79.4</ele>
        <time>2026-08-24T10:49:47Z</time>
      </trkpt>
      <trkpt lat="49.25402" lon="4.02417">
        <ele>79.4</ele>
        <time>2026-08-24T10:49:48Z</time>
      </trkpt>
      <trkpt lat="49.25398" lon="4.02411">
        <ele>79.4</ele>
        <time>2026-08-24T10:49:49Z</time>
      </trkpt>
      <trkpt lat="49.25395" lon="4.02404">
        <ele>79.2</ele>
        <time>2026-08-24T10:49:50Z</time>
      </trkpt>
      <trkpt lat="49.25393" lon="4.02397">
        <ele>79.2</ele>
        <time>2026-08-24T10:49:51Z</time>
      </trkpt>
      <trkpt lat="49.2539" lon="4.0239">
        <ele>79.2</ele>
        <time>2026-08-24T10:49:52Z</time>
      </trkpt>
      <trkpt lat="49.25388" lon="4.02384">
        <ele>79</ele>
        <time>2026-08-24T10:49:53Z</time>
      </trkpt>
      <trkpt lat="49.25385" lon="4.02379">
        <ele>79</ele>
        <time>2026-08-24T10:49:54Z</time>
      </trkpt>
      <trkpt lat="49.25382" lon="4.02376">
        <ele>79</ele>
        <time>2026-08-24T10:49:55Z</time>
      </trkpt>
      <trkpt lat="49.25378" lon="4.02375">
        <ele>79</ele>
        <time>2026-08-24T10:49:56Z</time>
      </trkpt>
      <trkpt lat="49.25374" lon="4.02376">
        <ele>79.2</ele>
        <time>2026-08-24T10:49:57Z</time>
      </trkpt>
      <trkpt lat="49.2537" lon="4.02379">
        <ele>79.2</ele>
        <time>2026-08-24T10:49:58Z</time>
      </trkpt>
      <trkpt lat="49.25366" lon="4.02381">
        <ele>79</ele>
        <time>2026-08-24T10:49:59Z</time>
      </trkpt>
      <trkpt lat="49.25363" lon="4.02385">
        <ele>79</ele>
        <time>2026-08-24T10:50:00Z</time>
      </trkpt>
      <trkpt lat="49.25359" lon="4.02388">
        <ele>78.8</ele>
        <time>2026-08-24T10:50:01Z</time>
      </trkpt>
      <trkpt lat="49.25355" lon="4.02393">
        <ele>78.6</ele>
        <time>2026-08-24T10:50:02Z</time>
      </trkpt>
      <trkpt lat="49.25352" lon="4.02397">
        <ele>78.6</ele>
        <time>2026-08-24T10:50:03Z</time>
      </trkpt>
      <trkpt lat="49.25348" lon="4.024">
        <ele>78.8</ele>
        <time>2026-08-24T10:50:04Z</time>
      </trkpt>
      <trkpt lat="49.25344" lon="4.02403">
        <ele>79</ele>
        <time>2026-08-24T10:50:05Z</time>
      </trkpt>
      <trkpt lat="49.25341" lon="4.02404">
        <ele>79.2</ele>
        <time>2026-08-24T10:50:06Z</time>
      </trkpt>
      <trkpt lat="49.25339" lon="4.02402">
        <ele>79.4</ele>
        <time>2026-08-24T10:50:07Z</time>
      </trkpt>
      <trkpt lat="49.25336" lon="4.02397">
        <ele>79.6</ele>
        <time>2026-08-24T10:50:08Z</time>
      </trkpt>
      <trkpt lat="49.25334" lon="4.02392">
        <ele>79.6</ele>
        <time>2026-08-24T10:50:09Z</time>
      </trkpt>
      <trkpt lat="49.25331" lon="4.02385">
        <ele>79.4</ele>
        <time>2026-08-24T10:50:10Z</time>
      </trkpt>
      <trkpt lat="49.25329" lon="4.02379">
        <ele>79.4</ele>
        <time>2026-08-24T10:50:11Z</time>
      </trkpt>
      <trkpt lat="49.25326" lon="4.02373">
        <ele>79.2</ele>
        <time>2026-08-24T10:50:12Z</time>
      </trkpt>
      <trkpt lat="49.25323" lon="4.02367">
        <ele>79</ele>
        <time>2026-08-24T10:50:13Z</time>
      </trkpt>
      <trkpt lat="49.2532" lon="4.0236">
        <ele>79</ele>
        <time>2026-08-24T10:50:14Z</time>
      </trkpt>
      <trkpt lat="49.25317" lon="4.02354">
        <ele>79</ele>
        <time>2026-08-24T10:50:15Z</time>
      </trkpt>
      <trkpt lat="49.25314" lon="4.02348">
        <ele>79</ele>
        <time>2026-08-24T10:50:16Z</time>
      </trkpt>
      <trkpt lat="49.25311" lon="4.02342">
        <ele>79</ele>
        <time>2026-08-24T10:50:17Z</time>
      </trkpt>
      <trkpt lat="49.25308" lon="4.02336">
        <ele>79</ele>
        <time>2026-08-24T10:50:18Z</time>
      </trkpt>
      <trkpt lat="49.25305" lon="4.0233">
        <ele>79.2</ele>
        <time>2026-08-24T10:50:19Z</time>
      </trkpt>
      <trkpt lat="49.25302" lon="4.02323">
        <ele>79.2</ele>
        <time>2026-08-24T10:50:20Z</time>
      </trkpt>
      <trkpt lat="49.25299" lon="4.02317">
        <ele>79.2</ele>
        <time>2026-08-24T10:50:21Z</time>
      </trkpt>
      <trkpt lat="49.25296" lon="4.02311">
        <ele>79.2</ele>
        <time>2026-08-24T10:50:22Z</time>
      </trkpt>
      <trkpt lat="49.25292" lon="4.02306">
        <ele>79</ele>
        <time>2026-08-24T10:50:23Z</time>
      </trkpt>
      <trkpt lat="49.25289" lon="4.02299">
        <ele>79</ele>
        <time>2026-08-24T10:50:24Z</time>
      </trkpt>
      <trkpt lat="49.25286" lon="4.02293">
        <ele>79</ele>
        <time>2026-08-24T10:50:25Z</time>
      </trkpt>
      <trkpt lat="49.25283" lon="4.02288">
        <ele>79</ele>
        <time>2026-08-24T10:50:26Z</time>
      </trkpt>
      <trkpt lat="49.2528" lon="4.02282">
        <ele>79</ele>
        <time>2026-08-24T10:50:27Z</time>
      </trkpt>
      <trkpt lat="49.25277" lon="4.02276">
        <ele>79</ele>
        <time>2026-08-24T10:50:28Z</time>
      </trkpt>
      <trkpt lat="49.25274" lon="4.0227">
        <ele>79</ele>
        <time>2026-08-24T10:50:29Z</time>
      </trkpt>
      <trkpt lat="49.25272" lon="4.02264">
        <ele>79</ele>
        <time>2026-08-24T10:50:30Z</time>
      </trkpt>
      <trkpt lat="49.25269" lon="4.02259">
        <ele>79</ele>
        <time>2026-08-24T10:50:31Z</time>
      </trkpt>
      <trkpt lat="49.25267" lon="4.02255">
        <ele>79</ele>
        <time>2026-08-24T10:50:32Z</time>
      </trkpt>
      <trkpt lat="49.25265" lon="4.0225">
        <ele>79</ele>
        <time>2026-08-24T10:50:33Z</time>
      </trkpt>
      <trkpt lat="49.25264" lon="4.02247">
        <ele>79</ele>
        <time>2026-08-24T10:50:34Z</time>
      </trkpt>
      <trkpt lat="49.25263" lon="4.02244">
        <ele>79.2</ele>
        <time>2026-08-24T10:50:35Z</time>
      </trkpt>
      <trkpt lat="49.25262" lon="4.02241">
        <ele>79.2</ele>
        <time>2026-08-24T10:50:36Z</time>
      </trkpt>
      <trkpt lat="49.2526" lon="4.02239">
        <ele>79.2</ele>
        <time>2026-08-24T10:50:37Z</time>
      </trkpt>
      <trkpt lat="49.25258" lon="4.02238">
        <ele>79.2</ele>
        <time>2026-08-24T10:50:38Z</time>
      </trkpt>
      <trkpt lat="49.25257" lon="4.02238">
        <ele>79.2</ele>
        <time>2026-08-24T10:50:39Z</time>
      </trkpt>
      <trkpt lat="49.25257" lon="4.02238">
        <ele>79.2</ele>
        <time>2026-08-24T10:50:40Z</time>
      </trkpt>
      <trkpt lat="49.25257" lon="4.02238">
        <ele>79.2</ele>
        <time>2026-08-24T10:50:41Z</time>
      </trkpt>
      <trkpt lat="49.25253" lon="4.02237">
        <ele>79</ele>
        <time>2026-08-24T10:50:44Z</time>
      </trkpt>
      <trkpt lat="49.25251" lon="4.02238">
        <ele>79</ele>
        <time>2026-08-24T10:50:45Z</time>
      </trkpt>
      <trkpt lat="49.25248" lon="4.0224">
        <ele>79</ele>
        <time>2026-08-24T10:50:46Z</time>
      </trkpt>
      <trkpt lat="49.25245" lon="4.02243">
        <ele>79</ele>
        <time>2026-08-24T10:50:47Z</time>
      </trkpt>
      <trkpt lat="49.25242" lon="4.02246">
        <ele>78.8</ele>
        <time>2026-08-24T10:50:48Z</time>
      </trkpt>
      <trkpt lat="49.2524" lon="4.02249">
        <ele>78.8</ele>
        <time>2026-08-24T10:50:49Z</time>
      </trkpt>
      <trkpt lat="49.25237" lon="4.02252">
        <ele>78.8</ele>
        <time>2026-08-24T10:50:50Z</time>
      </trkpt>
      <trkpt lat="49.25234" lon="4.02256">
        <ele>78.8</ele>
        <time>2026-08-24T10:50:51Z</time>
      </trkpt>
      <trkpt lat="49.25232" lon="4.02259">
        <ele>78.8</ele>
        <time>2026-08-24T10:50:52Z</time>
      </trkpt>
      <trkpt lat="49.25228" lon="4.02263">
        <ele>78.6</ele>
        <time>2026-08-24T10:50:53Z</time>
      </trkpt>
      <trkpt lat="49.25225" lon="4.02266">
        <ele>78.6</ele>
        <time>2026-08-24T10:50:54Z</time>
      </trkpt>
      <trkpt lat="49.25222" lon="4.0227">
        <ele>78.6</ele>
        <time>2026-08-24T10:50:55Z</time>
      </trkpt>
      <trkpt lat="49.25219" lon="4.02274">
        <ele>78.6</ele>
        <time>2026-08-24T10:50:56Z</time>
      </trkpt>
      <trkpt lat="49.25216" lon="4.02278">
        <ele>78.4</ele>
        <time>2026-08-24T10:50:57Z</time>
      </trkpt>
      <trkpt lat="49.25213" lon="4.02283">
        <ele>78.4</ele>
        <time>2026-08-24T10:50:58Z</time>
      </trkpt>
      <trkpt lat="49.2521" lon="4.02287">
        <ele>78.4</ele>
        <time>2026-08-24T10:50:59Z</time>
      </trkpt>
      <trkpt lat="49.25207" lon="4.02291">
        <ele>78.4</ele>
        <time>2026-08-24T10:51:00Z</time>
      </trkpt>
      <trkpt lat="49.25204" lon="4.02295">
        <ele>78.6</ele>
        <time>2026-08-24T10:51:01Z</time>
      </trkpt>
      <trkpt lat="49.252" lon="4.023">
        <ele>78.8</ele>
        <time>2026-08-24T10:51:02Z</time>
      </trkpt>
      <trkpt lat="49.25196" lon="4.02304">
        <ele>78.8</ele>
        <time>2026-08-24T10:51:03Z</time>
      </trkpt>
      <trkpt lat="49.25191" lon="4.02309">
        <ele>79</ele>
        <time>2026-08-24T10:51:04Z</time>
      </trkpt>
      <trkpt lat="49.25186" lon="4.02314">
        <ele>79.4</ele>
        <time>2026-08-24T10:51:05Z</time>
      </trkpt>
      <trkpt lat="49.25181" lon="4.02318">
        <ele>79.4</ele>
        <time>2026-08-24T10:51:06Z</time>
      </trkpt>
      <trkpt lat="49.25177" lon="4.02321">
        <ele>79.6</ele>
        <time>2026-08-24T10:51:07Z</time>
      </trkpt>
      <trkpt lat="49.25172" lon="4.02323">
        <ele>79.8</ele>
        <time>2026-08-24T10:51:08Z</time>
      </trkpt>
      <trkpt lat="49.25167" lon="4.02323">
        <ele>80</ele>
        <time>2026-08-24T10:51:09Z</time>
      </trkpt>
      <trkpt lat="49.25163" lon="4.02323">
        <ele>80</ele>
        <time>2026-08-24T10:51:10Z</time>
      </trkpt>
      <trkpt lat="49.25159" lon="4.02323">
        <ele>80</ele>
        <time>2026-08-24T10:51:11Z</time>
      </trkpt>
      <trkpt lat="49.25154" lon="4.02321">
        <ele>80.2</ele>
        <time>2026-08-24T10:51:12Z</time>
      </trkpt>
      <trkpt lat="49.25151" lon="4.02317">
        <ele>80.4</ele>
        <time>2026-08-24T10:51:13Z</time>
      </trkpt>
      <trkpt lat="49.25149" lon="4.02314">
        <ele>80.6</ele>
        <time>2026-08-24T10:51:14Z</time>
      </trkpt>
      <trkpt lat="49.25147" lon="4.02309">
        <ele>80.8</ele>
        <time>2026-08-24T10:51:15Z</time>
      </trkpt>
      <trkpt lat="49.25145" lon="4.02303">
        <ele>81.2</ele>
        <time>2026-08-24T10:51:16Z</time>
      </trkpt>
      <trkpt lat="49.25143" lon="4.02298">
        <ele>81.4</ele>
        <time>2026-08-24T10:51:17Z</time>
      </trkpt>
      <trkpt lat="49.25141" lon="4.02292">
        <ele>81.8</ele>
        <time>2026-08-24T10:51:18Z</time>
      </trkpt>
      <trkpt lat="49.25139" lon="4.02287">
        <ele>81.8</ele>
        <time>2026-08-24T10:51:19Z</time>
      </trkpt>
      <trkpt lat="49.25137" lon="4.02281">
        <ele>81.8</ele>
        <time>2026-08-24T10:51:20Z</time>
      </trkpt>
      <trkpt lat="49.25135" lon="4.02276">
        <ele>82.2</ele>
        <time>2026-08-24T10:51:21Z</time>
      </trkpt>
      <trkpt lat="49.25134" lon="4.02272">
        <ele>82.4</ele>
        <time>2026-08-24T10:51:22Z</time>
      </trkpt>
      <trkpt lat="49.25133" lon="4.02268">
        <ele>82.4</ele>
        <time>2026-08-24T10:51:23Z</time>
      </trkpt>
      <trkpt lat="49.25131" lon="4.02262">
        <ele>82.4</ele>
        <time>2026-08-24T10:51:24Z</time>
      </trkpt>
      <trkpt lat="49.25129" lon="4.02256">
        <ele>82.4</ele>
        <time>2026-08-24T10:51:25Z</time>
      </trkpt>
      <trkpt lat="49.25127" lon="4.0225">
        <ele>82.6</ele>
        <time>2026-08-24T10:51:26Z</time>
      </trkpt>
      <trkpt lat="49.25125" lon="4.02244">
        <ele>82.6</ele>
        <time>2026-08-24T10:51:27Z</time>
      </trkpt>
      <trkpt lat="49.25122" lon="4.02238">
        <ele>83</ele>
        <time>2026-08-24T10:51:28Z</time>
      </trkpt>
      <trkpt lat="49.25119" lon="4.02231">
        <ele>83.2</ele>
        <time>2026-08-24T10:51:29Z</time>
      </trkpt>
      <trkpt lat="49.25117" lon="4.02224">
        <ele>83.6</ele>
        <time>2026-08-24T10:51:30Z</time>
      </trkpt>
      <trkpt lat="49.25114" lon="4.02217">
        <ele>83.6</ele>
        <time>2026-08-24T10:51:31Z</time>
      </trkpt>
      <trkpt lat="49.25112" lon="4.0221">
        <ele>83.8</ele>
        <time>2026-08-24T10:51:32Z</time>
      </trkpt>
      <trkpt lat="49.25109" lon="4.02203">
        <ele>84</ele>
        <time>2026-08-24T10:51:33Z</time>
      </trkpt>
      <trkpt lat="49.25107" lon="4.02197">
        <ele>84</ele>
        <time>2026-08-24T10:51:34Z</time>
      </trkpt>
      <trkpt lat="49.25104" lon="4.0219">
        <ele>84</ele>
        <time>2026-08-24T10:51:35Z</time>
      </trkpt>
      <trkpt lat="49.25102" lon="4.02183">
        <ele>84</ele>
        <time>2026-08-24T10:51:36Z</time>
      </trkpt>
      <trkpt lat="49.25099" lon="4.02177">
        <ele>84</ele>
        <time>2026-08-24T10:51:37Z</time>
      </trkpt>
      <trkpt lat="49.25096" lon="4.02169">
        <ele>84</ele>
        <time>2026-08-24T10:51:38Z</time>
      </trkpt>
      <trkpt lat="49.25093" lon="4.02162">
        <ele>84</ele>
        <time>2026-08-24T10:51:39Z</time>
      </trkpt>
      <trkpt lat="49.25091" lon="4.02154">
        <ele>83.8</ele>
        <time>2026-08-24T10:51:40Z</time>
      </trkpt>
      <trkpt lat="49.25088" lon="4.02147">
        <ele>84</ele>
        <time>2026-08-24T10:51:41Z</time>
      </trkpt>
      <trkpt lat="49.25086" lon="4.0214">
        <ele>83.8</ele>
        <time>2026-08-24T10:51:42Z</time>
      </trkpt>
      <trkpt lat="49.25084" lon="4.02132">
        <ele>83.6</ele>
        <time>2026-08-24T10:51:43Z</time>
      </trkpt>
      <trkpt lat="49.25081" lon="4.02124">
        <ele>83.6</ele>
        <time>2026-08-24T10:51:44Z</time>
      </trkpt>
      <trkpt lat="49.25078" lon="4.02116">
        <ele>83.4</ele>
        <time>2026-08-24T10:51:45Z</time>
      </trkpt>
      <trkpt lat="49.25075" lon="4.02107">
        <ele>83.2</ele>
        <time>2026-08-24T10:51:46Z</time>
      </trkpt>
      <trkpt lat="49.25072" lon="4.02098">
        <ele>82.8</ele>
        <time>2026-08-24T10:51:47Z</time>
      </trkpt>
      <trkpt lat="49.25069" lon="4.02089">
        <ele>82.6</ele>
        <time>2026-08-24T10:51:48Z</time>
      </trkpt>
      <trkpt lat="49.25066" lon="4.02079">
        <ele>82.2</ele>
        <time>2026-08-24T10:51:49Z</time>
      </trkpt>
      <trkpt lat="49.25063" lon="4.02069">
        <ele>82</ele>
        <time>2026-08-24T10:51:50Z</time>
      </trkpt>
      <trkpt lat="49.2506" lon="4.0206">
        <ele>81.6</ele>
        <time>2026-08-24T10:51:51Z</time>
      </trkpt>
      <trkpt lat="49.25057" lon="4.02051">
        <ele>81.4</ele>
        <time>2026-08-24T10:51:52Z</time>
      </trkpt>
      <trkpt lat="49.25055" lon="4.02042">
        <ele>81</ele>
        <time>2026-08-24T10:51:53Z</time>
      </trkpt>
      <trkpt lat="49.25052" lon="4.02034">
        <ele>80.8</ele>
        <time>2026-08-24T10:51:54Z</time>
      </trkpt>
      <trkpt lat="49.25049" lon="4.02027">
        <ele>80.6</ele>
        <time>2026-08-24T10:51:55Z</time>
      </trkpt>
      <trkpt lat="49.25047" lon="4.0202">
        <ele>80.4</ele>
        <time>2026-08-24T10:51:56Z</time>
      </trkpt>
      <trkpt lat="49.25045" lon="4.02014">
        <ele>80.4</ele>
        <time>2026-08-24T10:51:57Z</time>
      </trkpt>
      <trkpt lat="49.25043" lon="4.02008">
        <ele>80.2</ele>
        <time>2026-08-24T10:51:58Z</time>
      </trkpt>
      <trkpt lat="49.2504" lon="4.02003">
        <ele>80</ele>
        <time>2026-08-24T10:51:59Z</time>
      </trkpt>
      <trkpt lat="49.25038" lon="4.01996">
        <ele>80</ele>
        <time>2026-08-24T10:52:00Z</time>
      </trkpt>
      <trkpt lat="49.25036" lon="4.0199">
        <ele>79.8</ele>
        <time>2026-08-24T10:52:01Z</time>
      </trkpt>
      <trkpt lat="49.25033" lon="4.01983">
        <ele>79.6</ele>
        <time>2026-08-24T10:52:02Z</time>
      </trkpt>
      <trkpt lat="49.25029" lon="4.01977">
        <ele>79.6</ele>
        <time>2026-08-24T10:52:03Z</time>
      </trkpt>
      <trkpt lat="49.25026" lon="4.0197">
        <ele>79.4</ele>
        <time>2026-08-24T10:52:04Z</time>
      </trkpt>
      <trkpt lat="49.25023" lon="4.01963">
        <ele>79.2</ele>
        <time>2026-08-24T10:52:05Z</time>
      </trkpt>
      <trkpt lat="49.2502" lon="4.01956">
        <ele>79.2</ele>
        <time>2026-08-24T10:52:06Z</time>
      </trkpt>
      <trkpt lat="49.25017" lon="4.0195">
        <ele>79.2</ele>
        <time>2026-08-24T10:52:07Z</time>
      </trkpt>
      <trkpt lat="49.25016" lon="4.01947">
        <ele>79.2</ele>
        <time>2026-08-24T10:52:08Z</time>
      </trkpt>
      <trkpt lat="49.25015" lon="4.01945">
        <ele>79.2</ele>
        <time>2026-08-24T10:52:09Z</time>
      </trkpt>
      <trkpt lat="49.25014" lon="4.01944">
        <ele>79.4</ele>
        <time>2026-08-24T10:52:10Z</time>
      </trkpt>
      <trkpt lat="49.25013" lon="4.01942">
        <ele>79.4</ele>
        <time>2026-08-24T10:52:11Z</time>
      </trkpt>
      <trkpt lat="49.25012" lon="4.01939">
        <ele>79.4</ele>
        <time>2026-08-24T10:52:12Z</time>
      </trkpt>
      <trkpt lat="49.2501" lon="4.01935">
        <ele>79.4</ele>
        <time>2026-08-24T10:52:13Z</time>
      </trkpt>
      <trkpt lat="49.25009" lon="4.01931">
        <ele>79.4</ele>
        <time>2026-08-24T10:52:14Z</time>
      </trkpt>
      <trkpt lat="49.25007" lon="4.01926">
        <ele>79.4</ele>
        <time>2026-08-24T10:52:15Z</time>
      </trkpt>
      <trkpt lat="49.25005" lon="4.0192">
        <ele>79.4</ele>
        <time>2026-08-24T10:52:16Z</time>
      </trkpt>
      <trkpt lat="49.25003" lon="4.01914">
        <ele>79.4</ele>
        <time>2026-08-24T10:52:17Z</time>
      </trkpt>
      <trkpt lat="49.25001" lon="4.01907">
        <ele>79.4</ele>
        <time>2026-08-24T10:52:18Z</time>
      </trkpt>
      <trkpt lat="49.24998" lon="4.01901">
        <ele>79.4</ele>
        <time>2026-08-24T10:52:19Z</time>
      </trkpt>
      <trkpt lat="49.24996" lon="4.01894">
        <ele>79.4</ele>
        <time>2026-08-24T10:52:20Z</time>
      </trkpt>
      <trkpt lat="49.24994" lon="4.01886">
        <ele>79.4</ele>
        <time>2026-08-24T10:52:21Z</time>
      </trkpt>
      <trkpt lat="49.24992" lon="4.01879">
        <ele>79.4</ele>
        <time>2026-08-24T10:52:22Z</time>
      </trkpt>
      <trkpt lat="49.24989" lon="4.01872">
        <ele>79.4</ele>
        <time>2026-08-24T10:52:23Z</time>
      </trkpt>
      <trkpt lat="49.24985" lon="4.01865">
        <ele>79.4</ele>
        <time>2026-08-24T10:52:24Z</time>
      </trkpt>
      <trkpt lat="49.24982" lon="4.01857">
        <ele>79.4</ele>
        <time>2026-08-24T10:52:25Z</time>
      </trkpt>
      <trkpt lat="49.24979" lon="4.0185">
        <ele>79.4</ele>
        <time>2026-08-24T10:52:26Z</time>
      </trkpt>
      <trkpt lat="49.24977" lon="4.01841">
        <ele>79.4</ele>
        <time>2026-08-24T10:52:27Z</time>
      </trkpt>
      <trkpt lat="49.24974" lon="4.01834">
        <ele>79.4</ele>
        <time>2026-08-24T10:52:28Z</time>
      </trkpt>
      <trkpt lat="49.24971" lon="4.01826">
        <ele>79.4</ele>
        <time>2026-08-24T10:52:29Z</time>
      </trkpt>
      <trkpt lat="49.24968" lon="4.01818">
        <ele>79.4</ele>
        <time>2026-08-24T10:52:30Z</time>
      </trkpt>
      <trkpt lat="49.24965" lon="4.0181">
        <ele>79.2</ele>
        <time>2026-08-24T10:52:31Z</time>
      </trkpt>
      <trkpt lat="49.24962" lon="4.01802">
        <ele>79.4</ele>
        <time>2026-08-24T10:52:32Z</time>
      </trkpt>
      <trkpt lat="49.24959" lon="4.01794">
        <ele>79.4</ele>
        <time>2026-08-24T10:52:33Z</time>
      </trkpt>
      <trkpt lat="49.24955" lon="4.01786">
        <ele>79.2</ele>
        <time>2026-08-24T10:52:34Z</time>
      </trkpt>
      <trkpt lat="49.24952" lon="4.01779">
        <ele>79.4</ele>
        <time>2026-08-24T10:52:35Z</time>
      </trkpt>
      <trkpt lat="49.24949" lon="4.0177">
        <ele>79.4</ele>
        <time>2026-08-24T10:52:36Z</time>
      </trkpt>
      <trkpt lat="49.24946" lon="4.01762">
        <ele>79.4</ele>
        <time>2026-08-24T10:52:37Z</time>
      </trkpt>
      <trkpt lat="49.24943" lon="4.01754">
        <ele>79.4</ele>
        <time>2026-08-24T10:52:38Z</time>
      </trkpt>
      <trkpt lat="49.2494" lon="4.01745">
        <ele>79.6</ele>
        <time>2026-08-24T10:52:39Z</time>
      </trkpt>
      <trkpt lat="49.24938" lon="4.01736">
        <ele>79.4</ele>
        <time>2026-08-24T10:52:40Z</time>
      </trkpt>
      <trkpt lat="49.24936" lon="4.01727">
        <ele>79.4</ele>
        <time>2026-08-24T10:52:41Z</time>
      </trkpt>
      <trkpt lat="49.24933" lon="4.01719">
        <ele>79.4</ele>
        <time>2026-08-24T10:52:42Z</time>
      </trkpt>
      <trkpt lat="49.2493" lon="4.0171">
        <ele>79.2</ele>
        <time>2026-08-24T10:52:43Z</time>
      </trkpt>
      <trkpt lat="49.24928" lon="4.01701">
        <ele>79.2</ele>
        <time>2026-08-24T10:52:44Z</time>
      </trkpt>
      <trkpt lat="49.24926" lon="4.01692">
        <ele>79</ele>
        <time>2026-08-24T10:52:45Z</time>
      </trkpt>
      <trkpt lat="49.24924" lon="4.01683">
        <ele>79</ele>
        <time>2026-08-24T10:52:46Z</time>
      </trkpt>
      <trkpt lat="49.24923" lon="4.01674">
        <ele>78.8</ele>
        <time>2026-08-24T10:52:47Z</time>
      </trkpt>
      <trkpt lat="49.24922" lon="4.01664">
        <ele>78.8</ele>
        <time>2026-08-24T10:52:48Z</time>
      </trkpt>
      <trkpt lat="49.2492" lon="4.01654">
        <ele>78.6</ele>
        <time>2026-08-24T10:52:49Z</time>
      </trkpt>
      <trkpt lat="49.24919" lon="4.01644">
        <ele>78.6</ele>
        <time>2026-08-24T10:52:50Z</time>
      </trkpt>
      <trkpt lat="49.24918" lon="4.01635">
        <ele>78.6</ele>
        <time>2026-08-24T10:52:51Z</time>
      </trkpt>
      <trkpt lat="49.24916" lon="4.01625">
        <ele>78.6</ele>
        <time>2026-08-24T10:52:52Z</time>
      </trkpt>
      <trkpt lat="49.24916" lon="4.01615">
        <ele>78.6</ele>
        <time>2026-08-24T10:52:53Z</time>
      </trkpt>
      <trkpt lat="49.24914" lon="4.01606">
        <ele>78.6</ele>
        <time>2026-08-24T10:52:54Z</time>
      </trkpt>
      <trkpt lat="49.24913" lon="4.01596">
        <ele>78.6</ele>
        <time>2026-08-24T10:52:55Z</time>
      </trkpt>
      <trkpt lat="49.24911" lon="4.01586">
        <ele>78.4</ele>
        <time>2026-08-24T10:52:56Z</time>
      </trkpt>
      <trkpt lat="49.2491" lon="4.01577">
        <ele>78.4</ele>
        <time>2026-08-24T10:52:57Z</time>
      </trkpt>
      <trkpt lat="49.24908" lon="4.01567">
        <ele>78.4</ele>
        <time>2026-08-24T10:52:58Z</time>
      </trkpt>
      <trkpt lat="49.24907" lon="4.01558">
        <ele>78.4</ele>
        <time>2026-08-24T10:52:59Z</time>
      </trkpt>
      <trkpt lat="49.24905" lon="4.01548">
        <ele>78.6</ele>
        <time>2026-08-24T10:53:00Z</time>
      </trkpt>
      <trkpt lat="49.24904" lon="4.01539">
        <ele>78.6</ele>
        <time>2026-08-24T10:53:01Z</time>
      </trkpt>
      <trkpt lat="49.24903" lon="4.0153">
        <ele>78.8</ele>
        <time>2026-08-24T10:53:02Z</time>
      </trkpt>
      <trkpt lat="49.24901" lon="4.0152">
        <ele>78.8</ele>
        <time>2026-08-24T10:53:03Z</time>
      </trkpt>
      <trkpt lat="49.249" lon="4.01511">
        <ele>79</ele>
        <time>2026-08-24T10:53:04Z</time>
      </trkpt>
      <trkpt lat="49.24898" lon="4.01502">
        <ele>79</ele>
        <time>2026-08-24T10:53:05Z</time>
      </trkpt>
      <trkpt lat="49.24897" lon="4.01492">
        <ele>79</ele>
        <time>2026-08-24T10:53:06Z</time>
      </trkpt>
      <trkpt lat="49.24896" lon="4.01483">
        <ele>78.8</ele>
        <time>2026-08-24T10:53:07Z</time>
      </trkpt>
      <trkpt lat="49.24894" lon="4.01473">
        <ele>79</ele>
        <time>2026-08-24T10:53:08Z</time>
      </trkpt>
      <trkpt lat="49.24893" lon="4.01464">
        <ele>79</ele>
        <time>2026-08-24T10:53:09Z</time>
      </trkpt>
      <trkpt lat="49.24891" lon="4.01454">
        <ele>79</ele>
        <time>2026-08-24T10:53:10Z</time>
      </trkpt>
      <trkpt lat="49.2489" lon="4.01444">
        <ele>79</ele>
        <time>2026-08-24T10:53:11Z</time>
      </trkpt>
      <trkpt lat="49.24889" lon="4.01434">
        <ele>79.2</ele>
        <time>2026-08-24T10:53:12Z</time>
      </trkpt>
      <trkpt lat="49.24888" lon="4.01425">
        <ele>79.2</ele>
        <time>2026-08-24T10:53:13Z</time>
      </trkpt>
      <trkpt lat="49.24886" lon="4.01415">
        <ele>79.2</ele>
        <time>2026-08-24T10:53:14Z</time>
      </trkpt>
      <trkpt lat="49.24884" lon="4.01406">
        <ele>79.4</ele>
        <time>2026-08-24T10:53:15Z</time>
      </trkpt>
      <trkpt lat="49.24883" lon="4.01397">
        <ele>79.4</ele>
        <time>2026-08-24T10:53:16Z</time>
      </trkpt>
      <trkpt lat="49.24881" lon="4.01388">
        <ele>79.4</ele>
        <time>2026-08-24T10:53:17Z</time>
      </trkpt>
      <trkpt lat="49.2488" lon="4.01379">
        <ele>79.6</ele>
        <time>2026-08-24T10:53:18Z</time>
      </trkpt>
      <trkpt lat="49.24879" lon="4.0137">
        <ele>79.6</ele>
        <time>2026-08-24T10:53:19Z</time>
      </trkpt>
      <trkpt lat="49.24879" lon="4.01361">
        <ele>79.6</ele>
        <time>2026-08-24T10:53:20Z</time>
      </trkpt>
      <trkpt lat="49.24878" lon="4.01353">
        <ele>79.8</ele>
        <time>2026-08-24T10:53:21Z</time>
      </trkpt>
      <trkpt lat="49.24877" lon="4.01345">
        <ele>79.8</ele>
        <time>2026-08-24T10:53:22Z</time>
      </trkpt>
      <trkpt lat="49.24876" lon="4.01337">
        <ele>80</ele>
        <time>2026-08-24T10:53:23Z</time>
      </trkpt>
      <trkpt lat="49.24875" lon="4.0133">
        <ele>80</ele>
        <time>2026-08-24T10:53:24Z</time>
      </trkpt>
      <trkpt lat="49.24875" lon="4.01324">
        <ele>80.2</ele>
        <time>2026-08-24T10:53:25Z</time>
      </trkpt>
      <trkpt lat="49.24874" lon="4.01319">
        <ele>80.4</ele>
        <time>2026-08-24T10:53:26Z</time>
      </trkpt>
      <trkpt lat="49.24874" lon="4.01315">
        <ele>80.4</ele>
        <time>2026-08-24T10:53:27Z</time>
      </trkpt>
      <trkpt lat="49.24875" lon="4.01312">
        <ele>80.4</ele>
        <time>2026-08-24T10:53:28Z</time>
      </trkpt>
      <trkpt lat="49.24876" lon="4.01309">
        <ele>80.4</ele>
        <time>2026-08-24T10:53:29Z</time>
      </trkpt>
      <trkpt lat="49.24878" lon="4.01306">
        <ele>80.4</ele>
        <time>2026-08-24T10:53:30Z</time>
      </trkpt>
      <trkpt lat="49.2488" lon="4.01304">
        <ele>80.2</ele>
        <time>2026-08-24T10:53:31Z</time>
      </trkpt>
      <trkpt lat="49.24882" lon="4.01302">
        <ele>80.2</ele>
        <time>2026-08-24T10:53:32Z</time>
      </trkpt>
      <trkpt lat="49.24885" lon="4.013">
        <ele>80</ele>
        <time>2026-08-24T10:53:33Z</time>
      </trkpt>
      <trkpt lat="49.24888" lon="4.01298">
        <ele>80</ele>
        <time>2026-08-24T10:53:34Z</time>
      </trkpt>
      <trkpt lat="49.2489" lon="4.01294">
        <ele>79.8</ele>
        <time>2026-08-24T10:53:35Z</time>
      </trkpt>
      <trkpt lat="49.24893" lon="4.01288">
        <ele>79.8</ele>
        <time>2026-08-24T10:53:36Z</time>
      </trkpt>
      <trkpt lat="49.24895" lon="4.01281">
        <ele>79.8</ele>
        <time>2026-08-24T10:53:37Z</time>
      </trkpt>
      <trkpt lat="49.24897" lon="4.01274">
        <ele>79.6</ele>
        <time>2026-08-24T10:53:38Z</time>
      </trkpt>
      <trkpt lat="49.24899" lon="4.01266">
        <ele>79.6</ele>
        <time>2026-08-24T10:53:39Z</time>
      </trkpt>
      <trkpt lat="49.24902" lon="4.01259">
        <ele>79.4</ele>
        <time>2026-08-24T10:53:40Z</time>
      </trkpt>
      <trkpt lat="49.24905" lon="4.01251">
        <ele>79.2</ele>
        <time>2026-08-24T10:53:41Z</time>
      </trkpt>
      <trkpt lat="49.24908" lon="4.01243">
        <ele>79.4</ele>
        <time>2026-08-24T10:53:42Z</time>
      </trkpt>
      <trkpt lat="49.2491" lon="4.01235">
        <ele>79.2</ele>
        <time>2026-08-24T10:53:43Z</time>
      </trkpt>
      <trkpt lat="49.24913" lon="4.01227">
        <ele>79.2</ele>
        <time>2026-08-24T10:53:44Z</time>
      </trkpt>
      <trkpt lat="49.24916" lon="4.01219">
        <ele>79.2</ele>
        <time>2026-08-24T10:53:45Z</time>
      </trkpt>
      <trkpt lat="49.24918" lon="4.01211">
        <ele>79.2</ele>
        <time>2026-08-24T10:53:46Z</time>
      </trkpt>
      <trkpt lat="49.24921" lon="4.01203">
        <ele>79</ele>
        <time>2026-08-24T10:53:47Z</time>
      </trkpt>
      <trkpt lat="49.24923" lon="4.01194">
        <ele>79</ele>
        <time>2026-08-24T10:53:48Z</time>
      </trkpt>
      <trkpt lat="49.24926" lon="4.01186">
        <ele>79</ele>
        <time>2026-08-24T10:53:49Z</time>
      </trkpt>
      <trkpt lat="49.24929" lon="4.01178">
        <ele>79</ele>
        <time>2026-08-24T10:53:50Z</time>
      </trkpt>
      <trkpt lat="49.24931" lon="4.0117">
        <ele>79</ele>
        <time>2026-08-24T10:53:51Z</time>
      </trkpt>
      <trkpt lat="49.24934" lon="4.01162">
        <ele>78.8</ele>
        <time>2026-08-24T10:53:52Z</time>
      </trkpt>
      <trkpt lat="49.24937" lon="4.01154">
        <ele>78.8</ele>
        <time>2026-08-24T10:53:53Z</time>
      </trkpt>
      <trkpt lat="49.24939" lon="4.01146">
        <ele>78.8</ele>
        <time>2026-08-24T10:53:54Z</time>
      </trkpt>
      <trkpt lat="49.24942" lon="4.01138">
        <ele>79</ele>
        <time>2026-08-24T10:53:55Z</time>
      </trkpt>
      <trkpt lat="49.24945" lon="4.0113">
        <ele>79</ele>
        <time>2026-08-24T10:53:56Z</time>
      </trkpt>
      <trkpt lat="49.24948" lon="4.01122">
        <ele>79.2</ele>
        <time>2026-08-24T10:53:57Z</time>
      </trkpt>
      <trkpt lat="49.2495" lon="4.01114">
        <ele>79.2</ele>
        <time>2026-08-24T10:53:58Z</time>
      </trkpt>
      <trkpt lat="49.24953" lon="4.01106">
        <ele>79.4</ele>
        <time>2026-08-24T10:53:59Z</time>
      </trkpt>
      <trkpt lat="49.24956" lon="4.01097">
        <ele>79.6</ele>
        <time>2026-08-24T10:54:00Z</time>
      </trkpt>
      <trkpt lat="49.24959" lon="4.01089">
        <ele>79.8</ele>
        <time>2026-08-24T10:54:01Z</time>
      </trkpt>
      <trkpt lat="49.24962" lon="4.01081">
        <ele>80</ele>
        <time>2026-08-24T10:54:02Z</time>
      </trkpt>
      <trkpt lat="49.24965" lon="4.01073">
        <ele>80</ele>
        <time>2026-08-24T10:54:03Z</time>
      </trkpt>
      <trkpt lat="49.24968" lon="4.01065">
        <ele>80</ele>
        <time>2026-08-24T10:54:04Z</time>
      </trkpt>
      <trkpt lat="49.2497" lon="4.01057">
        <ele>80</ele>
        <time>2026-08-24T10:54:05Z</time>
      </trkpt>
      <trkpt lat="49.24973" lon="4.01049">
        <ele>80</ele>
        <time>2026-08-24T10:54:06Z</time>
      </trkpt>
      <trkpt lat="49.24976" lon="4.01041">
        <ele>80</ele>
        <time>2026-08-24T10:54:07Z</time>
      </trkpt>
      <trkpt lat="49.24979" lon="4.01033">
        <ele>80</ele>
        <time>2026-08-24T10:54:08Z</time>
      </trkpt>
      <trkpt lat="49.24982" lon="4.01025">
        <ele>80</ele>
        <time>2026-08-24T10:54:09Z</time>
      </trkpt>
      <trkpt lat="49.24984" lon="4.01017">
        <ele>80</ele>
        <time>2026-08-24T10:54:10Z</time>
      </trkpt>
      <trkpt lat="49.24987" lon="4.01009">
        <ele>80.2</ele>
        <time>2026-08-24T10:54:11Z</time>
      </trkpt>
      <trkpt lat="49.2499" lon="4.01">
        <ele>80</ele>
        <time>2026-08-24T10:54:12Z</time>
      </trkpt>
      <trkpt lat="49.24993" lon="4.00992">
        <ele>80.2</ele>
        <time>2026-08-24T10:54:13Z</time>
      </trkpt>
      <trkpt lat="49.24996" lon="4.00984">
        <ele>80.2</ele>
        <time>2026-08-24T10:54:14Z</time>
      </trkpt>
      <trkpt lat="49.24998" lon="4.00976">
        <ele>80.2</ele>
        <time>2026-08-24T10:54:15Z</time>
      </trkpt>
      <trkpt lat="49.25001" lon="4.00968">
        <ele>80.2</ele>
        <time>2026-08-24T10:54:16Z</time>
      </trkpt>
      <trkpt lat="49.25004" lon="4.0096">
        <ele>80.4</ele>
        <time>2026-08-24T10:54:17Z</time>
      </trkpt>
      <trkpt lat="49.25007" lon="4.00952">
        <ele>80.4</ele>
        <time>2026-08-24T10:54:18Z</time>
      </trkpt>
      <trkpt lat="49.25009" lon="4.00944">
        <ele>80.4</ele>
        <time>2026-08-24T10:54:19Z</time>
      </trkpt>
      <trkpt lat="49.25012" lon="4.00936">
        <ele>80.4</ele>
        <time>2026-08-24T10:54:20Z</time>
      </trkpt>
      <trkpt lat="49.25015" lon="4.00928">
        <ele>80.4</ele>
        <time>2026-08-24T10:54:21Z</time>
      </trkpt>
      <trkpt lat="49.25017" lon="4.0092">
        <ele>80.4</ele>
        <time>2026-08-24T10:54:22Z</time>
      </trkpt>
      <trkpt lat="49.25021" lon="4.00912">
        <ele>80.6</ele>
        <time>2026-08-24T10:54:23Z</time>
      </trkpt>
      <trkpt lat="49.25024" lon="4.00905">
        <ele>80.6</ele>
        <time>2026-08-24T10:54:24Z</time>
      </trkpt>
      <trkpt lat="49.25027" lon="4.00897">
        <ele>80.6</ele>
        <time>2026-08-24T10:54:25Z</time>
      </trkpt>
      <trkpt lat="49.2503" lon="4.00889">
        <ele>80.6</ele>
        <time>2026-08-24T10:54:26Z</time>
      </trkpt>
      <trkpt lat="49.25033" lon="4.0088">
        <ele>80.6</ele>
        <time>2026-08-24T10:54:27Z</time>
      </trkpt>
      <trkpt lat="49.25036" lon="4.00872">
        <ele>80.6</ele>
        <time>2026-08-24T10:54:28Z</time>
      </trkpt>
      <trkpt lat="49.25039" lon="4.00864">
        <ele>80.6</ele>
        <time>2026-08-24T10:54:29Z</time>
      </trkpt>
      <trkpt lat="49.25043" lon="4.00855">
        <ele>80.6</ele>
        <time>2026-08-24T10:54:30Z</time>
      </trkpt>
      <trkpt lat="49.25046" lon="4.00846">
        <ele>80.6</ele>
        <time>2026-08-24T10:54:31Z</time>
      </trkpt>
      <trkpt lat="49.25049" lon="4.00837">
        <ele>80.4</ele>
        <time>2026-08-24T10:54:32Z</time>
      </trkpt>
      <trkpt lat="49.25051" lon="4.00827">
        <ele>80.4</ele>
        <time>2026-08-24T10:54:33Z</time>
      </trkpt>
      <trkpt lat="49.25054" lon="4.00818">
        <ele>80.2</ele>
        <time>2026-08-24T10:54:34Z</time>
      </trkpt>
      <trkpt lat="49.25057" lon="4.00808">
        <ele>80.2</ele>
        <time>2026-08-24T10:54:35Z</time>
      </trkpt>
      <trkpt lat="49.2506" lon="4.00799">
        <ele>80</ele>
        <time>2026-08-24T10:54:36Z</time>
      </trkpt>
      <trkpt lat="49.25063" lon="4.0079">
        <ele>80.2</ele>
        <time>2026-08-24T10:54:37Z</time>
      </trkpt>
      <trkpt lat="49.25066" lon="4.0078">
        <ele>80</ele>
        <time>2026-08-24T10:54:38Z</time>
      </trkpt>
      <trkpt lat="49.25069" lon="4.0077">
        <ele>80</ele>
        <time>2026-08-24T10:54:39Z</time>
      </trkpt>
      <trkpt lat="49.25071" lon="4.00761">
        <ele>80</ele>
        <time>2026-08-24T10:54:40Z</time>
      </trkpt>
      <trkpt lat="49.25074" lon="4.00752">
        <ele>80</ele>
        <time>2026-08-24T10:54:41Z</time>
      </trkpt>
      <trkpt lat="49.25076" lon="4.00742">
        <ele>79.8</ele>
        <time>2026-08-24T10:54:42Z</time>
      </trkpt>
      <trkpt lat="49.25079" lon="4.00733">
        <ele>79.8</ele>
        <time>2026-08-24T10:54:43Z</time>
      </trkpt>
      <trkpt lat="49.25082" lon="4.00724">
        <ele>79.8</ele>
        <time>2026-08-24T10:54:44Z</time>
      </trkpt>
      <trkpt lat="49.25084" lon="4.00715">
        <ele>79.8</ele>
        <time>2026-08-24T10:54:45Z</time>
      </trkpt>
      <trkpt lat="49.25087" lon="4.00705">
        <ele>79.6</ele>
        <time>2026-08-24T10:54:46Z</time>
      </trkpt>
      <trkpt lat="49.2509" lon="4.00696">
        <ele>79.4</ele>
        <time>2026-08-24T10:54:47Z</time>
      </trkpt>
      <trkpt lat="49.25093" lon="4.00686">
        <ele>79.4</ele>
        <time>2026-08-24T10:54:48Z</time>
      </trkpt>
      <trkpt lat="49.25095" lon="4.00676">
        <ele>79.4</ele>
        <time>2026-08-24T10:54:49Z</time>
      </trkpt>
      <trkpt lat="49.25097" lon="4.00666">
        <ele>79.2</ele>
        <time>2026-08-24T10:54:50Z</time>
      </trkpt>
      <trkpt lat="49.251" lon="4.00655">
        <ele>79.2</ele>
        <time>2026-08-24T10:54:51Z</time>
      </trkpt>
      <trkpt lat="49.25102" lon="4.00645">
        <ele>79.2</ele>
        <time>2026-08-24T10:54:52Z</time>
      </trkpt>
      <trkpt lat="49.25106" lon="4.00635">
        <ele>79</ele>
        <time>2026-08-24T10:54:53Z</time>
      </trkpt>
      <trkpt lat="49.25109" lon="4.00625">
        <ele>79</ele>
        <time>2026-08-24T10:54:54Z</time>
      </trkpt>
      <trkpt lat="49.25112" lon="4.00615">
        <ele>79</ele>
        <time>2026-08-24T10:54:55Z</time>
      </trkpt>
      <trkpt lat="49.25115" lon="4.00605">
        <ele>78.8</ele>
        <time>2026-08-24T10:54:56Z</time>
      </trkpt>
      <trkpt lat="49.25117" lon="4.00595">
        <ele>78.8</ele>
        <time>2026-08-24T10:54:57Z</time>
      </trkpt>
      <trkpt lat="49.2512" lon="4.00585">
        <ele>79</ele>
        <time>2026-08-24T10:54:58Z</time>
      </trkpt>
      <trkpt lat="49.25123" lon="4.00575">
        <ele>79</ele>
        <time>2026-08-24T10:54:59Z</time>
      </trkpt>
      <trkpt lat="49.25127" lon="4.00566">
        <ele>79</ele>
        <time>2026-08-24T10:55:00Z</time>
      </trkpt>
      <trkpt lat="49.2513" lon="4.00558">
        <ele>79</ele>
        <time>2026-08-24T10:55:01Z</time>
      </trkpt>
      <trkpt lat="49.25133" lon="4.00551">
        <ele>78.8</ele>
        <time>2026-08-24T10:55:02Z</time>
      </trkpt>
      <trkpt lat="49.25135" lon="4.00544">
        <ele>78.8</ele>
        <time>2026-08-24T10:55:03Z</time>
      </trkpt>
      <trkpt lat="49.25135" lon="4.00537">
        <ele>79</ele>
        <time>2026-08-24T10:55:04Z</time>
      </trkpt>
      <trkpt lat="49.25133" lon="4.00532">
        <ele>79</ele>
        <time>2026-08-24T10:55:05Z</time>
      </trkpt>
      <trkpt lat="49.2513" lon="4.00527">
        <ele>79.2</ele>
        <time>2026-08-24T10:55:06Z</time>
      </trkpt>
      <trkpt lat="49.25126" lon="4.00524">
        <ele>79.2</ele>
        <time>2026-08-24T10:55:07Z</time>
      </trkpt>
      <trkpt lat="49.25122" lon="4.00521">
        <ele>79.2</ele>
        <time>2026-08-24T10:55:08Z</time>
      </trkpt>
      <trkpt lat="49.25118" lon="4.00517">
        <ele>79.2</ele>
        <time>2026-08-24T10:55:09Z</time>
      </trkpt>
      <trkpt lat="49.25116" lon="4.00511">
        <ele>79</ele>
        <time>2026-08-24T10:55:10Z</time>
      </trkpt>
      <trkpt lat="49.25115" lon="4.00504">
        <ele>79</ele>
        <time>2026-08-24T10:55:11Z</time>
      </trkpt>
      <trkpt lat="49.25114" lon="4.00496">
        <ele>79.2</ele>
        <time>2026-08-24T10:55:12Z</time>
      </trkpt>
      <trkpt lat="49.25113" lon="4.00488">
        <ele>79.2</ele>
        <time>2026-08-24T10:55:13Z</time>
      </trkpt>
      <trkpt lat="49.25112" lon="4.0048">
        <ele>79.4</ele>
        <time>2026-08-24T10:55:14Z</time>
      </trkpt>
      <trkpt lat="49.2511" lon="4.00472">
        <ele>79.6</ele>
        <time>2026-08-24T10:55:15Z</time>
      </trkpt>
      <trkpt lat="49.25109" lon="4.00463">
        <ele>79.6</ele>
        <time>2026-08-24T10:55:16Z</time>
      </trkpt>
      <trkpt lat="49.25107" lon="4.00455">
        <ele>79.6</ele>
        <time>2026-08-24T10:55:17Z</time>
      </trkpt>
      <trkpt lat="49.25103" lon="4.00448">
        <ele>79.4</ele>
        <time>2026-08-24T10:55:18Z</time>
      </trkpt>
      <trkpt lat="49.25098" lon="4.00442">
        <ele>79.4</ele>
        <time>2026-08-24T10:55:19Z</time>
      </trkpt>
      <trkpt lat="49.25093" lon="4.00438">
        <ele>79.4</ele>
        <time>2026-08-24T10:55:20Z</time>
      </trkpt>
      <trkpt lat="49.25087" lon="4.00434">
        <ele>79.4</ele>
        <time>2026-08-24T10:55:21Z</time>
      </trkpt>
      <trkpt lat="49.25081" lon="4.0043">
        <ele>79.6</ele>
        <time>2026-08-24T10:55:22Z</time>
      </trkpt>
      <trkpt lat="49.25075" lon="4.00427">
        <ele>79.8</ele>
        <time>2026-08-24T10:55:23Z</time>
      </trkpt>
      <trkpt lat="49.25069" lon="4.00423">
        <ele>80</ele>
        <time>2026-08-24T10:55:24Z</time>
      </trkpt>
      <trkpt lat="49.25064" lon="4.0042">
        <ele>80.2</ele>
        <time>2026-08-24T10:55:25Z</time>
      </trkpt>
      <trkpt lat="49.25058" lon="4.00417">
        <ele>80.2</ele>
        <time>2026-08-24T10:55:26Z</time>
      </trkpt>
      <trkpt lat="49.25053" lon="4.00414">
        <ele>80.4</ele>
        <time>2026-08-24T10:55:27Z</time>
      </trkpt>
      <trkpt lat="49.25047" lon="4.00412">
        <ele>80.4</ele>
        <time>2026-08-24T10:55:28Z</time>
      </trkpt>
      <trkpt lat="49.25042" lon="4.00409">
        <ele>80.6</ele>
        <time>2026-08-24T10:55:29Z</time>
      </trkpt>
      <trkpt lat="49.25037" lon="4.00406">
        <ele>80.8</ele>
        <time>2026-08-24T10:55:30Z</time>
      </trkpt>
      <trkpt lat="49.25032" lon="4.00403">
        <ele>81.2</ele>
        <time>2026-08-24T10:55:31Z</time>
      </trkpt>
      <trkpt lat="49.25027" lon="4.004">
        <ele>81.4</ele>
        <time>2026-08-24T10:55:32Z</time>
      </trkpt>
      <trkpt lat="49.25022" lon="4.00397">
        <ele>81.8</ele>
        <time>2026-08-24T10:55:33Z</time>
      </trkpt>
      <trkpt lat="49.25017" lon="4.00394">
        <ele>82</ele>
        <time>2026-08-24T10:55:34Z</time>
      </trkpt>
      <trkpt lat="49.25013" lon="4.00391">
        <ele>82.2</ele>
        <time>2026-08-24T10:55:35Z</time>
      </trkpt>
      <trkpt lat="49.25008" lon="4.00389">
        <ele>82.6</ele>
        <time>2026-08-24T10:55:36Z</time>
      </trkpt>
      <trkpt lat="49.25004" lon="4.00387">
        <ele>82.8</ele>
        <time>2026-08-24T10:55:37Z</time>
      </trkpt>
      <trkpt lat="49.24999" lon="4.00384">
        <ele>83.2</ele>
        <time>2026-08-24T10:55:38Z</time>
      </trkpt>
      <trkpt lat="49.24995" lon="4.00382">
        <ele>83.4</ele>
        <time>2026-08-24T10:55:39Z</time>
      </trkpt>
      <trkpt lat="49.24991" lon="4.0038">
        <ele>83.8</ele>
        <time>2026-08-24T10:55:40Z</time>
      </trkpt>
      <trkpt lat="49.24986" lon="4.00378">
        <ele>84</ele>
        <time>2026-08-24T10:55:41Z</time>
      </trkpt>
      <trkpt lat="49.24982" lon="4.00376">
        <ele>84.2</ele>
        <time>2026-08-24T10:55:42Z</time>
      </trkpt>
      <trkpt lat="49.24978" lon="4.00374">
        <ele>84.6</ele>
        <time>2026-08-24T10:55:43Z</time>
      </trkpt>
      <trkpt lat="49.24973" lon="4.00373">
        <ele>84.8</ele>
        <time>2026-08-24T10:55:44Z</time>
      </trkpt>
      <trkpt lat="49.24969" lon="4.00373">
        <ele>85</ele>
        <time>2026-08-24T10:55:45Z</time>
      </trkpt>
      <trkpt lat="49.24965" lon="4.00374">
        <ele>85.2</ele>
        <time>2026-08-24T10:55:46Z</time>
      </trkpt>
      <trkpt lat="49.2496" lon="4.00375">
        <ele>85.4</ele>
        <time>2026-08-24T10:55:47Z</time>
      </trkpt>
      <trkpt lat="49.24956" lon="4.00376">
        <ele>85.4</ele>
        <time>2026-08-24T10:55:48Z</time>
      </trkpt>
      <trkpt lat="49.24952" lon="4.00377">
        <ele>85.6</ele>
        <time>2026-08-24T10:55:49Z</time>
      </trkpt>
      <trkpt lat="49.24948" lon="4.00378">
        <ele>85.8</ele>
        <time>2026-08-24T10:55:50Z</time>
      </trkpt>
      <trkpt lat="49.24943" lon="4.00379">
        <ele>85.8</ele>
        <time>2026-08-24T10:55:51Z</time>
      </trkpt>
      <trkpt lat="49.24939" lon="4.0038">
        <ele>86</ele>
        <time>2026-08-24T10:55:52Z</time>
      </trkpt>
      <trkpt lat="49.24935" lon="4.0038">
        <ele>86.4</ele>
        <time>2026-08-24T10:55:53Z</time>
      </trkpt>
      <trkpt lat="49.24931" lon="4.00381">
        <ele>86.6</ele>
        <time>2026-08-24T10:55:54Z</time>
      </trkpt>
      <trkpt lat="49.24927" lon="4.00382">
        <ele>87</ele>
        <time>2026-08-24T10:55:55Z</time>
      </trkpt>
      <trkpt lat="49.24923" lon="4.00383">
        <ele>87.2</ele>
        <time>2026-08-24T10:55:56Z</time>
      </trkpt>
      <trkpt lat="49.24919" lon="4.00384">
        <ele>87.4</ele>
        <time>2026-08-24T10:55:57Z</time>
      </trkpt>
      <trkpt lat="49.24915" lon="4.00385">
        <ele>87.6</ele>
        <time>2026-08-24T10:55:58Z</time>
      </trkpt>
      <trkpt lat="49.24911" lon="4.00386">
        <ele>87.8</ele>
        <time>2026-08-24T10:55:59Z</time>
      </trkpt>
      <trkpt lat="49.24907" lon="4.00387">
        <ele>87.8</ele>
        <time>2026-08-24T10:56:00Z</time>
      </trkpt>
      <trkpt lat="49.24903" lon="4.00388">
        <ele>87.8</ele>
        <time>2026-08-24T10:56:01Z</time>
      </trkpt>
      <trkpt lat="49.24898" lon="4.00389">
        <ele>87.8</ele>
        <time>2026-08-24T10:56:02Z</time>
      </trkpt>
      <trkpt lat="49.24894" lon="4.00391">
        <ele>88</ele>
        <time>2026-08-24T10:56:03Z</time>
      </trkpt>
      <trkpt lat="49.2489" lon="4.00392">
        <ele>88</ele>
        <time>2026-08-24T10:56:04Z</time>
      </trkpt>
      <trkpt lat="49.24885" lon="4.00393">
        <ele>88</ele>
        <time>2026-08-24T10:56:05Z</time>
      </trkpt>
      <trkpt lat="49.24881" lon="4.00394">
        <ele>88.2</ele>
        <time>2026-08-24T10:56:06Z</time>
      </trkpt>
      <trkpt lat="49.24877" lon="4.00395">
        <ele>88.2</ele>
        <time>2026-08-24T10:56:07Z</time>
      </trkpt>
      <trkpt lat="49.24873" lon="4.00396">
        <ele>88.4</ele>
        <time>2026-08-24T10:56:08Z</time>
      </trkpt>
      <trkpt lat="49.24868" lon="4.00397">
        <ele>88.4</ele>
        <time>2026-08-24T10:56:09Z</time>
      </trkpt>
      <trkpt lat="49.24864" lon="4.00398">
        <ele>88.4</ele>
        <time>2026-08-24T10:56:10Z</time>
      </trkpt>
      <trkpt lat="49.24859" lon="4.00398">
        <ele>88.4</ele>
        <time>2026-08-24T10:56:11Z</time>
      </trkpt>
      <trkpt lat="49.24854" lon="4.00399">
        <ele>88.6</ele>
        <time>2026-08-24T10:56:12Z</time>
      </trkpt>
      <trkpt lat="49.24849" lon="4.004">
        <ele>88.6</ele>
        <time>2026-08-24T10:56:13Z</time>
      </trkpt>
      <trkpt lat="49.24844" lon="4.004">
        <ele>88.8</ele>
        <time>2026-08-24T10:56:14Z</time>
      </trkpt>
      <trkpt lat="49.24839" lon="4.00401">
        <ele>89</ele>
        <time>2026-08-24T10:56:15Z</time>
      </trkpt>
      <trkpt lat="49.24833" lon="4.00401">
        <ele>89</ele>
        <time>2026-08-24T10:56:16Z</time>
      </trkpt>
      <trkpt lat="49.24828" lon="4.00401">
        <ele>89</ele>
        <time>2026-08-24T10:56:17Z</time>
      </trkpt>
      <trkpt lat="49.24822" lon="4.00401">
        <ele>89.2</ele>
        <time>2026-08-24T10:56:18Z</time>
      </trkpt>
      <trkpt lat="49.24817" lon="4.00402">
        <ele>89.2</ele>
        <time>2026-08-24T10:56:19Z</time>
      </trkpt>
      <trkpt lat="49.24811" lon="4.00403">
        <ele>89.2</ele>
        <time>2026-08-24T10:56:20Z</time>
      </trkpt>
      <trkpt lat="49.24806" lon="4.00403">
        <ele>89.4</ele>
        <time>2026-08-24T10:56:21Z</time>
      </trkpt>
      <trkpt lat="49.24801" lon="4.00404">
        <ele>89.4</ele>
        <time>2026-08-24T10:56:22Z</time>
      </trkpt>
      <trkpt lat="49.24796" lon="4.00405">
        <ele>89.2</ele>
        <time>2026-08-24T10:56:23Z</time>
      </trkpt>
      <trkpt lat="49.24791" lon="4.00406">
        <ele>89.2</ele>
        <time>2026-08-24T10:56:24Z</time>
      </trkpt>
      <trkpt lat="49.24786" lon="4.00407">
        <ele>89.2</ele>
        <time>2026-08-24T10:56:25Z</time>
      </trkpt>
      <trkpt lat="49.24781" lon="4.00408">
        <ele>89</ele>
        <time>2026-08-24T10:56:26Z</time>
      </trkpt>
      <trkpt lat="49.24776" lon="4.0041">
        <ele>89.2</ele>
        <time>2026-08-24T10:56:27Z</time>
      </trkpt>
      <trkpt lat="49.24772" lon="4.00411">
        <ele>89.2</ele>
        <time>2026-08-24T10:56:28Z</time>
      </trkpt>
      <trkpt lat="49.24767" lon="4.00412">
        <ele>89.2</ele>
        <time>2026-08-24T10:56:29Z</time>
      </trkpt>
      <trkpt lat="49.24763" lon="4.0041">
        <ele>89.4</ele>
        <time>2026-08-24T10:56:30Z</time>
      </trkpt>
      <trkpt lat="49.2476" lon="4.00406">
        <ele>89.4</ele>
        <time>2026-08-24T10:56:31Z</time>
      </trkpt>
      <trkpt lat="49.24759" lon="4.00399">
        <ele>89.6</ele>
        <time>2026-08-24T10:56:32Z</time>
      </trkpt>
      <trkpt lat="49.24758" lon="4.00391">
        <ele>89.4</ele>
        <time>2026-08-24T10:56:33Z</time>
      </trkpt>
      <trkpt lat="49.24757" lon="4.00383">
        <ele>89.4</ele>
        <time>2026-08-24T10:56:34Z</time>
      </trkpt>
      <trkpt lat="49.24756" lon="4.00374">
        <ele>89.4</ele>
        <time>2026-08-24T10:56:35Z</time>
      </trkpt>
      <trkpt lat="49.24755" lon="4.00364">
        <ele>89.2</ele>
        <time>2026-08-24T10:56:36Z</time>
      </trkpt>
      <trkpt lat="49.24754" lon="4.00355">
        <ele>89</ele>
        <time>2026-08-24T10:56:37Z</time>
      </trkpt>
      <trkpt lat="49.24753" lon="4.00344">
        <ele>88.8</ele>
        <time>2026-08-24T10:56:38Z</time>
      </trkpt>
      <trkpt lat="49.24752" lon="4.00334">
        <ele>88.6</ele>
        <time>2026-08-24T10:56:39Z</time>
      </trkpt>
      <trkpt lat="49.24751" lon="4.00323">
        <ele>88.4</ele>
        <time>2026-08-24T10:56:40Z</time>
      </trkpt>
      <trkpt lat="49.2475" lon="4.00312">
        <ele>88.2</ele>
        <time>2026-08-24T10:56:41Z</time>
      </trkpt>
      <trkpt lat="49.24749" lon="4.00301">
        <ele>87.8</ele>
        <time>2026-08-24T10:56:42Z</time>
      </trkpt>
      <trkpt lat="49.24747" lon="4.00289">
        <ele>87.6</ele>
        <time>2026-08-24T10:56:43Z</time>
      </trkpt>
      <trkpt lat="49.24746" lon="4.00277">
        <ele>87.2</ele>
        <time>2026-08-24T10:56:44Z</time>
      </trkpt>
      <trkpt lat="49.24745" lon="4.00265">
        <ele>86.8</ele>
        <time>2026-08-24T10:56:45Z</time>
      </trkpt>
      <trkpt lat="49.24744" lon="4.00252">
        <ele>86.2</ele>
        <time>2026-08-24T10:56:46Z</time>
      </trkpt>
      <trkpt lat="49.24743" lon="4.00239">
        <ele>85.8</ele>
        <time>2026-08-24T10:56:47Z</time>
      </trkpt>
      <trkpt lat="49.24741" lon="4.00226">
        <ele>85.4</ele>
        <time>2026-08-24T10:56:48Z</time>
      </trkpt>
      <trkpt lat="49.2474" lon="4.00213">
        <ele>84.8</ele>
        <time>2026-08-24T10:56:49Z</time>
      </trkpt>
      <trkpt lat="49.24738" lon="4.00199">
        <ele>84.4</ele>
        <time>2026-08-24T10:56:50Z</time>
      </trkpt>
      <trkpt lat="49.24736" lon="4.00185">
        <ele>84</ele>
        <time>2026-08-24T10:56:51Z</time>
      </trkpt>
      <trkpt lat="49.24735" lon="4.00171">
        <ele>83.4</ele>
        <time>2026-08-24T10:56:52Z</time>
      </trkpt>
      <trkpt lat="49.24733" lon="4.00157">
        <ele>83</ele>
        <time>2026-08-24T10:56:53Z</time>
      </trkpt>
      <trkpt lat="49.24732" lon="4.00143">
        <ele>82.6</ele>
        <time>2026-08-24T10:56:54Z</time>
      </trkpt>
      <trkpt lat="49.24731" lon="4.00128">
        <ele>82.4</ele>
        <time>2026-08-24T10:56:55Z</time>
      </trkpt>
      <trkpt lat="49.2473" lon="4.00114">
        <ele>81.8</ele>
        <time>2026-08-24T10:56:56Z</time>
      </trkpt>
      <trkpt lat="49.24729" lon="4.001">
        <ele>81.2</ele>
        <time>2026-08-24T10:56:57Z</time>
      </trkpt>
      <trkpt lat="49.24728" lon="4.00086">
        <ele>81</ele>
        <time>2026-08-24T10:56:58Z</time>
      </trkpt>
      <trkpt lat="49.24727" lon="4.00072">
        <ele>80.6</ele>
        <time>2026-08-24T10:56:59Z</time>
      </trkpt>
      <trkpt lat="49.24726" lon="4.00059">
        <ele>80.4</ele>
        <time>2026-08-24T10:57:00Z</time>
      </trkpt>
      <trkpt lat="49.24725" lon="4.00046">
        <ele>80.2</ele>
        <time>2026-08-24T10:57:01Z</time>
      </trkpt>
      <trkpt lat="49.24724" lon="4.00033">
        <ele>80</ele>
        <time>2026-08-24T10:57:02Z</time>
      </trkpt>
      <trkpt lat="49.24724" lon="4.0002">
        <ele>80</ele>
        <time>2026-08-24T10:57:03Z</time>
      </trkpt>
      <trkpt lat="49.24724" lon="4.00008">
        <ele>80</ele>
        <time>2026-08-24T10:57:04Z</time>
      </trkpt>
      <trkpt lat="49.24725" lon="3.99996">
        <ele>80</ele>
        <time>2026-08-24T10:57:05Z</time>
      </trkpt>
      <trkpt lat="49.24725" lon="3.99986">
        <ele>80</ele>
        <time>2026-08-24T10:57:06Z</time>
      </trkpt>
      <trkpt lat="49.24726" lon="3.99976">
        <ele>80</ele>
        <time>2026-08-24T10:57:07Z</time>
      </trkpt>
      <trkpt lat="49.24728" lon="3.99966">
        <ele>80.2</ele>
        <time>2026-08-24T10:57:08Z</time>
      </trkpt>
      <trkpt lat="49.2473" lon="3.99957">
        <ele>80.2</ele>
        <time>2026-08-24T10:57:09Z</time>
      </trkpt>
      <trkpt lat="49.24732" lon="3.99948">
        <ele>80.2</ele>
        <time>2026-08-24T10:57:10Z</time>
      </trkpt>
      <trkpt lat="49.24732" lon="3.99939">
        <ele>80.4</ele>
        <time>2026-08-24T10:57:11Z</time>
      </trkpt>
      <trkpt lat="49.2473" lon="3.99931">
        <ele>80.4</ele>
        <time>2026-08-24T10:57:12Z</time>
      </trkpt>
      <trkpt lat="49.24726" lon="3.99926">
        <ele>80.6</ele>
        <time>2026-08-24T10:57:13Z</time>
      </trkpt>
      <trkpt lat="49.24721" lon="3.99921">
        <ele>80.6</ele>
        <time>2026-08-24T10:57:14Z</time>
      </trkpt>
      <trkpt lat="49.24716" lon="3.99916">
        <ele>80.8</ele>
        <time>2026-08-24T10:57:15Z</time>
      </trkpt>
      <trkpt lat="49.24711" lon="3.99911">
        <ele>80.8</ele>
        <time>2026-08-24T10:57:16Z</time>
      </trkpt>
      <trkpt lat="49.24706" lon="3.99907">
        <ele>80.8</ele>
        <time>2026-08-24T10:57:17Z</time>
      </trkpt>
      <trkpt lat="49.247" lon="3.99903">
        <ele>80.8</ele>
        <time>2026-08-24T10:57:18Z</time>
      </trkpt>
      <trkpt lat="49.24695" lon="3.99898">
        <ele>81</ele>
        <time>2026-08-24T10:57:19Z</time>
      </trkpt>
      <trkpt lat="49.2469" lon="3.99892">
        <ele>81.2</ele>
        <time>2026-08-24T10:57:20Z</time>
      </trkpt>
      <trkpt lat="49.24686" lon="3.99887">
        <ele>81.4</ele>
        <time>2026-08-24T10:57:21Z</time>
      </trkpt>
      <trkpt lat="49.24681" lon="3.99881">
        <ele>81.6</ele>
        <time>2026-08-24T10:57:22Z</time>
      </trkpt>
      <trkpt lat="49.24677" lon="3.99875">
        <ele>81.8</ele>
        <time>2026-08-24T10:57:23Z</time>
      </trkpt>
      <trkpt lat="49.24672" lon="3.99869">
        <ele>81.8</ele>
        <time>2026-08-24T10:57:24Z</time>
      </trkpt>
      <trkpt lat="49.24668" lon="3.99863">
        <ele>82</ele>
        <time>2026-08-24T10:57:25Z</time>
      </trkpt>
      <trkpt lat="49.24663" lon="3.99858">
        <ele>82.2</ele>
        <time>2026-08-24T10:57:26Z</time>
      </trkpt>
      <trkpt lat="49.24659" lon="3.99852">
        <ele>82.2</ele>
        <time>2026-08-24T10:57:27Z</time>
      </trkpt>
      <trkpt lat="49.24655" lon="3.99846">
        <ele>82.4</ele>
        <time>2026-08-24T10:57:28Z</time>
      </trkpt>
      <trkpt lat="49.24651" lon="3.99841">
        <ele>82.6</ele>
        <time>2026-08-24T10:57:29Z</time>
      </trkpt>
      <trkpt lat="49.24646" lon="3.99835">
        <ele>82.6</ele>
        <time>2026-08-24T10:57:30Z</time>
      </trkpt>
      <trkpt lat="49.24642" lon="3.9983">
        <ele>82.8</ele>
        <time>2026-08-24T10:57:31Z</time>
      </trkpt>
      <trkpt lat="49.24638" lon="3.99824">
        <ele>82.8</ele>
        <time>2026-08-24T10:57:32Z</time>
      </trkpt>
      <trkpt lat="49.24633" lon="3.99819">
        <ele>82.8</ele>
        <time>2026-08-24T10:57:33Z</time>
      </trkpt>
      <trkpt lat="49.24629" lon="3.99814">
        <ele>83</ele>
        <time>2026-08-24T10:57:34Z</time>
      </trkpt>
      <trkpt lat="49.24625" lon="3.99808">
        <ele>83</ele>
        <time>2026-08-24T10:57:35Z</time>
      </trkpt>
      <trkpt lat="49.2462" lon="3.99802">
        <ele>83.2</ele>
        <time>2026-08-24T10:57:36Z</time>
      </trkpt>
      <trkpt lat="49.24616" lon="3.99797">
        <ele>83.6</ele>
        <time>2026-08-24T10:57:37Z</time>
      </trkpt>
      <trkpt lat="49.24611" lon="3.99792">
        <ele>83.8</ele>
        <time>2026-08-24T10:57:38Z</time>
      </trkpt>
      <trkpt lat="49.24607" lon="3.99786">
        <ele>84</ele>
        <time>2026-08-24T10:57:39Z</time>
      </trkpt>
      <trkpt lat="49.24602" lon="3.9978">
        <ele>84.2</ele>
        <time>2026-08-24T10:57:40Z</time>
      </trkpt>
      <trkpt lat="49.24597" lon="3.99775">
        <ele>84.2</ele>
        <time>2026-08-24T10:57:41Z</time>
      </trkpt>
      <trkpt lat="49.24593" lon="3.99769">
        <ele>84.2</ele>
        <time>2026-08-24T10:57:42Z</time>
      </trkpt>
      <trkpt lat="49.24589" lon="3.99763">
        <ele>84.4</ele>
        <time>2026-08-24T10:57:43Z</time>
      </trkpt>
      <trkpt lat="49.24584" lon="3.99757">
        <ele>84.4</ele>
        <time>2026-08-24T10:57:44Z</time>
      </trkpt>
      <trkpt lat="49.2458" lon="3.99752">
        <ele>84.6</ele>
        <time>2026-08-24T10:57:45Z</time>
      </trkpt>
      <trkpt lat="49.24575" lon="3.99746">
        <ele>84.8</ele>
        <time>2026-08-24T10:57:46Z</time>
      </trkpt>
      <trkpt lat="49.24571" lon="3.99741">
        <ele>84.8</ele>
        <time>2026-08-24T10:57:47Z</time>
      </trkpt>
      <trkpt lat="49.24566" lon="3.99735">
        <ele>85</ele>
        <time>2026-08-24T10:57:48Z</time>
      </trkpt>
      <trkpt lat="49.24562" lon="3.9973">
        <ele>85.2</ele>
        <time>2026-08-24T10:57:49Z</time>
      </trkpt>
      <trkpt lat="49.24557" lon="3.99724">
        <ele>85.4</ele>
        <time>2026-08-24T10:57:50Z</time>
      </trkpt>
      <trkpt lat="49.24553" lon="3.99718">
        <ele>85.4</ele>
        <time>2026-08-24T10:57:51Z</time>
      </trkpt>
      <trkpt lat="49.24549" lon="3.99712">
        <ele>85.6</ele>
        <time>2026-08-24T10:57:52Z</time>
      </trkpt>
      <trkpt lat="49.24544" lon="3.99706">
        <ele>85.8</ele>
        <time>2026-08-24T10:57:53Z</time>
      </trkpt>
      <trkpt lat="49.2454" lon="3.99701">
        <ele>86</ele>
        <time>2026-08-24T10:57:54Z</time>
      </trkpt>
      <trkpt lat="49.24535" lon="3.99695">
        <ele>86.2</ele>
        <time>2026-08-24T10:57:55Z</time>
      </trkpt>
      <trkpt lat="49.24531" lon="3.99689">
        <ele>86.6</ele>
        <time>2026-08-24T10:57:56Z</time>
      </trkpt>
      <trkpt lat="49.24526" lon="3.99684">
        <ele>86.6</ele>
        <time>2026-08-24T10:57:57Z</time>
      </trkpt>
      <trkpt lat="49.24522" lon="3.99679">
        <ele>86.8</ele>
        <time>2026-08-24T10:57:58Z</time>
      </trkpt>
      <trkpt lat="49.24518" lon="3.99673">
        <ele>86.8</ele>
        <time>2026-08-24T10:57:59Z</time>
      </trkpt>
      <trkpt lat="49.24513" lon="3.99668">
        <ele>87</ele>
        <time>2026-08-24T10:58:00Z</time>
      </trkpt>
      <trkpt lat="49.24509" lon="3.99662">
        <ele>87</ele>
        <time>2026-08-24T10:58:01Z</time>
      </trkpt>
      <trkpt lat="49.24505" lon="3.99656">
        <ele>87</ele>
        <time>2026-08-24T10:58:02Z</time>
      </trkpt>
      <trkpt lat="49.245" lon="3.99651">
        <ele>87.2</ele>
        <time>2026-08-24T10:58:03Z</time>
      </trkpt>
      <trkpt lat="49.24495" lon="3.99645">
        <ele>87.2</ele>
        <time>2026-08-24T10:58:04Z</time>
      </trkpt>
      <trkpt lat="49.24491" lon="3.99639">
        <ele>87.2</ele>
        <time>2026-08-24T10:58:05Z</time>
      </trkpt>
      <trkpt lat="49.24486" lon="3.99633">
        <ele>87</ele>
        <time>2026-08-24T10:58:06Z</time>
      </trkpt>
      <trkpt lat="49.24482" lon="3.99628">
        <ele>87.2</ele>
        <time>2026-08-24T10:58:07Z</time>
      </trkpt>
      <trkpt lat="49.24477" lon="3.99621">
        <ele>87</ele>
        <time>2026-08-24T10:58:08Z</time>
      </trkpt>
      <trkpt lat="49.24473" lon="3.99615">
        <ele>87</ele>
        <time>2026-08-24T10:58:09Z</time>
      </trkpt>
      <trkpt lat="49.24468" lon="3.99609">
        <ele>87</ele>
        <time>2026-08-24T10:58:10Z</time>
      </trkpt>
      <trkpt lat="49.24463" lon="3.99603">
        <ele>87.2</ele>
        <time>2026-08-24T10:58:11Z</time>
      </trkpt>
      <trkpt lat="49.24459" lon="3.99597">
        <ele>87.2</ele>
        <time>2026-08-24T10:58:12Z</time>
      </trkpt>
      <trkpt lat="49.24454" lon="3.99591">
        <ele>87.2</ele>
        <time>2026-08-24T10:58:13Z</time>
      </trkpt>
      <trkpt lat="49.24449" lon="3.99585">
        <ele>87.2</ele>
        <time>2026-08-24T10:58:14Z</time>
      </trkpt>
      <trkpt lat="49.24444" lon="3.99579">
        <ele>87</ele>
        <time>2026-08-24T10:58:15Z</time>
      </trkpt>
      <trkpt lat="49.24439" lon="3.99574">
        <ele>87</ele>
        <time>2026-08-24T10:58:16Z</time>
      </trkpt>
      <trkpt lat="49.24435" lon="3.99568">
        <ele>87</ele>
        <time>2026-08-24T10:58:17Z</time>
      </trkpt>
      <trkpt lat="49.2443" lon="3.99562">
        <ele>86.8</ele>
        <time>2026-08-24T10:58:18Z</time>
      </trkpt>
      <trkpt lat="49.24425" lon="3.99556">
        <ele>86.8</ele>
        <time>2026-08-24T10:58:19Z</time>
      </trkpt>
      <trkpt lat="49.2442" lon="3.99549">
        <ele>87</ele>
        <time>2026-08-24T10:58:20Z</time>
      </trkpt>
      <trkpt lat="49.24416" lon="3.99543">
        <ele>87</ele>
        <time>2026-08-24T10:58:21Z</time>
      </trkpt>
      <trkpt lat="49.24411" lon="3.99536">
        <ele>86.8</ele>
        <time>2026-08-24T10:58:22Z</time>
      </trkpt>
      <trkpt lat="49.24406" lon="3.9953">
        <ele>86.8</ele>
        <time>2026-08-24T10:58:23Z</time>
      </trkpt>
      <trkpt lat="49.24402" lon="3.99524">
        <ele>86.8</ele>
        <time>2026-08-24T10:58:24Z</time>
      </trkpt>
      <trkpt lat="49.24397" lon="3.99518">
        <ele>86.8</ele>
        <time>2026-08-24T10:58:25Z</time>
      </trkpt>
      <trkpt lat="49.24392" lon="3.99512">
        <ele>86.8</ele>
        <time>2026-08-24T10:58:26Z</time>
      </trkpt>
      <trkpt lat="49.24387" lon="3.99506">
        <ele>87</ele>
        <time>2026-08-24T10:58:27Z</time>
      </trkpt>
      <trkpt lat="49.24382" lon="3.99499">
        <ele>87</ele>
        <time>2026-08-24T10:58:28Z</time>
      </trkpt>
      <trkpt lat="49.24377" lon="3.99493">
        <ele>87</ele>
        <time>2026-08-24T10:58:29Z</time>
      </trkpt>
      <trkpt lat="49.24372" lon="3.99486">
        <ele>87.2</ele>
        <time>2026-08-24T10:58:30Z</time>
      </trkpt>
      <trkpt lat="49.24367" lon="3.9948">
        <ele>87.2</ele>
        <time>2026-08-24T10:58:31Z</time>
      </trkpt>
      <trkpt lat="49.24362" lon="3.99474">
        <ele>87</ele>
        <time>2026-08-24T10:58:32Z</time>
      </trkpt>
      <trkpt lat="49.24357" lon="3.99467">
        <ele>87</ele>
        <time>2026-08-24T10:58:33Z</time>
      </trkpt>
      <trkpt lat="49.24352" lon="3.9946">
        <ele>87</ele>
        <time>2026-08-24T10:58:34Z</time>
      </trkpt>
      <trkpt lat="49.24347" lon="3.99454">
        <ele>87</ele>
        <time>2026-08-24T10:58:35Z</time>
      </trkpt>
      <trkpt lat="49.24342" lon="3.99447">
        <ele>87</ele>
        <time>2026-08-24T10:58:36Z</time>
      </trkpt>
      <trkpt lat="49.24337" lon="3.99441">
        <ele>87.2</ele>
        <time>2026-08-24T10:58:37Z</time>
      </trkpt>
      <trkpt lat="49.24332" lon="3.99434">
        <ele>87.2</ele>
        <time>2026-08-24T10:58:38Z</time>
      </trkpt>
      <trkpt lat="49.24327" lon="3.99428">
        <ele>87.2</ele>
        <time>2026-08-24T10:58:39Z</time>
      </trkpt>
      <trkpt lat="49.24322" lon="3.99421">
        <ele>87</ele>
        <time>2026-08-24T10:58:40Z</time>
      </trkpt>
      <trkpt lat="49.24317" lon="3.99415">
        <ele>87.2</ele>
        <time>2026-08-24T10:58:41Z</time>
      </trkpt>
      <trkpt lat="49.24312" lon="3.99409">
        <ele>87.2</ele>
        <time>2026-08-24T10:58:42Z</time>
      </trkpt>
      <trkpt lat="49.24307" lon="3.99402">
        <ele>87.4</ele>
        <time>2026-08-24T10:58:43Z</time>
      </trkpt>
      <trkpt lat="49.24302" lon="3.99396">
        <ele>87.4</ele>
        <time>2026-08-24T10:58:44Z</time>
      </trkpt>
      <trkpt lat="49.24297" lon="3.9939">
        <ele>87.6</ele>
        <time>2026-08-24T10:58:45Z</time>
      </trkpt>
      <trkpt lat="49.24292" lon="3.99384">
        <ele>87.8</ele>
        <time>2026-08-24T10:58:46Z</time>
      </trkpt>
      <trkpt lat="49.24287" lon="3.99378">
        <ele>87.8</ele>
        <time>2026-08-24T10:58:47Z</time>
      </trkpt>
      <trkpt lat="49.24282" lon="3.99371">
        <ele>88</ele>
        <time>2026-08-24T10:58:48Z</time>
      </trkpt>
      <trkpt lat="49.24278" lon="3.99365">
        <ele>88.2</ele>
        <time>2026-08-24T10:58:49Z</time>
      </trkpt>
      <trkpt lat="49.24273" lon="3.9936">
        <ele>88.4</ele>
        <time>2026-08-24T10:58:50Z</time>
      </trkpt>
      <trkpt lat="49.24268" lon="3.99353">
        <ele>88.6</ele>
        <time>2026-08-24T10:58:51Z</time>
      </trkpt>
      <trkpt lat="49.24263" lon="3.99348">
        <ele>88.6</ele>
        <time>2026-08-24T10:58:52Z</time>
      </trkpt>
      <trkpt lat="49.24259" lon="3.99342">
        <ele>88.8</ele>
        <time>2026-08-24T10:58:53Z</time>
      </trkpt>
      <trkpt lat="49.24254" lon="3.99336">
        <ele>89</ele>
        <time>2026-08-24T10:58:54Z</time>
      </trkpt>
      <trkpt lat="49.2425" lon="3.99331">
        <ele>89</ele>
        <time>2026-08-24T10:58:55Z</time>
      </trkpt>
      <trkpt lat="49.24246" lon="3.99325">
        <ele>89</ele>
        <time>2026-08-24T10:58:56Z</time>
      </trkpt>
      <trkpt lat="49.24242" lon="3.99319">
        <ele>89.2</ele>
        <time>2026-08-24T10:58:57Z</time>
      </trkpt>
      <trkpt lat="49.24238" lon="3.99314">
        <ele>89.4</ele>
        <time>2026-08-24T10:58:58Z</time>
      </trkpt>
      <trkpt lat="49.24233" lon="3.99308">
        <ele>89.6</ele>
        <time>2026-08-24T10:58:59Z</time>
      </trkpt>
      <trkpt lat="49.24229" lon="3.99303">
        <ele>89.6</ele>
        <time>2026-08-24T10:59:00Z</time>
      </trkpt>
      <trkpt lat="49.24224" lon="3.99297">
        <ele>89.8</ele>
        <time>2026-08-24T10:59:01Z</time>
      </trkpt>
      <trkpt lat="49.2422" lon="3.99291">
        <ele>89.8</ele>
        <time>2026-08-24T10:59:02Z</time>
      </trkpt>
      <trkpt lat="49.24215" lon="3.99286">
        <ele>90</ele>
        <time>2026-08-24T10:59:03Z</time>
      </trkpt>
      <trkpt lat="49.24211" lon="3.9928">
        <ele>90</ele>
        <time>2026-08-24T10:59:04Z</time>
      </trkpt>
      <trkpt lat="49.24207" lon="3.99275">
        <ele>90.2</ele>
        <time>2026-08-24T10:59:05Z</time>
      </trkpt>
      <trkpt lat="49.24203" lon="3.99269">
        <ele>90.4</ele>
        <time>2026-08-24T10:59:06Z</time>
      </trkpt>
      <trkpt lat="49.24199" lon="3.99263">
        <ele>90.4</ele>
        <time>2026-08-24T10:59:07Z</time>
      </trkpt>
      <trkpt lat="49.24196" lon="3.99257">
        <ele>90.6</ele>
        <time>2026-08-24T10:59:08Z</time>
      </trkpt>
      <trkpt lat="49.24193" lon="3.99249">
        <ele>90.8</ele>
        <time>2026-08-24T10:59:09Z</time>
      </trkpt>
      <trkpt lat="49.24192" lon="3.99241">
        <ele>91</ele>
        <time>2026-08-24T10:59:10Z</time>
      </trkpt>
      <trkpt lat="49.24193" lon="3.99232">
        <ele>91</ele>
        <time>2026-08-24T10:59:11Z</time>
      </trkpt>
      <trkpt lat="49.24194" lon="3.99224">
        <ele>91.4</ele>
        <time>2026-08-24T10:59:12Z</time>
      </trkpt>
      <trkpt lat="49.24196" lon="3.99216">
        <ele>91.6</ele>
        <time>2026-08-24T10:59:13Z</time>
      </trkpt>
      <trkpt lat="49.24198" lon="3.99207">
        <ele>91.8</ele>
        <time>2026-08-24T10:59:14Z</time>
      </trkpt>
      <trkpt lat="49.24199" lon="3.99199">
        <ele>91.8</ele>
        <time>2026-08-24T10:59:15Z</time>
      </trkpt>
      <trkpt lat="49.24201" lon="3.9919">
        <ele>92</ele>
        <time>2026-08-24T10:59:16Z</time>
      </trkpt>
      <trkpt lat="49.24204" lon="3.99183">
        <ele>92.2</ele>
        <time>2026-08-24T10:59:17Z</time>
      </trkpt>
      <trkpt lat="49.24207" lon="3.99176">
        <ele>92.2</ele>
        <time>2026-08-24T10:59:18Z</time>
      </trkpt>
      <trkpt lat="49.2421" lon="3.99169">
        <ele>92.6</ele>
        <time>2026-08-24T10:59:19Z</time>
      </trkpt>
      <trkpt lat="49.24214" lon="3.99162">
        <ele>92.8</ele>
        <time>2026-08-24T10:59:20Z</time>
      </trkpt>
      <trkpt lat="49.24217" lon="3.99155">
        <ele>92.8</ele>
        <time>2026-08-24T10:59:21Z</time>
      </trkpt>
      <trkpt lat="49.24221" lon="3.99148">
        <ele>93</ele>
        <time>2026-08-24T10:59:22Z</time>
      </trkpt>
      <trkpt lat="49.24224" lon="3.9914">
        <ele>93.2</ele>
        <time>2026-08-24T10:59:23Z</time>
      </trkpt>
      <trkpt lat="49.24227" lon="3.99133">
        <ele>93.2</ele>
        <time>2026-08-24T10:59:24Z</time>
      </trkpt>
      <trkpt lat="49.2423" lon="3.99125">
        <ele>93.4</ele>
        <time>2026-08-24T10:59:25Z</time>
      </trkpt>
      <trkpt lat="49.24232" lon="3.99117">
        <ele>93.6</ele>
        <time>2026-08-24T10:59:26Z</time>
      </trkpt>
      <trkpt lat="49.24235" lon="3.99109">
        <ele>93.6</ele>
        <time>2026-08-24T10:59:27Z</time>
      </trkpt>
      <trkpt lat="49.24237" lon="3.99102">
        <ele>93.8</ele>
        <time>2026-08-24T10:59:28Z</time>
      </trkpt>
      <trkpt lat="49.2424" lon="3.99094">
        <ele>94</ele>
        <time>2026-08-24T10:59:29Z</time>
      </trkpt>
      <trkpt lat="49.24242" lon="3.99086">
        <ele>94</ele>
        <time>2026-08-24T10:59:30Z</time>
      </trkpt>
      <trkpt lat="49.24245" lon="3.99078">
        <ele>94.2</ele>
        <time>2026-08-24T10:59:31Z</time>
      </trkpt>
      <trkpt lat="49.24248" lon="3.9907">
        <ele>94.2</ele>
        <time>2026-08-24T10:59:32Z</time>
      </trkpt>
      <trkpt lat="49.2425" lon="3.99062">
        <ele>94.2</ele>
        <time>2026-08-24T10:59:33Z</time>
      </trkpt>
      <trkpt lat="49.24253" lon="3.99054">
        <ele>94.4</ele>
        <time>2026-08-24T10:59:34Z</time>
      </trkpt>
      <trkpt lat="49.24255" lon="3.99047">
        <ele>94.6</ele>
        <time>2026-08-24T10:59:35Z</time>
      </trkpt>
      <trkpt lat="49.24258" lon="3.99039">
        <ele>94.8</ele>
        <time>2026-08-24T10:59:36Z</time>
      </trkpt>
      <trkpt lat="49.24261" lon="3.99031">
        <ele>95</ele>
        <time>2026-08-24T10:59:37Z</time>
      </trkpt>
      <trkpt lat="49.24264" lon="3.99024">
        <ele>95.2</ele>
        <time>2026-08-24T10:59:38Z</time>
      </trkpt>
      <trkpt lat="49.24267" lon="3.99016">
        <ele>95.2</ele>
        <time>2026-08-24T10:59:39Z</time>
      </trkpt>
      <trkpt lat="49.2427" lon="3.99008">
        <ele>95.4</ele>
        <time>2026-08-24T10:59:40Z</time>
      </trkpt>
      <trkpt lat="49.24273" lon="3.99">
        <ele>95.4</ele>
        <time>2026-08-24T10:59:41Z</time>
      </trkpt>
      <trkpt lat="49.24277" lon="3.98992">
        <ele>95.4</ele>
        <time>2026-08-24T10:59:42Z</time>
      </trkpt>
      <trkpt lat="49.2428" lon="3.98984">
        <ele>95.6</ele>
        <time>2026-08-24T10:59:43Z</time>
      </trkpt>
      <trkpt lat="49.24283" lon="3.98977">
        <ele>95.6</ele>
        <time>2026-08-24T10:59:44Z</time>
      </trkpt>
      <trkpt lat="49.24287" lon="3.98969">
        <ele>95.6</ele>
        <time>2026-08-24T10:59:45Z</time>
      </trkpt>
      <trkpt lat="49.2429" lon="3.98961">
        <ele>95.8</ele>
        <time>2026-08-24T10:59:46Z</time>
      </trkpt>
      <trkpt lat="49.24294" lon="3.98953">
        <ele>96</ele>
        <time>2026-08-24T10:59:47Z</time>
      </trkpt>
      <trkpt lat="49.24298" lon="3.98945">
        <ele>96.2</ele>
        <time>2026-08-24T10:59:48Z</time>
      </trkpt>
      <trkpt lat="49.24301" lon="3.98937">
        <ele>96.4</ele>
        <time>2026-08-24T10:59:49Z</time>
      </trkpt>
      <trkpt lat="49.24305" lon="3.98929">
        <ele>96.4</ele>
        <time>2026-08-24T10:59:50Z</time>
      </trkpt>
      <trkpt lat="49.24309" lon="3.98922">
        <ele>96.4</ele>
        <time>2026-08-24T10:59:51Z</time>
      </trkpt>
      <trkpt lat="49.24313" lon="3.98914">
        <ele>96.6</ele>
        <time>2026-08-24T10:59:52Z</time>
      </trkpt>
      <trkpt lat="49.24317" lon="3.98907">
        <ele>96.6</ele>
        <time>2026-08-24T10:59:53Z</time>
      </trkpt>
      <trkpt lat="49.24321" lon="3.98899">
        <ele>96.6</ele>
        <time>2026-08-24T10:59:54Z</time>
      </trkpt>
      <trkpt lat="49.24325" lon="3.98892">
        <ele>96.8</ele>
        <time>2026-08-24T10:59:55Z</time>
      </trkpt>
      <trkpt lat="49.24328" lon="3.98884">
        <ele>97</ele>
        <time>2026-08-24T10:59:56Z</time>
      </trkpt>
      <trkpt lat="49.24332" lon="3.98877">
        <ele>97</ele>
        <time>2026-08-24T10:59:57Z</time>
      </trkpt>
      <trkpt lat="49.24336" lon="3.98869">
        <ele>97.2</ele>
        <time>2026-08-24T10:59:58Z</time>
      </trkpt>
      <trkpt lat="49.2434" lon="3.98862">
        <ele>97.2</ele>
        <time>2026-08-24T10:59:59Z</time>
      </trkpt>
      <trkpt lat="49.24344" lon="3.98854">
        <ele>97.2</ele>
        <time>2026-08-24T11:00:00Z</time>
      </trkpt>
      <trkpt lat="49.24348" lon="3.98847">
        <ele>97.4</ele>
        <time>2026-08-24T11:00:01Z</time>
      </trkpt>
      <trkpt lat="49.24352" lon="3.98839">
        <ele>97.4</ele>
        <time>2026-08-24T11:00:02Z</time>
      </trkpt>
      <trkpt lat="49.24356" lon="3.98832">
        <ele>97.4</ele>
        <time>2026-08-24T11:00:03Z</time>
      </trkpt>
      <trkpt lat="49.2436" lon="3.98824">
        <ele>97.4</ele>
        <time>2026-08-24T11:00:04Z</time>
      </trkpt>
      <trkpt lat="49.24364" lon="3.98816">
        <ele>97.2</ele>
        <time>2026-08-24T11:00:05Z</time>
      </trkpt>
      <trkpt lat="49.24369" lon="3.98807">
        <ele>97.2</ele>
        <time>2026-08-24T11:00:06Z</time>
      </trkpt>
      <trkpt lat="49.24373" lon="3.98799">
        <ele>97</ele>
        <time>2026-08-24T11:00:07Z</time>
      </trkpt>
      <trkpt lat="49.24377" lon="3.98791">
        <ele>97</ele>
        <time>2026-08-24T11:00:08Z</time>
      </trkpt>
      <trkpt lat="49.24382" lon="3.98782">
        <ele>96.8</ele>
        <time>2026-08-24T11:00:09Z</time>
      </trkpt>
      <trkpt lat="49.24386" lon="3.98774">
        <ele>96.6</ele>
        <time>2026-08-24T11:00:10Z</time>
      </trkpt>
      <trkpt lat="49.24391" lon="3.98765">
        <ele>96.4</ele>
        <time>2026-08-24T11:00:11Z</time>
      </trkpt>
      <trkpt lat="49.24395" lon="3.98757">
        <ele>96.4</ele>
        <time>2026-08-24T11:00:12Z</time>
      </trkpt>
      <trkpt lat="49.244" lon="3.98748">
        <ele>96.2</ele>
        <time>2026-08-24T11:00:13Z</time>
      </trkpt>
      <trkpt lat="49.24404" lon="3.98739">
        <ele>96</ele>
        <time>2026-08-24T11:00:14Z</time>
      </trkpt>
      <trkpt lat="49.24409" lon="3.9873">
        <ele>95.8</ele>
        <time>2026-08-24T11:00:15Z</time>
      </trkpt>
      <trkpt lat="49.24414" lon="3.98722">
        <ele>95.6</ele>
        <time>2026-08-24T11:00:16Z</time>
      </trkpt>
      <trkpt lat="49.24418" lon="3.98713">
        <ele>95.4</ele>
        <time>2026-08-24T11:00:17Z</time>
      </trkpt>
      <trkpt lat="49.24423" lon="3.98704">
        <ele>95.4</ele>
        <time>2026-08-24T11:00:18Z</time>
      </trkpt>
      <trkpt lat="49.24428" lon="3.98695">
        <ele>95.2</ele>
        <time>2026-08-24T11:00:19Z</time>
      </trkpt>
      <trkpt lat="49.24432" lon="3.98686">
        <ele>95.2</ele>
        <time>2026-08-24T11:00:20Z</time>
      </trkpt>
      <trkpt lat="49.24437" lon="3.98677">
        <ele>95.2</ele>
        <time>2026-08-24T11:00:21Z</time>
      </trkpt>
      <trkpt lat="49.24442" lon="3.98667">
        <ele>95.2</ele>
        <time>2026-08-24T11:00:22Z</time>
      </trkpt>
      <trkpt lat="49.24447" lon="3.98658">
        <ele>95</ele>
        <time>2026-08-24T11:00:23Z</time>
      </trkpt>
      <trkpt lat="49.24452" lon="3.98649">
        <ele>95</ele>
        <time>2026-08-24T11:00:24Z</time>
      </trkpt>
      <trkpt lat="49.24457" lon="3.98639">
        <ele>94.8</ele>
        <time>2026-08-24T11:00:25Z</time>
      </trkpt>
      <trkpt lat="49.24462" lon="3.9863">
        <ele>94.6</ele>
        <time>2026-08-24T11:00:26Z</time>
      </trkpt>
      <trkpt lat="49.24467" lon="3.9862">
        <ele>94.4</ele>
        <time>2026-08-24T11:00:27Z</time>
      </trkpt>
      <trkpt lat="49.24472" lon="3.9861">
        <ele>94.4</ele>
        <time>2026-08-24T11:00:28Z</time>
      </trkpt>
      <trkpt lat="49.24477" lon="3.98601">
        <ele>94.2</ele>
        <time>2026-08-24T11:00:29Z</time>
      </trkpt>
      <trkpt lat="49.24482" lon="3.98591">
        <ele>94</ele>
        <time>2026-08-24T11:00:30Z</time>
      </trkpt>
      <trkpt lat="49.24486" lon="3.98581">
        <ele>93.8</ele>
        <time>2026-08-24T11:00:31Z</time>
      </trkpt>
      <trkpt lat="49.24491" lon="3.98571">
        <ele>93.8</ele>
        <time>2026-08-24T11:00:32Z</time>
      </trkpt>
      <trkpt lat="49.24494" lon="3.98561">
        <ele>93.6</ele>
        <time>2026-08-24T11:00:33Z</time>
      </trkpt>
      <trkpt lat="49.24496" lon="3.98551">
        <ele>93.6</ele>
        <time>2026-08-24T11:00:34Z</time>
      </trkpt>
      <trkpt lat="49.24497" lon="3.9854">
        <ele>93.6</ele>
        <time>2026-08-24T11:00:35Z</time>
      </trkpt>
      <trkpt lat="49.24496" lon="3.98529">
        <ele>93.6</ele>
        <time>2026-08-24T11:00:36Z</time>
      </trkpt>
      <trkpt lat="49.24493" lon="3.98518">
        <ele>93.6</ele>
        <time>2026-08-24T11:00:37Z</time>
      </trkpt>
      <trkpt lat="49.24491" lon="3.98507">
        <ele>93.6</ele>
        <time>2026-08-24T11:00:38Z</time>
      </trkpt>
      <trkpt lat="49.24488" lon="3.98495">
        <ele>93.8</ele>
        <time>2026-08-24T11:00:39Z</time>
      </trkpt>
      <trkpt lat="49.24485" lon="3.98484">
        <ele>93.8</ele>
        <time>2026-08-24T11:00:40Z</time>
      </trkpt>
      <trkpt lat="49.24482" lon="3.98472">
        <ele>93.6</ele>
        <time>2026-08-24T11:00:41Z</time>
      </trkpt>
      <trkpt lat="49.24479" lon="3.9846">
        <ele>93.4</ele>
        <time>2026-08-24T11:00:42Z</time>
      </trkpt>
      <trkpt lat="49.24477" lon="3.98448">
        <ele>93.2</ele>
        <time>2026-08-24T11:00:43Z</time>
      </trkpt>
      <trkpt lat="49.24474" lon="3.98435">
        <ele>93</ele>
        <time>2026-08-24T11:00:44Z</time>
      </trkpt>
      <trkpt lat="49.24472" lon="3.98422">
        <ele>92.8</ele>
        <time>2026-08-24T11:00:45Z</time>
      </trkpt>
      <trkpt lat="49.24471" lon="3.98409">
        <ele>92.4</ele>
        <time>2026-08-24T11:00:46Z</time>
      </trkpt>
      <trkpt lat="49.24469" lon="3.98395">
        <ele>92.2</ele>
        <time>2026-08-24T11:00:47Z</time>
      </trkpt>
      <trkpt lat="49.24468" lon="3.98382">
        <ele>91.8</ele>
        <time>2026-08-24T11:00:48Z</time>
      </trkpt>
      <trkpt lat="49.24467" lon="3.98368">
        <ele>91.4</ele>
        <time>2026-08-24T11:00:49Z</time>
      </trkpt>
      <trkpt lat="49.24466" lon="3.98353">
        <ele>91.2</ele>
        <time>2026-08-24T11:00:50Z</time>
      </trkpt>
      <trkpt lat="49.24466" lon="3.98339">
        <ele>91</ele>
        <time>2026-08-24T11:00:51Z</time>
      </trkpt>
      <trkpt lat="49.24465" lon="3.98324">
        <ele>91</ele>
        <time>2026-08-24T11:00:52Z</time>
      </trkpt>
      <trkpt lat="49.24466" lon="3.9831">
        <ele>90.8</ele>
        <time>2026-08-24T11:00:53Z</time>
      </trkpt>
      <trkpt lat="49.24466" lon="3.98295">
        <ele>90.4</ele>
        <time>2026-08-24T11:00:54Z</time>
      </trkpt>
      <trkpt lat="49.24467" lon="3.9828">
        <ele>90.2</ele>
        <time>2026-08-24T11:00:55Z</time>
      </trkpt>
      <trkpt lat="49.24469" lon="3.98266">
        <ele>90</ele>
        <time>2026-08-24T11:00:56Z</time>
      </trkpt>
      <trkpt lat="49.2447" lon="3.98251">
        <ele>89.8</ele>
        <time>2026-08-24T11:00:57Z</time>
      </trkpt>
      <trkpt lat="49.24473" lon="3.98236">
        <ele>89.4</ele>
        <time>2026-08-24T11:00:58Z</time>
      </trkpt>
      <trkpt lat="49.24475" lon="3.98222">
        <ele>89.2</ele>
        <time>2026-08-24T11:00:59Z</time>
      </trkpt>
      <trkpt lat="49.24478" lon="3.98208">
        <ele>89</ele>
        <time>2026-08-24T11:01:00Z</time>
      </trkpt>
      <trkpt lat="49.24481" lon="3.98194">
        <ele>88.8</ele>
        <time>2026-08-24T11:01:01Z</time>
      </trkpt>
      <trkpt lat="49.24484" lon="3.98181">
        <ele>88.8</ele>
        <time>2026-08-24T11:01:02Z</time>
      </trkpt>
      <trkpt lat="49.24487" lon="3.98168">
        <ele>88.8</ele>
        <time>2026-08-24T11:01:03Z</time>
      </trkpt>
      <trkpt lat="49.24491" lon="3.98156">
        <ele>88.8</ele>
        <time>2026-08-24T11:01:04Z</time>
      </trkpt>
      <trkpt lat="49.24495" lon="3.98144">
        <ele>88.8</ele>
        <time>2026-08-24T11:01:05Z</time>
      </trkpt>
      <trkpt lat="49.24499" lon="3.98132">
        <ele>89</ele>
        <time>2026-08-24T11:01:06Z</time>
      </trkpt>
      <trkpt lat="49.24503" lon="3.98121">
        <ele>89.4</ele>
        <time>2026-08-24T11:01:07Z</time>
      </trkpt>
      <trkpt lat="49.24507" lon="3.9811">
        <ele>89.4</ele>
        <time>2026-08-24T11:01:08Z</time>
      </trkpt>
      <trkpt lat="49.24512" lon="3.98099">
        <ele>89.6</ele>
        <time>2026-08-24T11:01:09Z</time>
      </trkpt>
      <trkpt lat="49.24516" lon="3.98089">
        <ele>89.6</ele>
        <time>2026-08-24T11:01:10Z</time>
      </trkpt>
      <trkpt lat="49.24521" lon="3.98079">
        <ele>89.8</ele>
        <time>2026-08-24T11:01:11Z</time>
      </trkpt>
      <trkpt lat="49.24526" lon="3.98069">
        <ele>89.8</ele>
        <time>2026-08-24T11:01:12Z</time>
      </trkpt>
      <trkpt lat="49.24531" lon="3.9806">
        <ele>90</ele>
        <time>2026-08-24T11:01:13Z</time>
      </trkpt>
      <trkpt lat="49.24536" lon="3.98051">
        <ele>90</ele>
        <time>2026-08-24T11:01:14Z</time>
      </trkpt>
      <trkpt lat="49.24541" lon="3.98042">
        <ele>90.2</ele>
        <time>2026-08-24T11:01:15Z</time>
      </trkpt>
      <trkpt lat="49.24546" lon="3.98033">
        <ele>90.2</ele>
        <time>2026-08-24T11:01:16Z</time>
      </trkpt>
      <trkpt lat="49.24551" lon="3.98025">
        <ele>90.4</ele>
        <time>2026-08-24T11:01:17Z</time>
      </trkpt>
      <trkpt lat="49.24556" lon="3.98017">
        <ele>90.4</ele>
        <time>2026-08-24T11:01:18Z</time>
      </trkpt>
      <trkpt lat="49.24561" lon="3.98009">
        <ele>90.6</ele>
        <time>2026-08-24T11:01:19Z</time>
      </trkpt>
      <trkpt lat="49.24566" lon="3.98002">
        <ele>90.6</ele>
        <time>2026-08-24T11:01:20Z</time>
      </trkpt>
      <trkpt lat="49.24571" lon="3.97995">
        <ele>90.8</ele>
        <time>2026-08-24T11:01:21Z</time>
      </trkpt>
      <trkpt lat="49.24577" lon="3.97989">
        <ele>91</ele>
        <time>2026-08-24T11:01:22Z</time>
      </trkpt>
      <trkpt lat="49.24583" lon="3.97986">
        <ele>91.2</ele>
        <time>2026-08-24T11:01:23Z</time>
      </trkpt>
      <trkpt lat="49.24589" lon="3.97983">
        <ele>91.4</ele>
        <time>2026-08-24T11:01:24Z</time>
      </trkpt>
      <trkpt lat="49.24595" lon="3.97981">
        <ele>91.6</ele>
        <time>2026-08-24T11:01:25Z</time>
      </trkpt>
      <trkpt lat="49.246" lon="3.97978">
        <ele>91.8</ele>
        <time>2026-08-24T11:01:26Z</time>
      </trkpt>
      <trkpt lat="49.24604" lon="3.97972">
        <ele>91.8</ele>
        <time>2026-08-24T11:01:27Z</time>
      </trkpt>
      <trkpt lat="49.24606" lon="3.97966">
        <ele>92</ele>
        <time>2026-08-24T11:01:28Z</time>
      </trkpt>
      <trkpt lat="49.24606" lon="3.97958">
        <ele>92</ele>
        <time>2026-08-24T11:01:29Z</time>
      </trkpt>
      <trkpt lat="49.24605" lon="3.97951">
        <ele>92.2</ele>
        <time>2026-08-24T11:01:30Z</time>
      </trkpt>
      <trkpt lat="49.24602" lon="3.97946">
        <ele>92.2</ele>
        <time>2026-08-24T11:01:31Z</time>
      </trkpt>
      <trkpt lat="49.24598" lon="3.97941">
        <ele>92.2</ele>
        <time>2026-08-24T11:01:32Z</time>
      </trkpt>
      <trkpt lat="49.24593" lon="3.97937">
        <ele>92.2</ele>
        <time>2026-08-24T11:01:33Z</time>
      </trkpt>
      <trkpt lat="49.24588" lon="3.97933">
        <ele>92.2</ele>
        <time>2026-08-24T11:01:34Z</time>
      </trkpt>
      <trkpt lat="49.24583" lon="3.97927">
        <ele>92.2</ele>
        <time>2026-08-24T11:01:35Z</time>
      </trkpt>
      <trkpt lat="49.24579" lon="3.9792">
        <ele>92.2</ele>
        <time>2026-08-24T11:01:36Z</time>
      </trkpt>
      <trkpt lat="49.24575" lon="3.97912">
        <ele>92.2</ele>
        <time>2026-08-24T11:01:37Z</time>
      </trkpt>
      <trkpt lat="49.24572" lon="3.97902">
        <ele>91.8</ele>
        <time>2026-08-24T11:01:38Z</time>
      </trkpt>
      <trkpt lat="49.24569" lon="3.97891">
        <ele>91.6</ele>
        <time>2026-08-24T11:01:39Z</time>
      </trkpt>
      <trkpt lat="49.24567" lon="3.9788">
        <ele>91.2</ele>
        <time>2026-08-24T11:01:40Z</time>
      </trkpt>
      <trkpt lat="49.24566" lon="3.97868">
        <ele>90.8</ele>
        <time>2026-08-24T11:01:41Z</time>
      </trkpt>
      <trkpt lat="49.24565" lon="3.97855">
        <ele>90.4</ele>
        <time>2026-08-24T11:01:42Z</time>
      </trkpt>
      <trkpt lat="49.24565" lon="3.97843">
        <ele>90.2</ele>
        <time>2026-08-24T11:01:43Z</time>
      </trkpt>
      <trkpt lat="49.24566" lon="3.9783">
        <ele>90</ele>
        <time>2026-08-24T11:01:44Z</time>
      </trkpt>
      <trkpt lat="49.24567" lon="3.97818">
        <ele>89.6</ele>
        <time>2026-08-24T11:01:45Z</time>
      </trkpt>
      <trkpt lat="49.24567" lon="3.97805">
        <ele>89.2</ele>
        <time>2026-08-24T11:01:46Z</time>
      </trkpt>
      <trkpt lat="49.24568" lon="3.97792">
        <ele>89.2</ele>
        <time>2026-08-24T11:01:47Z</time>
      </trkpt>
      <trkpt lat="49.24568" lon="3.9778">
        <ele>89</ele>
        <time>2026-08-24T11:01:48Z</time>
      </trkpt>
      <trkpt lat="49.24568" lon="3.97767">
        <ele>88.8</ele>
        <time>2026-08-24T11:01:49Z</time>
      </trkpt>
      <trkpt lat="49.24568" lon="3.97755">
        <ele>88.8</ele>
        <time>2026-08-24T11:01:50Z</time>
      </trkpt>
      <trkpt lat="49.24568" lon="3.97742">
        <ele>88.8</ele>
        <time>2026-08-24T11:01:51Z</time>
      </trkpt>
      <trkpt lat="49.24569" lon="3.97729">
        <ele>88.6</ele>
        <time>2026-08-24T11:01:52Z</time>
      </trkpt>
      <trkpt lat="49.24569" lon="3.97717">
        <ele>88.8</ele>
        <time>2026-08-24T11:01:53Z</time>
      </trkpt>
      <trkpt lat="49.24568" lon="3.97704">
        <ele>88.8</ele>
        <time>2026-08-24T11:01:54Z</time>
      </trkpt>
      <trkpt lat="49.24568" lon="3.97691">
        <ele>88.8</ele>
        <time>2026-08-24T11:01:55Z</time>
      </trkpt>
      <trkpt lat="49.24567" lon="3.97679">
        <ele>88.8</ele>
        <time>2026-08-24T11:01:56Z</time>
      </trkpt>
      <trkpt lat="49.24566" lon="3.97666">
        <ele>88.8</ele>
        <time>2026-08-24T11:01:57Z</time>
      </trkpt>
      <trkpt lat="49.24564" lon="3.97654">
        <ele>88.8</ele>
        <time>2026-08-24T11:01:58Z</time>
      </trkpt>
      <trkpt lat="49.24562" lon="3.97642">
        <ele>88.6</ele>
        <time>2026-08-24T11:01:59Z</time>
      </trkpt>
      <trkpt lat="49.2456" lon="3.97631">
        <ele>88.6</ele>
        <time>2026-08-24T11:02:00Z</time>
      </trkpt>
      <trkpt lat="49.24557" lon="3.97619">
        <ele>88.6</ele>
        <time>2026-08-24T11:02:01Z</time>
      </trkpt>
      <trkpt lat="49.24554" lon="3.97607">
        <ele>88.6</ele>
        <time>2026-08-24T11:02:02Z</time>
      </trkpt>
      <trkpt lat="49.24552" lon="3.97595">
        <ele>88.4</ele>
        <time>2026-08-24T11:02:03Z</time>
      </trkpt>
      <trkpt lat="49.24549" lon="3.97583">
        <ele>88.4</ele>
        <time>2026-08-24T11:02:04Z</time>
      </trkpt>
      <trkpt lat="49.24546" lon="3.97571">
        <ele>88.2</ele>
        <time>2026-08-24T11:02:05Z</time>
      </trkpt>
      <trkpt lat="49.24543" lon="3.97559">
        <ele>88</ele>
        <time>2026-08-24T11:02:06Z</time>
      </trkpt>
      <trkpt lat="49.2454" lon="3.97547">
        <ele>87.8</ele>
        <time>2026-08-24T11:02:07Z</time>
      </trkpt>
      <trkpt lat="49.24537" lon="3.97534">
        <ele>87.8</ele>
        <time>2026-08-24T11:02:08Z</time>
      </trkpt>
      <trkpt lat="49.24534" lon="3.97522">
        <ele>87.6</ele>
        <time>2026-08-24T11:02:09Z</time>
      </trkpt>
      <trkpt lat="49.24531" lon="3.97509">
        <ele>87.6</ele>
        <time>2026-08-24T11:02:10Z</time>
      </trkpt>
      <trkpt lat="49.24528" lon="3.97497">
        <ele>87.4</ele>
        <time>2026-08-24T11:02:11Z</time>
      </trkpt>
      <trkpt lat="49.24526" lon="3.97484">
        <ele>87.4</ele>
        <time>2026-08-24T11:02:12Z</time>
      </trkpt>
      <trkpt lat="49.24523" lon="3.97471">
        <ele>87.2</ele>
        <time>2026-08-24T11:02:13Z</time>
      </trkpt>
      <trkpt lat="49.2452" lon="3.97458">
        <ele>87</ele>
        <time>2026-08-24T11:02:14Z</time>
      </trkpt>
      <trkpt lat="49.24517" lon="3.97445">
        <ele>86.8</ele>
        <time>2026-08-24T11:02:15Z</time>
      </trkpt>
      <trkpt lat="49.24514" lon="3.97432">
        <ele>86.8</ele>
        <time>2026-08-24T11:02:16Z</time>
      </trkpt>
      <trkpt lat="49.24511" lon="3.97418">
        <ele>86.4</ele>
        <time>2026-08-24T11:02:17Z</time>
      </trkpt>
      <trkpt lat="49.24508" lon="3.97405">
        <ele>86.4</ele>
        <time>2026-08-24T11:02:18Z</time>
      </trkpt>
      <trkpt lat="49.24505" lon="3.97392">
        <ele>86.2</ele>
        <time>2026-08-24T11:02:19Z</time>
      </trkpt>
      <trkpt lat="49.24502" lon="3.97379">
        <ele>85.8</ele>
        <time>2026-08-24T11:02:20Z</time>
      </trkpt>
      <trkpt lat="49.24499" lon="3.97365">
        <ele>85.8</ele>
        <time>2026-08-24T11:02:21Z</time>
      </trkpt>
      <trkpt lat="49.24496" lon="3.97352">
        <ele>85.6</ele>
        <time>2026-08-24T11:02:22Z</time>
      </trkpt>
      <trkpt lat="49.24493" lon="3.97339">
        <ele>85.4</ele>
        <time>2026-08-24T11:02:23Z</time>
      </trkpt>
      <trkpt lat="49.24489" lon="3.97325">
        <ele>85.2</ele>
        <time>2026-08-24T11:02:24Z</time>
      </trkpt>
      <trkpt lat="49.24486" lon="3.97312">
        <ele>85</ele>
        <time>2026-08-24T11:02:25Z</time>
      </trkpt>
      <trkpt lat="49.24482" lon="3.97298">
        <ele>85</ele>
        <time>2026-08-24T11:02:26Z</time>
      </trkpt>
      <trkpt lat="49.24478" lon="3.97285">
        <ele>84.8</ele>
        <time>2026-08-24T11:02:27Z</time>
      </trkpt>
      <trkpt lat="49.24474" lon="3.97271">
        <ele>84.4</ele>
        <time>2026-08-24T11:02:28Z</time>
      </trkpt>
      <trkpt lat="49.24469" lon="3.97258">
        <ele>84.2</ele>
        <time>2026-08-24T11:02:29Z</time>
      </trkpt>
      <trkpt lat="49.24465" lon="3.97245">
        <ele>84</ele>
        <time>2026-08-24T11:02:30Z</time>
      </trkpt>
      <trkpt lat="49.24459" lon="3.97232">
        <ele>83.8</ele>
        <time>2026-08-24T11:02:31Z</time>
      </trkpt>
      <trkpt lat="49.24454" lon="3.97219">
        <ele>83.8</ele>
        <time>2026-08-24T11:02:32Z</time>
      </trkpt>
      <trkpt lat="49.24448" lon="3.97206">
        <ele>83.4</ele>
        <time>2026-08-24T11:02:33Z</time>
      </trkpt>
      <trkpt lat="49.24443" lon="3.97193">
        <ele>83.2</ele>
        <time>2026-08-24T11:02:34Z</time>
      </trkpt>
      <trkpt lat="49.24437" lon="3.97179">
        <ele>83</ele>
        <time>2026-08-24T11:02:35Z</time>
      </trkpt>
      <trkpt lat="49.24432" lon="3.97166">
        <ele>82.8</ele>
        <time>2026-08-24T11:02:36Z</time>
      </trkpt>
      <trkpt lat="49.24426" lon="3.97153">
        <ele>82.6</ele>
        <time>2026-08-24T11:02:37Z</time>
      </trkpt>
      <trkpt lat="49.24421" lon="3.97139">
        <ele>82.4</ele>
        <time>2026-08-24T11:02:38Z</time>
      </trkpt>
      <trkpt lat="49.24415" lon="3.97126">
        <ele>82.2</ele>
        <time>2026-08-24T11:02:39Z</time>
      </trkpt>
      <trkpt lat="49.2441" lon="3.97112">
        <ele>82</ele>
        <time>2026-08-24T11:02:40Z</time>
      </trkpt>
      <trkpt lat="49.24405" lon="3.97099">
        <ele>82</ele>
        <time>2026-08-24T11:02:41Z</time>
      </trkpt>
      <trkpt lat="49.24401" lon="3.97085">
        <ele>82</ele>
        <time>2026-08-24T11:02:42Z</time>
      </trkpt>
      <trkpt lat="49.24397" lon="3.97072">
        <ele>82</ele>
        <time>2026-08-24T11:02:43Z</time>
      </trkpt>
      <trkpt lat="49.24392" lon="3.97059">
        <ele>81.8</ele>
        <time>2026-08-24T11:02:44Z</time>
      </trkpt>
      <trkpt lat="49.24388" lon="3.97045">
        <ele>81.8</ele>
        <time>2026-08-24T11:02:45Z</time>
      </trkpt>
      <trkpt lat="49.24384" lon="3.97032">
        <ele>81.8</ele>
        <time>2026-08-24T11:02:46Z</time>
      </trkpt>
      <trkpt lat="49.2438" lon="3.9702">
        <ele>81.8</ele>
        <time>2026-08-24T11:02:47Z</time>
      </trkpt>
      <trkpt lat="49.24376" lon="3.97007">
        <ele>81.8</ele>
        <time>2026-08-24T11:02:48Z</time>
      </trkpt>
      <trkpt lat="49.24373" lon="3.96994">
        <ele>81.8</ele>
        <time>2026-08-24T11:02:49Z</time>
      </trkpt>
      <trkpt lat="49.24369" lon="3.96981">
        <ele>81.8</ele>
        <time>2026-08-24T11:02:50Z</time>
      </trkpt>
      <trkpt lat="49.24365" lon="3.96969">
        <ele>81.8</ele>
        <time>2026-08-24T11:02:51Z</time>
      </trkpt>
      <trkpt lat="49.24362" lon="3.96957">
        <ele>81.8</ele>
        <time>2026-08-24T11:02:52Z</time>
      </trkpt>
      <trkpt lat="49.24358" lon="3.96945">
        <ele>81.8</ele>
        <time>2026-08-24T11:02:53Z</time>
      </trkpt>
      <trkpt lat="49.24355" lon="3.96933">
        <ele>81.8</ele>
        <time>2026-08-24T11:02:54Z</time>
      </trkpt>
      <trkpt lat="49.2435" lon="3.96923">
        <ele>82</ele>
        <time>2026-08-24T11:02:55Z</time>
      </trkpt>
      <trkpt lat="49.24345" lon="3.96912">
        <ele>82</ele>
        <time>2026-08-24T11:02:56Z</time>
      </trkpt>
      <trkpt lat="49.2434" lon="3.96903">
        <ele>82</ele>
        <time>2026-08-24T11:02:57Z</time>
      </trkpt>
      <trkpt lat="49.24334" lon="3.96894">
        <ele>82.2</ele>
        <time>2026-08-24T11:02:58Z</time>
      </trkpt>
      <trkpt lat="49.24328" lon="3.96886">
        <ele>82.2</ele>
        <time>2026-08-24T11:02:59Z</time>
      </trkpt>
      <trkpt lat="49.24321" lon="3.96879">
        <ele>82.2</ele>
        <time>2026-08-24T11:03:00Z</time>
      </trkpt>
      <trkpt lat="49.24314" lon="3.96873">
        <ele>82.2</ele>
        <time>2026-08-24T11:03:01Z</time>
      </trkpt>
      <trkpt lat="49.24307" lon="3.96868">
        <ele>82.2</ele>
        <time>2026-08-24T11:03:02Z</time>
      </trkpt>
      <trkpt lat="49.243" lon="3.96863">
        <ele>82.4</ele>
        <time>2026-08-24T11:03:03Z</time>
      </trkpt>
      <trkpt lat="49.24292" lon="3.9686">
        <ele>82.4</ele>
        <time>2026-08-24T11:03:04Z</time>
      </trkpt>
      <trkpt lat="49.24284" lon="3.96857">
        <ele>82.6</ele>
        <time>2026-08-24T11:03:05Z</time>
      </trkpt>
      <trkpt lat="49.24277" lon="3.96856">
        <ele>82.6</ele>
        <time>2026-08-24T11:03:06Z</time>
      </trkpt>
      <trkpt lat="49.24269" lon="3.96856">
        <ele>82.8</ele>
        <time>2026-08-24T11:03:07Z</time>
      </trkpt>
      <trkpt lat="49.24262" lon="3.96856">
        <ele>83</ele>
        <time>2026-08-24T11:03:08Z</time>
      </trkpt>
      <trkpt lat="49.24255" lon="3.96857">
        <ele>83.2</ele>
        <time>2026-08-24T11:03:09Z</time>
      </trkpt>
      <trkpt lat="49.24248" lon="3.9686">
        <ele>83.4</ele>
        <time>2026-08-24T11:03:10Z</time>
      </trkpt>
      <trkpt lat="49.24242" lon="3.96862">
        <ele>83.6</ele>
        <time>2026-08-24T11:03:11Z</time>
      </trkpt>
      <trkpt lat="49.24235" lon="3.96866">
        <ele>83.8</ele>
        <time>2026-08-24T11:03:12Z</time>
      </trkpt>
      <trkpt lat="49.24229" lon="3.96869">
        <ele>84</ele>
        <time>2026-08-24T11:03:13Z</time>
      </trkpt>
      <trkpt lat="49.24223" lon="3.96873">
        <ele>84.2</ele>
        <time>2026-08-24T11:03:14Z</time>
      </trkpt>
      <trkpt lat="49.24217" lon="3.96876">
        <ele>84.4</ele>
        <time>2026-08-24T11:03:15Z</time>
      </trkpt>
      <trkpt lat="49.24211" lon="3.9688">
        <ele>84.6</ele>
        <time>2026-08-24T11:03:16Z</time>
      </trkpt>
      <trkpt lat="49.24205" lon="3.96883">
        <ele>84.8</ele>
        <time>2026-08-24T11:03:17Z</time>
      </trkpt>
      <trkpt lat="49.242" lon="3.96887">
        <ele>84.8</ele>
        <time>2026-08-24T11:03:18Z</time>
      </trkpt>
      <trkpt lat="49.24194" lon="3.9689">
        <ele>85.2</ele>
        <time>2026-08-24T11:03:19Z</time>
      </trkpt>
      <trkpt lat="49.24188" lon="3.96892">
        <ele>85.4</ele>
        <time>2026-08-24T11:03:20Z</time>
      </trkpt>
      <trkpt lat="49.24182" lon="3.96895">
        <ele>85.6</ele>
        <time>2026-08-24T11:03:21Z</time>
      </trkpt>
      <trkpt lat="49.24177" lon="3.96897">
        <ele>85.8</ele>
        <time>2026-08-24T11:03:22Z</time>
      </trkpt>
      <trkpt lat="49.24171" lon="3.96899">
        <ele>86</ele>
        <time>2026-08-24T11:03:23Z</time>
      </trkpt>
      <trkpt lat="49.24165" lon="3.969">
        <ele>86.2</ele>
        <time>2026-08-24T11:03:24Z</time>
      </trkpt>
      <trkpt lat="49.2416" lon="3.96901">
        <ele>86.4</ele>
        <time>2026-08-24T11:03:25Z</time>
      </trkpt>
      <trkpt lat="49.24155" lon="3.96901">
        <ele>86.8</ele>
        <time>2026-08-24T11:03:26Z</time>
      </trkpt>
      <trkpt lat="49.24149" lon="3.96901">
        <ele>87</ele>
        <time>2026-08-24T11:03:27Z</time>
      </trkpt>
      <trkpt lat="49.24144" lon="3.96901">
        <ele>87.2</ele>
        <time>2026-08-24T11:03:28Z</time>
      </trkpt>
      <trkpt lat="49.24139" lon="3.96901">
        <ele>87.6</ele>
        <time>2026-08-24T11:03:29Z</time>
      </trkpt>
      <trkpt lat="49.24134" lon="3.969">
        <ele>87.8</ele>
        <time>2026-08-24T11:03:30Z</time>
      </trkpt>
      <trkpt lat="49.2413" lon="3.96899">
        <ele>88</ele>
        <time>2026-08-24T11:03:31Z</time>
      </trkpt>
      <trkpt lat="49.24125" lon="3.96898">
        <ele>88.4</ele>
        <time>2026-08-24T11:03:32Z</time>
      </trkpt>
      <trkpt lat="49.24121" lon="3.96896">
        <ele>88.8</ele>
        <time>2026-08-24T11:03:33Z</time>
      </trkpt>
      <trkpt lat="49.24116" lon="3.96895">
        <ele>89</ele>
        <time>2026-08-24T11:03:34Z</time>
      </trkpt>
      <trkpt lat="49.24112" lon="3.96893">
        <ele>89.4</ele>
        <time>2026-08-24T11:03:35Z</time>
      </trkpt>
      <trkpt lat="49.24108" lon="3.96891">
        <ele>89.6</ele>
        <time>2026-08-24T11:03:36Z</time>
      </trkpt>
      <trkpt lat="49.24104" lon="3.96888">
        <ele>89.8</ele>
        <time>2026-08-24T11:03:37Z</time>
      </trkpt>
      <trkpt lat="49.241" lon="3.96886">
        <ele>90</ele>
        <time>2026-08-24T11:03:38Z</time>
      </trkpt>
      <trkpt lat="49.24096" lon="3.96883">
        <ele>90.2</ele>
        <time>2026-08-24T11:03:39Z</time>
      </trkpt>
      <trkpt lat="49.24092" lon="3.96881">
        <ele>90.4</ele>
        <time>2026-08-24T11:03:40Z</time>
      </trkpt>
      <trkpt lat="49.24089" lon="3.96878">
        <ele>90.6</ele>
        <time>2026-08-24T11:03:41Z</time>
      </trkpt>
      <trkpt lat="49.24085" lon="3.96874">
        <ele>90.8</ele>
        <time>2026-08-24T11:03:42Z</time>
      </trkpt>
      <trkpt lat="49.24081" lon="3.96871">
        <ele>91</ele>
        <time>2026-08-24T11:03:43Z</time>
      </trkpt>
      <trkpt lat="49.24078" lon="3.96867">
        <ele>91.2</ele>
        <time>2026-08-24T11:03:44Z</time>
      </trkpt>
      <trkpt lat="49.24074" lon="3.96863">
        <ele>91.4</ele>
        <time>2026-08-24T11:03:45Z</time>
      </trkpt>
      <trkpt lat="49.2407" lon="3.96859">
        <ele>91.6</ele>
        <time>2026-08-24T11:03:46Z</time>
      </trkpt>
      <trkpt lat="49.24067" lon="3.96855">
        <ele>91.8</ele>
        <time>2026-08-24T11:03:47Z</time>
      </trkpt>
      <trkpt lat="49.24064" lon="3.9685">
        <ele>91.8</ele>
        <time>2026-08-24T11:03:48Z</time>
      </trkpt>
      <trkpt lat="49.24061" lon="3.96845">
        <ele>91.8</ele>
        <time>2026-08-24T11:03:49Z</time>
      </trkpt>
      <trkpt lat="49.24058" lon="3.9684">
        <ele>92</ele>
        <time>2026-08-24T11:03:50Z</time>
      </trkpt>
      <trkpt lat="49.24055" lon="3.96835">
        <ele>92.2</ele>
        <time>2026-08-24T11:03:51Z</time>
      </trkpt>
      <trkpt lat="49.24052" lon="3.96829">
        <ele>92.2</ele>
        <time>2026-08-24T11:03:52Z</time>
      </trkpt>
      <trkpt lat="49.24049" lon="3.96824">
        <ele>92.4</ele>
        <time>2026-08-24T11:03:53Z</time>
      </trkpt>
      <trkpt lat="49.24046" lon="3.96818">
        <ele>92.6</ele>
        <time>2026-08-24T11:03:54Z</time>
      </trkpt>
      <trkpt lat="49.24043" lon="3.96812">
        <ele>92.6</ele>
        <time>2026-08-24T11:03:55Z</time>
      </trkpt>
      <trkpt lat="49.24041" lon="3.96806">
        <ele>92.6</ele>
        <time>2026-08-24T11:03:56Z</time>
      </trkpt>
      <trkpt lat="49.24038" lon="3.96799">
        <ele>92.6</ele>
        <time>2026-08-24T11:03:57Z</time>
      </trkpt>
      <trkpt lat="49.24036" lon="3.96792">
        <ele>92.8</ele>
        <time>2026-08-24T11:03:58Z</time>
      </trkpt>
      <trkpt lat="49.24034" lon="3.96785">
        <ele>92.8</ele>
        <time>2026-08-24T11:03:59Z</time>
      </trkpt>
      <trkpt lat="49.24032" lon="3.96777">
        <ele>92.6</ele>
        <time>2026-08-24T11:04:00Z</time>
      </trkpt>
      <trkpt lat="49.2403" lon="3.96769">
        <ele>92.6</ele>
        <time>2026-08-24T11:04:01Z</time>
      </trkpt>
      <trkpt lat="49.24028" lon="3.96761">
        <ele>92.6</ele>
        <time>2026-08-24T11:04:02Z</time>
      </trkpt>
      <trkpt lat="49.24027" lon="3.96752">
        <ele>92.4</ele>
        <time>2026-08-24T11:04:03Z</time>
      </trkpt>
      <trkpt lat="49.24025" lon="3.96743">
        <ele>92.4</ele>
        <time>2026-08-24T11:04:04Z</time>
      </trkpt>
      <trkpt lat="49.24024" lon="3.96734">
        <ele>92.4</ele>
        <time>2026-08-24T11:04:05Z</time>
      </trkpt>
      <trkpt lat="49.24022" lon="3.96725">
        <ele>92.2</ele>
        <time>2026-08-24T11:04:06Z</time>
      </trkpt>
      <trkpt lat="49.2402" lon="3.96716">
        <ele>92</ele>
        <time>2026-08-24T11:04:07Z</time>
      </trkpt>
      <trkpt lat="49.24017" lon="3.96707">
        <ele>91.8</ele>
        <time>2026-08-24T11:04:08Z</time>
      </trkpt>
      <trkpt lat="49.24014" lon="3.96698">
        <ele>91.4</ele>
        <time>2026-08-24T11:04:09Z</time>
      </trkpt>
      <trkpt lat="49.24011" lon="3.96689">
        <ele>91.2</ele>
        <time>2026-08-24T11:04:10Z</time>
      </trkpt>
      <trkpt lat="49.24007" lon="3.96679">
        <ele>91</ele>
        <time>2026-08-24T11:04:11Z</time>
      </trkpt>
      <trkpt lat="49.24003" lon="3.9667">
        <ele>90.8</ele>
        <time>2026-08-24T11:04:12Z</time>
      </trkpt>
      <trkpt lat="49.23998" lon="3.96661">
        <ele>90.6</ele>
        <time>2026-08-24T11:04:13Z</time>
      </trkpt>
      <trkpt lat="49.23993" lon="3.96651">
        <ele>90.2</ele>
        <time>2026-08-24T11:04:14Z</time>
      </trkpt>
      <trkpt lat="49.23988" lon="3.96641">
        <ele>89.8</ele>
        <time>2026-08-24T11:04:15Z</time>
      </trkpt>
      <trkpt lat="49.23983" lon="3.96631">
        <ele>89.4</ele>
        <time>2026-08-24T11:04:16Z</time>
      </trkpt>
      <trkpt lat="49.23977" lon="3.96621">
        <ele>89</ele>
        <time>2026-08-24T11:04:17Z</time>
      </trkpt>
      <trkpt lat="49.23971" lon="3.96611">
        <ele>88.4</ele>
        <time>2026-08-24T11:04:18Z</time>
      </trkpt>
      <trkpt lat="49.23965" lon="3.966">
        <ele>88</ele>
        <time>2026-08-24T11:04:19Z</time>
      </trkpt>
      <trkpt lat="49.23959" lon="3.9659">
        <ele>87.4</ele>
        <time>2026-08-24T11:04:20Z</time>
      </trkpt>
      <trkpt lat="49.23952" lon="3.9658">
        <ele>87</ele>
        <time>2026-08-24T11:04:21Z</time>
      </trkpt>
      <trkpt lat="49.23946" lon="3.96569">
        <ele>86.6</ele>
        <time>2026-08-24T11:04:22Z</time>
      </trkpt>
      <trkpt lat="49.23941" lon="3.96559">
        <ele>86</ele>
        <time>2026-08-24T11:04:23Z</time>
      </trkpt>
      <trkpt lat="49.23935" lon="3.96549">
        <ele>85.8</ele>
        <time>2026-08-24T11:04:24Z</time>
      </trkpt>
      <trkpt lat="49.23929" lon="3.96539">
        <ele>85.6</ele>
        <time>2026-08-24T11:04:25Z</time>
      </trkpt>
      <trkpt lat="49.23923" lon="3.96529">
        <ele>85.4</ele>
        <time>2026-08-24T11:04:26Z</time>
      </trkpt>
      <trkpt lat="49.23918" lon="3.9652">
        <ele>85.4</ele>
        <time>2026-08-24T11:04:27Z</time>
      </trkpt>
      <trkpt lat="49.23913" lon="3.96511">
        <ele>85.4</ele>
        <time>2026-08-24T11:04:28Z</time>
      </trkpt>
      <trkpt lat="49.23907" lon="3.96502">
        <ele>85.6</ele>
        <time>2026-08-24T11:04:29Z</time>
      </trkpt>
      <trkpt lat="49.23902" lon="3.96493">
        <ele>85.6</ele>
        <time>2026-08-24T11:04:30Z</time>
      </trkpt>
      <trkpt lat="49.23897" lon="3.96484">
        <ele>85.8</ele>
        <time>2026-08-24T11:04:31Z</time>
      </trkpt>
      <trkpt lat="49.23892" lon="3.96476">
        <ele>86</ele>
        <time>2026-08-24T11:04:32Z</time>
      </trkpt>
      <trkpt lat="49.23887" lon="3.96467">
        <ele>86.2</ele>
        <time>2026-08-24T11:04:33Z</time>
      </trkpt>
      <trkpt lat="49.23882" lon="3.96458">
        <ele>86.4</ele>
        <time>2026-08-24T11:04:34Z</time>
      </trkpt>
      <trkpt lat="49.23877" lon="3.96449">
        <ele>86.6</ele>
        <time>2026-08-24T11:04:35Z</time>
      </trkpt>
      <trkpt lat="49.23872" lon="3.96441">
        <ele>86.6</ele>
        <time>2026-08-24T11:04:36Z</time>
      </trkpt>
      <trkpt lat="49.23867" lon="3.96433">
        <ele>86.8</ele>
        <time>2026-08-24T11:04:37Z</time>
      </trkpt>
      <trkpt lat="49.23862" lon="3.96424">
        <ele>87</ele>
        <time>2026-08-24T11:04:38Z</time>
      </trkpt>
      <trkpt lat="49.23857" lon="3.96416">
        <ele>87.2</ele>
        <time>2026-08-24T11:04:39Z</time>
      </trkpt>
      <trkpt lat="49.23852" lon="3.96408">
        <ele>87.2</ele>
        <time>2026-08-24T11:04:40Z</time>
      </trkpt>
      <trkpt lat="49.23847" lon="3.964">
        <ele>87.2</ele>
        <time>2026-08-24T11:04:41Z</time>
      </trkpt>
      <trkpt lat="49.23843" lon="3.96392">
        <ele>87.4</ele>
        <time>2026-08-24T11:04:42Z</time>
      </trkpt>
      <trkpt lat="49.23838" lon="3.96383">
        <ele>87.4</ele>
        <time>2026-08-24T11:04:43Z</time>
      </trkpt>
      <trkpt lat="49.23833" lon="3.96375">
        <ele>87.4</ele>
        <time>2026-08-24T11:04:44Z</time>
      </trkpt>
      <trkpt lat="49.23828" lon="3.96367">
        <ele>87.4</ele>
        <time>2026-08-24T11:04:45Z</time>
      </trkpt>
      <trkpt lat="49.23824" lon="3.96359">
        <ele>87.4</ele>
        <time>2026-08-24T11:04:46Z</time>
      </trkpt>
      <trkpt lat="49.23819" lon="3.96351">
        <ele>87.4</ele>
        <time>2026-08-24T11:04:47Z</time>
      </trkpt>
      <trkpt lat="49.23815" lon="3.96343">
        <ele>87.4</ele>
        <time>2026-08-24T11:04:48Z</time>
      </trkpt>
      <trkpt lat="49.2381" lon="3.96335">
        <ele>87.6</ele>
        <time>2026-08-24T11:04:49Z</time>
      </trkpt>
      <trkpt lat="49.23806" lon="3.96326">
        <ele>87.6</ele>
        <time>2026-08-24T11:04:50Z</time>
      </trkpt>
      <trkpt lat="49.23801" lon="3.96317">
        <ele>87.6</ele>
        <time>2026-08-24T11:04:51Z</time>
      </trkpt>
      <trkpt lat="49.23797" lon="3.96308">
        <ele>87.6</ele>
        <time>2026-08-24T11:04:52Z</time>
      </trkpt>
      <trkpt lat="49.23793" lon="3.96299">
        <ele>87.6</ele>
        <time>2026-08-24T11:04:53Z</time>
      </trkpt>
      <trkpt lat="49.23789" lon="3.9629">
        <ele>87.6</ele>
        <time>2026-08-24T11:04:54Z</time>
      </trkpt>
      <trkpt lat="49.23784" lon="3.96281">
        <ele>87.6</ele>
        <time>2026-08-24T11:04:55Z</time>
      </trkpt>
      <trkpt lat="49.23779" lon="3.96272">
        <ele>87.4</ele>
        <time>2026-08-24T11:04:56Z</time>
      </trkpt>
      <trkpt lat="49.23775" lon="3.96263">
        <ele>87.4</ele>
        <time>2026-08-24T11:04:57Z</time>
      </trkpt>
      <trkpt lat="49.23771" lon="3.96254">
        <ele>87.6</ele>
        <time>2026-08-24T11:04:58Z</time>
      </trkpt>
      <trkpt lat="49.23766" lon="3.96245">
        <ele>87.6</ele>
        <time>2026-08-24T11:04:59Z</time>
      </trkpt>
      <trkpt lat="49.23762" lon="3.96237">
        <ele>88</ele>
        <time>2026-08-24T11:05:00Z</time>
      </trkpt>
      <trkpt lat="49.23759" lon="3.96229">
        <ele>88.2</ele>
        <time>2026-08-24T11:05:01Z</time>
      </trkpt>
      <trkpt lat="49.23755" lon="3.96222">
        <ele>88.2</ele>
        <time>2026-08-24T11:05:02Z</time>
      </trkpt>
      <trkpt lat="49.23752" lon="3.96215">
        <ele>88</ele>
        <time>2026-08-24T11:05:03Z</time>
      </trkpt>
      <trkpt lat="49.23748" lon="3.96208">
        <ele>88</ele>
        <time>2026-08-24T11:05:04Z</time>
      </trkpt>
      <trkpt lat="49.23744" lon="3.96202">
        <ele>87.8</ele>
        <time>2026-08-24T11:05:05Z</time>
      </trkpt>
      <trkpt lat="49.2374" lon="3.96195">
        <ele>87.8</ele>
        <time>2026-08-24T11:05:06Z</time>
      </trkpt>
      <trkpt lat="49.23736" lon="3.96188">
        <ele>87.8</ele>
        <time>2026-08-24T11:05:07Z</time>
      </trkpt>
      <trkpt lat="49.23732" lon="3.9618">
        <ele>87.6</ele>
        <time>2026-08-24T11:05:08Z</time>
      </trkpt>
      <trkpt lat="49.23728" lon="3.96172">
        <ele>87.4</ele>
        <time>2026-08-24T11:05:09Z</time>
      </trkpt>
      <trkpt lat="49.23724" lon="3.96164">
        <ele>87.4</ele>
        <time>2026-08-24T11:05:10Z</time>
      </trkpt>
      <trkpt lat="49.23719" lon="3.96156">
        <ele>87</ele>
        <time>2026-08-24T11:05:11Z</time>
      </trkpt>
      <trkpt lat="49.23715" lon="3.96147">
        <ele>86.8</ele>
        <time>2026-08-24T11:05:12Z</time>
      </trkpt>
      <trkpt lat="49.2371" lon="3.96139">
        <ele>86.6</ele>
        <time>2026-08-24T11:05:13Z</time>
      </trkpt>
      <trkpt lat="49.23705" lon="3.96131">
        <ele>86.6</ele>
        <time>2026-08-24T11:05:14Z</time>
      </trkpt>
      <trkpt lat="49.237" lon="3.96122">
        <ele>86.4</ele>
        <time>2026-08-24T11:05:15Z</time>
      </trkpt>
      <trkpt lat="49.23696" lon="3.96113">
        <ele>86.4</ele>
        <time>2026-08-24T11:05:16Z</time>
      </trkpt>
      <trkpt lat="49.23692" lon="3.96106">
        <ele>86.6</ele>
        <time>2026-08-24T11:05:17Z</time>
      </trkpt>
      <trkpt lat="49.23688" lon="3.96099">
        <ele>86.8</ele>
        <time>2026-08-24T11:05:18Z</time>
      </trkpt>
      <trkpt lat="49.23684" lon="3.96091">
        <ele>87</ele>
        <time>2026-08-24T11:05:19Z</time>
      </trkpt>
      <trkpt lat="49.2368" lon="3.96085">
        <ele>87.4</ele>
        <time>2026-08-24T11:05:20Z</time>
      </trkpt>
      <trkpt lat="49.23676" lon="3.96078">
        <ele>87.6</ele>
        <time>2026-08-24T11:05:21Z</time>
      </trkpt>
      <trkpt lat="49.23672" lon="3.96071">
        <ele>87.8</ele>
        <time>2026-08-24T11:05:22Z</time>
      </trkpt>
      <trkpt lat="49.23667" lon="3.96063">
        <ele>87.8</ele>
        <time>2026-08-24T11:05:23Z</time>
      </trkpt>
      <trkpt lat="49.23663" lon="3.96056">
        <ele>87.8</ele>
        <time>2026-08-24T11:05:24Z</time>
      </trkpt>
      <trkpt lat="49.23658" lon="3.96049">
        <ele>87.6</ele>
        <time>2026-08-24T11:05:25Z</time>
      </trkpt>
      <trkpt lat="49.23653" lon="3.96041">
        <ele>87.4</ele>
        <time>2026-08-24T11:05:26Z</time>
      </trkpt>
      <trkpt lat="49.23649" lon="3.96033">
        <ele>87.2</ele>
        <time>2026-08-24T11:05:27Z</time>
      </trkpt>
      <trkpt lat="49.23644" lon="3.96025">
        <ele>87</ele>
        <time>2026-08-24T11:05:28Z</time>
      </trkpt>
      <trkpt lat="49.23639" lon="3.96017">
        <ele>86.6</ele>
        <time>2026-08-24T11:05:29Z</time>
      </trkpt>
      <trkpt lat="49.23633" lon="3.96009">
        <ele>86.4</ele>
        <time>2026-08-24T11:05:30Z</time>
      </trkpt>
      <trkpt lat="49.23628" lon="3.96001">
        <ele>86.4</ele>
        <time>2026-08-24T11:05:31Z</time>
      </trkpt>
      <trkpt lat="49.23623" lon="3.95993">
        <ele>86.4</ele>
        <time>2026-08-24T11:05:32Z</time>
      </trkpt>
      <trkpt lat="49.23618" lon="3.95984">
        <ele>86.4</ele>
        <time>2026-08-24T11:05:33Z</time>
      </trkpt>
      <trkpt lat="49.23614" lon="3.95975">
        <ele>86.6</ele>
        <time>2026-08-24T11:05:34Z</time>
      </trkpt>
      <trkpt lat="49.23609" lon="3.95966">
        <ele>86.6</ele>
        <time>2026-08-24T11:05:35Z</time>
      </trkpt>
      <trkpt lat="49.23605" lon="3.95958">
        <ele>86.6</ele>
        <time>2026-08-24T11:05:36Z</time>
      </trkpt>
      <trkpt lat="49.23601" lon="3.95949">
        <ele>86.6</ele>
        <time>2026-08-24T11:05:37Z</time>
      </trkpt>
      <trkpt lat="49.23597" lon="3.95941">
        <ele>86.6</ele>
        <time>2026-08-24T11:05:38Z</time>
      </trkpt>
      <trkpt lat="49.23594" lon="3.95933">
        <ele>86.6</ele>
        <time>2026-08-24T11:05:39Z</time>
      </trkpt>
      <trkpt lat="49.2359" lon="3.95926">
        <ele>86.6</ele>
        <time>2026-08-24T11:05:40Z</time>
      </trkpt>
      <trkpt lat="49.23586" lon="3.95919">
        <ele>86.8</ele>
        <time>2026-08-24T11:05:41Z</time>
      </trkpt>
      <trkpt lat="49.23582" lon="3.95911">
        <ele>87</ele>
        <time>2026-08-24T11:05:42Z</time>
      </trkpt>
      <trkpt lat="49.23578" lon="3.95905">
        <ele>87</ele>
        <time>2026-08-24T11:05:43Z</time>
      </trkpt>
      <trkpt lat="49.23575" lon="3.959">
        <ele>87.2</ele>
        <time>2026-08-24T11:05:44Z</time>
      </trkpt>
      <trkpt lat="49.23572" lon="3.95895">
        <ele>87.4</ele>
        <time>2026-08-24T11:05:45Z</time>
      </trkpt>
      <trkpt lat="49.23569" lon="3.95892">
        <ele>87.4</ele>
        <time>2026-08-24T11:05:46Z</time>
      </trkpt>
      <trkpt lat="49.23568" lon="3.95889">
        <ele>87.4</ele>
        <time>2026-08-24T11:05:47Z</time>
      </trkpt>
      <trkpt lat="49.23566" lon="3.95886">
        <ele>87.6</ele>
        <time>2026-08-24T11:05:48Z</time>
      </trkpt>
      <trkpt lat="49.23566" lon="3.95884">
        <ele>87.6</ele>
        <time>2026-08-24T11:05:49Z</time>
      </trkpt>
      <trkpt lat="49.23565" lon="3.95883">
        <ele>87.8</ele>
        <time>2026-08-24T11:05:50Z</time>
      </trkpt>
      <trkpt lat="49.23565" lon="3.95883">
        <ele>88</ele>
        <time>2026-08-24T11:05:51Z</time>
      </trkpt>
      <trkpt lat="49.23561" lon="3.9588">
        <ele>88</ele>
        <time>2026-08-24T11:05:55Z</time>
      </trkpt>
      <trkpt lat="49.23558" lon="3.95881">
        <ele>88</ele>
        <time>2026-08-24T11:05:56Z</time>
      </trkpt>
      <trkpt lat="49.23555" lon="3.95882">
        <ele>87.8</ele>
        <time>2026-08-24T11:05:57Z</time>
      </trkpt>
      <trkpt lat="49.23552" lon="3.95884">
        <ele>87.6</ele>
        <time>2026-08-24T11:05:58Z</time>
      </trkpt>
      <trkpt lat="49.23549" lon="3.95887">
        <ele>87.4</ele>
        <time>2026-08-24T11:05:59Z</time>
      </trkpt>
      <trkpt lat="49.23545" lon="3.95889">
        <ele>87.4</ele>
        <time>2026-08-24T11:06:00Z</time>
      </trkpt>
      <trkpt lat="49.23541" lon="3.95891">
        <ele>87.2</ele>
        <time>2026-08-24T11:06:01Z</time>
      </trkpt>
      <trkpt lat="49.23537" lon="3.95894">
        <ele>87.2</ele>
        <time>2026-08-24T11:06:02Z</time>
      </trkpt>
      <trkpt lat="49.23534" lon="3.95897">
        <ele>87.2</ele>
        <time>2026-08-24T11:06:03Z</time>
      </trkpt>
      <trkpt lat="49.23529" lon="3.95899">
        <ele>87</ele>
        <time>2026-08-24T11:06:04Z</time>
      </trkpt>
      <trkpt lat="49.23525" lon="3.95902">
        <ele>87</ele>
        <time>2026-08-24T11:06:05Z</time>
      </trkpt>
      <trkpt lat="49.23521" lon="3.95904">
        <ele>87</ele>
        <time>2026-08-24T11:06:06Z</time>
      </trkpt>
      <trkpt lat="49.23517" lon="3.95907">
        <ele>86.8</ele>
        <time>2026-08-24T11:06:07Z</time>
      </trkpt>
      <trkpt lat="49.23513" lon="3.9591">
        <ele>86.8</ele>
        <time>2026-08-24T11:06:08Z</time>
      </trkpt>
      <trkpt lat="49.23508" lon="3.95913">
        <ele>87</ele>
        <time>2026-08-24T11:06:09Z</time>
      </trkpt>
      <trkpt lat="49.23504" lon="3.95916">
        <ele>87</ele>
        <time>2026-08-24T11:06:10Z</time>
      </trkpt>
      <trkpt lat="49.23499" lon="3.95919">
        <ele>87.2</ele>
        <time>2026-08-24T11:06:11Z</time>
      </trkpt>
      <trkpt lat="49.23494" lon="3.95922">
        <ele>87.4</ele>
        <time>2026-08-24T11:06:12Z</time>
      </trkpt>
      <trkpt lat="49.23489" lon="3.95925">
        <ele>87.6</ele>
        <time>2026-08-24T11:06:13Z</time>
      </trkpt>
      <trkpt lat="49.23484" lon="3.95928">
        <ele>87.6</ele>
        <time>2026-08-24T11:06:14Z</time>
      </trkpt>
      <trkpt lat="49.23479" lon="3.95931">
        <ele>87.8</ele>
        <time>2026-08-24T11:06:15Z</time>
      </trkpt>
      <trkpt lat="49.23473" lon="3.95935">
        <ele>87.6</ele>
        <time>2026-08-24T11:06:16Z</time>
      </trkpt>
      <trkpt lat="49.23468" lon="3.95938">
        <ele>87.6</ele>
        <time>2026-08-24T11:06:17Z</time>
      </trkpt>
      <trkpt lat="49.23463" lon="3.95941">
        <ele>87.6</ele>
        <time>2026-08-24T11:06:18Z</time>
      </trkpt>
      <trkpt lat="49.23458" lon="3.95945">
        <ele>87.4</ele>
        <time>2026-08-24T11:06:19Z</time>
      </trkpt>
      <trkpt lat="49.23452" lon="3.95948">
        <ele>87.2</ele>
        <time>2026-08-24T11:06:20Z</time>
      </trkpt>
      <trkpt lat="49.23447" lon="3.95952">
        <ele>87.2</ele>
        <time>2026-08-24T11:06:21Z</time>
      </trkpt>
      <trkpt lat="49.23441" lon="3.95955">
        <ele>87.2</ele>
        <time>2026-08-24T11:06:22Z</time>
      </trkpt>
      <trkpt lat="49.23435" lon="3.95959">
        <ele>87</ele>
        <time>2026-08-24T11:06:23Z</time>
      </trkpt>
      <trkpt lat="49.2343" lon="3.95962">
        <ele>87</ele>
        <time>2026-08-24T11:06:24Z</time>
      </trkpt>
      <trkpt lat="49.23424" lon="3.95965">
        <ele>86.8</ele>
        <time>2026-08-24T11:06:25Z</time>
      </trkpt>
      <trkpt lat="49.23418" lon="3.95969">
        <ele>86.6</ele>
        <time>2026-08-24T11:06:26Z</time>
      </trkpt>
      <trkpt lat="49.23412" lon="3.95972">
        <ele>86.4</ele>
        <time>2026-08-24T11:06:27Z</time>
      </trkpt>
      <trkpt lat="49.23406" lon="3.95975">
        <ele>86.4</ele>
        <time>2026-08-24T11:06:28Z</time>
      </trkpt>
      <trkpt lat="49.234" lon="3.95979">
        <ele>86.4</ele>
        <time>2026-08-24T11:06:29Z</time>
      </trkpt>
      <trkpt lat="49.23394" lon="3.95982">
        <ele>86.2</ele>
        <time>2026-08-24T11:06:30Z</time>
      </trkpt>
      <trkpt lat="49.23388" lon="3.95985">
        <ele>86.2</ele>
        <time>2026-08-24T11:06:31Z</time>
      </trkpt>
      <trkpt lat="49.23381" lon="3.95988">
        <ele>86.2</ele>
        <time>2026-08-24T11:06:32Z</time>
      </trkpt>
      <trkpt lat="49.23375" lon="3.95991">
        <ele>86</ele>
        <time>2026-08-24T11:06:33Z</time>
      </trkpt>
      <trkpt lat="49.23369" lon="3.95994">
        <ele>85.8</ele>
        <time>2026-08-24T11:06:34Z</time>
      </trkpt>
      <trkpt lat="49.23362" lon="3.95997">
        <ele>86</ele>
        <time>2026-08-24T11:06:35Z</time>
      </trkpt>
      <trkpt lat="49.23356" lon="3.96001">
        <ele>86</ele>
        <time>2026-08-24T11:06:36Z</time>
      </trkpt>
      <trkpt lat="49.23349" lon="3.96004">
        <ele>86</ele>
        <time>2026-08-24T11:06:37Z</time>
      </trkpt>
      <trkpt lat="49.23343" lon="3.96007">
        <ele>86</ele>
        <time>2026-08-24T11:06:38Z</time>
      </trkpt>
      <trkpt lat="49.23336" lon="3.9601">
        <ele>86</ele>
        <time>2026-08-24T11:06:39Z</time>
      </trkpt>
      <trkpt lat="49.2333" lon="3.96013">
        <ele>86</ele>
        <time>2026-08-24T11:06:40Z</time>
      </trkpt>
      <trkpt lat="49.23323" lon="3.96017">
        <ele>85.8</ele>
        <time>2026-08-24T11:06:41Z</time>
      </trkpt>
      <trkpt lat="49.23316" lon="3.9602">
        <ele>85.8</ele>
        <time>2026-08-24T11:06:42Z</time>
      </trkpt>
      <trkpt lat="49.23309" lon="3.96023">
        <ele>86</ele>
        <time>2026-08-24T11:06:43Z</time>
      </trkpt>
      <trkpt lat="49.23302" lon="3.96027">
        <ele>86</ele>
        <time>2026-08-24T11:06:44Z</time>
      </trkpt>
      <trkpt lat="49.23296" lon="3.9603">
        <ele>86.2</ele>
        <time>2026-08-24T11:06:45Z</time>
      </trkpt>
      <trkpt lat="49.23289" lon="3.96033">
        <ele>86</ele>
        <time>2026-08-24T11:06:46Z</time>
      </trkpt>
      <trkpt lat="49.23282" lon="3.96036">
        <ele>86</ele>
        <time>2026-08-24T11:06:47Z</time>
      </trkpt>
      <trkpt lat="49.23275" lon="3.96039">
        <ele>85.8</ele>
        <time>2026-08-24T11:06:48Z</time>
      </trkpt>
      <trkpt lat="49.23268" lon="3.96042">
        <ele>85.6</ele>
        <time>2026-08-24T11:06:49Z</time>
      </trkpt>
      <trkpt lat="49.23261" lon="3.96046">
        <ele>85.6</ele>
        <time>2026-08-24T11:06:50Z</time>
      </trkpt>
      <trkpt lat="49.23254" lon="3.96049">
        <ele>85.6</ele>
        <time>2026-08-24T11:06:51Z</time>
      </trkpt>
      <trkpt lat="49.23247" lon="3.96052">
        <ele>85.4</ele>
        <time>2026-08-24T11:06:52Z</time>
      </trkpt>
      <trkpt lat="49.2324" lon="3.96055">
        <ele>85.4</ele>
        <time>2026-08-24T11:06:53Z</time>
      </trkpt>
      <trkpt lat="49.23233" lon="3.96058">
        <ele>85.4</ele>
        <time>2026-08-24T11:06:54Z</time>
      </trkpt>
      <trkpt lat="49.23226" lon="3.96062">
        <ele>85.4</ele>
        <time>2026-08-24T11:06:55Z</time>
      </trkpt>
      <trkpt lat="49.23219" lon="3.96065">
        <ele>85.6</ele>
        <time>2026-08-24T11:06:56Z</time>
      </trkpt>
      <trkpt lat="49.23213" lon="3.96069">
        <ele>85.8</ele>
        <time>2026-08-24T11:06:57Z</time>
      </trkpt>
      <trkpt lat="49.23206" lon="3.96072">
        <ele>85.8</ele>
        <time>2026-08-24T11:06:58Z</time>
      </trkpt>
      <trkpt lat="49.23199" lon="3.96075">
        <ele>85.8</ele>
        <time>2026-08-24T11:06:59Z</time>
      </trkpt>
      <trkpt lat="49.23192" lon="3.96079">
        <ele>85.8</ele>
        <time>2026-08-24T11:07:00Z</time>
      </trkpt>
      <trkpt lat="49.23185" lon="3.96082">
        <ele>85.6</ele>
        <time>2026-08-24T11:07:01Z</time>
      </trkpt>
      <trkpt lat="49.23178" lon="3.96085">
        <ele>85.6</ele>
        <time>2026-08-24T11:07:02Z</time>
      </trkpt>
      <trkpt lat="49.23171" lon="3.96088">
        <ele>85.4</ele>
        <time>2026-08-24T11:07:03Z</time>
      </trkpt>
      <trkpt lat="49.23164" lon="3.96092">
        <ele>85.4</ele>
        <time>2026-08-24T11:07:04Z</time>
      </trkpt>
      <trkpt lat="49.23158" lon="3.96095">
        <ele>85.2</ele>
        <time>2026-08-24T11:07:05Z</time>
      </trkpt>
      <trkpt lat="49.23151" lon="3.96097">
        <ele>85.2</ele>
        <time>2026-08-24T11:07:06Z</time>
      </trkpt>
      <trkpt lat="49.23145" lon="3.961">
        <ele>85.2</ele>
        <time>2026-08-24T11:07:07Z</time>
      </trkpt>
      <trkpt lat="49.23138" lon="3.96103">
        <ele>85.2</ele>
        <time>2026-08-24T11:07:08Z</time>
      </trkpt>
      <trkpt lat="49.23132" lon="3.96106">
        <ele>85.2</ele>
        <time>2026-08-24T11:07:09Z</time>
      </trkpt>
      <trkpt lat="49.23126" lon="3.96109">
        <ele>85.2</ele>
        <time>2026-08-24T11:07:10Z</time>
      </trkpt>
      <trkpt lat="49.23119" lon="3.96112">
        <ele>85.4</ele>
        <time>2026-08-24T11:07:11Z</time>
      </trkpt>
      <trkpt lat="49.23113" lon="3.96115">
        <ele>85.6</ele>
        <time>2026-08-24T11:07:12Z</time>
      </trkpt>
      <trkpt lat="49.23107" lon="3.96118">
        <ele>85.6</ele>
        <time>2026-08-24T11:07:13Z</time>
      </trkpt>
      <trkpt lat="49.23102" lon="3.9612">
        <ele>86</ele>
        <time>2026-08-24T11:07:14Z</time>
      </trkpt>
      <trkpt lat="49.23096" lon="3.96122">
        <ele>86.4</ele>
        <time>2026-08-24T11:07:15Z</time>
      </trkpt>
      <trkpt lat="49.23091" lon="3.96123">
        <ele>86.8</ele>
        <time>2026-08-24T11:07:16Z</time>
      </trkpt>
      <trkpt lat="49.23086" lon="3.96124">
        <ele>87.2</ele>
        <time>2026-08-24T11:07:17Z</time>
      </trkpt>
      <trkpt lat="49.23081" lon="3.96124">
        <ele>87.6</ele>
        <time>2026-08-24T11:07:18Z</time>
      </trkpt>
      <trkpt lat="49.23076" lon="3.96124">
        <ele>88</ele>
        <time>2026-08-24T11:07:19Z</time>
      </trkpt>
      <trkpt lat="49.23071" lon="3.96123">
        <ele>88.2</ele>
        <time>2026-08-24T11:07:20Z</time>
      </trkpt>
      <trkpt lat="49.23066" lon="3.96122">
        <ele>88.6</ele>
        <time>2026-08-24T11:07:21Z</time>
      </trkpt>
      <trkpt lat="49.23061" lon="3.96122">
        <ele>88.8</ele>
        <time>2026-08-24T11:07:22Z</time>
      </trkpt>
      <trkpt lat="49.23056" lon="3.96124">
        <ele>89</ele>
        <time>2026-08-24T11:07:23Z</time>
      </trkpt>
      <trkpt lat="49.23051" lon="3.96128">
        <ele>89</ele>
        <time>2026-08-24T11:07:24Z</time>
      </trkpt>
      <trkpt lat="49.23047" lon="3.96132">
        <ele>89</ele>
        <time>2026-08-24T11:07:25Z</time>
      </trkpt>
      <trkpt lat="49.23042" lon="3.96137">
        <ele>89</ele>
        <time>2026-08-24T11:07:26Z</time>
      </trkpt>
      <trkpt lat="49.23038" lon="3.96142">
        <ele>89</ele>
        <time>2026-08-24T11:07:27Z</time>
      </trkpt>
      <trkpt lat="49.23033" lon="3.96145">
        <ele>88.8</ele>
        <time>2026-08-24T11:07:28Z</time>
      </trkpt>
      <trkpt lat="49.23028" lon="3.96148">
        <ele>88.6</ele>
        <time>2026-08-24T11:07:29Z</time>
      </trkpt>
      <trkpt lat="49.23022" lon="3.96151">
        <ele>88.4</ele>
        <time>2026-08-24T11:07:30Z</time>
      </trkpt>
      <trkpt lat="49.23016" lon="3.96153">
        <ele>88.4</ele>
        <time>2026-08-24T11:07:31Z</time>
      </trkpt>
      <trkpt lat="49.23011" lon="3.96155">
        <ele>88.2</ele>
        <time>2026-08-24T11:07:32Z</time>
      </trkpt>
      <trkpt lat="49.23005" lon="3.96156">
        <ele>88.2</ele>
        <time>2026-08-24T11:07:33Z</time>
      </trkpt>
      <trkpt lat="49.22999" lon="3.96158">
        <ele>88.4</ele>
        <time>2026-08-24T11:07:34Z</time>
      </trkpt>
      <trkpt lat="49.22993" lon="3.96159">
        <ele>88.6</ele>
        <time>2026-08-24T11:07:35Z</time>
      </trkpt>
      <trkpt lat="49.22988" lon="3.9616">
        <ele>88.6</ele>
        <time>2026-08-24T11:07:36Z</time>
      </trkpt>
      <trkpt lat="49.22982" lon="3.96162">
        <ele>88.6</ele>
        <time>2026-08-24T11:07:37Z</time>
      </trkpt>
      <trkpt lat="49.22976" lon="3.96163">
        <ele>88.6</ele>
        <time>2026-08-24T11:07:38Z</time>
      </trkpt>
      <trkpt lat="49.22969" lon="3.96165">
        <ele>88.6</ele>
        <time>2026-08-24T11:07:39Z</time>
      </trkpt>
      <trkpt lat="49.22963" lon="3.96166">
        <ele>88.6</ele>
        <time>2026-08-24T11:07:40Z</time>
      </trkpt>
      <trkpt lat="49.22957" lon="3.96168">
        <ele>88.6</ele>
        <time>2026-08-24T11:07:41Z</time>
      </trkpt>
      <trkpt lat="49.2295" lon="3.96169">
        <ele>88.6</ele>
        <time>2026-08-24T11:07:42Z</time>
      </trkpt>
      <trkpt lat="49.22944" lon="3.96171">
        <ele>88.4</ele>
        <time>2026-08-24T11:07:43Z</time>
      </trkpt>
      <trkpt lat="49.22937" lon="3.96173">
        <ele>88.4</ele>
        <time>2026-08-24T11:07:44Z</time>
      </trkpt>
      <trkpt lat="49.2293" lon="3.96174">
        <ele>88.2</ele>
        <time>2026-08-24T11:07:45Z</time>
      </trkpt>
      <trkpt lat="49.22923" lon="3.96176">
        <ele>88</ele>
        <time>2026-08-24T11:07:46Z</time>
      </trkpt>
      <trkpt lat="49.22917" lon="3.96178">
        <ele>87.8</ele>
        <time>2026-08-24T11:07:47Z</time>
      </trkpt>
      <trkpt lat="49.2291" lon="3.96179">
        <ele>87.6</ele>
        <time>2026-08-24T11:07:48Z</time>
      </trkpt>
      <trkpt lat="49.22903" lon="3.96181">
        <ele>87.4</ele>
        <time>2026-08-24T11:07:49Z</time>
      </trkpt>
      <trkpt lat="49.22896" lon="3.96183">
        <ele>87.4</ele>
        <time>2026-08-24T11:07:50Z</time>
      </trkpt>
      <trkpt lat="49.22888" lon="3.96185">
        <ele>87.2</ele>
        <time>2026-08-24T11:07:51Z</time>
      </trkpt>
      <trkpt lat="49.22881" lon="3.96187">
        <ele>87.2</ele>
        <time>2026-08-24T11:07:52Z</time>
      </trkpt>
      <trkpt lat="49.22874" lon="3.96189">
        <ele>87.2</ele>
        <time>2026-08-24T11:07:53Z</time>
      </trkpt>
      <trkpt lat="49.22867" lon="3.9619">
        <ele>87</ele>
        <time>2026-08-24T11:07:54Z</time>
      </trkpt>
      <trkpt lat="49.2286" lon="3.96192">
        <ele>86.8</ele>
        <time>2026-08-24T11:07:55Z</time>
      </trkpt>
      <trkpt lat="49.22852" lon="3.96194">
        <ele>86.8</ele>
        <time>2026-08-24T11:07:56Z</time>
      </trkpt>
      <trkpt lat="49.22845" lon="3.96195">
        <ele>86.6</ele>
        <time>2026-08-24T11:07:57Z</time>
      </trkpt>
      <trkpt lat="49.22838" lon="3.96196">
        <ele>86.6</ele>
        <time>2026-08-24T11:07:58Z</time>
      </trkpt>
      <trkpt lat="49.2283" lon="3.96197">
        <ele>86.6</ele>
        <time>2026-08-24T11:07:59Z</time>
      </trkpt>
      <trkpt lat="49.22823" lon="3.96198">
        <ele>86.4</ele>
        <time>2026-08-24T11:08:00Z</time>
      </trkpt>
      <trkpt lat="49.22815" lon="3.96199">
        <ele>86.4</ele>
        <time>2026-08-24T11:08:01Z</time>
      </trkpt>
      <trkpt lat="49.22808" lon="3.962">
        <ele>86.2</ele>
        <time>2026-08-24T11:08:02Z</time>
      </trkpt>
      <trkpt lat="49.228" lon="3.96201">
        <ele>86.2</ele>
        <time>2026-08-24T11:08:03Z</time>
      </trkpt>
      <trkpt lat="49.22793" lon="3.96202">
        <ele>86</ele>
        <time>2026-08-24T11:08:04Z</time>
      </trkpt>
      <trkpt lat="49.22785" lon="3.96203">
        <ele>86</ele>
        <time>2026-08-24T11:08:05Z</time>
      </trkpt>
      <trkpt lat="49.22777" lon="3.96204">
        <ele>86</ele>
        <time>2026-08-24T11:08:06Z</time>
      </trkpt>
      <trkpt lat="49.2277" lon="3.96206">
        <ele>86.2</ele>
        <time>2026-08-24T11:08:07Z</time>
      </trkpt>
      <trkpt lat="49.22762" lon="3.96208">
        <ele>86.4</ele>
        <time>2026-08-24T11:08:08Z</time>
      </trkpt>
      <trkpt lat="49.22755" lon="3.9621">
        <ele>86.4</ele>
        <time>2026-08-24T11:08:09Z</time>
      </trkpt>
      <trkpt lat="49.22748" lon="3.96211">
        <ele>86.6</ele>
        <time>2026-08-24T11:08:10Z</time>
      </trkpt>
      <trkpt lat="49.2274" lon="3.96213">
        <ele>86.6</ele>
        <time>2026-08-24T11:08:11Z</time>
      </trkpt>
      <trkpt lat="49.22733" lon="3.96215">
        <ele>86.6</ele>
        <time>2026-08-24T11:08:12Z</time>
      </trkpt>
      <trkpt lat="49.22726" lon="3.96215">
        <ele>86.8</ele>
        <time>2026-08-24T11:08:13Z</time>
      </trkpt>
      <trkpt lat="49.22719" lon="3.96217">
        <ele>87</ele>
        <time>2026-08-24T11:08:14Z</time>
      </trkpt>
      <trkpt lat="49.22711" lon="3.96219">
        <ele>87.2</ele>
        <time>2026-08-24T11:08:15Z</time>
      </trkpt>
      <trkpt lat="49.22704" lon="3.96221">
        <ele>87.4</ele>
        <time>2026-08-24T11:08:16Z</time>
      </trkpt>
      <trkpt lat="49.22696" lon="3.96223">
        <ele>87.4</ele>
        <time>2026-08-24T11:08:17Z</time>
      </trkpt>
      <trkpt lat="49.22689" lon="3.96225">
        <ele>87.2</ele>
        <time>2026-08-24T11:08:18Z</time>
      </trkpt>
      <trkpt lat="49.22682" lon="3.96227">
        <ele>87.4</ele>
        <time>2026-08-24T11:08:19Z</time>
      </trkpt>
      <trkpt lat="49.22675" lon="3.96229">
        <ele>87.4</ele>
        <time>2026-08-24T11:08:20Z</time>
      </trkpt>
      <trkpt lat="49.22668" lon="3.9623">
        <ele>87.4</ele>
        <time>2026-08-24T11:08:21Z</time>
      </trkpt>
      <trkpt lat="49.22661" lon="3.96232">
        <ele>87.2</ele>
        <time>2026-08-24T11:08:22Z</time>
      </trkpt>
      <trkpt lat="49.22654" lon="3.96234">
        <ele>87.4</ele>
        <time>2026-08-24T11:08:23Z</time>
      </trkpt>
      <trkpt lat="49.22647" lon="3.96235">
        <ele>87.2</ele>
        <time>2026-08-24T11:08:24Z</time>
      </trkpt>
      <trkpt lat="49.22641" lon="3.96237">
        <ele>87.4</ele>
        <time>2026-08-24T11:08:25Z</time>
      </trkpt>
      <trkpt lat="49.22634" lon="3.96238">
        <ele>87.4</ele>
        <time>2026-08-24T11:08:26Z</time>
      </trkpt>
      <trkpt lat="49.22628" lon="3.9624">
        <ele>87.6</ele>
        <time>2026-08-24T11:08:27Z</time>
      </trkpt>
      <trkpt lat="49.22622" lon="3.96241">
        <ele>87.6</ele>
        <time>2026-08-24T11:08:28Z</time>
      </trkpt>
      <trkpt lat="49.22616" lon="3.96243">
        <ele>87.6</ele>
        <time>2026-08-24T11:08:29Z</time>
      </trkpt>
      <trkpt lat="49.2261" lon="3.96244">
        <ele>87.6</ele>
        <time>2026-08-24T11:08:30Z</time>
      </trkpt>
      <trkpt lat="49.22604" lon="3.96246">
        <ele>87.8</ele>
        <time>2026-08-24T11:08:31Z</time>
      </trkpt>
      <trkpt lat="49.22598" lon="3.96247">
        <ele>87.8</ele>
        <time>2026-08-24T11:08:32Z</time>
      </trkpt>
      <trkpt lat="49.22593" lon="3.96248">
        <ele>88.2</ele>
        <time>2026-08-24T11:08:33Z</time>
      </trkpt>
      <trkpt lat="49.22587" lon="3.9625">
        <ele>88.4</ele>
        <time>2026-08-24T11:08:34Z</time>
      </trkpt>
      <trkpt lat="49.22581" lon="3.96252">
        <ele>88.8</ele>
        <time>2026-08-24T11:08:35Z</time>
      </trkpt>
      <trkpt lat="49.22575" lon="3.96253">
        <ele>89</ele>
        <time>2026-08-24T11:08:36Z</time>
      </trkpt>
      <trkpt lat="49.2257" lon="3.96255">
        <ele>89.2</ele>
        <time>2026-08-24T11:08:37Z</time>
      </trkpt>
      <trkpt lat="49.22564" lon="3.96256">
        <ele>89.4</ele>
        <time>2026-08-24T11:08:38Z</time>
      </trkpt>
      <trkpt lat="49.22559" lon="3.96258">
        <ele>89.6</ele>
        <time>2026-08-24T11:08:39Z</time>
      </trkpt>
      <trkpt lat="49.22553" lon="3.96259">
        <ele>89.6</ele>
        <time>2026-08-24T11:08:40Z</time>
      </trkpt>
      <trkpt lat="49.22547" lon="3.96261">
        <ele>89.8</ele>
        <time>2026-08-24T11:08:41Z</time>
      </trkpt>
      <trkpt lat="49.22542" lon="3.96262">
        <ele>89.8</ele>
        <time>2026-08-24T11:08:42Z</time>
      </trkpt>
      <trkpt lat="49.22536" lon="3.96264">
        <ele>89.8</ele>
        <time>2026-08-24T11:08:43Z</time>
      </trkpt>
      <trkpt lat="49.22531" lon="3.96265">
        <ele>89.8</ele>
        <time>2026-08-24T11:08:44Z</time>
      </trkpt>
      <trkpt lat="49.22525" lon="3.96266">
        <ele>89.8</ele>
        <time>2026-08-24T11:08:45Z</time>
      </trkpt>
      <trkpt lat="49.22519" lon="3.96268">
        <ele>90</ele>
        <time>2026-08-24T11:08:46Z</time>
      </trkpt>
      <trkpt lat="49.22514" lon="3.96269">
        <ele>90</ele>
        <time>2026-08-24T11:08:47Z</time>
      </trkpt>
      <trkpt lat="49.22508" lon="3.96271">
        <ele>90</ele>
        <time>2026-08-24T11:08:48Z</time>
      </trkpt>
      <trkpt lat="49.22502" lon="3.96272">
        <ele>90</ele>
        <time>2026-08-24T11:08:49Z</time>
      </trkpt>
      <trkpt lat="49.22496" lon="3.96273">
        <ele>90</ele>
        <time>2026-08-24T11:08:50Z</time>
      </trkpt>
      <trkpt lat="49.2249" lon="3.96275">
        <ele>90</ele>
        <time>2026-08-24T11:08:51Z</time>
      </trkpt>
      <trkpt lat="49.22484" lon="3.96276">
        <ele>90</ele>
        <time>2026-08-24T11:08:52Z</time>
      </trkpt>
      <trkpt lat="49.22478" lon="3.96278">
        <ele>90</ele>
        <time>2026-08-24T11:08:53Z</time>
      </trkpt>
      <trkpt lat="49.22472" lon="3.96279">
        <ele>90</ele>
        <time>2026-08-24T11:08:54Z</time>
      </trkpt>
      <trkpt lat="49.22466" lon="3.96281">
        <ele>90</ele>
        <time>2026-08-24T11:08:55Z</time>
      </trkpt>
      <trkpt lat="49.2246" lon="3.96282">
        <ele>89.8</ele>
        <time>2026-08-24T11:08:56Z</time>
      </trkpt>
      <trkpt lat="49.22454" lon="3.96284">
        <ele>89.8</ele>
        <time>2026-08-24T11:08:57Z</time>
      </trkpt>
      <trkpt lat="49.22448" lon="3.96286">
        <ele>89.8</ele>
        <time>2026-08-24T11:08:58Z</time>
      </trkpt>
      <trkpt lat="49.22442" lon="3.96287">
        <ele>89.8</ele>
        <time>2026-08-24T11:08:59Z</time>
      </trkpt>
      <trkpt lat="49.22436" lon="3.96289">
        <ele>89.8</ele>
        <time>2026-08-24T11:09:00Z</time>
      </trkpt>
      <trkpt lat="49.22429" lon="3.9629">
        <ele>90</ele>
        <time>2026-08-24T11:09:01Z</time>
      </trkpt>
      <trkpt lat="49.22423" lon="3.96292">
        <ele>90</ele>
        <time>2026-08-24T11:09:02Z</time>
      </trkpt>
      <trkpt lat="49.22417" lon="3.96293">
        <ele>90.2</ele>
        <time>2026-08-24T11:09:03Z</time>
      </trkpt>
      <trkpt lat="49.22411" lon="3.96295">
        <ele>90.2</ele>
        <time>2026-08-24T11:09:04Z</time>
      </trkpt>
      <trkpt lat="49.22405" lon="3.96297">
        <ele>90.4</ele>
        <time>2026-08-24T11:09:05Z</time>
      </trkpt>
      <trkpt lat="49.22398" lon="3.96298">
        <ele>90.4</ele>
        <time>2026-08-24T11:09:06Z</time>
      </trkpt>
      <trkpt lat="49.22392" lon="3.963">
        <ele>90.4</ele>
        <time>2026-08-24T11:09:07Z</time>
      </trkpt>
      <trkpt lat="49.22386" lon="3.96301">
        <ele>90.4</ele>
        <time>2026-08-24T11:09:08Z</time>
      </trkpt>
      <trkpt lat="49.22379" lon="3.96303">
        <ele>90.4</ele>
        <time>2026-08-24T11:09:09Z</time>
      </trkpt>
      <trkpt lat="49.22373" lon="3.96304">
        <ele>90.2</ele>
        <time>2026-08-24T11:09:10Z</time>
      </trkpt>
      <trkpt lat="49.22367" lon="3.96306">
        <ele>90.4</ele>
        <time>2026-08-24T11:09:11Z</time>
      </trkpt>
      <trkpt lat="49.2236" lon="3.96307">
        <ele>90.4</ele>
        <time>2026-08-24T11:09:12Z</time>
      </trkpt>
      <trkpt lat="49.22354" lon="3.96309">
        <ele>90.4</ele>
        <time>2026-08-24T11:09:13Z</time>
      </trkpt>
      <trkpt lat="49.22348" lon="3.9631">
        <ele>90.4</ele>
        <time>2026-08-24T11:09:14Z</time>
      </trkpt>
      <trkpt lat="49.22341" lon="3.96312">
        <ele>90.6</ele>
        <time>2026-08-24T11:09:15Z</time>
      </trkpt>
      <trkpt lat="49.22335" lon="3.96313">
        <ele>90.6</ele>
        <time>2026-08-24T11:09:16Z</time>
      </trkpt>
      <trkpt lat="49.22329" lon="3.96315">
        <ele>90.6</ele>
        <time>2026-08-24T11:09:17Z</time>
      </trkpt>
      <trkpt lat="49.22323" lon="3.96316">
        <ele>90.4</ele>
        <time>2026-08-24T11:09:18Z</time>
      </trkpt>
      <trkpt lat="49.22316" lon="3.96318">
        <ele>90.4</ele>
        <time>2026-08-24T11:09:19Z</time>
      </trkpt>
      <trkpt lat="49.2231" lon="3.96319">
        <ele>90.4</ele>
        <time>2026-08-24T11:09:20Z</time>
      </trkpt>
      <trkpt lat="49.22304" lon="3.96321">
        <ele>90.2</ele>
        <time>2026-08-24T11:09:21Z</time>
      </trkpt>
      <trkpt lat="49.22298" lon="3.96323">
        <ele>90.4</ele>
        <time>2026-08-24T11:09:22Z</time>
      </trkpt>
      <trkpt lat="49.22291" lon="3.96324">
        <ele>90.4</ele>
        <time>2026-08-24T11:09:23Z</time>
      </trkpt>
      <trkpt lat="49.22285" lon="3.96326">
        <ele>90.4</ele>
        <time>2026-08-24T11:09:24Z</time>
      </trkpt>
      <trkpt lat="49.22279" lon="3.96328">
        <ele>90.6</ele>
        <time>2026-08-24T11:09:25Z</time>
      </trkpt>
      <trkpt lat="49.22273" lon="3.96329">
        <ele>90.8</ele>
        <time>2026-08-24T11:09:26Z</time>
      </trkpt>
      <trkpt lat="49.22266" lon="3.96331">
        <ele>91</ele>
        <time>2026-08-24T11:09:27Z</time>
      </trkpt>
      <trkpt lat="49.2226" lon="3.96332">
        <ele>91.2</ele>
        <time>2026-08-24T11:09:28Z</time>
      </trkpt>
      <trkpt lat="49.22253" lon="3.96334">
        <ele>91.2</ele>
        <time>2026-08-24T11:09:29Z</time>
      </trkpt>
      <trkpt lat="49.22247" lon="3.96335">
        <ele>91.2</ele>
        <time>2026-08-24T11:09:30Z</time>
      </trkpt>
      <trkpt lat="49.2224" lon="3.96337">
        <ele>91.2</ele>
        <time>2026-08-24T11:09:31Z</time>
      </trkpt>
      <trkpt lat="49.22234" lon="3.96338">
        <ele>91.2</ele>
        <time>2026-08-24T11:09:32Z</time>
      </trkpt>
      <trkpt lat="49.22228" lon="3.9634">
        <ele>91.2</ele>
        <time>2026-08-24T11:09:33Z</time>
      </trkpt>
      <trkpt lat="49.22222" lon="3.96341">
        <ele>91.4</ele>
        <time>2026-08-24T11:09:34Z</time>
      </trkpt>
      <trkpt lat="49.22216" lon="3.96342">
        <ele>91.4</ele>
        <time>2026-08-24T11:09:35Z</time>
      </trkpt>
      <trkpt lat="49.22211" lon="3.96342">
        <ele>91.6</ele>
        <time>2026-08-24T11:09:36Z</time>
      </trkpt>
      <trkpt lat="49.22206" lon="3.96342">
        <ele>91.4</ele>
        <time>2026-08-24T11:09:37Z</time>
      </trkpt>
      <trkpt lat="49.222" lon="3.96341">
        <ele>91.4</ele>
        <time>2026-08-24T11:09:38Z</time>
      </trkpt>
      <trkpt lat="49.22194" lon="3.96339">
        <ele>91.4</ele>
        <time>2026-08-24T11:09:39Z</time>
      </trkpt>
      <trkpt lat="49.22188" lon="3.96335">
        <ele>91.2</ele>
        <time>2026-08-24T11:09:40Z</time>
      </trkpt>
      <trkpt lat="49.22182" lon="3.96331">
        <ele>91.2</ele>
        <time>2026-08-24T11:09:41Z</time>
      </trkpt>
      <trkpt lat="49.22176" lon="3.96326">
        <ele>91</ele>
        <time>2026-08-24T11:09:42Z</time>
      </trkpt>
      <trkpt lat="49.22171" lon="3.96321">
        <ele>90.8</ele>
        <time>2026-08-24T11:09:43Z</time>
      </trkpt>
      <trkpt lat="49.22165" lon="3.96315">
        <ele>90.6</ele>
        <time>2026-08-24T11:09:44Z</time>
      </trkpt>
      <trkpt lat="49.22159" lon="3.96309">
        <ele>90.6</ele>
        <time>2026-08-24T11:09:45Z</time>
      </trkpt>
      <trkpt lat="49.22153" lon="3.96304">
        <ele>90.6</ele>
        <time>2026-08-24T11:09:46Z</time>
      </trkpt>
      <trkpt lat="49.22148" lon="3.96298">
        <ele>90.6</ele>
        <time>2026-08-24T11:09:47Z</time>
      </trkpt>
      <trkpt lat="49.22142" lon="3.96292">
        <ele>90.6</ele>
        <time>2026-08-24T11:09:48Z</time>
      </trkpt>
      <trkpt lat="49.22136" lon="3.96286">
        <ele>90.8</ele>
        <time>2026-08-24T11:09:49Z</time>
      </trkpt>
      <trkpt lat="49.22131" lon="3.9628">
        <ele>90.8</ele>
        <time>2026-08-24T11:09:50Z</time>
      </trkpt>
      <trkpt lat="49.22125" lon="3.96275">
        <ele>90.8</ele>
        <time>2026-08-24T11:09:51Z</time>
      </trkpt>
      <trkpt lat="49.2212" lon="3.9627">
        <ele>90.8</ele>
        <time>2026-08-24T11:09:52Z</time>
      </trkpt>
      <trkpt lat="49.22115" lon="3.96264">
        <ele>91</ele>
        <time>2026-08-24T11:09:53Z</time>
      </trkpt>
      <trkpt lat="49.2211" lon="3.96258">
        <ele>91</ele>
        <time>2026-08-24T11:09:54Z</time>
      </trkpt>
      <trkpt lat="49.22105" lon="3.96252">
        <ele>91.2</ele>
        <time>2026-08-24T11:09:55Z</time>
      </trkpt>
      <trkpt lat="49.221" lon="3.96245">
        <ele>91.2</ele>
        <time>2026-08-24T11:09:56Z</time>
      </trkpt>
      <trkpt lat="49.22096" lon="3.96238">
        <ele>91.4</ele>
        <time>2026-08-24T11:09:57Z</time>
      </trkpt>
      <trkpt lat="49.22091" lon="3.96231">
        <ele>91.4</ele>
        <time>2026-08-24T11:09:58Z</time>
      </trkpt>
      <trkpt lat="49.22087" lon="3.96225">
        <ele>91.2</ele>
        <time>2026-08-24T11:09:59Z</time>
      </trkpt>
      <trkpt lat="49.22082" lon="3.96218">
        <ele>91.2</ele>
        <time>2026-08-24T11:10:00Z</time>
      </trkpt>
      <trkpt lat="49.22078" lon="3.9621">
        <ele>91</ele>
        <time>2026-08-24T11:10:01Z</time>
      </trkpt>
      <trkpt lat="49.22073" lon="3.96203">
        <ele>91</ele>
        <time>2026-08-24T11:10:02Z</time>
      </trkpt>
      <trkpt lat="49.22068" lon="3.96195">
        <ele>91</ele>
        <time>2026-08-24T11:10:03Z</time>
      </trkpt>
      <trkpt lat="49.22064" lon="3.96187">
        <ele>91</ele>
        <time>2026-08-24T11:10:04Z</time>
      </trkpt>
      <trkpt lat="49.22059" lon="3.9618">
        <ele>91.2</ele>
        <time>2026-08-24T11:10:05Z</time>
      </trkpt>
      <trkpt lat="49.22054" lon="3.96173">
        <ele>91.2</ele>
        <time>2026-08-24T11:10:06Z</time>
      </trkpt>
      <trkpt lat="49.22049" lon="3.96166">
        <ele>91.2</ele>
        <time>2026-08-24T11:10:07Z</time>
      </trkpt>
      <trkpt lat="49.22045" lon="3.96159">
        <ele>91.4</ele>
        <time>2026-08-24T11:10:08Z</time>
      </trkpt>
      <trkpt lat="49.2204" lon="3.96153">
        <ele>91.4</ele>
        <time>2026-08-24T11:10:09Z</time>
      </trkpt>
      <trkpt lat="49.22036" lon="3.96146">
        <ele>91.4</ele>
        <time>2026-08-24T11:10:10Z</time>
      </trkpt>
      <trkpt lat="49.22032" lon="3.9614">
        <ele>91.4</ele>
        <time>2026-08-24T11:10:11Z</time>
      </trkpt>
      <trkpt lat="49.22028" lon="3.96134">
        <ele>91.4</ele>
        <time>2026-08-24T11:10:12Z</time>
      </trkpt>
      <trkpt lat="49.22023" lon="3.96129">
        <ele>91.6</ele>
        <time>2026-08-24T11:10:13Z</time>
      </trkpt>
      <trkpt lat="49.22018" lon="3.96123">
        <ele>91.6</ele>
        <time>2026-08-24T11:10:14Z</time>
      </trkpt>
      <trkpt lat="49.22013" lon="3.96117">
        <ele>91.6</ele>
        <time>2026-08-24T11:10:15Z</time>
      </trkpt>
      <trkpt lat="49.22008" lon="3.9611">
        <ele>91.6</ele>
        <time>2026-08-24T11:10:16Z</time>
      </trkpt>
      <trkpt lat="49.22004" lon="3.96104">
        <ele>91.8</ele>
        <time>2026-08-24T11:10:17Z</time>
      </trkpt>
      <trkpt lat="49.21999" lon="3.96097">
        <ele>91.8</ele>
        <time>2026-08-24T11:10:18Z</time>
      </trkpt>
      <trkpt lat="49.21994" lon="3.96091">
        <ele>91.6</ele>
        <time>2026-08-24T11:10:19Z</time>
      </trkpt>
      <trkpt lat="49.2199" lon="3.96084">
        <ele>91.8</ele>
        <time>2026-08-24T11:10:20Z</time>
      </trkpt>
      <trkpt lat="49.21985" lon="3.96078">
        <ele>92</ele>
        <time>2026-08-24T11:10:21Z</time>
      </trkpt>
      <trkpt lat="49.2198" lon="3.96072">
        <ele>92</ele>
        <time>2026-08-24T11:10:22Z</time>
      </trkpt>
      <trkpt lat="49.21976" lon="3.96065">
        <ele>92.2</ele>
        <time>2026-08-24T11:10:23Z</time>
      </trkpt>
      <trkpt lat="49.21971" lon="3.96059">
        <ele>92.2</ele>
        <time>2026-08-24T11:10:24Z</time>
      </trkpt>
      <trkpt lat="49.21967" lon="3.96052">
        <ele>92.2</ele>
        <time>2026-08-24T11:10:25Z</time>
      </trkpt>
      <trkpt lat="49.21962" lon="3.96046">
        <ele>92.2</ele>
        <time>2026-08-24T11:10:26Z</time>
      </trkpt>
      <trkpt lat="49.21958" lon="3.96039">
        <ele>92.2</ele>
        <time>2026-08-24T11:10:27Z</time>
      </trkpt>
      <trkpt lat="49.21954" lon="3.96033">
        <ele>92.2</ele>
        <time>2026-08-24T11:10:28Z</time>
      </trkpt>
      <trkpt lat="49.21949" lon="3.96027">
        <ele>92.4</ele>
        <time>2026-08-24T11:10:29Z</time>
      </trkpt>
      <trkpt lat="49.21945" lon="3.96021">
        <ele>92.4</ele>
        <time>2026-08-24T11:10:30Z</time>
      </trkpt>
      <trkpt lat="49.2194" lon="3.96016">
        <ele>92.6</ele>
        <time>2026-08-24T11:10:31Z</time>
      </trkpt>
      <trkpt lat="49.21936" lon="3.96011">
        <ele>92.8</ele>
        <time>2026-08-24T11:10:32Z</time>
      </trkpt>
      <trkpt lat="49.21932" lon="3.96007">
        <ele>93</ele>
        <time>2026-08-24T11:10:33Z</time>
      </trkpt>
      <trkpt lat="49.21928" lon="3.96003">
        <ele>93.2</ele>
        <time>2026-08-24T11:10:34Z</time>
      </trkpt>
      <trkpt lat="49.21923" lon="3.96001">
        <ele>93.2</ele>
        <time>2026-08-24T11:10:35Z</time>
      </trkpt>
      <trkpt lat="49.21919" lon="3.96">
        <ele>93.4</ele>
        <time>2026-08-24T11:10:36Z</time>
      </trkpt>
      <trkpt lat="49.21915" lon="3.95999">
        <ele>93.6</ele>
        <time>2026-08-24T11:10:37Z</time>
      </trkpt>
      <trkpt lat="49.21911" lon="3.95998">
        <ele>93.8</ele>
        <time>2026-08-24T11:10:38Z</time>
      </trkpt>
      <trkpt lat="49.21907" lon="3.95997">
        <ele>94</ele>
        <time>2026-08-24T11:10:39Z</time>
      </trkpt>
      <trkpt lat="49.21903" lon="3.95997">
        <ele>94.2</ele>
        <time>2026-08-24T11:10:40Z</time>
      </trkpt>
      <trkpt lat="49.219" lon="3.95997">
        <ele>94.4</ele>
        <time>2026-08-24T11:10:41Z</time>
      </trkpt>
      <trkpt lat="49.21897" lon="3.95998">
        <ele>94.4</ele>
        <time>2026-08-24T11:10:42Z</time>
      </trkpt>
      <trkpt lat="49.21894" lon="3.95998">
        <ele>94.6</ele>
        <time>2026-08-24T11:10:43Z</time>
      </trkpt>
      <trkpt lat="49.21891" lon="3.95999">
        <ele>94.6</ele>
        <time>2026-08-24T11:10:44Z</time>
      </trkpt>
      <trkpt lat="49.21889" lon="3.95999">
        <ele>94.6</ele>
        <time>2026-08-24T11:10:45Z</time>
      </trkpt>
      <trkpt lat="49.21888" lon="3.95999">
        <ele>94.6</ele>
        <time>2026-08-24T11:10:46Z</time>
      </trkpt>
      <trkpt lat="49.21888" lon="3.95998">
        <ele>94.6</ele>
        <time>2026-08-24T11:10:47Z</time>
      </trkpt>
      <trkpt lat="49.21888" lon="3.95998">
        <ele>94.6</ele>
        <time>2026-08-24T11:10:48Z</time>
      </trkpt>
      <trkpt lat="49.21884" lon="3.96">
        <ele>94.4</ele>
        <time>2026-08-24T11:11:24Z</time>
      </trkpt>
      <trkpt lat="49.21882" lon="3.96001">
        <ele>94.4</ele>
        <time>2026-08-24T11:11:25Z</time>
      </trkpt>
      <trkpt lat="49.2188" lon="3.96001">
        <ele>94.4</ele>
        <time>2026-08-24T11:11:26Z</time>
      </trkpt>
      <trkpt lat="49.21877" lon="3.96002">
        <ele>94.4</ele>
        <time>2026-08-24T11:11:27Z</time>
      </trkpt>
      <trkpt lat="49.21874" lon="3.96003">
        <ele>94.4</ele>
        <time>2026-08-24T11:11:28Z</time>
      </trkpt>
      <trkpt lat="49.2187" lon="3.96004">
        <ele>94.2</ele>
        <time>2026-08-24T11:11:29Z</time>
      </trkpt>
      <trkpt lat="49.21866" lon="3.96006">
        <ele>94.2</ele>
        <time>2026-08-24T11:11:30Z</time>
      </trkpt>
      <trkpt lat="49.21863" lon="3.96009">
        <ele>94.2</ele>
        <time>2026-08-24T11:11:31Z</time>
      </trkpt>
      <trkpt lat="49.21859" lon="3.96012">
        <ele>94.2</ele>
        <time>2026-08-24T11:11:32Z</time>
      </trkpt>
      <trkpt lat="49.21854" lon="3.96014">
        <ele>94.2</ele>
        <time>2026-08-24T11:11:33Z</time>
      </trkpt>
      <trkpt lat="49.2185" lon="3.96016">
        <ele>94</ele>
        <time>2026-08-24T11:11:34Z</time>
      </trkpt>
      <trkpt lat="49.21844" lon="3.96018">
        <ele>94</ele>
        <time>2026-08-24T11:11:35Z</time>
      </trkpt>
      <trkpt lat="49.21839" lon="3.9602">
        <ele>94.2</ele>
        <time>2026-08-24T11:11:36Z</time>
      </trkpt>
      <trkpt lat="49.21834" lon="3.96021">
        <ele>94.2</ele>
        <time>2026-08-24T11:11:37Z</time>
      </trkpt>
      <trkpt lat="49.21828" lon="3.96023">
        <ele>94.2</ele>
        <time>2026-08-24T11:11:38Z</time>
      </trkpt>
      <trkpt lat="49.21823" lon="3.96024">
        <ele>94.4</ele>
        <time>2026-08-24T11:11:39Z</time>
      </trkpt>
      <trkpt lat="49.21817" lon="3.96026">
        <ele>94.6</ele>
        <time>2026-08-24T11:11:40Z</time>
      </trkpt>
      <trkpt lat="49.21812" lon="3.96029">
        <ele>94.6</ele>
        <time>2026-08-24T11:11:41Z</time>
      </trkpt>
      <trkpt lat="49.21806" lon="3.96031">
        <ele>94.6</ele>
        <time>2026-08-24T11:11:42Z</time>
      </trkpt>
      <trkpt lat="49.218" lon="3.96033">
        <ele>94.8</ele>
        <time>2026-08-24T11:11:43Z</time>
      </trkpt>
      <trkpt lat="49.21795" lon="3.96035">
        <ele>94.8</ele>
        <time>2026-08-24T11:11:44Z</time>
      </trkpt>
      <trkpt lat="49.21789" lon="3.96034">
        <ele>94.8</ele>
        <time>2026-08-24T11:11:45Z</time>
      </trkpt>
      <trkpt lat="49.21784" lon="3.96032">
        <ele>94.8</ele>
        <time>2026-08-24T11:11:46Z</time>
      </trkpt>
      <trkpt lat="49.21778" lon="3.9603">
        <ele>94.8</ele>
        <time>2026-08-24T11:11:47Z</time>
      </trkpt>
      <trkpt lat="49.21773" lon="3.96028">
        <ele>94.8</ele>
        <time>2026-08-24T11:11:48Z</time>
      </trkpt>
      <trkpt lat="49.21767" lon="3.96024">
        <ele>95</ele>
        <time>2026-08-24T11:11:49Z</time>
      </trkpt>
      <trkpt lat="49.21762" lon="3.9602">
        <ele>95</ele>
        <time>2026-08-24T11:11:50Z</time>
      </trkpt>
      <trkpt lat="49.21757" lon="3.96016">
        <ele>95.2</ele>
        <time>2026-08-24T11:11:51Z</time>
      </trkpt>
      <trkpt lat="49.21751" lon="3.96011">
        <ele>95.2</ele>
        <time>2026-08-24T11:11:52Z</time>
      </trkpt>
      <trkpt lat="49.21746" lon="3.96006">
        <ele>95.4</ele>
        <time>2026-08-24T11:11:53Z</time>
      </trkpt>
      <trkpt lat="49.21742" lon="3.96">
        <ele>95.4</ele>
        <time>2026-08-24T11:11:54Z</time>
      </trkpt>
      <trkpt lat="49.21737" lon="3.95994">
        <ele>95.4</ele>
        <time>2026-08-24T11:11:55Z</time>
      </trkpt>
      <trkpt lat="49.21733" lon="3.95987">
        <ele>95.2</ele>
        <time>2026-08-24T11:11:56Z</time>
      </trkpt>
      <trkpt lat="49.21728" lon="3.9598">
        <ele>95.2</ele>
        <time>2026-08-24T11:11:57Z</time>
      </trkpt>
      <trkpt lat="49.21724" lon="3.95974">
        <ele>95.2</ele>
        <time>2026-08-24T11:11:58Z</time>
      </trkpt>
      <trkpt lat="49.2172" lon="3.95967">
        <ele>95.2</ele>
        <time>2026-08-24T11:11:59Z</time>
      </trkpt>
      <trkpt lat="49.21716" lon="3.95961">
        <ele>95.4</ele>
        <time>2026-08-24T11:12:00Z</time>
      </trkpt>
      <trkpt lat="49.21713" lon="3.95954">
        <ele>95.4</ele>
        <time>2026-08-24T11:12:01Z</time>
      </trkpt>
      <trkpt lat="49.2171" lon="3.95947">
        <ele>95.4</ele>
        <time>2026-08-24T11:12:02Z</time>
      </trkpt>
      <trkpt lat="49.21707" lon="3.9594">
        <ele>95.4</ele>
        <time>2026-08-24T11:12:03Z</time>
      </trkpt>
      <trkpt lat="49.21705" lon="3.95932">
        <ele>95.4</ele>
        <time>2026-08-24T11:12:04Z</time>
      </trkpt>
      <trkpt lat="49.21703" lon="3.95924">
        <ele>95.4</ele>
        <time>2026-08-24T11:12:05Z</time>
      </trkpt>
      <trkpt lat="49.21701" lon="3.95916">
        <ele>95.4</ele>
        <time>2026-08-24T11:12:06Z</time>
      </trkpt>
      <trkpt lat="49.21698" lon="3.95907">
        <ele>95.6</ele>
        <time>2026-08-24T11:12:07Z</time>
      </trkpt>
      <trkpt lat="49.21696" lon="3.95898">
        <ele>95.6</ele>
        <time>2026-08-24T11:12:08Z</time>
      </trkpt>
      <trkpt lat="49.21693" lon="3.9589">
        <ele>95.6</ele>
        <time>2026-08-24T11:12:09Z</time>
      </trkpt>
      <trkpt lat="49.21691" lon="3.95881">
        <ele>95.8</ele>
        <time>2026-08-24T11:12:10Z</time>
      </trkpt>
      <trkpt lat="49.21687" lon="3.95873">
        <ele>95.8</ele>
        <time>2026-08-24T11:12:11Z</time>
      </trkpt>
      <trkpt lat="49.21684" lon="3.95864">
        <ele>96</ele>
        <time>2026-08-24T11:12:12Z</time>
      </trkpt>
      <trkpt lat="49.2168" lon="3.95856">
        <ele>96</ele>
        <time>2026-08-24T11:12:13Z</time>
      </trkpt>
      <trkpt lat="49.21676" lon="3.95848">
        <ele>96</ele>
        <time>2026-08-24T11:12:14Z</time>
      </trkpt>
      <trkpt lat="49.21671" lon="3.95841">
        <ele>96.2</ele>
        <time>2026-08-24T11:12:15Z</time>
      </trkpt>
      <trkpt lat="49.21666" lon="3.95834">
        <ele>96.2</ele>
        <time>2026-08-24T11:12:16Z</time>
      </trkpt>
      <trkpt lat="49.2166" lon="3.95828">
        <ele>96.2</ele>
        <time>2026-08-24T11:12:17Z</time>
      </trkpt>
      <trkpt lat="49.21655" lon="3.95822">
        <ele>96.4</ele>
        <time>2026-08-24T11:12:18Z</time>
      </trkpt>
      <trkpt lat="49.21649" lon="3.95817">
        <ele>96.6</ele>
        <time>2026-08-24T11:12:19Z</time>
      </trkpt>
      <trkpt lat="49.21644" lon="3.95812">
        <ele>96.6</ele>
        <time>2026-08-24T11:12:20Z</time>
      </trkpt>
      <trkpt lat="49.21638" lon="3.95807">
        <ele>96.8</ele>
        <time>2026-08-24T11:12:21Z</time>
      </trkpt>
      <trkpt lat="49.21633" lon="3.95802">
        <ele>96.8</ele>
        <time>2026-08-24T11:12:22Z</time>
      </trkpt>
      <trkpt lat="49.21628" lon="3.95797">
        <ele>97</ele>
        <time>2026-08-24T11:12:23Z</time>
      </trkpt>
      <trkpt lat="49.21622" lon="3.95792">
        <ele>97</ele>
        <time>2026-08-24T11:12:24Z</time>
      </trkpt>
      <trkpt lat="49.21617" lon="3.95787">
        <ele>97</ele>
        <time>2026-08-24T11:12:25Z</time>
      </trkpt>
      <trkpt lat="49.21611" lon="3.95782">
        <ele>97</ele>
        <time>2026-08-24T11:12:26Z</time>
      </trkpt>
      <trkpt lat="49.21606" lon="3.95777">
        <ele>97</ele>
        <time>2026-08-24T11:12:27Z</time>
      </trkpt>
      <trkpt lat="49.216" lon="3.95772">
        <ele>97.2</ele>
        <time>2026-08-24T11:12:28Z</time>
      </trkpt>
      <trkpt lat="49.21595" lon="3.95767">
        <ele>97.2</ele>
        <time>2026-08-24T11:12:29Z</time>
      </trkpt>
      <trkpt lat="49.2159" lon="3.95762">
        <ele>97.2</ele>
        <time>2026-08-24T11:12:30Z</time>
      </trkpt>
      <trkpt lat="49.21584" lon="3.95757">
        <ele>97.4</ele>
        <time>2026-08-24T11:12:31Z</time>
      </trkpt>
      <trkpt lat="49.21579" lon="3.95753">
        <ele>97.6</ele>
        <time>2026-08-24T11:12:32Z</time>
      </trkpt>
      <trkpt lat="49.21574" lon="3.95748">
        <ele>97.6</ele>
        <time>2026-08-24T11:12:33Z</time>
      </trkpt>
      <trkpt lat="49.21568" lon="3.95743">
        <ele>97.8</ele>
        <time>2026-08-24T11:12:34Z</time>
      </trkpt>
      <trkpt lat="49.21563" lon="3.95738">
        <ele>98</ele>
        <time>2026-08-24T11:12:35Z</time>
      </trkpt>
      <trkpt lat="49.21558" lon="3.95732">
        <ele>98</ele>
        <time>2026-08-24T11:12:36Z</time>
      </trkpt>
      <trkpt lat="49.21552" lon="3.95727">
        <ele>98.2</ele>
        <time>2026-08-24T11:12:37Z</time>
      </trkpt>
      <trkpt lat="49.21547" lon="3.95722">
        <ele>98.2</ele>
        <time>2026-08-24T11:12:38Z</time>
      </trkpt>
      <trkpt lat="49.21542" lon="3.95717">
        <ele>98.2</ele>
        <time>2026-08-24T11:12:39Z</time>
      </trkpt>
      <trkpt lat="49.21536" lon="3.95713">
        <ele>98.4</ele>
        <time>2026-08-24T11:12:40Z</time>
      </trkpt>
      <trkpt lat="49.21531" lon="3.95708">
        <ele>98.4</ele>
        <time>2026-08-24T11:12:41Z</time>
      </trkpt>
      <trkpt lat="49.21526" lon="3.95703">
        <ele>98.6</ele>
        <time>2026-08-24T11:12:42Z</time>
      </trkpt>
      <trkpt lat="49.2152" lon="3.95697">
        <ele>98.8</ele>
        <time>2026-08-24T11:12:43Z</time>
      </trkpt>
      <trkpt lat="49.21515" lon="3.95692">
        <ele>98.8</ele>
        <time>2026-08-24T11:12:44Z</time>
      </trkpt>
      <trkpt lat="49.2151" lon="3.95687">
        <ele>99</ele>
        <time>2026-08-24T11:12:45Z</time>
      </trkpt>
      <trkpt lat="49.21504" lon="3.95682">
        <ele>99</ele>
        <time>2026-08-24T11:12:46Z</time>
      </trkpt>
      <trkpt lat="49.21499" lon="3.95677">
        <ele>99</ele>
        <time>2026-08-24T11:12:47Z</time>
      </trkpt>
      <trkpt lat="49.21494" lon="3.95672">
        <ele>99</ele>
        <time>2026-08-24T11:12:48Z</time>
      </trkpt>
      <trkpt lat="49.21488" lon="3.95667">
        <ele>99.2</ele>
        <time>2026-08-24T11:12:49Z</time>
      </trkpt>
      <trkpt lat="49.21483" lon="3.95662">
        <ele>99.2</ele>
        <time>2026-08-24T11:12:50Z</time>
      </trkpt>
      <trkpt lat="49.21477" lon="3.95657">
        <ele>99.4</ele>
        <time>2026-08-24T11:12:51Z</time>
      </trkpt>
      <trkpt lat="49.21472" lon="3.95651">
        <ele>99.4</ele>
        <time>2026-08-24T11:12:52Z</time>
      </trkpt>
      <trkpt lat="49.21466" lon="3.95646">
        <ele>99.6</ele>
        <time>2026-08-24T11:12:53Z</time>
      </trkpt>
      <trkpt lat="49.21461" lon="3.95641">
        <ele>99.8</ele>
        <time>2026-08-24T11:12:54Z</time>
      </trkpt>
      <trkpt lat="49.21456" lon="3.95635">
        <ele>100</ele>
        <time>2026-08-24T11:12:55Z</time>
      </trkpt>
      <trkpt lat="49.2145" lon="3.9563">
        <ele>100</ele>
        <time>2026-08-24T11:12:56Z</time>
      </trkpt>
      <trkpt lat="49.21445" lon="3.95624">
        <ele>100.2</ele>
        <time>2026-08-24T11:12:57Z</time>
      </trkpt>
      <trkpt lat="49.21441" lon="3.9562">
        <ele>100.2</ele>
        <time>2026-08-24T11:12:58Z</time>
      </trkpt>
      <trkpt lat="49.21437" lon="3.95616">
        <ele>100.2</ele>
        <time>2026-08-24T11:12:59Z</time>
      </trkpt>
      <trkpt lat="49.21434" lon="3.95612">
        <ele>100.4</ele>
        <time>2026-08-24T11:13:00Z</time>
      </trkpt>
      <trkpt lat="49.21431" lon="3.95608">
        <ele>100.6</ele>
        <time>2026-08-24T11:13:01Z</time>
      </trkpt>
      <trkpt lat="49.21428" lon="3.95604">
        <ele>100.8</ele>
        <time>2026-08-24T11:13:02Z</time>
      </trkpt>
      <trkpt lat="49.21425" lon="3.956">
        <ele>101</ele>
        <time>2026-08-24T11:13:03Z</time>
      </trkpt>
      <trkpt lat="49.21422" lon="3.95597">
        <ele>101</ele>
        <time>2026-08-24T11:13:04Z</time>
      </trkpt>
      <trkpt lat="49.21419" lon="3.95593">
        <ele>101.2</ele>
        <time>2026-08-24T11:13:05Z</time>
      </trkpt>
      <trkpt lat="49.21416" lon="3.95589">
        <ele>101.4</ele>
        <time>2026-08-24T11:13:06Z</time>
      </trkpt>
      <trkpt lat="49.21413" lon="3.95585">
        <ele>101.4</ele>
        <time>2026-08-24T11:13:07Z</time>
      </trkpt>
      <trkpt lat="49.2141" lon="3.95581">
        <ele>101.6</ele>
        <time>2026-08-24T11:13:08Z</time>
      </trkpt>
      <trkpt lat="49.21407" lon="3.95577">
        <ele>101.6</ele>
        <time>2026-08-24T11:13:09Z</time>
      </trkpt>
      <trkpt lat="49.21404" lon="3.95573">
        <ele>101.8</ele>
        <time>2026-08-24T11:13:10Z</time>
      </trkpt>
      <trkpt lat="49.21401" lon="3.95568">
        <ele>101.8</ele>
        <time>2026-08-24T11:13:11Z</time>
      </trkpt>
      <trkpt lat="49.21397" lon="3.95563">
        <ele>101.6</ele>
        <time>2026-08-24T11:13:12Z</time>
      </trkpt>
      <trkpt lat="49.21393" lon="3.95558">
        <ele>101.6</ele>
        <time>2026-08-24T11:13:13Z</time>
      </trkpt>
      <trkpt lat="49.2139" lon="3.95553">
        <ele>101.6</ele>
        <time>2026-08-24T11:13:14Z</time>
      </trkpt>
      <trkpt lat="49.21386" lon="3.95548">
        <ele>101.6</ele>
        <time>2026-08-24T11:13:15Z</time>
      </trkpt>
      <trkpt lat="49.21381" lon="3.95542">
        <ele>101.6</ele>
        <time>2026-08-24T11:13:16Z</time>
      </trkpt>
      <trkpt lat="49.21377" lon="3.95537">
        <ele>101.8</ele>
        <time>2026-08-24T11:13:17Z</time>
      </trkpt>
      <trkpt lat="49.21373" lon="3.95531">
        <ele>102</ele>
        <time>2026-08-24T11:13:18Z</time>
      </trkpt>
      <trkpt lat="49.21369" lon="3.95525">
        <ele>102</ele>
        <time>2026-08-24T11:13:19Z</time>
      </trkpt>
      <trkpt lat="49.21364" lon="3.95519">
        <ele>102</ele>
        <time>2026-08-24T11:13:20Z</time>
      </trkpt>
      <trkpt lat="49.2136" lon="3.95513">
        <ele>102</ele>
        <time>2026-08-24T11:13:21Z</time>
      </trkpt>
      <trkpt lat="49.21355" lon="3.95507">
        <ele>102</ele>
        <time>2026-08-24T11:13:22Z</time>
      </trkpt>
      <trkpt lat="49.2135" lon="3.95501">
        <ele>102</ele>
        <time>2026-08-24T11:13:23Z</time>
      </trkpt>
      <trkpt lat="49.21346" lon="3.95495">
        <ele>102.2</ele>
        <time>2026-08-24T11:13:24Z</time>
      </trkpt>
      <trkpt lat="49.21341" lon="3.95489">
        <ele>102.2</ele>
        <time>2026-08-24T11:13:25Z</time>
      </trkpt>
      <trkpt lat="49.21336" lon="3.95483">
        <ele>102</ele>
        <time>2026-08-24T11:13:26Z</time>
      </trkpt>
      <trkpt lat="49.21331" lon="3.95476">
        <ele>102</ele>
        <time>2026-08-24T11:13:27Z</time>
      </trkpt>
      <trkpt lat="49.21326" lon="3.9547">
        <ele>102</ele>
        <time>2026-08-24T11:13:28Z</time>
      </trkpt>
      <trkpt lat="49.21322" lon="3.95464">
        <ele>102.2</ele>
        <time>2026-08-24T11:13:29Z</time>
      </trkpt>
      <trkpt lat="49.21317" lon="3.95457">
        <ele>102.2</ele>
        <time>2026-08-24T11:13:30Z</time>
      </trkpt>
      <trkpt lat="49.21312" lon="3.95451">
        <ele>102.4</ele>
        <time>2026-08-24T11:13:31Z</time>
      </trkpt>
      <trkpt lat="49.21307" lon="3.95445">
        <ele>102.8</ele>
        <time>2026-08-24T11:13:32Z</time>
      </trkpt>
      <trkpt lat="49.21302" lon="3.95438">
        <ele>102.8</ele>
        <time>2026-08-24T11:13:33Z</time>
      </trkpt>
      <trkpt lat="49.21297" lon="3.95431">
        <ele>102.8</ele>
        <time>2026-08-24T11:13:34Z</time>
      </trkpt>
      <trkpt lat="49.21292" lon="3.95425">
        <ele>103</ele>
        <time>2026-08-24T11:13:35Z</time>
      </trkpt>
      <trkpt lat="49.21287" lon="3.95418">
        <ele>103</ele>
        <time>2026-08-24T11:13:36Z</time>
      </trkpt>
      <trkpt lat="49.21281" lon="3.95411">
        <ele>103</ele>
        <time>2026-08-24T11:13:37Z</time>
      </trkpt>
      <trkpt lat="49.21276" lon="3.95405">
        <ele>103</ele>
        <time>2026-08-24T11:13:38Z</time>
      </trkpt>
      <trkpt lat="49.21271" lon="3.95398">
        <ele>103.2</ele>
        <time>2026-08-24T11:13:39Z</time>
      </trkpt>
      <trkpt lat="49.21265" lon="3.95391">
        <ele>103.2</ele>
        <time>2026-08-24T11:13:40Z</time>
      </trkpt>
      <trkpt lat="49.2126" lon="3.95384">
        <ele>103.4</ele>
        <time>2026-08-24T11:13:41Z</time>
      </trkpt>
      <trkpt lat="49.21254" lon="3.95377">
        <ele>103.4</ele>
        <time>2026-08-24T11:13:42Z</time>
      </trkpt>
      <trkpt lat="49.21249" lon="3.9537">
        <ele>103.6</ele>
        <time>2026-08-24T11:13:43Z</time>
      </trkpt>
      <trkpt lat="49.21243" lon="3.95363">
        <ele>103.6</ele>
        <time>2026-08-24T11:13:44Z</time>
      </trkpt>
      <trkpt lat="49.21238" lon="3.95355">
        <ele>103.6</ele>
        <time>2026-08-24T11:13:45Z</time>
      </trkpt>
      <trkpt lat="49.21232" lon="3.95348">
        <ele>103.6</ele>
        <time>2026-08-24T11:13:46Z</time>
      </trkpt>
      <trkpt lat="49.21226" lon="3.95341">
        <ele>103.6</ele>
        <time>2026-08-24T11:13:47Z</time>
      </trkpt>
      <trkpt lat="49.21221" lon="3.95334">
        <ele>103.6</ele>
        <time>2026-08-24T11:13:48Z</time>
      </trkpt>
      <trkpt lat="49.21215" lon="3.95327">
        <ele>103.4</ele>
        <time>2026-08-24T11:13:49Z</time>
      </trkpt>
      <trkpt lat="49.21209" lon="3.95319">
        <ele>103.2</ele>
        <time>2026-08-24T11:13:50Z</time>
      </trkpt>
      <trkpt lat="49.21204" lon="3.95312">
        <ele>103</ele>
        <time>2026-08-24T11:13:51Z</time>
      </trkpt>
      <trkpt lat="49.21198" lon="3.95305">
        <ele>102.8</ele>
        <time>2026-08-24T11:13:52Z</time>
      </trkpt>
      <trkpt lat="49.21193" lon="3.95298">
        <ele>102.8</ele>
        <time>2026-08-24T11:13:53Z</time>
      </trkpt>
      <trkpt lat="49.21187" lon="3.95291">
        <ele>103</ele>
        <time>2026-08-24T11:13:54Z</time>
      </trkpt>
      <trkpt lat="49.21181" lon="3.95284">
        <ele>103.2</ele>
        <time>2026-08-24T11:13:55Z</time>
      </trkpt>
      <trkpt lat="49.21176" lon="3.95276">
        <ele>103.4</ele>
        <time>2026-08-24T11:13:56Z</time>
      </trkpt>
      <trkpt lat="49.2117" lon="3.95269">
        <ele>103.4</ele>
        <time>2026-08-24T11:13:57Z</time>
      </trkpt>
      <trkpt lat="49.21164" lon="3.95262">
        <ele>103.6</ele>
        <time>2026-08-24T11:13:58Z</time>
      </trkpt>
      <trkpt lat="49.21158" lon="3.95256">
        <ele>103.6</ele>
        <time>2026-08-24T11:13:59Z</time>
      </trkpt>
      <trkpt lat="49.21152" lon="3.95249">
        <ele>103.8</ele>
        <time>2026-08-24T11:14:00Z</time>
      </trkpt>
      <trkpt lat="49.21146" lon="3.95242">
        <ele>103.6</ele>
        <time>2026-08-24T11:14:01Z</time>
      </trkpt>
      <trkpt lat="49.2114" lon="3.95236">
        <ele>103.8</ele>
        <time>2026-08-24T11:14:02Z</time>
      </trkpt>
      <trkpt lat="49.21133" lon="3.9523">
        <ele>103.8</ele>
        <time>2026-08-24T11:14:03Z</time>
      </trkpt>
      <trkpt lat="49.21127" lon="3.95224">
        <ele>103.6</ele>
        <time>2026-08-24T11:14:04Z</time>
      </trkpt>
      <trkpt lat="49.21121" lon="3.95218">
        <ele>103.4</ele>
        <time>2026-08-24T11:14:05Z</time>
      </trkpt>
      <trkpt lat="49.21115" lon="3.95212">
        <ele>103.4</ele>
        <time>2026-08-24T11:14:06Z</time>
      </trkpt>
      <trkpt lat="49.21108" lon="3.95207">
        <ele>103.2</ele>
        <time>2026-08-24T11:14:07Z</time>
      </trkpt>
      <trkpt lat="49.21102" lon="3.95201">
        <ele>103.2</ele>
        <time>2026-08-24T11:14:08Z</time>
      </trkpt>
      <trkpt lat="49.21096" lon="3.95195">
        <ele>103.4</ele>
        <time>2026-08-24T11:14:09Z</time>
      </trkpt>
      <trkpt lat="49.2109" lon="3.95189">
        <ele>103.6</ele>
        <time>2026-08-24T11:14:10Z</time>
      </trkpt>
      <trkpt lat="49.21084" lon="3.95184">
        <ele>103.8</ele>
        <time>2026-08-24T11:14:11Z</time>
      </trkpt>
      <trkpt lat="49.21078" lon="3.95179">
        <ele>104</ele>
        <time>2026-08-24T11:14:12Z</time>
      </trkpt>
      <trkpt lat="49.21072" lon="3.95173">
        <ele>104.2</ele>
        <time>2026-08-24T11:14:13Z</time>
      </trkpt>
      <trkpt lat="49.21065" lon="3.95168">
        <ele>104.4</ele>
        <time>2026-08-24T11:14:14Z</time>
      </trkpt>
      <trkpt lat="49.2106" lon="3.95162">
        <ele>104.6</ele>
        <time>2026-08-24T11:14:15Z</time>
      </trkpt>
      <trkpt lat="49.21054" lon="3.95156">
        <ele>104.6</ele>
        <time>2026-08-24T11:14:16Z</time>
      </trkpt>
      <trkpt lat="49.21048" lon="3.9515">
        <ele>104.6</ele>
        <time>2026-08-24T11:14:17Z</time>
      </trkpt>
      <trkpt lat="49.21042" lon="3.95144">
        <ele>104.8</ele>
        <time>2026-08-24T11:14:18Z</time>
      </trkpt>
      <trkpt lat="49.21036" lon="3.95138">
        <ele>104.8</ele>
        <time>2026-08-24T11:14:19Z</time>
      </trkpt>
      <trkpt lat="49.2103" lon="3.95131">
        <ele>105</ele>
        <time>2026-08-24T11:14:20Z</time>
      </trkpt>
      <trkpt lat="49.21025" lon="3.95125">
        <ele>105.4</ele>
        <time>2026-08-24T11:14:21Z</time>
      </trkpt>
      <trkpt lat="49.21019" lon="3.95118">
        <ele>105.4</ele>
        <time>2026-08-24T11:14:22Z</time>
      </trkpt>
      <trkpt lat="49.21014" lon="3.95111">
        <ele>105.6</ele>
        <time>2026-08-24T11:14:23Z</time>
      </trkpt>
      <trkpt lat="49.21008" lon="3.95104">
        <ele>106</ele>
        <time>2026-08-24T11:14:24Z</time>
      </trkpt>
      <trkpt lat="49.21003" lon="3.95098">
        <ele>106.2</ele>
        <time>2026-08-24T11:14:25Z</time>
      </trkpt>
      <trkpt lat="49.20998" lon="3.95091">
        <ele>106.2</ele>
        <time>2026-08-24T11:14:26Z</time>
      </trkpt>
      <trkpt lat="49.20993" lon="3.95084">
        <ele>106.4</ele>
        <time>2026-08-24T11:14:27Z</time>
      </trkpt>
      <trkpt lat="49.20988" lon="3.95078">
        <ele>106.4</ele>
        <time>2026-08-24T11:14:28Z</time>
      </trkpt>
      <trkpt lat="49.20983" lon="3.95071">
        <ele>106.4</ele>
        <time>2026-08-24T11:14:29Z</time>
      </trkpt>
      <trkpt lat="49.20977" lon="3.95064">
        <ele>106.4</ele>
        <time>2026-08-24T11:14:30Z</time>
      </trkpt>
      <trkpt lat="49.20972" lon="3.95057">
        <ele>106.2</ele>
        <time>2026-08-24T11:14:31Z</time>
      </trkpt>
      <trkpt lat="49.20966" lon="3.9505">
        <ele>106.4</ele>
        <time>2026-08-24T11:14:32Z</time>
      </trkpt>
      <trkpt lat="49.20961" lon="3.95043">
        <ele>106.4</ele>
        <time>2026-08-24T11:14:33Z</time>
      </trkpt>
      <trkpt lat="49.20956" lon="3.95036">
        <ele>106.4</ele>
        <time>2026-08-24T11:14:34Z</time>
      </trkpt>
      <trkpt lat="49.20951" lon="3.95028">
        <ele>106.4</ele>
        <time>2026-08-24T11:14:35Z</time>
      </trkpt>
      <trkpt lat="49.20945" lon="3.9502">
        <ele>106.4</ele>
        <time>2026-08-24T11:14:36Z</time>
      </trkpt>
      <trkpt lat="49.2094" lon="3.95012">
        <ele>106.4</ele>
        <time>2026-08-24T11:14:37Z</time>
      </trkpt>
      <trkpt lat="49.20935" lon="3.95004">
        <ele>106.4</ele>
        <time>2026-08-24T11:14:38Z</time>
      </trkpt>
      <trkpt lat="49.2093" lon="3.94996">
        <ele>106.4</ele>
        <time>2026-08-24T11:14:39Z</time>
      </trkpt>
      <trkpt lat="49.20925" lon="3.94988">
        <ele>106.6</ele>
        <time>2026-08-24T11:14:40Z</time>
      </trkpt>
      <trkpt lat="49.2092" lon="3.9498">
        <ele>106.8</ele>
        <time>2026-08-24T11:14:41Z</time>
      </trkpt>
      <trkpt lat="49.20915" lon="3.94973">
        <ele>106.8</ele>
        <time>2026-08-24T11:14:42Z</time>
      </trkpt>
      <trkpt lat="49.20911" lon="3.94965">
        <ele>107.2</ele>
        <time>2026-08-24T11:14:43Z</time>
      </trkpt>
      <trkpt lat="49.20906" lon="3.94957">
        <ele>107.2</ele>
        <time>2026-08-24T11:14:44Z</time>
      </trkpt>
      <trkpt lat="49.20901" lon="3.9495">
        <ele>107.2</ele>
        <time>2026-08-24T11:14:45Z</time>
      </trkpt>
      <trkpt lat="49.20896" lon="3.94943">
        <ele>107.2</ele>
        <time>2026-08-24T11:14:46Z</time>
      </trkpt>
      <trkpt lat="49.20891" lon="3.94935">
        <ele>107.4</ele>
        <time>2026-08-24T11:14:47Z</time>
      </trkpt>
      <trkpt lat="49.20886" lon="3.94928">
        <ele>107.4</ele>
        <time>2026-08-24T11:14:48Z</time>
      </trkpt>
      <trkpt lat="49.20882" lon="3.94921">
        <ele>107.8</ele>
        <time>2026-08-24T11:14:49Z</time>
      </trkpt>
      <trkpt lat="49.20877" lon="3.94914">
        <ele>108</ele>
        <time>2026-08-24T11:14:50Z</time>
      </trkpt>
      <trkpt lat="49.20872" lon="3.94908">
        <ele>108.2</ele>
        <time>2026-08-24T11:14:51Z</time>
      </trkpt>
      <trkpt lat="49.20867" lon="3.94901">
        <ele>108.2</ele>
        <time>2026-08-24T11:14:52Z</time>
      </trkpt>
      <trkpt lat="49.20862" lon="3.94894">
        <ele>108.4</ele>
        <time>2026-08-24T11:14:53Z</time>
      </trkpt>
      <trkpt lat="49.20857" lon="3.94888">
        <ele>108.6</ele>
        <time>2026-08-24T11:14:54Z</time>
      </trkpt>
      <trkpt lat="49.20852" lon="3.94881">
        <ele>108.8</ele>
        <time>2026-08-24T11:14:55Z</time>
      </trkpt>
      <trkpt lat="49.20847" lon="3.94874">
        <ele>108.8</ele>
        <time>2026-08-24T11:14:56Z</time>
      </trkpt>
      <trkpt lat="49.20842" lon="3.94867">
        <ele>108.8</ele>
        <time>2026-08-24T11:14:57Z</time>
      </trkpt>
      <trkpt lat="49.20837" lon="3.9486">
        <ele>108.8</ele>
        <time>2026-08-24T11:14:58Z</time>
      </trkpt>
      <trkpt lat="49.20832" lon="3.94853">
        <ele>108.8</ele>
        <time>2026-08-24T11:14:59Z</time>
      </trkpt>
      <trkpt lat="49.20827" lon="3.94846">
        <ele>108.8</ele>
        <time>2026-08-24T11:15:00Z</time>
      </trkpt>
      <trkpt lat="49.20822" lon="3.94839">
        <ele>108.8</ele>
        <time>2026-08-24T11:15:01Z</time>
      </trkpt>
      <trkpt lat="49.20817" lon="3.94831">
        <ele>109</ele>
        <time>2026-08-24T11:15:02Z</time>
      </trkpt>
      <trkpt lat="49.20811" lon="3.94824">
        <ele>109</ele>
        <time>2026-08-24T11:15:03Z</time>
      </trkpt>
      <trkpt lat="49.20806" lon="3.94817">
        <ele>109.2</ele>
        <time>2026-08-24T11:15:04Z</time>
      </trkpt>
      <trkpt lat="49.20801" lon="3.94809">
        <ele>109.2</ele>
        <time>2026-08-24T11:15:05Z</time>
      </trkpt>
      <trkpt lat="49.20795" lon="3.94802">
        <ele>109.2</ele>
        <time>2026-08-24T11:15:06Z</time>
      </trkpt>
      <trkpt lat="49.2079" lon="3.94794">
        <ele>109.4</ele>
        <time>2026-08-24T11:15:07Z</time>
      </trkpt>
      <trkpt lat="49.20785" lon="3.94787">
        <ele>109.4</ele>
        <time>2026-08-24T11:15:08Z</time>
      </trkpt>
      <trkpt lat="49.2078" lon="3.94779">
        <ele>109.2</ele>
        <time>2026-08-24T11:15:09Z</time>
      </trkpt>
      <trkpt lat="49.20774" lon="3.94771">
        <ele>109.2</ele>
        <time>2026-08-24T11:15:10Z</time>
      </trkpt>
      <trkpt lat="49.20769" lon="3.94763">
        <ele>109.4</ele>
        <time>2026-08-24T11:15:11Z</time>
      </trkpt>
      <trkpt lat="49.20765" lon="3.94755">
        <ele>109.2</ele>
        <time>2026-08-24T11:15:12Z</time>
      </trkpt>
      <trkpt lat="49.2076" lon="3.94747">
        <ele>109.4</ele>
        <time>2026-08-24T11:15:13Z</time>
      </trkpt>
      <trkpt lat="49.20755" lon="3.94739">
        <ele>109.6</ele>
        <time>2026-08-24T11:15:14Z</time>
      </trkpt>
      <trkpt lat="49.20751" lon="3.94731">
        <ele>109.6</ele>
        <time>2026-08-24T11:15:15Z</time>
      </trkpt>
      <trkpt lat="49.20746" lon="3.94723">
        <ele>109.6</ele>
        <time>2026-08-24T11:15:16Z</time>
      </trkpt>
      <trkpt lat="49.20742" lon="3.94716">
        <ele>109.6</ele>
        <time>2026-08-24T11:15:17Z</time>
      </trkpt>
      <trkpt lat="49.20738" lon="3.94709">
        <ele>109.8</ele>
        <time>2026-08-24T11:15:18Z</time>
      </trkpt>
      <trkpt lat="49.20734" lon="3.94701">
        <ele>109.8</ele>
        <time>2026-08-24T11:15:19Z</time>
      </trkpt>
      <trkpt lat="49.2073" lon="3.94694">
        <ele>110</ele>
        <time>2026-08-24T11:15:20Z</time>
      </trkpt>
      <trkpt lat="49.20726" lon="3.94688">
        <ele>110</ele>
        <time>2026-08-24T11:15:21Z</time>
      </trkpt>
      <trkpt lat="49.20723" lon="3.94681">
        <ele>110.2</ele>
        <time>2026-08-24T11:15:22Z</time>
      </trkpt>
      <trkpt lat="49.2072" lon="3.94676">
        <ele>110.2</ele>
        <time>2026-08-24T11:15:23Z</time>
      </trkpt>
      <trkpt lat="49.20718" lon="3.9467">
        <ele>110.4</ele>
        <time>2026-08-24T11:15:24Z</time>
      </trkpt>
      <trkpt lat="49.20715" lon="3.94666">
        <ele>110.6</ele>
        <time>2026-08-24T11:15:25Z</time>
      </trkpt>
      <trkpt lat="49.20714" lon="3.94662">
        <ele>110.8</ele>
        <time>2026-08-24T11:15:26Z</time>
      </trkpt>
      <trkpt lat="49.20712" lon="3.94659">
        <ele>111</ele>
        <time>2026-08-24T11:15:27Z</time>
      </trkpt>
      <trkpt lat="49.20711" lon="3.94657">
        <ele>111</ele>
        <time>2026-08-24T11:15:28Z</time>
      </trkpt>
      <trkpt lat="49.2071" lon="3.94656">
        <ele>111.2</ele>
        <time>2026-08-24T11:15:29Z</time>
      </trkpt>
      <trkpt lat="49.2071" lon="3.94655">
        <ele>111.4</ele>
        <time>2026-08-24T11:15:30Z</time>
      </trkpt>
      <trkpt lat="49.2071" lon="3.94655">
        <ele>111.4</ele>
        <time>2026-08-24T11:15:31Z</time>
      </trkpt>
      <trkpt lat="49.20706" lon="3.9465">
        <ele>111.4</ele>
        <time>2026-08-24T11:15:34Z</time>
      </trkpt>
      <trkpt lat="49.20704" lon="3.9465">
        <ele>111.4</ele>
        <time>2026-08-24T11:15:35Z</time>
      </trkpt>
      <trkpt lat="49.20701" lon="3.94651">
        <ele>111.2</ele>
        <time>2026-08-24T11:15:36Z</time>
      </trkpt>
      <trkpt lat="49.20699" lon="3.94653">
        <ele>111.2</ele>
        <time>2026-08-24T11:15:37Z</time>
      </trkpt>
      <trkpt lat="49.20696" lon="3.94655">
        <ele>111.2</ele>
        <time>2026-08-24T11:15:38Z</time>
      </trkpt>
      <trkpt lat="49.20693" lon="3.94659">
        <ele>111</ele>
        <time>2026-08-24T11:15:39Z</time>
      </trkpt>
      <trkpt lat="49.2069" lon="3.94662">
        <ele>111</ele>
        <time>2026-08-24T11:15:40Z</time>
      </trkpt>
      <trkpt lat="49.20687" lon="3.94665">
        <ele>111</ele>
        <time>2026-08-24T11:15:41Z</time>
      </trkpt>
      <trkpt lat="49.20683" lon="3.94668">
        <ele>111</ele>
        <time>2026-08-24T11:15:42Z</time>
      </trkpt>
      <trkpt lat="49.2068" lon="3.94671">
        <ele>111</ele>
        <time>2026-08-24T11:15:43Z</time>
      </trkpt>
      <trkpt lat="49.20676" lon="3.94674">
        <ele>111</ele>
        <time>2026-08-24T11:15:44Z</time>
      </trkpt>
      <trkpt lat="49.20672" lon="3.94677">
        <ele>111</ele>
        <time>2026-08-24T11:15:45Z</time>
      </trkpt>
      <trkpt lat="49.20669" lon="3.9468">
        <ele>111.2</ele>
        <time>2026-08-24T11:15:46Z</time>
      </trkpt>
      <trkpt lat="49.20666" lon="3.94682">
        <ele>111.4</ele>
        <time>2026-08-24T11:15:47Z</time>
      </trkpt>
      <trkpt lat="49.20662" lon="3.94685">
        <ele>111.6</ele>
        <time>2026-08-24T11:15:48Z</time>
      </trkpt>
      <trkpt lat="49.20659" lon="3.94688">
        <ele>111.8</ele>
        <time>2026-08-24T11:15:49Z</time>
      </trkpt>
      <trkpt lat="49.20656" lon="3.94691">
        <ele>112</ele>
        <time>2026-08-24T11:15:50Z</time>
      </trkpt>
      <trkpt lat="49.20652" lon="3.94694">
        <ele>112.2</ele>
        <time>2026-08-24T11:15:51Z</time>
      </trkpt>
      <trkpt lat="49.20649" lon="3.94697">
        <ele>112.2</ele>
        <time>2026-08-24T11:15:52Z</time>
      </trkpt>
      <trkpt lat="49.20645" lon="3.947">
        <ele>112.2</ele>
        <time>2026-08-24T11:15:53Z</time>
      </trkpt>
      <trkpt lat="49.20641" lon="3.94703">
        <ele>112.4</ele>
        <time>2026-08-24T11:15:54Z</time>
      </trkpt>
      <trkpt lat="49.20637" lon="3.94707">
        <ele>112.6</ele>
        <time>2026-08-24T11:15:55Z</time>
      </trkpt>
      <trkpt lat="49.20633" lon="3.94711">
        <ele>112.6</ele>
        <time>2026-08-24T11:15:56Z</time>
      </trkpt>
      <trkpt lat="49.20629" lon="3.94714">
        <ele>112.6</ele>
        <time>2026-08-24T11:15:57Z</time>
      </trkpt>
      <trkpt lat="49.20624" lon="3.94718">
        <ele>112.6</ele>
        <time>2026-08-24T11:15:58Z</time>
      </trkpt>
      <trkpt lat="49.2062" lon="3.94721">
        <ele>112.6</ele>
        <time>2026-08-24T11:15:59Z</time>
      </trkpt>
      <trkpt lat="49.20616" lon="3.94725">
        <ele>112.6</ele>
        <time>2026-08-24T11:16:00Z</time>
      </trkpt>
      <trkpt lat="49.20612" lon="3.94728">
        <ele>112.6</ele>
        <time>2026-08-24T11:16:01Z</time>
      </trkpt>
      <trkpt lat="49.20608" lon="3.94732">
        <ele>112.6</ele>
        <time>2026-08-24T11:16:02Z</time>
      </trkpt>
      <trkpt lat="49.20604" lon="3.94736">
        <ele>112.8</ele>
        <time>2026-08-24T11:16:03Z</time>
      </trkpt>
      <trkpt lat="49.206" lon="3.94739">
        <ele>113</ele>
        <time>2026-08-24T11:16:04Z</time>
      </trkpt>
      <trkpt lat="49.20596" lon="3.94743">
        <ele>113.2</ele>
        <time>2026-08-24T11:16:05Z</time>
      </trkpt>
      <trkpt lat="49.20592" lon="3.94746">
        <ele>113.4</ele>
        <time>2026-08-24T11:16:06Z</time>
      </trkpt>
      <trkpt lat="49.20588" lon="3.9475">
        <ele>113.6</ele>
        <time>2026-08-24T11:16:07Z</time>
      </trkpt>
      <trkpt lat="49.20584" lon="3.94753">
        <ele>114</ele>
        <time>2026-08-24T11:16:08Z</time>
      </trkpt>
      <trkpt lat="49.2058" lon="3.94756">
        <ele>114.2</ele>
        <time>2026-08-24T11:16:09Z</time>
      </trkpt>
      <trkpt lat="49.20576" lon="3.94758">
        <ele>114.4</ele>
        <time>2026-08-24T11:16:10Z</time>
      </trkpt>
      <trkpt lat="49.20571" lon="3.94761">
        <ele>114.6</ele>
        <time>2026-08-24T11:16:11Z</time>
      </trkpt>
      <trkpt lat="49.20567" lon="3.94764">
        <ele>114.8</ele>
        <time>2026-08-24T11:16:12Z</time>
      </trkpt>
      <trkpt lat="49.20563" lon="3.94767">
        <ele>115</ele>
        <time>2026-08-24T11:16:13Z</time>
      </trkpt>
      <trkpt lat="49.20559" lon="3.94769">
        <ele>115.2</ele>
        <time>2026-08-24T11:16:14Z</time>
      </trkpt>
      <trkpt lat="49.20554" lon="3.94771">
        <ele>115.4</ele>
        <time>2026-08-24T11:16:15Z</time>
      </trkpt>
      <trkpt lat="49.2055" lon="3.94774">
        <ele>115.4</ele>
        <time>2026-08-24T11:16:16Z</time>
      </trkpt>
      <trkpt lat="49.20546" lon="3.94776">
        <ele>115.6</ele>
        <time>2026-08-24T11:16:17Z</time>
      </trkpt>
      <trkpt lat="49.20542" lon="3.94778">
        <ele>115.6</ele>
        <time>2026-08-24T11:16:18Z</time>
      </trkpt>
      <trkpt lat="49.20538" lon="3.9478">
        <ele>115.8</ele>
        <time>2026-08-24T11:16:19Z</time>
      </trkpt>
      <trkpt lat="49.20534" lon="3.94781">
        <ele>116</ele>
        <time>2026-08-24T11:16:20Z</time>
      </trkpt>
      <trkpt lat="49.2053" lon="3.94783">
        <ele>116.4</ele>
        <time>2026-08-24T11:16:21Z</time>
      </trkpt>
      <trkpt lat="49.20525" lon="3.94785">
        <ele>116.6</ele>
        <time>2026-08-24T11:16:22Z</time>
      </trkpt>
      <trkpt lat="49.20521" lon="3.94787">
        <ele>117</ele>
        <time>2026-08-24T11:16:23Z</time>
      </trkpt>
      <trkpt lat="49.20517" lon="3.94789">
        <ele>117.4</ele>
        <time>2026-08-24T11:16:24Z</time>
      </trkpt>
      <trkpt lat="49.20513" lon="3.9479">
        <ele>117.6</ele>
        <time>2026-08-24T11:16:25Z</time>
      </trkpt>
      <trkpt lat="49.20509" lon="3.94792">
        <ele>117.8</ele>
        <time>2026-08-24T11:16:26Z</time>
      </trkpt>
      <trkpt lat="49.20505" lon="3.94794">
        <ele>118.2</ele>
        <time>2026-08-24T11:16:27Z</time>
      </trkpt>
      <trkpt lat="49.20501" lon="3.94796">
        <ele>118.4</ele>
        <time>2026-08-24T11:16:28Z</time>
      </trkpt>
      <trkpt lat="49.20497" lon="3.94798">
        <ele>118.8</ele>
        <time>2026-08-24T11:16:29Z</time>
      </trkpt>
      <trkpt lat="49.20493" lon="3.94799">
        <ele>119</ele>
        <time>2026-08-24T11:16:30Z</time>
      </trkpt>
      <trkpt lat="49.20489" lon="3.94801">
        <ele>119.4</ele>
        <time>2026-08-24T11:16:31Z</time>
      </trkpt>
      <trkpt lat="49.20485" lon="3.94803">
        <ele>119.6</ele>
        <time>2026-08-24T11:16:32Z</time>
      </trkpt>
      <trkpt lat="49.20481" lon="3.94804">
        <ele>119.8</ele>
        <time>2026-08-24T11:16:33Z</time>
      </trkpt>
      <trkpt lat="49.20478" lon="3.94805">
        <ele>120</ele>
        <time>2026-08-24T11:16:34Z</time>
      </trkpt>
      <trkpt lat="49.20474" lon="3.94807">
        <ele>120.2</ele>
        <time>2026-08-24T11:16:35Z</time>
      </trkpt>
      <trkpt lat="49.2047" lon="3.94808">
        <ele>120.4</ele>
        <time>2026-08-24T11:16:36Z</time>
      </trkpt>
      <trkpt lat="49.20467" lon="3.94809">
        <ele>120.6</ele>
        <time>2026-08-24T11:16:37Z</time>
      </trkpt>
      <trkpt lat="49.20463" lon="3.94811">
        <ele>121</ele>
        <time>2026-08-24T11:16:38Z</time>
      </trkpt>
      <trkpt lat="49.2046" lon="3.94812">
        <ele>121.2</ele>
        <time>2026-08-24T11:16:39Z</time>
      </trkpt>
      <trkpt lat="49.20456" lon="3.94814">
        <ele>121.6</ele>
        <time>2026-08-24T11:16:40Z</time>
      </trkpt>
      <trkpt lat="49.20453" lon="3.94815">
        <ele>121.8</ele>
        <time>2026-08-24T11:16:41Z</time>
      </trkpt>
      <trkpt lat="49.20449" lon="3.94817">
        <ele>122.2</ele>
        <time>2026-08-24T11:16:42Z</time>
      </trkpt>
      <trkpt lat="49.20446" lon="3.94818">
        <ele>122.4</ele>
        <time>2026-08-24T11:16:43Z</time>
      </trkpt>
      <trkpt lat="49.20443" lon="3.9482">
        <ele>122.6</ele>
        <time>2026-08-24T11:16:44Z</time>
      </trkpt>
      <trkpt lat="49.20439" lon="3.94821">
        <ele>122.6</ele>
        <time>2026-08-24T11:16:45Z</time>
      </trkpt>
      <trkpt lat="49.20436" lon="3.94823">
        <ele>122.6</ele>
        <time>2026-08-24T11:16:46Z</time>
      </trkpt>
      <trkpt lat="49.20432" lon="3.94825">
        <ele>123</ele>
        <time>2026-08-24T11:16:47Z</time>
      </trkpt>
      <trkpt lat="49.20429" lon="3.94826">
        <ele>123</ele>
        <time>2026-08-24T11:16:48Z</time>
      </trkpt>
      <trkpt lat="49.20426" lon="3.94828">
        <ele>123.2</ele>
        <time>2026-08-24T11:16:49Z</time>
      </trkpt>
      <trkpt lat="49.20422" lon="3.94829">
        <ele>123.6</ele>
        <time>2026-08-24T11:16:50Z</time>
      </trkpt>
      <trkpt lat="49.20419" lon="3.94831">
        <ele>124</ele>
        <time>2026-08-24T11:16:51Z</time>
      </trkpt>
      <trkpt lat="49.20416" lon="3.94833">
        <ele>124</ele>
        <time>2026-08-24T11:16:52Z</time>
      </trkpt>
      <trkpt lat="49.20412" lon="3.94834">
        <ele>124.2</ele>
        <time>2026-08-24T11:16:53Z</time>
      </trkpt>
      <trkpt lat="49.20409" lon="3.94836">
        <ele>124.4</ele>
        <time>2026-08-24T11:16:54Z</time>
      </trkpt>
      <trkpt lat="49.20406" lon="3.94837">
        <ele>124.4</ele>
        <time>2026-08-24T11:16:55Z</time>
      </trkpt>
      <trkpt lat="49.20402" lon="3.94839">
        <ele>124.6</ele>
        <time>2026-08-24T11:16:56Z</time>
      </trkpt>
      <trkpt lat="49.20399" lon="3.9484">
        <ele>125</ele>
        <time>2026-08-24T11:16:57Z</time>
      </trkpt>
      <trkpt lat="49.20396" lon="3.94841">
        <ele>125.4</ele>
        <time>2026-08-24T11:16:58Z</time>
      </trkpt>
      <trkpt lat="49.20392" lon="3.94843">
        <ele>125.6</ele>
        <time>2026-08-24T11:16:59Z</time>
      </trkpt>
      <trkpt lat="49.20389" lon="3.94845">
        <ele>125.8</ele>
        <time>2026-08-24T11:17:00Z</time>
      </trkpt>
      <trkpt lat="49.20385" lon="3.94847">
        <ele>126</ele>
        <time>2026-08-24T11:17:01Z</time>
      </trkpt>
      <trkpt lat="49.20382" lon="3.94849">
        <ele>126</ele>
        <time>2026-08-24T11:17:02Z</time>
      </trkpt>
      <trkpt lat="49.20378" lon="3.9485">
        <ele>126.2</ele>
        <time>2026-08-24T11:17:03Z</time>
      </trkpt>
      <trkpt lat="49.20375" lon="3.94852">
        <ele>126.4</ele>
        <time>2026-08-24T11:17:04Z</time>
      </trkpt>
      <trkpt lat="49.20371" lon="3.94854">
        <ele>126.6</ele>
        <time>2026-08-24T11:17:05Z</time>
      </trkpt>
      <trkpt lat="49.20367" lon="3.94856">
        <ele>126.6</ele>
        <time>2026-08-24T11:17:06Z</time>
      </trkpt>
      <trkpt lat="49.20364" lon="3.94858">
        <ele>126.6</ele>
        <time>2026-08-24T11:17:07Z</time>
      </trkpt>
      <trkpt lat="49.2036" lon="3.94861">
        <ele>126.6</ele>
        <time>2026-08-24T11:17:08Z</time>
      </trkpt>
      <trkpt lat="49.20357" lon="3.94863">
        <ele>126.6</ele>
        <time>2026-08-24T11:17:09Z</time>
      </trkpt>
      <trkpt lat="49.20353" lon="3.94866">
        <ele>126.6</ele>
        <time>2026-08-24T11:17:10Z</time>
      </trkpt>
      <trkpt lat="49.20349" lon="3.94868">
        <ele>126.8</ele>
        <time>2026-08-24T11:17:11Z</time>
      </trkpt>
      <trkpt lat="49.20345" lon="3.94871">
        <ele>126.8</ele>
        <time>2026-08-24T11:17:12Z</time>
      </trkpt>
      <trkpt lat="49.20342" lon="3.94874">
        <ele>127</ele>
        <time>2026-08-24T11:17:13Z</time>
      </trkpt>
      <trkpt lat="49.20338" lon="3.94877">
        <ele>127.2</ele>
        <time>2026-08-24T11:17:14Z</time>
      </trkpt>
      <trkpt lat="49.20334" lon="3.9488">
        <ele>127.4</ele>
        <time>2026-08-24T11:17:15Z</time>
      </trkpt>
      <trkpt lat="49.2033" lon="3.94884">
        <ele>127.4</ele>
        <time>2026-08-24T11:17:16Z</time>
      </trkpt>
      <trkpt lat="49.20325" lon="3.94887">
        <ele>127.4</ele>
        <time>2026-08-24T11:17:17Z</time>
      </trkpt>
      <trkpt lat="49.20321" lon="3.94891">
        <ele>127.4</ele>
        <time>2026-08-24T11:17:18Z</time>
      </trkpt>
      <trkpt lat="49.20317" lon="3.94895">
        <ele>127.4</ele>
        <time>2026-08-24T11:17:19Z</time>
      </trkpt>
      <trkpt lat="49.20312" lon="3.94899">
        <ele>127.2</ele>
        <time>2026-08-24T11:17:20Z</time>
      </trkpt>
      <trkpt lat="49.20307" lon="3.94903">
        <ele>127.2</ele>
        <time>2026-08-24T11:17:21Z</time>
      </trkpt>
      <trkpt lat="49.20302" lon="3.94907">
        <ele>127</ele>
        <time>2026-08-24T11:17:22Z</time>
      </trkpt>
      <trkpt lat="49.20297" lon="3.94911">
        <ele>126.8</ele>
        <time>2026-08-24T11:17:23Z</time>
      </trkpt>
      <trkpt lat="49.20292" lon="3.94915">
        <ele>126.6</ele>
        <time>2026-08-24T11:17:24Z</time>
      </trkpt>
      <trkpt lat="49.20287" lon="3.9492">
        <ele>126.6</ele>
        <time>2026-08-24T11:17:25Z</time>
      </trkpt>
      <trkpt lat="49.20281" lon="3.94924">
        <ele>126.4</ele>
        <time>2026-08-24T11:17:26Z</time>
      </trkpt>
      <trkpt lat="49.20276" lon="3.94928">
        <ele>126.2</ele>
        <time>2026-08-24T11:17:27Z</time>
      </trkpt>
      <trkpt lat="49.2027" lon="3.94933">
        <ele>126.2</ele>
        <time>2026-08-24T11:17:28Z</time>
      </trkpt>
      <trkpt lat="49.20264" lon="3.94937">
        <ele>126</ele>
        <time>2026-08-24T11:17:29Z</time>
      </trkpt>
      <trkpt lat="49.20258" lon="3.94942">
        <ele>125.6</ele>
        <time>2026-08-24T11:17:30Z</time>
      </trkpt>
      <trkpt lat="49.20252" lon="3.94946">
        <ele>125.4</ele>
        <time>2026-08-24T11:17:31Z</time>
      </trkpt>
      <trkpt lat="49.20245" lon="3.94949">
        <ele>125.4</ele>
        <time>2026-08-24T11:17:32Z</time>
      </trkpt>
      <trkpt lat="49.20238" lon="3.94953">
        <ele>125.2</ele>
        <time>2026-08-24T11:17:33Z</time>
      </trkpt>
      <trkpt lat="49.20232" lon="3.94956">
        <ele>125.2</ele>
        <time>2026-08-24T11:17:34Z</time>
      </trkpt>
      <trkpt lat="49.20224" lon="3.94959">
        <ele>125.2</ele>
        <time>2026-08-24T11:17:35Z</time>
      </trkpt>
      <trkpt lat="49.20217" lon="3.94963">
        <ele>125.2</ele>
        <time>2026-08-24T11:17:36Z</time>
      </trkpt>
      <trkpt lat="49.2021" lon="3.94966">
        <ele>125</ele>
        <time>2026-08-24T11:17:37Z</time>
      </trkpt>
      <trkpt lat="49.20202" lon="3.94969">
        <ele>124.6</ele>
        <time>2026-08-24T11:17:38Z</time>
      </trkpt>
      <trkpt lat="49.20195" lon="3.94972">
        <ele>124.4</ele>
        <time>2026-08-24T11:17:39Z</time>
      </trkpt>
      <trkpt lat="49.20187" lon="3.94975">
        <ele>124</ele>
        <time>2026-08-24T11:17:40Z</time>
      </trkpt>
      <trkpt lat="49.20179" lon="3.94978">
        <ele>123.6</ele>
        <time>2026-08-24T11:17:41Z</time>
      </trkpt>
      <trkpt lat="49.20171" lon="3.94981">
        <ele>123.2</ele>
        <time>2026-08-24T11:17:42Z</time>
      </trkpt>
      <trkpt lat="49.20163" lon="3.94985">
        <ele>123</ele>
        <time>2026-08-24T11:17:43Z</time>
      </trkpt>
      <trkpt lat="49.20156" lon="3.94988">
        <ele>122.8</ele>
        <time>2026-08-24T11:17:44Z</time>
      </trkpt>
      <trkpt lat="49.20148" lon="3.94992">
        <ele>122.6</ele>
        <time>2026-08-24T11:17:45Z</time>
      </trkpt>
      <trkpt lat="49.2014" lon="3.94996">
        <ele>122.2</ele>
        <time>2026-08-24T11:17:46Z</time>
      </trkpt>
      <trkpt lat="49.20132" lon="3.95001">
        <ele>121.8</ele>
        <time>2026-08-24T11:17:47Z</time>
      </trkpt>
      <trkpt lat="49.20124" lon="3.95005">
        <ele>121.2</ele>
        <time>2026-08-24T11:17:48Z</time>
      </trkpt>
      <trkpt lat="49.20116" lon="3.9501">
        <ele>120.8</ele>
        <time>2026-08-24T11:17:49Z</time>
      </trkpt>
      <trkpt lat="49.20108" lon="3.95014">
        <ele>120.4</ele>
        <time>2026-08-24T11:17:50Z</time>
      </trkpt>
      <trkpt lat="49.201" lon="3.95019">
        <ele>120.2</ele>
        <time>2026-08-24T11:17:51Z</time>
      </trkpt>
      <trkpt lat="49.20092" lon="3.95024">
        <ele>120.2</ele>
        <time>2026-08-24T11:17:52Z</time>
      </trkpt>
      <trkpt lat="49.20084" lon="3.95029">
        <ele>120</ele>
        <time>2026-08-24T11:17:53Z</time>
      </trkpt>
      <trkpt lat="49.20076" lon="3.95034">
        <ele>119.8</ele>
        <time>2026-08-24T11:17:54Z</time>
      </trkpt>
      <trkpt lat="49.20068" lon="3.95039">
        <ele>119.8</ele>
        <time>2026-08-24T11:17:55Z</time>
      </trkpt>
      <trkpt lat="49.2006" lon="3.95044">
        <ele>119.8</ele>
        <time>2026-08-24T11:17:56Z</time>
      </trkpt>
      <trkpt lat="49.20052" lon="3.95049">
        <ele>119.4</ele>
        <time>2026-08-24T11:17:57Z</time>
      </trkpt>
      <trkpt lat="49.20044" lon="3.95054">
        <ele>119.2</ele>
        <time>2026-08-24T11:17:58Z</time>
      </trkpt>
      <trkpt lat="49.20036" lon="3.95059">
        <ele>119</ele>
        <time>2026-08-24T11:17:59Z</time>
      </trkpt>
      <trkpt lat="49.20028" lon="3.95064">
        <ele>118.6</ele>
        <time>2026-08-24T11:18:00Z</time>
      </trkpt>
      <trkpt lat="49.2002" lon="3.95069">
        <ele>118.4</ele>
        <time>2026-08-24T11:18:01Z</time>
      </trkpt>
      <trkpt lat="49.20012" lon="3.95074">
        <ele>118.2</ele>
        <time>2026-08-24T11:18:02Z</time>
      </trkpt>
      <trkpt lat="49.20004" lon="3.95079">
        <ele>118</ele>
        <time>2026-08-24T11:18:03Z</time>
      </trkpt>
      <trkpt lat="49.19996" lon="3.95084">
        <ele>117.8</ele>
        <time>2026-08-24T11:18:04Z</time>
      </trkpt>
      <trkpt lat="49.19988" lon="3.95089">
        <ele>117.6</ele>
        <time>2026-08-24T11:18:05Z</time>
      </trkpt>
      <trkpt lat="49.19981" lon="3.95093">
        <ele>117.6</ele>
        <time>2026-08-24T11:18:06Z</time>
      </trkpt>
      <trkpt lat="49.19973" lon="3.95098">
        <ele>117.6</ele>
        <time>2026-08-24T11:18:07Z</time>
      </trkpt>
      <trkpt lat="49.19965" lon="3.95103">
        <ele>117.6</ele>
        <time>2026-08-24T11:18:08Z</time>
      </trkpt>
      <trkpt lat="49.19958" lon="3.95108">
        <ele>117.8</ele>
        <time>2026-08-24T11:18:09Z</time>
      </trkpt>
      <trkpt lat="49.19951" lon="3.95112">
        <ele>117.8</ele>
        <time>2026-08-24T11:18:10Z</time>
      </trkpt>
      <trkpt lat="49.19943" lon="3.95117">
        <ele>118</ele>
        <time>2026-08-24T11:18:11Z</time>
      </trkpt>
      <trkpt lat="49.19935" lon="3.95122">
        <ele>118.2</ele>
        <time>2026-08-24T11:18:12Z</time>
      </trkpt>
      <trkpt lat="49.19928" lon="3.95126">
        <ele>118.2</ele>
        <time>2026-08-24T11:18:13Z</time>
      </trkpt>
      <trkpt lat="49.1992" lon="3.95131">
        <ele>118.2</ele>
        <time>2026-08-24T11:18:14Z</time>
      </trkpt>
      <trkpt lat="49.19913" lon="3.95136">
        <ele>118.2</ele>
        <time>2026-08-24T11:18:15Z</time>
      </trkpt>
      <trkpt lat="49.19906" lon="3.9514">
        <ele>118.2</ele>
        <time>2026-08-24T11:18:16Z</time>
      </trkpt>
      <trkpt lat="49.19898" lon="3.95145">
        <ele>118.2</ele>
        <time>2026-08-24T11:18:17Z</time>
      </trkpt>
      <trkpt lat="49.19892" lon="3.95149">
        <ele>118.2</ele>
        <time>2026-08-24T11:18:18Z</time>
      </trkpt>
      <trkpt lat="49.19885" lon="3.95153">
        <ele>118.4</ele>
        <time>2026-08-24T11:18:19Z</time>
      </trkpt>
      <trkpt lat="49.19879" lon="3.95157">
        <ele>118.6</ele>
        <time>2026-08-24T11:18:20Z</time>
      </trkpt>
      <trkpt lat="49.19872" lon="3.95162">
        <ele>118.8</ele>
        <time>2026-08-24T11:18:21Z</time>
      </trkpt>
      <trkpt lat="49.19866" lon="3.95165">
        <ele>119</ele>
        <time>2026-08-24T11:18:22Z</time>
      </trkpt>
      <trkpt lat="49.1986" lon="3.95169">
        <ele>119.2</ele>
        <time>2026-08-24T11:18:23Z</time>
      </trkpt>
      <trkpt lat="49.19854" lon="3.95173">
        <ele>119.4</ele>
        <time>2026-08-24T11:18:24Z</time>
      </trkpt>
      <trkpt lat="49.19847" lon="3.95177">
        <ele>119.4</ele>
        <time>2026-08-24T11:18:25Z</time>
      </trkpt>
      <trkpt lat="49.19841" lon="3.95181">
        <ele>119.4</ele>
        <time>2026-08-24T11:18:26Z</time>
      </trkpt>
      <trkpt lat="49.19835" lon="3.95185">
        <ele>119.4</ele>
        <time>2026-08-24T11:18:27Z</time>
      </trkpt>
      <trkpt lat="49.19828" lon="3.95189">
        <ele>119.4</ele>
        <time>2026-08-24T11:18:28Z</time>
      </trkpt>
      <trkpt lat="49.19822" lon="3.95192">
        <ele>119.4</ele>
        <time>2026-08-24T11:18:29Z</time>
      </trkpt>
      <trkpt lat="49.19815" lon="3.95196">
        <ele>119.6</ele>
        <time>2026-08-24T11:18:30Z</time>
      </trkpt>
      <trkpt lat="49.19809" lon="3.952">
        <ele>119.6</ele>
        <time>2026-08-24T11:18:31Z</time>
      </trkpt>
      <trkpt lat="49.19802" lon="3.95204">
        <ele>119.6</ele>
        <time>2026-08-24T11:18:32Z</time>
      </trkpt>
      <trkpt lat="49.19796" lon="3.95209">
        <ele>119.6</ele>
        <time>2026-08-24T11:18:33Z</time>
      </trkpt>
      <trkpt lat="49.19791" lon="3.95214">
        <ele>119.8</ele>
        <time>2026-08-24T11:18:34Z</time>
      </trkpt>
      <trkpt lat="49.19785" lon="3.9522">
        <ele>120</ele>
        <time>2026-08-24T11:18:35Z</time>
      </trkpt>
      <trkpt lat="49.1978" lon="3.95225">
        <ele>120.2</ele>
        <time>2026-08-24T11:18:36Z</time>
      </trkpt>
      <trkpt lat="49.19775" lon="3.95231">
        <ele>120.4</ele>
        <time>2026-08-24T11:18:37Z</time>
      </trkpt>
      <trkpt lat="49.1977" lon="3.95237">
        <ele>120.8</ele>
        <time>2026-08-24T11:18:38Z</time>
      </trkpt>
      <trkpt lat="49.19765" lon="3.95242">
        <ele>121</ele>
        <time>2026-08-24T11:18:39Z</time>
      </trkpt>
      <trkpt lat="49.19761" lon="3.95246">
        <ele>121.4</ele>
        <time>2026-08-24T11:18:40Z</time>
      </trkpt>
      <trkpt lat="49.19756" lon="3.95251">
        <ele>121.8</ele>
        <time>2026-08-24T11:18:41Z</time>
      </trkpt>
      <trkpt lat="49.19752" lon="3.95255">
        <ele>122</ele>
        <time>2026-08-24T11:18:42Z</time>
      </trkpt>
      <trkpt lat="49.19747" lon="3.95258">
        <ele>122.2</ele>
        <time>2026-08-24T11:18:43Z</time>
      </trkpt>
      <trkpt lat="49.19742" lon="3.95261">
        <ele>122.2</ele>
        <time>2026-08-24T11:18:44Z</time>
      </trkpt>
      <trkpt lat="49.19738" lon="3.95264">
        <ele>122.2</ele>
        <time>2026-08-24T11:18:45Z</time>
      </trkpt>
      <trkpt lat="49.19733" lon="3.95268">
        <ele>122.4</ele>
        <time>2026-08-24T11:18:46Z</time>
      </trkpt>
      <trkpt lat="49.19728" lon="3.95271">
        <ele>122.4</ele>
        <time>2026-08-24T11:18:47Z</time>
      </trkpt>
      <trkpt lat="49.19723" lon="3.95274">
        <ele>122.4</ele>
        <time>2026-08-24T11:18:48Z</time>
      </trkpt>
      <trkpt lat="49.19718" lon="3.95278">
        <ele>122.4</ele>
        <time>2026-08-24T11:18:49Z</time>
      </trkpt>
      <trkpt lat="49.19713" lon="3.95282">
        <ele>122.4</ele>
        <time>2026-08-24T11:18:50Z</time>
      </trkpt>
      <trkpt lat="49.19707" lon="3.95286">
        <ele>122.2</ele>
        <time>2026-08-24T11:18:51Z</time>
      </trkpt>
      <trkpt lat="49.19701" lon="3.9529">
        <ele>122</ele>
        <time>2026-08-24T11:18:52Z</time>
      </trkpt>
      <trkpt lat="49.19695" lon="3.95295">
        <ele>121.8</ele>
        <time>2026-08-24T11:18:53Z</time>
      </trkpt>
      <trkpt lat="49.19689" lon="3.953">
        <ele>121.8</ele>
        <time>2026-08-24T11:18:54Z</time>
      </trkpt>
      <trkpt lat="49.19683" lon="3.95305">
        <ele>121.4</ele>
        <time>2026-08-24T11:18:55Z</time>
      </trkpt>
      <trkpt lat="49.19677" lon="3.95311">
        <ele>121.2</ele>
        <time>2026-08-24T11:18:56Z</time>
      </trkpt>
      <trkpt lat="49.19671" lon="3.95317">
        <ele>121</ele>
        <time>2026-08-24T11:18:57Z</time>
      </trkpt>
      <trkpt lat="49.19665" lon="3.95324">
        <ele>120.6</ele>
        <time>2026-08-24T11:18:58Z</time>
      </trkpt>
      <trkpt lat="49.19659" lon="3.95331">
        <ele>120.4</ele>
        <time>2026-08-24T11:18:59Z</time>
      </trkpt>
      <trkpt lat="49.19653" lon="3.9534">
        <ele>120.2</ele>
        <time>2026-08-24T11:19:00Z</time>
      </trkpt>
      <trkpt lat="49.19648" lon="3.95348">
        <ele>119.8</ele>
        <time>2026-08-24T11:19:01Z</time>
      </trkpt>
      <trkpt lat="49.19642" lon="3.95357">
        <ele>119.6</ele>
        <time>2026-08-24T11:19:02Z</time>
      </trkpt>
      <trkpt lat="49.19636" lon="3.95366">
        <ele>119.2</ele>
        <time>2026-08-24T11:19:03Z</time>
      </trkpt>
      <trkpt lat="49.1963" lon="3.95375">
        <ele>118.6</ele>
        <time>2026-08-24T11:19:04Z</time>
      </trkpt>
      <trkpt lat="49.19624" lon="3.95384">
        <ele>118.2</ele>
        <time>2026-08-24T11:19:05Z</time>
      </trkpt>
      <trkpt lat="49.19618" lon="3.95393">
        <ele>117.8</ele>
        <time>2026-08-24T11:19:06Z</time>
      </trkpt>
      <trkpt lat="49.19612" lon="3.95403">
        <ele>117.4</ele>
        <time>2026-08-24T11:19:07Z</time>
      </trkpt>
      <trkpt lat="49.19606" lon="3.95412">
        <ele>117.2</ele>
        <time>2026-08-24T11:19:08Z</time>
      </trkpt>
      <trkpt lat="49.19601" lon="3.95421">
        <ele>117</ele>
        <time>2026-08-24T11:19:09Z</time>
      </trkpt>
      <trkpt lat="49.19595" lon="3.95431">
        <ele>116.6</ele>
        <time>2026-08-24T11:19:10Z</time>
      </trkpt>
      <trkpt lat="49.19589" lon="3.9544">
        <ele>116.6</ele>
        <time>2026-08-24T11:19:11Z</time>
      </trkpt>
      <trkpt lat="49.19583" lon="3.95449">
        <ele>116.6</ele>
        <time>2026-08-24T11:19:12Z</time>
      </trkpt>
      <trkpt lat="49.19577" lon="3.95458">
        <ele>116.4</ele>
        <time>2026-08-24T11:19:13Z</time>
      </trkpt>
      <trkpt lat="49.19571" lon="3.95468">
        <ele>116.6</ele>
        <time>2026-08-24T11:19:14Z</time>
      </trkpt>
      <trkpt lat="49.19565" lon="3.95476">
        <ele>116.4</ele>
        <time>2026-08-24T11:19:15Z</time>
      </trkpt>
      <trkpt lat="49.1956" lon="3.95485">
        <ele>116.2</ele>
        <time>2026-08-24T11:19:16Z</time>
      </trkpt>
      <trkpt lat="49.19554" lon="3.95494">
        <ele>116.2</ele>
        <time>2026-08-24T11:19:17Z</time>
      </trkpt>
      <trkpt lat="49.19549" lon="3.95502">
        <ele>116</ele>
        <time>2026-08-24T11:19:18Z</time>
      </trkpt>
      <trkpt lat="49.19544" lon="3.9551">
        <ele>116</ele>
        <time>2026-08-24T11:19:19Z</time>
      </trkpt>
      <trkpt lat="49.19539" lon="3.95518">
        <ele>116</ele>
        <time>2026-08-24T11:19:20Z</time>
      </trkpt>
      <trkpt lat="49.19534" lon="3.95526">
        <ele>116.2</ele>
        <time>2026-08-24T11:19:21Z</time>
      </trkpt>
      <trkpt lat="49.19529" lon="3.95533">
        <ele>116.2</ele>
        <time>2026-08-24T11:19:22Z</time>
      </trkpt>
      <trkpt lat="49.19524" lon="3.95541">
        <ele>116.4</ele>
        <time>2026-08-24T11:19:23Z</time>
      </trkpt>
      <trkpt lat="49.19519" lon="3.95548">
        <ele>116.6</ele>
        <time>2026-08-24T11:19:24Z</time>
      </trkpt>
      <trkpt lat="49.19515" lon="3.95554">
        <ele>117</ele>
        <time>2026-08-24T11:19:25Z</time>
      </trkpt>
      <trkpt lat="49.1951" lon="3.95561">
        <ele>117.4</ele>
        <time>2026-08-24T11:19:26Z</time>
      </trkpt>
      <trkpt lat="49.19506" lon="3.95567">
        <ele>117.6</ele>
        <time>2026-08-24T11:19:27Z</time>
      </trkpt>
      <trkpt lat="49.19502" lon="3.95573">
        <ele>118</ele>
        <time>2026-08-24T11:19:28Z</time>
      </trkpt>
      <trkpt lat="49.19498" lon="3.95579">
        <ele>118.2</ele>
        <time>2026-08-24T11:19:29Z</time>
      </trkpt>
      <trkpt lat="49.19494" lon="3.95585">
        <ele>118.4</ele>
        <time>2026-08-24T11:19:30Z</time>
      </trkpt>
      <trkpt lat="49.1949" lon="3.95591">
        <ele>118.6</ele>
        <time>2026-08-24T11:19:31Z</time>
      </trkpt>
      <trkpt lat="49.19486" lon="3.95597">
        <ele>118.8</ele>
        <time>2026-08-24T11:19:32Z</time>
      </trkpt>
      <trkpt lat="49.19482" lon="3.95603">
        <ele>119</ele>
        <time>2026-08-24T11:19:33Z</time>
      </trkpt>
      <trkpt lat="49.19478" lon="3.95609">
        <ele>119</ele>
        <time>2026-08-24T11:19:34Z</time>
      </trkpt>
      <trkpt lat="49.19474" lon="3.95615">
        <ele>119.2</ele>
        <time>2026-08-24T11:19:35Z</time>
      </trkpt>
      <trkpt lat="49.1947" lon="3.95621">
        <ele>119.4</ele>
        <time>2026-08-24T11:19:36Z</time>
      </trkpt>
      <trkpt lat="49.19465" lon="3.95627">
        <ele>119.6</ele>
        <time>2026-08-24T11:19:37Z</time>
      </trkpt>
      <trkpt lat="49.19461" lon="3.95632">
        <ele>119.6</ele>
        <time>2026-08-24T11:19:38Z</time>
      </trkpt>
      <trkpt lat="49.19456" lon="3.95638">
        <ele>119.6</ele>
        <time>2026-08-24T11:19:39Z</time>
      </trkpt>
      <trkpt lat="49.19451" lon="3.95643">
        <ele>119.8</ele>
        <time>2026-08-24T11:19:40Z</time>
      </trkpt>
      <trkpt lat="49.19446" lon="3.95648">
        <ele>119.6</ele>
        <time>2026-08-24T11:19:41Z</time>
      </trkpt>
      <trkpt lat="49.19441" lon="3.95652">
        <ele>119.6</ele>
        <time>2026-08-24T11:19:42Z</time>
      </trkpt>
      <trkpt lat="49.19435" lon="3.95655">
        <ele>119.4</ele>
        <time>2026-08-24T11:19:43Z</time>
      </trkpt>
      <trkpt lat="49.1943" lon="3.95658">
        <ele>119.2</ele>
        <time>2026-08-24T11:19:44Z</time>
      </trkpt>
      <trkpt lat="49.19424" lon="3.95661">
        <ele>119.2</ele>
        <time>2026-08-24T11:19:45Z</time>
      </trkpt>
      <trkpt lat="49.19419" lon="3.95664">
        <ele>119.2</ele>
        <time>2026-08-24T11:19:46Z</time>
      </trkpt>
      <trkpt lat="49.19413" lon="3.95666">
        <ele>119.4</ele>
        <time>2026-08-24T11:19:47Z</time>
      </trkpt>
      <trkpt lat="49.19407" lon="3.95668">
        <ele>119.4</ele>
        <time>2026-08-24T11:19:48Z</time>
      </trkpt>
      <trkpt lat="49.19401" lon="3.95669">
        <ele>119.6</ele>
        <time>2026-08-24T11:19:49Z</time>
      </trkpt>
      <trkpt lat="49.19396" lon="3.9567">
        <ele>120</ele>
        <time>2026-08-24T11:19:50Z</time>
      </trkpt>
      <trkpt lat="49.1939" lon="3.9567">
        <ele>120.2</ele>
        <time>2026-08-24T11:19:51Z</time>
      </trkpt>
      <trkpt lat="49.19384" lon="3.95671">
        <ele>120.2</ele>
        <time>2026-08-24T11:19:52Z</time>
      </trkpt>
      <trkpt lat="49.19378" lon="3.95671">
        <ele>120.6</ele>
        <time>2026-08-24T11:19:53Z</time>
      </trkpt>
      <trkpt lat="49.19373" lon="3.95671">
        <ele>121</ele>
        <time>2026-08-24T11:19:54Z</time>
      </trkpt>
      <trkpt lat="49.19368" lon="3.95671">
        <ele>121.4</ele>
        <time>2026-08-24T11:19:55Z</time>
      </trkpt>
      <trkpt lat="49.19362" lon="3.95671">
        <ele>121.8</ele>
        <time>2026-08-24T11:19:56Z</time>
      </trkpt>
      <trkpt lat="49.19357" lon="3.9567">
        <ele>122.4</ele>
        <time>2026-08-24T11:19:57Z</time>
      </trkpt>
      <trkpt lat="49.19352" lon="3.9567">
        <ele>122.6</ele>
        <time>2026-08-24T11:19:58Z</time>
      </trkpt>
      <trkpt lat="49.19347" lon="3.9567">
        <ele>122.8</ele>
        <time>2026-08-24T11:19:59Z</time>
      </trkpt>
      <trkpt lat="49.19342" lon="3.9567">
        <ele>122.8</ele>
        <time>2026-08-24T11:20:00Z</time>
      </trkpt>
      <trkpt lat="49.19337" lon="3.9567">
        <ele>123</ele>
        <time>2026-08-24T11:20:01Z</time>
      </trkpt>
      <trkpt lat="49.19332" lon="3.9567">
        <ele>123.4</ele>
        <time>2026-08-24T11:20:02Z</time>
      </trkpt>
      <trkpt lat="49.19327" lon="3.9567">
        <ele>123.4</ele>
        <time>2026-08-24T11:20:03Z</time>
      </trkpt>
      <trkpt lat="49.19322" lon="3.9567">
        <ele>123.8</ele>
        <time>2026-08-24T11:20:04Z</time>
      </trkpt>
      <trkpt lat="49.19317" lon="3.9567">
        <ele>124</ele>
        <time>2026-08-24T11:20:05Z</time>
      </trkpt>
      <trkpt lat="49.19313" lon="3.9567">
        <ele>124</ele>
        <time>2026-08-24T11:20:06Z</time>
      </trkpt>
      <trkpt lat="49.19309" lon="3.9567">
        <ele>124.2</ele>
        <time>2026-08-24T11:20:07Z</time>
      </trkpt>
      <trkpt lat="49.19304" lon="3.9567">
        <ele>124.2</ele>
        <time>2026-08-24T11:20:08Z</time>
      </trkpt>
      <trkpt lat="49.193" lon="3.95671">
        <ele>124.4</ele>
        <time>2026-08-24T11:20:09Z</time>
      </trkpt>
      <trkpt lat="49.19296" lon="3.95671">
        <ele>124.8</ele>
        <time>2026-08-24T11:20:10Z</time>
      </trkpt>
      <trkpt lat="49.19292" lon="3.95671">
        <ele>125</ele>
        <time>2026-08-24T11:20:11Z</time>
      </trkpt>
      <trkpt lat="49.19288" lon="3.95671">
        <ele>125.4</ele>
        <time>2026-08-24T11:20:12Z</time>
      </trkpt>
      <trkpt lat="49.19285" lon="3.95672">
        <ele>125.4</ele>
        <time>2026-08-24T11:20:13Z</time>
      </trkpt>
      <trkpt lat="49.19281" lon="3.95672">
        <ele>125.8</ele>
        <time>2026-08-24T11:20:14Z</time>
      </trkpt>
      <trkpt lat="49.19277" lon="3.95673">
        <ele>126.2</ele>
        <time>2026-08-24T11:20:15Z</time>
      </trkpt>
      <trkpt lat="49.19273" lon="3.95674">
        <ele>126.6</ele>
        <time>2026-08-24T11:20:16Z</time>
      </trkpt>
      <trkpt lat="49.1927" lon="3.95674">
        <ele>126.8</ele>
        <time>2026-08-24T11:20:17Z</time>
      </trkpt>
      <trkpt lat="49.19266" lon="3.95675">
        <ele>126.8</ele>
        <time>2026-08-24T11:20:18Z</time>
      </trkpt>
      <trkpt lat="49.19263" lon="3.95675">
        <ele>127</ele>
        <time>2026-08-24T11:20:19Z</time>
      </trkpt>
      <trkpt lat="49.19259" lon="3.95676">
        <ele>127.2</ele>
        <time>2026-08-24T11:20:20Z</time>
      </trkpt>
      <trkpt lat="49.19256" lon="3.95678">
        <ele>127.2</ele>
        <time>2026-08-24T11:20:21Z</time>
      </trkpt>
      <trkpt lat="49.19252" lon="3.95679">
        <ele>127.4</ele>
        <time>2026-08-24T11:20:22Z</time>
      </trkpt>
      <trkpt lat="49.19249" lon="3.9568">
        <ele>127.8</ele>
        <time>2026-08-24T11:20:23Z</time>
      </trkpt>
      <trkpt lat="49.19245" lon="3.95681">
        <ele>128</ele>
        <time>2026-08-24T11:20:24Z</time>
      </trkpt>
      <trkpt lat="49.19242" lon="3.95682">
        <ele>128.4</ele>
        <time>2026-08-24T11:20:25Z</time>
      </trkpt>
      <trkpt lat="49.19239" lon="3.95683">
        <ele>128.6</ele>
        <time>2026-08-24T11:20:26Z</time>
      </trkpt>
      <trkpt lat="49.19235" lon="3.95685">
        <ele>128.8</ele>
        <time>2026-08-24T11:20:27Z</time>
      </trkpt>
      <trkpt lat="49.19232" lon="3.95686">
        <ele>129.2</ele>
        <time>2026-08-24T11:20:28Z</time>
      </trkpt>
      <trkpt lat="49.19229" lon="3.95687">
        <ele>129.4</ele>
        <time>2026-08-24T11:20:29Z</time>
      </trkpt>
      <trkpt lat="49.19226" lon="3.95689">
        <ele>129.6</ele>
        <time>2026-08-24T11:20:30Z</time>
      </trkpt>
      <trkpt lat="49.19222" lon="3.95691">
        <ele>130</ele>
        <time>2026-08-24T11:20:31Z</time>
      </trkpt>
      <trkpt lat="49.19219" lon="3.95693">
        <ele>130.4</ele>
        <time>2026-08-24T11:20:32Z</time>
      </trkpt>
      <trkpt lat="49.19216" lon="3.95695">
        <ele>130.8</ele>
        <time>2026-08-24T11:20:33Z</time>
      </trkpt>
      <trkpt lat="49.19213" lon="3.95697">
        <ele>130.8</ele>
        <time>2026-08-24T11:20:34Z</time>
      </trkpt>
      <trkpt lat="49.1921" lon="3.95699">
        <ele>131.2</ele>
        <time>2026-08-24T11:20:35Z</time>
      </trkpt>
      <trkpt lat="49.19207" lon="3.95701">
        <ele>131.4</ele>
        <time>2026-08-24T11:20:36Z</time>
      </trkpt>
      <trkpt lat="49.19203" lon="3.95703">
        <ele>131.4</ele>
        <time>2026-08-24T11:20:37Z</time>
      </trkpt>
      <trkpt lat="49.192" lon="3.95706">
        <ele>131.8</ele>
        <time>2026-08-24T11:20:38Z</time>
      </trkpt>
      <trkpt lat="49.19197" lon="3.95708">
        <ele>131.8</ele>
        <time>2026-08-24T11:20:39Z</time>
      </trkpt>
      <trkpt lat="49.19194" lon="3.95711">
        <ele>132</ele>
        <time>2026-08-24T11:20:40Z</time>
      </trkpt>
      <trkpt lat="49.19191" lon="3.95713">
        <ele>132.2</ele>
        <time>2026-08-24T11:20:41Z</time>
      </trkpt>
      <trkpt lat="49.19188" lon="3.95716">
        <ele>132.4</ele>
        <time>2026-08-24T11:20:42Z</time>
      </trkpt>
      <trkpt lat="49.19185" lon="3.95718">
        <ele>132.8</ele>
        <time>2026-08-24T11:20:43Z</time>
      </trkpt>
      <trkpt lat="49.19182" lon="3.95721">
        <ele>133</ele>
        <time>2026-08-24T11:20:44Z</time>
      </trkpt>
      <trkpt lat="49.1918" lon="3.95724">
        <ele>133.2</ele>
        <time>2026-08-24T11:20:45Z</time>
      </trkpt>
      <trkpt lat="49.19177" lon="3.95726">
        <ele>133.4</ele>
        <time>2026-08-24T11:20:46Z</time>
      </trkpt>
      <trkpt lat="49.19174" lon="3.95729">
        <ele>133.4</ele>
        <time>2026-08-24T11:20:47Z</time>
      </trkpt>
      <trkpt lat="49.19171" lon="3.95732">
        <ele>133.6</ele>
        <time>2026-08-24T11:20:48Z</time>
      </trkpt>
      <trkpt lat="49.19169" lon="3.95735">
        <ele>133.8</ele>
        <time>2026-08-24T11:20:49Z</time>
      </trkpt>
      <trkpt lat="49.19166" lon="3.95738">
        <ele>134</ele>
        <time>2026-08-24T11:20:50Z</time>
      </trkpt>
      <trkpt lat="49.19164" lon="3.9574">
        <ele>134.4</ele>
        <time>2026-08-24T11:20:51Z</time>
      </trkpt>
      <trkpt lat="49.19161" lon="3.95743">
        <ele>134.8</ele>
        <time>2026-08-24T11:20:52Z</time>
      </trkpt>
      <trkpt lat="49.19159" lon="3.95745">
        <ele>134.8</ele>
        <time>2026-08-24T11:20:53Z</time>
      </trkpt>
      <trkpt lat="49.19157" lon="3.95748">
        <ele>135</ele>
        <time>2026-08-24T11:20:54Z</time>
      </trkpt>
      <trkpt lat="49.19154" lon="3.95751">
        <ele>135.2</ele>
        <time>2026-08-24T11:20:55Z</time>
      </trkpt>
      <trkpt lat="49.19152" lon="3.95754">
        <ele>135.4</ele>
        <time>2026-08-24T11:20:56Z</time>
      </trkpt>
      <trkpt lat="49.1915" lon="3.95757">
        <ele>135.6</ele>
        <time>2026-08-24T11:20:57Z</time>
      </trkpt>
      <trkpt lat="49.19147" lon="3.9576">
        <ele>135.8</ele>
        <time>2026-08-24T11:20:58Z</time>
      </trkpt>
      <trkpt lat="49.19144" lon="3.95764">
        <ele>136.2</ele>
        <time>2026-08-24T11:20:59Z</time>
      </trkpt>
      <trkpt lat="49.19142" lon="3.95767">
        <ele>136.4</ele>
        <time>2026-08-24T11:21:00Z</time>
      </trkpt>
      <trkpt lat="49.19139" lon="3.9577">
        <ele>136.6</ele>
        <time>2026-08-24T11:21:01Z</time>
      </trkpt>
      <trkpt lat="49.19137" lon="3.95773">
        <ele>136.8</ele>
        <time>2026-08-24T11:21:02Z</time>
      </trkpt>
      <trkpt lat="49.19135" lon="3.95776">
        <ele>137</ele>
        <time>2026-08-24T11:21:03Z</time>
      </trkpt>
      <trkpt lat="49.19132" lon="3.95779">
        <ele>137.2</ele>
        <time>2026-08-24T11:21:04Z</time>
      </trkpt>
      <trkpt lat="49.1913" lon="3.95782">
        <ele>137.4</ele>
        <time>2026-08-24T11:21:05Z</time>
      </trkpt>
      <trkpt lat="49.19127" lon="3.95785">
        <ele>137.6</ele>
        <time>2026-08-24T11:21:06Z</time>
      </trkpt>
      <trkpt lat="49.19125" lon="3.95787">
        <ele>138</ele>
        <time>2026-08-24T11:21:07Z</time>
      </trkpt>
      <trkpt lat="49.19122" lon="3.9579">
        <ele>138</ele>
        <time>2026-08-24T11:21:08Z</time>
      </trkpt>
      <trkpt lat="49.1912" lon="3.95793">
        <ele>138.2</ele>
        <time>2026-08-24T11:21:09Z</time>
      </trkpt>
      <trkpt lat="49.19117" lon="3.95796">
        <ele>138.4</ele>
        <time>2026-08-24T11:21:10Z</time>
      </trkpt>
      <trkpt lat="49.19114" lon="3.95798">
        <ele>138.6</ele>
        <time>2026-08-24T11:21:11Z</time>
      </trkpt>
      <trkpt lat="49.19112" lon="3.95801">
        <ele>138.8</ele>
        <time>2026-08-24T11:21:12Z</time>
      </trkpt>
      <trkpt lat="49.19109" lon="3.95803">
        <ele>138.8</ele>
        <time>2026-08-24T11:21:13Z</time>
      </trkpt>
      <trkpt lat="49.19106" lon="3.95806">
        <ele>139</ele>
        <time>2026-08-24T11:21:14Z</time>
      </trkpt>
      <trkpt lat="49.19103" lon="3.95808">
        <ele>139.2</ele>
        <time>2026-08-24T11:21:15Z</time>
      </trkpt>
      <trkpt lat="49.191" lon="3.9581">
        <ele>139.4</ele>
        <time>2026-08-24T11:21:16Z</time>
      </trkpt>
      <trkpt lat="49.19098" lon="3.95812">
        <ele>139.6</ele>
        <time>2026-08-24T11:21:17Z</time>
      </trkpt>
      <trkpt lat="49.19095" lon="3.95814">
        <ele>139.8</ele>
        <time>2026-08-24T11:21:18Z</time>
      </trkpt>
      <trkpt lat="49.19092" lon="3.95816">
        <ele>139.8</ele>
        <time>2026-08-24T11:21:19Z</time>
      </trkpt>
      <trkpt lat="49.19089" lon="3.95817">
        <ele>140</ele>
        <time>2026-08-24T11:21:20Z</time>
      </trkpt>
      <trkpt lat="49.19086" lon="3.95819">
        <ele>140.4</ele>
        <time>2026-08-24T11:21:21Z</time>
      </trkpt>
      <trkpt lat="49.19082" lon="3.9582">
        <ele>140.6</ele>
        <time>2026-08-24T11:21:22Z</time>
      </trkpt>
      <trkpt lat="49.19079" lon="3.95822">
        <ele>140.8</ele>
        <time>2026-08-24T11:21:23Z</time>
      </trkpt>
      <trkpt lat="49.19076" lon="3.95823">
        <ele>141.2</ele>
        <time>2026-08-24T11:21:24Z</time>
      </trkpt>
      <trkpt lat="49.19073" lon="3.95824">
        <ele>141.4</ele>
        <time>2026-08-24T11:21:25Z</time>
      </trkpt>
      <trkpt lat="49.19069" lon="3.95825">
        <ele>141.8</ele>
        <time>2026-08-24T11:21:26Z</time>
      </trkpt>
      <trkpt lat="49.19066" lon="3.95826">
        <ele>142</ele>
        <time>2026-08-24T11:21:27Z</time>
      </trkpt>
      <trkpt lat="49.19062" lon="3.95826">
        <ele>142.2</ele>
        <time>2026-08-24T11:21:28Z</time>
      </trkpt>
      <trkpt lat="49.19059" lon="3.95827">
        <ele>142.4</ele>
        <time>2026-08-24T11:21:29Z</time>
      </trkpt>
      <trkpt lat="49.19056" lon="3.95827">
        <ele>142.4</ele>
        <time>2026-08-24T11:21:30Z</time>
      </trkpt>
      <trkpt lat="49.19052" lon="3.95827">
        <ele>142.6</ele>
        <time>2026-08-24T11:21:31Z</time>
      </trkpt>
      <trkpt lat="49.19049" lon="3.95828">
        <ele>142.8</ele>
        <time>2026-08-24T11:21:32Z</time>
      </trkpt>
      <trkpt lat="49.19045" lon="3.95827">
        <ele>142.8</ele>
        <time>2026-08-24T11:21:33Z</time>
      </trkpt>
      <trkpt lat="49.19041" lon="3.95827">
        <ele>143.2</ele>
        <time>2026-08-24T11:21:34Z</time>
      </trkpt>
      <trkpt lat="49.19038" lon="3.95827">
        <ele>143.4</ele>
        <time>2026-08-24T11:21:35Z</time>
      </trkpt>
      <trkpt lat="49.19034" lon="3.95826">
        <ele>143.2</ele>
        <time>2026-08-24T11:21:36Z</time>
      </trkpt>
      <trkpt lat="49.1903" lon="3.95825">
        <ele>143.4</ele>
        <time>2026-08-24T11:21:37Z</time>
      </trkpt>
      <trkpt lat="49.19026" lon="3.95824">
        <ele>143.4</ele>
        <time>2026-08-24T11:21:38Z</time>
      </trkpt>
      <trkpt lat="49.19022" lon="3.95823">
        <ele>143.4</ele>
        <time>2026-08-24T11:21:39Z</time>
      </trkpt>
      <trkpt lat="49.19018" lon="3.95821">
        <ele>143.4</ele>
        <time>2026-08-24T11:21:40Z</time>
      </trkpt>
      <trkpt lat="49.19014" lon="3.95819">
        <ele>143.6</ele>
        <time>2026-08-24T11:21:41Z</time>
      </trkpt>
      <trkpt lat="49.1901" lon="3.95817">
        <ele>143.6</ele>
        <time>2026-08-24T11:21:42Z</time>
      </trkpt>
      <trkpt lat="49.19006" lon="3.95815">
        <ele>143.6</ele>
        <time>2026-08-24T11:21:43Z</time>
      </trkpt>
      <trkpt lat="49.19002" lon="3.95812">
        <ele>143.6</ele>
        <time>2026-08-24T11:21:44Z</time>
      </trkpt>
      <trkpt lat="49.18998" lon="3.95809">
        <ele>143.6</ele>
        <time>2026-08-24T11:21:45Z</time>
      </trkpt>
      <trkpt lat="49.18994" lon="3.95805">
        <ele>143.6</ele>
        <time>2026-08-24T11:21:46Z</time>
      </trkpt>
      <trkpt lat="49.18989" lon="3.95802">
        <ele>143.6</ele>
        <time>2026-08-24T11:21:47Z</time>
      </trkpt>
      <trkpt lat="49.18985" lon="3.95798">
        <ele>143.6</ele>
        <time>2026-08-24T11:21:48Z</time>
      </trkpt>
      <trkpt lat="49.1898" lon="3.95793">
        <ele>143.4</ele>
        <time>2026-08-24T11:21:49Z</time>
      </trkpt>
      <trkpt lat="49.18975" lon="3.95788">
        <ele>143.4</ele>
        <time>2026-08-24T11:21:50Z</time>
      </trkpt>
      <trkpt lat="49.1897" lon="3.95783">
        <ele>143.2</ele>
        <time>2026-08-24T11:21:51Z</time>
      </trkpt>
      <trkpt lat="49.18965" lon="3.95778">
        <ele>142.8</ele>
        <time>2026-08-24T11:21:52Z</time>
      </trkpt>
      <trkpt lat="49.18959" lon="3.95773">
        <ele>142.6</ele>
        <time>2026-08-24T11:21:53Z</time>
      </trkpt>
      <trkpt lat="49.18954" lon="3.95768">
        <ele>142.4</ele>
        <time>2026-08-24T11:21:54Z</time>
      </trkpt>
      <trkpt lat="49.18949" lon="3.95762">
        <ele>142.2</ele>
        <time>2026-08-24T11:21:55Z</time>
      </trkpt>
      <trkpt lat="49.18943" lon="3.95756">
        <ele>142</ele>
        <time>2026-08-24T11:21:56Z</time>
      </trkpt>
      <trkpt lat="49.18937" lon="3.9575">
        <ele>141.8</ele>
        <time>2026-08-24T11:21:57Z</time>
      </trkpt>
      <trkpt lat="49.18932" lon="3.95744">
        <ele>141.6</ele>
        <time>2026-08-24T11:21:58Z</time>
      </trkpt>
      <trkpt lat="49.18926" lon="3.95738">
        <ele>141.4</ele>
        <time>2026-08-24T11:21:59Z</time>
      </trkpt>
      <trkpt lat="49.1892" lon="3.95731">
        <ele>141.4</ele>
        <time>2026-08-24T11:22:00Z</time>
      </trkpt>
      <trkpt lat="49.18914" lon="3.95725">
        <ele>141.2</ele>
        <time>2026-08-24T11:22:01Z</time>
      </trkpt>
      <trkpt lat="49.18908" lon="3.95718">
        <ele>141</ele>
        <time>2026-08-24T11:22:02Z</time>
      </trkpt>
      <trkpt lat="49.18902" lon="3.95711">
        <ele>140.8</ele>
        <time>2026-08-24T11:22:03Z</time>
      </trkpt>
      <trkpt lat="49.18897" lon="3.95704">
        <ele>140.6</ele>
        <time>2026-08-24T11:22:04Z</time>
      </trkpt>
      <trkpt lat="49.18891" lon="3.95698">
        <ele>140.4</ele>
        <time>2026-08-24T11:22:05Z</time>
      </trkpt>
      <trkpt lat="49.18884" lon="3.95693">
        <ele>140.4</ele>
        <time>2026-08-24T11:22:06Z</time>
      </trkpt>
      <trkpt lat="49.18878" lon="3.95687">
        <ele>140.2</ele>
        <time>2026-08-24T11:22:07Z</time>
      </trkpt>
      <trkpt lat="49.18871" lon="3.9568">
        <ele>140</ele>
        <time>2026-08-24T11:22:08Z</time>
      </trkpt>
      <trkpt lat="49.18865" lon="3.95674">
        <ele>139.8</ele>
        <time>2026-08-24T11:22:09Z</time>
      </trkpt>
      <trkpt lat="49.18859" lon="3.95667">
        <ele>139.6</ele>
        <time>2026-08-24T11:22:10Z</time>
      </trkpt>
      <trkpt lat="49.18852" lon="3.9566">
        <ele>139.4</ele>
        <time>2026-08-24T11:22:11Z</time>
      </trkpt>
      <trkpt lat="49.18846" lon="3.95653">
        <ele>139.2</ele>
        <time>2026-08-24T11:22:12Z</time>
      </trkpt>
      <trkpt lat="49.18839" lon="3.95646">
        <ele>139.2</ele>
        <time>2026-08-24T11:22:13Z</time>
      </trkpt>
      <trkpt lat="49.18833" lon="3.95638">
        <ele>139</ele>
        <time>2026-08-24T11:22:14Z</time>
      </trkpt>
      <trkpt lat="49.18828" lon="3.9563">
        <ele>139</ele>
        <time>2026-08-24T11:22:15Z</time>
      </trkpt>
      <trkpt lat="49.18822" lon="3.95622">
        <ele>139</ele>
        <time>2026-08-24T11:22:16Z</time>
      </trkpt>
      <trkpt lat="49.18818" lon="3.95613">
        <ele>139</ele>
        <time>2026-08-24T11:22:17Z</time>
      </trkpt>
      <trkpt lat="49.18813" lon="3.95605">
        <ele>139</ele>
        <time>2026-08-24T11:22:18Z</time>
      </trkpt>
      <trkpt lat="49.1881" lon="3.95598">
        <ele>139.2</ele>
        <time>2026-08-24T11:22:19Z</time>
      </trkpt>
      <trkpt lat="49.18807" lon="3.95591">
        <ele>139.2</ele>
        <time>2026-08-24T11:22:20Z</time>
      </trkpt>
      <trkpt lat="49.18805" lon="3.95586">
        <ele>139.4</ele>
        <time>2026-08-24T11:22:21Z</time>
      </trkpt>
      <trkpt lat="49.18803" lon="3.95582">
        <ele>139.4</ele>
        <time>2026-08-24T11:22:22Z</time>
      </trkpt>
      <trkpt lat="49.18802" lon="3.9558">
        <ele>139.4</ele>
        <time>2026-08-24T11:22:23Z</time>
      </trkpt>
      <trkpt lat="49.18802" lon="3.9558">
        <ele>139.4</ele>
        <time>2026-08-24T11:22:24Z</time>
      </trkpt>
      <trkpt lat="49.18802" lon="3.9558">
        <ele>139.4</ele>
        <time>2026-08-24T11:22:25Z</time>
      </trkpt>
      <trkpt lat="49.18799" lon="3.95573">
        <ele>139.2</ele>
        <time>2026-08-24T11:22:30Z</time>
      </trkpt>
      <trkpt lat="49.18797" lon="3.95569">
        <ele>139</ele>
        <time>2026-08-24T11:22:31Z</time>
      </trkpt>
      <trkpt lat="49.18795" lon="3.95565">
        <ele>138.8</ele>
        <time>2026-08-24T11:22:32Z</time>
      </trkpt>
      <trkpt lat="49.18792" lon="3.95559">
        <ele>138.6</ele>
        <time>2026-08-24T11:22:33Z</time>
      </trkpt>
      <trkpt lat="49.1879" lon="3.95553">
        <ele>138.4</ele>
        <time>2026-08-24T11:22:34Z</time>
      </trkpt>
      <trkpt lat="49.18786" lon="3.95547">
        <ele>138.2</ele>
        <time>2026-08-24T11:22:35Z</time>
      </trkpt>
      <trkpt lat="49.18783" lon="3.9554">
        <ele>138.2</ele>
        <time>2026-08-24T11:22:36Z</time>
      </trkpt>
      <trkpt lat="49.1878" lon="3.95533">
        <ele>138</ele>
        <time>2026-08-24T11:22:37Z</time>
      </trkpt>
      <trkpt lat="49.18776" lon="3.95525">
        <ele>137.8</ele>
        <time>2026-08-24T11:22:38Z</time>
      </trkpt>
      <trkpt lat="49.18773" lon="3.95517">
        <ele>137.4</ele>
        <time>2026-08-24T11:22:39Z</time>
      </trkpt>
      <trkpt lat="49.18769" lon="3.95509">
        <ele>137.2</ele>
        <time>2026-08-24T11:22:40Z</time>
      </trkpt>
      <trkpt lat="49.18765" lon="3.95501">
        <ele>137</ele>
        <time>2026-08-24T11:22:41Z</time>
      </trkpt>
      <trkpt lat="49.18762" lon="3.95492">
        <ele>136.6</ele>
        <time>2026-08-24T11:22:42Z</time>
      </trkpt>
      <trkpt lat="49.18758" lon="3.95483">
        <ele>136.6</ele>
        <time>2026-08-24T11:22:43Z</time>
      </trkpt>
      <trkpt lat="49.18755" lon="3.95474">
        <ele>136.4</ele>
        <time>2026-08-24T11:22:44Z</time>
      </trkpt>
      <trkpt lat="49.18751" lon="3.95465">
        <ele>136.4</ele>
        <time>2026-08-24T11:22:45Z</time>
      </trkpt>
      <trkpt lat="49.18747" lon="3.95457">
        <ele>136.4</ele>
        <time>2026-08-24T11:22:46Z</time>
      </trkpt>
      <trkpt lat="49.18744" lon="3.95448">
        <ele>136.6</ele>
        <time>2026-08-24T11:22:47Z</time>
      </trkpt>
      <trkpt lat="49.1874" lon="3.9544">
        <ele>136.8</ele>
        <time>2026-08-24T11:22:48Z</time>
      </trkpt>
      <trkpt lat="49.18736" lon="3.95431">
        <ele>137</ele>
        <time>2026-08-24T11:22:49Z</time>
      </trkpt>
      <trkpt lat="49.18732" lon="3.95422">
        <ele>137.2</ele>
        <time>2026-08-24T11:22:50Z</time>
      </trkpt>
      <trkpt lat="49.18729" lon="3.95413">
        <ele>137.4</ele>
        <time>2026-08-24T11:22:51Z</time>
      </trkpt>
      <trkpt lat="49.18725" lon="3.95405">
        <ele>137.6</ele>
        <time>2026-08-24T11:22:52Z</time>
      </trkpt>
      <trkpt lat="49.18722" lon="3.95396">
        <ele>137.8</ele>
        <time>2026-08-24T11:22:53Z</time>
      </trkpt>
      <trkpt lat="49.18718" lon="3.95387">
        <ele>138</ele>
        <time>2026-08-24T11:22:54Z</time>
      </trkpt>
      <trkpt lat="49.18714" lon="3.95379">
        <ele>138.2</ele>
        <time>2026-08-24T11:22:55Z</time>
      </trkpt>
      <trkpt lat="49.18711" lon="3.9537">
        <ele>138.2</ele>
        <time>2026-08-24T11:22:56Z</time>
      </trkpt>
      <trkpt lat="49.18707" lon="3.95362">
        <ele>138.4</ele>
        <time>2026-08-24T11:22:57Z</time>
      </trkpt>
      <trkpt lat="49.18704" lon="3.95354">
        <ele>138.6</ele>
        <time>2026-08-24T11:22:58Z</time>
      </trkpt>
      <trkpt lat="49.187" lon="3.95346">
        <ele>139</ele>
        <time>2026-08-24T11:22:59Z</time>
      </trkpt>
      <trkpt lat="49.18697" lon="3.95338">
        <ele>139.2</ele>
        <time>2026-08-24T11:23:00Z</time>
      </trkpt>
      <trkpt lat="49.18694" lon="3.95329">
        <ele>139.4</ele>
        <time>2026-08-24T11:23:01Z</time>
      </trkpt>
      <trkpt lat="49.18691" lon="3.9532">
        <ele>139.4</ele>
        <time>2026-08-24T11:23:02Z</time>
      </trkpt>
      <trkpt lat="49.18689" lon="3.95311">
        <ele>139.4</ele>
        <time>2026-08-24T11:23:03Z</time>
      </trkpt>
      <trkpt lat="49.18687" lon="3.95302">
        <ele>139.6</ele>
        <time>2026-08-24T11:23:04Z</time>
      </trkpt>
      <trkpt lat="49.18685" lon="3.95293">
        <ele>139.6</ele>
        <time>2026-08-24T11:23:05Z</time>
      </trkpt>
      <trkpt lat="49.18684" lon="3.95283">
        <ele>139.8</ele>
        <time>2026-08-24T11:23:06Z</time>
      </trkpt>
      <trkpt lat="49.18683" lon="3.95274">
        <ele>140</ele>
        <time>2026-08-24T11:23:07Z</time>
      </trkpt>
      <trkpt lat="49.18682" lon="3.95265">
        <ele>140</ele>
        <time>2026-08-24T11:23:08Z</time>
      </trkpt>
      <trkpt lat="49.1868" lon="3.95256">
        <ele>140.2</ele>
        <time>2026-08-24T11:23:09Z</time>
      </trkpt>
      <trkpt lat="49.18679" lon="3.95248">
        <ele>140.4</ele>
        <time>2026-08-24T11:23:10Z</time>
      </trkpt>
      <trkpt lat="49.18677" lon="3.9524">
        <ele>140.6</ele>
        <time>2026-08-24T11:23:11Z</time>
      </trkpt>
      <trkpt lat="49.18674" lon="3.95234">
        <ele>140.6</ele>
        <time>2026-08-24T11:23:12Z</time>
      </trkpt>
      <trkpt lat="49.1867" lon="3.9523">
        <ele>141</ele>
        <time>2026-08-24T11:23:13Z</time>
      </trkpt>
      <trkpt lat="49.18666" lon="3.95229">
        <ele>141.2</ele>
        <time>2026-08-24T11:23:14Z</time>
      </trkpt>
      <trkpt lat="49.18661" lon="3.95229">
        <ele>141.4</ele>
        <time>2026-08-24T11:23:15Z</time>
      </trkpt>
      <trkpt lat="49.18656" lon="3.9523">
        <ele>141.6</ele>
        <time>2026-08-24T11:23:16Z</time>
      </trkpt>
      <trkpt lat="49.18651" lon="3.95232">
        <ele>141.8</ele>
        <time>2026-08-24T11:23:17Z</time>
      </trkpt>
      <trkpt lat="49.18646" lon="3.95234">
        <ele>141.8</ele>
        <time>2026-08-24T11:23:18Z</time>
      </trkpt>
      <trkpt lat="49.18641" lon="3.95236">
        <ele>141.8</ele>
        <time>2026-08-24T11:23:19Z</time>
      </trkpt>
      <trkpt lat="49.18635" lon="3.95238">
        <ele>141.8</ele>
        <time>2026-08-24T11:23:20Z</time>
      </trkpt>
      <trkpt lat="49.1863" lon="3.9524">
        <ele>141.8</ele>
        <time>2026-08-24T11:23:21Z</time>
      </trkpt>
      <trkpt lat="49.18624" lon="3.95243">
        <ele>142</ele>
        <time>2026-08-24T11:23:22Z</time>
      </trkpt>
      <trkpt lat="49.18619" lon="3.95245">
        <ele>142</ele>
        <time>2026-08-24T11:23:23Z</time>
      </trkpt>
      <trkpt lat="49.18613" lon="3.95245">
        <ele>142</ele>
        <time>2026-08-24T11:23:24Z</time>
      </trkpt>
      <trkpt lat="49.18608" lon="3.95246">
        <ele>142.2</ele>
        <time>2026-08-24T11:23:25Z</time>
      </trkpt>
      <trkpt lat="49.18602" lon="3.95246">
        <ele>142.2</ele>
        <time>2026-08-24T11:23:26Z</time>
      </trkpt>
      <trkpt lat="49.18597" lon="3.95246">
        <ele>142.4</ele>
        <time>2026-08-24T11:23:27Z</time>
      </trkpt>
      <trkpt lat="49.18592" lon="3.95247">
        <ele>142.6</ele>
        <time>2026-08-24T11:23:28Z</time>
      </trkpt>
      <trkpt lat="49.18587" lon="3.95247">
        <ele>142.8</ele>
        <time>2026-08-24T11:23:29Z</time>
      </trkpt>
      <trkpt lat="49.18582" lon="3.95248">
        <ele>143.2</ele>
        <time>2026-08-24T11:23:30Z</time>
      </trkpt>
      <trkpt lat="49.18577" lon="3.95248">
        <ele>143.4</ele>
        <time>2026-08-24T11:23:31Z</time>
      </trkpt>
      <trkpt lat="49.18572" lon="3.95249">
        <ele>143.6</ele>
        <time>2026-08-24T11:23:32Z</time>
      </trkpt>
      <trkpt lat="49.18567" lon="3.9525">
        <ele>143.8</ele>
        <time>2026-08-24T11:23:33Z</time>
      </trkpt>
      <trkpt lat="49.18562" lon="3.95251">
        <ele>144.2</ele>
        <time>2026-08-24T11:23:34Z</time>
      </trkpt>
      <trkpt lat="49.18557" lon="3.95253">
        <ele>144.4</ele>
        <time>2026-08-24T11:23:35Z</time>
      </trkpt>
      <trkpt lat="49.18552" lon="3.95255">
        <ele>144.8</ele>
        <time>2026-08-24T11:23:36Z</time>
      </trkpt>
      <trkpt lat="49.18547" lon="3.95258">
        <ele>145</ele>
        <time>2026-08-24T11:23:37Z</time>
      </trkpt>
      <trkpt lat="49.18543" lon="3.9526">
        <ele>145.2</ele>
        <time>2026-08-24T11:23:38Z</time>
      </trkpt>
      <trkpt lat="49.18538" lon="3.95263">
        <ele>145.2</ele>
        <time>2026-08-24T11:23:39Z</time>
      </trkpt>
      <trkpt lat="49.18534" lon="3.95267">
        <ele>145.4</ele>
        <time>2026-08-24T11:23:40Z</time>
      </trkpt>
      <trkpt lat="49.18529" lon="3.9527">
        <ele>145.4</ele>
        <time>2026-08-24T11:23:41Z</time>
      </trkpt>
      <trkpt lat="49.18524" lon="3.95274">
        <ele>145.2</ele>
        <time>2026-08-24T11:23:42Z</time>
      </trkpt>
      <trkpt lat="49.18519" lon="3.95278">
        <ele>145.2</ele>
        <time>2026-08-24T11:23:43Z</time>
      </trkpt>
      <trkpt lat="49.18515" lon="3.95281">
        <ele>145.2</ele>
        <time>2026-08-24T11:23:44Z</time>
      </trkpt>
      <trkpt lat="49.1851" lon="3.95285">
        <ele>145.2</ele>
        <time>2026-08-24T11:23:45Z</time>
      </trkpt>
      <trkpt lat="49.18505" lon="3.95289">
        <ele>145.2</ele>
        <time>2026-08-24T11:23:46Z</time>
      </trkpt>
      <trkpt lat="49.18499" lon="3.95293">
        <ele>145</ele>
        <time>2026-08-24T11:23:47Z</time>
      </trkpt>
      <trkpt lat="49.18494" lon="3.95297">
        <ele>145</ele>
        <time>2026-08-24T11:23:48Z</time>
      </trkpt>
      <trkpt lat="49.18489" lon="3.95301">
        <ele>145</ele>
        <time>2026-08-24T11:23:49Z</time>
      </trkpt>
      <trkpt lat="49.18483" lon="3.95305">
        <ele>144.8</ele>
        <time>2026-08-24T11:23:50Z</time>
      </trkpt>
      <trkpt lat="49.18477" lon="3.95309">
        <ele>144.8</ele>
        <time>2026-08-24T11:23:51Z</time>
      </trkpt>
      <trkpt lat="49.18471" lon="3.95314">
        <ele>144.6</ele>
        <time>2026-08-24T11:23:52Z</time>
      </trkpt>
      <trkpt lat="49.18465" lon="3.95318">
        <ele>144.4</ele>
        <time>2026-08-24T11:23:53Z</time>
      </trkpt>
      <trkpt lat="49.18459" lon="3.95323">
        <ele>144.2</ele>
        <time>2026-08-24T11:23:54Z</time>
      </trkpt>
      <trkpt lat="49.18453" lon="3.95327">
        <ele>144.2</ele>
        <time>2026-08-24T11:23:55Z</time>
      </trkpt>
      <trkpt lat="49.18446" lon="3.95332">
        <ele>144</ele>
        <time>2026-08-24T11:23:56Z</time>
      </trkpt>
      <trkpt lat="49.1844" lon="3.95336">
        <ele>143.8</ele>
        <time>2026-08-24T11:23:57Z</time>
      </trkpt>
      <trkpt lat="49.18433" lon="3.95341">
        <ele>143.6</ele>
        <time>2026-08-24T11:23:58Z</time>
      </trkpt>
      <trkpt lat="49.18427" lon="3.95347">
        <ele>143.4</ele>
        <time>2026-08-24T11:23:59Z</time>
      </trkpt>
      <trkpt lat="49.1842" lon="3.95352">
        <ele>143</ele>
        <time>2026-08-24T11:24:00Z</time>
      </trkpt>
      <trkpt lat="49.18414" lon="3.95357">
        <ele>142.6</ele>
        <time>2026-08-24T11:24:01Z</time>
      </trkpt>
      <trkpt lat="49.18407" lon="3.95362">
        <ele>142</ele>
        <time>2026-08-24T11:24:02Z</time>
      </trkpt>
      <trkpt lat="49.18399" lon="3.95366">
        <ele>141.8</ele>
        <time>2026-08-24T11:24:03Z</time>
      </trkpt>
      <trkpt lat="49.18392" lon="3.95371">
        <ele>141.2</ele>
        <time>2026-08-24T11:24:04Z</time>
      </trkpt>
      <trkpt lat="49.18385" lon="3.95375">
        <ele>141</ele>
        <time>2026-08-24T11:24:05Z</time>
      </trkpt>
      <trkpt lat="49.18378" lon="3.95378">
        <ele>140.8</ele>
        <time>2026-08-24T11:24:06Z</time>
      </trkpt>
      <trkpt lat="49.1837" lon="3.95382">
        <ele>140.6</ele>
        <time>2026-08-24T11:24:07Z</time>
      </trkpt>
      <trkpt lat="49.18363" lon="3.95385">
        <ele>140.6</ele>
        <time>2026-08-24T11:24:08Z</time>
      </trkpt>
      <trkpt lat="49.18356" lon="3.95388">
        <ele>140.4</ele>
        <time>2026-08-24T11:24:09Z</time>
      </trkpt>
      <trkpt lat="49.18349" lon="3.95391">
        <ele>140.6</ele>
        <time>2026-08-24T11:24:10Z</time>
      </trkpt>
      <trkpt lat="49.18342" lon="3.95393">
        <ele>140.8</ele>
        <time>2026-08-24T11:24:11Z</time>
      </trkpt>
      <trkpt lat="49.18335" lon="3.95395">
        <ele>141</ele>
        <time>2026-08-24T11:24:12Z</time>
      </trkpt>
      <trkpt lat="49.18329" lon="3.95397">
        <ele>141.4</ele>
        <time>2026-08-24T11:24:13Z</time>
      </trkpt>
      <trkpt lat="49.18323" lon="3.95399">
        <ele>141.8</ele>
        <time>2026-08-24T11:24:14Z</time>
      </trkpt>
      <trkpt lat="49.18317" lon="3.95401">
        <ele>142.2</ele>
        <time>2026-08-24T11:24:15Z</time>
      </trkpt>
      <trkpt lat="49.18311" lon="3.95402">
        <ele>142.4</ele>
        <time>2026-08-24T11:24:16Z</time>
      </trkpt>
      <trkpt lat="49.18305" lon="3.95404">
        <ele>142.6</ele>
        <time>2026-08-24T11:24:17Z</time>
      </trkpt>
      <trkpt lat="49.183" lon="3.95405">
        <ele>143</ele>
        <time>2026-08-24T11:24:18Z</time>
      </trkpt>
      <trkpt lat="49.18294" lon="3.95407">
        <ele>143.4</ele>
        <time>2026-08-24T11:24:19Z</time>
      </trkpt>
      <trkpt lat="49.18288" lon="3.95409">
        <ele>143.6</ele>
        <time>2026-08-24T11:24:20Z</time>
      </trkpt>
      <trkpt lat="49.18283" lon="3.9541">
        <ele>143.8</ele>
        <time>2026-08-24T11:24:21Z</time>
      </trkpt>
      <trkpt lat="49.18277" lon="3.95412">
        <ele>144</ele>
        <time>2026-08-24T11:24:22Z</time>
      </trkpt>
      <trkpt lat="49.18272" lon="3.95413">
        <ele>144.4</ele>
        <time>2026-08-24T11:24:23Z</time>
      </trkpt>
      <trkpt lat="49.18267" lon="3.95415">
        <ele>144.6</ele>
        <time>2026-08-24T11:24:24Z</time>
      </trkpt>
      <trkpt lat="49.18262" lon="3.95417">
        <ele>145</ele>
        <time>2026-08-24T11:24:25Z</time>
      </trkpt>
      <trkpt lat="49.18256" lon="3.95418">
        <ele>145.2</ele>
        <time>2026-08-24T11:24:26Z</time>
      </trkpt>
      <trkpt lat="49.18251" lon="3.9542">
        <ele>145.4</ele>
        <time>2026-08-24T11:24:27Z</time>
      </trkpt>
      <trkpt lat="49.18246" lon="3.95421">
        <ele>145.6</ele>
        <time>2026-08-24T11:24:28Z</time>
      </trkpt>
      <trkpt lat="49.1824" lon="3.95423">
        <ele>145.8</ele>
        <time>2026-08-24T11:24:29Z</time>
      </trkpt>
      <trkpt lat="49.18235" lon="3.95424">
        <ele>145.8</ele>
        <time>2026-08-24T11:24:30Z</time>
      </trkpt>
      <trkpt lat="49.1823" lon="3.95425">
        <ele>146.2</ele>
        <time>2026-08-24T11:24:31Z</time>
      </trkpt>
      <trkpt lat="49.18224" lon="3.95427">
        <ele>146.4</ele>
        <time>2026-08-24T11:24:32Z</time>
      </trkpt>
      <trkpt lat="49.18219" lon="3.95428">
        <ele>146.6</ele>
        <time>2026-08-24T11:24:33Z</time>
      </trkpt>
      <trkpt lat="49.18214" lon="3.9543">
        <ele>146.6</ele>
        <time>2026-08-24T11:24:34Z</time>
      </trkpt>
      <trkpt lat="49.18209" lon="3.95431">
        <ele>146.6</ele>
        <time>2026-08-24T11:24:35Z</time>
      </trkpt>
      <trkpt lat="49.18204" lon="3.95433">
        <ele>146.8</ele>
        <time>2026-08-24T11:24:36Z</time>
      </trkpt>
      <trkpt lat="49.18199" lon="3.95434">
        <ele>146.8</ele>
        <time>2026-08-24T11:24:37Z</time>
      </trkpt>
      <trkpt lat="49.18193" lon="3.95436">
        <ele>147.2</ele>
        <time>2026-08-24T11:24:38Z</time>
      </trkpt>
      <trkpt lat="49.18188" lon="3.95438">
        <ele>147.6</ele>
        <time>2026-08-24T11:24:39Z</time>
      </trkpt>
      <trkpt lat="49.18184" lon="3.95439">
        <ele>147.8</ele>
        <time>2026-08-24T11:24:40Z</time>
      </trkpt>
      <trkpt lat="49.18179" lon="3.95441">
        <ele>148</ele>
        <time>2026-08-24T11:24:41Z</time>
      </trkpt>
      <trkpt lat="49.18174" lon="3.95443">
        <ele>148.2</ele>
        <time>2026-08-24T11:24:42Z</time>
      </trkpt>
      <trkpt lat="49.18169" lon="3.95444">
        <ele>148.4</ele>
        <time>2026-08-24T11:24:43Z</time>
      </trkpt>
      <trkpt lat="49.18164" lon="3.95445">
        <ele>148.6</ele>
        <time>2026-08-24T11:24:44Z</time>
      </trkpt>
      <trkpt lat="49.18159" lon="3.95446">
        <ele>148.8</ele>
        <time>2026-08-24T11:24:45Z</time>
      </trkpt>
      <trkpt lat="49.18154" lon="3.95448">
        <ele>149</ele>
        <time>2026-08-24T11:24:46Z</time>
      </trkpt>
      <trkpt lat="49.18149" lon="3.95449">
        <ele>149.2</ele>
        <time>2026-08-24T11:24:47Z</time>
      </trkpt>
      <trkpt lat="49.18144" lon="3.9545">
        <ele>149</ele>
        <time>2026-08-24T11:24:48Z</time>
      </trkpt>
      <trkpt lat="49.18139" lon="3.95452">
        <ele>149.4</ele>
        <time>2026-08-24T11:24:49Z</time>
      </trkpt>
      <trkpt lat="49.18134" lon="3.95453">
        <ele>149.8</ele>
        <time>2026-08-24T11:24:50Z</time>
      </trkpt>
      <trkpt lat="49.18129" lon="3.95454">
        <ele>150</ele>
        <time>2026-08-24T11:24:51Z</time>
      </trkpt>
      <trkpt lat="49.18125" lon="3.95455">
        <ele>150</ele>
        <time>2026-08-24T11:24:52Z</time>
      </trkpt>
      <trkpt lat="49.1812" lon="3.95456">
        <ele>150</ele>
        <time>2026-08-24T11:24:53Z</time>
      </trkpt>
      <trkpt lat="49.18115" lon="3.95457">
        <ele>150</ele>
        <time>2026-08-24T11:24:54Z</time>
      </trkpt>
      <trkpt lat="49.18109" lon="3.95457">
        <ele>149.8</ele>
        <time>2026-08-24T11:24:55Z</time>
      </trkpt>
      <trkpt lat="49.18104" lon="3.95458">
        <ele>149.6</ele>
        <time>2026-08-24T11:24:56Z</time>
      </trkpt>
      <trkpt lat="49.18099" lon="3.95458">
        <ele>149.8</ele>
        <time>2026-08-24T11:24:57Z</time>
      </trkpt>
      <trkpt lat="49.18094" lon="3.95458">
        <ele>150</ele>
        <time>2026-08-24T11:24:58Z</time>
      </trkpt>
      <trkpt lat="49.18089" lon="3.95458">
        <ele>150</ele>
        <time>2026-08-24T11:24:59Z</time>
      </trkpt>
      <trkpt lat="49.18083" lon="3.95458">
        <ele>150</ele>
        <time>2026-08-24T11:25:00Z</time>
      </trkpt>
      <trkpt lat="49.18078" lon="3.95457">
        <ele>150.2</ele>
        <time>2026-08-24T11:25:01Z</time>
      </trkpt>
      <trkpt lat="49.18072" lon="3.95457">
        <ele>150.2</ele>
        <time>2026-08-24T11:25:02Z</time>
      </trkpt>
      <trkpt lat="49.18066" lon="3.95456">
        <ele>150</ele>
        <time>2026-08-24T11:25:03Z</time>
      </trkpt>
      <trkpt lat="49.1806" lon="3.95454">
        <ele>149.8</ele>
        <time>2026-08-24T11:25:04Z</time>
      </trkpt>
      <trkpt lat="49.18055" lon="3.95453">
        <ele>149.8</ele>
        <time>2026-08-24T11:25:05Z</time>
      </trkpt>
      <trkpt lat="49.18049" lon="3.95452">
        <ele>149.8</ele>
        <time>2026-08-24T11:25:06Z</time>
      </trkpt>
      <trkpt lat="49.18043" lon="3.95451">
        <ele>149.4</ele>
        <time>2026-08-24T11:25:07Z</time>
      </trkpt>
      <trkpt lat="49.18037" lon="3.9545">
        <ele>149.2</ele>
        <time>2026-08-24T11:25:08Z</time>
      </trkpt>
      <trkpt lat="49.18032" lon="3.95448">
        <ele>149.4</ele>
        <time>2026-08-24T11:25:09Z</time>
      </trkpt>
      <trkpt lat="49.18026" lon="3.95447">
        <ele>149.4</ele>
        <time>2026-08-24T11:25:10Z</time>
      </trkpt>
      <trkpt lat="49.1802" lon="3.95446">
        <ele>149.4</ele>
        <time>2026-08-24T11:25:11Z</time>
      </trkpt>
      <trkpt lat="49.18015" lon="3.95445">
        <ele>149.4</ele>
        <time>2026-08-24T11:25:12Z</time>
      </trkpt>
      <trkpt lat="49.18009" lon="3.95443">
        <ele>149.6</ele>
        <time>2026-08-24T11:25:13Z</time>
      </trkpt>
      <trkpt lat="49.18003" lon="3.95442">
        <ele>149.8</ele>
        <time>2026-08-24T11:25:14Z</time>
      </trkpt>
      <trkpt lat="49.17997" lon="3.95441">
        <ele>150</ele>
        <time>2026-08-24T11:25:15Z</time>
      </trkpt>
      <trkpt lat="49.17991" lon="3.9544">
        <ele>150</ele>
        <time>2026-08-24T11:25:16Z</time>
      </trkpt>
      <trkpt lat="49.17985" lon="3.95438">
        <ele>150</ele>
        <time>2026-08-24T11:25:17Z</time>
      </trkpt>
      <trkpt lat="49.1798" lon="3.95437">
        <ele>150.2</ele>
        <time>2026-08-24T11:25:18Z</time>
      </trkpt>
      <trkpt lat="49.17974" lon="3.95436">
        <ele>150</ele>
        <time>2026-08-24T11:25:19Z</time>
      </trkpt>
      <trkpt lat="49.17969" lon="3.95434">
        <ele>150</ele>
        <time>2026-08-24T11:25:20Z</time>
      </trkpt>
      <trkpt lat="49.17963" lon="3.95433">
        <ele>150</ele>
        <time>2026-08-24T11:25:21Z</time>
      </trkpt>
      <trkpt lat="49.17957" lon="3.95431">
        <ele>150.2</ele>
        <time>2026-08-24T11:25:22Z</time>
      </trkpt>
      <trkpt lat="49.17951" lon="3.9543">
        <ele>150</ele>
        <time>2026-08-24T11:25:23Z</time>
      </trkpt>
      <trkpt lat="49.17945" lon="3.95428">
        <ele>150</ele>
        <time>2026-08-24T11:25:24Z</time>
      </trkpt>
      <trkpt lat="49.17939" lon="3.95427">
        <ele>150</ele>
        <time>2026-08-24T11:25:25Z</time>
      </trkpt>
      <trkpt lat="49.17933" lon="3.95425">
        <ele>150</ele>
        <time>2026-08-24T11:25:26Z</time>
      </trkpt>
      <trkpt lat="49.17927" lon="3.95424">
        <ele>149.8</ele>
        <time>2026-08-24T11:25:27Z</time>
      </trkpt>
      <trkpt lat="49.17921" lon="3.95423">
        <ele>149.8</ele>
        <time>2026-08-24T11:25:28Z</time>
      </trkpt>
      <trkpt lat="49.17914" lon="3.95422">
        <ele>149.8</ele>
        <time>2026-08-24T11:25:29Z</time>
      </trkpt>
      <trkpt lat="49.17908" lon="3.9542">
        <ele>150</ele>
        <time>2026-08-24T11:25:30Z</time>
      </trkpt>
      <trkpt lat="49.17901" lon="3.95419">
        <ele>150</ele>
        <time>2026-08-24T11:25:31Z</time>
      </trkpt>
      <trkpt lat="49.17894" lon="3.95417">
        <ele>150</ele>
        <time>2026-08-24T11:25:32Z</time>
      </trkpt>
      <trkpt lat="49.17888" lon="3.95415">
        <ele>149.8</ele>
        <time>2026-08-24T11:25:33Z</time>
      </trkpt>
      <trkpt lat="49.17881" lon="3.95413">
        <ele>149.6</ele>
        <time>2026-08-24T11:25:34Z</time>
      </trkpt>
      <trkpt lat="49.17874" lon="3.95411">
        <ele>149.6</ele>
        <time>2026-08-24T11:25:35Z</time>
      </trkpt>
      <trkpt lat="49.17867" lon="3.95409">
        <ele>149.4</ele>
        <time>2026-08-24T11:25:36Z</time>
      </trkpt>
      <trkpt lat="49.1786" lon="3.95408">
        <ele>149.2</ele>
        <time>2026-08-24T11:25:37Z</time>
      </trkpt>
      <trkpt lat="49.17853" lon="3.95406">
        <ele>148.8</ele>
        <time>2026-08-24T11:25:38Z</time>
      </trkpt>
      <trkpt lat="49.17846" lon="3.95405">
        <ele>148.2</ele>
        <time>2026-08-24T11:25:39Z</time>
      </trkpt>
      <trkpt lat="49.17839" lon="3.95403">
        <ele>148</ele>
        <time>2026-08-24T11:25:40Z</time>
      </trkpt>
      <trkpt lat="49.17832" lon="3.95401">
        <ele>148</ele>
        <time>2026-08-24T11:25:41Z</time>
      </trkpt>
      <trkpt lat="49.17825" lon="3.954">
        <ele>147.8</ele>
        <time>2026-08-24T11:25:42Z</time>
      </trkpt>
      <trkpt lat="49.17818" lon="3.95398">
        <ele>147.6</ele>
        <time>2026-08-24T11:25:43Z</time>
      </trkpt>
      <trkpt lat="49.1781" lon="3.95396">
        <ele>147.6</ele>
        <time>2026-08-24T11:25:44Z</time>
      </trkpt>
      <trkpt lat="49.17803" lon="3.95394">
        <ele>147.4</ele>
        <time>2026-08-24T11:25:45Z</time>
      </trkpt>
      <trkpt lat="49.17796" lon="3.95392">
        <ele>146.6</ele>
        <time>2026-08-24T11:25:46Z</time>
      </trkpt>
      <trkpt lat="49.17788" lon="3.95391">
        <ele>146</ele>
        <time>2026-08-24T11:25:47Z</time>
      </trkpt>
      <trkpt lat="49.17781" lon="3.95389">
        <ele>146.2</ele>
        <time>2026-08-24T11:25:48Z</time>
      </trkpt>
      <trkpt lat="49.17773" lon="3.95387">
        <ele>146</ele>
        <time>2026-08-24T11:25:49Z</time>
      </trkpt>
      <trkpt lat="49.17765" lon="3.95385">
        <ele>146</ele>
        <time>2026-08-24T11:25:50Z</time>
      </trkpt>
      <trkpt lat="49.17757" lon="3.95384">
        <ele>145.8</ele>
        <time>2026-08-24T11:25:51Z</time>
      </trkpt>
      <trkpt lat="49.17749" lon="3.95382">
        <ele>145.6</ele>
        <time>2026-08-24T11:25:52Z</time>
      </trkpt>
      <trkpt lat="49.17742" lon="3.9538">
        <ele>144.8</ele>
        <time>2026-08-24T11:25:53Z</time>
      </trkpt>
      <trkpt lat="49.17734" lon="3.95378">
        <ele>144.6</ele>
        <time>2026-08-24T11:25:54Z</time>
      </trkpt>
      <trkpt lat="49.17727" lon="3.95376">
        <ele>144.4</ele>
        <time>2026-08-24T11:25:55Z</time>
      </trkpt>
      <trkpt lat="49.17719" lon="3.95374">
        <ele>144.2</ele>
        <time>2026-08-24T11:25:56Z</time>
      </trkpt>
      <trkpt lat="49.17712" lon="3.95372">
        <ele>143.8</ele>
        <time>2026-08-24T11:25:57Z</time>
      </trkpt>
      <trkpt lat="49.17704" lon="3.95371">
        <ele>144</ele>
        <time>2026-08-24T11:25:58Z</time>
      </trkpt>
      <trkpt lat="49.17697" lon="3.95369">
        <ele>143.8</ele>
        <time>2026-08-24T11:25:59Z</time>
      </trkpt>
      <trkpt lat="49.17689" lon="3.95366">
        <ele>143.4</ele>
        <time>2026-08-24T11:26:00Z</time>
      </trkpt>
      <trkpt lat="49.17681" lon="3.95364">
        <ele>143.4</ele>
        <time>2026-08-24T11:26:01Z</time>
      </trkpt>
      <trkpt lat="49.17673" lon="3.95363">
        <ele>143.4</ele>
        <time>2026-08-24T11:26:02Z</time>
      </trkpt>
      <trkpt lat="49.17665" lon="3.95361">
        <ele>143</ele>
        <time>2026-08-24T11:26:03Z</time>
      </trkpt>
      <trkpt lat="49.17657" lon="3.95359">
        <ele>142.8</ele>
        <time>2026-08-24T11:26:04Z</time>
      </trkpt>
      <trkpt lat="49.17649" lon="3.95357">
        <ele>142.8</ele>
        <time>2026-08-24T11:26:05Z</time>
      </trkpt>
      <trkpt lat="49.17641" lon="3.95355">
        <ele>142.6</ele>
        <time>2026-08-24T11:26:06Z</time>
      </trkpt>
      <trkpt lat="49.17633" lon="3.95353">
        <ele>142.4</ele>
        <time>2026-08-24T11:26:07Z</time>
      </trkpt>
      <trkpt lat="49.17625" lon="3.95351">
        <ele>142.4</ele>
        <time>2026-08-24T11:26:08Z</time>
      </trkpt>
      <trkpt lat="49.17618" lon="3.95349">
        <ele>142.2</ele>
        <time>2026-08-24T11:26:09Z</time>
      </trkpt>
      <trkpt lat="49.1761" lon="3.95348">
        <ele>142</ele>
        <time>2026-08-24T11:26:10Z</time>
      </trkpt>
      <trkpt lat="49.17603" lon="3.95346">
        <ele>141.8</ele>
        <time>2026-08-24T11:26:11Z</time>
      </trkpt>
      <trkpt lat="49.17595" lon="3.95345">
        <ele>141.8</ele>
        <time>2026-08-24T11:26:12Z</time>
      </trkpt>
      <trkpt lat="49.17588" lon="3.95345">
        <ele>141.8</ele>
        <time>2026-08-24T11:26:13Z</time>
      </trkpt>
      <trkpt lat="49.1758" lon="3.95345">
        <ele>141.8</ele>
        <time>2026-08-24T11:26:14Z</time>
      </trkpt>
      <trkpt lat="49.17573" lon="3.95347">
        <ele>141.6</ele>
        <time>2026-08-24T11:26:15Z</time>
      </trkpt>
      <trkpt lat="49.17566" lon="3.95349">
        <ele>141.6</ele>
        <time>2026-08-24T11:26:16Z</time>
      </trkpt>
      <trkpt lat="49.17558" lon="3.95352">
        <ele>141.4</ele>
        <time>2026-08-24T11:26:17Z</time>
      </trkpt>
      <trkpt lat="49.17551" lon="3.95356">
        <ele>140.8</ele>
        <time>2026-08-24T11:26:18Z</time>
      </trkpt>
      <trkpt lat="49.17545" lon="3.95362">
        <ele>140.4</ele>
        <time>2026-08-24T11:26:19Z</time>
      </trkpt>
      <trkpt lat="49.17538" lon="3.95369">
        <ele>140.2</ele>
        <time>2026-08-24T11:26:20Z</time>
      </trkpt>
      <trkpt lat="49.17532" lon="3.95376">
        <ele>140.2</ele>
        <time>2026-08-24T11:26:21Z</time>
      </trkpt>
      <trkpt lat="49.17526" lon="3.95385">
        <ele>140.2</ele>
        <time>2026-08-24T11:26:22Z</time>
      </trkpt>
      <trkpt lat="49.17521" lon="3.95394">
        <ele>140.2</ele>
        <time>2026-08-24T11:26:23Z</time>
      </trkpt>
      <trkpt lat="49.17516" lon="3.95404">
        <ele>140.2</ele>
        <time>2026-08-24T11:26:24Z</time>
      </trkpt>
      <trkpt lat="49.17511" lon="3.95414">
        <ele>140.2</ele>
        <time>2026-08-24T11:26:25Z</time>
      </trkpt>
      <trkpt lat="49.17506" lon="3.95424">
        <ele>140</ele>
        <time>2026-08-24T11:26:26Z</time>
      </trkpt>
      <trkpt lat="49.17502" lon="3.95434">
        <ele>140</ele>
        <time>2026-08-24T11:26:27Z</time>
      </trkpt>
      <trkpt lat="49.17497" lon="3.95445">
        <ele>139.8</ele>
        <time>2026-08-24T11:26:28Z</time>
      </trkpt>
      <trkpt lat="49.17493" lon="3.95455">
        <ele>139.8</ele>
        <time>2026-08-24T11:26:29Z</time>
      </trkpt>
      <trkpt lat="49.17489" lon="3.95465">
        <ele>139.6</ele>
        <time>2026-08-24T11:26:30Z</time>
      </trkpt>
      <trkpt lat="49.17484" lon="3.95474">
        <ele>139.4</ele>
        <time>2026-08-24T11:26:31Z</time>
      </trkpt>
      <trkpt lat="49.1748" lon="3.95484">
        <ele>139.4</ele>
        <time>2026-08-24T11:26:32Z</time>
      </trkpt>
      <trkpt lat="49.17476" lon="3.95494">
        <ele>139.4</ele>
        <time>2026-08-24T11:26:33Z</time>
      </trkpt>
      <trkpt lat="49.17472" lon="3.95503">
        <ele>139.4</ele>
        <time>2026-08-24T11:26:34Z</time>
      </trkpt>
      <trkpt lat="49.17467" lon="3.95512">
        <ele>139.4</ele>
        <time>2026-08-24T11:26:35Z</time>
      </trkpt>
      <trkpt lat="49.17463" lon="3.95521">
        <ele>139.4</ele>
        <time>2026-08-24T11:26:36Z</time>
      </trkpt>
      <trkpt lat="49.17459" lon="3.9553">
        <ele>139.6</ele>
        <time>2026-08-24T11:26:37Z</time>
      </trkpt>
      <trkpt lat="49.17455" lon="3.95539">
        <ele>139.6</ele>
        <time>2026-08-24T11:26:38Z</time>
      </trkpt>
      <trkpt lat="49.17451" lon="3.95548">
        <ele>139.8</ele>
        <time>2026-08-24T11:26:39Z</time>
      </trkpt>
      <trkpt lat="49.17447" lon="3.95557">
        <ele>140</ele>
        <time>2026-08-24T11:26:40Z</time>
      </trkpt>
      <trkpt lat="49.17443" lon="3.95566">
        <ele>140</ele>
        <time>2026-08-24T11:26:41Z</time>
      </trkpt>
      <trkpt lat="49.17439" lon="3.95575">
        <ele>139.8</ele>
        <time>2026-08-24T11:26:42Z</time>
      </trkpt>
      <trkpt lat="49.17435" lon="3.95585">
        <ele>139.8</ele>
        <time>2026-08-24T11:26:43Z</time>
      </trkpt>
      <trkpt lat="49.17431" lon="3.95594">
        <ele>139.8</ele>
        <time>2026-08-24T11:26:44Z</time>
      </trkpt>
      <trkpt lat="49.17427" lon="3.95603">
        <ele>139.8</ele>
        <time>2026-08-24T11:26:45Z</time>
      </trkpt>
      <trkpt lat="49.17423" lon="3.95612">
        <ele>139.8</ele>
        <time>2026-08-24T11:26:46Z</time>
      </trkpt>
      <trkpt lat="49.17419" lon="3.95621">
        <ele>139.8</ele>
        <time>2026-08-24T11:26:47Z</time>
      </trkpt>
      <trkpt lat="49.17416" lon="3.95629">
        <ele>139.8</ele>
        <time>2026-08-24T11:26:48Z</time>
      </trkpt>
      <trkpt lat="49.17412" lon="3.95636">
        <ele>139.8</ele>
        <time>2026-08-24T11:26:49Z</time>
      </trkpt>
      <trkpt lat="49.17409" lon="3.95644">
        <ele>140</ele>
        <time>2026-08-24T11:26:50Z</time>
      </trkpt>
      <trkpt lat="49.17406" lon="3.95652">
        <ele>140</ele>
        <time>2026-08-24T11:26:51Z</time>
      </trkpt>
      <trkpt lat="49.17402" lon="3.95659">
        <ele>140.2</ele>
        <time>2026-08-24T11:26:52Z</time>
      </trkpt>
      <trkpt lat="49.17399" lon="3.95667">
        <ele>140.4</ele>
        <time>2026-08-24T11:26:53Z</time>
      </trkpt>
      <trkpt lat="49.17396" lon="3.95674">
        <ele>140.6</ele>
        <time>2026-08-24T11:26:54Z</time>
      </trkpt>
      <trkpt lat="49.17393" lon="3.95682">
        <ele>140.6</ele>
        <time>2026-08-24T11:26:55Z</time>
      </trkpt>
      <trkpt lat="49.17389" lon="3.95689">
        <ele>140.6</ele>
        <time>2026-08-24T11:26:56Z</time>
      </trkpt>
      <trkpt lat="49.17386" lon="3.95698">
        <ele>140.6</ele>
        <time>2026-08-24T11:26:57Z</time>
      </trkpt>
      <trkpt lat="49.17382" lon="3.95706">
        <ele>140.4</ele>
        <time>2026-08-24T11:26:58Z</time>
      </trkpt>
      <trkpt lat="49.17379" lon="3.95714">
        <ele>140.4</ele>
        <time>2026-08-24T11:26:59Z</time>
      </trkpt>
      <trkpt lat="49.17375" lon="3.95722">
        <ele>140.2</ele>
        <time>2026-08-24T11:27:00Z</time>
      </trkpt>
      <trkpt lat="49.17371" lon="3.95731">
        <ele>140</ele>
        <time>2026-08-24T11:27:01Z</time>
      </trkpt>
      <trkpt lat="49.17368" lon="3.95739">
        <ele>140</ele>
        <time>2026-08-24T11:27:02Z</time>
      </trkpt>
      <trkpt lat="49.17364" lon="3.95747">
        <ele>140</ele>
        <time>2026-08-24T11:27:03Z</time>
      </trkpt>
      <trkpt lat="49.17361" lon="3.95756">
        <ele>140</ele>
        <time>2026-08-24T11:27:04Z</time>
      </trkpt>
      <trkpt lat="49.17357" lon="3.95764">
        <ele>139.8</ele>
        <time>2026-08-24T11:27:05Z</time>
      </trkpt>
      <trkpt lat="49.17354" lon="3.95772">
        <ele>139.8</ele>
        <time>2026-08-24T11:27:06Z</time>
      </trkpt>
      <trkpt lat="49.17351" lon="3.95779">
        <ele>139.8</ele>
        <time>2026-08-24T11:27:07Z</time>
      </trkpt>
      <trkpt lat="49.17348" lon="3.95786">
        <ele>139.6</ele>
        <time>2026-08-24T11:27:08Z</time>
      </trkpt>
      <trkpt lat="49.17344" lon="3.95794">
        <ele>139.6</ele>
        <time>2026-08-24T11:27:09Z</time>
      </trkpt>
      <trkpt lat="49.17341" lon="3.95801">
        <ele>139.4</ele>
        <time>2026-08-24T11:27:10Z</time>
      </trkpt>
      <trkpt lat="49.17338" lon="3.95808">
        <ele>139.4</ele>
        <time>2026-08-24T11:27:11Z</time>
      </trkpt>
      <trkpt lat="49.17335" lon="3.95814">
        <ele>139.2</ele>
        <time>2026-08-24T11:27:12Z</time>
      </trkpt>
      <trkpt lat="49.17332" lon="3.95821">
        <ele>139.2</ele>
        <time>2026-08-24T11:27:13Z</time>
      </trkpt>
      <trkpt lat="49.17329" lon="3.95827">
        <ele>139.4</ele>
        <time>2026-08-24T11:27:14Z</time>
      </trkpt>
      <trkpt lat="49.17327" lon="3.95834">
        <ele>139.6</ele>
        <time>2026-08-24T11:27:15Z</time>
      </trkpt>
      <trkpt lat="49.17324" lon="3.9584">
        <ele>139.8</ele>
        <time>2026-08-24T11:27:16Z</time>
      </trkpt>
      <trkpt lat="49.17321" lon="3.95847">
        <ele>139.8</ele>
        <time>2026-08-24T11:27:17Z</time>
      </trkpt>
      <trkpt lat="49.17318" lon="3.95853">
        <ele>140</ele>
        <time>2026-08-24T11:27:18Z</time>
      </trkpt>
      <trkpt lat="49.17315" lon="3.95859">
        <ele>140</ele>
        <time>2026-08-24T11:27:19Z</time>
      </trkpt>
      <trkpt lat="49.17311" lon="3.95867">
        <ele>140</ele>
        <time>2026-08-24T11:27:20Z</time>
      </trkpt>
      <trkpt lat="49.17308" lon="3.95874">
        <ele>139.8</ele>
        <time>2026-08-24T11:27:21Z</time>
      </trkpt>
      <trkpt lat="49.17304" lon="3.95882">
        <ele>139.6</ele>
        <time>2026-08-24T11:27:22Z</time>
      </trkpt>
      <trkpt lat="49.173" lon="3.9589">
        <ele>139.2</ele>
        <time>2026-08-24T11:27:23Z</time>
      </trkpt>
      <trkpt lat="49.17296" lon="3.95899">
        <ele>138.8</ele>
        <time>2026-08-24T11:27:24Z</time>
      </trkpt>
      <trkpt lat="49.17291" lon="3.95907">
        <ele>138.6</ele>
        <time>2026-08-24T11:27:25Z</time>
      </trkpt>
      <trkpt lat="49.17287" lon="3.95916">
        <ele>138.4</ele>
        <time>2026-08-24T11:27:26Z</time>
      </trkpt>
      <trkpt lat="49.17282" lon="3.95925">
        <ele>138.2</ele>
        <time>2026-08-24T11:27:27Z</time>
      </trkpt>
      <trkpt lat="49.17277" lon="3.95933">
        <ele>138</ele>
        <time>2026-08-24T11:27:28Z</time>
      </trkpt>
      <trkpt lat="49.17272" lon="3.95942">
        <ele>137.8</ele>
        <time>2026-08-24T11:27:29Z</time>
      </trkpt>
      <trkpt lat="49.17267" lon="3.95951">
        <ele>137.6</ele>
        <time>2026-08-24T11:27:30Z</time>
      </trkpt>
      <trkpt lat="49.17263" lon="3.95959">
        <ele>137.4</ele>
        <time>2026-08-24T11:27:31Z</time>
      </trkpt>
      <trkpt lat="49.17258" lon="3.95967">
        <ele>137.2</ele>
        <time>2026-08-24T11:27:32Z</time>
      </trkpt>
      <trkpt lat="49.17253" lon="3.95976">
        <ele>137.2</ele>
        <time>2026-08-24T11:27:33Z</time>
      </trkpt>
      <trkpt lat="49.17249" lon="3.95984">
        <ele>137.2</ele>
        <time>2026-08-24T11:27:34Z</time>
      </trkpt>
      <trkpt lat="49.17244" lon="3.95992">
        <ele>137.2</ele>
        <time>2026-08-24T11:27:35Z</time>
      </trkpt>
      <trkpt lat="49.1724" lon="3.96">
        <ele>137.4</ele>
        <time>2026-08-24T11:27:36Z</time>
      </trkpt>
      <trkpt lat="49.17235" lon="3.96007">
        <ele>137.4</ele>
        <time>2026-08-24T11:27:37Z</time>
      </trkpt>
      <trkpt lat="49.17232" lon="3.96013">
        <ele>137.4</ele>
        <time>2026-08-24T11:27:38Z</time>
      </trkpt>
      <trkpt lat="49.17229" lon="3.96019">
        <ele>137.2</ele>
        <time>2026-08-24T11:27:39Z</time>
      </trkpt>
      <trkpt lat="49.17226" lon="3.96024">
        <ele>137.2</ele>
        <time>2026-08-24T11:27:40Z</time>
      </trkpt>
      <trkpt lat="49.17223" lon="3.96029">
        <ele>137</ele>
        <time>2026-08-24T11:27:41Z</time>
      </trkpt>
      <trkpt lat="49.1722" lon="3.96033">
        <ele>137</ele>
        <time>2026-08-24T11:27:42Z</time>
      </trkpt>
      <trkpt lat="49.17218" lon="3.96037">
        <ele>137</ele>
        <time>2026-08-24T11:27:43Z</time>
      </trkpt>
      <trkpt lat="49.17215" lon="3.96041">
        <ele>136.8</ele>
        <time>2026-08-24T11:27:44Z</time>
      </trkpt>
      <trkpt lat="49.17213" lon="3.96046">
        <ele>137</ele>
        <time>2026-08-24T11:27:45Z</time>
      </trkpt>
      <trkpt lat="49.17211" lon="3.9605">
        <ele>137</ele>
        <time>2026-08-24T11:27:46Z</time>
      </trkpt>
      <trkpt lat="49.17208" lon="3.96055">
        <ele>137.2</ele>
        <time>2026-08-24T11:27:47Z</time>
      </trkpt>
      <trkpt lat="49.17205" lon="3.9606">
        <ele>137.2</ele>
        <time>2026-08-24T11:27:48Z</time>
      </trkpt>
      <trkpt lat="49.17202" lon="3.96065">
        <ele>137.4</ele>
        <time>2026-08-24T11:27:49Z</time>
      </trkpt>
      <trkpt lat="49.17199" lon="3.9607">
        <ele>137.6</ele>
        <time>2026-08-24T11:27:50Z</time>
      </trkpt>
      <trkpt lat="49.17196" lon="3.96076">
        <ele>137.6</ele>
        <time>2026-08-24T11:27:51Z</time>
      </trkpt>
      <trkpt lat="49.17193" lon="3.96082">
        <ele>137.8</ele>
        <time>2026-08-24T11:27:52Z</time>
      </trkpt>
      <trkpt lat="49.17189" lon="3.96088">
        <ele>138</ele>
        <time>2026-08-24T11:27:53Z</time>
      </trkpt>
      <trkpt lat="49.17186" lon="3.96094">
        <ele>138.2</ele>
        <time>2026-08-24T11:27:54Z</time>
      </trkpt>
      <trkpt lat="49.17182" lon="3.96101">
        <ele>138.2</ele>
        <time>2026-08-24T11:27:55Z</time>
      </trkpt>
      <trkpt lat="49.17179" lon="3.96108">
        <ele>138.2</ele>
        <time>2026-08-24T11:27:56Z</time>
      </trkpt>
      <trkpt lat="49.17175" lon="3.96115">
        <ele>138.2</ele>
        <time>2026-08-24T11:27:57Z</time>
      </trkpt>
      <trkpt lat="49.17171" lon="3.96122">
        <ele>138.4</ele>
        <time>2026-08-24T11:27:58Z</time>
      </trkpt>
      <trkpt lat="49.17167" lon="3.96129">
        <ele>138.4</ele>
        <time>2026-08-24T11:27:59Z</time>
      </trkpt>
      <trkpt lat="49.17163" lon="3.96137">
        <ele>138.4</ele>
        <time>2026-08-24T11:28:00Z</time>
      </trkpt>
      <trkpt lat="49.17159" lon="3.96145">
        <ele>138.4</ele>
        <time>2026-08-24T11:28:01Z</time>
      </trkpt>
      <trkpt lat="49.17155" lon="3.96153">
        <ele>138.2</ele>
        <time>2026-08-24T11:28:02Z</time>
      </trkpt>
      <trkpt lat="49.17151" lon="3.96162">
        <ele>138</ele>
        <time>2026-08-24T11:28:03Z</time>
      </trkpt>
      <trkpt lat="49.17146" lon="3.96172">
        <ele>137.6</ele>
        <time>2026-08-24T11:28:04Z</time>
      </trkpt>
      <trkpt lat="49.17142" lon="3.96182">
        <ele>137.2</ele>
        <time>2026-08-24T11:28:05Z</time>
      </trkpt>
      <trkpt lat="49.17138" lon="3.96192">
        <ele>136.8</ele>
        <time>2026-08-24T11:28:06Z</time>
      </trkpt>
      <trkpt lat="49.17133" lon="3.96203">
        <ele>136.4</ele>
        <time>2026-08-24T11:28:07Z</time>
      </trkpt>
      <trkpt lat="49.17129" lon="3.96215">
        <ele>136</ele>
        <time>2026-08-24T11:28:08Z</time>
      </trkpt>
      <trkpt lat="49.17125" lon="3.96227">
        <ele>135.6</ele>
        <time>2026-08-24T11:28:09Z</time>
      </trkpt>
      <trkpt lat="49.1712" lon="3.96239">
        <ele>135.6</ele>
        <time>2026-08-24T11:28:10Z</time>
      </trkpt>
      <trkpt lat="49.17116" lon="3.96252">
        <ele>135</ele>
        <time>2026-08-24T11:28:11Z</time>
      </trkpt>
      <trkpt lat="49.17111" lon="3.96265">
        <ele>134.6</ele>
        <time>2026-08-24T11:28:12Z</time>
      </trkpt>
      <trkpt lat="49.17107" lon="3.96278">
        <ele>134.2</ele>
        <time>2026-08-24T11:28:13Z</time>
      </trkpt>
      <trkpt lat="49.17102" lon="3.96291">
        <ele>133.8</ele>
        <time>2026-08-24T11:28:14Z</time>
      </trkpt>
      <trkpt lat="49.17098" lon="3.96304">
        <ele>133.4</ele>
        <time>2026-08-24T11:28:15Z</time>
      </trkpt>
      <trkpt lat="49.17093" lon="3.96317">
        <ele>133.4</ele>
        <time>2026-08-24T11:28:16Z</time>
      </trkpt>
      <trkpt lat="49.17089" lon="3.96329">
        <ele>133</ele>
        <time>2026-08-24T11:28:17Z</time>
      </trkpt>
      <trkpt lat="49.17085" lon="3.96341">
        <ele>132.8</ele>
        <time>2026-08-24T11:28:18Z</time>
      </trkpt>
      <trkpt lat="49.17081" lon="3.96353">
        <ele>132.6</ele>
        <time>2026-08-24T11:28:19Z</time>
      </trkpt>
      <trkpt lat="49.17077" lon="3.96365">
        <ele>132</ele>
        <time>2026-08-24T11:28:20Z</time>
      </trkpt>
      <trkpt lat="49.17073" lon="3.96376">
        <ele>131.8</ele>
        <time>2026-08-24T11:28:21Z</time>
      </trkpt>
      <trkpt lat="49.1707" lon="3.96387">
        <ele>131.4</ele>
        <time>2026-08-24T11:28:22Z</time>
      </trkpt>
      <trkpt lat="49.17066" lon="3.96398">
        <ele>131.4</ele>
        <time>2026-08-24T11:28:23Z</time>
      </trkpt>
      <trkpt lat="49.17062" lon="3.96408">
        <ele>131.4</ele>
        <time>2026-08-24T11:28:24Z</time>
      </trkpt>
      <trkpt lat="49.17059" lon="3.96419">
        <ele>131.8</ele>
        <time>2026-08-24T11:28:25Z</time>
      </trkpt>
      <trkpt lat="49.17055" lon="3.96429">
        <ele>132</ele>
        <time>2026-08-24T11:28:26Z</time>
      </trkpt>
      <trkpt lat="49.17052" lon="3.96439">
        <ele>132.4</ele>
        <time>2026-08-24T11:28:27Z</time>
      </trkpt>
      <trkpt lat="49.17048" lon="3.96449">
        <ele>133</ele>
        <time>2026-08-24T11:28:28Z</time>
      </trkpt>
      <trkpt lat="49.17045" lon="3.96458">
        <ele>133.4</ele>
        <time>2026-08-24T11:28:29Z</time>
      </trkpt>
      <trkpt lat="49.17042" lon="3.96467">
        <ele>134</ele>
        <time>2026-08-24T11:28:30Z</time>
      </trkpt>
      <trkpt lat="49.17039" lon="3.96476">
        <ele>134.6</ele>
        <time>2026-08-24T11:28:31Z</time>
      </trkpt>
      <trkpt lat="49.17036" lon="3.96485">
        <ele>135</ele>
        <time>2026-08-24T11:28:32Z</time>
      </trkpt>
      <trkpt lat="49.17033" lon="3.96493">
        <ele>135.2</ele>
        <time>2026-08-24T11:28:33Z</time>
      </trkpt>
      <trkpt lat="49.1703" lon="3.96501">
        <ele>135.4</ele>
        <time>2026-08-24T11:28:34Z</time>
      </trkpt>
      <trkpt lat="49.17028" lon="3.96509">
        <ele>135.8</ele>
        <time>2026-08-24T11:28:35Z</time>
      </trkpt>
      <trkpt lat="49.17025" lon="3.96516">
        <ele>135.8</ele>
        <time>2026-08-24T11:28:36Z</time>
      </trkpt>
      <trkpt lat="49.17023" lon="3.96524">
        <ele>136</ele>
        <time>2026-08-24T11:28:37Z</time>
      </trkpt>
      <trkpt lat="49.1702" lon="3.96532">
        <ele>136.2</ele>
        <time>2026-08-24T11:28:38Z</time>
      </trkpt>
      <trkpt lat="49.17018" lon="3.96539">
        <ele>136.4</ele>
        <time>2026-08-24T11:28:39Z</time>
      </trkpt>
      <trkpt lat="49.17015" lon="3.96546">
        <ele>136.2</ele>
        <time>2026-08-24T11:28:40Z</time>
      </trkpt>
      <trkpt lat="49.17013" lon="3.96553">
        <ele>136.2</ele>
        <time>2026-08-24T11:28:41Z</time>
      </trkpt>
      <trkpt lat="49.1701" lon="3.96561">
        <ele>136.2</ele>
        <time>2026-08-24T11:28:42Z</time>
      </trkpt>
      <trkpt lat="49.17008" lon="3.96567">
        <ele>136.2</ele>
        <time>2026-08-24T11:28:43Z</time>
      </trkpt>
      <trkpt lat="49.17005" lon="3.96574">
        <ele>136</ele>
        <time>2026-08-24T11:28:44Z</time>
      </trkpt>
      <trkpt lat="49.17003" lon="3.96581">
        <ele>136.2</ele>
        <time>2026-08-24T11:28:45Z</time>
      </trkpt>
      <trkpt lat="49.17" lon="3.96589">
        <ele>136.4</ele>
        <time>2026-08-24T11:28:46Z</time>
      </trkpt>
      <trkpt lat="49.16998" lon="3.96596">
        <ele>136.4</ele>
        <time>2026-08-24T11:28:47Z</time>
      </trkpt>
      <trkpt lat="49.16996" lon="3.96604">
        <ele>136.4</ele>
        <time>2026-08-24T11:28:48Z</time>
      </trkpt>
      <trkpt lat="49.16993" lon="3.96612">
        <ele>136.6</ele>
        <time>2026-08-24T11:28:49Z</time>
      </trkpt>
      <trkpt lat="49.1699" lon="3.9662">
        <ele>136.6</ele>
        <time>2026-08-24T11:28:50Z</time>
      </trkpt>
      <trkpt lat="49.16988" lon="3.96628">
        <ele>136.6</ele>
        <time>2026-08-24T11:28:51Z</time>
      </trkpt>
      <trkpt lat="49.16985" lon="3.96636">
        <ele>136.8</ele>
        <time>2026-08-24T11:28:52Z</time>
      </trkpt>
      <trkpt lat="49.16982" lon="3.96644">
        <ele>136.8</ele>
        <time>2026-08-24T11:28:53Z</time>
      </trkpt>
      <trkpt lat="49.16979" lon="3.96653">
        <ele>136.6</ele>
        <time>2026-08-24T11:28:54Z</time>
      </trkpt>
      <trkpt lat="49.16976" lon="3.96661">
        <ele>136.6</ele>
        <time>2026-08-24T11:28:55Z</time>
      </trkpt>
      <trkpt lat="49.16973" lon="3.9667">
        <ele>136.4</ele>
        <time>2026-08-24T11:28:56Z</time>
      </trkpt>
      <trkpt lat="49.1697" lon="3.96678">
        <ele>136.4</ele>
        <time>2026-08-24T11:28:57Z</time>
      </trkpt>
      <trkpt lat="49.16967" lon="3.96687">
        <ele>136.2</ele>
        <time>2026-08-24T11:28:58Z</time>
      </trkpt>
      <trkpt lat="49.16965" lon="3.96695">
        <ele>136.4</ele>
        <time>2026-08-24T11:28:59Z</time>
      </trkpt>
      <trkpt lat="49.16962" lon="3.96704">
        <ele>136.4</ele>
        <time>2026-08-24T11:29:00Z</time>
      </trkpt>
      <trkpt lat="49.16959" lon="3.96712">
        <ele>136.4</ele>
        <time>2026-08-24T11:29:01Z</time>
      </trkpt>
      <trkpt lat="49.16956" lon="3.96721">
        <ele>136.4</ele>
        <time>2026-08-24T11:29:02Z</time>
      </trkpt>
      <trkpt lat="49.16953" lon="3.96729">
        <ele>136.4</ele>
        <time>2026-08-24T11:29:03Z</time>
      </trkpt>
      <trkpt lat="49.16951" lon="3.96738">
        <ele>136.4</ele>
        <time>2026-08-24T11:29:04Z</time>
      </trkpt>
      <trkpt lat="49.16948" lon="3.96746">
        <ele>136.4</ele>
        <time>2026-08-24T11:29:05Z</time>
      </trkpt>
      <trkpt lat="49.16945" lon="3.96754">
        <ele>136.2</ele>
        <time>2026-08-24T11:29:06Z</time>
      </trkpt>
      <trkpt lat="49.16942" lon="3.96762">
        <ele>136.4</ele>
        <time>2026-08-24T11:29:07Z</time>
      </trkpt>
      <trkpt lat="49.1694" lon="3.9677">
        <ele>136.4</ele>
        <time>2026-08-24T11:29:08Z</time>
      </trkpt>
      <trkpt lat="49.16937" lon="3.96777">
        <ele>136.4</ele>
        <time>2026-08-24T11:29:09Z</time>
      </trkpt>
      <trkpt lat="49.16935" lon="3.96785">
        <ele>136.6</ele>
        <time>2026-08-24T11:29:10Z</time>
      </trkpt>
      <trkpt lat="49.16933" lon="3.96792">
        <ele>136.8</ele>
        <time>2026-08-24T11:29:11Z</time>
      </trkpt>
      <trkpt lat="49.16931" lon="3.96799">
        <ele>137.2</ele>
        <time>2026-08-24T11:29:12Z</time>
      </trkpt>
      <trkpt lat="49.16929" lon="3.96805">
        <ele>137.6</ele>
        <time>2026-08-24T11:29:13Z</time>
      </trkpt>
      <trkpt lat="49.16927" lon="3.96811">
        <ele>138.2</ele>
        <time>2026-08-24T11:29:14Z</time>
      </trkpt>
      <trkpt lat="49.16925" lon="3.96818">
        <ele>138.6</ele>
        <time>2026-08-24T11:29:15Z</time>
      </trkpt>
      <trkpt lat="49.16923" lon="3.96824">
        <ele>138.8</ele>
        <time>2026-08-24T11:29:16Z</time>
      </trkpt>
      <trkpt lat="49.16921" lon="3.9683">
        <ele>139.2</ele>
        <time>2026-08-24T11:29:17Z</time>
      </trkpt>
      <trkpt lat="49.16919" lon="3.96836">
        <ele>139.4</ele>
        <time>2026-08-24T11:29:18Z</time>
      </trkpt>
      <trkpt lat="49.16917" lon="3.96842">
        <ele>139.4</ele>
        <time>2026-08-24T11:29:19Z</time>
      </trkpt>
      <trkpt lat="49.16915" lon="3.96849">
        <ele>139.6</ele>
        <time>2026-08-24T11:29:20Z</time>
      </trkpt>
      <trkpt lat="49.16913" lon="3.96854">
        <ele>139.8</ele>
        <time>2026-08-24T11:29:21Z</time>
      </trkpt>
      <trkpt lat="49.16911" lon="3.9686">
        <ele>140</ele>
        <time>2026-08-24T11:29:22Z</time>
      </trkpt>
      <trkpt lat="49.1691" lon="3.96866">
        <ele>140.2</ele>
        <time>2026-08-24T11:29:23Z</time>
      </trkpt>
      <trkpt lat="49.16908" lon="3.96872">
        <ele>140.6</ele>
        <time>2026-08-24T11:29:24Z</time>
      </trkpt>
      <trkpt lat="49.16906" lon="3.96878">
        <ele>140.8</ele>
        <time>2026-08-24T11:29:25Z</time>
      </trkpt>
      <trkpt lat="49.16905" lon="3.96883">
        <ele>141</ele>
        <time>2026-08-24T11:29:26Z</time>
      </trkpt>
      <trkpt lat="49.16903" lon="3.96888">
        <ele>141.2</ele>
        <time>2026-08-24T11:29:27Z</time>
      </trkpt>
      <trkpt lat="49.16901" lon="3.96893">
        <ele>141.4</ele>
        <time>2026-08-24T11:29:28Z</time>
      </trkpt>
      <trkpt lat="49.169" lon="3.96898">
        <ele>141.6</ele>
        <time>2026-08-24T11:29:29Z</time>
      </trkpt>
      <trkpt lat="49.16898" lon="3.96903">
        <ele>141.8</ele>
        <time>2026-08-24T11:29:30Z</time>
      </trkpt>
      <trkpt lat="49.16896" lon="3.96909">
        <ele>141.8</ele>
        <time>2026-08-24T11:29:31Z</time>
      </trkpt>
      <trkpt lat="49.16895" lon="3.96914">
        <ele>142</ele>
        <time>2026-08-24T11:29:32Z</time>
      </trkpt>
      <trkpt lat="49.16893" lon="3.96919">
        <ele>142</ele>
        <time>2026-08-24T11:29:33Z</time>
      </trkpt>
      <trkpt lat="49.16891" lon="3.96924">
        <ele>142.2</ele>
        <time>2026-08-24T11:29:34Z</time>
      </trkpt>
      <trkpt lat="49.1689" lon="3.96929">
        <ele>142.4</ele>
        <time>2026-08-24T11:29:35Z</time>
      </trkpt>
      <trkpt lat="49.16888" lon="3.96934">
        <ele>142.6</ele>
        <time>2026-08-24T11:29:36Z</time>
      </trkpt>
      <trkpt lat="49.16887" lon="3.96939">
        <ele>142.8</ele>
        <time>2026-08-24T11:29:37Z</time>
      </trkpt>
      <trkpt lat="49.16885" lon="3.96944">
        <ele>143</ele>
        <time>2026-08-24T11:29:38Z</time>
      </trkpt>
      <trkpt lat="49.16884" lon="3.96948">
        <ele>143.4</ele>
        <time>2026-08-24T11:29:39Z</time>
      </trkpt>
      <trkpt lat="49.16882" lon="3.96953">
        <ele>143.6</ele>
        <time>2026-08-24T11:29:40Z</time>
      </trkpt>
      <trkpt lat="49.16881" lon="3.96958">
        <ele>143.8</ele>
        <time>2026-08-24T11:29:41Z</time>
      </trkpt>
      <trkpt lat="49.16879" lon="3.96963">
        <ele>144.2</ele>
        <time>2026-08-24T11:29:42Z</time>
      </trkpt>
      <trkpt lat="49.16877" lon="3.96968">
        <ele>144.4</ele>
        <time>2026-08-24T11:29:43Z</time>
      </trkpt>
      <trkpt lat="49.16876" lon="3.96973">
        <ele>144.4</ele>
        <time>2026-08-24T11:29:44Z</time>
      </trkpt>
      <trkpt lat="49.16874" lon="3.96978">
        <ele>144.6</ele>
        <time>2026-08-24T11:29:45Z</time>
      </trkpt>
      <trkpt lat="49.16872" lon="3.96983">
        <ele>144.8</ele>
        <time>2026-08-24T11:29:46Z</time>
      </trkpt>
      <trkpt lat="49.16871" lon="3.96988">
        <ele>145</ele>
        <time>2026-08-24T11:29:47Z</time>
      </trkpt>
      <trkpt lat="49.16869" lon="3.96993">
        <ele>145.2</ele>
        <time>2026-08-24T11:29:48Z</time>
      </trkpt>
      <trkpt lat="49.16868" lon="3.96997">
        <ele>145.6</ele>
        <time>2026-08-24T11:29:49Z</time>
      </trkpt>
      <trkpt lat="49.16867" lon="3.97003">
        <ele>146</ele>
        <time>2026-08-24T11:29:50Z</time>
      </trkpt>
      <trkpt lat="49.16865" lon="3.97008">
        <ele>146.2</ele>
        <time>2026-08-24T11:29:51Z</time>
      </trkpt>
      <trkpt lat="49.16863" lon="3.97014">
        <ele>146.4</ele>
        <time>2026-08-24T11:29:52Z</time>
      </trkpt>
      <trkpt lat="49.16861" lon="3.97019">
        <ele>146.6</ele>
        <time>2026-08-24T11:29:53Z</time>
      </trkpt>
      <trkpt lat="49.1686" lon="3.97024">
        <ele>146.6</ele>
        <time>2026-08-24T11:29:54Z</time>
      </trkpt>
      <trkpt lat="49.16858" lon="3.97029">
        <ele>146.6</ele>
        <time>2026-08-24T11:29:55Z</time>
      </trkpt>
      <trkpt lat="49.16856" lon="3.97034">
        <ele>146.6</ele>
        <time>2026-08-24T11:29:56Z</time>
      </trkpt>
      <trkpt lat="49.16855" lon="3.97039">
        <ele>146.6</ele>
        <time>2026-08-24T11:29:57Z</time>
      </trkpt>
      <trkpt lat="49.16853" lon="3.97044">
        <ele>146.6</ele>
        <time>2026-08-24T11:29:58Z</time>
      </trkpt>
      <trkpt lat="49.16852" lon="3.97049">
        <ele>146.6</ele>
        <time>2026-08-24T11:29:59Z</time>
      </trkpt>
      <trkpt lat="49.1685" lon="3.97054">
        <ele>146.8</ele>
        <time>2026-08-24T11:30:00Z</time>
      </trkpt>
      <trkpt lat="49.16849" lon="3.97059">
        <ele>146.8</ele>
        <time>2026-08-24T11:30:01Z</time>
      </trkpt>
      <trkpt lat="49.16847" lon="3.97064">
        <ele>146.8</ele>
        <time>2026-08-24T11:30:02Z</time>
      </trkpt>
      <trkpt lat="49.16846" lon="3.97068">
        <ele>146.8</ele>
        <time>2026-08-24T11:30:03Z</time>
      </trkpt>
      <trkpt lat="49.16844" lon="3.97073">
        <ele>147</ele>
        <time>2026-08-24T11:30:04Z</time>
      </trkpt>
      <trkpt lat="49.16843" lon="3.97078">
        <ele>147.2</ele>
        <time>2026-08-24T11:30:05Z</time>
      </trkpt>
      <trkpt lat="49.16841" lon="3.97083">
        <ele>147.2</ele>
        <time>2026-08-24T11:30:06Z</time>
      </trkpt>
      <trkpt lat="49.16839" lon="3.97088">
        <ele>147.4</ele>
        <time>2026-08-24T11:30:07Z</time>
      </trkpt>
      <trkpt lat="49.16838" lon="3.97093">
        <ele>147.6</ele>
        <time>2026-08-24T11:30:08Z</time>
      </trkpt>
      <trkpt lat="49.16836" lon="3.97098">
        <ele>147.6</ele>
        <time>2026-08-24T11:30:09Z</time>
      </trkpt>
      <trkpt lat="49.16835" lon="3.97103">
        <ele>147.6</ele>
        <time>2026-08-24T11:30:10Z</time>
      </trkpt>
      <trkpt lat="49.16833" lon="3.97108">
        <ele>147.8</ele>
        <time>2026-08-24T11:30:11Z</time>
      </trkpt>
      <trkpt lat="49.16832" lon="3.97113">
        <ele>148</ele>
        <time>2026-08-24T11:30:12Z</time>
      </trkpt>
      <trkpt lat="49.1683" lon="3.97118">
        <ele>148.2</ele>
        <time>2026-08-24T11:30:13Z</time>
      </trkpt>
      <trkpt lat="49.16828" lon="3.97124">
        <ele>148.4</ele>
        <time>2026-08-24T11:30:14Z</time>
      </trkpt>
      <trkpt lat="49.16826" lon="3.97129">
        <ele>148.6</ele>
        <time>2026-08-24T11:30:15Z</time>
      </trkpt>
      <trkpt lat="49.16825" lon="3.97135">
        <ele>148.8</ele>
        <time>2026-08-24T11:30:16Z</time>
      </trkpt>
      <trkpt lat="49.16823" lon="3.97141">
        <ele>149</ele>
        <time>2026-08-24T11:30:17Z</time>
      </trkpt>
      <trkpt lat="49.16821" lon="3.97146">
        <ele>149</ele>
        <time>2026-08-24T11:30:18Z</time>
      </trkpt>
      <trkpt lat="49.16819" lon="3.97152">
        <ele>149.2</ele>
        <time>2026-08-24T11:30:19Z</time>
      </trkpt>
      <trkpt lat="49.16817" lon="3.97158">
        <ele>149.4</ele>
        <time>2026-08-24T11:30:20Z</time>
      </trkpt>
      <trkpt lat="49.16815" lon="3.97165">
        <ele>149.6</ele>
        <time>2026-08-24T11:30:21Z</time>
      </trkpt>
      <trkpt lat="49.16814" lon="3.97172">
        <ele>149.8</ele>
        <time>2026-08-24T11:30:22Z</time>
      </trkpt>
      <trkpt lat="49.16813" lon="3.97178">
        <ele>150</ele>
        <time>2026-08-24T11:30:23Z</time>
      </trkpt>
      <trkpt lat="49.16811" lon="3.97185">
        <ele>150</ele>
        <time>2026-08-24T11:30:24Z</time>
      </trkpt>
      <trkpt lat="49.1681" lon="3.97192">
        <ele>150</ele>
        <time>2026-08-24T11:30:25Z</time>
      </trkpt>
      <trkpt lat="49.16809" lon="3.97199">
        <ele>150</ele>
        <time>2026-08-24T11:30:26Z</time>
      </trkpt>
      <trkpt lat="49.16808" lon="3.97205">
        <ele>149.8</ele>
        <time>2026-08-24T11:30:27Z</time>
      </trkpt>
      <trkpt lat="49.16807" lon="3.9721">
        <ele>149.8</ele>
        <time>2026-08-24T11:30:28Z</time>
      </trkpt>
      <trkpt lat="49.16805" lon="3.97214">
        <ele>149.8</ele>
        <time>2026-08-24T11:30:29Z</time>
      </trkpt>
      <trkpt lat="49.16803" lon="3.97218">
        <ele>149.8</ele>
        <time>2026-08-24T11:30:30Z</time>
      </trkpt>
      <trkpt lat="49.168" lon="3.97223">
        <ele>149.8</ele>
        <time>2026-08-24T11:30:31Z</time>
      </trkpt>
      <trkpt lat="49.16796" lon="3.97227">
        <ele>149.6</ele>
        <time>2026-08-24T11:30:32Z</time>
      </trkpt>
      <trkpt lat="49.16792" lon="3.9723">
        <ele>149.6</ele>
        <time>2026-08-24T11:30:33Z</time>
      </trkpt>
      <trkpt lat="49.16787" lon="3.97232">
        <ele>149.4</ele>
        <time>2026-08-24T11:30:34Z</time>
      </trkpt>
      <trkpt lat="49.16781" lon="3.97234">
        <ele>149.2</ele>
        <time>2026-08-24T11:30:35Z</time>
      </trkpt>
      <trkpt lat="49.16775" lon="3.97234">
        <ele>149</ele>
        <time>2026-08-24T11:30:36Z</time>
      </trkpt>
      <trkpt lat="49.16769" lon="3.97234">
        <ele>148.8</ele>
        <time>2026-08-24T11:30:37Z</time>
      </trkpt>
      <trkpt lat="49.16762" lon="3.97234">
        <ele>148.6</ele>
        <time>2026-08-24T11:30:38Z</time>
      </trkpt>
      <trkpt lat="49.16755" lon="3.97234">
        <ele>148.4</ele>
        <time>2026-08-24T11:30:39Z</time>
      </trkpt>
      <trkpt lat="49.16748" lon="3.97233">
        <ele>148</ele>
        <time>2026-08-24T11:30:40Z</time>
      </trkpt>
      <trkpt lat="49.16741" lon="3.97233">
        <ele>147.6</ele>
        <time>2026-08-24T11:30:41Z</time>
      </trkpt>
      <trkpt lat="49.16733" lon="3.97232">
        <ele>147.2</ele>
        <time>2026-08-24T11:30:42Z</time>
      </trkpt>
      <trkpt lat="49.16725" lon="3.97232">
        <ele>146.8</ele>
        <time>2026-08-24T11:30:43Z</time>
      </trkpt>
      <trkpt lat="49.16717" lon="3.97232">
        <ele>146.6</ele>
        <time>2026-08-24T11:30:44Z</time>
      </trkpt>
      <trkpt lat="49.16708" lon="3.97231">
        <ele>146.2</ele>
        <time>2026-08-24T11:30:45Z</time>
      </trkpt>
      <trkpt lat="49.167" lon="3.9723">
        <ele>145.8</ele>
        <time>2026-08-24T11:30:46Z</time>
      </trkpt>
      <trkpt lat="49.16691" lon="3.9723">
        <ele>145.6</ele>
        <time>2026-08-24T11:30:47Z</time>
      </trkpt>
      <trkpt lat="49.16681" lon="3.97229">
        <ele>145</ele>
        <time>2026-08-24T11:30:48Z</time>
      </trkpt>
      <trkpt lat="49.16672" lon="3.97229">
        <ele>144.4</ele>
        <time>2026-08-24T11:30:49Z</time>
      </trkpt>
      <trkpt lat="49.16663" lon="3.97229">
        <ele>143.8</ele>
        <time>2026-08-24T11:30:50Z</time>
      </trkpt>
      <trkpt lat="49.16654" lon="3.97229">
        <ele>143.4</ele>
        <time>2026-08-24T11:30:51Z</time>
      </trkpt>
      <trkpt lat="49.16644" lon="3.97229">
        <ele>143</ele>
        <time>2026-08-24T11:30:52Z</time>
      </trkpt>
      <trkpt lat="49.16634" lon="3.97228">
        <ele>142.8</ele>
        <time>2026-08-24T11:30:53Z</time>
      </trkpt>
      <trkpt lat="49.16625" lon="3.97228">
        <ele>142.4</ele>
        <time>2026-08-24T11:30:54Z</time>
      </trkpt>
      <trkpt lat="49.16615" lon="3.97227">
        <ele>142.2</ele>
        <time>2026-08-24T11:30:55Z</time>
      </trkpt>
      <trkpt lat="49.16605" lon="3.97226">
        <ele>141.6</ele>
        <time>2026-08-24T11:30:56Z</time>
      </trkpt>
      <trkpt lat="49.16596" lon="3.97226">
        <ele>141.2</ele>
        <time>2026-08-24T11:30:57Z</time>
      </trkpt>
      <trkpt lat="49.16586" lon="3.97226">
        <ele>140.8</ele>
        <time>2026-08-24T11:30:58Z</time>
      </trkpt>
      <trkpt lat="49.16577" lon="3.97225">
        <ele>140.6</ele>
        <time>2026-08-24T11:30:59Z</time>
      </trkpt>
      <trkpt lat="49.16568" lon="3.97225">
        <ele>140.6</ele>
        <time>2026-08-24T11:31:00Z</time>
      </trkpt>
      <trkpt lat="49.1656" lon="3.97224">
        <ele>140.6</ele>
        <time>2026-08-24T11:31:01Z</time>
      </trkpt>
      <trkpt lat="49.16551" lon="3.97224">
        <ele>140.4</ele>
        <time>2026-08-24T11:31:02Z</time>
      </trkpt>
      <trkpt lat="49.16542" lon="3.97224">
        <ele>140.4</ele>
        <time>2026-08-24T11:31:03Z</time>
      </trkpt>
      <trkpt lat="49.16534" lon="3.97223">
        <ele>140.4</ele>
        <time>2026-08-24T11:31:04Z</time>
      </trkpt>
      <trkpt lat="49.16526" lon="3.97223">
        <ele>140.4</ele>
        <time>2026-08-24T11:31:05Z</time>
      </trkpt>
      <trkpt lat="49.16518" lon="3.97222">
        <ele>140.4</ele>
        <time>2026-08-24T11:31:06Z</time>
      </trkpt>
      <trkpt lat="49.16511" lon="3.97222">
        <ele>140.6</ele>
        <time>2026-08-24T11:31:07Z</time>
      </trkpt>
      <trkpt lat="49.16503" lon="3.97223">
        <ele>140.8</ele>
        <time>2026-08-24T11:31:08Z</time>
      </trkpt>
      <trkpt lat="49.16496" lon="3.97223">
        <ele>141</ele>
        <time>2026-08-24T11:31:09Z</time>
      </trkpt>
      <trkpt lat="49.16489" lon="3.97225">
        <ele>141</ele>
        <time>2026-08-24T11:31:10Z</time>
      </trkpt>
      <trkpt lat="49.16482" lon="3.97227">
        <ele>141.4</ele>
        <time>2026-08-24T11:31:11Z</time>
      </trkpt>
      <trkpt lat="49.16476" lon="3.97229">
        <ele>141.6</ele>
        <time>2026-08-24T11:31:12Z</time>
      </trkpt>
      <trkpt lat="49.1647" lon="3.97232">
        <ele>141.8</ele>
        <time>2026-08-24T11:31:13Z</time>
      </trkpt>
      <trkpt lat="49.16464" lon="3.97236">
        <ele>142</ele>
        <time>2026-08-24T11:31:14Z</time>
      </trkpt>
      <trkpt lat="49.16458" lon="3.9724">
        <ele>142.4</ele>
        <time>2026-08-24T11:31:15Z</time>
      </trkpt>
      <trkpt lat="49.16453" lon="3.97243">
        <ele>142.6</ele>
        <time>2026-08-24T11:31:16Z</time>
      </trkpt>
      <trkpt lat="49.16448" lon="3.97248">
        <ele>143</ele>
        <time>2026-08-24T11:31:17Z</time>
      </trkpt>
      <trkpt lat="49.16443" lon="3.97252">
        <ele>143.4</ele>
        <time>2026-08-24T11:31:18Z</time>
      </trkpt>
      <trkpt lat="49.16439" lon="3.97256">
        <ele>143.6</ele>
        <time>2026-08-24T11:31:19Z</time>
      </trkpt>
      <trkpt lat="49.16435" lon="3.97261">
        <ele>144</ele>
        <time>2026-08-24T11:31:20Z</time>
      </trkpt>
      <trkpt lat="49.16431" lon="3.97266">
        <ele>144.4</ele>
        <time>2026-08-24T11:31:21Z</time>
      </trkpt>
      <trkpt lat="49.16428" lon="3.97271">
        <ele>144.8</ele>
        <time>2026-08-24T11:31:22Z</time>
      </trkpt>
      <trkpt lat="49.16424" lon="3.97276">
        <ele>145.2</ele>
        <time>2026-08-24T11:31:23Z</time>
      </trkpt>
      <trkpt lat="49.16421" lon="3.9728">
        <ele>145.4</ele>
        <time>2026-08-24T11:31:24Z</time>
      </trkpt>
      <trkpt lat="49.16418" lon="3.97285">
        <ele>145.8</ele>
        <time>2026-08-24T11:31:25Z</time>
      </trkpt>
      <trkpt lat="49.16416" lon="3.9729">
        <ele>146.2</ele>
        <time>2026-08-24T11:31:26Z</time>
      </trkpt>
      <trkpt lat="49.16413" lon="3.97294">
        <ele>146.4</ele>
        <time>2026-08-24T11:31:27Z</time>
      </trkpt>
      <trkpt lat="49.1641" lon="3.97299">
        <ele>146.8</ele>
        <time>2026-08-24T11:31:28Z</time>
      </trkpt>
      <trkpt lat="49.16408" lon="3.97303">
        <ele>147</ele>
        <time>2026-08-24T11:31:29Z</time>
      </trkpt>
      <trkpt lat="49.16405" lon="3.97308">
        <ele>147.4</ele>
        <time>2026-08-24T11:31:30Z</time>
      </trkpt>
      <trkpt lat="49.16403" lon="3.97312">
        <ele>147.6</ele>
        <time>2026-08-24T11:31:31Z</time>
      </trkpt>
      <trkpt lat="49.164" lon="3.97316">
        <ele>148</ele>
        <time>2026-08-24T11:31:32Z</time>
      </trkpt>
      <trkpt lat="49.16397" lon="3.97321">
        <ele>148.4</ele>
        <time>2026-08-24T11:31:33Z</time>
      </trkpt>
      <trkpt lat="49.16395" lon="3.97325">
        <ele>148.8</ele>
        <time>2026-08-24T11:31:34Z</time>
      </trkpt>
      <trkpt lat="49.16392" lon="3.9733">
        <ele>149.2</ele>
        <time>2026-08-24T11:31:35Z</time>
      </trkpt>
      <trkpt lat="49.1639" lon="3.97334">
        <ele>149.6</ele>
        <time>2026-08-24T11:31:36Z</time>
      </trkpt>
      <trkpt lat="49.16387" lon="3.97338">
        <ele>150</ele>
        <time>2026-08-24T11:31:37Z</time>
      </trkpt>
      <trkpt lat="49.16385" lon="3.97342">
        <ele>150.4</ele>
        <time>2026-08-24T11:31:38Z</time>
      </trkpt>
      <trkpt lat="49.16383" lon="3.97346">
        <ele>150.6</ele>
        <time>2026-08-24T11:31:39Z</time>
      </trkpt>
      <trkpt lat="49.1638" lon="3.9735">
        <ele>150.6</ele>
        <time>2026-08-24T11:31:40Z</time>
      </trkpt>
      <trkpt lat="49.16378" lon="3.97354">
        <ele>150.8</ele>
        <time>2026-08-24T11:31:41Z</time>
      </trkpt>
      <trkpt lat="49.16375" lon="3.97358">
        <ele>150.8</ele>
        <time>2026-08-24T11:31:42Z</time>
      </trkpt>
      <trkpt lat="49.16373" lon="3.97361">
        <ele>151</ele>
        <time>2026-08-24T11:31:43Z</time>
      </trkpt>
      <trkpt lat="49.16371" lon="3.97364">
        <ele>151.2</ele>
        <time>2026-08-24T11:31:44Z</time>
      </trkpt>
      <trkpt lat="49.16369" lon="3.97368">
        <ele>151.4</ele>
        <time>2026-08-24T11:31:45Z</time>
      </trkpt>
      <trkpt lat="49.16367" lon="3.97371">
        <ele>151.8</ele>
        <time>2026-08-24T11:31:46Z</time>
      </trkpt>
      <trkpt lat="49.16365" lon="3.97375">
        <ele>152</ele>
        <time>2026-08-24T11:31:47Z</time>
      </trkpt>
      <trkpt lat="49.16362" lon="3.97379">
        <ele>152.2</ele>
        <time>2026-08-24T11:31:48Z</time>
      </trkpt>
      <trkpt lat="49.1636" lon="3.97383">
        <ele>152.4</ele>
        <time>2026-08-24T11:31:49Z</time>
      </trkpt>
      <trkpt lat="49.16358" lon="3.97386">
        <ele>152.6</ele>
        <time>2026-08-24T11:31:50Z</time>
      </trkpt>
      <trkpt lat="49.16356" lon="3.9739">
        <ele>152.8</ele>
        <time>2026-08-24T11:31:51Z</time>
      </trkpt>
      <trkpt lat="49.16354" lon="3.97394">
        <ele>153</ele>
        <time>2026-08-24T11:31:52Z</time>
      </trkpt>
      <trkpt lat="49.16351" lon="3.97398">
        <ele>153.2</ele>
        <time>2026-08-24T11:31:53Z</time>
      </trkpt>
      <trkpt lat="49.16349" lon="3.97402">
        <ele>153.6</ele>
        <time>2026-08-24T11:31:54Z</time>
      </trkpt>
      <trkpt lat="49.16347" lon="3.97406">
        <ele>154</ele>
        <time>2026-08-24T11:31:55Z</time>
      </trkpt>
      <trkpt lat="49.16345" lon="3.97409">
        <ele>154.2</ele>
        <time>2026-08-24T11:31:56Z</time>
      </trkpt>
      <trkpt lat="49.16343" lon="3.97413">
        <ele>154.4</ele>
        <time>2026-08-24T11:31:57Z</time>
      </trkpt>
      <trkpt lat="49.16341" lon="3.97416">
        <ele>154.6</ele>
        <time>2026-08-24T11:31:58Z</time>
      </trkpt>
      <trkpt lat="49.16339" lon="3.9742">
        <ele>154.8</ele>
        <time>2026-08-24T11:31:59Z</time>
      </trkpt>
      <trkpt lat="49.16337" lon="3.97423">
        <ele>155</ele>
        <time>2026-08-24T11:32:00Z</time>
      </trkpt>
      <trkpt lat="49.16335" lon="3.97427">
        <ele>155</ele>
        <time>2026-08-24T11:32:01Z</time>
      </trkpt>
      <trkpt lat="49.16332" lon="3.97431">
        <ele>155.2</ele>
        <time>2026-08-24T11:32:02Z</time>
      </trkpt>
      <trkpt lat="49.1633" lon="3.97435">
        <ele>155.2</ele>
        <time>2026-08-24T11:32:03Z</time>
      </trkpt>
      <trkpt lat="49.16328" lon="3.97438">
        <ele>155.2</ele>
        <time>2026-08-24T11:32:04Z</time>
      </trkpt>
      <trkpt lat="49.16326" lon="3.97442">
        <ele>155.4</ele>
        <time>2026-08-24T11:32:05Z</time>
      </trkpt>
      <trkpt lat="49.16323" lon="3.97446">
        <ele>155.6</ele>
        <time>2026-08-24T11:32:06Z</time>
      </trkpt>
      <trkpt lat="49.16321" lon="3.97449">
        <ele>155.6</ele>
        <time>2026-08-24T11:32:07Z</time>
      </trkpt>
      <trkpt lat="49.16319" lon="3.97453">
        <ele>155.8</ele>
        <time>2026-08-24T11:32:08Z</time>
      </trkpt>
      <trkpt lat="49.16317" lon="3.97456">
        <ele>156.2</ele>
        <time>2026-08-24T11:32:09Z</time>
      </trkpt>
      <trkpt lat="49.16315" lon="3.9746">
        <ele>156.4</ele>
        <time>2026-08-24T11:32:10Z</time>
      </trkpt>
      <trkpt lat="49.16313" lon="3.97463">
        <ele>156.6</ele>
        <time>2026-08-24T11:32:11Z</time>
      </trkpt>
      <trkpt lat="49.16311" lon="3.97467">
        <ele>156.8</ele>
        <time>2026-08-24T11:32:12Z</time>
      </trkpt>
      <trkpt lat="49.16309" lon="3.9747">
        <ele>157.2</ele>
        <time>2026-08-24T11:32:13Z</time>
      </trkpt>
      <trkpt lat="49.16307" lon="3.97474">
        <ele>157.4</ele>
        <time>2026-08-24T11:32:14Z</time>
      </trkpt>
      <trkpt lat="49.16305" lon="3.97478">
        <ele>157.4</ele>
        <time>2026-08-24T11:32:15Z</time>
      </trkpt>
      <trkpt lat="49.16302" lon="3.97481">
        <ele>157.6</ele>
        <time>2026-08-24T11:32:16Z</time>
      </trkpt>
      <trkpt lat="49.163" lon="3.97485">
        <ele>157.8</ele>
        <time>2026-08-24T11:32:17Z</time>
      </trkpt>
      <trkpt lat="49.16298" lon="3.97489">
        <ele>158</ele>
        <time>2026-08-24T11:32:18Z</time>
      </trkpt>
      <trkpt lat="49.16296" lon="3.97492">
        <ele>158.2</ele>
        <time>2026-08-24T11:32:19Z</time>
      </trkpt>
      <trkpt lat="49.16294" lon="3.97496">
        <ele>158.4</ele>
        <time>2026-08-24T11:32:20Z</time>
      </trkpt>
      <trkpt lat="49.16292" lon="3.97499">
        <ele>158.6</ele>
        <time>2026-08-24T11:32:21Z</time>
      </trkpt>
      <trkpt lat="49.1629" lon="3.97503">
        <ele>159</ele>
        <time>2026-08-24T11:32:22Z</time>
      </trkpt>
      <trkpt lat="49.16288" lon="3.97506">
        <ele>159.2</ele>
        <time>2026-08-24T11:32:23Z</time>
      </trkpt>
      <trkpt lat="49.16286" lon="3.97509">
        <ele>159.4</ele>
        <time>2026-08-24T11:32:24Z</time>
      </trkpt>
      <trkpt lat="49.16284" lon="3.97513">
        <ele>159.6</ele>
        <time>2026-08-24T11:32:25Z</time>
      </trkpt>
      <trkpt lat="49.16281" lon="3.97516">
        <ele>159.8</ele>
        <time>2026-08-24T11:32:26Z</time>
      </trkpt>
      <trkpt lat="49.16279" lon="3.9752">
        <ele>160</ele>
        <time>2026-08-24T11:32:27Z</time>
      </trkpt>
      <trkpt lat="49.16277" lon="3.97523">
        <ele>160.2</ele>
        <time>2026-08-24T11:32:28Z</time>
      </trkpt>
      <trkpt lat="49.16275" lon="3.97526">
        <ele>160.4</ele>
        <time>2026-08-24T11:32:29Z</time>
      </trkpt>
      <trkpt lat="49.16273" lon="3.97529">
        <ele>160.6</ele>
        <time>2026-08-24T11:32:30Z</time>
      </trkpt>
      <trkpt lat="49.16271" lon="3.97532">
        <ele>160.8</ele>
        <time>2026-08-24T11:32:31Z</time>
      </trkpt>
      <trkpt lat="49.16268" lon="3.97536">
        <ele>161</ele>
        <time>2026-08-24T11:32:32Z</time>
      </trkpt>
      <trkpt lat="49.16266" lon="3.9754">
        <ele>161.2</ele>
        <time>2026-08-24T11:32:33Z</time>
      </trkpt>
      <trkpt lat="49.16264" lon="3.97543">
        <ele>161.2</ele>
        <time>2026-08-24T11:32:34Z</time>
      </trkpt>
      <trkpt lat="49.16262" lon="3.97547">
        <ele>161.4</ele>
        <time>2026-08-24T11:32:35Z</time>
      </trkpt>
      <trkpt lat="49.1626" lon="3.9755">
        <ele>161.4</ele>
        <time>2026-08-24T11:32:36Z</time>
      </trkpt>
      <trkpt lat="49.16258" lon="3.97553">
        <ele>161.6</ele>
        <time>2026-08-24T11:32:37Z</time>
      </trkpt>
      <trkpt lat="49.16257" lon="3.97557">
        <ele>161.6</ele>
        <time>2026-08-24T11:32:38Z</time>
      </trkpt>
      <trkpt lat="49.16254" lon="3.97561">
        <ele>161.8</ele>
        <time>2026-08-24T11:32:39Z</time>
      </trkpt>
      <trkpt lat="49.16252" lon="3.97564">
        <ele>162</ele>
        <time>2026-08-24T11:32:40Z</time>
      </trkpt>
      <trkpt lat="49.1625" lon="3.97568">
        <ele>162.2</ele>
        <time>2026-08-24T11:32:41Z</time>
      </trkpt>
      <trkpt lat="49.16248" lon="3.97571">
        <ele>162.4</ele>
        <time>2026-08-24T11:32:42Z</time>
      </trkpt>
      <trkpt lat="49.16246" lon="3.97575">
        <ele>162.6</ele>
        <time>2026-08-24T11:32:43Z</time>
      </trkpt>
      <trkpt lat="49.16244" lon="3.97578">
        <ele>162.8</ele>
        <time>2026-08-24T11:32:44Z</time>
      </trkpt>
      <trkpt lat="49.16241" lon="3.97582">
        <ele>163</ele>
        <time>2026-08-24T11:32:45Z</time>
      </trkpt>
      <trkpt lat="49.16239" lon="3.97586">
        <ele>163.2</ele>
        <time>2026-08-24T11:32:46Z</time>
      </trkpt>
      <trkpt lat="49.16237" lon="3.97589">
        <ele>163.4</ele>
        <time>2026-08-24T11:32:47Z</time>
      </trkpt>
      <trkpt lat="49.16235" lon="3.97593">
        <ele>163.8</ele>
        <time>2026-08-24T11:32:48Z</time>
      </trkpt>
      <trkpt lat="49.16232" lon="3.97597">
        <ele>164</ele>
        <time>2026-08-24T11:32:49Z</time>
      </trkpt>
      <trkpt lat="49.1623" lon="3.97601">
        <ele>164.4</ele>
        <time>2026-08-24T11:32:50Z</time>
      </trkpt>
      <trkpt lat="49.16227" lon="3.97605">
        <ele>164.6</ele>
        <time>2026-08-24T11:32:51Z</time>
      </trkpt>
      <trkpt lat="49.16225" lon="3.97609">
        <ele>164.8</ele>
        <time>2026-08-24T11:32:52Z</time>
      </trkpt>
      <trkpt lat="49.16222" lon="3.97612">
        <ele>165</ele>
        <time>2026-08-24T11:32:53Z</time>
      </trkpt>
      <trkpt lat="49.16219" lon="3.97616">
        <ele>165</ele>
        <time>2026-08-24T11:32:54Z</time>
      </trkpt>
      <trkpt lat="49.16216" lon="3.97619">
        <ele>165</ele>
        <time>2026-08-24T11:32:55Z</time>
      </trkpt>
      <trkpt lat="49.16213" lon="3.97622">
        <ele>165</ele>
        <time>2026-08-24T11:32:56Z</time>
      </trkpt>
      <trkpt lat="49.1621" lon="3.97625">
        <ele>165</ele>
        <time>2026-08-24T11:32:57Z</time>
      </trkpt>
      <trkpt lat="49.16207" lon="3.97628">
        <ele>165</ele>
        <time>2026-08-24T11:32:58Z</time>
      </trkpt>
      <trkpt lat="49.16203" lon="3.9763">
        <ele>165.2</ele>
        <time>2026-08-24T11:32:59Z</time>
      </trkpt>
      <trkpt lat="49.162" lon="3.97633">
        <ele>165.2</ele>
        <time>2026-08-24T11:33:00Z</time>
      </trkpt>
      <trkpt lat="49.16197" lon="3.97636">
        <ele>165.4</ele>
        <time>2026-08-24T11:33:01Z</time>
      </trkpt>
      <trkpt lat="49.16193" lon="3.97639">
        <ele>165.4</ele>
        <time>2026-08-24T11:33:02Z</time>
      </trkpt>
      <trkpt lat="49.1619" lon="3.97642">
        <ele>165.4</ele>
        <time>2026-08-24T11:33:03Z</time>
      </trkpt>
      <trkpt lat="49.16188" lon="3.97646">
        <ele>165.6</ele>
        <time>2026-08-24T11:33:04Z</time>
      </trkpt>
      <trkpt lat="49.16186" lon="3.9765">
        <ele>165.4</ele>
        <time>2026-08-24T11:33:05Z</time>
      </trkpt>
      <trkpt lat="49.16184" lon="3.97655">
        <ele>165.4</ele>
        <time>2026-08-24T11:33:06Z</time>
      </trkpt>
      <trkpt lat="49.16183" lon="3.9766">
        <ele>165.2</ele>
        <time>2026-08-24T11:33:07Z</time>
      </trkpt>
      <trkpt lat="49.16182" lon="3.97666">
        <ele>165</ele>
        <time>2026-08-24T11:33:08Z</time>
      </trkpt>
      <trkpt lat="49.16181" lon="3.97673">
        <ele>164.6</ele>
        <time>2026-08-24T11:33:09Z</time>
      </trkpt>
      <trkpt lat="49.16181" lon="3.9768">
        <ele>164.2</ele>
        <time>2026-08-24T11:33:10Z</time>
      </trkpt>
      <trkpt lat="49.1618" lon="3.97688">
        <ele>163.6</ele>
        <time>2026-08-24T11:33:11Z</time>
      </trkpt>
      <trkpt lat="49.1618" lon="3.97696">
        <ele>163.2</ele>
        <time>2026-08-24T11:33:12Z</time>
      </trkpt>
      <trkpt lat="49.16179" lon="3.97704">
        <ele>162.8</ele>
        <time>2026-08-24T11:33:13Z</time>
      </trkpt>
      <trkpt lat="49.16178" lon="3.97712">
        <ele>162.2</ele>
        <time>2026-08-24T11:33:14Z</time>
      </trkpt>
      <trkpt lat="49.16178" lon="3.97719">
        <ele>161.8</ele>
        <time>2026-08-24T11:33:15Z</time>
      </trkpt>
      <trkpt lat="49.16178" lon="3.97725">
        <ele>161.4</ele>
        <time>2026-08-24T11:33:16Z</time>
      </trkpt>
      <trkpt lat="49.16177" lon="3.97729">
        <ele>161.2</ele>
        <time>2026-08-24T11:33:17Z</time>
      </trkpt>
      <trkpt lat="49.16177" lon="3.97734">
        <ele>161</ele>
        <time>2026-08-24T11:33:18Z</time>
      </trkpt>
      <trkpt lat="49.16176" lon="3.97737">
        <ele>161</ele>
        <time>2026-08-24T11:33:19Z</time>
      </trkpt>
      <trkpt lat="49.16176" lon="3.9774">
        <ele>161</ele>
        <time>2026-08-24T11:33:20Z</time>
      </trkpt>
      <trkpt lat="49.16176" lon="3.97742">
        <ele>161</ele>
        <time>2026-08-24T11:33:21Z</time>
      </trkpt>
      <trkpt lat="49.16175" lon="3.97743">
        <ele>160.8</ele>
        <time>2026-08-24T11:33:22Z</time>
      </trkpt>
      <trkpt lat="49.16175" lon="3.97743">
        <ele>160.8</ele>
        <time>2026-08-24T11:33:23Z</time>
      </trkpt>
      <trkpt lat="49.16176" lon="3.97748">
        <ele>161</ele>
        <time>2026-08-24T11:34:02Z</time>
      </trkpt>
      <trkpt lat="49.16176" lon="3.97752">
        <ele>161</ele>
        <time>2026-08-24T11:34:03Z</time>
      </trkpt>
      <trkpt lat="49.16176" lon="3.97756">
        <ele>160.8</ele>
        <time>2026-08-24T11:34:04Z</time>
      </trkpt>
      <trkpt lat="49.16176" lon="3.97761">
        <ele>160.6</ele>
        <time>2026-08-24T11:34:05Z</time>
      </trkpt>
      <trkpt lat="49.16175" lon="3.97767">
        <ele>160.6</ele>
        <time>2026-08-24T11:34:06Z</time>
      </trkpt>
      <trkpt lat="49.16175" lon="3.97773">
        <ele>160.2</ele>
        <time>2026-08-24T11:34:07Z</time>
      </trkpt>
      <trkpt lat="49.16174" lon="3.9778">
        <ele>159.8</ele>
        <time>2026-08-24T11:34:08Z</time>
      </trkpt>
      <trkpt lat="49.16174" lon="3.97787">
        <ele>159.4</ele>
        <time>2026-08-24T11:34:09Z</time>
      </trkpt>
      <trkpt lat="49.16173" lon="3.97795">
        <ele>159</ele>
        <time>2026-08-24T11:34:10Z</time>
      </trkpt>
      <trkpt lat="49.16173" lon="3.97804">
        <ele>158.8</ele>
        <time>2026-08-24T11:34:11Z</time>
      </trkpt>
      <trkpt lat="49.16172" lon="3.97813">
        <ele>158.6</ele>
        <time>2026-08-24T11:34:12Z</time>
      </trkpt>
      <trkpt lat="49.16171" lon="3.97823">
        <ele>158.2</ele>
        <time>2026-08-24T11:34:13Z</time>
      </trkpt>
      <trkpt lat="49.16171" lon="3.97833">
        <ele>157.8</ele>
        <time>2026-08-24T11:34:14Z</time>
      </trkpt>
      <trkpt lat="49.1617" lon="3.97843">
        <ele>157.6</ele>
        <time>2026-08-24T11:34:15Z</time>
      </trkpt>
      <trkpt lat="49.16169" lon="3.97854">
        <ele>157</ele>
        <time>2026-08-24T11:34:16Z</time>
      </trkpt>
      <trkpt lat="49.16168" lon="3.97865">
        <ele>156</ele>
        <time>2026-08-24T11:34:17Z</time>
      </trkpt>
      <trkpt lat="49.16167" lon="3.97877">
        <ele>155.4</ele>
        <time>2026-08-24T11:34:18Z</time>
      </trkpt>
      <trkpt lat="49.16166" lon="3.97888">
        <ele>154.6</ele>
        <time>2026-08-24T11:34:19Z</time>
      </trkpt>
      <trkpt lat="49.16165" lon="3.979">
        <ele>154</ele>
        <time>2026-08-24T11:34:20Z</time>
      </trkpt>
      <trkpt lat="49.16163" lon="3.97912">
        <ele>153.8</ele>
        <time>2026-08-24T11:34:21Z</time>
      </trkpt>
      <trkpt lat="49.16162" lon="3.97924">
        <ele>153.8</ele>
        <time>2026-08-24T11:34:22Z</time>
      </trkpt>
      <trkpt lat="49.16159" lon="3.97936">
        <ele>153.4</ele>
        <time>2026-08-24T11:34:23Z</time>
      </trkpt>
      <trkpt lat="49.16157" lon="3.97947">
        <ele>153.2</ele>
        <time>2026-08-24T11:34:24Z</time>
      </trkpt>
      <trkpt lat="49.16153" lon="3.97959">
        <ele>153</ele>
        <time>2026-08-24T11:34:25Z</time>
      </trkpt>
      <trkpt lat="49.1615" lon="3.9797">
        <ele>152.4</ele>
        <time>2026-08-24T11:34:26Z</time>
      </trkpt>
      <trkpt lat="49.16146" lon="3.97981">
        <ele>151.6</ele>
        <time>2026-08-24T11:34:27Z</time>
      </trkpt>
      <trkpt lat="49.16141" lon="3.97993">
        <ele>151</ele>
        <time>2026-08-24T11:34:28Z</time>
      </trkpt>
      <trkpt lat="49.16137" lon="3.98004">
        <ele>150.6</ele>
        <time>2026-08-24T11:34:29Z</time>
      </trkpt>
      <trkpt lat="49.16132" lon="3.98015">
        <ele>150</ele>
        <time>2026-08-24T11:34:30Z</time>
      </trkpt>
      <trkpt lat="49.16127" lon="3.98026">
        <ele>149.8</ele>
        <time>2026-08-24T11:34:31Z</time>
      </trkpt>
      <trkpt lat="49.16122" lon="3.98037">
        <ele>149.6</ele>
        <time>2026-08-24T11:34:32Z</time>
      </trkpt>
      <trkpt lat="49.16117" lon="3.98048">
        <ele>149.6</ele>
        <time>2026-08-24T11:34:33Z</time>
      </trkpt>
      <trkpt lat="49.16112" lon="3.98059">
        <ele>149.6</ele>
        <time>2026-08-24T11:34:34Z</time>
      </trkpt>
      <trkpt lat="49.16107" lon="3.98069">
        <ele>149.4</ele>
        <time>2026-08-24T11:34:35Z</time>
      </trkpt>
      <trkpt lat="49.16102" lon="3.9808">
        <ele>149.4</ele>
        <time>2026-08-24T11:34:36Z</time>
      </trkpt>
      <trkpt lat="49.16098" lon="3.9809">
        <ele>149.4</ele>
        <time>2026-08-24T11:34:37Z</time>
      </trkpt>
      <trkpt lat="49.16093" lon="3.981">
        <ele>149.4</ele>
        <time>2026-08-24T11:34:38Z</time>
      </trkpt>
      <trkpt lat="49.16088" lon="3.9811">
        <ele>149.4</ele>
        <time>2026-08-24T11:34:39Z</time>
      </trkpt>
      <trkpt lat="49.16084" lon="3.9812">
        <ele>149.4</ele>
        <time>2026-08-24T11:34:40Z</time>
      </trkpt>
      <trkpt lat="49.16079" lon="3.98129">
        <ele>149.8</ele>
        <time>2026-08-24T11:34:41Z</time>
      </trkpt>
      <trkpt lat="49.16075" lon="3.98138">
        <ele>150.2</ele>
        <time>2026-08-24T11:34:42Z</time>
      </trkpt>
      <trkpt lat="49.16071" lon="3.98147">
        <ele>150.6</ele>
        <time>2026-08-24T11:34:43Z</time>
      </trkpt>
      <trkpt lat="49.16068" lon="3.98155">
        <ele>151.2</ele>
        <time>2026-08-24T11:34:44Z</time>
      </trkpt>
      <trkpt lat="49.16065" lon="3.98162">
        <ele>151.8</ele>
        <time>2026-08-24T11:34:45Z</time>
      </trkpt>
      <trkpt lat="49.16061" lon="3.98169">
        <ele>152.2</ele>
        <time>2026-08-24T11:34:46Z</time>
      </trkpt>
      <trkpt lat="49.16058" lon="3.98176">
        <ele>152.6</ele>
        <time>2026-08-24T11:34:47Z</time>
      </trkpt>
      <trkpt lat="49.16054" lon="3.98184">
        <ele>152.8</ele>
        <time>2026-08-24T11:34:48Z</time>
      </trkpt>
      <trkpt lat="49.16049" lon="3.98192">
        <ele>153</ele>
        <time>2026-08-24T11:34:49Z</time>
      </trkpt>
      <trkpt lat="49.16045" lon="3.98199">
        <ele>153.4</ele>
        <time>2026-08-24T11:34:50Z</time>
      </trkpt>
      <trkpt lat="49.16042" lon="3.98207">
        <ele>153.6</ele>
        <time>2026-08-24T11:34:51Z</time>
      </trkpt>
      <trkpt lat="49.16038" lon="3.98213">
        <ele>153.8</ele>
        <time>2026-08-24T11:34:52Z</time>
      </trkpt>
      <trkpt lat="49.16035" lon="3.9822">
        <ele>154.2</ele>
        <time>2026-08-24T11:34:53Z</time>
      </trkpt>
      <trkpt lat="49.16032" lon="3.98226">
        <ele>154.4</ele>
        <time>2026-08-24T11:34:54Z</time>
      </trkpt>
      <trkpt lat="49.16028" lon="3.98232">
        <ele>154.8</ele>
        <time>2026-08-24T11:34:55Z</time>
      </trkpt>
      <trkpt lat="49.16025" lon="3.98238">
        <ele>155.4</ele>
        <time>2026-08-24T11:34:56Z</time>
      </trkpt>
      <trkpt lat="49.16023" lon="3.98243">
        <ele>155.6</ele>
        <time>2026-08-24T11:34:57Z</time>
      </trkpt>
      <trkpt lat="49.1602" lon="3.98248">
        <ele>156</ele>
        <time>2026-08-24T11:34:58Z</time>
      </trkpt>
      <trkpt lat="49.16017" lon="3.98254">
        <ele>156.4</ele>
        <time>2026-08-24T11:34:59Z</time>
      </trkpt>
      <trkpt lat="49.16014" lon="3.9826">
        <ele>156.8</ele>
        <time>2026-08-24T11:35:00Z</time>
      </trkpt>
      <trkpt lat="49.1601" lon="3.98266">
        <ele>157.2</ele>
        <time>2026-08-24T11:35:01Z</time>
      </trkpt>
      <trkpt lat="49.16007" lon="3.98272">
        <ele>157.4</ele>
        <time>2026-08-24T11:35:02Z</time>
      </trkpt>
      <trkpt lat="49.16004" lon="3.98278">
        <ele>157.6</ele>
        <time>2026-08-24T11:35:03Z</time>
      </trkpt>
      <trkpt lat="49.16001" lon="3.98284">
        <ele>157.8</ele>
        <time>2026-08-24T11:35:04Z</time>
      </trkpt>
      <trkpt lat="49.15998" lon="3.98289">
        <ele>158</ele>
        <time>2026-08-24T11:35:05Z</time>
      </trkpt>
      <trkpt lat="49.15996" lon="3.98295">
        <ele>158.2</ele>
        <time>2026-08-24T11:35:06Z</time>
      </trkpt>
      <trkpt lat="49.15993" lon="3.983">
        <ele>158.4</ele>
        <time>2026-08-24T11:35:07Z</time>
      </trkpt>
      <trkpt lat="49.1599" lon="3.98305">
        <ele>158.6</ele>
        <time>2026-08-24T11:35:08Z</time>
      </trkpt>
      <trkpt lat="49.15987" lon="3.9831">
        <ele>158.6</ele>
        <time>2026-08-24T11:35:09Z</time>
      </trkpt>
      <trkpt lat="49.15984" lon="3.98315">
        <ele>158.8</ele>
        <time>2026-08-24T11:35:10Z</time>
      </trkpt>
      <trkpt lat="49.15981" lon="3.9832">
        <ele>158.8</ele>
        <time>2026-08-24T11:35:11Z</time>
      </trkpt>
      <trkpt lat="49.15978" lon="3.98325">
        <ele>158.8</ele>
        <time>2026-08-24T11:35:12Z</time>
      </trkpt>
      <trkpt lat="49.15976" lon="3.9833">
        <ele>158.8</ele>
        <time>2026-08-24T11:35:13Z</time>
      </trkpt>
      <trkpt lat="49.15973" lon="3.98334">
        <ele>159.2</ele>
        <time>2026-08-24T11:35:14Z</time>
      </trkpt>
      <trkpt lat="49.15971" lon="3.98339">
        <ele>159.4</ele>
        <time>2026-08-24T11:35:15Z</time>
      </trkpt>
      <trkpt lat="49.15968" lon="3.98344">
        <ele>159.6</ele>
        <time>2026-08-24T11:35:16Z</time>
      </trkpt>
      <trkpt lat="49.15966" lon="3.98349">
        <ele>160</ele>
        <time>2026-08-24T11:35:17Z</time>
      </trkpt>
      <trkpt lat="49.15964" lon="3.98353">
        <ele>160.4</ele>
        <time>2026-08-24T11:35:18Z</time>
      </trkpt>
      <trkpt lat="49.15962" lon="3.98358">
        <ele>160.6</ele>
        <time>2026-08-24T11:35:19Z</time>
      </trkpt>
      <trkpt lat="49.1596" lon="3.98362">
        <ele>160.8</ele>
        <time>2026-08-24T11:35:20Z</time>
      </trkpt>
      <trkpt lat="49.15958" lon="3.98367">
        <ele>161.2</ele>
        <time>2026-08-24T11:35:21Z</time>
      </trkpt>
      <trkpt lat="49.15956" lon="3.98372">
        <ele>161.2</ele>
        <time>2026-08-24T11:35:22Z</time>
      </trkpt>
      <trkpt lat="49.15955" lon="3.98376">
        <ele>161.4</ele>
        <time>2026-08-24T11:35:23Z</time>
      </trkpt>
      <trkpt lat="49.15954" lon="3.98382">
        <ele>161.4</ele>
        <time>2026-08-24T11:35:24Z</time>
      </trkpt>
      <trkpt lat="49.15953" lon="3.98387">
        <ele>161.6</ele>
        <time>2026-08-24T11:35:25Z</time>
      </trkpt>
      <trkpt lat="49.15952" lon="3.98392">
        <ele>161.6</ele>
        <time>2026-08-24T11:35:26Z</time>
      </trkpt>
      <trkpt lat="49.15952" lon="3.98398">
        <ele>161.8</ele>
        <time>2026-08-24T11:35:27Z</time>
      </trkpt>
      <trkpt lat="49.15952" lon="3.98404">
        <ele>161.8</ele>
        <time>2026-08-24T11:35:28Z</time>
      </trkpt>
      <trkpt lat="49.15952" lon="3.98409">
        <ele>162.2</ele>
        <time>2026-08-24T11:35:29Z</time>
      </trkpt>
      <trkpt lat="49.15952" lon="3.98415">
        <ele>162.4</ele>
        <time>2026-08-24T11:35:30Z</time>
      </trkpt>
      <trkpt lat="49.15953" lon="3.98421">
        <ele>162.6</ele>
        <time>2026-08-24T11:35:31Z</time>
      </trkpt>
      <trkpt lat="49.15953" lon="3.98427">
        <ele>162.8</ele>
        <time>2026-08-24T11:35:32Z</time>
      </trkpt>
      <trkpt lat="49.15954" lon="3.98433">
        <ele>162.8</ele>
        <time>2026-08-24T11:35:33Z</time>
      </trkpt>
      <trkpt lat="49.15954" lon="3.9844">
        <ele>162.8</ele>
        <time>2026-08-24T11:35:34Z</time>
      </trkpt>
      <trkpt lat="49.15954" lon="3.98446">
        <ele>162.6</ele>
        <time>2026-08-24T11:35:35Z</time>
      </trkpt>
      <trkpt lat="49.15954" lon="3.98453">
        <ele>162.6</ele>
        <time>2026-08-24T11:35:36Z</time>
      </trkpt>
      <trkpt lat="49.15954" lon="3.9846">
        <ele>162.4</ele>
        <time>2026-08-24T11:35:37Z</time>
      </trkpt>
      <trkpt lat="49.15952" lon="3.98466">
        <ele>162.4</ele>
        <time>2026-08-24T11:35:38Z</time>
      </trkpt>
      <trkpt lat="49.15949" lon="3.98471">
        <ele>162.2</ele>
        <time>2026-08-24T11:35:39Z</time>
      </trkpt>
      <trkpt lat="49.15945" lon="3.98475">
        <ele>162.2</ele>
        <time>2026-08-24T11:35:40Z</time>
      </trkpt>
      <trkpt lat="49.1594" lon="3.98477">
        <ele>162.2</ele>
        <time>2026-08-24T11:35:41Z</time>
      </trkpt>
      <trkpt lat="49.15936" lon="3.9848">
        <ele>162.2</ele>
        <time>2026-08-24T11:35:42Z</time>
      </trkpt>
      <trkpt lat="49.15931" lon="3.98482">
        <ele>162.2</ele>
        <time>2026-08-24T11:35:43Z</time>
      </trkpt>
      <trkpt lat="49.15926" lon="3.98485">
        <ele>162.2</ele>
        <time>2026-08-24T11:35:44Z</time>
      </trkpt>
      <trkpt lat="49.15921" lon="3.98487">
        <ele>162.2</ele>
        <time>2026-08-24T11:35:45Z</time>
      </trkpt>
      <trkpt lat="49.15916" lon="3.98488">
        <ele>162.2</ele>
        <time>2026-08-24T11:35:46Z</time>
      </trkpt>
      <trkpt lat="49.1591" lon="3.98488">
        <ele>162.4</ele>
        <time>2026-08-24T11:35:47Z</time>
      </trkpt>
      <trkpt lat="49.15905" lon="3.98487">
        <ele>162.6</ele>
        <time>2026-08-24T11:35:48Z</time>
      </trkpt>
      <trkpt lat="49.159" lon="3.98485">
        <ele>162.6</ele>
        <time>2026-08-24T11:35:49Z</time>
      </trkpt>
      <trkpt lat="49.15895" lon="3.98483">
        <ele>162.8</ele>
        <time>2026-08-24T11:35:50Z</time>
      </trkpt>
      <trkpt lat="49.15891" lon="3.98481">
        <ele>162.8</ele>
        <time>2026-08-24T11:35:51Z</time>
      </trkpt>
      <trkpt lat="49.15886" lon="3.98479">
        <ele>162.8</ele>
        <time>2026-08-24T11:35:52Z</time>
      </trkpt>
      <trkpt lat="49.15881" lon="3.98477">
        <ele>163</ele>
        <time>2026-08-24T11:35:53Z</time>
      </trkpt>
      <trkpt lat="49.15877" lon="3.98474">
        <ele>163</ele>
        <time>2026-08-24T11:35:54Z</time>
      </trkpt>
      <trkpt lat="49.15872" lon="3.98472">
        <ele>163.2</ele>
        <time>2026-08-24T11:35:55Z</time>
      </trkpt>
      <trkpt lat="49.15867" lon="3.9847">
        <ele>163.2</ele>
        <time>2026-08-24T11:35:56Z</time>
      </trkpt>
      <trkpt lat="49.15862" lon="3.98468">
        <ele>163.4</ele>
        <time>2026-08-24T11:35:57Z</time>
      </trkpt>
      <trkpt lat="49.15858" lon="3.98466">
        <ele>163.6</ele>
        <time>2026-08-24T11:35:58Z</time>
      </trkpt>
      <trkpt lat="49.15854" lon="3.98463">
        <ele>163.8</ele>
        <time>2026-08-24T11:35:59Z</time>
      </trkpt>
      <trkpt lat="49.15849" lon="3.98461">
        <ele>163.8</ele>
        <time>2026-08-24T11:36:00Z</time>
      </trkpt>
      <trkpt lat="49.15845" lon="3.98461">
        <ele>164</ele>
        <time>2026-08-24T11:36:01Z</time>
      </trkpt>
      <trkpt lat="49.1584" lon="3.98462">
        <ele>163.8</ele>
        <time>2026-08-24T11:36:02Z</time>
      </trkpt>
      <trkpt lat="49.15837" lon="3.98466">
        <ele>163.8</ele>
        <time>2026-08-24T11:36:03Z</time>
      </trkpt>
      <trkpt lat="49.15833" lon="3.98471">
        <ele>163.8</ele>
        <time>2026-08-24T11:36:04Z</time>
      </trkpt>
      <trkpt lat="49.1583" lon="3.98478">
        <ele>163.6</ele>
        <time>2026-08-24T11:36:05Z</time>
      </trkpt>
      <trkpt lat="49.15827" lon="3.98485">
        <ele>163.6</ele>
        <time>2026-08-24T11:36:06Z</time>
      </trkpt>
      <trkpt lat="49.15824" lon="3.98493">
        <ele>163.4</ele>
        <time>2026-08-24T11:36:07Z</time>
      </trkpt>
      <trkpt lat="49.15821" lon="3.98501">
        <ele>163.2</ele>
        <time>2026-08-24T11:36:08Z</time>
      </trkpt>
      <trkpt lat="49.15817" lon="3.9851">
        <ele>163</ele>
        <time>2026-08-24T11:36:09Z</time>
      </trkpt>
      <trkpt lat="49.15813" lon="3.98518">
        <ele>162.8</ele>
        <time>2026-08-24T11:36:10Z</time>
      </trkpt>
      <trkpt lat="49.15809" lon="3.98527">
        <ele>162.8</ele>
        <time>2026-08-24T11:36:11Z</time>
      </trkpt>
      <trkpt lat="49.15805" lon="3.98535">
        <ele>162.6</ele>
        <time>2026-08-24T11:36:12Z</time>
      </trkpt>
      <trkpt lat="49.158" lon="3.98543">
        <ele>162.6</ele>
        <time>2026-08-24T11:36:13Z</time>
      </trkpt>
      <trkpt lat="49.15796" lon="3.98551">
        <ele>162.6</ele>
        <time>2026-08-24T11:36:14Z</time>
      </trkpt>
      <trkpt lat="49.15791" lon="3.9856">
        <ele>162.6</ele>
        <time>2026-08-24T11:36:15Z</time>
      </trkpt>
      <trkpt lat="49.15786" lon="3.98568">
        <ele>162.4</ele>
        <time>2026-08-24T11:36:16Z</time>
      </trkpt>
      <trkpt lat="49.15782" lon="3.98576">
        <ele>162.4</ele>
        <time>2026-08-24T11:36:17Z</time>
      </trkpt>
      <trkpt lat="49.15778" lon="3.98583">
        <ele>162.2</ele>
        <time>2026-08-24T11:36:18Z</time>
      </trkpt>
      <trkpt lat="49.15774" lon="3.9859">
        <ele>162.2</ele>
        <time>2026-08-24T11:36:19Z</time>
      </trkpt>
      <trkpt lat="49.15771" lon="3.98597">
        <ele>162.4</ele>
        <time>2026-08-24T11:36:20Z</time>
      </trkpt>
      <trkpt lat="49.15768" lon="3.98604">
        <ele>162.6</ele>
        <time>2026-08-24T11:36:21Z</time>
      </trkpt>
      <trkpt lat="49.15765" lon="3.9861">
        <ele>163.2</ele>
        <time>2026-08-24T11:36:22Z</time>
      </trkpt>
      <trkpt lat="49.15762" lon="3.98617">
        <ele>163.6</ele>
        <time>2026-08-24T11:36:23Z</time>
      </trkpt>
      <trkpt lat="49.1576" lon="3.98624">
        <ele>164</ele>
        <time>2026-08-24T11:36:24Z</time>
      </trkpt>
      <trkpt lat="49.15758" lon="3.9863">
        <ele>164.6</ele>
        <time>2026-08-24T11:36:25Z</time>
      </trkpt>
      <trkpt lat="49.15756" lon="3.98637">
        <ele>165</ele>
        <time>2026-08-24T11:36:26Z</time>
      </trkpt>
      <trkpt lat="49.15754" lon="3.98643">
        <ele>165.2</ele>
        <time>2026-08-24T11:36:27Z</time>
      </trkpt>
      <trkpt lat="49.15752" lon="3.98649">
        <ele>165.4</ele>
        <time>2026-08-24T11:36:28Z</time>
      </trkpt>
      <trkpt lat="49.15751" lon="3.98655">
        <ele>165.6</ele>
        <time>2026-08-24T11:36:29Z</time>
      </trkpt>
      <trkpt lat="49.1575" lon="3.98661">
        <ele>165.6</ele>
        <time>2026-08-24T11:36:30Z</time>
      </trkpt>
      <trkpt lat="49.15749" lon="3.98667">
        <ele>165.6</ele>
        <time>2026-08-24T11:36:31Z</time>
      </trkpt>
      <trkpt lat="49.15747" lon="3.98674">
        <ele>165.8</ele>
        <time>2026-08-24T11:36:32Z</time>
      </trkpt>
      <trkpt lat="49.15746" lon="3.98679">
        <ele>166</ele>
        <time>2026-08-24T11:36:33Z</time>
      </trkpt>
      <trkpt lat="49.15746" lon="3.98685">
        <ele>166.2</ele>
        <time>2026-08-24T11:36:34Z</time>
      </trkpt>
      <trkpt lat="49.15745" lon="3.98691">
        <ele>166.4</ele>
        <time>2026-08-24T11:36:35Z</time>
      </trkpt>
      <trkpt lat="49.15744" lon="3.98697">
        <ele>166.8</ele>
        <time>2026-08-24T11:36:36Z</time>
      </trkpt>
      <trkpt lat="49.15744" lon="3.98702">
        <ele>167</ele>
        <time>2026-08-24T11:36:37Z</time>
      </trkpt>
      <trkpt lat="49.15744" lon="3.98708">
        <ele>167.2</ele>
        <time>2026-08-24T11:36:38Z</time>
      </trkpt>
      <trkpt lat="49.15743" lon="3.98714">
        <ele>167.6</ele>
        <time>2026-08-24T11:36:39Z</time>
      </trkpt>
      <trkpt lat="49.15743" lon="3.9872">
        <ele>167.8</ele>
        <time>2026-08-24T11:36:40Z</time>
      </trkpt>
      <trkpt lat="49.15743" lon="3.98726">
        <ele>168</ele>
        <time>2026-08-24T11:36:41Z</time>
      </trkpt>
      <trkpt lat="49.15743" lon="3.98731">
        <ele>168.2</ele>
        <time>2026-08-24T11:36:42Z</time>
      </trkpt>
      <trkpt lat="49.15743" lon="3.98737">
        <ele>168.4</ele>
        <time>2026-08-24T11:36:43Z</time>
      </trkpt>
      <trkpt lat="49.15743" lon="3.98743">
        <ele>168.6</ele>
        <time>2026-08-24T11:36:44Z</time>
      </trkpt>
      <trkpt lat="49.15743" lon="3.98748">
        <ele>168.8</ele>
        <time>2026-08-24T11:36:45Z</time>
      </trkpt>
      <trkpt lat="49.15743" lon="3.98754">
        <ele>169</ele>
        <time>2026-08-24T11:36:46Z</time>
      </trkpt>
      <trkpt lat="49.15744" lon="3.9876">
        <ele>169.2</ele>
        <time>2026-08-24T11:36:47Z</time>
      </trkpt>
      <trkpt lat="49.15744" lon="3.98765">
        <ele>169.4</ele>
        <time>2026-08-24T11:36:48Z</time>
      </trkpt>
      <trkpt lat="49.15745" lon="3.98771">
        <ele>169.4</ele>
        <time>2026-08-24T11:36:49Z</time>
      </trkpt>
      <trkpt lat="49.15745" lon="3.98777">
        <ele>169.6</ele>
        <time>2026-08-24T11:36:50Z</time>
      </trkpt>
      <trkpt lat="49.15746" lon="3.98782">
        <ele>169.8</ele>
        <time>2026-08-24T11:36:51Z</time>
      </trkpt>
      <trkpt lat="49.15747" lon="3.98787">
        <ele>169.8</ele>
        <time>2026-08-24T11:36:52Z</time>
      </trkpt>
      <trkpt lat="49.15747" lon="3.98792">
        <ele>170</ele>
        <time>2026-08-24T11:36:53Z</time>
      </trkpt>
      <trkpt lat="49.15748" lon="3.98798">
        <ele>170.2</ele>
        <time>2026-08-24T11:36:54Z</time>
      </trkpt>
      <trkpt lat="49.15749" lon="3.98803">
        <ele>170.2</ele>
        <time>2026-08-24T11:36:55Z</time>
      </trkpt>
      <trkpt lat="49.1575" lon="3.98808">
        <ele>170.4</ele>
        <time>2026-08-24T11:36:56Z</time>
      </trkpt>
      <trkpt lat="49.1575" lon="3.98813">
        <ele>170.6</ele>
        <time>2026-08-24T11:36:57Z</time>
      </trkpt>
      <trkpt lat="49.15751" lon="3.98818">
        <ele>170.8</ele>
        <time>2026-08-24T11:36:58Z</time>
      </trkpt>
      <trkpt lat="49.15752" lon="3.98823">
        <ele>171</ele>
        <time>2026-08-24T11:36:59Z</time>
      </trkpt>
      <trkpt lat="49.15752" lon="3.98828">
        <ele>171.2</ele>
        <time>2026-08-24T11:37:00Z</time>
      </trkpt>
      <trkpt lat="49.15753" lon="3.98833">
        <ele>171.4</ele>
        <time>2026-08-24T11:37:01Z</time>
      </trkpt>
      <trkpt lat="49.15754" lon="3.98839">
        <ele>171.4</ele>
        <time>2026-08-24T11:37:02Z</time>
      </trkpt>
      <trkpt lat="49.15755" lon="3.98844">
        <ele>171.6</ele>
        <time>2026-08-24T11:37:03Z</time>
      </trkpt>
      <trkpt lat="49.15756" lon="3.98849">
        <ele>171.6</ele>
        <time>2026-08-24T11:37:04Z</time>
      </trkpt>
      <trkpt lat="49.15756" lon="3.98854">
        <ele>171.8</ele>
        <time>2026-08-24T11:37:05Z</time>
      </trkpt>
      <trkpt lat="49.15757" lon="3.98859">
        <ele>172.2</ele>
        <time>2026-08-24T11:37:06Z</time>
      </trkpt>
      <trkpt lat="49.15758" lon="3.98864">
        <ele>172.4</ele>
        <time>2026-08-24T11:37:07Z</time>
      </trkpt>
      <trkpt lat="49.15759" lon="3.98869">
        <ele>172.8</ele>
        <time>2026-08-24T11:37:08Z</time>
      </trkpt>
      <trkpt lat="49.15759" lon="3.98874">
        <ele>173.2</ele>
        <time>2026-08-24T11:37:09Z</time>
      </trkpt>
      <trkpt lat="49.1576" lon="3.9888">
        <ele>173.4</ele>
        <time>2026-08-24T11:37:10Z</time>
      </trkpt>
      <trkpt lat="49.15761" lon="3.98885">
        <ele>173.6</ele>
        <time>2026-08-24T11:37:11Z</time>
      </trkpt>
      <trkpt lat="49.15761" lon="3.9889">
        <ele>173.6</ele>
        <time>2026-08-24T11:37:12Z</time>
      </trkpt>
      <trkpt lat="49.15761" lon="3.98896">
        <ele>173.6</ele>
        <time>2026-08-24T11:37:13Z</time>
      </trkpt>
      <trkpt lat="49.15761" lon="3.98901">
        <ele>173.6</ele>
        <time>2026-08-24T11:37:14Z</time>
      </trkpt>
      <trkpt lat="49.15762" lon="3.98907">
        <ele>173.6</ele>
        <time>2026-08-24T11:37:15Z</time>
      </trkpt>
      <trkpt lat="49.15762" lon="3.98912">
        <ele>173.4</ele>
        <time>2026-08-24T11:37:16Z</time>
      </trkpt>
      <trkpt lat="49.15762" lon="3.98918">
        <ele>173.4</ele>
        <time>2026-08-24T11:37:17Z</time>
      </trkpt>
      <trkpt lat="49.15762" lon="3.98923">
        <ele>173.6</ele>
        <time>2026-08-24T11:37:18Z</time>
      </trkpt>
      <trkpt lat="49.15762" lon="3.98929">
        <ele>173.8</ele>
        <time>2026-08-24T11:37:19Z</time>
      </trkpt>
      <trkpt lat="49.15762" lon="3.98934">
        <ele>173.8</ele>
        <time>2026-08-24T11:37:20Z</time>
      </trkpt>
      <trkpt lat="49.15761" lon="3.9894">
        <ele>173.8</ele>
        <time>2026-08-24T11:37:21Z</time>
      </trkpt>
      <trkpt lat="49.15761" lon="3.98947">
        <ele>173.8</ele>
        <time>2026-08-24T11:37:22Z</time>
      </trkpt>
      <trkpt lat="49.15761" lon="3.98954">
        <ele>173.8</ele>
        <time>2026-08-24T11:37:23Z</time>
      </trkpt>
      <trkpt lat="49.1576" lon="3.98962">
        <ele>173.6</ele>
        <time>2026-08-24T11:37:24Z</time>
      </trkpt>
      <trkpt lat="49.1576" lon="3.98971">
        <ele>173.2</ele>
        <time>2026-08-24T11:37:25Z</time>
      </trkpt>
      <trkpt lat="49.15758" lon="3.98979">
        <ele>172.8</ele>
        <time>2026-08-24T11:37:26Z</time>
      </trkpt>
      <trkpt lat="49.15757" lon="3.98989">
        <ele>172.4</ele>
        <time>2026-08-24T11:37:27Z</time>
      </trkpt>
      <trkpt lat="49.15755" lon="3.98998">
        <ele>171.8</ele>
        <time>2026-08-24T11:37:28Z</time>
      </trkpt>
      <trkpt lat="49.15754" lon="3.99008">
        <ele>171.4</ele>
        <time>2026-08-24T11:37:29Z</time>
      </trkpt>
      <trkpt lat="49.15752" lon="3.99019">
        <ele>171</ele>
        <time>2026-08-24T11:37:30Z</time>
      </trkpt>
      <trkpt lat="49.1575" lon="3.9903">
        <ele>170.4</ele>
        <time>2026-08-24T11:37:31Z</time>
      </trkpt>
      <trkpt lat="49.15748" lon="3.99042">
        <ele>170</ele>
        <time>2026-08-24T11:37:32Z</time>
      </trkpt>
      <trkpt lat="49.15746" lon="3.99053">
        <ele>169.4</ele>
        <time>2026-08-24T11:37:33Z</time>
      </trkpt>
      <trkpt lat="49.15744" lon="3.99065">
        <ele>168.8</ele>
        <time>2026-08-24T11:37:34Z</time>
      </trkpt>
      <trkpt lat="49.15741" lon="3.99077">
        <ele>167.8</ele>
        <time>2026-08-24T11:37:35Z</time>
      </trkpt>
      <trkpt lat="49.15739" lon="3.9909">
        <ele>167</ele>
        <time>2026-08-24T11:37:36Z</time>
      </trkpt>
      <trkpt lat="49.15737" lon="3.99103">
        <ele>166.2</ele>
        <time>2026-08-24T11:37:37Z</time>
      </trkpt>
      <trkpt lat="49.15734" lon="3.99116">
        <ele>165</ele>
        <time>2026-08-24T11:37:38Z</time>
      </trkpt>
      <trkpt lat="49.15732" lon="3.99129">
        <ele>164</ele>
        <time>2026-08-24T11:37:39Z</time>
      </trkpt>
      <trkpt lat="49.15729" lon="3.99142">
        <ele>163</ele>
        <time>2026-08-24T11:37:40Z</time>
      </trkpt>
      <trkpt lat="49.15727" lon="3.99156">
        <ele>162.4</ele>
        <time>2026-08-24T11:37:41Z</time>
      </trkpt>
      <trkpt lat="49.15724" lon="3.99169">
        <ele>161.8</ele>
        <time>2026-08-24T11:37:42Z</time>
      </trkpt>
      <trkpt lat="49.15722" lon="3.99182">
        <ele>161.2</ele>
        <time>2026-08-24T11:37:43Z</time>
      </trkpt>
      <trkpt lat="49.15719" lon="3.99196">
        <ele>161</ele>
        <time>2026-08-24T11:37:44Z</time>
      </trkpt>
      <trkpt lat="49.15717" lon="3.99209">
        <ele>160.8</ele>
        <time>2026-08-24T11:37:45Z</time>
      </trkpt>
      <trkpt lat="49.15714" lon="3.99222">
        <ele>160.6</ele>
        <time>2026-08-24T11:37:46Z</time>
      </trkpt>
      <trkpt lat="49.15712" lon="3.99235">
        <ele>160.6</ele>
        <time>2026-08-24T11:37:47Z</time>
      </trkpt>
      <trkpt lat="49.15709" lon="3.99248">
        <ele>160.4</ele>
        <time>2026-08-24T11:37:48Z</time>
      </trkpt>
      <trkpt lat="49.15707" lon="3.99261">
        <ele>160.2</ele>
        <time>2026-08-24T11:37:49Z</time>
      </trkpt>
      <trkpt lat="49.15705" lon="3.99273">
        <ele>160.2</ele>
        <time>2026-08-24T11:37:50Z</time>
      </trkpt>
      <trkpt lat="49.15702" lon="3.99284">
        <ele>160.2</ele>
        <time>2026-08-24T11:37:51Z</time>
      </trkpt>
      <trkpt lat="49.157" lon="3.99296">
        <ele>160.2</ele>
        <time>2026-08-24T11:37:52Z</time>
      </trkpt>
      <trkpt lat="49.15698" lon="3.99308">
        <ele>160.4</ele>
        <time>2026-08-24T11:37:53Z</time>
      </trkpt>
      <trkpt lat="49.15696" lon="3.99319">
        <ele>160.4</ele>
        <time>2026-08-24T11:37:54Z</time>
      </trkpt>
      <trkpt lat="49.15694" lon="3.9933">
        <ele>160.2</ele>
        <time>2026-08-24T11:37:55Z</time>
      </trkpt>
      <trkpt lat="49.15692" lon="3.99342">
        <ele>160.4</ele>
        <time>2026-08-24T11:37:56Z</time>
      </trkpt>
      <trkpt lat="49.15691" lon="3.99353">
        <ele>160.4</ele>
        <time>2026-08-24T11:37:57Z</time>
      </trkpt>
      <trkpt lat="49.15689" lon="3.99364">
        <ele>160.4</ele>
        <time>2026-08-24T11:37:58Z</time>
      </trkpt>
      <trkpt lat="49.15688" lon="3.99375">
        <ele>160.6</ele>
        <time>2026-08-24T11:37:59Z</time>
      </trkpt>
      <trkpt lat="49.15686" lon="3.99386">
        <ele>160.8</ele>
        <time>2026-08-24T11:38:00Z</time>
      </trkpt>
      <trkpt lat="49.15685" lon="3.99397">
        <ele>161</ele>
        <time>2026-08-24T11:38:01Z</time>
      </trkpt>
      <trkpt lat="49.15684" lon="3.99407">
        <ele>161.2</ele>
        <time>2026-08-24T11:38:02Z</time>
      </trkpt>
      <trkpt lat="49.15683" lon="3.99416">
        <ele>161.4</ele>
        <time>2026-08-24T11:38:03Z</time>
      </trkpt>
      <trkpt lat="49.15683" lon="3.99426">
        <ele>161.6</ele>
        <time>2026-08-24T11:38:04Z</time>
      </trkpt>
      <trkpt lat="49.15683" lon="3.99434">
        <ele>161.8</ele>
        <time>2026-08-24T11:38:05Z</time>
      </trkpt>
      <trkpt lat="49.15682" lon="3.99442">
        <ele>162.2</ele>
        <time>2026-08-24T11:38:06Z</time>
      </trkpt>
      <trkpt lat="49.15682" lon="3.99449">
        <ele>162.6</ele>
        <time>2026-08-24T11:38:07Z</time>
      </trkpt>
      <trkpt lat="49.15682" lon="3.99455">
        <ele>163.2</ele>
        <time>2026-08-24T11:38:08Z</time>
      </trkpt>
      <trkpt lat="49.15683" lon="3.9946">
        <ele>163.8</ele>
        <time>2026-08-24T11:38:09Z</time>
      </trkpt>
      <trkpt lat="49.15683" lon="3.99465">
        <ele>164.4</ele>
        <time>2026-08-24T11:38:10Z</time>
      </trkpt>
      <trkpt lat="49.15682" lon="3.9947">
        <ele>164.8</ele>
        <time>2026-08-24T11:38:11Z</time>
      </trkpt>
      <trkpt lat="49.15683" lon="3.99475">
        <ele>165.2</ele>
        <time>2026-08-24T11:38:12Z</time>
      </trkpt>
      <trkpt lat="49.15683" lon="3.99479">
        <ele>165.6</ele>
        <time>2026-08-24T11:38:13Z</time>
      </trkpt>
      <trkpt lat="49.15683" lon="3.99484">
        <ele>165.8</ele>
        <time>2026-08-24T11:38:14Z</time>
      </trkpt>
      <trkpt lat="49.15683" lon="3.99489">
        <ele>166.2</ele>
        <time>2026-08-24T11:38:15Z</time>
      </trkpt>
      <trkpt lat="49.15684" lon="3.99494">
        <ele>166.4</ele>
        <time>2026-08-24T11:38:16Z</time>
      </trkpt>
      <trkpt lat="49.15684" lon="3.99498">
        <ele>166.6</ele>
        <time>2026-08-24T11:38:17Z</time>
      </trkpt>
      <trkpt lat="49.15685" lon="3.99503">
        <ele>167</ele>
        <time>2026-08-24T11:38:18Z</time>
      </trkpt>
      <trkpt lat="49.15685" lon="3.99507">
        <ele>167.2</ele>
        <time>2026-08-24T11:38:19Z</time>
      </trkpt>
      <trkpt lat="49.15686" lon="3.99511">
        <ele>167.6</ele>
        <time>2026-08-24T11:38:20Z</time>
      </trkpt>
      <trkpt lat="49.15686" lon="3.99515">
        <ele>167.8</ele>
        <time>2026-08-24T11:38:21Z</time>
      </trkpt>
      <trkpt lat="49.15686" lon="3.99519">
        <ele>168.2</ele>
        <time>2026-08-24T11:38:22Z</time>
      </trkpt>
      <trkpt lat="49.15687" lon="3.99523">
        <ele>168.4</ele>
        <time>2026-08-24T11:38:23Z</time>
      </trkpt>
      <trkpt lat="49.15688" lon="3.99527">
        <ele>168.8</ele>
        <time>2026-08-24T11:38:24Z</time>
      </trkpt>
      <trkpt lat="49.15688" lon="3.99532">
        <ele>169</ele>
        <time>2026-08-24T11:38:25Z</time>
      </trkpt>
      <trkpt lat="49.15689" lon="3.99536">
        <ele>169.2</ele>
        <time>2026-08-24T11:38:26Z</time>
      </trkpt>
      <trkpt lat="49.1569" lon="3.9954">
        <ele>169.6</ele>
        <time>2026-08-24T11:38:27Z</time>
      </trkpt>
      <trkpt lat="49.15691" lon="3.99545">
        <ele>169.8</ele>
        <time>2026-08-24T11:38:28Z</time>
      </trkpt>
      <trkpt lat="49.15692" lon="3.99549">
        <ele>170.2</ele>
        <time>2026-08-24T11:38:29Z</time>
      </trkpt>
      <trkpt lat="49.15693" lon="3.99553">
        <ele>170.4</ele>
        <time>2026-08-24T11:38:30Z</time>
      </trkpt>
      <trkpt lat="49.15694" lon="3.99558">
        <ele>170.6</ele>
        <time>2026-08-24T11:38:31Z</time>
      </trkpt>
      <trkpt lat="49.15694" lon="3.99562">
        <ele>170.8</ele>
        <time>2026-08-24T11:38:32Z</time>
      </trkpt>
      <trkpt lat="49.15695" lon="3.99566">
        <ele>171</ele>
        <time>2026-08-24T11:38:33Z</time>
      </trkpt>
      <trkpt lat="49.15696" lon="3.99571">
        <ele>171.2</ele>
        <time>2026-08-24T11:38:34Z</time>
      </trkpt>
      <trkpt lat="49.15697" lon="3.99575">
        <ele>171.4</ele>
        <time>2026-08-24T11:38:35Z</time>
      </trkpt>
      <trkpt lat="49.15698" lon="3.99579">
        <ele>171.8</ele>
        <time>2026-08-24T11:38:36Z</time>
      </trkpt>
      <trkpt lat="49.15699" lon="3.99584">
        <ele>172</ele>
        <time>2026-08-24T11:38:37Z</time>
      </trkpt>
      <trkpt lat="49.157" lon="3.99588">
        <ele>172.2</ele>
        <time>2026-08-24T11:38:38Z</time>
      </trkpt>
      <trkpt lat="49.15702" lon="3.99592">
        <ele>172.4</ele>
        <time>2026-08-24T11:38:39Z</time>
      </trkpt>
      <trkpt lat="49.15703" lon="3.99596">
        <ele>172.6</ele>
        <time>2026-08-24T11:38:40Z</time>
      </trkpt>
      <trkpt lat="49.15704" lon="3.99601">
        <ele>173</ele>
        <time>2026-08-24T11:38:41Z</time>
      </trkpt>
      <trkpt lat="49.15705" lon="3.99605">
        <ele>173.2</ele>
        <time>2026-08-24T11:38:42Z</time>
      </trkpt>
      <trkpt lat="49.15707" lon="3.9961">
        <ele>173.4</ele>
        <time>2026-08-24T11:38:43Z</time>
      </trkpt>
      <trkpt lat="49.15708" lon="3.99615">
        <ele>173.4</ele>
        <time>2026-08-24T11:38:44Z</time>
      </trkpt>
      <trkpt lat="49.1571" lon="3.99621">
        <ele>173.2</ele>
        <time>2026-08-24T11:38:45Z</time>
      </trkpt>
      <trkpt lat="49.15711" lon="3.99627">
        <ele>172.8</ele>
        <time>2026-08-24T11:38:46Z</time>
      </trkpt>
      <trkpt lat="49.15713" lon="3.99633">
        <ele>172.4</ele>
        <time>2026-08-24T11:38:47Z</time>
      </trkpt>
      <trkpt lat="49.15715" lon="3.9964">
        <ele>172</ele>
        <time>2026-08-24T11:38:48Z</time>
      </trkpt>
      <trkpt lat="49.15717" lon="3.99647">
        <ele>171.6</ele>
        <time>2026-08-24T11:38:49Z</time>
      </trkpt>
      <trkpt lat="49.15719" lon="3.99655">
        <ele>171.2</ele>
        <time>2026-08-24T11:38:50Z</time>
      </trkpt>
      <trkpt lat="49.15721" lon="3.99663">
        <ele>170.8</ele>
        <time>2026-08-24T11:38:51Z</time>
      </trkpt>
      <trkpt lat="49.15724" lon="3.99671">
        <ele>170.4</ele>
        <time>2026-08-24T11:38:52Z</time>
      </trkpt>
      <trkpt lat="49.15726" lon="3.9968">
        <ele>170</ele>
        <time>2026-08-24T11:38:53Z</time>
      </trkpt>
      <trkpt lat="49.15729" lon="3.99689">
        <ele>169.6</ele>
        <time>2026-08-24T11:38:54Z</time>
      </trkpt>
      <trkpt lat="49.15732" lon="3.99699">
        <ele>169.2</ele>
        <time>2026-08-24T11:38:55Z</time>
      </trkpt>
      <trkpt lat="49.15735" lon="3.9971">
        <ele>168.8</ele>
        <time>2026-08-24T11:38:56Z</time>
      </trkpt>
      <trkpt lat="49.15738" lon="3.9972">
        <ele>168.4</ele>
        <time>2026-08-24T11:38:57Z</time>
      </trkpt>
      <trkpt lat="49.15741" lon="3.99731">
        <ele>168</ele>
        <time>2026-08-24T11:38:58Z</time>
      </trkpt>
      <trkpt lat="49.15744" lon="3.99742">
        <ele>167.6</ele>
        <time>2026-08-24T11:38:59Z</time>
      </trkpt>
      <trkpt lat="49.15747" lon="3.99754">
        <ele>167</ele>
        <time>2026-08-24T11:39:00Z</time>
      </trkpt>
      <trkpt lat="49.1575" lon="3.99765">
        <ele>166.6</ele>
        <time>2026-08-24T11:39:01Z</time>
      </trkpt>
      <trkpt lat="49.15754" lon="3.99777">
        <ele>166</ele>
        <time>2026-08-24T11:39:02Z</time>
      </trkpt>
      <trkpt lat="49.15757" lon="3.99789">
        <ele>165.6</ele>
        <time>2026-08-24T11:39:03Z</time>
      </trkpt>
      <trkpt lat="49.15761" lon="3.99801">
        <ele>165</ele>
        <time>2026-08-24T11:39:04Z</time>
      </trkpt>
      <trkpt lat="49.15764" lon="3.99814">
        <ele>164.6</ele>
        <time>2026-08-24T11:39:05Z</time>
      </trkpt>
      <trkpt lat="49.15768" lon="3.99827">
        <ele>164.2</ele>
        <time>2026-08-24T11:39:06Z</time>
      </trkpt>
      <trkpt lat="49.15772" lon="3.9984">
        <ele>163.8</ele>
        <time>2026-08-24T11:39:07Z</time>
      </trkpt>
      <trkpt lat="49.15775" lon="3.99853">
        <ele>163.4</ele>
        <time>2026-08-24T11:39:08Z</time>
      </trkpt>
      <trkpt lat="49.15779" lon="3.99865">
        <ele>163.2</ele>
        <time>2026-08-24T11:39:09Z</time>
      </trkpt>
      <trkpt lat="49.15782" lon="3.99877">
        <ele>163.2</ele>
        <time>2026-08-24T11:39:10Z</time>
      </trkpt>
      <trkpt lat="49.15786" lon="3.99888">
        <ele>163.2</ele>
        <time>2026-08-24T11:39:11Z</time>
      </trkpt>
      <trkpt lat="49.15789" lon="3.99899">
        <ele>163.6</ele>
        <time>2026-08-24T11:39:12Z</time>
      </trkpt>
      <trkpt lat="49.15792" lon="3.99909">
        <ele>163.8</ele>
        <time>2026-08-24T11:39:13Z</time>
      </trkpt>
      <trkpt lat="49.15794" lon="3.99919">
        <ele>164.2</ele>
        <time>2026-08-24T11:39:14Z</time>
      </trkpt>
      <trkpt lat="49.15797" lon="3.99928">
        <ele>164.8</ele>
        <time>2026-08-24T11:39:15Z</time>
      </trkpt>
      <trkpt lat="49.15799" lon="3.99936">
        <ele>165.2</ele>
        <time>2026-08-24T11:39:16Z</time>
      </trkpt>
      <trkpt lat="49.15801" lon="3.99944">
        <ele>165.8</ele>
        <time>2026-08-24T11:39:17Z</time>
      </trkpt>
      <trkpt lat="49.15803" lon="3.99951">
        <ele>166.4</ele>
        <time>2026-08-24T11:39:18Z</time>
      </trkpt>
      <trkpt lat="49.15805" lon="3.99958">
        <ele>167</ele>
        <time>2026-08-24T11:39:19Z</time>
      </trkpt>
      <trkpt lat="49.15807" lon="3.99964">
        <ele>167.6</ele>
        <time>2026-08-24T11:39:20Z</time>
      </trkpt>
      <trkpt lat="49.15809" lon="3.9997">
        <ele>168</ele>
        <time>2026-08-24T11:39:21Z</time>
      </trkpt>
      <trkpt lat="49.1581" lon="3.99975">
        <ele>168.4</ele>
        <time>2026-08-24T11:39:22Z</time>
      </trkpt>
      <trkpt lat="49.15811" lon="3.99979">
        <ele>168.8</ele>
        <time>2026-08-24T11:39:23Z</time>
      </trkpt>
      <trkpt lat="49.15813" lon="3.99983">
        <ele>169.2</ele>
        <time>2026-08-24T11:39:24Z</time>
      </trkpt>
      <trkpt lat="49.15814" lon="3.99988">
        <ele>169.6</ele>
        <time>2026-08-24T11:39:25Z</time>
      </trkpt>
      <trkpt lat="49.15815" lon="3.99992">
        <ele>169.8</ele>
        <time>2026-08-24T11:39:26Z</time>
      </trkpt>
      <trkpt lat="49.15816" lon="3.99996">
        <ele>170.2</ele>
        <time>2026-08-24T11:39:27Z</time>
      </trkpt>
      <trkpt lat="49.15817" lon="4">
        <ele>170.4</ele>
        <time>2026-08-24T11:39:28Z</time>
      </trkpt>
      <trkpt lat="49.15818" lon="4.00004">
        <ele>170.6</ele>
        <time>2026-08-24T11:39:29Z</time>
      </trkpt>
      <trkpt lat="49.1582" lon="4.00008">
        <ele>170.8</ele>
        <time>2026-08-24T11:39:30Z</time>
      </trkpt>
      <trkpt lat="49.15821" lon="4.00012">
        <ele>171</ele>
        <time>2026-08-24T11:39:31Z</time>
      </trkpt>
      <trkpt lat="49.15822" lon="4.00015">
        <ele>171.2</ele>
        <time>2026-08-24T11:39:32Z</time>
      </trkpt>
      <trkpt lat="49.15823" lon="4.00019">
        <ele>171.4</ele>
        <time>2026-08-24T11:39:33Z</time>
      </trkpt>
      <trkpt lat="49.15824" lon="4.00023">
        <ele>171.6</ele>
        <time>2026-08-24T11:39:34Z</time>
      </trkpt>
      <trkpt lat="49.15825" lon="4.00026">
        <ele>171.8</ele>
        <time>2026-08-24T11:39:35Z</time>
      </trkpt>
      <trkpt lat="49.15826" lon="4.0003">
        <ele>171.8</ele>
        <time>2026-08-24T11:39:36Z</time>
      </trkpt>
      <trkpt lat="49.15827" lon="4.00034">
        <ele>172</ele>
        <time>2026-08-24T11:39:37Z</time>
      </trkpt>
      <trkpt lat="49.15828" lon="4.00038">
        <ele>172.2</ele>
        <time>2026-08-24T11:39:38Z</time>
      </trkpt>
      <trkpt lat="49.15829" lon="4.00042">
        <ele>172.4</ele>
        <time>2026-08-24T11:39:39Z</time>
      </trkpt>
      <trkpt lat="49.1583" lon="4.00046">
        <ele>172.8</ele>
        <time>2026-08-24T11:39:40Z</time>
      </trkpt>
      <trkpt lat="49.15831" lon="4.0005">
        <ele>173</ele>
        <time>2026-08-24T11:39:41Z</time>
      </trkpt>
      <trkpt lat="49.15832" lon="4.00053">
        <ele>173.4</ele>
        <time>2026-08-24T11:39:42Z</time>
      </trkpt>
      <trkpt lat="49.15833" lon="4.00057">
        <ele>173.8</ele>
        <time>2026-08-24T11:39:43Z</time>
      </trkpt>
      <trkpt lat="49.15834" lon="4.00061">
        <ele>174</ele>
        <time>2026-08-24T11:39:44Z</time>
      </trkpt>
      <trkpt lat="49.15835" lon="4.00065">
        <ele>174.2</ele>
        <time>2026-08-24T11:39:45Z</time>
      </trkpt>
      <trkpt lat="49.15837" lon="4.00069">
        <ele>174.4</ele>
        <time>2026-08-24T11:39:46Z</time>
      </trkpt>
      <trkpt lat="49.15838" lon="4.00073">
        <ele>174.6</ele>
        <time>2026-08-24T11:39:47Z</time>
      </trkpt>
      <trkpt lat="49.15839" lon="4.00076">
        <ele>174.8</ele>
        <time>2026-08-24T11:39:48Z</time>
      </trkpt>
      <trkpt lat="49.1584" lon="4.0008">
        <ele>175</ele>
        <time>2026-08-24T11:39:49Z</time>
      </trkpt>
      <trkpt lat="49.15841" lon="4.00084">
        <ele>175.2</ele>
        <time>2026-08-24T11:39:50Z</time>
      </trkpt>
      <trkpt lat="49.15842" lon="4.00088">
        <ele>175.4</ele>
        <time>2026-08-24T11:39:51Z</time>
      </trkpt>
      <trkpt lat="49.15843" lon="4.00091">
        <ele>175.6</ele>
        <time>2026-08-24T11:39:52Z</time>
      </trkpt>
      <trkpt lat="49.15844" lon="4.00095">
        <ele>175.8</ele>
        <time>2026-08-24T11:39:53Z</time>
      </trkpt>
      <trkpt lat="49.15845" lon="4.00099">
        <ele>175.8</ele>
        <time>2026-08-24T11:39:54Z</time>
      </trkpt>
      <trkpt lat="49.15846" lon="4.00103">
        <ele>176</ele>
        <time>2026-08-24T11:39:55Z</time>
      </trkpt>
      <trkpt lat="49.15847" lon="4.00107">
        <ele>176.2</ele>
        <time>2026-08-24T11:39:56Z</time>
      </trkpt>
      <trkpt lat="49.15848" lon="4.00111">
        <ele>176.4</ele>
        <time>2026-08-24T11:39:57Z</time>
      </trkpt>
      <trkpt lat="49.1585" lon="4.00114">
        <ele>176.8</ele>
        <time>2026-08-24T11:39:58Z</time>
      </trkpt>
      <trkpt lat="49.15851" lon="4.00118">
        <ele>177.2</ele>
        <time>2026-08-24T11:39:59Z</time>
      </trkpt>
      <trkpt lat="49.15852" lon="4.00122">
        <ele>177.4</ele>
        <time>2026-08-24T11:40:00Z</time>
      </trkpt>
      <trkpt lat="49.15852" lon="4.00126">
        <ele>177.8</ele>
        <time>2026-08-24T11:40:01Z</time>
      </trkpt>
      <trkpt lat="49.15853" lon="4.00129">
        <ele>178</ele>
        <time>2026-08-24T11:40:02Z</time>
      </trkpt>
      <trkpt lat="49.15854" lon="4.00133">
        <ele>178.2</ele>
        <time>2026-08-24T11:40:03Z</time>
      </trkpt>
      <trkpt lat="49.15855" lon="4.00137">
        <ele>178.4</ele>
        <time>2026-08-24T11:40:04Z</time>
      </trkpt>
      <trkpt lat="49.15856" lon="4.0014">
        <ele>178.6</ele>
        <time>2026-08-24T11:40:05Z</time>
      </trkpt>
      <trkpt lat="49.15858" lon="4.00143">
        <ele>178.8</ele>
        <time>2026-08-24T11:40:06Z</time>
      </trkpt>
      <trkpt lat="49.15859" lon="4.00147">
        <ele>179.2</ele>
        <time>2026-08-24T11:40:07Z</time>
      </trkpt>
      <trkpt lat="49.1586" lon="4.00151">
        <ele>179.6</ele>
        <time>2026-08-24T11:40:08Z</time>
      </trkpt>
      <trkpt lat="49.15861" lon="4.00154">
        <ele>179.8</ele>
        <time>2026-08-24T11:40:09Z</time>
      </trkpt>
      <trkpt lat="49.15862" lon="4.00158">
        <ele>180.2</ele>
        <time>2026-08-24T11:40:10Z</time>
      </trkpt>
      <trkpt lat="49.15863" lon="4.00161">
        <ele>180.4</ele>
        <time>2026-08-24T11:40:11Z</time>
      </trkpt>
      <trkpt lat="49.15864" lon="4.00165">
        <ele>180.6</ele>
        <time>2026-08-24T11:40:12Z</time>
      </trkpt>
      <trkpt lat="49.15865" lon="4.00168">
        <ele>180.8</ele>
        <time>2026-08-24T11:40:13Z</time>
      </trkpt>
      <trkpt lat="49.15866" lon="4.00171">
        <ele>181</ele>
        <time>2026-08-24T11:40:14Z</time>
      </trkpt>
      <trkpt lat="49.15867" lon="4.00174">
        <ele>181.4</ele>
        <time>2026-08-24T11:40:15Z</time>
      </trkpt>
      <trkpt lat="49.15868" lon="4.00178">
        <ele>181.6</ele>
        <time>2026-08-24T11:40:16Z</time>
      </trkpt>
      <trkpt lat="49.15869" lon="4.00181">
        <ele>181.8</ele>
        <time>2026-08-24T11:40:17Z</time>
      </trkpt>
      <trkpt lat="49.1587" lon="4.00184">
        <ele>182</ele>
        <time>2026-08-24T11:40:18Z</time>
      </trkpt>
      <trkpt lat="49.15871" lon="4.00187">
        <ele>182.2</ele>
        <time>2026-08-24T11:40:19Z</time>
      </trkpt>
      <trkpt lat="49.15871" lon="4.0019">
        <ele>182.4</ele>
        <time>2026-08-24T11:40:20Z</time>
      </trkpt>
      <trkpt lat="49.15872" lon="4.00194">
        <ele>182.6</ele>
        <time>2026-08-24T11:40:21Z</time>
      </trkpt>
      <trkpt lat="49.15873" lon="4.00197">
        <ele>182.8</ele>
        <time>2026-08-24T11:40:22Z</time>
      </trkpt>
      <trkpt lat="49.15874" lon="4.002">
        <ele>183</ele>
        <time>2026-08-24T11:40:23Z</time>
      </trkpt>
      <trkpt lat="49.15875" lon="4.00203">
        <ele>183.2</ele>
        <time>2026-08-24T11:40:24Z</time>
      </trkpt>
      <trkpt lat="49.15876" lon="4.00206">
        <ele>183.4</ele>
        <time>2026-08-24T11:40:25Z</time>
      </trkpt>
      <trkpt lat="49.15877" lon="4.0021">
        <ele>183.6</ele>
        <time>2026-08-24T11:40:26Z</time>
      </trkpt>
      <trkpt lat="49.15878" lon="4.00213">
        <ele>183.8</ele>
        <time>2026-08-24T11:40:27Z</time>
      </trkpt>
      <trkpt lat="49.15879" lon="4.00216">
        <ele>184</ele>
        <time>2026-08-24T11:40:28Z</time>
      </trkpt>
      <trkpt lat="49.1588" lon="4.00219">
        <ele>184.2</ele>
        <time>2026-08-24T11:40:29Z</time>
      </trkpt>
      <trkpt lat="49.1588" lon="4.00223">
        <ele>184.4</ele>
        <time>2026-08-24T11:40:30Z</time>
      </trkpt>
      <trkpt lat="49.15881" lon="4.00226">
        <ele>184.4</ele>
        <time>2026-08-24T11:40:31Z</time>
      </trkpt>
      <trkpt lat="49.15882" lon="4.00229">
        <ele>184.6</ele>
        <time>2026-08-24T11:40:32Z</time>
      </trkpt>
      <trkpt lat="49.15882" lon="4.00232">
        <ele>184.8</ele>
        <time>2026-08-24T11:40:33Z</time>
      </trkpt>
      <trkpt lat="49.15883" lon="4.00236">
        <ele>184.8</ele>
        <time>2026-08-24T11:40:34Z</time>
      </trkpt>
      <trkpt lat="49.15884" lon="4.00239">
        <ele>185</ele>
        <time>2026-08-24T11:40:35Z</time>
      </trkpt>
      <trkpt lat="49.15885" lon="4.00242">
        <ele>185.2</ele>
        <time>2026-08-24T11:40:36Z</time>
      </trkpt>
      <trkpt lat="49.15886" lon="4.00245">
        <ele>185.4</ele>
        <time>2026-08-24T11:40:37Z</time>
      </trkpt>
      <trkpt lat="49.15887" lon="4.00248">
        <ele>185.8</ele>
        <time>2026-08-24T11:40:38Z</time>
      </trkpt>
      <trkpt lat="49.15888" lon="4.00252">
        <ele>186</ele>
        <time>2026-08-24T11:40:39Z</time>
      </trkpt>
      <trkpt lat="49.15889" lon="4.00255">
        <ele>186.2</ele>
        <time>2026-08-24T11:40:40Z</time>
      </trkpt>
      <trkpt lat="49.1589" lon="4.00258">
        <ele>186.4</ele>
        <time>2026-08-24T11:40:41Z</time>
      </trkpt>
      <trkpt lat="49.15891" lon="4.00261">
        <ele>186.6</ele>
        <time>2026-08-24T11:40:42Z</time>
      </trkpt>
      <trkpt lat="49.15891" lon="4.00264">
        <ele>186.8</ele>
        <time>2026-08-24T11:40:43Z</time>
      </trkpt>
      <trkpt lat="49.15892" lon="4.00267">
        <ele>187.2</ele>
        <time>2026-08-24T11:40:44Z</time>
      </trkpt>
      <trkpt lat="49.15894" lon="4.00271">
        <ele>187.4</ele>
        <time>2026-08-24T11:40:45Z</time>
      </trkpt>
      <trkpt lat="49.15895" lon="4.00274">
        <ele>187.8</ele>
        <time>2026-08-24T11:40:46Z</time>
      </trkpt>
      <trkpt lat="49.15895" lon="4.00277">
        <ele>188</ele>
        <time>2026-08-24T11:40:47Z</time>
      </trkpt>
      <trkpt lat="49.15896" lon="4.0028">
        <ele>188.2</ele>
        <time>2026-08-24T11:40:48Z</time>
      </trkpt>
      <trkpt lat="49.15897" lon="4.00283">
        <ele>188.6</ele>
        <time>2026-08-24T11:40:49Z</time>
      </trkpt>
      <trkpt lat="49.15898" lon="4.00286">
        <ele>189</ele>
        <time>2026-08-24T11:40:50Z</time>
      </trkpt>
      <trkpt lat="49.15899" lon="4.00289">
        <ele>189.2</ele>
        <time>2026-08-24T11:40:51Z</time>
      </trkpt>
      <trkpt lat="49.159" lon="4.00293">
        <ele>189.6</ele>
        <time>2026-08-24T11:40:52Z</time>
      </trkpt>
      <trkpt lat="49.15901" lon="4.00296">
        <ele>189.8</ele>
        <time>2026-08-24T11:40:53Z</time>
      </trkpt>
      <trkpt lat="49.15902" lon="4.00299">
        <ele>190</ele>
        <time>2026-08-24T11:40:54Z</time>
      </trkpt>
      <trkpt lat="49.15903" lon="4.00302">
        <ele>190.2</ele>
        <time>2026-08-24T11:40:55Z</time>
      </trkpt>
      <trkpt lat="49.15904" lon="4.00306">
        <ele>190.6</ele>
        <time>2026-08-24T11:40:56Z</time>
      </trkpt>
      <trkpt lat="49.15905" lon="4.00309">
        <ele>190.8</ele>
        <time>2026-08-24T11:40:57Z</time>
      </trkpt>
      <trkpt lat="49.15906" lon="4.00312">
        <ele>191</ele>
        <time>2026-08-24T11:40:58Z</time>
      </trkpt>
      <trkpt lat="49.15907" lon="4.00315">
        <ele>191.2</ele>
        <time>2026-08-24T11:40:59Z</time>
      </trkpt>
      <trkpt lat="49.15908" lon="4.00318">
        <ele>191.4</ele>
        <time>2026-08-24T11:41:00Z</time>
      </trkpt>
      <trkpt lat="49.15909" lon="4.00321">
        <ele>191.6</ele>
        <time>2026-08-24T11:41:01Z</time>
      </trkpt>
      <trkpt lat="49.1591" lon="4.00324">
        <ele>191.8</ele>
        <time>2026-08-24T11:41:02Z</time>
      </trkpt>
      <trkpt lat="49.15911" lon="4.00328">
        <ele>192</ele>
        <time>2026-08-24T11:41:03Z</time>
      </trkpt>
      <trkpt lat="49.15912" lon="4.00331">
        <ele>192.2</ele>
        <time>2026-08-24T11:41:04Z</time>
      </trkpt>
      <trkpt lat="49.15912" lon="4.00334">
        <ele>192.4</ele>
        <time>2026-08-24T11:41:05Z</time>
      </trkpt>
      <trkpt lat="49.15914" lon="4.00337">
        <ele>192.6</ele>
        <time>2026-08-24T11:41:06Z</time>
      </trkpt>
      <trkpt lat="49.15915" lon="4.00341">
        <ele>192.8</ele>
        <time>2026-08-24T11:41:07Z</time>
      </trkpt>
      <trkpt lat="49.15916" lon="4.00344">
        <ele>193.2</ele>
        <time>2026-08-24T11:41:08Z</time>
      </trkpt>
      <trkpt lat="49.15916" lon="4.00347">
        <ele>193.4</ele>
        <time>2026-08-24T11:41:09Z</time>
      </trkpt>
      <trkpt lat="49.15917" lon="4.0035">
        <ele>193.6</ele>
        <time>2026-08-24T11:41:10Z</time>
      </trkpt>
      <trkpt lat="49.15918" lon="4.00354">
        <ele>193.8</ele>
        <time>2026-08-24T11:41:11Z</time>
      </trkpt>
      <trkpt lat="49.15919" lon="4.00357">
        <ele>194</ele>
        <time>2026-08-24T11:41:12Z</time>
      </trkpt>
      <trkpt lat="49.1592" lon="4.00361">
        <ele>194.2</ele>
        <time>2026-08-24T11:41:13Z</time>
      </trkpt>
      <trkpt lat="49.15921" lon="4.00364">
        <ele>194.4</ele>
        <time>2026-08-24T11:41:14Z</time>
      </trkpt>
      <trkpt lat="49.15922" lon="4.00367">
        <ele>194.6</ele>
        <time>2026-08-24T11:41:15Z</time>
      </trkpt>
      <trkpt lat="49.15923" lon="4.0037">
        <ele>195</ele>
        <time>2026-08-24T11:41:16Z</time>
      </trkpt>
      <trkpt lat="49.15924" lon="4.00374">
        <ele>195.2</ele>
        <time>2026-08-24T11:41:17Z</time>
      </trkpt>
      <trkpt lat="49.15925" lon="4.00376">
        <ele>195.4</ele>
        <time>2026-08-24T11:41:18Z</time>
      </trkpt>
      <trkpt lat="49.15926" lon="4.00379">
        <ele>195.6</ele>
        <time>2026-08-24T11:41:19Z</time>
      </trkpt>
      <trkpt lat="49.15927" lon="4.00382">
        <ele>195.8</ele>
        <time>2026-08-24T11:41:20Z</time>
      </trkpt>
      <trkpt lat="49.15928" lon="4.00385">
        <ele>196.2</ele>
        <time>2026-08-24T11:41:21Z</time>
      </trkpt>
      <trkpt lat="49.15929" lon="4.00388">
        <ele>196.4</ele>
        <time>2026-08-24T11:41:22Z</time>
      </trkpt>
      <trkpt lat="49.1593" lon="4.00392">
        <ele>196.6</ele>
        <time>2026-08-24T11:41:23Z</time>
      </trkpt>
      <trkpt lat="49.15931" lon="4.00395">
        <ele>196.8</ele>
        <time>2026-08-24T11:41:24Z</time>
      </trkpt>
      <trkpt lat="49.15932" lon="4.00398">
        <ele>197</ele>
        <time>2026-08-24T11:41:25Z</time>
      </trkpt>
      <trkpt lat="49.15933" lon="4.00401">
        <ele>197.2</ele>
        <time>2026-08-24T11:41:26Z</time>
      </trkpt>
      <trkpt lat="49.15934" lon="4.00405">
        <ele>197.4</ele>
        <time>2026-08-24T11:41:27Z</time>
      </trkpt>
      <trkpt lat="49.15935" lon="4.00408">
        <ele>197.6</ele>
        <time>2026-08-24T11:41:28Z</time>
      </trkpt>
      <trkpt lat="49.15936" lon="4.00411">
        <ele>197.8</ele>
        <time>2026-08-24T11:41:29Z</time>
      </trkpt>
      <trkpt lat="49.15937" lon="4.00414">
        <ele>198</ele>
        <time>2026-08-24T11:41:30Z</time>
      </trkpt>
      <trkpt lat="49.15938" lon="4.00417">
        <ele>198.2</ele>
        <time>2026-08-24T11:41:31Z</time>
      </trkpt>
      <trkpt lat="49.15939" lon="4.00421">
        <ele>198.4</ele>
        <time>2026-08-24T11:41:32Z</time>
      </trkpt>
      <trkpt lat="49.15941" lon="4.00424">
        <ele>198.6</ele>
        <time>2026-08-24T11:41:33Z</time>
      </trkpt>
      <trkpt lat="49.15942" lon="4.00427">
        <ele>199</ele>
        <time>2026-08-24T11:41:34Z</time>
      </trkpt>
      <trkpt lat="49.15943" lon="4.0043">
        <ele>199.2</ele>
        <time>2026-08-24T11:41:35Z</time>
      </trkpt>
      <trkpt lat="49.15944" lon="4.00433">
        <ele>199.4</ele>
        <time>2026-08-24T11:41:36Z</time>
      </trkpt>
      <trkpt lat="49.15945" lon="4.00436">
        <ele>199.6</ele>
        <time>2026-08-24T11:41:37Z</time>
      </trkpt>
      <trkpt lat="49.15946" lon="4.00439">
        <ele>199.8</ele>
        <time>2026-08-24T11:41:38Z</time>
      </trkpt>
      <trkpt lat="49.15947" lon="4.00442">
        <ele>200</ele>
        <time>2026-08-24T11:41:39Z</time>
      </trkpt>
      <trkpt lat="49.15948" lon="4.00446">
        <ele>200.2</ele>
        <time>2026-08-24T11:41:40Z</time>
      </trkpt>
      <trkpt lat="49.15949" lon="4.00449">
        <ele>200.4</ele>
        <time>2026-08-24T11:41:41Z</time>
      </trkpt>
      <trkpt lat="49.1595" lon="4.00452">
        <ele>200.6</ele>
        <time>2026-08-24T11:41:42Z</time>
      </trkpt>
      <trkpt lat="49.15951" lon="4.00455">
        <ele>201</ele>
        <time>2026-08-24T11:41:43Z</time>
      </trkpt>
      <trkpt lat="49.15952" lon="4.00458">
        <ele>201.2</ele>
        <time>2026-08-24T11:41:44Z</time>
      </trkpt>
      <trkpt lat="49.15953" lon="4.00461">
        <ele>201.4</ele>
        <time>2026-08-24T11:41:45Z</time>
      </trkpt>
      <trkpt lat="49.15954" lon="4.00464">
        <ele>201.6</ele>
        <time>2026-08-24T11:41:46Z</time>
      </trkpt>
      <trkpt lat="49.15955" lon="4.00467">
        <ele>201.8</ele>
        <time>2026-08-24T11:41:47Z</time>
      </trkpt>
      <trkpt lat="49.15956" lon="4.00471">
        <ele>202</ele>
        <time>2026-08-24T11:41:48Z</time>
      </trkpt>
      <trkpt lat="49.15957" lon="4.00475">
        <ele>202.2</ele>
        <time>2026-08-24T11:41:49Z</time>
      </trkpt>
      <trkpt lat="49.15958" lon="4.00478">
        <ele>202.6</ele>
        <time>2026-08-24T11:41:50Z</time>
      </trkpt>
      <trkpt lat="49.15959" lon="4.00481">
        <ele>202.8</ele>
        <time>2026-08-24T11:41:51Z</time>
      </trkpt>
      <trkpt lat="49.15961" lon="4.00484">
        <ele>203</ele>
        <time>2026-08-24T11:41:52Z</time>
      </trkpt>
      <trkpt lat="49.15962" lon="4.00487">
        <ele>203.2</ele>
        <time>2026-08-24T11:41:53Z</time>
      </trkpt>
      <trkpt lat="49.15963" lon="4.0049">
        <ele>203.4</ele>
        <time>2026-08-24T11:41:54Z</time>
      </trkpt>
      <trkpt lat="49.15965" lon="4.00494">
        <ele>203.6</ele>
        <time>2026-08-24T11:41:55Z</time>
      </trkpt>
      <trkpt lat="49.15966" lon="4.00497">
        <ele>203.8</ele>
        <time>2026-08-24T11:41:56Z</time>
      </trkpt>
      <trkpt lat="49.15967" lon="4.005">
        <ele>204</ele>
        <time>2026-08-24T11:41:57Z</time>
      </trkpt>
      <trkpt lat="49.15969" lon="4.00503">
        <ele>204.2</ele>
        <time>2026-08-24T11:41:58Z</time>
      </trkpt>
      <trkpt lat="49.1597" lon="4.00506">
        <ele>204.4</ele>
        <time>2026-08-24T11:41:59Z</time>
      </trkpt>
      <trkpt lat="49.15971" lon="4.00509">
        <ele>204.6</ele>
        <time>2026-08-24T11:42:00Z</time>
      </trkpt>
      <trkpt lat="49.15972" lon="4.00513">
        <ele>204.8</ele>
        <time>2026-08-24T11:42:01Z</time>
      </trkpt>
      <trkpt lat="49.15973" lon="4.00516">
        <ele>204.8</ele>
        <time>2026-08-24T11:42:02Z</time>
      </trkpt>
      <trkpt lat="49.15974" lon="4.00519">
        <ele>205</ele>
        <time>2026-08-24T11:42:03Z</time>
      </trkpt>
      <trkpt lat="49.15975" lon="4.00522">
        <ele>205.2</ele>
        <time>2026-08-24T11:42:04Z</time>
      </trkpt>
      <trkpt lat="49.15976" lon="4.00525">
        <ele>205.4</ele>
        <time>2026-08-24T11:42:05Z</time>
      </trkpt>
      <trkpt lat="49.15977" lon="4.00528">
        <ele>205.8</ele>
        <time>2026-08-24T11:42:06Z</time>
      </trkpt>
      <trkpt lat="49.15978" lon="4.00531">
        <ele>206</ele>
        <time>2026-08-24T11:42:07Z</time>
      </trkpt>
      <trkpt lat="49.15979" lon="4.00534">
        <ele>206.2</ele>
        <time>2026-08-24T11:42:08Z</time>
      </trkpt>
      <trkpt lat="49.15981" lon="4.00537">
        <ele>206.4</ele>
        <time>2026-08-24T11:42:09Z</time>
      </trkpt>
      <trkpt lat="49.15982" lon="4.0054">
        <ele>206.6</ele>
        <time>2026-08-24T11:42:10Z</time>
      </trkpt>
      <trkpt lat="49.15983" lon="4.00543">
        <ele>206.8</ele>
        <time>2026-08-24T11:42:11Z</time>
      </trkpt>
      <trkpt lat="49.15984" lon="4.00546">
        <ele>207.2</ele>
        <time>2026-08-24T11:42:12Z</time>
      </trkpt>
      <trkpt lat="49.15985" lon="4.00549">
        <ele>207.4</ele>
        <time>2026-08-24T11:42:13Z</time>
      </trkpt>
      <trkpt lat="49.15986" lon="4.00552">
        <ele>207.8</ele>
        <time>2026-08-24T11:42:14Z</time>
      </trkpt>
      <trkpt lat="49.15987" lon="4.00555">
        <ele>208</ele>
        <time>2026-08-24T11:42:15Z</time>
      </trkpt>
      <trkpt lat="49.15988" lon="4.00558">
        <ele>208.4</ele>
        <time>2026-08-24T11:42:16Z</time>
      </trkpt>
      <trkpt lat="49.1599" lon="4.00562">
        <ele>208.6</ele>
        <time>2026-08-24T11:42:17Z</time>
      </trkpt>
      <trkpt lat="49.15991" lon="4.00565">
        <ele>208.8</ele>
        <time>2026-08-24T11:42:18Z</time>
      </trkpt>
      <trkpt lat="49.15993" lon="4.00568">
        <ele>209</ele>
        <time>2026-08-24T11:42:19Z</time>
      </trkpt>
      <trkpt lat="49.15994" lon="4.00571">
        <ele>209.2</ele>
        <time>2026-08-24T11:42:20Z</time>
      </trkpt>
      <trkpt lat="49.15996" lon="4.00574">
        <ele>209.4</ele>
        <time>2026-08-24T11:42:21Z</time>
      </trkpt>
      <trkpt lat="49.15997" lon="4.00577">
        <ele>209.6</ele>
        <time>2026-08-24T11:42:22Z</time>
      </trkpt>
      <trkpt lat="49.15998" lon="4.0058">
        <ele>209.8</ele>
        <time>2026-08-24T11:42:23Z</time>
      </trkpt>
      <trkpt lat="49.15999" lon="4.00583">
        <ele>210</ele>
        <time>2026-08-24T11:42:24Z</time>
      </trkpt>
      <trkpt lat="49.16001" lon="4.00586">
        <ele>210.2</ele>
        <time>2026-08-24T11:42:25Z</time>
      </trkpt>
      <trkpt lat="49.16002" lon="4.00589">
        <ele>210.4</ele>
        <time>2026-08-24T11:42:26Z</time>
      </trkpt>
      <trkpt lat="49.16004" lon="4.00592">
        <ele>210.6</ele>
        <time>2026-08-24T11:42:27Z</time>
      </trkpt>
      <trkpt lat="49.16005" lon="4.00595">
        <ele>210.8</ele>
        <time>2026-08-24T11:42:28Z</time>
      </trkpt>
      <trkpt lat="49.16007" lon="4.00598">
        <ele>211.2</ele>
        <time>2026-08-24T11:42:29Z</time>
      </trkpt>
      <trkpt lat="49.16008" lon="4.00602">
        <ele>211.4</ele>
        <time>2026-08-24T11:42:30Z</time>
      </trkpt>
      <trkpt lat="49.1601" lon="4.00605">
        <ele>211.6</ele>
        <time>2026-08-24T11:42:31Z</time>
      </trkpt>
      <trkpt lat="49.16011" lon="4.00608">
        <ele>211.8</ele>
        <time>2026-08-24T11:42:32Z</time>
      </trkpt>
      <trkpt lat="49.16012" lon="4.00611">
        <ele>212</ele>
        <time>2026-08-24T11:42:33Z</time>
      </trkpt>
      <trkpt lat="49.16014" lon="4.00614">
        <ele>212.2</ele>
        <time>2026-08-24T11:42:34Z</time>
      </trkpt>
      <trkpt lat="49.16016" lon="4.00617">
        <ele>212.4</ele>
        <time>2026-08-24T11:42:35Z</time>
      </trkpt>
      <trkpt lat="49.16017" lon="4.0062">
        <ele>212.6</ele>
        <time>2026-08-24T11:42:36Z</time>
      </trkpt>
      <trkpt lat="49.16019" lon="4.00624">
        <ele>212.8</ele>
        <time>2026-08-24T11:42:37Z</time>
      </trkpt>
      <trkpt lat="49.1602" lon="4.00628">
        <ele>212.8</ele>
        <time>2026-08-24T11:42:38Z</time>
      </trkpt>
      <trkpt lat="49.16022" lon="4.00631">
        <ele>213</ele>
        <time>2026-08-24T11:42:39Z</time>
      </trkpt>
      <trkpt lat="49.16024" lon="4.00635">
        <ele>213</ele>
        <time>2026-08-24T11:42:40Z</time>
      </trkpt>
      <trkpt lat="49.16025" lon="4.00639">
        <ele>213.2</ele>
        <time>2026-08-24T11:42:41Z</time>
      </trkpt>
      <trkpt lat="49.16027" lon="4.00643">
        <ele>213.4</ele>
        <time>2026-08-24T11:42:42Z</time>
      </trkpt>
      <trkpt lat="49.16028" lon="4.00646">
        <ele>213.6</ele>
        <time>2026-08-24T11:42:43Z</time>
      </trkpt>
      <trkpt lat="49.1603" lon="4.0065">
        <ele>213.8</ele>
        <time>2026-08-24T11:42:44Z</time>
      </trkpt>
      <trkpt lat="49.16031" lon="4.00654">
        <ele>214</ele>
        <time>2026-08-24T11:42:45Z</time>
      </trkpt>
      <trkpt lat="49.16033" lon="4.00657">
        <ele>214.2</ele>
        <time>2026-08-24T11:42:46Z</time>
      </trkpt>
      <trkpt lat="49.16034" lon="4.00661">
        <ele>214.4</ele>
        <time>2026-08-24T11:42:47Z</time>
      </trkpt>
      <trkpt lat="49.16036" lon="4.00665">
        <ele>214.6</ele>
        <time>2026-08-24T11:42:48Z</time>
      </trkpt>
      <trkpt lat="49.16037" lon="4.00668">
        <ele>214.8</ele>
        <time>2026-08-24T11:42:49Z</time>
      </trkpt>
      <trkpt lat="49.16039" lon="4.00672">
        <ele>215</ele>
        <time>2026-08-24T11:42:50Z</time>
      </trkpt>
      <trkpt lat="49.1604" lon="4.00676">
        <ele>215</ele>
        <time>2026-08-24T11:42:51Z</time>
      </trkpt>
      <trkpt lat="49.16042" lon="4.00681">
        <ele>215.2</ele>
        <time>2026-08-24T11:42:52Z</time>
      </trkpt>
      <trkpt lat="49.16044" lon="4.00685">
        <ele>215.4</ele>
        <time>2026-08-24T11:42:53Z</time>
      </trkpt>
      <trkpt lat="49.16046" lon="4.00689">
        <ele>215.4</ele>
        <time>2026-08-24T11:42:54Z</time>
      </trkpt>
      <trkpt lat="49.16047" lon="4.00693">
        <ele>215.6</ele>
        <time>2026-08-24T11:42:55Z</time>
      </trkpt>
      <trkpt lat="49.16049" lon="4.00697">
        <ele>215.8</ele>
        <time>2026-08-24T11:42:56Z</time>
      </trkpt>
      <trkpt lat="49.1605" lon="4.00701">
        <ele>215.8</ele>
        <time>2026-08-24T11:42:57Z</time>
      </trkpt>
      <trkpt lat="49.16052" lon="4.00705">
        <ele>216</ele>
        <time>2026-08-24T11:42:58Z</time>
      </trkpt>
      <trkpt lat="49.16054" lon="4.00709">
        <ele>216.2</ele>
        <time>2026-08-24T11:42:59Z</time>
      </trkpt>
      <trkpt lat="49.16056" lon="4.00713">
        <ele>216.4</ele>
        <time>2026-08-24T11:43:00Z</time>
      </trkpt>
      <trkpt lat="49.16058" lon="4.00718">
        <ele>216.4</ele>
        <time>2026-08-24T11:43:01Z</time>
      </trkpt>
      <trkpt lat="49.16059" lon="4.00722">
        <ele>216.4</ele>
        <time>2026-08-24T11:43:02Z</time>
      </trkpt>
      <trkpt lat="49.16061" lon="4.00726">
        <ele>216.6</ele>
        <time>2026-08-24T11:43:03Z</time>
      </trkpt>
      <trkpt lat="49.16063" lon="4.0073">
        <ele>216.6</ele>
        <time>2026-08-24T11:43:04Z</time>
      </trkpt>
      <trkpt lat="49.16065" lon="4.00735">
        <ele>216.8</ele>
        <time>2026-08-24T11:43:05Z</time>
      </trkpt>
      <trkpt lat="49.16066" lon="4.00739">
        <ele>217</ele>
        <time>2026-08-24T11:43:06Z</time>
      </trkpt>
      <trkpt lat="49.16067" lon="4.00744">
        <ele>217.2</ele>
        <time>2026-08-24T11:43:07Z</time>
      </trkpt>
      <trkpt lat="49.16069" lon="4.00748">
        <ele>217.4</ele>
        <time>2026-08-24T11:43:08Z</time>
      </trkpt>
      <trkpt lat="49.1607" lon="4.00753">
        <ele>217.6</ele>
        <time>2026-08-24T11:43:09Z</time>
      </trkpt>
      <trkpt lat="49.16071" lon="4.00757">
        <ele>217.8</ele>
        <time>2026-08-24T11:43:10Z</time>
      </trkpt>
      <trkpt lat="49.16072" lon="4.00762">
        <ele>218.2</ele>
        <time>2026-08-24T11:43:11Z</time>
      </trkpt>
      <trkpt lat="49.16073" lon="4.00766">
        <ele>218.4</ele>
        <time>2026-08-24T11:43:12Z</time>
      </trkpt>
      <trkpt lat="49.16074" lon="4.00771">
        <ele>218.4</ele>
        <time>2026-08-24T11:43:13Z</time>
      </trkpt>
      <trkpt lat="49.16075" lon="4.00775">
        <ele>218.6</ele>
        <time>2026-08-24T11:43:14Z</time>
      </trkpt>
      <trkpt lat="49.16076" lon="4.00779">
        <ele>218.6</ele>
        <time>2026-08-24T11:43:15Z</time>
      </trkpt>
      <trkpt lat="49.16077" lon="4.00784">
        <ele>219</ele>
        <time>2026-08-24T11:43:16Z</time>
      </trkpt>
      <trkpt lat="49.16077" lon="4.00788">
        <ele>219.2</ele>
        <time>2026-08-24T11:43:17Z</time>
      </trkpt>
      <trkpt lat="49.16078" lon="4.00792">
        <ele>219.4</ele>
        <time>2026-08-24T11:43:18Z</time>
      </trkpt>
      <trkpt lat="49.16079" lon="4.00797">
        <ele>219.8</ele>
        <time>2026-08-24T11:43:19Z</time>
      </trkpt>
      <trkpt lat="49.16079" lon="4.00801">
        <ele>220</ele>
        <time>2026-08-24T11:43:20Z</time>
      </trkpt>
      <trkpt lat="49.1608" lon="4.00806">
        <ele>220.2</ele>
        <time>2026-08-24T11:43:21Z</time>
      </trkpt>
      <trkpt lat="49.16081" lon="4.0081">
        <ele>220.4</ele>
        <time>2026-08-24T11:43:22Z</time>
      </trkpt>
      <trkpt lat="49.16081" lon="4.00815">
        <ele>220.4</ele>
        <time>2026-08-24T11:43:23Z</time>
      </trkpt>
      <trkpt lat="49.16082" lon="4.00819">
        <ele>220.6</ele>
        <time>2026-08-24T11:43:24Z</time>
      </trkpt>
      <trkpt lat="49.16082" lon="4.00824">
        <ele>220.8</ele>
        <time>2026-08-24T11:43:25Z</time>
      </trkpt>
      <trkpt lat="49.16083" lon="4.00829">
        <ele>221</ele>
        <time>2026-08-24T11:43:26Z</time>
      </trkpt>
      <trkpt lat="49.16083" lon="4.00834">
        <ele>221.2</ele>
        <time>2026-08-24T11:43:27Z</time>
      </trkpt>
      <trkpt lat="49.16084" lon="4.00839">
        <ele>221.2</ele>
        <time>2026-08-24T11:43:28Z</time>
      </trkpt>
      <trkpt lat="49.16084" lon="4.00845">
        <ele>221.4</ele>
        <time>2026-08-24T11:43:29Z</time>
      </trkpt>
      <trkpt lat="49.16085" lon="4.0085">
        <ele>221.8</ele>
        <time>2026-08-24T11:43:30Z</time>
      </trkpt>
      <trkpt lat="49.16085" lon="4.00855">
        <ele>222</ele>
        <time>2026-08-24T11:43:31Z</time>
      </trkpt>
      <trkpt lat="49.16086" lon="4.00861">
        <ele>222</ele>
        <time>2026-08-24T11:43:32Z</time>
      </trkpt>
      <trkpt lat="49.16086" lon="4.00866">
        <ele>222.4</ele>
        <time>2026-08-24T11:43:33Z</time>
      </trkpt>
      <trkpt lat="49.16087" lon="4.00872">
        <ele>222.4</ele>
        <time>2026-08-24T11:43:34Z</time>
      </trkpt>
      <trkpt lat="49.16087" lon="4.00877">
        <ele>222.6</ele>
        <time>2026-08-24T11:43:35Z</time>
      </trkpt>
      <trkpt lat="49.16088" lon="4.00882">
        <ele>222.8</ele>
        <time>2026-08-24T11:43:36Z</time>
      </trkpt>
      <trkpt lat="49.16088" lon="4.00888">
        <ele>222.8</ele>
        <time>2026-08-24T11:43:37Z</time>
      </trkpt>
      <trkpt lat="49.16089" lon="4.00893">
        <ele>223</ele>
        <time>2026-08-24T11:43:38Z</time>
      </trkpt>
      <trkpt lat="49.16089" lon="4.00898">
        <ele>223</ele>
        <time>2026-08-24T11:43:39Z</time>
      </trkpt>
      <trkpt lat="49.1609" lon="4.00904">
        <ele>223.2</ele>
        <time>2026-08-24T11:43:40Z</time>
      </trkpt>
      <trkpt lat="49.1609" lon="4.00909">
        <ele>223.4</ele>
        <time>2026-08-24T11:43:41Z</time>
      </trkpt>
      <trkpt lat="49.16091" lon="4.00914">
        <ele>223.4</ele>
        <time>2026-08-24T11:43:42Z</time>
      </trkpt>
      <trkpt lat="49.16091" lon="4.0092">
        <ele>223.4</ele>
        <time>2026-08-24T11:43:43Z</time>
      </trkpt>
      <trkpt lat="49.16092" lon="4.00925">
        <ele>223.4</ele>
        <time>2026-08-24T11:43:44Z</time>
      </trkpt>
      <trkpt lat="49.16092" lon="4.0093">
        <ele>223.4</ele>
        <time>2026-08-24T11:43:45Z</time>
      </trkpt>
      <trkpt lat="49.16092" lon="4.00936">
        <ele>223.4</ele>
        <time>2026-08-24T11:43:46Z</time>
      </trkpt>
      <trkpt lat="49.16092" lon="4.00941">
        <ele>223.2</ele>
        <time>2026-08-24T11:43:47Z</time>
      </trkpt>
      <trkpt lat="49.16092" lon="4.00947">
        <ele>223.2</ele>
        <time>2026-08-24T11:43:48Z</time>
      </trkpt>
      <trkpt lat="49.16092" lon="4.00953">
        <ele>223.2</ele>
        <time>2026-08-24T11:43:49Z</time>
      </trkpt>
      <trkpt lat="49.16091" lon="4.00957">
        <ele>223.2</ele>
        <time>2026-08-24T11:43:50Z</time>
      </trkpt>
      <trkpt lat="49.1609" lon="4.0096">
        <ele>223.2</ele>
        <time>2026-08-24T11:43:51Z</time>
      </trkpt>
      <trkpt lat="49.16089" lon="4.00962">
        <ele>223.2</ele>
        <time>2026-08-24T11:43:52Z</time>
      </trkpt>
      <trkpt lat="49.16088" lon="4.00966">
        <ele>223.2</ele>
        <time>2026-08-24T11:43:53Z</time>
      </trkpt>
      <trkpt lat="49.16087" lon="4.0097">
        <ele>223.2</ele>
        <time>2026-08-24T11:43:54Z</time>
      </trkpt>
      <trkpt lat="49.16086" lon="4.00976">
        <ele>223.2</ele>
        <time>2026-08-24T11:43:55Z</time>
      </trkpt>
      <trkpt lat="49.16086" lon="4.00983">
        <ele>223</ele>
        <time>2026-08-24T11:43:56Z</time>
      </trkpt>
      <trkpt lat="49.16087" lon="4.0099">
        <ele>222.8</ele>
        <time>2026-08-24T11:43:57Z</time>
      </trkpt>
      <trkpt lat="49.16088" lon="4.00998">
        <ele>222.6</ele>
        <time>2026-08-24T11:43:58Z</time>
      </trkpt>
      <trkpt lat="49.16091" lon="4.01006">
        <ele>222.2</ele>
        <time>2026-08-24T11:43:59Z</time>
      </trkpt>
      <trkpt lat="49.16093" lon="4.01014">
        <ele>222</ele>
        <time>2026-08-24T11:44:00Z</time>
      </trkpt>
      <trkpt lat="49.16096" lon="4.01023">
        <ele>221.6</ele>
        <time>2026-08-24T11:44:01Z</time>
      </trkpt>
      <trkpt lat="49.16099" lon="4.01031">
        <ele>221</ele>
        <time>2026-08-24T11:44:02Z</time>
      </trkpt>
      <trkpt lat="49.16103" lon="4.0104">
        <ele>220.6</ele>
        <time>2026-08-24T11:44:03Z</time>
      </trkpt>
      <trkpt lat="49.16107" lon="4.01049">
        <ele>220.2</ele>
        <time>2026-08-24T11:44:04Z</time>
      </trkpt>
      <trkpt lat="49.16111" lon="4.01058">
        <ele>219.8</ele>
        <time>2026-08-24T11:44:05Z</time>
      </trkpt>
      <trkpt lat="49.16116" lon="4.01067">
        <ele>219.4</ele>
        <time>2026-08-24T11:44:06Z</time>
      </trkpt>
      <trkpt lat="49.16121" lon="4.01076">
        <ele>218.8</ele>
        <time>2026-08-24T11:44:07Z</time>
      </trkpt>
      <trkpt lat="49.16126" lon="4.01085">
        <ele>218.2</ele>
        <time>2026-08-24T11:44:08Z</time>
      </trkpt>
      <trkpt lat="49.16133" lon="4.01093">
        <ele>217.6</ele>
        <time>2026-08-24T11:44:09Z</time>
      </trkpt>
      <trkpt lat="49.16139" lon="4.01101">
        <ele>217</ele>
        <time>2026-08-24T11:44:10Z</time>
      </trkpt>
      <trkpt lat="49.16146" lon="4.01108">
        <ele>216.2</ele>
        <time>2026-08-24T11:44:11Z</time>
      </trkpt>
      <trkpt lat="49.16154" lon="4.01115">
        <ele>215.6</ele>
        <time>2026-08-24T11:44:12Z</time>
      </trkpt>
      <trkpt lat="49.16161" lon="4.0112">
        <ele>215</ele>
        <time>2026-08-24T11:44:13Z</time>
      </trkpt>
      <trkpt lat="49.16169" lon="4.01126">
        <ele>214.4</ele>
        <time>2026-08-24T11:44:14Z</time>
      </trkpt>
      <trkpt lat="49.16177" lon="4.0113">
        <ele>213.8</ele>
        <time>2026-08-24T11:44:15Z</time>
      </trkpt>
      <trkpt lat="49.16186" lon="4.01134">
        <ele>213.4</ele>
        <time>2026-08-24T11:44:16Z</time>
      </trkpt>
      <trkpt lat="49.16195" lon="4.01137">
        <ele>213</ele>
        <time>2026-08-24T11:44:17Z</time>
      </trkpt>
      <trkpt lat="49.16204" lon="4.0114">
        <ele>212.6</ele>
        <time>2026-08-24T11:44:18Z</time>
      </trkpt>
      <trkpt lat="49.16213" lon="4.01143">
        <ele>212.2</ele>
        <time>2026-08-24T11:44:19Z</time>
      </trkpt>
      <trkpt lat="49.16223" lon="4.01145">
        <ele>211.8</ele>
        <time>2026-08-24T11:44:20Z</time>
      </trkpt>
      <trkpt lat="49.16233" lon="4.01147">
        <ele>211.4</ele>
        <time>2026-08-24T11:44:21Z</time>
      </trkpt>
      <trkpt lat="49.16243" lon="4.01149">
        <ele>210.8</ele>
        <time>2026-08-24T11:44:22Z</time>
      </trkpt>
      <trkpt lat="49.16254" lon="4.01151">
        <ele>210</ele>
        <time>2026-08-24T11:44:23Z</time>
      </trkpt>
      <trkpt lat="49.16264" lon="4.01153">
        <ele>209.2</ele>
        <time>2026-08-24T11:44:24Z</time>
      </trkpt>
      <trkpt lat="49.16275" lon="4.01154">
        <ele>208.2</ele>
        <time>2026-08-24T11:44:25Z</time>
      </trkpt>
      <trkpt lat="49.16286" lon="4.01155">
        <ele>207.6</ele>
        <time>2026-08-24T11:44:26Z</time>
      </trkpt>
      <trkpt lat="49.16296" lon="4.01155">
        <ele>207</ele>
        <time>2026-08-24T11:44:27Z</time>
      </trkpt>
      <trkpt lat="49.16306" lon="4.01154">
        <ele>206.2</ele>
        <time>2026-08-24T11:44:28Z</time>
      </trkpt>
      <trkpt lat="49.16317" lon="4.01153">
        <ele>205.6</ele>
        <time>2026-08-24T11:44:29Z</time>
      </trkpt>
      <trkpt lat="49.16326" lon="4.01153">
        <ele>204.8</ele>
        <time>2026-08-24T11:44:30Z</time>
      </trkpt>
      <trkpt lat="49.16336" lon="4.01153">
        <ele>204</ele>
        <time>2026-08-24T11:44:31Z</time>
      </trkpt>
      <trkpt lat="49.16346" lon="4.01152">
        <ele>203.2</ele>
        <time>2026-08-24T11:44:32Z</time>
      </trkpt>
      <trkpt lat="49.16355" lon="4.01152">
        <ele>202.4</ele>
        <time>2026-08-24T11:44:33Z</time>
      </trkpt>
      <trkpt lat="49.16364" lon="4.01152">
        <ele>201.8</ele>
        <time>2026-08-24T11:44:34Z</time>
      </trkpt>
      <trkpt lat="49.16373" lon="4.01152">
        <ele>201.2</ele>
        <time>2026-08-24T11:44:35Z</time>
      </trkpt>
      <trkpt lat="49.16381" lon="4.01152">
        <ele>200.4</ele>
        <time>2026-08-24T11:44:36Z</time>
      </trkpt>
      <trkpt lat="49.16388" lon="4.01152">
        <ele>199.8</ele>
        <time>2026-08-24T11:44:37Z</time>
      </trkpt>
      <trkpt lat="49.16395" lon="4.01152">
        <ele>199.2</ele>
        <time>2026-08-24T11:44:38Z</time>
      </trkpt>
      <trkpt lat="49.16401" lon="4.01153">
        <ele>198.6</ele>
        <time>2026-08-24T11:44:39Z</time>
      </trkpt>
      <trkpt lat="49.16407" lon="4.01153">
        <ele>198.2</ele>
        <time>2026-08-24T11:44:40Z</time>
      </trkpt>
      <trkpt lat="49.16412" lon="4.01153">
        <ele>198</ele>
        <time>2026-08-24T11:44:41Z</time>
      </trkpt>
      <trkpt lat="49.16416" lon="4.01154">
        <ele>197.6</ele>
        <time>2026-08-24T11:44:42Z</time>
      </trkpt>
      <trkpt lat="49.16421" lon="4.01155">
        <ele>197.4</ele>
        <time>2026-08-24T11:44:43Z</time>
      </trkpt>
      <trkpt lat="49.16425" lon="4.01158">
        <ele>197.2</ele>
        <time>2026-08-24T11:44:44Z</time>
      </trkpt>
      <trkpt lat="49.16428" lon="4.01163">
        <ele>197</ele>
        <time>2026-08-24T11:44:45Z</time>
      </trkpt>
      <trkpt lat="49.1643" lon="4.0117">
        <ele>196.8</ele>
        <time>2026-08-24T11:44:46Z</time>
      </trkpt>
      <trkpt lat="49.16432" lon="4.01178">
        <ele>196.2</ele>
        <time>2026-08-24T11:44:47Z</time>
      </trkpt>
      <trkpt lat="49.16433" lon="4.01188">
        <ele>195.6</ele>
        <time>2026-08-24T11:44:48Z</time>
      </trkpt>
      <trkpt lat="49.16435" lon="4.01198">
        <ele>195</ele>
        <time>2026-08-24T11:44:49Z</time>
      </trkpt>
      <trkpt lat="49.16435" lon="4.01209">
        <ele>194.2</ele>
        <time>2026-08-24T11:44:50Z</time>
      </trkpt>
      <trkpt lat="49.16436" lon="4.0122">
        <ele>193.4</ele>
        <time>2026-08-24T11:44:51Z</time>
      </trkpt>
      <trkpt lat="49.16436" lon="4.01233">
        <ele>192.2</ele>
        <time>2026-08-24T11:44:52Z</time>
      </trkpt>
      <trkpt lat="49.16436" lon="4.01245">
        <ele>191.2</ele>
        <time>2026-08-24T11:44:53Z</time>
      </trkpt>
      <trkpt lat="49.16436" lon="4.01257">
        <ele>190.6</ele>
        <time>2026-08-24T11:44:54Z</time>
      </trkpt>
      <trkpt lat="49.16436" lon="4.01271">
        <ele>189.6</ele>
        <time>2026-08-24T11:44:55Z</time>
      </trkpt>
      <trkpt lat="49.16436" lon="4.01284">
        <ele>188.8</ele>
        <time>2026-08-24T11:44:56Z</time>
      </trkpt>
      <trkpt lat="49.16436" lon="4.01297">
        <ele>188.2</ele>
        <time>2026-08-24T11:44:57Z</time>
      </trkpt>
      <trkpt lat="49.16437" lon="4.0131">
        <ele>187.4</ele>
        <time>2026-08-24T11:44:58Z</time>
      </trkpt>
      <trkpt lat="49.16438" lon="4.01324">
        <ele>186.6</ele>
        <time>2026-08-24T11:44:59Z</time>
      </trkpt>
      <trkpt lat="49.1644" lon="4.01337">
        <ele>185.8</ele>
        <time>2026-08-24T11:45:00Z</time>
      </trkpt>
      <trkpt lat="49.16442" lon="4.01351">
        <ele>185.2</ele>
        <time>2026-08-24T11:45:01Z</time>
      </trkpt>
      <trkpt lat="49.16444" lon="4.01365">
        <ele>184.8</ele>
        <time>2026-08-24T11:45:02Z</time>
      </trkpt>
      <trkpt lat="49.16447" lon="4.01379">
        <ele>184.2</ele>
        <time>2026-08-24T11:45:03Z</time>
      </trkpt>
      <trkpt lat="49.1645" lon="4.01394">
        <ele>183.4</ele>
        <time>2026-08-24T11:45:04Z</time>
      </trkpt>
      <trkpt lat="49.16452" lon="4.01408">
        <ele>182.6</ele>
        <time>2026-08-24T11:45:05Z</time>
      </trkpt>
      <trkpt lat="49.16455" lon="4.01423">
        <ele>182</ele>
        <time>2026-08-24T11:45:06Z</time>
      </trkpt>
      <trkpt lat="49.16457" lon="4.01438">
        <ele>181.4</ele>
        <time>2026-08-24T11:45:07Z</time>
      </trkpt>
      <trkpt lat="49.16459" lon="4.01453">
        <ele>180.8</ele>
        <time>2026-08-24T11:45:08Z</time>
      </trkpt>
      <trkpt lat="49.1646" lon="4.01469">
        <ele>180.4</ele>
        <time>2026-08-24T11:45:09Z</time>
      </trkpt>
      <trkpt lat="49.1646" lon="4.01484">
        <ele>180</ele>
        <time>2026-08-24T11:45:10Z</time>
      </trkpt>
      <trkpt lat="49.16459" lon="4.01499">
        <ele>179.4</ele>
        <time>2026-08-24T11:45:11Z</time>
      </trkpt>
      <trkpt lat="49.16457" lon="4.01514">
        <ele>179.2</ele>
        <time>2026-08-24T11:45:12Z</time>
      </trkpt>
      <trkpt lat="49.16454" lon="4.01528">
        <ele>179</ele>
        <time>2026-08-24T11:45:13Z</time>
      </trkpt>
      <trkpt lat="49.16451" lon="4.01542">
        <ele>178.8</ele>
        <time>2026-08-24T11:45:14Z</time>
      </trkpt>
      <trkpt lat="49.16448" lon="4.01556">
        <ele>178.6</ele>
        <time>2026-08-24T11:45:15Z</time>
      </trkpt>
      <trkpt lat="49.16445" lon="4.01569">
        <ele>178.4</ele>
        <time>2026-08-24T11:45:16Z</time>
      </trkpt>
      <trkpt lat="49.16441" lon="4.01583">
        <ele>178.4</ele>
        <time>2026-08-24T11:45:17Z</time>
      </trkpt>
      <trkpt lat="49.16438" lon="4.01596">
        <ele>178.4</ele>
        <time>2026-08-24T11:45:18Z</time>
      </trkpt>
      <trkpt lat="49.16435" lon="4.0161">
        <ele>178.2</ele>
        <time>2026-08-24T11:45:19Z</time>
      </trkpt>
      <trkpt lat="49.16432" lon="4.01623">
        <ele>178</ele>
        <time>2026-08-24T11:45:20Z</time>
      </trkpt>
      <trkpt lat="49.16429" lon="4.01636">
        <ele>178.2</ele>
        <time>2026-08-24T11:45:21Z</time>
      </trkpt>
      <trkpt lat="49.16426" lon="4.01649">
        <ele>178</ele>
        <time>2026-08-24T11:45:22Z</time>
      </trkpt>
      <trkpt lat="49.16423" lon="4.01662">
        <ele>177.8</ele>
        <time>2026-08-24T11:45:23Z</time>
      </trkpt>
      <trkpt lat="49.1642" lon="4.01676">
        <ele>177.6</ele>
        <time>2026-08-24T11:45:24Z</time>
      </trkpt>
      <trkpt lat="49.16417" lon="4.01689">
        <ele>177.4</ele>
        <time>2026-08-24T11:45:25Z</time>
      </trkpt>
      <trkpt lat="49.16414" lon="4.01704">
        <ele>177</ele>
        <time>2026-08-24T11:45:26Z</time>
      </trkpt>
      <trkpt lat="49.16412" lon="4.01719">
        <ele>176.6</ele>
        <time>2026-08-24T11:45:27Z</time>
      </trkpt>
      <trkpt lat="49.16411" lon="4.01734">
        <ele>176.4</ele>
        <time>2026-08-24T11:45:28Z</time>
      </trkpt>
      <trkpt lat="49.1641" lon="4.0175">
        <ele>176</ele>
        <time>2026-08-24T11:45:29Z</time>
      </trkpt>
      <trkpt lat="49.1641" lon="4.01766">
        <ele>175.4</ele>
        <time>2026-08-24T11:45:30Z</time>
      </trkpt>
      <trkpt lat="49.1641" lon="4.01782">
        <ele>175</ele>
        <time>2026-08-24T11:45:31Z</time>
      </trkpt>
      <trkpt lat="49.1641" lon="4.01798">
        <ele>174.6</ele>
        <time>2026-08-24T11:45:32Z</time>
      </trkpt>
      <trkpt lat="49.1641" lon="4.01814">
        <ele>174.2</ele>
        <time>2026-08-24T11:45:33Z</time>
      </trkpt>
      <trkpt lat="49.16411" lon="4.01829">
        <ele>174.2</ele>
        <time>2026-08-24T11:45:34Z</time>
      </trkpt>
      <trkpt lat="49.16411" lon="4.01845">
        <ele>174</ele>
        <time>2026-08-24T11:45:35Z</time>
      </trkpt>
      <trkpt lat="49.16412" lon="4.01861">
        <ele>173.8</ele>
        <time>2026-08-24T11:45:36Z</time>
      </trkpt>
      <trkpt lat="49.16413" lon="4.01877">
        <ele>173.6</ele>
        <time>2026-08-24T11:45:37Z</time>
      </trkpt>
      <trkpt lat="49.16413" lon="4.01892">
        <ele>173.4</ele>
        <time>2026-08-24T11:45:38Z</time>
      </trkpt>
      <trkpt lat="49.16414" lon="4.01907">
        <ele>173.4</ele>
        <time>2026-08-24T11:45:39Z</time>
      </trkpt>
      <trkpt lat="49.16415" lon="4.01921">
        <ele>173.2</ele>
        <time>2026-08-24T11:45:40Z</time>
      </trkpt>
      <trkpt lat="49.16417" lon="4.01935">
        <ele>173.2</ele>
        <time>2026-08-24T11:45:41Z</time>
      </trkpt>
      <trkpt lat="49.1642" lon="4.01948">
        <ele>173.4</ele>
        <time>2026-08-24T11:45:42Z</time>
      </trkpt>
      <trkpt lat="49.16425" lon="4.01959">
        <ele>173.4</ele>
        <time>2026-08-24T11:45:43Z</time>
      </trkpt>
      <trkpt lat="49.1643" lon="4.01969">
        <ele>173.6</ele>
        <time>2026-08-24T11:45:44Z</time>
      </trkpt>
      <trkpt lat="49.16436" lon="4.01977">
        <ele>173.8</ele>
        <time>2026-08-24T11:45:45Z</time>
      </trkpt>
      <trkpt lat="49.16442" lon="4.01984">
        <ele>174.2</ele>
        <time>2026-08-24T11:45:46Z</time>
      </trkpt>
      <trkpt lat="49.16448" lon="4.0199">
        <ele>174.6</ele>
        <time>2026-08-24T11:45:47Z</time>
      </trkpt>
      <trkpt lat="49.16454" lon="4.01995">
        <ele>175</ele>
        <time>2026-08-24T11:45:48Z</time>
      </trkpt>
      <trkpt lat="49.1646" lon="4.02">
        <ele>175.4</ele>
        <time>2026-08-24T11:45:49Z</time>
      </trkpt>
      <trkpt lat="49.16465" lon="4.02004">
        <ele>175.6</ele>
        <time>2026-08-24T11:45:50Z</time>
      </trkpt>
      <trkpt lat="49.16471" lon="4.02008">
        <ele>175.8</ele>
        <time>2026-08-24T11:45:51Z</time>
      </trkpt>
      <trkpt lat="49.16477" lon="4.02012">
        <ele>176</ele>
        <time>2026-08-24T11:45:52Z</time>
      </trkpt>
      <trkpt lat="49.16481" lon="4.02017">
        <ele>176</ele>
        <time>2026-08-24T11:45:53Z</time>
      </trkpt>
      <trkpt lat="49.16485" lon="4.02021">
        <ele>176.2</ele>
        <time>2026-08-24T11:45:54Z</time>
      </trkpt>
      <trkpt lat="49.1649" lon="4.02027">
        <ele>176.6</ele>
        <time>2026-08-24T11:45:55Z</time>
      </trkpt>
      <trkpt lat="49.16496" lon="4.02033">
        <ele>177</ele>
        <time>2026-08-24T11:45:56Z</time>
      </trkpt>
      <trkpt lat="49.165" lon="4.0204">
        <ele>177.4</ele>
        <time>2026-08-24T11:45:57Z</time>
      </trkpt>
      <trkpt lat="49.16503" lon="4.02047">
        <ele>177.8</ele>
        <time>2026-08-24T11:45:58Z</time>
      </trkpt>
      <trkpt lat="49.16507" lon="4.02054">
        <ele>178.2</ele>
        <time>2026-08-24T11:45:59Z</time>
      </trkpt>
      <trkpt lat="49.16509" lon="4.02061">
        <ele>178.4</ele>
        <time>2026-08-24T11:46:00Z</time>
      </trkpt>
      <trkpt lat="49.16512" lon="4.02068">
        <ele>178.8</ele>
        <time>2026-08-24T11:46:01Z</time>
      </trkpt>
      <trkpt lat="49.16514" lon="4.02075">
        <ele>178.8</ele>
        <time>2026-08-24T11:46:02Z</time>
      </trkpt>
      <trkpt lat="49.16516" lon="4.02082">
        <ele>178.8</ele>
        <time>2026-08-24T11:46:03Z</time>
      </trkpt>
      <trkpt lat="49.16517" lon="4.02089">
        <ele>179</ele>
        <time>2026-08-24T11:46:04Z</time>
      </trkpt>
      <trkpt lat="49.16518" lon="4.02096">
        <ele>179</ele>
        <time>2026-08-24T11:46:05Z</time>
      </trkpt>
      <trkpt lat="49.16519" lon="4.02103">
        <ele>179.2</ele>
        <time>2026-08-24T11:46:06Z</time>
      </trkpt>
      <trkpt lat="49.16521" lon="4.0211">
        <ele>179.2</ele>
        <time>2026-08-24T11:46:07Z</time>
      </trkpt>
      <trkpt lat="49.16522" lon="4.02117">
        <ele>179.4</ele>
        <time>2026-08-24T11:46:08Z</time>
      </trkpt>
      <trkpt lat="49.16523" lon="4.02124">
        <ele>179.4</ele>
        <time>2026-08-24T11:46:09Z</time>
      </trkpt>
      <trkpt lat="49.16523" lon="4.0213">
        <ele>179.6</ele>
        <time>2026-08-24T11:46:10Z</time>
      </trkpt>
      <trkpt lat="49.16524" lon="4.02137">
        <ele>179.6</ele>
        <time>2026-08-24T11:46:11Z</time>
      </trkpt>
      <trkpt lat="49.16525" lon="4.02143">
        <ele>179.8</ele>
        <time>2026-08-24T11:46:12Z</time>
      </trkpt>
      <trkpt lat="49.16525" lon="4.0215">
        <ele>180</ele>
        <time>2026-08-24T11:46:13Z</time>
      </trkpt>
      <trkpt lat="49.16526" lon="4.02156">
        <ele>180.2</ele>
        <time>2026-08-24T11:46:14Z</time>
      </trkpt>
      <trkpt lat="49.16526" lon="4.02163">
        <ele>180.2</ele>
        <time>2026-08-24T11:46:15Z</time>
      </trkpt>
      <trkpt lat="49.16526" lon="4.0217">
        <ele>180.4</ele>
        <time>2026-08-24T11:46:16Z</time>
      </trkpt>
      <trkpt lat="49.16527" lon="4.02176">
        <ele>180.4</ele>
        <time>2026-08-24T11:46:17Z</time>
      </trkpt>
      <trkpt lat="49.16527" lon="4.02183">
        <ele>180.4</ele>
        <time>2026-08-24T11:46:18Z</time>
      </trkpt>
      <trkpt lat="49.16527" lon="4.02191">
        <ele>180.8</ele>
        <time>2026-08-24T11:46:19Z</time>
      </trkpt>
      <trkpt lat="49.16527" lon="4.02198">
        <ele>181</ele>
        <time>2026-08-24T11:46:20Z</time>
      </trkpt>
      <trkpt lat="49.16527" lon="4.02206">
        <ele>181.2</ele>
        <time>2026-08-24T11:46:21Z</time>
      </trkpt>
      <trkpt lat="49.16528" lon="4.02214">
        <ele>181.6</ele>
        <time>2026-08-24T11:46:22Z</time>
      </trkpt>
      <trkpt lat="49.16528" lon="4.02222">
        <ele>181.8</ele>
        <time>2026-08-24T11:46:23Z</time>
      </trkpt>
      <trkpt lat="49.16529" lon="4.0223">
        <ele>182</ele>
        <time>2026-08-24T11:46:24Z</time>
      </trkpt>
      <trkpt lat="49.16529" lon="4.02238">
        <ele>182</ele>
        <time>2026-08-24T11:46:25Z</time>
      </trkpt>
      <trkpt lat="49.1653" lon="4.02245">
        <ele>182.2</ele>
        <time>2026-08-24T11:46:26Z</time>
      </trkpt>
      <trkpt lat="49.1653" lon="4.02253">
        <ele>182.4</ele>
        <time>2026-08-24T11:46:27Z</time>
      </trkpt>
      <trkpt lat="49.16531" lon="4.02261">
        <ele>182.4</ele>
        <time>2026-08-24T11:46:28Z</time>
      </trkpt>
      <trkpt lat="49.16532" lon="4.02269">
        <ele>182.6</ele>
        <time>2026-08-24T11:46:29Z</time>
      </trkpt>
      <trkpt lat="49.16533" lon="4.02277">
        <ele>182.6</ele>
        <time>2026-08-24T11:46:30Z</time>
      </trkpt>
      <trkpt lat="49.16534" lon="4.02286">
        <ele>182.6</ele>
        <time>2026-08-24T11:46:31Z</time>
      </trkpt>
      <trkpt lat="49.16534" lon="4.02294">
        <ele>182.4</ele>
        <time>2026-08-24T11:46:32Z</time>
      </trkpt>
      <trkpt lat="49.16534" lon="4.02303">
        <ele>182.2</ele>
        <time>2026-08-24T11:46:33Z</time>
      </trkpt>
      <trkpt lat="49.16535" lon="4.02311">
        <ele>181.8</ele>
        <time>2026-08-24T11:46:34Z</time>
      </trkpt>
      <trkpt lat="49.16536" lon="4.02319">
        <ele>181.4</ele>
        <time>2026-08-24T11:46:35Z</time>
      </trkpt>
      <trkpt lat="49.16537" lon="4.02328">
        <ele>181.2</ele>
        <time>2026-08-24T11:46:36Z</time>
      </trkpt>
      <trkpt lat="49.1654" lon="4.02336">
        <ele>180.8</ele>
        <time>2026-08-24T11:46:37Z</time>
      </trkpt>
      <trkpt lat="49.16542" lon="4.02344">
        <ele>180.6</ele>
        <time>2026-08-24T11:46:38Z</time>
      </trkpt>
      <trkpt lat="49.16546" lon="4.02352">
        <ele>180.4</ele>
        <time>2026-08-24T11:46:39Z</time>
      </trkpt>
      <trkpt lat="49.16549" lon="4.02359">
        <ele>180.2</ele>
        <time>2026-08-24T11:46:40Z</time>
      </trkpt>
      <trkpt lat="49.16553" lon="4.02367">
        <ele>180</ele>
        <time>2026-08-24T11:46:41Z</time>
      </trkpt>
      <trkpt lat="49.16557" lon="4.02374">
        <ele>179.8</ele>
        <time>2026-08-24T11:46:42Z</time>
      </trkpt>
      <trkpt lat="49.1656" lon="4.02382">
        <ele>179.6</ele>
        <time>2026-08-24T11:46:43Z</time>
      </trkpt>
      <trkpt lat="49.16564" lon="4.02391">
        <ele>179.6</ele>
        <time>2026-08-24T11:46:44Z</time>
      </trkpt>
      <trkpt lat="49.16568" lon="4.02399">
        <ele>179.2</ele>
        <time>2026-08-24T11:46:45Z</time>
      </trkpt>
      <trkpt lat="49.16571" lon="4.02407">
        <ele>179.2</ele>
        <time>2026-08-24T11:46:46Z</time>
      </trkpt>
      <trkpt lat="49.16575" lon="4.02415">
        <ele>179.2</ele>
        <time>2026-08-24T11:46:47Z</time>
      </trkpt>
      <trkpt lat="49.16578" lon="4.02422">
        <ele>179.2</ele>
        <time>2026-08-24T11:46:48Z</time>
      </trkpt>
      <trkpt lat="49.16582" lon="4.0243">
        <ele>179.2</ele>
        <time>2026-08-24T11:46:49Z</time>
      </trkpt>
      <trkpt lat="49.16586" lon="4.02437">
        <ele>179.4</ele>
        <time>2026-08-24T11:46:50Z</time>
      </trkpt>
      <trkpt lat="49.16589" lon="4.02445">
        <ele>179.6</ele>
        <time>2026-08-24T11:46:51Z</time>
      </trkpt>
      <trkpt lat="49.16593" lon="4.02452">
        <ele>179.8</ele>
        <time>2026-08-24T11:46:52Z</time>
      </trkpt>
      <trkpt lat="49.16596" lon="4.02458">
        <ele>180</ele>
        <time>2026-08-24T11:46:53Z</time>
      </trkpt>
      <trkpt lat="49.16598" lon="4.02465">
        <ele>180.2</ele>
        <time>2026-08-24T11:46:54Z</time>
      </trkpt>
      <trkpt lat="49.16598" lon="4.02471">
        <ele>180.6</ele>
        <time>2026-08-24T11:46:55Z</time>
      </trkpt>
      <trkpt lat="49.16595" lon="4.02476">
        <ele>181</ele>
        <time>2026-08-24T11:46:56Z</time>
      </trkpt>
      <trkpt lat="49.16593" lon="4.0248">
        <ele>181.2</ele>
        <time>2026-08-24T11:46:57Z</time>
      </trkpt>
      <trkpt lat="49.16589" lon="4.02483">
        <ele>181.6</ele>
        <time>2026-08-24T11:46:58Z</time>
      </trkpt>
      <trkpt lat="49.16586" lon="4.02487">
        <ele>181.8</ele>
        <time>2026-08-24T11:46:59Z</time>
      </trkpt>
      <trkpt lat="49.16583" lon="4.02491">
        <ele>182</ele>
        <time>2026-08-24T11:47:00Z</time>
      </trkpt>
      <trkpt lat="49.16583" lon="4.02496">
        <ele>182.2</ele>
        <time>2026-08-24T11:47:01Z</time>
      </trkpt>
      <trkpt lat="49.16583" lon="4.02503">
        <ele>182.4</ele>
        <time>2026-08-24T11:47:02Z</time>
      </trkpt>
      <trkpt lat="49.16584" lon="4.02509">
        <ele>182.6</ele>
        <time>2026-08-24T11:47:03Z</time>
      </trkpt>
      <trkpt lat="49.16586" lon="4.02516">
        <ele>182.8</ele>
        <time>2026-08-24T11:47:04Z</time>
      </trkpt>
      <trkpt lat="49.16588" lon="4.02523">
        <ele>182.8</ele>
        <time>2026-08-24T11:47:05Z</time>
      </trkpt>
      <trkpt lat="49.16589" lon="4.02531">
        <ele>182.8</ele>
        <time>2026-08-24T11:47:06Z</time>
      </trkpt>
      <trkpt lat="49.16591" lon="4.02538">
        <ele>182.6</ele>
        <time>2026-08-24T11:47:07Z</time>
      </trkpt>
      <trkpt lat="49.16593" lon="4.02546">
        <ele>182.4</ele>
        <time>2026-08-24T11:47:08Z</time>
      </trkpt>
      <trkpt lat="49.16596" lon="4.02554">
        <ele>182</ele>
        <time>2026-08-24T11:47:09Z</time>
      </trkpt>
      <trkpt lat="49.16598" lon="4.02562">
        <ele>181.8</ele>
        <time>2026-08-24T11:47:10Z</time>
      </trkpt>
      <trkpt lat="49.16601" lon="4.02571">
        <ele>181.4</ele>
        <time>2026-08-24T11:47:11Z</time>
      </trkpt>
      <trkpt lat="49.16603" lon="4.0258">
        <ele>181.2</ele>
        <time>2026-08-24T11:47:12Z</time>
      </trkpt>
      <trkpt lat="49.16605" lon="4.02589">
        <ele>180.8</ele>
        <time>2026-08-24T11:47:13Z</time>
      </trkpt>
      <trkpt lat="49.16607" lon="4.02598">
        <ele>180.6</ele>
        <time>2026-08-24T11:47:14Z</time>
      </trkpt>
      <trkpt lat="49.16609" lon="4.02607">
        <ele>180.4</ele>
        <time>2026-08-24T11:47:15Z</time>
      </trkpt>
      <trkpt lat="49.16611" lon="4.02616">
        <ele>180.4</ele>
        <time>2026-08-24T11:47:16Z</time>
      </trkpt>
      <trkpt lat="49.16612" lon="4.02626">
        <ele>180.4</ele>
        <time>2026-08-24T11:47:17Z</time>
      </trkpt>
      <trkpt lat="49.16613" lon="4.02635">
        <ele>180.4</ele>
        <time>2026-08-24T11:47:18Z</time>
      </trkpt>
      <trkpt lat="49.16613" lon="4.02644">
        <ele>180.6</ele>
        <time>2026-08-24T11:47:19Z</time>
      </trkpt>
      <trkpt lat="49.16614" lon="4.02653">
        <ele>180.8</ele>
        <time>2026-08-24T11:47:20Z</time>
      </trkpt>
      <trkpt lat="49.16614" lon="4.02661">
        <ele>181.2</ele>
        <time>2026-08-24T11:47:21Z</time>
      </trkpt>
      <trkpt lat="49.16615" lon="4.02669">
        <ele>181.6</ele>
        <time>2026-08-24T11:47:22Z</time>
      </trkpt>
      <trkpt lat="49.16615" lon="4.02677">
        <ele>182</ele>
        <time>2026-08-24T11:47:23Z</time>
      </trkpt>
      <trkpt lat="49.16615" lon="4.02684">
        <ele>182.4</ele>
        <time>2026-08-24T11:47:24Z</time>
      </trkpt>
      <trkpt lat="49.16615" lon="4.0269">
        <ele>182.8</ele>
        <time>2026-08-24T11:47:25Z</time>
      </trkpt>
      <trkpt lat="49.16615" lon="4.02696">
        <ele>183.2</ele>
        <time>2026-08-24T11:47:26Z</time>
      </trkpt>
      <trkpt lat="49.16615" lon="4.02702">
        <ele>183.6</ele>
        <time>2026-08-24T11:47:27Z</time>
      </trkpt>
      <trkpt lat="49.16614" lon="4.02708">
        <ele>184</ele>
        <time>2026-08-24T11:47:28Z</time>
      </trkpt>
      <trkpt lat="49.16614" lon="4.02713">
        <ele>184.4</ele>
        <time>2026-08-24T11:47:29Z</time>
      </trkpt>
      <trkpt lat="49.16613" lon="4.02718">
        <ele>184.8</ele>
        <time>2026-08-24T11:47:30Z</time>
      </trkpt>
      <trkpt lat="49.16613" lon="4.02723">
        <ele>185</ele>
        <time>2026-08-24T11:47:31Z</time>
      </trkpt>
      <trkpt lat="49.16612" lon="4.02728">
        <ele>185.4</ele>
        <time>2026-08-24T11:47:32Z</time>
      </trkpt>
      <trkpt lat="49.16611" lon="4.02732">
        <ele>185.8</ele>
        <time>2026-08-24T11:47:33Z</time>
      </trkpt>
      <trkpt lat="49.1661" lon="4.02737">
        <ele>186.2</ele>
        <time>2026-08-24T11:47:34Z</time>
      </trkpt>
      <trkpt lat="49.1661" lon="4.02741">
        <ele>186.4</ele>
        <time>2026-08-24T11:47:35Z</time>
      </trkpt>
      <trkpt lat="49.16609" lon="4.02745">
        <ele>186.6</ele>
        <time>2026-08-24T11:47:36Z</time>
      </trkpt>
      <trkpt lat="49.16608" lon="4.02749">
        <ele>186.8</ele>
        <time>2026-08-24T11:47:37Z</time>
      </trkpt>
      <trkpt lat="49.16608" lon="4.02753">
        <ele>187</ele>
        <time>2026-08-24T11:47:38Z</time>
      </trkpt>
      <trkpt lat="49.16607" lon="4.02757">
        <ele>187.4</ele>
        <time>2026-08-24T11:47:39Z</time>
      </trkpt>
      <trkpt lat="49.16607" lon="4.02761">
        <ele>187.6</ele>
        <time>2026-08-24T11:47:40Z</time>
      </trkpt>
      <trkpt lat="49.16607" lon="4.02765">
        <ele>187.8</ele>
        <time>2026-08-24T11:47:41Z</time>
      </trkpt>
      <trkpt lat="49.16606" lon="4.02769">
        <ele>188</ele>
        <time>2026-08-24T11:47:42Z</time>
      </trkpt>
      <trkpt lat="49.16606" lon="4.02774">
        <ele>188.2</ele>
        <time>2026-08-24T11:47:43Z</time>
      </trkpt>
      <trkpt lat="49.16605" lon="4.02778">
        <ele>188.4</ele>
        <time>2026-08-24T11:47:44Z</time>
      </trkpt>
      <trkpt lat="49.16605" lon="4.02783">
        <ele>188.6</ele>
        <time>2026-08-24T11:47:45Z</time>
      </trkpt>
      <trkpt lat="49.16605" lon="4.02787">
        <ele>188.8</ele>
        <time>2026-08-24T11:47:46Z</time>
      </trkpt>
      <trkpt lat="49.16605" lon="4.02792">
        <ele>189</ele>
        <time>2026-08-24T11:47:47Z</time>
      </trkpt>
      <trkpt lat="49.16605" lon="4.02796">
        <ele>189.2</ele>
        <time>2026-08-24T11:47:48Z</time>
      </trkpt>
      <trkpt lat="49.16604" lon="4.028">
        <ele>189.4</ele>
        <time>2026-08-24T11:47:49Z</time>
      </trkpt>
      <trkpt lat="49.16604" lon="4.02805">
        <ele>189.8</ele>
        <time>2026-08-24T11:47:50Z</time>
      </trkpt>
      <trkpt lat="49.16604" lon="4.0281">
        <ele>190</ele>
        <time>2026-08-24T11:47:51Z</time>
      </trkpt>
      <trkpt lat="49.16604" lon="4.02815">
        <ele>190.2</ele>
        <time>2026-08-24T11:47:52Z</time>
      </trkpt>
      <trkpt lat="49.16603" lon="4.0282">
        <ele>190.2</ele>
        <time>2026-08-24T11:47:53Z</time>
      </trkpt>
      <trkpt lat="49.16603" lon="4.02826">
        <ele>190.4</ele>
        <time>2026-08-24T11:47:54Z</time>
      </trkpt>
      <trkpt lat="49.16603" lon="4.02831">
        <ele>190.4</ele>
        <time>2026-08-24T11:47:55Z</time>
      </trkpt>
      <trkpt lat="49.16603" lon="4.02836">
        <ele>190.6</ele>
        <time>2026-08-24T11:47:56Z</time>
      </trkpt>
      <trkpt lat="49.16603" lon="4.02841">
        <ele>190.6</ele>
        <time>2026-08-24T11:47:57Z</time>
      </trkpt>
      <trkpt lat="49.16603" lon="4.02846">
        <ele>190.8</ele>
        <time>2026-08-24T11:47:58Z</time>
      </trkpt>
      <trkpt lat="49.16603" lon="4.02851">
        <ele>191</ele>
        <time>2026-08-24T11:47:59Z</time>
      </trkpt>
      <trkpt lat="49.16603" lon="4.02857">
        <ele>191.2</ele>
        <time>2026-08-24T11:48:00Z</time>
      </trkpt>
      <trkpt lat="49.16603" lon="4.02862">
        <ele>191.4</ele>
        <time>2026-08-24T11:48:01Z</time>
      </trkpt>
      <trkpt lat="49.16603" lon="4.02868">
        <ele>191.8</ele>
        <time>2026-08-24T11:48:02Z</time>
      </trkpt>
      <trkpt lat="49.16603" lon="4.02873">
        <ele>192</ele>
        <time>2026-08-24T11:48:03Z</time>
      </trkpt>
      <trkpt lat="49.16604" lon="4.02879">
        <ele>192.2</ele>
        <time>2026-08-24T11:48:04Z</time>
      </trkpt>
      <trkpt lat="49.16604" lon="4.02884">
        <ele>192.2</ele>
        <time>2026-08-24T11:48:05Z</time>
      </trkpt>
      <trkpt lat="49.16604" lon="4.0289">
        <ele>192.2</ele>
        <time>2026-08-24T11:48:06Z</time>
      </trkpt>
      <trkpt lat="49.16604" lon="4.02895">
        <ele>192</ele>
        <time>2026-08-24T11:48:07Z</time>
      </trkpt>
      <trkpt lat="49.16604" lon="4.02901">
        <ele>192</ele>
        <time>2026-08-24T11:48:08Z</time>
      </trkpt>
      <trkpt lat="49.16604" lon="4.02906">
        <ele>192</ele>
        <time>2026-08-24T11:48:09Z</time>
      </trkpt>
      <trkpt lat="49.16604" lon="4.02912">
        <ele>192.2</ele>
        <time>2026-08-24T11:48:10Z</time>
      </trkpt>
      <trkpt lat="49.16604" lon="4.02917">
        <ele>192.4</ele>
        <time>2026-08-24T11:48:11Z</time>
      </trkpt>
      <trkpt lat="49.16604" lon="4.02922">
        <ele>192.6</ele>
        <time>2026-08-24T11:48:12Z</time>
      </trkpt>
      <trkpt lat="49.16603" lon="4.02928">
        <ele>192.8</ele>
        <time>2026-08-24T11:48:13Z</time>
      </trkpt>
      <trkpt lat="49.16603" lon="4.02933">
        <ele>193</ele>
        <time>2026-08-24T11:48:14Z</time>
      </trkpt>
      <trkpt lat="49.16603" lon="4.02938">
        <ele>193.2</ele>
        <time>2026-08-24T11:48:15Z</time>
      </trkpt>
      <trkpt lat="49.16603" lon="4.02943">
        <ele>193.4</ele>
        <time>2026-08-24T11:48:16Z</time>
      </trkpt>
      <trkpt lat="49.16603" lon="4.02948">
        <ele>193.4</ele>
        <time>2026-08-24T11:48:17Z</time>
      </trkpt>
      <trkpt lat="49.16603" lon="4.02954">
        <ele>193.6</ele>
        <time>2026-08-24T11:48:18Z</time>
      </trkpt>
      <trkpt lat="49.16603" lon="4.02959">
        <ele>193.8</ele>
        <time>2026-08-24T11:48:19Z</time>
      </trkpt>
      <trkpt lat="49.16603" lon="4.02964">
        <ele>193.8</ele>
        <time>2026-08-24T11:48:20Z</time>
      </trkpt>
      <trkpt lat="49.16603" lon="4.02969">
        <ele>194</ele>
        <time>2026-08-24T11:48:21Z</time>
      </trkpt>
      <trkpt lat="49.16603" lon="4.02973">
        <ele>194</ele>
        <time>2026-08-24T11:48:22Z</time>
      </trkpt>
      <trkpt lat="49.16603" lon="4.02978">
        <ele>194.2</ele>
        <time>2026-08-24T11:48:23Z</time>
      </trkpt>
      <trkpt lat="49.16602" lon="4.02983">
        <ele>194.4</ele>
        <time>2026-08-24T11:48:24Z</time>
      </trkpt>
      <trkpt lat="49.16602" lon="4.02988">
        <ele>194.6</ele>
        <time>2026-08-24T11:48:25Z</time>
      </trkpt>
      <trkpt lat="49.16602" lon="4.02993">
        <ele>194.6</ele>
        <time>2026-08-24T11:48:26Z</time>
      </trkpt>
      <trkpt lat="49.16602" lon="4.02997">
        <ele>194.8</ele>
        <time>2026-08-24T11:48:27Z</time>
      </trkpt>
      <trkpt lat="49.16602" lon="4.03002">
        <ele>195</ele>
        <time>2026-08-24T11:48:28Z</time>
      </trkpt>
      <trkpt lat="49.16602" lon="4.03007">
        <ele>195</ele>
        <time>2026-08-24T11:48:29Z</time>
      </trkpt>
      <trkpt lat="49.16602" lon="4.03012">
        <ele>195.2</ele>
        <time>2026-08-24T11:48:30Z</time>
      </trkpt>
      <trkpt lat="49.16602" lon="4.03017">
        <ele>195.4</ele>
        <time>2026-08-24T11:48:31Z</time>
      </trkpt>
      <trkpt lat="49.16602" lon="4.03022">
        <ele>195.6</ele>
        <time>2026-08-24T11:48:32Z</time>
      </trkpt>
      <trkpt lat="49.16602" lon="4.03027">
        <ele>195.8</ele>
        <time>2026-08-24T11:48:33Z</time>
      </trkpt>
      <trkpt lat="49.16602" lon="4.03032">
        <ele>196</ele>
        <time>2026-08-24T11:48:34Z</time>
      </trkpt>
      <trkpt lat="49.16602" lon="4.03036">
        <ele>196.2</ele>
        <time>2026-08-24T11:48:35Z</time>
      </trkpt>
      <trkpt lat="49.16602" lon="4.03042">
        <ele>196.4</ele>
        <time>2026-08-24T11:48:36Z</time>
      </trkpt>
      <trkpt lat="49.16602" lon="4.03047">
        <ele>196.6</ele>
        <time>2026-08-24T11:48:37Z</time>
      </trkpt>
      <trkpt lat="49.16602" lon="4.03052">
        <ele>196.8</ele>
        <time>2026-08-24T11:48:38Z</time>
      </trkpt>
      <trkpt lat="49.16602" lon="4.03057">
        <ele>196.6</ele>
        <time>2026-08-24T11:48:39Z</time>
      </trkpt>
      <trkpt lat="49.16602" lon="4.03063">
        <ele>196.6</ele>
        <time>2026-08-24T11:48:40Z</time>
      </trkpt>
      <trkpt lat="49.16602" lon="4.03068">
        <ele>196.6</ele>
        <time>2026-08-24T11:48:41Z</time>
      </trkpt>
      <trkpt lat="49.16602" lon="4.03074">
        <ele>196.8</ele>
        <time>2026-08-24T11:48:42Z</time>
      </trkpt>
      <trkpt lat="49.16602" lon="4.03079">
        <ele>196.8</ele>
        <time>2026-08-24T11:48:43Z</time>
      </trkpt>
      <trkpt lat="49.16601" lon="4.03085">
        <ele>197</ele>
        <time>2026-08-24T11:48:44Z</time>
      </trkpt>
      <trkpt lat="49.16601" lon="4.0309">
        <ele>197.2</ele>
        <time>2026-08-24T11:48:45Z</time>
      </trkpt>
      <trkpt lat="49.166" lon="4.03097">
        <ele>197.2</ele>
        <time>2026-08-24T11:48:46Z</time>
      </trkpt>
      <trkpt lat="49.16599" lon="4.03103">
        <ele>197</ele>
        <time>2026-08-24T11:48:47Z</time>
      </trkpt>
      <trkpt lat="49.16598" lon="4.03109">
        <ele>196.8</ele>
        <time>2026-08-24T11:48:48Z</time>
      </trkpt>
      <trkpt lat="49.16597" lon="4.03116">
        <ele>196.6</ele>
        <time>2026-08-24T11:48:49Z</time>
      </trkpt>
      <trkpt lat="49.16596" lon="4.03123">
        <ele>196.2</ele>
        <time>2026-08-24T11:48:50Z</time>
      </trkpt>
      <trkpt lat="49.16595" lon="4.0313">
        <ele>196.2</ele>
        <time>2026-08-24T11:48:51Z</time>
      </trkpt>
      <trkpt lat="49.16593" lon="4.03137">
        <ele>196</ele>
        <time>2026-08-24T11:48:52Z</time>
      </trkpt>
      <trkpt lat="49.16592" lon="4.03145">
        <ele>195.8</ele>
        <time>2026-08-24T11:48:53Z</time>
      </trkpt>
      <trkpt lat="49.1659" lon="4.03153">
        <ele>195.4</ele>
        <time>2026-08-24T11:48:54Z</time>
      </trkpt>
      <trkpt lat="49.16588" lon="4.03161">
        <ele>195.2</ele>
        <time>2026-08-24T11:48:55Z</time>
      </trkpt>
      <trkpt lat="49.16585" lon="4.03169">
        <ele>194.8</ele>
        <time>2026-08-24T11:48:56Z</time>
      </trkpt>
      <trkpt lat="49.16582" lon="4.03178">
        <ele>194.2</ele>
        <time>2026-08-24T11:48:57Z</time>
      </trkpt>
      <trkpt lat="49.16579" lon="4.03187">
        <ele>193.8</ele>
        <time>2026-08-24T11:48:58Z</time>
      </trkpt>
      <trkpt lat="49.16575" lon="4.03196">
        <ele>193.4</ele>
        <time>2026-08-24T11:48:59Z</time>
      </trkpt>
      <trkpt lat="49.16572" lon="4.03205">
        <ele>193</ele>
        <time>2026-08-24T11:49:00Z</time>
      </trkpt>
      <trkpt lat="49.16568" lon="4.03215">
        <ele>192.6</ele>
        <time>2026-08-24T11:49:01Z</time>
      </trkpt>
      <trkpt lat="49.16565" lon="4.03224">
        <ele>192.4</ele>
        <time>2026-08-24T11:49:02Z</time>
      </trkpt>
      <trkpt lat="49.16561" lon="4.03234">
        <ele>192.2</ele>
        <time>2026-08-24T11:49:03Z</time>
      </trkpt>
      <trkpt lat="49.16558" lon="4.03244">
        <ele>192</ele>
        <time>2026-08-24T11:49:04Z</time>
      </trkpt>
      <trkpt lat="49.16554" lon="4.03255">
        <ele>191.8</ele>
        <time>2026-08-24T11:49:05Z</time>
      </trkpt>
      <trkpt lat="49.16551" lon="4.03265">
        <ele>191.4</ele>
        <time>2026-08-24T11:49:06Z</time>
      </trkpt>
      <trkpt lat="49.16547" lon="4.03275">
        <ele>190.8</ele>
        <time>2026-08-24T11:49:07Z</time>
      </trkpt>
      <trkpt lat="49.16543" lon="4.03285">
        <ele>190.2</ele>
        <time>2026-08-24T11:49:08Z</time>
      </trkpt>
      <trkpt lat="49.16539" lon="4.03295">
        <ele>189.8</ele>
        <time>2026-08-24T11:49:09Z</time>
      </trkpt>
      <trkpt lat="49.16535" lon="4.03304">
        <ele>189.4</ele>
        <time>2026-08-24T11:49:10Z</time>
      </trkpt>
      <trkpt lat="49.1653" lon="4.03313">
        <ele>189.2</ele>
        <time>2026-08-24T11:49:11Z</time>
      </trkpt>
      <trkpt lat="49.16526" lon="4.03323">
        <ele>189</ele>
        <time>2026-08-24T11:49:12Z</time>
      </trkpt>
      <trkpt lat="49.16521" lon="4.03332">
        <ele>188.8</ele>
        <time>2026-08-24T11:49:13Z</time>
      </trkpt>
      <trkpt lat="49.16516" lon="4.03342">
        <ele>188.4</ele>
        <time>2026-08-24T11:49:14Z</time>
      </trkpt>
      <trkpt lat="49.16511" lon="4.03351">
        <ele>188.4</ele>
        <time>2026-08-24T11:49:15Z</time>
      </trkpt>
      <trkpt lat="49.16506" lon="4.03361">
        <ele>188.4</ele>
        <time>2026-08-24T11:49:16Z</time>
      </trkpt>
      <trkpt lat="49.165" lon="4.03372">
        <ele>188.2</ele>
        <time>2026-08-24T11:49:17Z</time>
      </trkpt>
      <trkpt lat="49.16494" lon="4.03382">
        <ele>188.2</ele>
        <time>2026-08-24T11:49:18Z</time>
      </trkpt>
      <trkpt lat="49.16489" lon="4.03392">
        <ele>188</ele>
        <time>2026-08-24T11:49:19Z</time>
      </trkpt>
      <trkpt lat="49.16483" lon="4.03403">
        <ele>187.4</ele>
        <time>2026-08-24T11:49:20Z</time>
      </trkpt>
      <trkpt lat="49.16478" lon="4.03415">
        <ele>186.8</ele>
        <time>2026-08-24T11:49:21Z</time>
      </trkpt>
      <trkpt lat="49.16473" lon="4.03426">
        <ele>186.4</ele>
        <time>2026-08-24T11:49:22Z</time>
      </trkpt>
      <trkpt lat="49.16468" lon="4.03438">
        <ele>186.2</ele>
        <time>2026-08-24T11:49:23Z</time>
      </trkpt>
      <trkpt lat="49.16463" lon="4.0345">
        <ele>186</ele>
        <time>2026-08-24T11:49:24Z</time>
      </trkpt>
      <trkpt lat="49.16459" lon="4.03462">
        <ele>185.8</ele>
        <time>2026-08-24T11:49:25Z</time>
      </trkpt>
      <trkpt lat="49.16455" lon="4.03473">
        <ele>185.8</ele>
        <time>2026-08-24T11:49:26Z</time>
      </trkpt>
      <trkpt lat="49.16452" lon="4.03485">
        <ele>186</ele>
        <time>2026-08-24T11:49:27Z</time>
      </trkpt>
      <trkpt lat="49.16448" lon="4.03496">
        <ele>186</ele>
        <time>2026-08-24T11:49:28Z</time>
      </trkpt>
      <trkpt lat="49.16446" lon="4.03506">
        <ele>186.2</ele>
        <time>2026-08-24T11:49:29Z</time>
      </trkpt>
      <trkpt lat="49.16443" lon="4.03517">
        <ele>186.4</ele>
        <time>2026-08-24T11:49:30Z</time>
      </trkpt>
      <trkpt lat="49.16441" lon="4.03528">
        <ele>186.6</ele>
        <time>2026-08-24T11:49:31Z</time>
      </trkpt>
      <trkpt lat="49.16439" lon="4.03537">
        <ele>186.8</ele>
        <time>2026-08-24T11:49:32Z</time>
      </trkpt>
      <trkpt lat="49.16436" lon="4.03547">
        <ele>187.2</ele>
        <time>2026-08-24T11:49:33Z</time>
      </trkpt>
      <trkpt lat="49.16435" lon="4.03556">
        <ele>187.6</ele>
        <time>2026-08-24T11:49:34Z</time>
      </trkpt>
      <trkpt lat="49.16433" lon="4.03566">
        <ele>187.8</ele>
        <time>2026-08-24T11:49:35Z</time>
      </trkpt>
      <trkpt lat="49.16432" lon="4.03575">
        <ele>188.2</ele>
        <time>2026-08-24T11:49:36Z</time>
      </trkpt>
      <trkpt lat="49.1643" lon="4.03584">
        <ele>188.6</ele>
        <time>2026-08-24T11:49:37Z</time>
      </trkpt>
      <trkpt lat="49.16429" lon="4.03594">
        <ele>188.8</ele>
        <time>2026-08-24T11:49:38Z</time>
      </trkpt>
      <trkpt lat="49.16428" lon="4.03603">
        <ele>189</ele>
        <time>2026-08-24T11:49:39Z</time>
      </trkpt>
      <trkpt lat="49.16426" lon="4.03612">
        <ele>189.2</ele>
        <time>2026-08-24T11:49:40Z</time>
      </trkpt>
      <trkpt lat="49.16425" lon="4.03621">
        <ele>189.2</ele>
        <time>2026-08-24T11:49:41Z</time>
      </trkpt>
      <trkpt lat="49.16424" lon="4.03631">
        <ele>189.2</ele>
        <time>2026-08-24T11:49:42Z</time>
      </trkpt>
      <trkpt lat="49.16422" lon="4.0364">
        <ele>189.4</ele>
        <time>2026-08-24T11:49:43Z</time>
      </trkpt>
      <trkpt lat="49.16421" lon="4.0365">
        <ele>189.4</ele>
        <time>2026-08-24T11:49:44Z</time>
      </trkpt>
      <trkpt lat="49.16419" lon="4.0366">
        <ele>189.4</ele>
        <time>2026-08-24T11:49:45Z</time>
      </trkpt>
      <trkpt lat="49.16418" lon="4.03669">
        <ele>189.4</ele>
        <time>2026-08-24T11:49:46Z</time>
      </trkpt>
      <trkpt lat="49.16416" lon="4.03678">
        <ele>189.4</ele>
        <time>2026-08-24T11:49:47Z</time>
      </trkpt>
      <trkpt lat="49.16414" lon="4.03688">
        <ele>189.2</ele>
        <time>2026-08-24T11:49:48Z</time>
      </trkpt>
      <trkpt lat="49.16412" lon="4.03698">
        <ele>189.2</ele>
        <time>2026-08-24T11:49:49Z</time>
      </trkpt>
      <trkpt lat="49.1641" lon="4.03708">
        <ele>189.2</ele>
        <time>2026-08-24T11:49:50Z</time>
      </trkpt>
      <trkpt lat="49.16407" lon="4.03717">
        <ele>189</ele>
        <time>2026-08-24T11:49:51Z</time>
      </trkpt>
      <trkpt lat="49.16404" lon="4.03727">
        <ele>189</ele>
        <time>2026-08-24T11:49:52Z</time>
      </trkpt>
      <trkpt lat="49.16402" lon="4.03736">
        <ele>189</ele>
        <time>2026-08-24T11:49:53Z</time>
      </trkpt>
      <trkpt lat="49.16398" lon="4.03745">
        <ele>188.8</ele>
        <time>2026-08-24T11:49:54Z</time>
      </trkpt>
      <trkpt lat="49.16395" lon="4.03754">
        <ele>188.8</ele>
        <time>2026-08-24T11:49:55Z</time>
      </trkpt>
      <trkpt lat="49.16391" lon="4.03763">
        <ele>188.8</ele>
        <time>2026-08-24T11:49:56Z</time>
      </trkpt>
      <trkpt lat="49.16387" lon="4.03772">
        <ele>189</ele>
        <time>2026-08-24T11:49:57Z</time>
      </trkpt>
      <trkpt lat="49.16383" lon="4.03781">
        <ele>188.8</ele>
        <time>2026-08-24T11:49:58Z</time>
      </trkpt>
      <trkpt lat="49.16379" lon="4.03789">
        <ele>188.8</ele>
        <time>2026-08-24T11:49:59Z</time>
      </trkpt>
      <trkpt lat="49.16374" lon="4.03798">
        <ele>188.8</ele>
        <time>2026-08-24T11:50:00Z</time>
      </trkpt>
      <trkpt lat="49.16369" lon="4.03806">
        <ele>188.6</ele>
        <time>2026-08-24T11:50:01Z</time>
      </trkpt>
      <trkpt lat="49.16364" lon="4.03814">
        <ele>188.4</ele>
        <time>2026-08-24T11:50:02Z</time>
      </trkpt>
      <trkpt lat="49.16359" lon="4.03822">
        <ele>188.4</ele>
        <time>2026-08-24T11:50:03Z</time>
      </trkpt>
      <trkpt lat="49.16354" lon="4.0383">
        <ele>188.4</ele>
        <time>2026-08-24T11:50:04Z</time>
      </trkpt>
      <trkpt lat="49.1635" lon="4.03837">
        <ele>188.2</ele>
        <time>2026-08-24T11:50:05Z</time>
      </trkpt>
      <trkpt lat="49.16345" lon="4.03845">
        <ele>188.2</ele>
        <time>2026-08-24T11:50:06Z</time>
      </trkpt>
      <trkpt lat="49.1634" lon="4.03852">
        <ele>188</ele>
        <time>2026-08-24T11:50:07Z</time>
      </trkpt>
      <trkpt lat="49.16335" lon="4.03859">
        <ele>187.8</ele>
        <time>2026-08-24T11:50:08Z</time>
      </trkpt>
      <trkpt lat="49.16331" lon="4.03866">
        <ele>187.6</ele>
        <time>2026-08-24T11:50:09Z</time>
      </trkpt>
      <trkpt lat="49.16327" lon="4.03872">
        <ele>187.6</ele>
        <time>2026-08-24T11:50:10Z</time>
      </trkpt>
      <trkpt lat="49.16324" lon="4.03878">
        <ele>187.4</ele>
        <time>2026-08-24T11:50:11Z</time>
      </trkpt>
      <trkpt lat="49.16321" lon="4.03883">
        <ele>187.2</ele>
        <time>2026-08-24T11:50:12Z</time>
      </trkpt>
      <trkpt lat="49.16318" lon="4.03887">
        <ele>187</ele>
        <time>2026-08-24T11:50:13Z</time>
      </trkpt>
      <trkpt lat="49.16316" lon="4.0389">
        <ele>186.8</ele>
        <time>2026-08-24T11:50:14Z</time>
      </trkpt>
      <trkpt lat="49.16314" lon="4.03892">
        <ele>186.8</ele>
        <time>2026-08-24T11:50:15Z</time>
      </trkpt>
      <trkpt lat="49.16313" lon="4.03893">
        <ele>186.8</ele>
        <time>2026-08-24T11:50:16Z</time>
      </trkpt>
      <trkpt lat="49.16313" lon="4.03893">
        <ele>187</ele>
        <time>2026-08-24T11:50:17Z</time>
      </trkpt>
      <trkpt lat="49.16313" lon="4.03893">
        <ele>187</ele>
        <time>2026-08-24T11:50:18Z</time>
      </trkpt>
      <trkpt lat="49.1631" lon="4.03901">
        <ele>187.2</ele>
        <time>2026-08-24T11:51:14Z</time>
      </trkpt>
      <trkpt lat="49.16308" lon="4.03904">
        <ele>187.2</ele>
        <time>2026-08-24T11:51:15Z</time>
      </trkpt>
      <trkpt lat="49.16306" lon="4.03908">
        <ele>187</ele>
        <time>2026-08-24T11:51:16Z</time>
      </trkpt>
      <trkpt lat="49.16304" lon="4.03913">
        <ele>186.8</ele>
        <time>2026-08-24T11:51:17Z</time>
      </trkpt>
      <trkpt lat="49.16301" lon="4.03919">
        <ele>186.4</ele>
        <time>2026-08-24T11:51:18Z</time>
      </trkpt>
      <trkpt lat="49.16298" lon="4.03926">
        <ele>186</ele>
        <time>2026-08-24T11:51:19Z</time>
      </trkpt>
      <trkpt lat="49.16295" lon="4.03933">
        <ele>185.6</ele>
        <time>2026-08-24T11:51:20Z</time>
      </trkpt>
      <trkpt lat="49.16292" lon="4.03941">
        <ele>185</ele>
        <time>2026-08-24T11:51:21Z</time>
      </trkpt>
      <trkpt lat="49.16289" lon="4.03949">
        <ele>184.6</ele>
        <time>2026-08-24T11:51:22Z</time>
      </trkpt>
      <trkpt lat="49.16286" lon="4.03958">
        <ele>184.4</ele>
        <time>2026-08-24T11:51:23Z</time>
      </trkpt>
      <trkpt lat="49.16283" lon="4.03968">
        <ele>183.8</ele>
        <time>2026-08-24T11:51:24Z</time>
      </trkpt>
      <trkpt lat="49.1628" lon="4.03979">
        <ele>183.6</ele>
        <time>2026-08-24T11:51:25Z</time>
      </trkpt>
      <trkpt lat="49.16278" lon="4.0399">
        <ele>183.2</ele>
        <time>2026-08-24T11:51:26Z</time>
      </trkpt>
      <trkpt lat="49.16275" lon="4.04002">
        <ele>182.8</ele>
        <time>2026-08-24T11:51:27Z</time>
      </trkpt>
      <trkpt lat="49.16273" lon="4.04014">
        <ele>182.6</ele>
        <time>2026-08-24T11:51:28Z</time>
      </trkpt>
      <trkpt lat="49.16271" lon="4.04027">
        <ele>182.4</ele>
        <time>2026-08-24T11:51:29Z</time>
      </trkpt>
      <trkpt lat="49.1627" lon="4.04041">
        <ele>182</ele>
        <time>2026-08-24T11:51:30Z</time>
      </trkpt>
      <trkpt lat="49.16269" lon="4.04055">
        <ele>181.6</ele>
        <time>2026-08-24T11:51:31Z</time>
      </trkpt>
      <trkpt lat="49.16268" lon="4.0407">
        <ele>180.8</ele>
        <time>2026-08-24T11:51:32Z</time>
      </trkpt>
      <trkpt lat="49.16268" lon="4.04085">
        <ele>180.2</ele>
        <time>2026-08-24T11:51:33Z</time>
      </trkpt>
      <trkpt lat="49.16268" lon="4.041">
        <ele>179</ele>
        <time>2026-08-24T11:51:34Z</time>
      </trkpt>
      <trkpt lat="49.16269" lon="4.04116">
        <ele>178.2</ele>
        <time>2026-08-24T11:51:35Z</time>
      </trkpt>
      <trkpt lat="49.16271" lon="4.04132">
        <ele>177.4</ele>
        <time>2026-08-24T11:51:36Z</time>
      </trkpt>
      <trkpt lat="49.16273" lon="4.04148">
        <ele>176.8</ele>
        <time>2026-08-24T11:51:37Z</time>
      </trkpt>
      <trkpt lat="49.16277" lon="4.04163">
        <ele>176.2</ele>
        <time>2026-08-24T11:51:38Z</time>
      </trkpt>
      <trkpt lat="49.1628" lon="4.04178">
        <ele>175.6</ele>
        <time>2026-08-24T11:51:39Z</time>
      </trkpt>
      <trkpt lat="49.16285" lon="4.04193">
        <ele>174.8</ele>
        <time>2026-08-24T11:51:40Z</time>
      </trkpt>
      <trkpt lat="49.16289" lon="4.04208">
        <ele>174.2</ele>
        <time>2026-08-24T11:51:41Z</time>
      </trkpt>
      <trkpt lat="49.16295" lon="4.04221">
        <ele>173.4</ele>
        <time>2026-08-24T11:51:42Z</time>
      </trkpt>
      <trkpt lat="49.16301" lon="4.04234">
        <ele>172.8</ele>
        <time>2026-08-24T11:51:43Z</time>
      </trkpt>
      <trkpt lat="49.16307" lon="4.04247">
        <ele>172</ele>
        <time>2026-08-24T11:51:44Z</time>
      </trkpt>
      <trkpt lat="49.16313" lon="4.04259">
        <ele>171.6</ele>
        <time>2026-08-24T11:51:45Z</time>
      </trkpt>
      <trkpt lat="49.1632" lon="4.04271">
        <ele>170.8</ele>
        <time>2026-08-24T11:51:46Z</time>
      </trkpt>
      <trkpt lat="49.16326" lon="4.04283">
        <ele>169.8</ele>
        <time>2026-08-24T11:51:47Z</time>
      </trkpt>
      <trkpt lat="49.16333" lon="4.04295">
        <ele>168.6</ele>
        <time>2026-08-24T11:51:48Z</time>
      </trkpt>
      <trkpt lat="49.16339" lon="4.04307">
        <ele>168</ele>
        <time>2026-08-24T11:51:49Z</time>
      </trkpt>
      <trkpt lat="49.16344" lon="4.0432">
        <ele>167.6</ele>
        <time>2026-08-24T11:51:50Z</time>
      </trkpt>
      <trkpt lat="49.16349" lon="4.04334">
        <ele>166.8</ele>
        <time>2026-08-24T11:51:51Z</time>
      </trkpt>
      <trkpt lat="49.16352" lon="4.04348">
        <ele>166.6</ele>
        <time>2026-08-24T11:51:52Z</time>
      </trkpt>
      <trkpt lat="49.16355" lon="4.04361">
        <ele>166.6</ele>
        <time>2026-08-24T11:51:53Z</time>
      </trkpt>
      <trkpt lat="49.16356" lon="4.04372">
        <ele>166.4</ele>
        <time>2026-08-24T11:51:54Z</time>
      </trkpt>
      <trkpt lat="49.16356" lon="4.04382">
        <ele>166.6</ele>
        <time>2026-08-24T11:51:55Z</time>
      </trkpt>
      <trkpt lat="49.16356" lon="4.04391">
        <ele>167</ele>
        <time>2026-08-24T11:51:56Z</time>
      </trkpt>
      <trkpt lat="49.16357" lon="4.04399">
        <ele>167.4</ele>
        <time>2026-08-24T11:51:57Z</time>
      </trkpt>
      <trkpt lat="49.16357" lon="4.04407">
        <ele>167.6</ele>
        <time>2026-08-24T11:51:58Z</time>
      </trkpt>
      <trkpt lat="49.16357" lon="4.04415">
        <ele>167.8</ele>
        <time>2026-08-24T11:51:59Z</time>
      </trkpt>
      <trkpt lat="49.16356" lon="4.04423">
        <ele>168</ele>
        <time>2026-08-24T11:52:00Z</time>
      </trkpt>
      <trkpt lat="49.16356" lon="4.04432">
        <ele>168</ele>
        <time>2026-08-24T11:52:01Z</time>
      </trkpt>
      <trkpt lat="49.16356" lon="4.04441">
        <ele>168</ele>
        <time>2026-08-24T11:52:02Z</time>
      </trkpt>
      <trkpt lat="49.16357" lon="4.0445">
        <ele>168</ele>
        <time>2026-08-24T11:52:03Z</time>
      </trkpt>
      <trkpt lat="49.16357" lon="4.04459">
        <ele>168</ele>
        <time>2026-08-24T11:52:04Z</time>
      </trkpt>
      <trkpt lat="49.16357" lon="4.04467">
        <ele>168</ele>
        <time>2026-08-24T11:52:05Z</time>
      </trkpt>
      <trkpt lat="49.16357" lon="4.04476">
        <ele>168</ele>
        <time>2026-08-24T11:52:06Z</time>
      </trkpt>
      <trkpt lat="49.16357" lon="4.04485">
        <ele>168.2</ele>
        <time>2026-08-24T11:52:07Z</time>
      </trkpt>
      <trkpt lat="49.16357" lon="4.04493">
        <ele>168.4</ele>
        <time>2026-08-24T11:52:08Z</time>
      </trkpt>
      <trkpt lat="49.16357" lon="4.04501">
        <ele>168.8</ele>
        <time>2026-08-24T11:52:09Z</time>
      </trkpt>
      <trkpt lat="49.16357" lon="4.04509">
        <ele>169</ele>
        <time>2026-08-24T11:52:10Z</time>
      </trkpt>
      <trkpt lat="49.16357" lon="4.04517">
        <ele>169.4</ele>
        <time>2026-08-24T11:52:11Z</time>
      </trkpt>
      <trkpt lat="49.16356" lon="4.04525">
        <ele>169.6</ele>
        <time>2026-08-24T11:52:12Z</time>
      </trkpt>
      <trkpt lat="49.16356" lon="4.04534">
        <ele>169.6</ele>
        <time>2026-08-24T11:52:13Z</time>
      </trkpt>
      <trkpt lat="49.16355" lon="4.04542">
        <ele>169.6</ele>
        <time>2026-08-24T11:52:14Z</time>
      </trkpt>
      <trkpt lat="49.16355" lon="4.0455">
        <ele>169.6</ele>
        <time>2026-08-24T11:52:15Z</time>
      </trkpt>
      <trkpt lat="49.16354" lon="4.04559">
        <ele>169.6</ele>
        <time>2026-08-24T11:52:16Z</time>
      </trkpt>
      <trkpt lat="49.16354" lon="4.04568">
        <ele>169.4</ele>
        <time>2026-08-24T11:52:17Z</time>
      </trkpt>
      <trkpt lat="49.16353" lon="4.04578">
        <ele>169.4</ele>
        <time>2026-08-24T11:52:18Z</time>
      </trkpt>
      <trkpt lat="49.16353" lon="4.04588">
        <ele>169.4</ele>
        <time>2026-08-24T11:52:19Z</time>
      </trkpt>
      <trkpt lat="49.16352" lon="4.04598">
        <ele>169.2</ele>
        <time>2026-08-24T11:52:20Z</time>
      </trkpt>
      <trkpt lat="49.16352" lon="4.04608">
        <ele>169.2</ele>
        <time>2026-08-24T11:52:21Z</time>
      </trkpt>
      <trkpt lat="49.16352" lon="4.04619">
        <ele>169.2</ele>
        <time>2026-08-24T11:52:22Z</time>
      </trkpt>
      <trkpt lat="49.16352" lon="4.0463">
        <ele>169</ele>
        <time>2026-08-24T11:52:23Z</time>
      </trkpt>
      <trkpt lat="49.16352" lon="4.0464">
        <ele>168.8</ele>
        <time>2026-08-24T11:52:24Z</time>
      </trkpt>
      <trkpt lat="49.16352" lon="4.04651">
        <ele>168.6</ele>
        <time>2026-08-24T11:52:25Z</time>
      </trkpt>
      <trkpt lat="49.16352" lon="4.04662">
        <ele>168.2</ele>
        <time>2026-08-24T11:52:26Z</time>
      </trkpt>
      <trkpt lat="49.16353" lon="4.04673">
        <ele>168</ele>
        <time>2026-08-24T11:52:27Z</time>
      </trkpt>
      <trkpt lat="49.16353" lon="4.04685">
        <ele>167.6</ele>
        <time>2026-08-24T11:52:28Z</time>
      </trkpt>
      <trkpt lat="49.16354" lon="4.04696">
        <ele>167.2</ele>
        <time>2026-08-24T11:52:29Z</time>
      </trkpt>
      <trkpt lat="49.16355" lon="4.04708">
        <ele>167</ele>
        <time>2026-08-24T11:52:30Z</time>
      </trkpt>
      <trkpt lat="49.16355" lon="4.04719">
        <ele>166.8</ele>
        <time>2026-08-24T11:52:31Z</time>
      </trkpt>
      <trkpt lat="49.16356" lon="4.04731">
        <ele>166.4</ele>
        <time>2026-08-24T11:52:32Z</time>
      </trkpt>
      <trkpt lat="49.16357" lon="4.04743">
        <ele>166.2</ele>
        <time>2026-08-24T11:52:33Z</time>
      </trkpt>
      <trkpt lat="49.16358" lon="4.04755">
        <ele>166</ele>
        <time>2026-08-24T11:52:34Z</time>
      </trkpt>
      <trkpt lat="49.16359" lon="4.04767">
        <ele>165.8</ele>
        <time>2026-08-24T11:52:35Z</time>
      </trkpt>
      <trkpt lat="49.1636" lon="4.04779">
        <ele>165.8</ele>
        <time>2026-08-24T11:52:36Z</time>
      </trkpt>
      <trkpt lat="49.1636" lon="4.04791">
        <ele>165.8</ele>
        <time>2026-08-24T11:52:37Z</time>
      </trkpt>
      <trkpt lat="49.1636" lon="4.04802">
        <ele>165.8</ele>
        <time>2026-08-24T11:52:38Z</time>
      </trkpt>
      <trkpt lat="49.16359" lon="4.04814">
        <ele>166</ele>
        <time>2026-08-24T11:52:39Z</time>
      </trkpt>
      <trkpt lat="49.16358" lon="4.04825">
        <ele>166</ele>
        <time>2026-08-24T11:52:40Z</time>
      </trkpt>
      <trkpt lat="49.16357" lon="4.04837">
        <ele>166</ele>
        <time>2026-08-24T11:52:41Z</time>
      </trkpt>
      <trkpt lat="49.16356" lon="4.04848">
        <ele>166</ele>
        <time>2026-08-24T11:52:42Z</time>
      </trkpt>
      <trkpt lat="49.16355" lon="4.04859">
        <ele>166</ele>
        <time>2026-08-24T11:52:43Z</time>
      </trkpt>
      <trkpt lat="49.16354" lon="4.04869">
        <ele>166.2</ele>
        <time>2026-08-24T11:52:44Z</time>
      </trkpt>
      <trkpt lat="49.16353" lon="4.04879">
        <ele>166.2</ele>
        <time>2026-08-24T11:52:45Z</time>
      </trkpt>
      <trkpt lat="49.16352" lon="4.04889">
        <ele>166.4</ele>
        <time>2026-08-24T11:52:46Z</time>
      </trkpt>
      <trkpt lat="49.16351" lon="4.04898">
        <ele>166.8</ele>
        <time>2026-08-24T11:52:47Z</time>
      </trkpt>
      <trkpt lat="49.1635" lon="4.04907">
        <ele>167</ele>
        <time>2026-08-24T11:52:48Z</time>
      </trkpt>
      <trkpt lat="49.16349" lon="4.04915">
        <ele>167.4</ele>
        <time>2026-08-24T11:52:49Z</time>
      </trkpt>
      <trkpt lat="49.16348" lon="4.04923">
        <ele>167.8</ele>
        <time>2026-08-24T11:52:50Z</time>
      </trkpt>
      <trkpt lat="49.16347" lon="4.04931">
        <ele>168</ele>
        <time>2026-08-24T11:52:51Z</time>
      </trkpt>
      <trkpt lat="49.16346" lon="4.04938">
        <ele>168.4</ele>
        <time>2026-08-24T11:52:52Z</time>
      </trkpt>
      <trkpt lat="49.16345" lon="4.04945">
        <ele>168.8</ele>
        <time>2026-08-24T11:52:53Z</time>
      </trkpt>
      <trkpt lat="49.16344" lon="4.04952">
        <ele>169</ele>
        <time>2026-08-24T11:52:54Z</time>
      </trkpt>
      <trkpt lat="49.16343" lon="4.04959">
        <ele>169.2</ele>
        <time>2026-08-24T11:52:55Z</time>
      </trkpt>
      <trkpt lat="49.16341" lon="4.04966">
        <ele>169.4</ele>
        <time>2026-08-24T11:52:56Z</time>
      </trkpt>
      <trkpt lat="49.1634" lon="4.04972">
        <ele>169.6</ele>
        <time>2026-08-24T11:52:57Z</time>
      </trkpt>
      <trkpt lat="49.16338" lon="4.04979">
        <ele>169.8</ele>
        <time>2026-08-24T11:52:58Z</time>
      </trkpt>
      <trkpt lat="49.16335" lon="4.04986">
        <ele>170</ele>
        <time>2026-08-24T11:52:59Z</time>
      </trkpt>
      <trkpt lat="49.16333" lon="4.04993">
        <ele>170</ele>
        <time>2026-08-24T11:53:00Z</time>
      </trkpt>
      <trkpt lat="49.1633" lon="4.05">
        <ele>170.2</ele>
        <time>2026-08-24T11:53:01Z</time>
      </trkpt>
      <trkpt lat="49.16328" lon="4.05007">
        <ele>170.2</ele>
        <time>2026-08-24T11:53:02Z</time>
      </trkpt>
      <trkpt lat="49.16325" lon="4.05014">
        <ele>170</ele>
        <time>2026-08-24T11:53:03Z</time>
      </trkpt>
      <trkpt lat="49.16323" lon="4.05021">
        <ele>170</ele>
        <time>2026-08-24T11:53:04Z</time>
      </trkpt>
      <trkpt lat="49.16319" lon="4.05028">
        <ele>169.8</ele>
        <time>2026-08-24T11:53:05Z</time>
      </trkpt>
      <trkpt lat="49.16316" lon="4.05035">
        <ele>169.6</ele>
        <time>2026-08-24T11:53:06Z</time>
      </trkpt>
      <trkpt lat="49.16313" lon="4.05042">
        <ele>169.4</ele>
        <time>2026-08-24T11:53:07Z</time>
      </trkpt>
      <trkpt lat="49.16309" lon="4.05049">
        <ele>169</ele>
        <time>2026-08-24T11:53:08Z</time>
      </trkpt>
      <trkpt lat="49.16305" lon="4.05057">
        <ele>168.8</ele>
        <time>2026-08-24T11:53:09Z</time>
      </trkpt>
      <trkpt lat="49.16302" lon="4.05064">
        <ele>168.6</ele>
        <time>2026-08-24T11:53:10Z</time>
      </trkpt>
      <trkpt lat="49.16298" lon="4.05072">
        <ele>168.4</ele>
        <time>2026-08-24T11:53:11Z</time>
      </trkpt>
      <trkpt lat="49.16294" lon="4.0508">
        <ele>168.2</ele>
        <time>2026-08-24T11:53:12Z</time>
      </trkpt>
      <trkpt lat="49.1629" lon="4.05087">
        <ele>168</ele>
        <time>2026-08-24T11:53:13Z</time>
      </trkpt>
      <trkpt lat="49.16286" lon="4.05095">
        <ele>167.8</ele>
        <time>2026-08-24T11:53:14Z</time>
      </trkpt>
      <trkpt lat="49.16281" lon="4.05103">
        <ele>167.8</ele>
        <time>2026-08-24T11:53:15Z</time>
      </trkpt>
      <trkpt lat="49.16277" lon="4.05112">
        <ele>167.4</ele>
        <time>2026-08-24T11:53:16Z</time>
      </trkpt>
      <trkpt lat="49.16272" lon="4.05121">
        <ele>167.2</ele>
        <time>2026-08-24T11:53:17Z</time>
      </trkpt>
      <trkpt lat="49.16267" lon="4.05131">
        <ele>166.8</ele>
        <time>2026-08-24T11:53:18Z</time>
      </trkpt>
      <trkpt lat="49.16262" lon="4.05141">
        <ele>166</ele>
        <time>2026-08-24T11:53:19Z</time>
      </trkpt>
      <trkpt lat="49.16256" lon="4.05151">
        <ele>165.4</ele>
        <time>2026-08-24T11:53:20Z</time>
      </trkpt>
      <trkpt lat="49.1625" lon="4.05162">
        <ele>164.6</ele>
        <time>2026-08-24T11:53:21Z</time>
      </trkpt>
      <trkpt lat="49.16244" lon="4.05172">
        <ele>163.8</ele>
        <time>2026-08-24T11:53:22Z</time>
      </trkpt>
      <trkpt lat="49.16238" lon="4.05183">
        <ele>163</ele>
        <time>2026-08-24T11:53:23Z</time>
      </trkpt>
      <trkpt lat="49.16232" lon="4.05194">
        <ele>162</ele>
        <time>2026-08-24T11:53:24Z</time>
      </trkpt>
      <trkpt lat="49.16226" lon="4.05205">
        <ele>161.2</ele>
        <time>2026-08-24T11:53:25Z</time>
      </trkpt>
      <trkpt lat="49.1622" lon="4.05217">
        <ele>160.6</ele>
        <time>2026-08-24T11:53:26Z</time>
      </trkpt>
      <trkpt lat="49.16214" lon="4.05228">
        <ele>160</ele>
        <time>2026-08-24T11:53:27Z</time>
      </trkpt>
      <trkpt lat="49.16208" lon="4.0524">
        <ele>159.2</ele>
        <time>2026-08-24T11:53:28Z</time>
      </trkpt>
      <trkpt lat="49.16202" lon="4.05251">
        <ele>158.6</ele>
        <time>2026-08-24T11:53:29Z</time>
      </trkpt>
      <trkpt lat="49.16196" lon="4.05263">
        <ele>158</ele>
        <time>2026-08-24T11:53:30Z</time>
      </trkpt>
      <trkpt lat="49.1619" lon="4.05274">
        <ele>157.2</ele>
        <time>2026-08-24T11:53:31Z</time>
      </trkpt>
      <trkpt lat="49.16184" lon="4.05286">
        <ele>156.8</ele>
        <time>2026-08-24T11:53:32Z</time>
      </trkpt>
      <trkpt lat="49.16178" lon="4.05297">
        <ele>156.4</ele>
        <time>2026-08-24T11:53:33Z</time>
      </trkpt>
      <trkpt lat="49.16171" lon="4.05309">
        <ele>156.2</ele>
        <time>2026-08-24T11:53:34Z</time>
      </trkpt>
      <trkpt lat="49.16165" lon="4.0532">
        <ele>155.6</ele>
        <time>2026-08-24T11:53:35Z</time>
      </trkpt>
      <trkpt lat="49.16159" lon="4.05332">
        <ele>155</ele>
        <time>2026-08-24T11:53:36Z</time>
      </trkpt>
      <trkpt lat="49.16153" lon="4.05344">
        <ele>154.6</ele>
        <time>2026-08-24T11:53:37Z</time>
      </trkpt>
      <trkpt lat="49.16147" lon="4.05355">
        <ele>154.2</ele>
        <time>2026-08-24T11:53:38Z</time>
      </trkpt>
      <trkpt lat="49.16141" lon="4.05366">
        <ele>153.8</ele>
        <time>2026-08-24T11:53:39Z</time>
      </trkpt>
      <trkpt lat="49.16135" lon="4.05378">
        <ele>153.2</ele>
        <time>2026-08-24T11:53:40Z</time>
      </trkpt>
      <trkpt lat="49.16129" lon="4.0539">
        <ele>152.6</ele>
        <time>2026-08-24T11:53:41Z</time>
      </trkpt>
      <trkpt lat="49.16123" lon="4.05402">
        <ele>152</ele>
        <time>2026-08-24T11:53:42Z</time>
      </trkpt>
      <trkpt lat="49.16116" lon="4.05413">
        <ele>151.2</ele>
        <time>2026-08-24T11:53:43Z</time>
      </trkpt>
      <trkpt lat="49.1611" lon="4.05425">
        <ele>150.6</ele>
        <time>2026-08-24T11:53:44Z</time>
      </trkpt>
      <trkpt lat="49.16104" lon="4.05437">
        <ele>150</ele>
        <time>2026-08-24T11:53:45Z</time>
      </trkpt>
      <trkpt lat="49.16097" lon="4.0545">
        <ele>149.8</ele>
        <time>2026-08-24T11:53:46Z</time>
      </trkpt>
      <trkpt lat="49.16091" lon="4.05462">
        <ele>149.6</ele>
        <time>2026-08-24T11:53:47Z</time>
      </trkpt>
      <trkpt lat="49.16085" lon="4.05474">
        <ele>149.2</ele>
        <time>2026-08-24T11:53:48Z</time>
      </trkpt>
      <trkpt lat="49.16078" lon="4.05486">
        <ele>149</ele>
        <time>2026-08-24T11:53:49Z</time>
      </trkpt>
      <trkpt lat="49.16072" lon="4.05498">
        <ele>148.8</ele>
        <time>2026-08-24T11:53:50Z</time>
      </trkpt>
      <trkpt lat="49.16066" lon="4.0551">
        <ele>148.4</ele>
        <time>2026-08-24T11:53:51Z</time>
      </trkpt>
      <trkpt lat="49.1606" lon="4.05522">
        <ele>148</ele>
        <time>2026-08-24T11:53:52Z</time>
      </trkpt>
      <trkpt lat="49.16053" lon="4.05534">
        <ele>147.6</ele>
        <time>2026-08-24T11:53:53Z</time>
      </trkpt>
      <trkpt lat="49.16047" lon="4.05545">
        <ele>147.4</ele>
        <time>2026-08-24T11:53:54Z</time>
      </trkpt>
      <trkpt lat="49.16041" lon="4.05557">
        <ele>147.2</ele>
        <time>2026-08-24T11:53:55Z</time>
      </trkpt>
      <trkpt lat="49.16035" lon="4.05568">
        <ele>147</ele>
        <time>2026-08-24T11:53:56Z</time>
      </trkpt>
      <trkpt lat="49.16029" lon="4.0558">
        <ele>147</ele>
        <time>2026-08-24T11:53:57Z</time>
      </trkpt>
      <trkpt lat="49.16023" lon="4.05591">
        <ele>147</ele>
        <time>2026-08-24T11:53:58Z</time>
      </trkpt>
      <trkpt lat="49.16018" lon="4.05602">
        <ele>147.2</ele>
        <time>2026-08-24T11:53:59Z</time>
      </trkpt>
      <trkpt lat="49.16012" lon="4.05612">
        <ele>147.4</ele>
        <time>2026-08-24T11:54:00Z</time>
      </trkpt>
      <trkpt lat="49.16007" lon="4.05622">
        <ele>147.6</ele>
        <time>2026-08-24T11:54:01Z</time>
      </trkpt>
      <trkpt lat="49.16002" lon="4.05631">
        <ele>148</ele>
        <time>2026-08-24T11:54:02Z</time>
      </trkpt>
      <trkpt lat="49.15997" lon="4.0564">
        <ele>148.4</ele>
        <time>2026-08-24T11:54:03Z</time>
      </trkpt>
      <trkpt lat="49.15993" lon="4.05649">
        <ele>148.8</ele>
        <time>2026-08-24T11:54:04Z</time>
      </trkpt>
      <trkpt lat="49.15988" lon="4.05658">
        <ele>149</ele>
        <time>2026-08-24T11:54:05Z</time>
      </trkpt>
      <trkpt lat="49.15984" lon="4.05666">
        <ele>149.4</ele>
        <time>2026-08-24T11:54:06Z</time>
      </trkpt>
      <trkpt lat="49.15979" lon="4.05675">
        <ele>149.8</ele>
        <time>2026-08-24T11:54:07Z</time>
      </trkpt>
      <trkpt lat="49.15975" lon="4.05683">
        <ele>150</ele>
        <time>2026-08-24T11:54:08Z</time>
      </trkpt>
      <trkpt lat="49.15971" lon="4.05692">
        <ele>150.4</ele>
        <time>2026-08-24T11:54:09Z</time>
      </trkpt>
      <trkpt lat="49.15968" lon="4.057">
        <ele>150.6</ele>
        <time>2026-08-24T11:54:10Z</time>
      </trkpt>
      <trkpt lat="49.15964" lon="4.05709">
        <ele>150.8</ele>
        <time>2026-08-24T11:54:11Z</time>
      </trkpt>
      <trkpt lat="49.15961" lon="4.05717">
        <ele>151</ele>
        <time>2026-08-24T11:54:12Z</time>
      </trkpt>
      <trkpt lat="49.15957" lon="4.05726">
        <ele>151.2</ele>
        <time>2026-08-24T11:54:13Z</time>
      </trkpt>
      <trkpt lat="49.15954" lon="4.05735">
        <ele>151.2</ele>
        <time>2026-08-24T11:54:14Z</time>
      </trkpt>
      <trkpt lat="49.15951" lon="4.05744">
        <ele>151.2</ele>
        <time>2026-08-24T11:54:15Z</time>
      </trkpt>
      <trkpt lat="49.15948" lon="4.05754">
        <ele>151</ele>
        <time>2026-08-24T11:54:16Z</time>
      </trkpt>
      <trkpt lat="49.15945" lon="4.05764">
        <ele>150.8</ele>
        <time>2026-08-24T11:54:17Z</time>
      </trkpt>
      <trkpt lat="49.15942" lon="4.05773">
        <ele>150.6</ele>
        <time>2026-08-24T11:54:18Z</time>
      </trkpt>
      <trkpt lat="49.15939" lon="4.05783">
        <ele>150.4</ele>
        <time>2026-08-24T11:54:19Z</time>
      </trkpt>
      <trkpt lat="49.15935" lon="4.05793">
        <ele>150.2</ele>
        <time>2026-08-24T11:54:20Z</time>
      </trkpt>
      <trkpt lat="49.15933" lon="4.05804">
        <ele>150</ele>
        <time>2026-08-24T11:54:21Z</time>
      </trkpt>
      <trkpt lat="49.15929" lon="4.05814">
        <ele>149.8</ele>
        <time>2026-08-24T11:54:22Z</time>
      </trkpt>
      <trkpt lat="49.15926" lon="4.05824">
        <ele>149.6</ele>
        <time>2026-08-24T11:54:23Z</time>
      </trkpt>
      <trkpt lat="49.15923" lon="4.05835">
        <ele>149.4</ele>
        <time>2026-08-24T11:54:24Z</time>
      </trkpt>
      <trkpt lat="49.15919" lon="4.05846">
        <ele>149</ele>
        <time>2026-08-24T11:54:25Z</time>
      </trkpt>
      <trkpt lat="49.15915" lon="4.05857">
        <ele>148.8</ele>
        <time>2026-08-24T11:54:26Z</time>
      </trkpt>
      <trkpt lat="49.15911" lon="4.05869">
        <ele>148.6</ele>
        <time>2026-08-24T11:54:27Z</time>
      </trkpt>
      <trkpt lat="49.15907" lon="4.05879">
        <ele>148.2</ele>
        <time>2026-08-24T11:54:28Z</time>
      </trkpt>
      <trkpt lat="49.15903" lon="4.0589">
        <ele>147.8</ele>
        <time>2026-08-24T11:54:29Z</time>
      </trkpt>
      <trkpt lat="49.15899" lon="4.059">
        <ele>147.4</ele>
        <time>2026-08-24T11:54:30Z</time>
      </trkpt>
      <trkpt lat="49.15894" lon="4.05911">
        <ele>147.2</ele>
        <time>2026-08-24T11:54:31Z</time>
      </trkpt>
      <trkpt lat="49.15889" lon="4.05921">
        <ele>146.8</ele>
        <time>2026-08-24T11:54:32Z</time>
      </trkpt>
      <trkpt lat="49.15885" lon="4.05931">
        <ele>146.4</ele>
        <time>2026-08-24T11:54:33Z</time>
      </trkpt>
      <trkpt lat="49.1588" lon="4.05941">
        <ele>146</ele>
        <time>2026-08-24T11:54:34Z</time>
      </trkpt>
      <trkpt lat="49.15876" lon="4.05951">
        <ele>145.8</ele>
        <time>2026-08-24T11:54:35Z</time>
      </trkpt>
      <trkpt lat="49.15871" lon="4.0596">
        <ele>145.6</ele>
        <time>2026-08-24T11:54:36Z</time>
      </trkpt>
      <trkpt lat="49.15866" lon="4.0597">
        <ele>145.6</ele>
        <time>2026-08-24T11:54:37Z</time>
      </trkpt>
      <trkpt lat="49.15861" lon="4.0598">
        <ele>145.6</ele>
        <time>2026-08-24T11:54:38Z</time>
      </trkpt>
      <trkpt lat="49.15856" lon="4.0599">
        <ele>145.6</ele>
        <time>2026-08-24T11:54:39Z</time>
      </trkpt>
      <trkpt lat="49.15851" lon="4.06">
        <ele>145.6</ele>
        <time>2026-08-24T11:54:40Z</time>
      </trkpt>
      <trkpt lat="49.15847" lon="4.0601">
        <ele>145.8</ele>
        <time>2026-08-24T11:54:41Z</time>
      </trkpt>
      <trkpt lat="49.15842" lon="4.06019">
        <ele>145.8</ele>
        <time>2026-08-24T11:54:42Z</time>
      </trkpt>
      <trkpt lat="49.15838" lon="4.06028">
        <ele>145.6</ele>
        <time>2026-08-24T11:54:43Z</time>
      </trkpt>
      <trkpt lat="49.15833" lon="4.06037">
        <ele>145.8</ele>
        <time>2026-08-24T11:54:44Z</time>
      </trkpt>
      <trkpt lat="49.15829" lon="4.06046">
        <ele>145.8</ele>
        <time>2026-08-24T11:54:45Z</time>
      </trkpt>
      <trkpt lat="49.15825" lon="4.06055">
        <ele>145.8</ele>
        <time>2026-08-24T11:54:46Z</time>
      </trkpt>
      <trkpt lat="49.1582" lon="4.06064">
        <ele>145.6</ele>
        <time>2026-08-24T11:54:47Z</time>
      </trkpt>
      <trkpt lat="49.15816" lon="4.06072">
        <ele>145.6</ele>
        <time>2026-08-24T11:54:48Z</time>
      </trkpt>
      <trkpt lat="49.15812" lon="4.06081">
        <ele>145.4</ele>
        <time>2026-08-24T11:54:49Z</time>
      </trkpt>
      <trkpt lat="49.15808" lon="4.0609">
        <ele>145.4</ele>
        <time>2026-08-24T11:54:50Z</time>
      </trkpt>
      <trkpt lat="49.15804" lon="4.06099">
        <ele>145.4</ele>
        <time>2026-08-24T11:54:51Z</time>
      </trkpt>
      <trkpt lat="49.158" lon="4.06107">
        <ele>145.6</ele>
        <time>2026-08-24T11:54:52Z</time>
      </trkpt>
      <trkpt lat="49.15796" lon="4.06115">
        <ele>145.8</ele>
        <time>2026-08-24T11:54:53Z</time>
      </trkpt>
      <trkpt lat="49.15792" lon="4.06123">
        <ele>146</ele>
        <time>2026-08-24T11:54:54Z</time>
      </trkpt>
      <trkpt lat="49.15789" lon="4.06131">
        <ele>146.2</ele>
        <time>2026-08-24T11:54:55Z</time>
      </trkpt>
      <trkpt lat="49.15785" lon="4.06139">
        <ele>146.4</ele>
        <time>2026-08-24T11:54:56Z</time>
      </trkpt>
      <trkpt lat="49.1578" lon="4.06147">
        <ele>146.6</ele>
        <time>2026-08-24T11:54:57Z</time>
      </trkpt>
      <trkpt lat="49.15776" lon="4.06154">
        <ele>146.8</ele>
        <time>2026-08-24T11:54:58Z</time>
      </trkpt>
      <trkpt lat="49.15772" lon="4.06161">
        <ele>147</ele>
        <time>2026-08-24T11:54:59Z</time>
      </trkpt>
      <trkpt lat="49.15768" lon="4.06168">
        <ele>147.2</ele>
        <time>2026-08-24T11:55:00Z</time>
      </trkpt>
      <trkpt lat="49.15764" lon="4.06174">
        <ele>147.4</ele>
        <time>2026-08-24T11:55:01Z</time>
      </trkpt>
      <trkpt lat="49.1576" lon="4.06181">
        <ele>147.6</ele>
        <time>2026-08-24T11:55:02Z</time>
      </trkpt>
      <trkpt lat="49.15757" lon="4.06187">
        <ele>147.8</ele>
        <time>2026-08-24T11:55:03Z</time>
      </trkpt>
      <trkpt lat="49.15753" lon="4.06193">
        <ele>148.2</ele>
        <time>2026-08-24T11:55:04Z</time>
      </trkpt>
      <trkpt lat="49.15749" lon="4.06198">
        <ele>148.6</ele>
        <time>2026-08-24T11:55:05Z</time>
      </trkpt>
      <trkpt lat="49.15745" lon="4.06203">
        <ele>149</ele>
        <time>2026-08-24T11:55:06Z</time>
      </trkpt>
      <trkpt lat="49.15742" lon="4.06208">
        <ele>149.2</ele>
        <time>2026-08-24T11:55:07Z</time>
      </trkpt>
      <trkpt lat="49.15739" lon="4.06212">
        <ele>149.4</ele>
        <time>2026-08-24T11:55:08Z</time>
      </trkpt>
      <trkpt lat="49.15735" lon="4.06217">
        <ele>149.8</ele>
        <time>2026-08-24T11:55:09Z</time>
      </trkpt>
      <trkpt lat="49.15732" lon="4.06222">
        <ele>150</ele>
        <time>2026-08-24T11:55:10Z</time>
      </trkpt>
      <trkpt lat="49.15729" lon="4.06227">
        <ele>150.2</ele>
        <time>2026-08-24T11:55:11Z</time>
      </trkpt>
      <trkpt lat="49.15726" lon="4.06232">
        <ele>150.6</ele>
        <time>2026-08-24T11:55:12Z</time>
      </trkpt>
      <trkpt lat="49.15723" lon="4.06236">
        <ele>150.8</ele>
        <time>2026-08-24T11:55:13Z</time>
      </trkpt>
      <trkpt lat="49.1572" lon="4.0624">
        <ele>151.2</ele>
        <time>2026-08-24T11:55:14Z</time>
      </trkpt>
      <trkpt lat="49.15716" lon="4.06244">
        <ele>151.4</ele>
        <time>2026-08-24T11:55:15Z</time>
      </trkpt>
      <trkpt lat="49.15713" lon="4.06249">
        <ele>151.6</ele>
        <time>2026-08-24T11:55:16Z</time>
      </trkpt>
      <trkpt lat="49.1571" lon="4.06253">
        <ele>151.6</ele>
        <time>2026-08-24T11:55:17Z</time>
      </trkpt>
      <trkpt lat="49.15706" lon="4.06257">
        <ele>151.8</ele>
        <time>2026-08-24T11:55:18Z</time>
      </trkpt>
      <trkpt lat="49.15702" lon="4.0626">
        <ele>151.8</ele>
        <time>2026-08-24T11:55:19Z</time>
      </trkpt>
      <trkpt lat="49.15698" lon="4.06264">
        <ele>152</ele>
        <time>2026-08-24T11:55:20Z</time>
      </trkpt>
      <trkpt lat="49.15693" lon="4.06267">
        <ele>152.2</ele>
        <time>2026-08-24T11:55:21Z</time>
      </trkpt>
      <trkpt lat="49.15689" lon="4.0627">
        <ele>152.2</ele>
        <time>2026-08-24T11:55:22Z</time>
      </trkpt>
      <trkpt lat="49.15685" lon="4.06273">
        <ele>152.2</ele>
        <time>2026-08-24T11:55:23Z</time>
      </trkpt>
      <trkpt lat="49.15681" lon="4.06276">
        <ele>152.2</ele>
        <time>2026-08-24T11:55:24Z</time>
      </trkpt>
      <trkpt lat="49.15677" lon="4.0628">
        <ele>152.2</ele>
        <time>2026-08-24T11:55:25Z</time>
      </trkpt>
      <trkpt lat="49.15673" lon="4.06283">
        <ele>152.4</ele>
        <time>2026-08-24T11:55:26Z</time>
      </trkpt>
      <trkpt lat="49.1567" lon="4.06288">
        <ele>152.6</ele>
        <time>2026-08-24T11:55:27Z</time>
      </trkpt>
      <trkpt lat="49.15668" lon="4.06294">
        <ele>152.6</ele>
        <time>2026-08-24T11:55:28Z</time>
      </trkpt>
      <trkpt lat="49.15667" lon="4.063">
        <ele>153</ele>
        <time>2026-08-24T11:55:29Z</time>
      </trkpt>
      <trkpt lat="49.15666" lon="4.06307">
        <ele>153</ele>
        <time>2026-08-24T11:55:30Z</time>
      </trkpt>
      <trkpt lat="49.15665" lon="4.06314">
        <ele>153.2</ele>
        <time>2026-08-24T11:55:31Z</time>
      </trkpt>
      <trkpt lat="49.15665" lon="4.06321">
        <ele>153.2</ele>
        <time>2026-08-24T11:55:32Z</time>
      </trkpt>
      <trkpt lat="49.15667" lon="4.06328">
        <ele>153.2</ele>
        <time>2026-08-24T11:55:33Z</time>
      </trkpt>
      <trkpt lat="49.1567" lon="4.06335">
        <ele>153</ele>
        <time>2026-08-24T11:55:34Z</time>
      </trkpt>
      <trkpt lat="49.15674" lon="4.0634">
        <ele>152.6</ele>
        <time>2026-08-24T11:55:35Z</time>
      </trkpt>
      <trkpt lat="49.15678" lon="4.06345">
        <ele>152.2</ele>
        <time>2026-08-24T11:55:36Z</time>
      </trkpt>
      <trkpt lat="49.15683" lon="4.0635">
        <ele>152</ele>
        <time>2026-08-24T11:55:37Z</time>
      </trkpt>
      <trkpt lat="49.15688" lon="4.06355">
        <ele>151.6</ele>
        <time>2026-08-24T11:55:38Z</time>
      </trkpt>
      <trkpt lat="49.15692" lon="4.0636">
        <ele>151.2</ele>
        <time>2026-08-24T11:55:39Z</time>
      </trkpt>
      <trkpt lat="49.15697" lon="4.06364">
        <ele>150.8</ele>
        <time>2026-08-24T11:55:40Z</time>
      </trkpt>
      <trkpt lat="49.15701" lon="4.06369">
        <ele>150.4</ele>
        <time>2026-08-24T11:55:41Z</time>
      </trkpt>
      <trkpt lat="49.15706" lon="4.06374">
        <ele>150.2</ele>
        <time>2026-08-24T11:55:42Z</time>
      </trkpt>
      <trkpt lat="49.15711" lon="4.06378">
        <ele>150</ele>
        <time>2026-08-24T11:55:43Z</time>
      </trkpt>
      <trkpt lat="49.15716" lon="4.06384">
        <ele>149.8</ele>
        <time>2026-08-24T11:55:44Z</time>
      </trkpt>
      <trkpt lat="49.15721" lon="4.06389">
        <ele>149.6</ele>
        <time>2026-08-24T11:55:45Z</time>
      </trkpt>
      <trkpt lat="49.15726" lon="4.06394">
        <ele>149.6</ele>
        <time>2026-08-24T11:55:46Z</time>
      </trkpt>
      <trkpt lat="49.1573" lon="4.064">
        <ele>149.4</ele>
        <time>2026-08-24T11:55:47Z</time>
      </trkpt>
      <trkpt lat="49.15735" lon="4.06406">
        <ele>149.4</ele>
        <time>2026-08-24T11:55:48Z</time>
      </trkpt>
      <trkpt lat="49.15739" lon="4.06412">
        <ele>149.4</ele>
        <time>2026-08-24T11:55:49Z</time>
      </trkpt>
      <trkpt lat="49.15743" lon="4.06418">
        <ele>149.6</ele>
        <time>2026-08-24T11:55:50Z</time>
      </trkpt>
      <trkpt lat="49.15746" lon="4.06424">
        <ele>149.8</ele>
        <time>2026-08-24T11:55:51Z</time>
      </trkpt>
      <trkpt lat="49.15748" lon="4.06431">
        <ele>150</ele>
        <time>2026-08-24T11:55:52Z</time>
      </trkpt>
      <trkpt lat="49.15749" lon="4.06438">
        <ele>150.4</ele>
        <time>2026-08-24T11:55:53Z</time>
      </trkpt>
      <trkpt lat="49.15749" lon="4.06444">
        <ele>151</ele>
        <time>2026-08-24T11:55:54Z</time>
      </trkpt>
      <trkpt lat="49.15749" lon="4.06449">
        <ele>151.4</ele>
        <time>2026-08-24T11:55:55Z</time>
      </trkpt>
      <trkpt lat="49.15748" lon="4.06454">
        <ele>151.8</ele>
        <time>2026-08-24T11:55:56Z</time>
      </trkpt>
      <trkpt lat="49.15748" lon="4.06459">
        <ele>152.4</ele>
        <time>2026-08-24T11:55:57Z</time>
      </trkpt>
      <trkpt lat="49.15748" lon="4.06464">
        <ele>152.8</ele>
        <time>2026-08-24T11:55:58Z</time>
      </trkpt>
      <trkpt lat="49.15748" lon="4.06468">
        <ele>153.2</ele>
        <time>2026-08-24T11:55:59Z</time>
      </trkpt>
      <trkpt lat="49.15748" lon="4.06472">
        <ele>153.4</ele>
        <time>2026-08-24T11:56:00Z</time>
      </trkpt>
      <trkpt lat="49.15748" lon="4.06477">
        <ele>153.8</ele>
        <time>2026-08-24T11:56:01Z</time>
      </trkpt>
      <trkpt lat="49.15748" lon="4.06482">
        <ele>154</ele>
        <time>2026-08-24T11:56:02Z</time>
      </trkpt>
      <trkpt lat="49.15748" lon="4.06486">
        <ele>154.4</ele>
        <time>2026-08-24T11:56:03Z</time>
      </trkpt>
      <trkpt lat="49.15748" lon="4.06491">
        <ele>154.6</ele>
        <time>2026-08-24T11:56:04Z</time>
      </trkpt>
      <trkpt lat="49.15748" lon="4.06495">
        <ele>154.8</ele>
        <time>2026-08-24T11:56:05Z</time>
      </trkpt>
      <trkpt lat="49.15748" lon="4.065">
        <ele>155.2</ele>
        <time>2026-08-24T11:56:06Z</time>
      </trkpt>
      <trkpt lat="49.15748" lon="4.06504">
        <ele>155.4</ele>
        <time>2026-08-24T11:56:07Z</time>
      </trkpt>
      <trkpt lat="49.15748" lon="4.06509">
        <ele>155.6</ele>
        <time>2026-08-24T11:56:08Z</time>
      </trkpt>
      <trkpt lat="49.15748" lon="4.06513">
        <ele>156</ele>
        <time>2026-08-24T11:56:09Z</time>
      </trkpt>
      <trkpt lat="49.15748" lon="4.06518">
        <ele>156.4</ele>
        <time>2026-08-24T11:56:10Z</time>
      </trkpt>
      <trkpt lat="49.15748" lon="4.06522">
        <ele>156.6</ele>
        <time>2026-08-24T11:56:11Z</time>
      </trkpt>
      <trkpt lat="49.15748" lon="4.06527">
        <ele>157</ele>
        <time>2026-08-24T11:56:12Z</time>
      </trkpt>
      <trkpt lat="49.15748" lon="4.06531">
        <ele>157.2</ele>
        <time>2026-08-24T11:56:13Z</time>
      </trkpt>
      <trkpt lat="49.15748" lon="4.06535">
        <ele>157.4</ele>
        <time>2026-08-24T11:56:14Z</time>
      </trkpt>
      <trkpt lat="49.15748" lon="4.0654">
        <ele>157.4</ele>
        <time>2026-08-24T11:56:15Z</time>
      </trkpt>
      <trkpt lat="49.15748" lon="4.06544">
        <ele>157.6</ele>
        <time>2026-08-24T11:56:16Z</time>
      </trkpt>
      <trkpt lat="49.15748" lon="4.06549">
        <ele>157.6</ele>
        <time>2026-08-24T11:56:17Z</time>
      </trkpt>
      <trkpt lat="49.15748" lon="4.06553">
        <ele>157.6</ele>
        <time>2026-08-24T11:56:18Z</time>
      </trkpt>
      <trkpt lat="49.15748" lon="4.06557">
        <ele>157.8</ele>
        <time>2026-08-24T11:56:19Z</time>
      </trkpt>
      <trkpt lat="49.15747" lon="4.06561">
        <ele>158</ele>
        <time>2026-08-24T11:56:20Z</time>
      </trkpt>
      <trkpt lat="49.15747" lon="4.06566">
        <ele>158.2</ele>
        <time>2026-08-24T11:56:21Z</time>
      </trkpt>
      <trkpt lat="49.15747" lon="4.0657">
        <ele>158.6</ele>
        <time>2026-08-24T11:56:22Z</time>
      </trkpt>
      <trkpt lat="49.15747" lon="4.06575">
        <ele>159</ele>
        <time>2026-08-24T11:56:23Z</time>
      </trkpt>
      <trkpt lat="49.15747" lon="4.06579">
        <ele>159.2</ele>
        <time>2026-08-24T11:56:24Z</time>
      </trkpt>
      <trkpt lat="49.15747" lon="4.06584">
        <ele>159.6</ele>
        <time>2026-08-24T11:56:25Z</time>
      </trkpt>
      <trkpt lat="49.15747" lon="4.06588">
        <ele>159.8</ele>
        <time>2026-08-24T11:56:26Z</time>
      </trkpt>
      <trkpt lat="49.15746" lon="4.06592">
        <ele>160.2</ele>
        <time>2026-08-24T11:56:27Z</time>
      </trkpt>
      <trkpt lat="49.15746" lon="4.06597">
        <ele>160.6</ele>
        <time>2026-08-24T11:56:28Z</time>
      </trkpt>
      <trkpt lat="49.15745" lon="4.06601">
        <ele>161</ele>
        <time>2026-08-24T11:56:29Z</time>
      </trkpt>
      <trkpt lat="49.15744" lon="4.06605">
        <ele>161.2</ele>
        <time>2026-08-24T11:56:30Z</time>
      </trkpt>
      <trkpt lat="49.15744" lon="4.06609">
        <ele>161.4</ele>
        <time>2026-08-24T11:56:31Z</time>
      </trkpt>
      <trkpt lat="49.15743" lon="4.06614">
        <ele>161.4</ele>
        <time>2026-08-24T11:56:32Z</time>
      </trkpt>
      <trkpt lat="49.15742" lon="4.06618">
        <ele>161.4</ele>
        <time>2026-08-24T11:56:33Z</time>
      </trkpt>
      <trkpt lat="49.15741" lon="4.06622">
        <ele>161.6</ele>
        <time>2026-08-24T11:56:34Z</time>
      </trkpt>
      <trkpt lat="49.1574" lon="4.06626">
        <ele>161.6</ele>
        <time>2026-08-24T11:56:35Z</time>
      </trkpt>
      <trkpt lat="49.1574" lon="4.0663">
        <ele>161.8</ele>
        <time>2026-08-24T11:56:36Z</time>
      </trkpt>
      <trkpt lat="49.15739" lon="4.06634">
        <ele>162</ele>
        <time>2026-08-24T11:56:37Z</time>
      </trkpt>
      <trkpt lat="49.15738" lon="4.06638">
        <ele>162.4</ele>
        <time>2026-08-24T11:56:38Z</time>
      </trkpt>
      <trkpt lat="49.15738" lon="4.06642">
        <ele>162.6</ele>
        <time>2026-08-24T11:56:39Z</time>
      </trkpt>
      <trkpt lat="49.15737" lon="4.06646">
        <ele>162.8</ele>
        <time>2026-08-24T11:56:40Z</time>
      </trkpt>
      <trkpt lat="49.15736" lon="4.0665">
        <ele>163</ele>
        <time>2026-08-24T11:56:41Z</time>
      </trkpt>
      <trkpt lat="49.15735" lon="4.06655">
        <ele>163.2</ele>
        <time>2026-08-24T11:56:42Z</time>
      </trkpt>
      <trkpt lat="49.15735" lon="4.06659">
        <ele>163.2</ele>
        <time>2026-08-24T11:56:43Z</time>
      </trkpt>
      <trkpt lat="49.15734" lon="4.06664">
        <ele>163.4</ele>
        <time>2026-08-24T11:56:44Z</time>
      </trkpt>
      <trkpt lat="49.15733" lon="4.06668">
        <ele>163.6</ele>
        <time>2026-08-24T11:56:45Z</time>
      </trkpt>
      <trkpt lat="49.15733" lon="4.06673">
        <ele>163.8</ele>
        <time>2026-08-24T11:56:46Z</time>
      </trkpt>
      <trkpt lat="49.15732" lon="4.06678">
        <ele>164</ele>
        <time>2026-08-24T11:56:47Z</time>
      </trkpt>
      <trkpt lat="49.15731" lon="4.06682">
        <ele>164.2</ele>
        <time>2026-08-24T11:56:48Z</time>
      </trkpt>
      <trkpt lat="49.15731" lon="4.06687">
        <ele>164.4</ele>
        <time>2026-08-24T11:56:49Z</time>
      </trkpt>
      <trkpt lat="49.1573" lon="4.06692">
        <ele>164.4</ele>
        <time>2026-08-24T11:56:50Z</time>
      </trkpt>
      <trkpt lat="49.15729" lon="4.06696">
        <ele>164.6</ele>
        <time>2026-08-24T11:56:51Z</time>
      </trkpt>
      <trkpt lat="49.15728" lon="4.06701">
        <ele>164.6</ele>
        <time>2026-08-24T11:56:52Z</time>
      </trkpt>
      <trkpt lat="49.15727" lon="4.06707">
        <ele>164.4</ele>
        <time>2026-08-24T11:56:53Z</time>
      </trkpt>
      <trkpt lat="49.15727" lon="4.06712">
        <ele>164.4</ele>
        <time>2026-08-24T11:56:54Z</time>
      </trkpt>
      <trkpt lat="49.15726" lon="4.06717">
        <ele>164.4</ele>
        <time>2026-08-24T11:56:55Z</time>
      </trkpt>
      <trkpt lat="49.15725" lon="4.06723">
        <ele>164.2</ele>
        <time>2026-08-24T11:56:56Z</time>
      </trkpt>
      <trkpt lat="49.15724" lon="4.06728">
        <ele>164.2</ele>
        <time>2026-08-24T11:56:57Z</time>
      </trkpt>
      <trkpt lat="49.15723" lon="4.06734">
        <ele>164</ele>
        <time>2026-08-24T11:56:58Z</time>
      </trkpt>
      <trkpt lat="49.15723" lon="4.0674">
        <ele>163.8</ele>
        <time>2026-08-24T11:56:59Z</time>
      </trkpt>
      <trkpt lat="49.15722" lon="4.06746">
        <ele>163.6</ele>
        <time>2026-08-24T11:57:00Z</time>
      </trkpt>
      <trkpt lat="49.15721" lon="4.06752">
        <ele>163.4</ele>
        <time>2026-08-24T11:57:01Z</time>
      </trkpt>
      <trkpt lat="49.1572" lon="4.06759">
        <ele>163.2</ele>
        <time>2026-08-24T11:57:02Z</time>
      </trkpt>
      <trkpt lat="49.15719" lon="4.06766">
        <ele>163.2</ele>
        <time>2026-08-24T11:57:03Z</time>
      </trkpt>
      <trkpt lat="49.15718" lon="4.06773">
        <ele>163</ele>
        <time>2026-08-24T11:57:04Z</time>
      </trkpt>
      <trkpt lat="49.15716" lon="4.0678">
        <ele>162.8</ele>
        <time>2026-08-24T11:57:05Z</time>
      </trkpt>
      <trkpt lat="49.15715" lon="4.06788">
        <ele>162.4</ele>
        <time>2026-08-24T11:57:06Z</time>
      </trkpt>
      <trkpt lat="49.15714" lon="4.06796">
        <ele>162.2</ele>
        <time>2026-08-24T11:57:07Z</time>
      </trkpt>
      <trkpt lat="49.15713" lon="4.06805">
        <ele>161.8</ele>
        <time>2026-08-24T11:57:08Z</time>
      </trkpt>
      <trkpt lat="49.15711" lon="4.06814">
        <ele>161.4</ele>
        <time>2026-08-24T11:57:09Z</time>
      </trkpt>
      <trkpt lat="49.1571" lon="4.06823">
        <ele>160.8</ele>
        <time>2026-08-24T11:57:10Z</time>
      </trkpt>
      <trkpt lat="49.15708" lon="4.06832">
        <ele>160.4</ele>
        <time>2026-08-24T11:57:11Z</time>
      </trkpt>
      <trkpt lat="49.15707" lon="4.06842">
        <ele>159.8</ele>
        <time>2026-08-24T11:57:12Z</time>
      </trkpt>
      <trkpt lat="49.15705" lon="4.06852">
        <ele>159.2</ele>
        <time>2026-08-24T11:57:13Z</time>
      </trkpt>
      <trkpt lat="49.15703" lon="4.06863">
        <ele>158.6</ele>
        <time>2026-08-24T11:57:14Z</time>
      </trkpt>
      <trkpt lat="49.15702" lon="4.06874">
        <ele>158</ele>
        <time>2026-08-24T11:57:15Z</time>
      </trkpt>
      <trkpt lat="49.157" lon="4.06886">
        <ele>157.4</ele>
        <time>2026-08-24T11:57:16Z</time>
      </trkpt>
      <trkpt lat="49.15698" lon="4.06897">
        <ele>156.8</ele>
        <time>2026-08-24T11:57:17Z</time>
      </trkpt>
      <trkpt lat="49.15696" lon="4.06909">
        <ele>156.4</ele>
        <time>2026-08-24T11:57:18Z</time>
      </trkpt>
      <trkpt lat="49.15694" lon="4.06921">
        <ele>155.8</ele>
        <time>2026-08-24T11:57:19Z</time>
      </trkpt>
      <trkpt lat="49.15692" lon="4.06933">
        <ele>155.4</ele>
        <time>2026-08-24T11:57:20Z</time>
      </trkpt>
      <trkpt lat="49.1569" lon="4.06945">
        <ele>155.2</ele>
        <time>2026-08-24T11:57:21Z</time>
      </trkpt>
      <trkpt lat="49.15688" lon="4.06958">
        <ele>154.8</ele>
        <time>2026-08-24T11:57:22Z</time>
      </trkpt>
      <trkpt lat="49.15686" lon="4.06971">
        <ele>154.6</ele>
        <time>2026-08-24T11:57:23Z</time>
      </trkpt>
      <trkpt lat="49.15684" lon="4.06984">
        <ele>154.4</ele>
        <time>2026-08-24T11:57:24Z</time>
      </trkpt>
      <trkpt lat="49.15682" lon="4.06997">
        <ele>154.2</ele>
        <time>2026-08-24T11:57:25Z</time>
      </trkpt>
      <trkpt lat="49.1568" lon="4.07011">
        <ele>153.8</ele>
        <time>2026-08-24T11:57:26Z</time>
      </trkpt>
      <trkpt lat="49.15678" lon="4.07025">
        <ele>153.4</ele>
        <time>2026-08-24T11:57:27Z</time>
      </trkpt>
      <trkpt lat="49.15676" lon="4.07039">
        <ele>152.8</ele>
        <time>2026-08-24T11:57:28Z</time>
      </trkpt>
      <trkpt lat="49.15674" lon="4.07052">
        <ele>152.2</ele>
        <time>2026-08-24T11:57:29Z</time>
      </trkpt>
      <trkpt lat="49.15672" lon="4.07066">
        <ele>151.4</ele>
        <time>2026-08-24T11:57:30Z</time>
      </trkpt>
      <trkpt lat="49.15669" lon="4.0708">
        <ele>150.6</ele>
        <time>2026-08-24T11:57:31Z</time>
      </trkpt>
      <trkpt lat="49.15667" lon="4.07094">
        <ele>150</ele>
        <time>2026-08-24T11:57:32Z</time>
      </trkpt>
      <trkpt lat="49.15665" lon="4.07108">
        <ele>149.2</ele>
        <time>2026-08-24T11:57:33Z</time>
      </trkpt>
      <trkpt lat="49.15663" lon="4.07121">
        <ele>148.6</ele>
        <time>2026-08-24T11:57:34Z</time>
      </trkpt>
      <trkpt lat="49.15661" lon="4.07134">
        <ele>148.2</ele>
        <time>2026-08-24T11:57:35Z</time>
      </trkpt>
      <trkpt lat="49.15659" lon="4.07148">
        <ele>147.8</ele>
        <time>2026-08-24T11:57:36Z</time>
      </trkpt>
      <trkpt lat="49.15657" lon="4.07162">
        <ele>147.4</ele>
        <time>2026-08-24T11:57:37Z</time>
      </trkpt>
      <trkpt lat="49.15655" lon="4.07176">
        <ele>147</ele>
        <time>2026-08-24T11:57:38Z</time>
      </trkpt>
      <trkpt lat="49.15653" lon="4.0719">
        <ele>146.4</ele>
        <time>2026-08-24T11:57:39Z</time>
      </trkpt>
      <trkpt lat="49.1565" lon="4.07204">
        <ele>146</ele>
        <time>2026-08-24T11:57:40Z</time>
      </trkpt>
      <trkpt lat="49.15648" lon="4.07219">
        <ele>145.2</ele>
        <time>2026-08-24T11:57:41Z</time>
      </trkpt>
      <trkpt lat="49.15646" lon="4.07233">
        <ele>144.8</ele>
        <time>2026-08-24T11:57:42Z</time>
      </trkpt>
      <trkpt lat="49.15644" lon="4.07247">
        <ele>144.2</ele>
        <time>2026-08-24T11:57:43Z</time>
      </trkpt>
      <trkpt lat="49.15642" lon="4.07261">
        <ele>143.8</ele>
        <time>2026-08-24T11:57:44Z</time>
      </trkpt>
      <trkpt lat="49.15639" lon="4.07275">
        <ele>143.2</ele>
        <time>2026-08-24T11:57:45Z</time>
      </trkpt>
      <trkpt lat="49.15637" lon="4.07289">
        <ele>142.8</ele>
        <time>2026-08-24T11:57:46Z</time>
      </trkpt>
      <trkpt lat="49.15635" lon="4.07303">
        <ele>142.6</ele>
        <time>2026-08-24T11:57:47Z</time>
      </trkpt>
      <trkpt lat="49.15633" lon="4.07316">
        <ele>142.4</ele>
        <time>2026-08-24T11:57:48Z</time>
      </trkpt>
      <trkpt lat="49.15631" lon="4.07329">
        <ele>142.4</ele>
        <time>2026-08-24T11:57:49Z</time>
      </trkpt>
      <trkpt lat="49.15629" lon="4.07342">
        <ele>142.2</ele>
        <time>2026-08-24T11:57:50Z</time>
      </trkpt>
      <trkpt lat="49.15627" lon="4.07355">
        <ele>142.2</ele>
        <time>2026-08-24T11:57:51Z</time>
      </trkpt>
      <trkpt lat="49.15625" lon="4.07367">
        <ele>142.2</ele>
        <time>2026-08-24T11:57:52Z</time>
      </trkpt>
      <trkpt lat="49.15623" lon="4.0738">
        <ele>142.2</ele>
        <time>2026-08-24T11:57:53Z</time>
      </trkpt>
      <trkpt lat="49.15621" lon="4.07392">
        <ele>142.4</ele>
        <time>2026-08-24T11:57:54Z</time>
      </trkpt>
      <trkpt lat="49.15619" lon="4.07404">
        <ele>142.6</ele>
        <time>2026-08-24T11:57:55Z</time>
      </trkpt>
      <trkpt lat="49.15618" lon="4.07415">
        <ele>142.8</ele>
        <time>2026-08-24T11:57:56Z</time>
      </trkpt>
      <trkpt lat="49.15616" lon="4.07426">
        <ele>142.8</ele>
        <time>2026-08-24T11:57:57Z</time>
      </trkpt>
      <trkpt lat="49.15614" lon="4.07436">
        <ele>143</ele>
        <time>2026-08-24T11:57:58Z</time>
      </trkpt>
      <trkpt lat="49.15613" lon="4.07446">
        <ele>142.8</ele>
        <time>2026-08-24T11:57:59Z</time>
      </trkpt>
      <trkpt lat="49.15611" lon="4.07456">
        <ele>143</ele>
        <time>2026-08-24T11:58:00Z</time>
      </trkpt>
      <trkpt lat="49.1561" lon="4.07465">
        <ele>143</ele>
        <time>2026-08-24T11:58:01Z</time>
      </trkpt>
      <trkpt lat="49.15608" lon="4.07474">
        <ele>143.2</ele>
        <time>2026-08-24T11:58:02Z</time>
      </trkpt>
      <trkpt lat="49.15606" lon="4.07483">
        <ele>143.2</ele>
        <time>2026-08-24T11:58:03Z</time>
      </trkpt>
      <trkpt lat="49.15604" lon="4.07491">
        <ele>143.6</ele>
        <time>2026-08-24T11:58:04Z</time>
      </trkpt>
      <trkpt lat="49.15602" lon="4.075">
        <ele>143.8</ele>
        <time>2026-08-24T11:58:05Z</time>
      </trkpt>
      <trkpt lat="49.15601" lon="4.07508">
        <ele>144</ele>
        <time>2026-08-24T11:58:06Z</time>
      </trkpt>
      <trkpt lat="49.156" lon="4.07516">
        <ele>144.2</ele>
        <time>2026-08-24T11:58:07Z</time>
      </trkpt>
      <trkpt lat="49.15599" lon="4.07525">
        <ele>144.6</ele>
        <time>2026-08-24T11:58:08Z</time>
      </trkpt>
      <trkpt lat="49.15598" lon="4.07533">
        <ele>144.8</ele>
        <time>2026-08-24T11:58:09Z</time>
      </trkpt>
      <trkpt lat="49.15597" lon="4.07542">
        <ele>145</ele>
        <time>2026-08-24T11:58:10Z</time>
      </trkpt>
      <trkpt lat="49.15596" lon="4.0755">
        <ele>145.2</ele>
        <time>2026-08-24T11:58:11Z</time>
      </trkpt>
      <trkpt lat="49.15595" lon="4.07559">
        <ele>145.6</ele>
        <time>2026-08-24T11:58:12Z</time>
      </trkpt>
      <trkpt lat="49.15594" lon="4.07567">
        <ele>145.6</ele>
        <time>2026-08-24T11:58:13Z</time>
      </trkpt>
      <trkpt lat="49.15592" lon="4.07575">
        <ele>145.6</ele>
        <time>2026-08-24T11:58:14Z</time>
      </trkpt>
      <trkpt lat="49.15591" lon="4.07583">
        <ele>145.6</ele>
        <time>2026-08-24T11:58:15Z</time>
      </trkpt>
      <trkpt lat="49.15589" lon="4.07592">
        <ele>145.6</ele>
        <time>2026-08-24T11:58:16Z</time>
      </trkpt>
      <trkpt lat="49.15587" lon="4.07601">
        <ele>145.6</ele>
        <time>2026-08-24T11:58:17Z</time>
      </trkpt>
      <trkpt lat="49.15586" lon="4.07609">
        <ele>145.6</ele>
        <time>2026-08-24T11:58:18Z</time>
      </trkpt>
      <trkpt lat="49.15584" lon="4.07619">
        <ele>145.6</ele>
        <time>2026-08-24T11:58:19Z</time>
      </trkpt>
      <trkpt lat="49.15583" lon="4.07628">
        <ele>145.6</ele>
        <time>2026-08-24T11:58:20Z</time>
      </trkpt>
      <trkpt lat="49.15581" lon="4.07637">
        <ele>145.4</ele>
        <time>2026-08-24T11:58:21Z</time>
      </trkpt>
      <trkpt lat="49.15579" lon="4.07646">
        <ele>145.4</ele>
        <time>2026-08-24T11:58:22Z</time>
      </trkpt>
      <trkpt lat="49.15577" lon="4.07655">
        <ele>145.6</ele>
        <time>2026-08-24T11:58:23Z</time>
      </trkpt>
      <trkpt lat="49.15575" lon="4.07663">
        <ele>145.6</ele>
        <time>2026-08-24T11:58:24Z</time>
      </trkpt>
      <trkpt lat="49.15574" lon="4.07672">
        <ele>145.6</ele>
        <time>2026-08-24T11:58:25Z</time>
      </trkpt>
      <trkpt lat="49.15572" lon="4.0768">
        <ele>145.6</ele>
        <time>2026-08-24T11:58:26Z</time>
      </trkpt>
      <trkpt lat="49.1557" lon="4.07688">
        <ele>145.4</ele>
        <time>2026-08-24T11:58:27Z</time>
      </trkpt>
      <trkpt lat="49.15569" lon="4.07695">
        <ele>145.4</ele>
        <time>2026-08-24T11:58:28Z</time>
      </trkpt>
      <trkpt lat="49.15567" lon="4.07703">
        <ele>145.4</ele>
        <time>2026-08-24T11:58:29Z</time>
      </trkpt>
      <trkpt lat="49.15566" lon="4.07711">
        <ele>145.4</ele>
        <time>2026-08-24T11:58:30Z</time>
      </trkpt>
      <trkpt lat="49.15565" lon="4.07718">
        <ele>145.4</ele>
        <time>2026-08-24T11:58:31Z</time>
      </trkpt>
      <trkpt lat="49.15564" lon="4.07727">
        <ele>145.4</ele>
        <time>2026-08-24T11:58:32Z</time>
      </trkpt>
      <trkpt lat="49.15562" lon="4.07735">
        <ele>145.6</ele>
        <time>2026-08-24T11:58:33Z</time>
      </trkpt>
      <trkpt lat="49.15561" lon="4.07743">
        <ele>145.6</ele>
        <time>2026-08-24T11:58:34Z</time>
      </trkpt>
      <trkpt lat="49.15559" lon="4.07751">
        <ele>145.6</ele>
        <time>2026-08-24T11:58:35Z</time>
      </trkpt>
      <trkpt lat="49.15556" lon="4.07761">
        <ele>145.6</ele>
        <time>2026-08-24T11:58:36Z</time>
      </trkpt>
      <trkpt lat="49.15554" lon="4.0777">
        <ele>145.4</ele>
        <time>2026-08-24T11:58:37Z</time>
      </trkpt>
      <trkpt lat="49.15552" lon="4.07779">
        <ele>145.2</ele>
        <time>2026-08-24T11:58:38Z</time>
      </trkpt>
      <trkpt lat="49.1555" lon="4.07788">
        <ele>145</ele>
        <time>2026-08-24T11:58:39Z</time>
      </trkpt>
      <trkpt lat="49.15548" lon="4.07798">
        <ele>144.8</ele>
        <time>2026-08-24T11:58:40Z</time>
      </trkpt>
      <trkpt lat="49.15546" lon="4.07807">
        <ele>144.8</ele>
        <time>2026-08-24T11:58:41Z</time>
      </trkpt>
      <trkpt lat="49.15544" lon="4.07817">
        <ele>144.8</ele>
        <time>2026-08-24T11:58:42Z</time>
      </trkpt>
      <trkpt lat="49.15543" lon="4.07826">
        <ele>144.6</ele>
        <time>2026-08-24T11:58:43Z</time>
      </trkpt>
      <trkpt lat="49.15541" lon="4.07836">
        <ele>144.6</ele>
        <time>2026-08-24T11:58:44Z</time>
      </trkpt>
      <trkpt lat="49.15539" lon="4.07845">
        <ele>144.4</ele>
        <time>2026-08-24T11:58:45Z</time>
      </trkpt>
      <trkpt lat="49.15538" lon="4.07854">
        <ele>144.4</ele>
        <time>2026-08-24T11:58:46Z</time>
      </trkpt>
      <trkpt lat="49.15536" lon="4.07862">
        <ele>144.2</ele>
        <time>2026-08-24T11:58:47Z</time>
      </trkpt>
      <trkpt lat="49.15534" lon="4.07871">
        <ele>144.2</ele>
        <time>2026-08-24T11:58:48Z</time>
      </trkpt>
      <trkpt lat="49.15532" lon="4.07879">
        <ele>144.4</ele>
        <time>2026-08-24T11:58:49Z</time>
      </trkpt>
      <trkpt lat="49.1553" lon="4.07887">
        <ele>144.4</ele>
        <time>2026-08-24T11:58:50Z</time>
      </trkpt>
      <trkpt lat="49.15529" lon="4.07896">
        <ele>144.4</ele>
        <time>2026-08-24T11:58:51Z</time>
      </trkpt>
      <trkpt lat="49.15527" lon="4.07904">
        <ele>144.4</ele>
        <time>2026-08-24T11:58:52Z</time>
      </trkpt>
      <trkpt lat="49.15526" lon="4.07912">
        <ele>144.4</ele>
        <time>2026-08-24T11:58:53Z</time>
      </trkpt>
      <trkpt lat="49.15524" lon="4.07921">
        <ele>144.2</ele>
        <time>2026-08-24T11:58:54Z</time>
      </trkpt>
      <trkpt lat="49.15523" lon="4.0793">
        <ele>144.2</ele>
        <time>2026-08-24T11:58:55Z</time>
      </trkpt>
      <trkpt lat="49.15521" lon="4.07939">
        <ele>144</ele>
        <time>2026-08-24T11:58:56Z</time>
      </trkpt>
      <trkpt lat="49.1552" lon="4.07948">
        <ele>143.8</ele>
        <time>2026-08-24T11:58:57Z</time>
      </trkpt>
      <trkpt lat="49.15518" lon="4.07957">
        <ele>143.6</ele>
        <time>2026-08-24T11:58:58Z</time>
      </trkpt>
      <trkpt lat="49.15517" lon="4.07966">
        <ele>143.6</ele>
        <time>2026-08-24T11:58:59Z</time>
      </trkpt>
      <trkpt lat="49.15516" lon="4.07974">
        <ele>143.6</ele>
        <time>2026-08-24T11:59:00Z</time>
      </trkpt>
      <trkpt lat="49.15515" lon="4.07981">
        <ele>143.4</ele>
        <time>2026-08-24T11:59:01Z</time>
      </trkpt>
      <trkpt lat="49.15513" lon="4.07988">
        <ele>143.4</ele>
        <time>2026-08-24T11:59:02Z</time>
      </trkpt>
      <trkpt lat="49.15512" lon="4.07995">
        <ele>143.6</ele>
        <time>2026-08-24T11:59:03Z</time>
      </trkpt>
      <trkpt lat="49.15509" lon="4.08">
        <ele>143.6</ele>
        <time>2026-08-24T11:59:04Z</time>
      </trkpt>
      <trkpt lat="49.15505" lon="4.08002">
        <ele>143.8</ele>
        <time>2026-08-24T11:59:05Z</time>
      </trkpt>
      <trkpt lat="49.15501" lon="4.08005">
        <ele>144</ele>
        <time>2026-08-24T11:59:06Z</time>
      </trkpt>
      <trkpt lat="49.15496" lon="4.08007">
        <ele>144</ele>
        <time>2026-08-24T11:59:07Z</time>
      </trkpt>
      <trkpt lat="49.15492" lon="4.08007">
        <ele>144.2</ele>
        <time>2026-08-24T11:59:08Z</time>
      </trkpt>
      <trkpt lat="49.15487" lon="4.08006">
        <ele>144.4</ele>
        <time>2026-08-24T11:59:09Z</time>
      </trkpt>
      <trkpt lat="49.15483" lon="4.08006">
        <ele>144.6</ele>
        <time>2026-08-24T11:59:10Z</time>
      </trkpt>
      <trkpt lat="49.15479" lon="4.08004">
        <ele>145</ele>
        <time>2026-08-24T11:59:11Z</time>
      </trkpt>
      <trkpt lat="49.15475" lon="4.08002">
        <ele>145.2</ele>
        <time>2026-08-24T11:59:12Z</time>
      </trkpt>
      <trkpt lat="49.1547" lon="4.08">
        <ele>145.4</ele>
        <time>2026-08-24T11:59:13Z</time>
      </trkpt>
      <trkpt lat="49.15466" lon="4.07999">
        <ele>145.6</ele>
        <time>2026-08-24T11:59:14Z</time>
      </trkpt>
      <trkpt lat="49.15462" lon="4.07997">
        <ele>145.8</ele>
        <time>2026-08-24T11:59:15Z</time>
      </trkpt>
      <trkpt lat="49.15458" lon="4.07996">
        <ele>146</ele>
        <time>2026-08-24T11:59:16Z</time>
      </trkpt>
      <trkpt lat="49.15454" lon="4.07995">
        <ele>146</ele>
        <time>2026-08-24T11:59:17Z</time>
      </trkpt>
      <trkpt lat="49.1545" lon="4.07993">
        <ele>146</ele>
        <time>2026-08-24T11:59:18Z</time>
      </trkpt>
      <trkpt lat="49.15446" lon="4.07991">
        <ele>146</ele>
        <time>2026-08-24T11:59:19Z</time>
      </trkpt>
      <trkpt lat="49.15442" lon="4.0799">
        <ele>146</ele>
        <time>2026-08-24T11:59:20Z</time>
      </trkpt>
      <trkpt lat="49.15438" lon="4.07988">
        <ele>146.2</ele>
        <time>2026-08-24T11:59:21Z</time>
      </trkpt>
      <trkpt lat="49.15434" lon="4.07986">
        <ele>146.4</ele>
        <time>2026-08-24T11:59:22Z</time>
      </trkpt>
      <trkpt lat="49.1543" lon="4.07985">
        <ele>146.6</ele>
        <time>2026-08-24T11:59:23Z</time>
      </trkpt>
      <trkpt lat="49.15426" lon="4.07985">
        <ele>146.8</ele>
        <time>2026-08-24T11:59:24Z</time>
      </trkpt>
      <trkpt lat="49.15422" lon="4.07986">
        <ele>147</ele>
        <time>2026-08-24T11:59:25Z</time>
      </trkpt>
      <trkpt lat="49.15419" lon="4.07986">
        <ele>147.2</ele>
        <time>2026-08-24T11:59:26Z</time>
      </trkpt>
      <trkpt lat="49.15415" lon="4.07986">
        <ele>147.6</ele>
        <time>2026-08-24T11:59:27Z</time>
      </trkpt>
      <trkpt lat="49.15412" lon="4.07987">
        <ele>148</ele>
        <time>2026-08-24T11:59:28Z</time>
      </trkpt>
      <trkpt lat="49.15409" lon="4.07987">
        <ele>148.2</ele>
        <time>2026-08-24T11:59:29Z</time>
      </trkpt>
      <trkpt lat="49.15406" lon="4.07989">
        <ele>148.6</ele>
        <time>2026-08-24T11:59:30Z</time>
      </trkpt>
      <trkpt lat="49.15403" lon="4.0799">
        <ele>148.8</ele>
        <time>2026-08-24T11:59:31Z</time>
      </trkpt>
      <trkpt lat="49.154" lon="4.07992">
        <ele>149.2</ele>
        <time>2026-08-24T11:59:32Z</time>
      </trkpt>
      <trkpt lat="49.15397" lon="4.07994">
        <ele>149.6</ele>
        <time>2026-08-24T11:59:33Z</time>
      </trkpt>
      <trkpt lat="49.15394" lon="4.07997">
        <ele>149.8</ele>
        <time>2026-08-24T11:59:34Z</time>
      </trkpt>
      <trkpt lat="49.15392" lon="4.07999">
        <ele>150.2</ele>
        <time>2026-08-24T11:59:35Z</time>
      </trkpt>
      <trkpt lat="49.15389" lon="4.08002">
        <ele>150.6</ele>
        <time>2026-08-24T11:59:36Z</time>
      </trkpt>
      <trkpt lat="49.15386" lon="4.08004">
        <ele>150.8</ele>
        <time>2026-08-24T11:59:37Z</time>
      </trkpt>
      <trkpt lat="49.15383" lon="4.08006">
        <ele>151</ele>
        <time>2026-08-24T11:59:38Z</time>
      </trkpt>
      <trkpt lat="49.1538" lon="4.08008">
        <ele>151.4</ele>
        <time>2026-08-24T11:59:39Z</time>
      </trkpt>
      <trkpt lat="49.15377" lon="4.0801">
        <ele>151.6</ele>
        <time>2026-08-24T11:59:40Z</time>
      </trkpt>
      <trkpt lat="49.15375" lon="4.08011">
        <ele>151.8</ele>
        <time>2026-08-24T11:59:41Z</time>
      </trkpt>
      <trkpt lat="49.15372" lon="4.08012">
        <ele>152.2</ele>
        <time>2026-08-24T11:59:42Z</time>
      </trkpt>
      <trkpt lat="49.15369" lon="4.08013">
        <ele>152.4</ele>
        <time>2026-08-24T11:59:43Z</time>
      </trkpt>
      <trkpt lat="49.15367" lon="4.08014">
        <ele>152.8</ele>
        <time>2026-08-24T11:59:44Z</time>
      </trkpt>
      <trkpt lat="49.15364" lon="4.08015">
        <ele>153</ele>
        <time>2026-08-24T11:59:45Z</time>
      </trkpt>
      <trkpt lat="49.15362" lon="4.08016">
        <ele>153.2</ele>
        <time>2026-08-24T11:59:46Z</time>
      </trkpt>
      <trkpt lat="49.1536" lon="4.08017">
        <ele>153.6</ele>
        <time>2026-08-24T11:59:47Z</time>
      </trkpt>
      <trkpt lat="49.15358" lon="4.08018">
        <ele>153.8</ele>
        <time>2026-08-24T11:59:48Z</time>
      </trkpt>
      <trkpt lat="49.15355" lon="4.08018">
        <ele>154</ele>
        <time>2026-08-24T11:59:49Z</time>
      </trkpt>
      <trkpt lat="49.15353" lon="4.08019">
        <ele>154.2</ele>
        <time>2026-08-24T11:59:50Z</time>
      </trkpt>
      <trkpt lat="49.15351" lon="4.0802">
        <ele>154.4</ele>
        <time>2026-08-24T11:59:51Z</time>
      </trkpt>
      <trkpt lat="49.15349" lon="4.08021">
        <ele>154.6</ele>
        <time>2026-08-24T11:59:52Z</time>
      </trkpt>
      <trkpt lat="49.15347" lon="4.08022">
        <ele>155</ele>
        <time>2026-08-24T11:59:53Z</time>
      </trkpt>
      <trkpt lat="49.15344" lon="4.08022">
        <ele>155.2</ele>
        <time>2026-08-24T11:59:54Z</time>
      </trkpt>
      <trkpt lat="49.15342" lon="4.08023">
        <ele>155.4</ele>
        <time>2026-08-24T11:59:55Z</time>
      </trkpt>
      <trkpt lat="49.1534" lon="4.08024">
        <ele>155.8</ele>
        <time>2026-08-24T11:59:56Z</time>
      </trkpt>
      <trkpt lat="49.15338" lon="4.08025">
        <ele>156</ele>
        <time>2026-08-24T11:59:57Z</time>
      </trkpt>
      <trkpt lat="49.15335" lon="4.08026">
        <ele>156.2</ele>
        <time>2026-08-24T11:59:58Z</time>
      </trkpt>
      <trkpt lat="49.15333" lon="4.08027">
        <ele>156.4</ele>
        <time>2026-08-24T11:59:59Z</time>
      </trkpt>
      <trkpt lat="49.15331" lon="4.08027">
        <ele>156.6</ele>
        <time>2026-08-24T12:00:00Z</time>
      </trkpt>
      <trkpt lat="49.15328" lon="4.08029">
        <ele>156.8</ele>
        <time>2026-08-24T12:00:01Z</time>
      </trkpt>
      <trkpt lat="49.15326" lon="4.08029">
        <ele>157.2</ele>
        <time>2026-08-24T12:00:02Z</time>
      </trkpt>
      <trkpt lat="49.15324" lon="4.0803">
        <ele>157.4</ele>
        <time>2026-08-24T12:00:03Z</time>
      </trkpt>
      <trkpt lat="49.15322" lon="4.0803">
        <ele>157.8</ele>
        <time>2026-08-24T12:00:04Z</time>
      </trkpt>
      <trkpt lat="49.15319" lon="4.08031">
        <ele>158</ele>
        <time>2026-08-24T12:00:05Z</time>
      </trkpt>
      <trkpt lat="49.15317" lon="4.08032">
        <ele>158.2</ele>
        <time>2026-08-24T12:00:06Z</time>
      </trkpt>
      <trkpt lat="49.15315" lon="4.08033">
        <ele>158.4</ele>
        <time>2026-08-24T12:00:07Z</time>
      </trkpt>
      <trkpt lat="49.15313" lon="4.08033">
        <ele>158.6</ele>
        <time>2026-08-24T12:00:08Z</time>
      </trkpt>
      <trkpt lat="49.1531" lon="4.08034">
        <ele>158.8</ele>
        <time>2026-08-24T12:00:09Z</time>
      </trkpt>
      <trkpt lat="49.15308" lon="4.08034">
        <ele>159</ele>
        <time>2026-08-24T12:00:10Z</time>
      </trkpt>
      <trkpt lat="49.15305" lon="4.08034">
        <ele>159.2</ele>
        <time>2026-08-24T12:00:11Z</time>
      </trkpt>
      <trkpt lat="49.15303" lon="4.08034">
        <ele>159.6</ele>
        <time>2026-08-24T12:00:12Z</time>
      </trkpt>
      <trkpt lat="49.15301" lon="4.08034">
        <ele>159.8</ele>
        <time>2026-08-24T12:00:13Z</time>
      </trkpt>
      <trkpt lat="49.15298" lon="4.08034">
        <ele>159.8</ele>
        <time>2026-08-24T12:00:14Z</time>
      </trkpt>
      <trkpt lat="49.15296" lon="4.08034">
        <ele>160</ele>
        <time>2026-08-24T12:00:15Z</time>
      </trkpt>
      <trkpt lat="49.15294" lon="4.08034">
        <ele>160.2</ele>
        <time>2026-08-24T12:00:16Z</time>
      </trkpt>
      <trkpt lat="49.15292" lon="4.08034">
        <ele>160.4</ele>
        <time>2026-08-24T12:00:17Z</time>
      </trkpt>
      <trkpt lat="49.15289" lon="4.08035">
        <ele>160.6</ele>
        <time>2026-08-24T12:00:18Z</time>
      </trkpt>
      <trkpt lat="49.15287" lon="4.08036">
        <ele>160.8</ele>
        <time>2026-08-24T12:00:19Z</time>
      </trkpt>
      <trkpt lat="49.15285" lon="4.08036">
        <ele>161</ele>
        <time>2026-08-24T12:00:20Z</time>
      </trkpt>
      <trkpt lat="49.15282" lon="4.08036">
        <ele>161.4</ele>
        <time>2026-08-24T12:00:21Z</time>
      </trkpt>
      <trkpt lat="49.1528" lon="4.08037">
        <ele>161.6</ele>
        <time>2026-08-24T12:00:22Z</time>
      </trkpt>
      <trkpt lat="49.15278" lon="4.08037">
        <ele>162</ele>
        <time>2026-08-24T12:00:23Z</time>
      </trkpt>
      <trkpt lat="49.15275" lon="4.08038">
        <ele>162.2</ele>
        <time>2026-08-24T12:00:24Z</time>
      </trkpt>
      <trkpt lat="49.15273" lon="4.0804">
        <ele>162.4</ele>
        <time>2026-08-24T12:00:25Z</time>
      </trkpt>
      <trkpt lat="49.15272" lon="4.08041">
        <ele>162.4</ele>
        <time>2026-08-24T12:00:26Z</time>
      </trkpt>
      <trkpt lat="49.1527" lon="4.08044">
        <ele>162.8</ele>
        <time>2026-08-24T12:00:27Z</time>
      </trkpt>
      <trkpt lat="49.15268" lon="4.08046">
        <ele>163</ele>
        <time>2026-08-24T12:00:28Z</time>
      </trkpt>
      <trkpt lat="49.15267" lon="4.08049">
        <ele>163.2</ele>
        <time>2026-08-24T12:00:29Z</time>
      </trkpt>
      <trkpt lat="49.15265" lon="4.08052">
        <ele>163.6</ele>
        <time>2026-08-24T12:00:30Z</time>
      </trkpt>
      <trkpt lat="49.15264" lon="4.08054">
        <ele>164</ele>
        <time>2026-08-24T12:00:31Z</time>
      </trkpt>
      <trkpt lat="49.15263" lon="4.08057">
        <ele>164.2</ele>
        <time>2026-08-24T12:00:32Z</time>
      </trkpt>
      <trkpt lat="49.15261" lon="4.0806">
        <ele>164.6</ele>
        <time>2026-08-24T12:00:33Z</time>
      </trkpt>
      <trkpt lat="49.1526" lon="4.08063">
        <ele>164.8</ele>
        <time>2026-08-24T12:00:34Z</time>
      </trkpt>
      <trkpt lat="49.15259" lon="4.08066">
        <ele>165</ele>
        <time>2026-08-24T12:00:35Z</time>
      </trkpt>
      <trkpt lat="49.15258" lon="4.08069">
        <ele>165.2</ele>
        <time>2026-08-24T12:00:36Z</time>
      </trkpt>
      <trkpt lat="49.15257" lon="4.08072">
        <ele>165.4</ele>
        <time>2026-08-24T12:00:37Z</time>
      </trkpt>
      <trkpt lat="49.15256" lon="4.08075">
        <ele>165.6</ele>
        <time>2026-08-24T12:00:38Z</time>
      </trkpt>
      <trkpt lat="49.15255" lon="4.08078">
        <ele>166</ele>
        <time>2026-08-24T12:00:39Z</time>
      </trkpt>
      <trkpt lat="49.15254" lon="4.08081">
        <ele>166.4</ele>
        <time>2026-08-24T12:00:40Z</time>
      </trkpt>
      <trkpt lat="49.15253" lon="4.08084">
        <ele>166.6</ele>
        <time>2026-08-24T12:00:41Z</time>
      </trkpt>
      <trkpt lat="49.15252" lon="4.08087">
        <ele>167</ele>
        <time>2026-08-24T12:00:42Z</time>
      </trkpt>
      <trkpt lat="49.15251" lon="4.0809">
        <ele>167.2</ele>
        <time>2026-08-24T12:00:43Z</time>
      </trkpt>
      <trkpt lat="49.1525" lon="4.08093">
        <ele>167.4</ele>
        <time>2026-08-24T12:00:44Z</time>
      </trkpt>
      <trkpt lat="49.15249" lon="4.08096">
        <ele>167.6</ele>
        <time>2026-08-24T12:00:45Z</time>
      </trkpt>
      <trkpt lat="49.15248" lon="4.08099">
        <ele>167.8</ele>
        <time>2026-08-24T12:00:46Z</time>
      </trkpt>
      <trkpt lat="49.15247" lon="4.08102">
        <ele>167.8</ele>
        <time>2026-08-24T12:00:47Z</time>
      </trkpt>
      <trkpt lat="49.15246" lon="4.08105">
        <ele>168</ele>
        <time>2026-08-24T12:00:48Z</time>
      </trkpt>
      <trkpt lat="49.15245" lon="4.08108">
        <ele>168.2</ele>
        <time>2026-08-24T12:00:49Z</time>
      </trkpt>
      <trkpt lat="49.15244" lon="4.08111">
        <ele>168.4</ele>
        <time>2026-08-24T12:00:50Z</time>
      </trkpt>
      <trkpt lat="49.15243" lon="4.08114">
        <ele>168.6</ele>
        <time>2026-08-24T12:00:51Z</time>
      </trkpt>
      <trkpt lat="49.15242" lon="4.08117">
        <ele>169</ele>
        <time>2026-08-24T12:00:52Z</time>
      </trkpt>
      <trkpt lat="49.1524" lon="4.0812">
        <ele>169.4</ele>
        <time>2026-08-24T12:00:53Z</time>
      </trkpt>
      <trkpt lat="49.15238" lon="4.08122">
        <ele>169.8</ele>
        <time>2026-08-24T12:00:54Z</time>
      </trkpt>
      <trkpt lat="49.15236" lon="4.08124">
        <ele>170</ele>
        <time>2026-08-24T12:00:55Z</time>
      </trkpt>
      <trkpt lat="49.15235" lon="4.08126">
        <ele>170.4</ele>
        <time>2026-08-24T12:00:56Z</time>
      </trkpt>
      <trkpt lat="49.15233" lon="4.08129">
        <ele>170.6</ele>
        <time>2026-08-24T12:00:57Z</time>
      </trkpt>
      <trkpt lat="49.15231" lon="4.08131">
        <ele>170.8</ele>
        <time>2026-08-24T12:00:58Z</time>
      </trkpt>
      <trkpt lat="49.15229" lon="4.08133">
        <ele>171.2</ele>
        <time>2026-08-24T12:00:59Z</time>
      </trkpt>
      <trkpt lat="49.15227" lon="4.08135">
        <ele>171.4</ele>
        <time>2026-08-24T12:01:00Z</time>
      </trkpt>
      <trkpt lat="49.15225" lon="4.08137">
        <ele>171.6</ele>
        <time>2026-08-24T12:01:01Z</time>
      </trkpt>
      <trkpt lat="49.15223" lon="4.08138">
        <ele>171.8</ele>
        <time>2026-08-24T12:01:02Z</time>
      </trkpt>
      <trkpt lat="49.15221" lon="4.0814">
        <ele>172</ele>
        <time>2026-08-24T12:01:03Z</time>
      </trkpt>
      <trkpt lat="49.1522" lon="4.08142">
        <ele>172.2</ele>
        <time>2026-08-24T12:01:04Z</time>
      </trkpt>
      <trkpt lat="49.15218" lon="4.08143">
        <ele>172.4</ele>
        <time>2026-08-24T12:01:05Z</time>
      </trkpt>
      <trkpt lat="49.15216" lon="4.08145">
        <ele>172.6</ele>
        <time>2026-08-24T12:01:06Z</time>
      </trkpt>
      <trkpt lat="49.15213" lon="4.08146">
        <ele>172.8</ele>
        <time>2026-08-24T12:01:07Z</time>
      </trkpt>
      <trkpt lat="49.15211" lon="4.08147">
        <ele>173</ele>
        <time>2026-08-24T12:01:08Z</time>
      </trkpt>
      <trkpt lat="49.15209" lon="4.08149">
        <ele>173.2</ele>
        <time>2026-08-24T12:01:09Z</time>
      </trkpt>
      <trkpt lat="49.15207" lon="4.0815">
        <ele>173.6</ele>
        <time>2026-08-24T12:01:10Z</time>
      </trkpt>
      <trkpt lat="49.15205" lon="4.08151">
        <ele>173.8</ele>
        <time>2026-08-24T12:01:11Z</time>
      </trkpt>
      <trkpt lat="49.15203" lon="4.08153">
        <ele>174</ele>
        <time>2026-08-24T12:01:12Z</time>
      </trkpt>
      <trkpt lat="49.15201" lon="4.08154">
        <ele>174</ele>
        <time>2026-08-24T12:01:13Z</time>
      </trkpt>
      <trkpt lat="49.15198" lon="4.08156">
        <ele>174.2</ele>
        <time>2026-08-24T12:01:14Z</time>
      </trkpt>
      <trkpt lat="49.15196" lon="4.08157">
        <ele>174.4</ele>
        <time>2026-08-24T12:01:15Z</time>
      </trkpt>
      <trkpt lat="49.15194" lon="4.08158">
        <ele>174.6</ele>
        <time>2026-08-24T12:01:16Z</time>
      </trkpt>
      <trkpt lat="49.15192" lon="4.08159">
        <ele>174.8</ele>
        <time>2026-08-24T12:01:17Z</time>
      </trkpt>
      <trkpt lat="49.1519" lon="4.0816">
        <ele>175</ele>
        <time>2026-08-24T12:01:18Z</time>
      </trkpt>
      <trkpt lat="49.15188" lon="4.08162">
        <ele>175.2</ele>
        <time>2026-08-24T12:01:19Z</time>
      </trkpt>
      <trkpt lat="49.15186" lon="4.08163">
        <ele>175.4</ele>
        <time>2026-08-24T12:01:20Z</time>
      </trkpt>
      <trkpt lat="49.15184" lon="4.08163">
        <ele>175.6</ele>
        <time>2026-08-24T12:01:21Z</time>
      </trkpt>
      <trkpt lat="49.15182" lon="4.08164">
        <ele>175.8</ele>
        <time>2026-08-24T12:01:22Z</time>
      </trkpt>
      <trkpt lat="49.1518" lon="4.08164">
        <ele>176</ele>
        <time>2026-08-24T12:01:23Z</time>
      </trkpt>
      <trkpt lat="49.15178" lon="4.08165">
        <ele>176.2</ele>
        <time>2026-08-24T12:01:24Z</time>
      </trkpt>
      <trkpt lat="49.15175" lon="4.08165">
        <ele>176.4</ele>
        <time>2026-08-24T12:01:25Z</time>
      </trkpt>
      <trkpt lat="49.15173" lon="4.08165">
        <ele>176.8</ele>
        <time>2026-08-24T12:01:26Z</time>
      </trkpt>
      <trkpt lat="49.15171" lon="4.08165">
        <ele>177</ele>
        <time>2026-08-24T12:01:27Z</time>
      </trkpt>
      <trkpt lat="49.15169" lon="4.08166">
        <ele>177.4</ele>
        <time>2026-08-24T12:01:28Z</time>
      </trkpt>
      <trkpt lat="49.15167" lon="4.08166">
        <ele>177.6</ele>
        <time>2026-08-24T12:01:29Z</time>
      </trkpt>
      <trkpt lat="49.15164" lon="4.08166">
        <ele>177.8</ele>
        <time>2026-08-24T12:01:30Z</time>
      </trkpt>
      <trkpt lat="49.15162" lon="4.08165">
        <ele>178</ele>
        <time>2026-08-24T12:01:31Z</time>
      </trkpt>
      <trkpt lat="49.1516" lon="4.08165">
        <ele>178.2</ele>
        <time>2026-08-24T12:01:32Z</time>
      </trkpt>
      <trkpt lat="49.15158" lon="4.08164">
        <ele>178.4</ele>
        <time>2026-08-24T12:01:33Z</time>
      </trkpt>
      <trkpt lat="49.15156" lon="4.08164">
        <ele>178.6</ele>
        <time>2026-08-24T12:01:34Z</time>
      </trkpt>
      <trkpt lat="49.15155" lon="4.08164">
        <ele>178.8</ele>
        <time>2026-08-24T12:01:35Z</time>
      </trkpt>
      <trkpt lat="49.15153" lon="4.08164">
        <ele>179</ele>
        <time>2026-08-24T12:01:36Z</time>
      </trkpt>
      <trkpt lat="49.1515" lon="4.08163">
        <ele>179.2</ele>
        <time>2026-08-24T12:01:37Z</time>
      </trkpt>
      <trkpt lat="49.15148" lon="4.08163">
        <ele>179.4</ele>
        <time>2026-08-24T12:01:38Z</time>
      </trkpt>
      <trkpt lat="49.15146" lon="4.08162">
        <ele>179.8</ele>
        <time>2026-08-24T12:01:39Z</time>
      </trkpt>
      <trkpt lat="49.15144" lon="4.0816">
        <ele>180</ele>
        <time>2026-08-24T12:01:40Z</time>
      </trkpt>
      <trkpt lat="49.15142" lon="4.0816">
        <ele>180.2</ele>
        <time>2026-08-24T12:01:41Z</time>
      </trkpt>
      <trkpt lat="49.15141" lon="4.08158">
        <ele>180.4</ele>
        <time>2026-08-24T12:01:42Z</time>
      </trkpt>
      <trkpt lat="49.15139" lon="4.08157">
        <ele>180.8</ele>
        <time>2026-08-24T12:01:43Z</time>
      </trkpt>
      <trkpt lat="49.15137" lon="4.08156">
        <ele>181.2</ele>
        <time>2026-08-24T12:01:44Z</time>
      </trkpt>
      <trkpt lat="49.15135" lon="4.08154">
        <ele>181.4</ele>
        <time>2026-08-24T12:01:45Z</time>
      </trkpt>
      <trkpt lat="49.15133" lon="4.08152">
        <ele>181.8</ele>
        <time>2026-08-24T12:01:46Z</time>
      </trkpt>
      <trkpt lat="49.15131" lon="4.0815">
        <ele>182</ele>
        <time>2026-08-24T12:01:47Z</time>
      </trkpt>
      <trkpt lat="49.1513" lon="4.08149">
        <ele>182.4</ele>
        <time>2026-08-24T12:01:48Z</time>
      </trkpt>
      <trkpt lat="49.15128" lon="4.08147">
        <ele>182.6</ele>
        <time>2026-08-24T12:01:49Z</time>
      </trkpt>
      <trkpt lat="49.15127" lon="4.08146">
        <ele>183</ele>
        <time>2026-08-24T12:01:50Z</time>
      </trkpt>
      <trkpt lat="49.15126" lon="4.08144">
        <ele>183.2</ele>
        <time>2026-08-24T12:01:51Z</time>
      </trkpt>
      <trkpt lat="49.15125" lon="4.08143">
        <ele>183.6</ele>
        <time>2026-08-24T12:01:52Z</time>
      </trkpt>
      <trkpt lat="49.15124" lon="4.08141">
        <ele>183.8</ele>
        <time>2026-08-24T12:01:53Z</time>
      </trkpt>
      <trkpt lat="49.15123" lon="4.0814">
        <ele>184</ele>
        <time>2026-08-24T12:01:54Z</time>
      </trkpt>
      <trkpt lat="49.15122" lon="4.08138">
        <ele>184.4</ele>
        <time>2026-08-24T12:01:55Z</time>
      </trkpt>
      <trkpt lat="49.1512" lon="4.08137">
        <ele>184.6</ele>
        <time>2026-08-24T12:01:56Z</time>
      </trkpt>
      <trkpt lat="49.15118" lon="4.08135">
        <ele>185</ele>
        <time>2026-08-24T12:01:57Z</time>
      </trkpt>
      <trkpt lat="49.15117" lon="4.08133">
        <ele>185.2</ele>
        <time>2026-08-24T12:01:58Z</time>
      </trkpt>
      <trkpt lat="49.15116" lon="4.08131">
        <ele>185.6</ele>
        <time>2026-08-24T12:01:59Z</time>
      </trkpt>
      <trkpt lat="49.15114" lon="4.08129">
        <ele>185.8</ele>
        <time>2026-08-24T12:02:00Z</time>
      </trkpt>
      <trkpt lat="49.15113" lon="4.08128">
        <ele>186.2</ele>
        <time>2026-08-24T12:02:01Z</time>
      </trkpt>
      <trkpt lat="49.15112" lon="4.08127">
        <ele>186.4</ele>
        <time>2026-08-24T12:02:02Z</time>
      </trkpt>
      <trkpt lat="49.1511" lon="4.08126">
        <ele>186.8</ele>
        <time>2026-08-24T12:02:03Z</time>
      </trkpt>
      <trkpt lat="49.15109" lon="4.08124">
        <ele>187.2</ele>
        <time>2026-08-24T12:02:04Z</time>
      </trkpt>
      <trkpt lat="49.15108" lon="4.08121">
        <ele>187.4</ele>
        <time>2026-08-24T12:02:05Z</time>
      </trkpt>
      <trkpt lat="49.15107" lon="4.08119">
        <ele>187.8</ele>
        <time>2026-08-24T12:02:06Z</time>
      </trkpt>
      <trkpt lat="49.15105" lon="4.08117">
        <ele>188.2</ele>
        <time>2026-08-24T12:02:07Z</time>
      </trkpt>
      <trkpt lat="49.15104" lon="4.08116">
        <ele>188.4</ele>
        <time>2026-08-24T12:02:08Z</time>
      </trkpt>
      <trkpt lat="49.15102" lon="4.08115">
        <ele>188.8</ele>
        <time>2026-08-24T12:02:09Z</time>
      </trkpt>
      <trkpt lat="49.15101" lon="4.08113">
        <ele>189</ele>
        <time>2026-08-24T12:02:10Z</time>
      </trkpt>
      <trkpt lat="49.151" lon="4.08111">
        <ele>189.4</ele>
        <time>2026-08-24T12:02:11Z</time>
      </trkpt>
      <trkpt lat="49.15098" lon="4.08109">
        <ele>189.6</ele>
        <time>2026-08-24T12:02:12Z</time>
      </trkpt>
      <trkpt lat="49.15096" lon="4.08107">
        <ele>189.8</ele>
        <time>2026-08-24T12:02:13Z</time>
      </trkpt>
      <trkpt lat="49.15094" lon="4.08105">
        <ele>190.2</ele>
        <time>2026-08-24T12:02:14Z</time>
      </trkpt>
      <trkpt lat="49.15092" lon="4.08102">
        <ele>190.4</ele>
        <time>2026-08-24T12:02:15Z</time>
      </trkpt>
      <trkpt lat="49.15091" lon="4.08099">
        <ele>190.8</ele>
        <time>2026-08-24T12:02:16Z</time>
      </trkpt>
      <trkpt lat="49.1509" lon="4.08097">
        <ele>191.2</ele>
        <time>2026-08-24T12:02:17Z</time>
      </trkpt>
      <trkpt lat="49.15088" lon="4.08095">
        <ele>191.4</ele>
        <time>2026-08-24T12:02:18Z</time>
      </trkpt>
      <trkpt lat="49.15086" lon="4.08094">
        <ele>191.8</ele>
        <time>2026-08-24T12:02:19Z</time>
      </trkpt>
      <trkpt lat="49.15085" lon="4.08091">
        <ele>192</ele>
        <time>2026-08-24T12:02:20Z</time>
      </trkpt>
      <trkpt lat="49.15084" lon="4.0809">
        <ele>192.4</ele>
        <time>2026-08-24T12:02:21Z</time>
      </trkpt>
      <trkpt lat="49.15083" lon="4.08089">
        <ele>192.8</ele>
        <time>2026-08-24T12:02:22Z</time>
      </trkpt>
      <trkpt lat="49.15082" lon="4.08087">
        <ele>193</ele>
        <time>2026-08-24T12:02:23Z</time>
      </trkpt>
      <trkpt lat="49.1508" lon="4.08086">
        <ele>193.4</ele>
        <time>2026-08-24T12:02:24Z</time>
      </trkpt>
      <trkpt lat="49.15079" lon="4.08084">
        <ele>193.6</ele>
        <time>2026-08-24T12:02:25Z</time>
      </trkpt>
      <trkpt lat="49.15078" lon="4.08083">
        <ele>194</ele>
        <time>2026-08-24T12:02:26Z</time>
      </trkpt>
      <trkpt lat="49.15076" lon="4.08081">
        <ele>194.2</ele>
        <time>2026-08-24T12:02:27Z</time>
      </trkpt>
      <trkpt lat="49.15076" lon="4.08079">
        <ele>194.4</ele>
        <time>2026-08-24T12:02:28Z</time>
      </trkpt>
      <trkpt lat="49.15075" lon="4.08078">
        <ele>194.8</ele>
        <time>2026-08-24T12:02:29Z</time>
      </trkpt>
      <trkpt lat="49.15074" lon="4.08076">
        <ele>195</ele>
        <time>2026-08-24T12:02:30Z</time>
      </trkpt>
      <trkpt lat="49.15073" lon="4.08074">
        <ele>195.4</ele>
        <time>2026-08-24T12:02:31Z</time>
      </trkpt>
      <trkpt lat="49.15071" lon="4.08072">
        <ele>195.6</ele>
        <time>2026-08-24T12:02:32Z</time>
      </trkpt>
      <trkpt lat="49.1507" lon="4.0807">
        <ele>196</ele>
        <time>2026-08-24T12:02:33Z</time>
      </trkpt>
      <trkpt lat="49.15068" lon="4.08069">
        <ele>196.2</ele>
        <time>2026-08-24T12:02:34Z</time>
      </trkpt>
      <trkpt lat="49.15067" lon="4.08069">
        <ele>196.6</ele>
        <time>2026-08-24T12:02:35Z</time>
      </trkpt>
      <trkpt lat="49.15065" lon="4.08068">
        <ele>196.8</ele>
        <time>2026-08-24T12:02:36Z</time>
      </trkpt>
      <trkpt lat="49.15063" lon="4.08066">
        <ele>197.2</ele>
        <time>2026-08-24T12:02:37Z</time>
      </trkpt>
      <trkpt lat="49.15062" lon="4.08064">
        <ele>197.4</ele>
        <time>2026-08-24T12:02:38Z</time>
      </trkpt>
      <trkpt lat="49.1506" lon="4.08063">
        <ele>197.8</ele>
        <time>2026-08-24T12:02:39Z</time>
      </trkpt>
      <trkpt lat="49.15058" lon="4.08061">
        <ele>198</ele>
        <time>2026-08-24T12:02:40Z</time>
      </trkpt>
      <trkpt lat="49.15057" lon="4.08059">
        <ele>198.2</ele>
        <time>2026-08-24T12:02:41Z</time>
      </trkpt>
      <trkpt lat="49.15056" lon="4.08058">
        <ele>198.6</ele>
        <time>2026-08-24T12:02:42Z</time>
      </trkpt>
      <trkpt lat="49.15054" lon="4.08056">
        <ele>198.8</ele>
        <time>2026-08-24T12:02:43Z</time>
      </trkpt>
      <trkpt lat="49.15052" lon="4.08055">
        <ele>199</ele>
        <time>2026-08-24T12:02:44Z</time>
      </trkpt>
      <trkpt lat="49.1505" lon="4.08054">
        <ele>199.4</ele>
        <time>2026-08-24T12:02:45Z</time>
      </trkpt>
      <trkpt lat="49.15048" lon="4.08052">
        <ele>199.6</ele>
        <time>2026-08-24T12:02:46Z</time>
      </trkpt>
      <trkpt lat="49.15047" lon="4.0805">
        <ele>200</ele>
        <time>2026-08-24T12:02:47Z</time>
      </trkpt>
      <trkpt lat="49.15045" lon="4.08048">
        <ele>200.2</ele>
        <time>2026-08-24T12:02:48Z</time>
      </trkpt>
      <trkpt lat="49.15043" lon="4.08046">
        <ele>200.4</ele>
        <time>2026-08-24T12:02:49Z</time>
      </trkpt>
      <trkpt lat="49.15042" lon="4.08045">
        <ele>200.6</ele>
        <time>2026-08-24T12:02:50Z</time>
      </trkpt>
      <trkpt lat="49.1504" lon="4.08043">
        <ele>201</ele>
        <time>2026-08-24T12:02:51Z</time>
      </trkpt>
      <trkpt lat="49.15039" lon="4.08041">
        <ele>201.2</ele>
        <time>2026-08-24T12:02:52Z</time>
      </trkpt>
      <trkpt lat="49.15038" lon="4.0804">
        <ele>201.4</ele>
        <time>2026-08-24T12:02:53Z</time>
      </trkpt>
      <trkpt lat="49.15036" lon="4.08038">
        <ele>201.6</ele>
        <time>2026-08-24T12:02:54Z</time>
      </trkpt>
      <trkpt lat="49.15034" lon="4.08038">
        <ele>201.8</ele>
        <time>2026-08-24T12:02:55Z</time>
      </trkpt>
      <trkpt lat="49.15033" lon="4.08037">
        <ele>202.2</ele>
        <time>2026-08-24T12:02:56Z</time>
      </trkpt>
      <trkpt lat="49.15031" lon="4.08037">
        <ele>202.4</ele>
        <time>2026-08-24T12:02:57Z</time>
      </trkpt>
      <trkpt lat="49.1503" lon="4.08037">
        <ele>202.8</ele>
        <time>2026-08-24T12:02:58Z</time>
      </trkpt>
      <trkpt lat="49.15028" lon="4.08037">
        <ele>203.2</ele>
        <time>2026-08-24T12:02:59Z</time>
      </trkpt>
      <trkpt lat="49.15027" lon="4.08037">
        <ele>203.4</ele>
        <time>2026-08-24T12:03:00Z</time>
      </trkpt>
      <trkpt lat="49.15025" lon="4.08037">
        <ele>203.8</ele>
        <time>2026-08-24T12:03:01Z</time>
      </trkpt>
      <trkpt lat="49.15024" lon="4.08038">
        <ele>204</ele>
        <time>2026-08-24T12:03:02Z</time>
      </trkpt>
      <trkpt lat="49.15022" lon="4.08038">
        <ele>204.2</ele>
        <time>2026-08-24T12:03:03Z</time>
      </trkpt>
      <trkpt lat="49.15021" lon="4.08038">
        <ele>204.6</ele>
        <time>2026-08-24T12:03:04Z</time>
      </trkpt>
      <trkpt lat="49.1502" lon="4.08038">
        <ele>204.8</ele>
        <time>2026-08-24T12:03:05Z</time>
      </trkpt>
      <trkpt lat="49.15018" lon="4.08039">
        <ele>205</ele>
        <time>2026-08-24T12:03:06Z</time>
      </trkpt>
      <trkpt lat="49.15017" lon="4.0804">
        <ele>205.2</ele>
        <time>2026-08-24T12:03:07Z</time>
      </trkpt>
      <trkpt lat="49.15015" lon="4.08042">
        <ele>205.4</ele>
        <time>2026-08-24T12:03:08Z</time>
      </trkpt>
      <trkpt lat="49.15014" lon="4.08044">
        <ele>205.6</ele>
        <time>2026-08-24T12:03:09Z</time>
      </trkpt>
      <trkpt lat="49.15013" lon="4.08045">
        <ele>205.8</ele>
        <time>2026-08-24T12:03:10Z</time>
      </trkpt>
      <trkpt lat="49.15012" lon="4.08046">
        <ele>206.2</ele>
        <time>2026-08-24T12:03:11Z</time>
      </trkpt>
      <trkpt lat="49.1501" lon="4.08047">
        <ele>206.4</ele>
        <time>2026-08-24T12:03:12Z</time>
      </trkpt>
      <trkpt lat="49.15009" lon="4.08049">
        <ele>206.6</ele>
        <time>2026-08-24T12:03:13Z</time>
      </trkpt>
      <trkpt lat="49.15008" lon="4.0805">
        <ele>206.8</ele>
        <time>2026-08-24T12:03:14Z</time>
      </trkpt>
      <trkpt lat="49.15007" lon="4.08052">
        <ele>207</ele>
        <time>2026-08-24T12:03:15Z</time>
      </trkpt>
      <trkpt lat="49.15005" lon="4.08053">
        <ele>207.2</ele>
        <time>2026-08-24T12:03:16Z</time>
      </trkpt>
      <trkpt lat="49.15004" lon="4.08055">
        <ele>207.4</ele>
        <time>2026-08-24T12:03:17Z</time>
      </trkpt>
      <trkpt lat="49.15003" lon="4.08057">
        <ele>207.8</ele>
        <time>2026-08-24T12:03:18Z</time>
      </trkpt>
      <trkpt lat="49.15002" lon="4.08058">
        <ele>208</ele>
        <time>2026-08-24T12:03:19Z</time>
      </trkpt>
      <trkpt lat="49.15001" lon="4.0806">
        <ele>208.2</ele>
        <time>2026-08-24T12:03:20Z</time>
      </trkpt>
      <trkpt lat="49.14999" lon="4.08061">
        <ele>208.4</ele>
        <time>2026-08-24T12:03:21Z</time>
      </trkpt>
      <trkpt lat="49.14998" lon="4.08063">
        <ele>208.6</ele>
        <time>2026-08-24T12:03:22Z</time>
      </trkpt>
      <trkpt lat="49.14997" lon="4.08065">
        <ele>208.8</ele>
        <time>2026-08-24T12:03:23Z</time>
      </trkpt>
      <trkpt lat="49.14995" lon="4.08066">
        <ele>209</ele>
        <time>2026-08-24T12:03:24Z</time>
      </trkpt>
      <trkpt lat="49.14994" lon="4.08068">
        <ele>209</ele>
        <time>2026-08-24T12:03:25Z</time>
      </trkpt>
      <trkpt lat="49.14992" lon="4.0807">
        <ele>209.2</ele>
        <time>2026-08-24T12:03:26Z</time>
      </trkpt>
      <trkpt lat="49.14991" lon="4.08072">
        <ele>209.2</ele>
        <time>2026-08-24T12:03:27Z</time>
      </trkpt>
      <trkpt lat="49.1499" lon="4.08074">
        <ele>209.4</ele>
        <time>2026-08-24T12:03:28Z</time>
      </trkpt>
      <trkpt lat="49.14989" lon="4.08075">
        <ele>209.8</ele>
        <time>2026-08-24T12:03:29Z</time>
      </trkpt>
      <trkpt lat="49.14988" lon="4.08077">
        <ele>210</ele>
        <time>2026-08-24T12:03:30Z</time>
      </trkpt>
      <trkpt lat="49.14987" lon="4.08079">
        <ele>210.2</ele>
        <time>2026-08-24T12:03:31Z</time>
      </trkpt>
      <trkpt lat="49.14986" lon="4.0808">
        <ele>210.4</ele>
        <time>2026-08-24T12:03:32Z</time>
      </trkpt>
      <trkpt lat="49.14985" lon="4.08082">
        <ele>210.6</ele>
        <time>2026-08-24T12:03:33Z</time>
      </trkpt>
      <trkpt lat="49.14984" lon="4.08084">
        <ele>210.8</ele>
        <time>2026-08-24T12:03:34Z</time>
      </trkpt>
      <trkpt lat="49.14982" lon="4.08086">
        <ele>211</ele>
        <time>2026-08-24T12:03:35Z</time>
      </trkpt>
      <trkpt lat="49.14981" lon="4.08088">
        <ele>211.2</ele>
        <time>2026-08-24T12:03:36Z</time>
      </trkpt>
      <trkpt lat="49.1498" lon="4.0809">
        <ele>211.4</ele>
        <time>2026-08-24T12:03:37Z</time>
      </trkpt>
      <trkpt lat="49.14979" lon="4.08092">
        <ele>211.6</ele>
        <time>2026-08-24T12:03:38Z</time>
      </trkpt>
      <trkpt lat="49.14977" lon="4.08093">
        <ele>212</ele>
        <time>2026-08-24T12:03:39Z</time>
      </trkpt>
      <trkpt lat="49.14976" lon="4.08095">
        <ele>212.2</ele>
        <time>2026-08-24T12:03:40Z</time>
      </trkpt>
      <trkpt lat="49.14975" lon="4.08097">
        <ele>212.4</ele>
        <time>2026-08-24T12:03:41Z</time>
      </trkpt>
      <trkpt lat="49.14973" lon="4.08098">
        <ele>212.6</ele>
        <time>2026-08-24T12:03:42Z</time>
      </trkpt>
      <trkpt lat="49.14972" lon="4.081">
        <ele>212.8</ele>
        <time>2026-08-24T12:03:43Z</time>
      </trkpt>
      <trkpt lat="49.1497" lon="4.08101">
        <ele>213</ele>
        <time>2026-08-24T12:03:44Z</time>
      </trkpt>
      <trkpt lat="49.14969" lon="4.08102">
        <ele>213.2</ele>
        <time>2026-08-24T12:03:45Z</time>
      </trkpt>
      <trkpt lat="49.14968" lon="4.08104">
        <ele>213.6</ele>
        <time>2026-08-24T12:03:46Z</time>
      </trkpt>
      <trkpt lat="49.14966" lon="4.08105">
        <ele>213.8</ele>
        <time>2026-08-24T12:03:47Z</time>
      </trkpt>
      <trkpt lat="49.14965" lon="4.08107">
        <ele>214</ele>
        <time>2026-08-24T12:03:48Z</time>
      </trkpt>
      <trkpt lat="49.14963" lon="4.08108">
        <ele>214.4</ele>
        <time>2026-08-24T12:03:49Z</time>
      </trkpt>
      <trkpt lat="49.14961" lon="4.0811">
        <ele>214.6</ele>
        <time>2026-08-24T12:03:50Z</time>
      </trkpt>
      <trkpt lat="49.1496" lon="4.08111">
        <ele>214.8</ele>
        <time>2026-08-24T12:03:51Z</time>
      </trkpt>
      <trkpt lat="49.14958" lon="4.08112">
        <ele>215</ele>
        <time>2026-08-24T12:03:52Z</time>
      </trkpt>
      <trkpt lat="49.14956" lon="4.08113">
        <ele>215</ele>
        <time>2026-08-24T12:03:53Z</time>
      </trkpt>
      <trkpt lat="49.14954" lon="4.08114">
        <ele>215.2</ele>
        <time>2026-08-24T12:03:54Z</time>
      </trkpt>
      <trkpt lat="49.14953" lon="4.08114">
        <ele>215.4</ele>
        <time>2026-08-24T12:03:55Z</time>
      </trkpt>
      <trkpt lat="49.14951" lon="4.08115">
        <ele>215.6</ele>
        <time>2026-08-24T12:03:56Z</time>
      </trkpt>
      <trkpt lat="49.14948" lon="4.08115">
        <ele>215.6</ele>
        <time>2026-08-24T12:03:57Z</time>
      </trkpt>
      <trkpt lat="49.14946" lon="4.08115">
        <ele>215.8</ele>
        <time>2026-08-24T12:03:58Z</time>
      </trkpt>
      <trkpt lat="49.14944" lon="4.08115">
        <ele>216</ele>
        <time>2026-08-24T12:03:59Z</time>
      </trkpt>
      <trkpt lat="49.14942" lon="4.08115">
        <ele>216.2</ele>
        <time>2026-08-24T12:04:00Z</time>
      </trkpt>
      <trkpt lat="49.1494" lon="4.08114">
        <ele>216.4</ele>
        <time>2026-08-24T12:04:01Z</time>
      </trkpt>
      <trkpt lat="49.14939" lon="4.08114">
        <ele>216.6</ele>
        <time>2026-08-24T12:04:02Z</time>
      </trkpt>
      <trkpt lat="49.14937" lon="4.08113">
        <ele>216.8</ele>
        <time>2026-08-24T12:04:03Z</time>
      </trkpt>
      <trkpt lat="49.14935" lon="4.08113">
        <ele>217</ele>
        <time>2026-08-24T12:04:04Z</time>
      </trkpt>
      <trkpt lat="49.14933" lon="4.08112">
        <ele>217.4</ele>
        <time>2026-08-24T12:04:05Z</time>
      </trkpt>
      <trkpt lat="49.14931" lon="4.08111">
        <ele>217.6</ele>
        <time>2026-08-24T12:04:06Z</time>
      </trkpt>
      <trkpt lat="49.14929" lon="4.0811">
        <ele>217.8</ele>
        <time>2026-08-24T12:04:07Z</time>
      </trkpt>
      <trkpt lat="49.14927" lon="4.0811">
        <ele>218</ele>
        <time>2026-08-24T12:04:08Z</time>
      </trkpt>
      <trkpt lat="49.14926" lon="4.08109">
        <ele>218.2</ele>
        <time>2026-08-24T12:04:09Z</time>
      </trkpt>
      <trkpt lat="49.14924" lon="4.08108">
        <ele>218.4</ele>
        <time>2026-08-24T12:04:10Z</time>
      </trkpt>
      <trkpt lat="49.14922" lon="4.08107">
        <ele>218.6</ele>
        <time>2026-08-24T12:04:11Z</time>
      </trkpt>
      <trkpt lat="49.1492" lon="4.08106">
        <ele>218.8</ele>
        <time>2026-08-24T12:04:12Z</time>
      </trkpt>
      <trkpt lat="49.14918" lon="4.08105">
        <ele>219</ele>
        <time>2026-08-24T12:04:13Z</time>
      </trkpt>
      <trkpt lat="49.14916" lon="4.08104">
        <ele>219.2</ele>
        <time>2026-08-24T12:04:14Z</time>
      </trkpt>
      <trkpt lat="49.14915" lon="4.08104">
        <ele>219.4</ele>
        <time>2026-08-24T12:04:15Z</time>
      </trkpt>
      <trkpt lat="49.14913" lon="4.08103">
        <ele>219.6</ele>
        <time>2026-08-24T12:04:16Z</time>
      </trkpt>
      <trkpt lat="49.14911" lon="4.08102">
        <ele>220</ele>
        <time>2026-08-24T12:04:17Z</time>
      </trkpt>
      <trkpt lat="49.14909" lon="4.08101">
        <ele>220.2</ele>
        <time>2026-08-24T12:04:18Z</time>
      </trkpt>
      <trkpt lat="49.14907" lon="4.08101">
        <ele>220.4</ele>
        <time>2026-08-24T12:04:19Z</time>
      </trkpt>
      <trkpt lat="49.14905" lon="4.081">
        <ele>220.6</ele>
        <time>2026-08-24T12:04:20Z</time>
      </trkpt>
      <trkpt lat="49.14903" lon="4.08099">
        <ele>220.8</ele>
        <time>2026-08-24T12:04:21Z</time>
      </trkpt>
      <trkpt lat="49.14901" lon="4.08099">
        <ele>221</ele>
        <time>2026-08-24T12:04:22Z</time>
      </trkpt>
      <trkpt lat="49.149" lon="4.08098">
        <ele>221.4</ele>
        <time>2026-08-24T12:04:23Z</time>
      </trkpt>
      <trkpt lat="49.14898" lon="4.08097">
        <ele>221.6</ele>
        <time>2026-08-24T12:04:24Z</time>
      </trkpt>
      <trkpt lat="49.14897" lon="4.08097">
        <ele>221.8</ele>
        <time>2026-08-24T12:04:25Z</time>
      </trkpt>
      <trkpt lat="49.14895" lon="4.08096">
        <ele>222</ele>
        <time>2026-08-24T12:04:26Z</time>
      </trkpt>
      <trkpt lat="49.14893" lon="4.08095">
        <ele>222.2</ele>
        <time>2026-08-24T12:04:27Z</time>
      </trkpt>
      <trkpt lat="49.14891" lon="4.08095">
        <ele>222.4</ele>
        <time>2026-08-24T12:04:28Z</time>
      </trkpt>
      <trkpt lat="49.14889" lon="4.08094">
        <ele>222.8</ele>
        <time>2026-08-24T12:04:29Z</time>
      </trkpt>
      <trkpt lat="49.14887" lon="4.08094">
        <ele>223</ele>
        <time>2026-08-24T12:04:30Z</time>
      </trkpt>
      <trkpt lat="49.14885" lon="4.08093">
        <ele>223.2</ele>
        <time>2026-08-24T12:04:31Z</time>
      </trkpt>
      <trkpt lat="49.14883" lon="4.08092">
        <ele>223.4</ele>
        <time>2026-08-24T12:04:32Z</time>
      </trkpt>
      <trkpt lat="49.14882" lon="4.08091">
        <ele>223.6</ele>
        <time>2026-08-24T12:04:33Z</time>
      </trkpt>
      <trkpt lat="49.1488" lon="4.0809">
        <ele>223.8</ele>
        <time>2026-08-24T12:04:34Z</time>
      </trkpt>
      <trkpt lat="49.14878" lon="4.08089">
        <ele>224</ele>
        <time>2026-08-24T12:04:35Z</time>
      </trkpt>
      <trkpt lat="49.14876" lon="4.08088">
        <ele>224.4</ele>
        <time>2026-08-24T12:04:36Z</time>
      </trkpt>
      <trkpt lat="49.14875" lon="4.08088">
        <ele>224.6</ele>
        <time>2026-08-24T12:04:37Z</time>
      </trkpt>
      <trkpt lat="49.14873" lon="4.08087">
        <ele>224.8</ele>
        <time>2026-08-24T12:04:38Z</time>
      </trkpt>
      <trkpt lat="49.14872" lon="4.08085">
        <ele>225</ele>
        <time>2026-08-24T12:04:39Z</time>
      </trkpt>
      <trkpt lat="49.1487" lon="4.08084">
        <ele>225.2</ele>
        <time>2026-08-24T12:04:40Z</time>
      </trkpt>
      <trkpt lat="49.14868" lon="4.08083">
        <ele>225.4</ele>
        <time>2026-08-24T12:04:41Z</time>
      </trkpt>
      <trkpt lat="49.14866" lon="4.08083">
        <ele>225.6</ele>
        <time>2026-08-24T12:04:42Z</time>
      </trkpt>
      <trkpt lat="49.14865" lon="4.08082">
        <ele>225.8</ele>
        <time>2026-08-24T12:04:43Z</time>
      </trkpt>
      <trkpt lat="49.14863" lon="4.08081">
        <ele>226</ele>
        <time>2026-08-24T12:04:44Z</time>
      </trkpt>
      <trkpt lat="49.14861" lon="4.08079">
        <ele>226.2</ele>
        <time>2026-08-24T12:04:45Z</time>
      </trkpt>
      <trkpt lat="49.14859" lon="4.08078">
        <ele>226.4</ele>
        <time>2026-08-24T12:04:46Z</time>
      </trkpt>
      <trkpt lat="49.14857" lon="4.08077">
        <ele>226.8</ele>
        <time>2026-08-24T12:04:47Z</time>
      </trkpt>
      <trkpt lat="49.14856" lon="4.08076">
        <ele>227</ele>
        <time>2026-08-24T12:04:48Z</time>
      </trkpt>
      <trkpt lat="49.14854" lon="4.08075">
        <ele>227.4</ele>
        <time>2026-08-24T12:04:49Z</time>
      </trkpt>
      <trkpt lat="49.14852" lon="4.08075">
        <ele>227.6</ele>
        <time>2026-08-24T12:04:50Z</time>
      </trkpt>
      <trkpt lat="49.1485" lon="4.08074">
        <ele>227.8</ele>
        <time>2026-08-24T12:04:51Z</time>
      </trkpt>
      <trkpt lat="49.14848" lon="4.08073">
        <ele>228</ele>
        <time>2026-08-24T12:04:52Z</time>
      </trkpt>
      <trkpt lat="49.14847" lon="4.08072">
        <ele>228.4</ele>
        <time>2026-08-24T12:04:53Z</time>
      </trkpt>
      <trkpt lat="49.14845" lon="4.08072">
        <ele>228.4</ele>
        <time>2026-08-24T12:04:54Z</time>
      </trkpt>
      <trkpt lat="49.14843" lon="4.08071">
        <ele>228.8</ele>
        <time>2026-08-24T12:04:55Z</time>
      </trkpt>
      <trkpt lat="49.14841" lon="4.0807">
        <ele>229</ele>
        <time>2026-08-24T12:04:56Z</time>
      </trkpt>
      <trkpt lat="49.14839" lon="4.08069">
        <ele>229.2</ele>
        <time>2026-08-24T12:04:57Z</time>
      </trkpt>
      <trkpt lat="49.14838" lon="4.08069">
        <ele>229.4</ele>
        <time>2026-08-24T12:04:58Z</time>
      </trkpt>
      <trkpt lat="49.14836" lon="4.08068">
        <ele>229.6</ele>
        <time>2026-08-24T12:04:59Z</time>
      </trkpt>
      <trkpt lat="49.14834" lon="4.08067">
        <ele>229.8</ele>
        <time>2026-08-24T12:05:00Z</time>
      </trkpt>
      <trkpt lat="49.14832" lon="4.08066">
        <ele>230</ele>
        <time>2026-08-24T12:05:01Z</time>
      </trkpt>
      <trkpt lat="49.1483" lon="4.08065">
        <ele>230.4</ele>
        <time>2026-08-24T12:05:02Z</time>
      </trkpt>
      <trkpt lat="49.14828" lon="4.08064">
        <ele>230.6</ele>
        <time>2026-08-24T12:05:03Z</time>
      </trkpt>
      <trkpt lat="49.14826" lon="4.08063">
        <ele>230.8</ele>
        <time>2026-08-24T12:05:04Z</time>
      </trkpt>
      <trkpt lat="49.14824" lon="4.08062">
        <ele>231.2</ele>
        <time>2026-08-24T12:05:05Z</time>
      </trkpt>
      <trkpt lat="49.14822" lon="4.08062">
        <ele>231.4</ele>
        <time>2026-08-24T12:05:06Z</time>
      </trkpt>
      <trkpt lat="49.1482" lon="4.08061">
        <ele>231.8</ele>
        <time>2026-08-24T12:05:07Z</time>
      </trkpt>
      <trkpt lat="49.14818" lon="4.0806">
        <ele>232</ele>
        <time>2026-08-24T12:05:08Z</time>
      </trkpt>
      <trkpt lat="49.14816" lon="4.08059">
        <ele>232.2</ele>
        <time>2026-08-24T12:05:09Z</time>
      </trkpt>
      <trkpt lat="49.14814" lon="4.08059">
        <ele>232.4</ele>
        <time>2026-08-24T12:05:10Z</time>
      </trkpt>
      <trkpt lat="49.14812" lon="4.08058">
        <ele>232.6</ele>
        <time>2026-08-24T12:05:11Z</time>
      </trkpt>
      <trkpt lat="49.1481" lon="4.08057">
        <ele>232.8</ele>
        <time>2026-08-24T12:05:12Z</time>
      </trkpt>
      <trkpt lat="49.14808" lon="4.08056">
        <ele>233.2</ele>
        <time>2026-08-24T12:05:13Z</time>
      </trkpt>
      <trkpt lat="49.14806" lon="4.08055">
        <ele>233.4</ele>
        <time>2026-08-24T12:05:14Z</time>
      </trkpt>
      <trkpt lat="49.14804" lon="4.08054">
        <ele>233.8</ele>
        <time>2026-08-24T12:05:15Z</time>
      </trkpt>
      <trkpt lat="49.14802" lon="4.08053">
        <ele>234</ele>
        <time>2026-08-24T12:05:16Z</time>
      </trkpt>
      <trkpt lat="49.148" lon="4.08052">
        <ele>234.2</ele>
        <time>2026-08-24T12:05:17Z</time>
      </trkpt>
      <trkpt lat="49.14798" lon="4.08051">
        <ele>234.4</ele>
        <time>2026-08-24T12:05:18Z</time>
      </trkpt>
      <trkpt lat="49.14797" lon="4.0805">
        <ele>234.8</ele>
        <time>2026-08-24T12:05:19Z</time>
      </trkpt>
      <trkpt lat="49.14795" lon="4.0805">
        <ele>235</ele>
        <time>2026-08-24T12:05:20Z</time>
      </trkpt>
      <trkpt lat="49.14793" lon="4.08049">
        <ele>235.2</ele>
        <time>2026-08-24T12:05:21Z</time>
      </trkpt>
      <trkpt lat="49.14791" lon="4.08048">
        <ele>235.6</ele>
        <time>2026-08-24T12:05:22Z</time>
      </trkpt>
      <trkpt lat="49.14789" lon="4.08047">
        <ele>235.8</ele>
        <time>2026-08-24T12:05:23Z</time>
      </trkpt>
      <trkpt lat="49.14787" lon="4.08046">
        <ele>236</ele>
        <time>2026-08-24T12:05:24Z</time>
      </trkpt>
      <trkpt lat="49.14785" lon="4.08045">
        <ele>236.2</ele>
        <time>2026-08-24T12:05:25Z</time>
      </trkpt>
      <trkpt lat="49.14783" lon="4.08044">
        <ele>236.4</ele>
        <time>2026-08-24T12:05:26Z</time>
      </trkpt>
      <trkpt lat="49.14781" lon="4.08043">
        <ele>236.6</ele>
        <time>2026-08-24T12:05:27Z</time>
      </trkpt>
      <trkpt lat="49.1478" lon="4.08042">
        <ele>237</ele>
        <time>2026-08-24T12:05:28Z</time>
      </trkpt>
      <trkpt lat="49.14778" lon="4.08042">
        <ele>237.2</ele>
        <time>2026-08-24T12:05:29Z</time>
      </trkpt>
      <trkpt lat="49.14776" lon="4.0804">
        <ele>237.6</ele>
        <time>2026-08-24T12:05:30Z</time>
      </trkpt>
      <trkpt lat="49.14774" lon="4.0804">
        <ele>237.8</ele>
        <time>2026-08-24T12:05:31Z</time>
      </trkpt>
      <trkpt lat="49.14772" lon="4.0804">
        <ele>238.2</ele>
        <time>2026-08-24T12:05:32Z</time>
      </trkpt>
      <trkpt lat="49.1477" lon="4.0804">
        <ele>238.4</ele>
        <time>2026-08-24T12:05:33Z</time>
      </trkpt>
      <trkpt lat="49.14768" lon="4.08039">
        <ele>238.6</ele>
        <time>2026-08-24T12:05:34Z</time>
      </trkpt>
      <trkpt lat="49.14767" lon="4.08039">
        <ele>238.8</ele>
        <time>2026-08-24T12:05:35Z</time>
      </trkpt>
      <trkpt lat="49.14765" lon="4.08039">
        <ele>239</ele>
        <time>2026-08-24T12:05:36Z</time>
      </trkpt>
      <trkpt lat="49.14763" lon="4.08038">
        <ele>239.2</ele>
        <time>2026-08-24T12:05:37Z</time>
      </trkpt>
      <trkpt lat="49.14761" lon="4.08038">
        <ele>239.6</ele>
        <time>2026-08-24T12:05:38Z</time>
      </trkpt>
      <trkpt lat="49.14759" lon="4.08038">
        <ele>239.8</ele>
        <time>2026-08-24T12:05:39Z</time>
      </trkpt>
      <trkpt lat="49.14757" lon="4.08038">
        <ele>240</ele>
        <time>2026-08-24T12:05:40Z</time>
      </trkpt>
      <trkpt lat="49.14755" lon="4.08039">
        <ele>240.4</ele>
        <time>2026-08-24T12:05:41Z</time>
      </trkpt>
      <trkpt lat="49.14753" lon="4.08039">
        <ele>240.6</ele>
        <time>2026-08-24T12:05:42Z</time>
      </trkpt>
      <trkpt lat="49.14751" lon="4.08039">
        <ele>240.8</ele>
        <time>2026-08-24T12:05:43Z</time>
      </trkpt>
      <trkpt lat="49.14749" lon="4.0804">
        <ele>241</ele>
        <time>2026-08-24T12:05:44Z</time>
      </trkpt>
      <trkpt lat="49.14747" lon="4.0804">
        <ele>241</ele>
        <time>2026-08-24T12:05:45Z</time>
      </trkpt>
      <trkpt lat="49.14745" lon="4.08041">
        <ele>241.2</ele>
        <time>2026-08-24T12:05:46Z</time>
      </trkpt>
      <trkpt lat="49.14744" lon="4.08042">
        <ele>241.4</ele>
        <time>2026-08-24T12:05:47Z</time>
      </trkpt>
      <trkpt lat="49.14742" lon="4.08043">
        <ele>241.6</ele>
        <time>2026-08-24T12:05:48Z</time>
      </trkpt>
      <trkpt lat="49.1474" lon="4.08044">
        <ele>242</ele>
        <time>2026-08-24T12:05:49Z</time>
      </trkpt>
      <trkpt lat="49.14738" lon="4.08045">
        <ele>242.2</ele>
        <time>2026-08-24T12:05:50Z</time>
      </trkpt>
      <trkpt lat="49.14736" lon="4.08046">
        <ele>242.4</ele>
        <time>2026-08-24T12:05:51Z</time>
      </trkpt>
      <trkpt lat="49.14734" lon="4.08047">
        <ele>242.6</ele>
        <time>2026-08-24T12:05:52Z</time>
      </trkpt>
      <trkpt lat="49.14733" lon="4.08049">
        <ele>243</ele>
        <time>2026-08-24T12:05:53Z</time>
      </trkpt>
      <trkpt lat="49.14731" lon="4.0805">
        <ele>243.2</ele>
        <time>2026-08-24T12:05:54Z</time>
      </trkpt>
      <trkpt lat="49.14729" lon="4.08052">
        <ele>243.4</ele>
        <time>2026-08-24T12:05:55Z</time>
      </trkpt>
      <trkpt lat="49.14727" lon="4.08054">
        <ele>243.4</ele>
        <time>2026-08-24T12:05:56Z</time>
      </trkpt>
      <trkpt lat="49.14726" lon="4.08055">
        <ele>243.8</ele>
        <time>2026-08-24T12:05:57Z</time>
      </trkpt>
      <trkpt lat="49.14724" lon="4.08056">
        <ele>244</ele>
        <time>2026-08-24T12:05:58Z</time>
      </trkpt>
      <trkpt lat="49.14723" lon="4.08058">
        <ele>244.2</ele>
        <time>2026-08-24T12:05:59Z</time>
      </trkpt>
      <trkpt lat="49.14721" lon="4.08059">
        <ele>244.4</ele>
        <time>2026-08-24T12:06:00Z</time>
      </trkpt>
      <trkpt lat="49.14719" lon="4.0806">
        <ele>244.6</ele>
        <time>2026-08-24T12:06:01Z</time>
      </trkpt>
      <trkpt lat="49.14718" lon="4.08062">
        <ele>244.8</ele>
        <time>2026-08-24T12:06:02Z</time>
      </trkpt>
      <trkpt lat="49.14716" lon="4.08064">
        <ele>245</ele>
        <time>2026-08-24T12:06:03Z</time>
      </trkpt>
      <trkpt lat="49.14713" lon="4.08066">
        <ele>245.2</ele>
        <time>2026-08-24T12:06:04Z</time>
      </trkpt>
      <trkpt lat="49.14711" lon="4.08067">
        <ele>245.4</ele>
        <time>2026-08-24T12:06:05Z</time>
      </trkpt>
      <trkpt lat="49.1471" lon="4.08069">
        <ele>245.8</ele>
        <time>2026-08-24T12:06:06Z</time>
      </trkpt>
      <trkpt lat="49.14708" lon="4.0807">
        <ele>246</ele>
        <time>2026-08-24T12:06:07Z</time>
      </trkpt>
      <trkpt lat="49.14706" lon="4.08072">
        <ele>246.4</ele>
        <time>2026-08-24T12:06:08Z</time>
      </trkpt>
      <trkpt lat="49.14704" lon="4.08073">
        <ele>246.6</ele>
        <time>2026-08-24T12:06:09Z</time>
      </trkpt>
      <trkpt lat="49.14702" lon="4.08075">
        <ele>246.8</ele>
        <time>2026-08-24T12:06:10Z</time>
      </trkpt>
      <trkpt lat="49.14701" lon="4.08077">
        <ele>247</ele>
        <time>2026-08-24T12:06:11Z</time>
      </trkpt>
      <trkpt lat="49.14699" lon="4.08078">
        <ele>247.2</ele>
        <time>2026-08-24T12:06:12Z</time>
      </trkpt>
      <trkpt lat="49.14697" lon="4.0808">
        <ele>247.2</ele>
        <time>2026-08-24T12:06:13Z</time>
      </trkpt>
      <trkpt lat="49.14695" lon="4.08081">
        <ele>247.4</ele>
        <time>2026-08-24T12:06:14Z</time>
      </trkpt>
      <trkpt lat="49.14693" lon="4.08083">
        <ele>247.6</ele>
        <time>2026-08-24T12:06:15Z</time>
      </trkpt>
      <trkpt lat="49.14692" lon="4.08084">
        <ele>247.8</ele>
        <time>2026-08-24T12:06:16Z</time>
      </trkpt>
      <trkpt lat="49.1469" lon="4.08086">
        <ele>248</ele>
        <time>2026-08-24T12:06:17Z</time>
      </trkpt>
      <trkpt lat="49.14689" lon="4.08087">
        <ele>248.2</ele>
        <time>2026-08-24T12:06:18Z</time>
      </trkpt>
      <trkpt lat="49.14687" lon="4.08089">
        <ele>248.4</ele>
        <time>2026-08-24T12:06:19Z</time>
      </trkpt>
      <trkpt lat="49.14685" lon="4.0809">
        <ele>248.6</ele>
        <time>2026-08-24T12:06:20Z</time>
      </trkpt>
      <trkpt lat="49.14683" lon="4.08092">
        <ele>248.8</ele>
        <time>2026-08-24T12:06:21Z</time>
      </trkpt>
      <trkpt lat="49.14681" lon="4.08094">
        <ele>248.8</ele>
        <time>2026-08-24T12:06:22Z</time>
      </trkpt>
      <trkpt lat="49.14679" lon="4.08095">
        <ele>249</ele>
        <time>2026-08-24T12:06:23Z</time>
      </trkpt>
      <trkpt lat="49.14678" lon="4.08096">
        <ele>249.2</ele>
        <time>2026-08-24T12:06:24Z</time>
      </trkpt>
      <trkpt lat="49.14676" lon="4.08098">
        <ele>249.6</ele>
        <time>2026-08-24T12:06:25Z</time>
      </trkpt>
      <trkpt lat="49.14674" lon="4.08099">
        <ele>249.8</ele>
        <time>2026-08-24T12:06:26Z</time>
      </trkpt>
      <trkpt lat="49.14672" lon="4.081">
        <ele>250</ele>
        <time>2026-08-24T12:06:27Z</time>
      </trkpt>
      <trkpt lat="49.1467" lon="4.08102">
        <ele>250.4</ele>
        <time>2026-08-24T12:06:28Z</time>
      </trkpt>
      <trkpt lat="49.14668" lon="4.08103">
        <ele>250.6</ele>
        <time>2026-08-24T12:06:29Z</time>
      </trkpt>
      <trkpt lat="49.14666" lon="4.08104">
        <ele>250.6</ele>
        <time>2026-08-24T12:06:30Z</time>
      </trkpt>
      <trkpt lat="49.14664" lon="4.08105">
        <ele>250.8</ele>
        <time>2026-08-24T12:06:31Z</time>
      </trkpt>
      <trkpt lat="49.14662" lon="4.08106">
        <ele>251</ele>
        <time>2026-08-24T12:06:32Z</time>
      </trkpt>
      <trkpt lat="49.14661" lon="4.08107">
        <ele>251.4</ele>
        <time>2026-08-24T12:06:33Z</time>
      </trkpt>
      <trkpt lat="49.14659" lon="4.08107">
        <ele>251.6</ele>
        <time>2026-08-24T12:06:34Z</time>
      </trkpt>
      <trkpt lat="49.14656" lon="4.08108">
        <ele>251.8</ele>
        <time>2026-08-24T12:06:35Z</time>
      </trkpt>
      <trkpt lat="49.14654" lon="4.08108">
        <ele>252</ele>
        <time>2026-08-24T12:06:36Z</time>
      </trkpt>
      <trkpt lat="49.14652" lon="4.08108">
        <ele>252.2</ele>
        <time>2026-08-24T12:06:37Z</time>
      </trkpt>
      <trkpt lat="49.1465" lon="4.08108">
        <ele>252.4</ele>
        <time>2026-08-24T12:06:38Z</time>
      </trkpt>
      <trkpt lat="49.14647" lon="4.08108">
        <ele>252.6</ele>
        <time>2026-08-24T12:06:39Z</time>
      </trkpt>
      <trkpt lat="49.14645" lon="4.08108">
        <ele>252.8</ele>
        <time>2026-08-24T12:06:40Z</time>
      </trkpt>
      <trkpt lat="49.14643" lon="4.08108">
        <ele>253</ele>
        <time>2026-08-24T12:06:41Z</time>
      </trkpt>
      <trkpt lat="49.14641" lon="4.08107">
        <ele>253.4</ele>
        <time>2026-08-24T12:06:42Z</time>
      </trkpt>
      <trkpt lat="49.14638" lon="4.08106">
        <ele>253.6</ele>
        <time>2026-08-24T12:06:43Z</time>
      </trkpt>
      <trkpt lat="49.14636" lon="4.08106">
        <ele>254</ele>
        <time>2026-08-24T12:06:44Z</time>
      </trkpt>
      <trkpt lat="49.14634" lon="4.08105">
        <ele>254.2</ele>
        <time>2026-08-24T12:06:45Z</time>
      </trkpt>
      <trkpt lat="49.14632" lon="4.08104">
        <ele>254.4</ele>
        <time>2026-08-24T12:06:46Z</time>
      </trkpt>
      <trkpt lat="49.1463" lon="4.08103">
        <ele>254.8</ele>
        <time>2026-08-24T12:06:47Z</time>
      </trkpt>
      <trkpt lat="49.14628" lon="4.08102">
        <ele>254.8</ele>
        <time>2026-08-24T12:06:48Z</time>
      </trkpt>
      <trkpt lat="49.14626" lon="4.08101">
        <ele>255</ele>
        <time>2026-08-24T12:06:49Z</time>
      </trkpt>
      <trkpt lat="49.14624" lon="4.081">
        <ele>255.4</ele>
        <time>2026-08-24T12:06:50Z</time>
      </trkpt>
      <trkpt lat="49.14622" lon="4.08099">
        <ele>255.6</ele>
        <time>2026-08-24T12:06:51Z</time>
      </trkpt>
      <trkpt lat="49.1462" lon="4.08098">
        <ele>255.8</ele>
        <time>2026-08-24T12:06:52Z</time>
      </trkpt>
      <trkpt lat="49.14618" lon="4.08097">
        <ele>256</ele>
        <time>2026-08-24T12:06:53Z</time>
      </trkpt>
      <trkpt lat="49.14616" lon="4.08095">
        <ele>256.4</ele>
        <time>2026-08-24T12:06:54Z</time>
      </trkpt>
      <trkpt lat="49.14614" lon="4.08094">
        <ele>256.6</ele>
        <time>2026-08-24T12:06:55Z</time>
      </trkpt>
      <trkpt lat="49.14611" lon="4.08093">
        <ele>257</ele>
        <time>2026-08-24T12:06:56Z</time>
      </trkpt>
      <trkpt lat="49.14609" lon="4.08092">
        <ele>257.4</ele>
        <time>2026-08-24T12:06:57Z</time>
      </trkpt>
      <trkpt lat="49.14607" lon="4.08091">
        <ele>257.6</ele>
        <time>2026-08-24T12:06:58Z</time>
      </trkpt>
      <trkpt lat="49.14605" lon="4.0809">
        <ele>257.8</ele>
        <time>2026-08-24T12:06:59Z</time>
      </trkpt>
      <trkpt lat="49.14603" lon="4.08089">
        <ele>258</ele>
        <time>2026-08-24T12:07:00Z</time>
      </trkpt>
      <trkpt lat="49.14601" lon="4.08088">
        <ele>258.2</ele>
        <time>2026-08-24T12:07:01Z</time>
      </trkpt>
      <trkpt lat="49.14599" lon="4.08087">
        <ele>258.2</ele>
        <time>2026-08-24T12:07:02Z</time>
      </trkpt>
      <trkpt lat="49.14597" lon="4.08086">
        <ele>258.4</ele>
        <time>2026-08-24T12:07:03Z</time>
      </trkpt>
      <trkpt lat="49.14595" lon="4.08085">
        <ele>258.8</ele>
        <time>2026-08-24T12:07:04Z</time>
      </trkpt>
      <trkpt lat="49.14593" lon="4.08084">
        <ele>259</ele>
        <time>2026-08-24T12:07:05Z</time>
      </trkpt>
      <trkpt lat="49.14591" lon="4.08082">
        <ele>259.2</ele>
        <time>2026-08-24T12:07:06Z</time>
      </trkpt>
      <trkpt lat="49.14589" lon="4.08081">
        <ele>259.4</ele>
        <time>2026-08-24T12:07:07Z</time>
      </trkpt>
      <trkpt lat="49.14587" lon="4.0808">
        <ele>259.4</ele>
        <time>2026-08-24T12:07:08Z</time>
      </trkpt>
      <trkpt lat="49.14584" lon="4.08078">
        <ele>259.6</ele>
        <time>2026-08-24T12:07:09Z</time>
      </trkpt>
      <trkpt lat="49.14582" lon="4.08077">
        <ele>260</ele>
        <time>2026-08-24T12:07:10Z</time>
      </trkpt>
      <trkpt lat="49.1458" lon="4.08076">
        <ele>260.2</ele>
        <time>2026-08-24T12:07:11Z</time>
      </trkpt>
      <trkpt lat="49.14579" lon="4.08074">
        <ele>260.4</ele>
        <time>2026-08-24T12:07:12Z</time>
      </trkpt>
      <trkpt lat="49.14577" lon="4.08073">
        <ele>260.6</ele>
        <time>2026-08-24T12:07:13Z</time>
      </trkpt>
      <trkpt lat="49.14575" lon="4.08071">
        <ele>260.8</ele>
        <time>2026-08-24T12:07:14Z</time>
      </trkpt>
      <trkpt lat="49.14573" lon="4.0807">
        <ele>260.8</ele>
        <time>2026-08-24T12:07:15Z</time>
      </trkpt>
      <trkpt lat="49.14571" lon="4.08069">
        <ele>261</ele>
        <time>2026-08-24T12:07:16Z</time>
      </trkpt>
      <trkpt lat="49.1457" lon="4.08067">
        <ele>261.2</ele>
        <time>2026-08-24T12:07:17Z</time>
      </trkpt>
      <trkpt lat="49.14568" lon="4.08066">
        <ele>261.6</ele>
        <time>2026-08-24T12:07:18Z</time>
      </trkpt>
      <trkpt lat="49.14566" lon="4.08064">
        <ele>261.8</ele>
        <time>2026-08-24T12:07:19Z</time>
      </trkpt>
      <trkpt lat="49.14564" lon="4.08062">
        <ele>262</ele>
        <time>2026-08-24T12:07:20Z</time>
      </trkpt>
      <trkpt lat="49.14563" lon="4.0806">
        <ele>262.2</ele>
        <time>2026-08-24T12:07:21Z</time>
      </trkpt>
      <trkpt lat="49.14561" lon="4.08057">
        <ele>262.4</ele>
        <time>2026-08-24T12:07:22Z</time>
      </trkpt>
      <trkpt lat="49.14559" lon="4.08055">
        <ele>262.8</ele>
        <time>2026-08-24T12:07:23Z</time>
      </trkpt>
      <trkpt lat="49.14558" lon="4.08053">
        <ele>263</ele>
        <time>2026-08-24T12:07:24Z</time>
      </trkpt>
      <trkpt lat="49.14556" lon="4.0805">
        <ele>263.2</ele>
        <time>2026-08-24T12:07:25Z</time>
      </trkpt>
      <trkpt lat="49.14555" lon="4.08047">
        <ele>263.4</ele>
        <time>2026-08-24T12:07:26Z</time>
      </trkpt>
      <trkpt lat="49.14554" lon="4.08044">
        <ele>263.6</ele>
        <time>2026-08-24T12:07:27Z</time>
      </trkpt>
      <trkpt lat="49.14552" lon="4.08042">
        <ele>263.8</ele>
        <time>2026-08-24T12:07:28Z</time>
      </trkpt>
      <trkpt lat="49.14551" lon="4.08039">
        <ele>264</ele>
        <time>2026-08-24T12:07:29Z</time>
      </trkpt>
      <trkpt lat="49.1455" lon="4.08036">
        <ele>264.2</ele>
        <time>2026-08-24T12:07:30Z</time>
      </trkpt>
      <trkpt lat="49.14549" lon="4.08033">
        <ele>264.4</ele>
        <time>2026-08-24T12:07:31Z</time>
      </trkpt>
      <trkpt lat="49.14547" lon="4.0803">
        <ele>264.6</ele>
        <time>2026-08-24T12:07:32Z</time>
      </trkpt>
      <trkpt lat="49.14546" lon="4.08027">
        <ele>264.8</ele>
        <time>2026-08-24T12:07:33Z</time>
      </trkpt>
      <trkpt lat="49.14546" lon="4.08023">
        <ele>265.2</ele>
        <time>2026-08-24T12:07:34Z</time>
      </trkpt>
      <trkpt lat="49.14545" lon="4.0802">
        <ele>265.4</ele>
        <time>2026-08-24T12:07:35Z</time>
      </trkpt>
      <trkpt lat="49.14544" lon="4.08016">
        <ele>265.8</ele>
        <time>2026-08-24T12:07:36Z</time>
      </trkpt>
      <trkpt lat="49.14543" lon="4.08013">
        <ele>266</ele>
        <time>2026-08-24T12:07:37Z</time>
      </trkpt>
      <trkpt lat="49.14542" lon="4.0801">
        <ele>266.4</ele>
        <time>2026-08-24T12:07:38Z</time>
      </trkpt>
      <trkpt lat="49.14541" lon="4.08007">
        <ele>266.8</ele>
        <time>2026-08-24T12:07:39Z</time>
      </trkpt>
      <trkpt lat="49.14541" lon="4.08004">
        <ele>267</ele>
        <time>2026-08-24T12:07:40Z</time>
      </trkpt>
      <trkpt lat="49.1454" lon="4.08001">
        <ele>267.2</ele>
        <time>2026-08-24T12:07:41Z</time>
      </trkpt>
      <trkpt lat="49.14539" lon="4.07998">
        <ele>267.4</ele>
        <time>2026-08-24T12:07:42Z</time>
      </trkpt>
      <trkpt lat="49.14538" lon="4.07995">
        <ele>267.6</ele>
        <time>2026-08-24T12:07:43Z</time>
      </trkpt>
      <trkpt lat="49.14537" lon="4.07992">
        <ele>268</ele>
        <time>2026-08-24T12:07:44Z</time>
      </trkpt>
      <trkpt lat="49.14536" lon="4.07989">
        <ele>268.2</ele>
        <time>2026-08-24T12:07:45Z</time>
      </trkpt>
      <trkpt lat="49.14536" lon="4.07986">
        <ele>268.4</ele>
        <time>2026-08-24T12:07:46Z</time>
      </trkpt>
      <trkpt lat="49.14534" lon="4.07982">
        <ele>268.8</ele>
        <time>2026-08-24T12:07:47Z</time>
      </trkpt>
      <trkpt lat="49.14533" lon="4.07979">
        <ele>269</ele>
        <time>2026-08-24T12:07:48Z</time>
      </trkpt>
      <trkpt lat="49.14532" lon="4.07976">
        <ele>269.2</ele>
        <time>2026-08-24T12:07:49Z</time>
      </trkpt>
      <trkpt lat="49.14531" lon="4.07972">
        <ele>269.4</ele>
        <time>2026-08-24T12:07:50Z</time>
      </trkpt>
      <trkpt lat="49.1453" lon="4.07969">
        <ele>269.6</ele>
        <time>2026-08-24T12:07:51Z</time>
      </trkpt>
      <trkpt lat="49.14529" lon="4.07965">
        <ele>270</ele>
        <time>2026-08-24T12:07:52Z</time>
      </trkpt>
      <trkpt lat="49.14528" lon="4.07961">
        <ele>270.2</ele>
        <time>2026-08-24T12:07:53Z</time>
      </trkpt>
      <trkpt lat="49.14527" lon="4.07958">
        <ele>270.4</ele>
        <time>2026-08-24T12:07:54Z</time>
      </trkpt>
      <trkpt lat="49.14526" lon="4.07954">
        <ele>270.8</ele>
        <time>2026-08-24T12:07:55Z</time>
      </trkpt>
      <trkpt lat="49.14525" lon="4.0795">
        <ele>271</ele>
        <time>2026-08-24T12:07:56Z</time>
      </trkpt>
      <trkpt lat="49.14524" lon="4.07947">
        <ele>271.4</ele>
        <time>2026-08-24T12:07:57Z</time>
      </trkpt>
      <trkpt lat="49.14523" lon="4.07943">
        <ele>271.8</ele>
        <time>2026-08-24T12:07:58Z</time>
      </trkpt>
      <trkpt lat="49.14523" lon="4.07939">
        <ele>272</ele>
        <time>2026-08-24T12:07:59Z</time>
      </trkpt>
      <trkpt lat="49.14522" lon="4.07935">
        <ele>272.4</ele>
        <time>2026-08-24T12:08:00Z</time>
      </trkpt>
      <trkpt lat="49.14521" lon="4.07931">
        <ele>272.6</ele>
        <time>2026-08-24T12:08:01Z</time>
      </trkpt>
      <trkpt lat="49.1452" lon="4.07927">
        <ele>272.8</ele>
        <time>2026-08-24T12:08:02Z</time>
      </trkpt>
      <trkpt lat="49.14518" lon="4.07924">
        <ele>273</ele>
        <time>2026-08-24T12:08:03Z</time>
      </trkpt>
      <trkpt lat="49.14517" lon="4.0792">
        <ele>273.2</ele>
        <time>2026-08-24T12:08:04Z</time>
      </trkpt>
      <trkpt lat="49.14516" lon="4.07916">
        <ele>273.4</ele>
        <time>2026-08-24T12:08:05Z</time>
      </trkpt>
      <trkpt lat="49.14515" lon="4.07911">
        <ele>273.6</ele>
        <time>2026-08-24T12:08:06Z</time>
      </trkpt>
      <trkpt lat="49.14514" lon="4.07907">
        <ele>273.8</ele>
        <time>2026-08-24T12:08:07Z</time>
      </trkpt>
      <trkpt lat="49.14513" lon="4.07903">
        <ele>274.2</ele>
        <time>2026-08-24T12:08:08Z</time>
      </trkpt>
      <trkpt lat="49.14511" lon="4.07898">
        <ele>274.4</ele>
        <time>2026-08-24T12:08:09Z</time>
      </trkpt>
      <trkpt lat="49.1451" lon="4.07894">
        <ele>274.6</ele>
        <time>2026-08-24T12:08:10Z</time>
      </trkpt>
      <trkpt lat="49.14509" lon="4.07889">
        <ele>274.6</ele>
        <time>2026-08-24T12:08:11Z</time>
      </trkpt>
      <trkpt lat="49.14508" lon="4.07885">
        <ele>274.6</ele>
        <time>2026-08-24T12:08:12Z</time>
      </trkpt>
      <trkpt lat="49.14506" lon="4.07881">
        <ele>274.8</ele>
        <time>2026-08-24T12:08:13Z</time>
      </trkpt>
      <trkpt lat="49.14505" lon="4.07876">
        <ele>275</ele>
        <time>2026-08-24T12:08:14Z</time>
      </trkpt>
      <trkpt lat="49.14504" lon="4.07872">
        <ele>275</ele>
        <time>2026-08-24T12:08:15Z</time>
      </trkpt>
      <trkpt lat="49.14503" lon="4.07867">
        <ele>275.2</ele>
        <time>2026-08-24T12:08:16Z</time>
      </trkpt>
      <trkpt lat="49.14502" lon="4.07862">
        <ele>275.2</ele>
        <time>2026-08-24T12:08:17Z</time>
      </trkpt>
      <trkpt lat="49.145" lon="4.07858">
        <ele>275.4</ele>
        <time>2026-08-24T12:08:18Z</time>
      </trkpt>
      <trkpt lat="49.14499" lon="4.07853">
        <ele>275.4</ele>
        <time>2026-08-24T12:08:19Z</time>
      </trkpt>
      <trkpt lat="49.14498" lon="4.07848">
        <ele>275.6</ele>
        <time>2026-08-24T12:08:20Z</time>
      </trkpt>
      <trkpt lat="49.14497" lon="4.07842">
        <ele>275.8</ele>
        <time>2026-08-24T12:08:21Z</time>
      </trkpt>
      <trkpt lat="49.14495" lon="4.07837">
        <ele>275.8</ele>
        <time>2026-08-24T12:08:22Z</time>
      </trkpt>
      <trkpt lat="49.14494" lon="4.07832">
        <ele>276</ele>
        <time>2026-08-24T12:08:23Z</time>
      </trkpt>
      <trkpt lat="49.14492" lon="4.07826">
        <ele>276.2</ele>
        <time>2026-08-24T12:08:24Z</time>
      </trkpt>
      <trkpt lat="49.14491" lon="4.07821">
        <ele>276.4</ele>
        <time>2026-08-24T12:08:25Z</time>
      </trkpt>
      <trkpt lat="49.14489" lon="4.07815">
        <ele>276.4</ele>
        <time>2026-08-24T12:08:26Z</time>
      </trkpt>
      <trkpt lat="49.14488" lon="4.07809">
        <ele>276.6</ele>
        <time>2026-08-24T12:08:27Z</time>
      </trkpt>
      <trkpt lat="49.14486" lon="4.07803">
        <ele>276.8</ele>
        <time>2026-08-24T12:08:28Z</time>
      </trkpt>
      <trkpt lat="49.14484" lon="4.07796">
        <ele>276.8</ele>
        <time>2026-08-24T12:08:29Z</time>
      </trkpt>
      <trkpt lat="49.14482" lon="4.07789">
        <ele>276.8</ele>
        <time>2026-08-24T12:08:30Z</time>
      </trkpt>
      <trkpt lat="49.14481" lon="4.07782">
        <ele>276.8</ele>
        <time>2026-08-24T12:08:31Z</time>
      </trkpt>
      <trkpt lat="49.14479" lon="4.07776">
        <ele>276.6</ele>
        <time>2026-08-24T12:08:32Z</time>
      </trkpt>
      <trkpt lat="49.14477" lon="4.07769">
        <ele>276.8</ele>
        <time>2026-08-24T12:08:33Z</time>
      </trkpt>
      <trkpt lat="49.14475" lon="4.07762">
        <ele>276.8</ele>
        <time>2026-08-24T12:08:34Z</time>
      </trkpt>
      <trkpt lat="49.14474" lon="4.07755">
        <ele>277</ele>
        <time>2026-08-24T12:08:35Z</time>
      </trkpt>
      <trkpt lat="49.14472" lon="4.07748">
        <ele>277</ele>
        <time>2026-08-24T12:08:36Z</time>
      </trkpt>
      <trkpt lat="49.1447" lon="4.0774">
        <ele>277.2</ele>
        <time>2026-08-24T12:08:37Z</time>
      </trkpt>
      <trkpt lat="49.14468" lon="4.07733">
        <ele>277.2</ele>
        <time>2026-08-24T12:08:38Z</time>
      </trkpt>
      <trkpt lat="49.14466" lon="4.07726">
        <ele>277.2</ele>
        <time>2026-08-24T12:08:39Z</time>
      </trkpt>
      <trkpt lat="49.14464" lon="4.07719">
        <ele>277.2</ele>
        <time>2026-08-24T12:08:40Z</time>
      </trkpt>
      <trkpt lat="49.14462" lon="4.07711">
        <ele>277.2</ele>
        <time>2026-08-24T12:08:41Z</time>
      </trkpt>
      <trkpt lat="49.14461" lon="4.07704">
        <ele>277.2</ele>
        <time>2026-08-24T12:08:42Z</time>
      </trkpt>
      <trkpt lat="49.14459" lon="4.07696">
        <ele>277.4</ele>
        <time>2026-08-24T12:08:43Z</time>
      </trkpt>
      <trkpt lat="49.14457" lon="4.07689">
        <ele>277.2</ele>
        <time>2026-08-24T12:08:44Z</time>
      </trkpt>
      <trkpt lat="49.14455" lon="4.07681">
        <ele>277.4</ele>
        <time>2026-08-24T12:08:45Z</time>
      </trkpt>
      <trkpt lat="49.14453" lon="4.07674">
        <ele>277.6</ele>
        <time>2026-08-24T12:08:46Z</time>
      </trkpt>
      <trkpt lat="49.14451" lon="4.07666">
        <ele>277.6</ele>
        <time>2026-08-24T12:08:47Z</time>
      </trkpt>
      <trkpt lat="49.14449" lon="4.07659">
        <ele>277.8</ele>
        <time>2026-08-24T12:08:48Z</time>
      </trkpt>
      <trkpt lat="49.14446" lon="4.07652">
        <ele>277.8</ele>
        <time>2026-08-24T12:08:49Z</time>
      </trkpt>
      <trkpt lat="49.14443" lon="4.07644">
        <ele>277.8</ele>
        <time>2026-08-24T12:08:50Z</time>
      </trkpt>
      <trkpt lat="49.14439" lon="4.07637">
        <ele>277.8</ele>
        <time>2026-08-24T12:08:51Z</time>
      </trkpt>
      <trkpt lat="49.14436" lon="4.0763">
        <ele>277.8</ele>
        <time>2026-08-24T12:08:52Z</time>
      </trkpt>
      <trkpt lat="49.14432" lon="4.07624">
        <ele>278</ele>
        <time>2026-08-24T12:08:53Z</time>
      </trkpt>
      <trkpt lat="49.14428" lon="4.07618">
        <ele>278</ele>
        <time>2026-08-24T12:08:54Z</time>
      </trkpt>
      <trkpt lat="49.14424" lon="4.07611">
        <ele>278.2</ele>
        <time>2026-08-24T12:08:55Z</time>
      </trkpt>
      <trkpt lat="49.1442" lon="4.07605">
        <ele>278.6</ele>
        <time>2026-08-24T12:08:56Z</time>
      </trkpt>
      <trkpt lat="49.14416" lon="4.076">
        <ele>278.8</ele>
        <time>2026-08-24T12:08:57Z</time>
      </trkpt>
      <trkpt lat="49.14413" lon="4.07595">
        <ele>278.8</ele>
        <time>2026-08-24T12:08:58Z</time>
      </trkpt>
      <trkpt lat="49.14409" lon="4.07589">
        <ele>278.8</ele>
        <time>2026-08-24T12:08:59Z</time>
      </trkpt>
      <trkpt lat="49.14405" lon="4.07584">
        <ele>279</ele>
        <time>2026-08-24T12:09:00Z</time>
      </trkpt>
      <trkpt lat="49.14401" lon="4.07578">
        <ele>279.2</ele>
        <time>2026-08-24T12:09:01Z</time>
      </trkpt>
      <trkpt lat="49.14397" lon="4.07572">
        <ele>279.2</ele>
        <time>2026-08-24T12:09:02Z</time>
      </trkpt>
      <trkpt lat="49.14393" lon="4.07567">
        <ele>279.2</ele>
        <time>2026-08-24T12:09:03Z</time>
      </trkpt>
      <trkpt lat="49.14389" lon="4.07561">
        <ele>279</ele>
        <time>2026-08-24T12:09:04Z</time>
      </trkpt>
      <trkpt lat="49.14385" lon="4.07556">
        <ele>279</ele>
        <time>2026-08-24T12:09:05Z</time>
      </trkpt>
      <trkpt lat="49.14381" lon="4.0755">
        <ele>279</ele>
        <time>2026-08-24T12:09:06Z</time>
      </trkpt>
      <trkpt lat="49.14377" lon="4.07546">
        <ele>279.2</ele>
        <time>2026-08-24T12:09:07Z</time>
      </trkpt>
      <trkpt lat="49.14373" lon="4.0754">
        <ele>279.4</ele>
        <time>2026-08-24T12:09:08Z</time>
      </trkpt>
      <trkpt lat="49.14369" lon="4.07533">
        <ele>279.6</ele>
        <time>2026-08-24T12:09:09Z</time>
      </trkpt>
      <trkpt lat="49.14365" lon="4.07526">
        <ele>279.6</ele>
        <time>2026-08-24T12:09:10Z</time>
      </trkpt>
      <trkpt lat="49.14361" lon="4.0752">
        <ele>279.6</ele>
        <time>2026-08-24T12:09:11Z</time>
      </trkpt>
      <trkpt lat="49.14358" lon="4.07515">
        <ele>279.6</ele>
        <time>2026-08-24T12:09:12Z</time>
      </trkpt>
      <trkpt lat="49.14354" lon="4.07509">
        <ele>279.8</ele>
        <time>2026-08-24T12:09:13Z</time>
      </trkpt>
      <trkpt lat="49.14349" lon="4.07503">
        <ele>280.2</ele>
        <time>2026-08-24T12:09:14Z</time>
      </trkpt>
      <trkpt lat="49.14345" lon="4.07497">
        <ele>280.4</ele>
        <time>2026-08-24T12:09:15Z</time>
      </trkpt>
      <trkpt lat="49.14341" lon="4.07492">
        <ele>280.6</ele>
        <time>2026-08-24T12:09:16Z</time>
      </trkpt>
      <trkpt lat="49.14337" lon="4.07486">
        <ele>280.8</ele>
        <time>2026-08-24T12:09:17Z</time>
      </trkpt>
      <trkpt lat="49.14332" lon="4.0748">
        <ele>280.8</ele>
        <time>2026-08-24T12:09:18Z</time>
      </trkpt>
      <trkpt lat="49.14326" lon="4.07473">
        <ele>281</ele>
        <time>2026-08-24T12:09:19Z</time>
      </trkpt>
      <trkpt lat="49.14322" lon="4.07468">
        <ele>281</ele>
        <time>2026-08-24T12:09:20Z</time>
      </trkpt>
      <trkpt lat="49.14317" lon="4.07462">
        <ele>281.4</ele>
        <time>2026-08-24T12:09:21Z</time>
      </trkpt>
      <trkpt lat="49.14311" lon="4.07456">
        <ele>281.4</ele>
        <time>2026-08-24T12:09:22Z</time>
      </trkpt>
      <trkpt lat="49.14307" lon="4.07449">
        <ele>281.8</ele>
        <time>2026-08-24T12:09:23Z</time>
      </trkpt>
      <trkpt lat="49.14302" lon="4.07442">
        <ele>281.8</ele>
        <time>2026-08-24T12:09:24Z</time>
      </trkpt>
      <trkpt lat="49.14298" lon="4.07436">
        <ele>281.8</ele>
        <time>2026-08-24T12:09:25Z</time>
      </trkpt>
      <trkpt lat="49.14293" lon="4.07429">
        <ele>282</ele>
        <time>2026-08-24T12:09:26Z</time>
      </trkpt>
      <trkpt lat="49.14288" lon="4.07422">
        <ele>282</ele>
        <time>2026-08-24T12:09:27Z</time>
      </trkpt>
      <trkpt lat="49.14283" lon="4.07417">
        <ele>282.2</ele>
        <time>2026-08-24T12:09:28Z</time>
      </trkpt>
      <trkpt lat="49.14278" lon="4.07411">
        <ele>282.4</ele>
        <time>2026-08-24T12:09:29Z</time>
      </trkpt>
      <trkpt lat="49.14273" lon="4.07405">
        <ele>282.2</ele>
        <time>2026-08-24T12:09:30Z</time>
      </trkpt>
      <trkpt lat="49.14269" lon="4.07398">
        <ele>282</ele>
        <time>2026-08-24T12:09:31Z</time>
      </trkpt>
      <trkpt lat="49.14265" lon="4.07389">
        <ele>282</ele>
        <time>2026-08-24T12:09:32Z</time>
      </trkpt>
      <trkpt lat="49.1426" lon="4.07381">
        <ele>281.8</ele>
        <time>2026-08-24T12:09:33Z</time>
      </trkpt>
      <trkpt lat="49.14254" lon="4.07373">
        <ele>281.6</ele>
        <time>2026-08-24T12:09:34Z</time>
      </trkpt>
      <trkpt lat="49.14249" lon="4.07367">
        <ele>281.8</ele>
        <time>2026-08-24T12:09:35Z</time>
      </trkpt>
      <trkpt lat="49.14243" lon="4.07361">
        <ele>282</ele>
        <time>2026-08-24T12:09:36Z</time>
      </trkpt>
      <trkpt lat="49.14238" lon="4.07355">
        <ele>281.6</ele>
        <time>2026-08-24T12:09:37Z</time>
      </trkpt>
      <trkpt lat="49.14232" lon="4.07349">
        <ele>281.6</ele>
        <time>2026-08-24T12:09:38Z</time>
      </trkpt>
      <trkpt lat="49.14225" lon="4.07345">
        <ele>281.8</ele>
        <time>2026-08-24T12:09:39Z</time>
      </trkpt>
      <trkpt lat="49.14218" lon="4.07341">
        <ele>281.4</ele>
        <time>2026-08-24T12:09:40Z</time>
      </trkpt>
      <trkpt lat="49.14212" lon="4.0734">
        <ele>281</ele>
        <time>2026-08-24T12:09:41Z</time>
      </trkpt>
      <trkpt lat="49.14205" lon="4.07339">
        <ele>281</ele>
        <time>2026-08-24T12:09:42Z</time>
      </trkpt>
      <trkpt lat="49.14198" lon="4.07338">
        <ele>281</ele>
        <time>2026-08-24T12:09:43Z</time>
      </trkpt>
      <trkpt lat="49.14191" lon="4.07336">
        <ele>280.6</ele>
        <time>2026-08-24T12:09:44Z</time>
      </trkpt>
      <trkpt lat="49.14183" lon="4.07335">
        <ele>280.6</ele>
        <time>2026-08-24T12:09:45Z</time>
      </trkpt>
      <trkpt lat="49.14176" lon="4.07334">
        <ele>280.8</ele>
        <time>2026-08-24T12:09:46Z</time>
      </trkpt>
      <trkpt lat="49.14169" lon="4.07333">
        <ele>280.4</ele>
        <time>2026-08-24T12:09:47Z</time>
      </trkpt>
      <trkpt lat="49.14161" lon="4.07332">
        <ele>280</ele>
        <time>2026-08-24T12:09:48Z</time>
      </trkpt>
      <trkpt lat="49.14153" lon="4.07331">
        <ele>279.8</ele>
        <time>2026-08-24T12:09:49Z</time>
      </trkpt>
      <trkpt lat="49.14146" lon="4.0733">
        <ele>279.4</ele>
        <time>2026-08-24T12:09:50Z</time>
      </trkpt>
      <trkpt lat="49.14138" lon="4.0733">
        <ele>279.2</ele>
        <time>2026-08-24T12:09:51Z</time>
      </trkpt>
      <trkpt lat="49.14131" lon="4.07328">
        <ele>279.2</ele>
        <time>2026-08-24T12:09:52Z</time>
      </trkpt>
      <trkpt lat="49.14123" lon="4.07327">
        <ele>279.2</ele>
        <time>2026-08-24T12:09:53Z</time>
      </trkpt>
      <trkpt lat="49.14115" lon="4.07326">
        <ele>279.2</ele>
        <time>2026-08-24T12:09:54Z</time>
      </trkpt>
      <trkpt lat="49.14108" lon="4.07324">
        <ele>279.4</ele>
        <time>2026-08-24T12:09:55Z</time>
      </trkpt>
      <trkpt lat="49.141" lon="4.07323">
        <ele>279.2</ele>
        <time>2026-08-24T12:09:56Z</time>
      </trkpt>
      <trkpt lat="49.14092" lon="4.07322">
        <ele>279</ele>
        <time>2026-08-24T12:09:57Z</time>
      </trkpt>
      <trkpt lat="49.14085" lon="4.07321">
        <ele>279</ele>
        <time>2026-08-24T12:09:58Z</time>
      </trkpt>
      <trkpt lat="49.14077" lon="4.07321">
        <ele>279</ele>
        <time>2026-08-24T12:09:59Z</time>
      </trkpt>
      <trkpt lat="49.1407" lon="4.07319">
        <ele>278.6</ele>
        <time>2026-08-24T12:10:00Z</time>
      </trkpt>
      <trkpt lat="49.14062" lon="4.07318">
        <ele>279</ele>
        <time>2026-08-24T12:10:01Z</time>
      </trkpt>
      <trkpt lat="49.14055" lon="4.07317">
        <ele>278.8</ele>
        <time>2026-08-24T12:10:02Z</time>
      </trkpt>
      <trkpt lat="49.14047" lon="4.07316">
        <ele>278.8</ele>
        <time>2026-08-24T12:10:03Z</time>
      </trkpt>
      <trkpt lat="49.1404" lon="4.07314">
        <ele>279.2</ele>
        <time>2026-08-24T12:10:04Z</time>
      </trkpt>
      <trkpt lat="49.14033" lon="4.07313">
        <ele>279.2</ele>
        <time>2026-08-24T12:10:05Z</time>
      </trkpt>
      <trkpt lat="49.14025" lon="4.07311">
        <ele>279.2</ele>
        <time>2026-08-24T12:10:06Z</time>
      </trkpt>
      <trkpt lat="49.14018" lon="4.0731">
        <ele>279</ele>
        <time>2026-08-24T12:10:07Z</time>
      </trkpt>
      <trkpt lat="49.1401" lon="4.07309">
        <ele>279.2</ele>
        <time>2026-08-24T12:10:08Z</time>
      </trkpt>
      <trkpt lat="49.14003" lon="4.07308">
        <ele>279</ele>
        <time>2026-08-24T12:10:09Z</time>
      </trkpt>
      <trkpt lat="49.13995" lon="4.07306">
        <ele>279</ele>
        <time>2026-08-24T12:10:10Z</time>
      </trkpt>
      <trkpt lat="49.13987" lon="4.07305">
        <ele>279.2</ele>
        <time>2026-08-24T12:10:11Z</time>
      </trkpt>
      <trkpt lat="49.1398" lon="4.07304">
        <ele>279.2</ele>
        <time>2026-08-24T12:10:12Z</time>
      </trkpt>
      <trkpt lat="49.13972" lon="4.07303">
        <ele>279.2</ele>
        <time>2026-08-24T12:10:13Z</time>
      </trkpt>
      <trkpt lat="49.13964" lon="4.07302">
        <ele>279.4</ele>
        <time>2026-08-24T12:10:14Z</time>
      </trkpt>
      <trkpt lat="49.13957" lon="4.073">
        <ele>279.4</ele>
        <time>2026-08-24T12:10:15Z</time>
      </trkpt>
      <trkpt lat="49.13949" lon="4.07299">
        <ele>279</ele>
        <time>2026-08-24T12:10:16Z</time>
      </trkpt>
      <trkpt lat="49.13941" lon="4.07298">
        <ele>278.8</ele>
        <time>2026-08-24T12:10:17Z</time>
      </trkpt>
      <trkpt lat="49.13933" lon="4.07297">
        <ele>278.8</ele>
        <time>2026-08-24T12:10:18Z</time>
      </trkpt>
      <trkpt lat="49.13926" lon="4.07295">
        <ele>278.2</ele>
        <time>2026-08-24T12:10:19Z</time>
      </trkpt>
      <trkpt lat="49.13918" lon="4.07294">
        <ele>278.2</ele>
        <time>2026-08-24T12:10:20Z</time>
      </trkpt>
      <trkpt lat="49.13909" lon="4.07292">
        <ele>278.2</ele>
        <time>2026-08-24T12:10:21Z</time>
      </trkpt>
      <trkpt lat="49.13901" lon="4.0729">
        <ele>278.2</ele>
        <time>2026-08-24T12:10:22Z</time>
      </trkpt>
      <trkpt lat="49.13893" lon="4.07289">
        <ele>278.2</ele>
        <time>2026-08-24T12:10:23Z</time>
      </trkpt>
      <trkpt lat="49.13885" lon="4.07288">
        <ele>278.4</ele>
        <time>2026-08-24T12:10:24Z</time>
      </trkpt>
      <trkpt lat="49.13876" lon="4.07286">
        <ele>278</ele>
        <time>2026-08-24T12:10:25Z</time>
      </trkpt>
      <trkpt lat="49.13868" lon="4.07285">
        <ele>277.8</ele>
        <time>2026-08-24T12:10:26Z</time>
      </trkpt>
      <trkpt lat="49.1386" lon="4.07284">
        <ele>277.6</ele>
        <time>2026-08-24T12:10:27Z</time>
      </trkpt>
      <trkpt lat="49.13852" lon="4.07282">
        <ele>277.4</ele>
        <time>2026-08-24T12:10:28Z</time>
      </trkpt>
      <trkpt lat="49.13843" lon="4.07281">
        <ele>277.4</ele>
        <time>2026-08-24T12:10:29Z</time>
      </trkpt>
      <trkpt lat="49.13835" lon="4.0728">
        <ele>277.4</ele>
        <time>2026-08-24T12:10:30Z</time>
      </trkpt>
      <trkpt lat="49.13826" lon="4.07278">
        <ele>277.2</ele>
        <time>2026-08-24T12:10:31Z</time>
      </trkpt>
      <trkpt lat="49.13818" lon="4.07277">
        <ele>277</ele>
        <time>2026-08-24T12:10:32Z</time>
      </trkpt>
      <trkpt lat="49.13809" lon="4.07275">
        <ele>277.2</ele>
        <time>2026-08-24T12:10:33Z</time>
      </trkpt>
      <trkpt lat="49.138" lon="4.07274">
        <ele>276.8</ele>
        <time>2026-08-24T12:10:34Z</time>
      </trkpt>
      <trkpt lat="49.13791" lon="4.07273">
        <ele>276.6</ele>
        <time>2026-08-24T12:10:35Z</time>
      </trkpt>
      <trkpt lat="49.13782" lon="4.07271">
        <ele>276.6</ele>
        <time>2026-08-24T12:10:36Z</time>
      </trkpt>
      <trkpt lat="49.13774" lon="4.07269">
        <ele>276.4</ele>
        <time>2026-08-24T12:10:37Z</time>
      </trkpt>
      <trkpt lat="49.13765" lon="4.07267">
        <ele>276</ele>
        <time>2026-08-24T12:10:38Z</time>
      </trkpt>
      <trkpt lat="49.13756" lon="4.07266">
        <ele>275.8</ele>
        <time>2026-08-24T12:10:39Z</time>
      </trkpt>
      <trkpt lat="49.13747" lon="4.07265">
        <ele>275.8</ele>
        <time>2026-08-24T12:10:40Z</time>
      </trkpt>
      <trkpt lat="49.13738" lon="4.07263">
        <ele>275.6</ele>
        <time>2026-08-24T12:10:41Z</time>
      </trkpt>
      <trkpt lat="49.13728" lon="4.07262">
        <ele>275.6</ele>
        <time>2026-08-24T12:10:42Z</time>
      </trkpt>
      <trkpt lat="49.13719" lon="4.0726">
        <ele>275.4</ele>
        <time>2026-08-24T12:10:43Z</time>
      </trkpt>
      <trkpt lat="49.13711" lon="4.07259">
        <ele>275.4</ele>
        <time>2026-08-24T12:10:44Z</time>
      </trkpt>
      <trkpt lat="49.13702" lon="4.07257">
        <ele>275.4</ele>
        <time>2026-08-24T12:10:45Z</time>
      </trkpt>
      <trkpt lat="49.13693" lon="4.07256">
        <ele>275.6</ele>
        <time>2026-08-24T12:10:46Z</time>
      </trkpt>
      <trkpt lat="49.13684" lon="4.07255">
        <ele>275.6</ele>
        <time>2026-08-24T12:10:47Z</time>
      </trkpt>
      <trkpt lat="49.13675" lon="4.07253">
        <ele>275.6</ele>
        <time>2026-08-24T12:10:48Z</time>
      </trkpt>
      <trkpt lat="49.13667" lon="4.07252">
        <ele>275.4</ele>
        <time>2026-08-24T12:10:49Z</time>
      </trkpt>
      <trkpt lat="49.13658" lon="4.07251">
        <ele>275</ele>
        <time>2026-08-24T12:10:50Z</time>
      </trkpt>
      <trkpt lat="49.13649" lon="4.07248">
        <ele>274.6</ele>
        <time>2026-08-24T12:10:51Z</time>
      </trkpt>
      <trkpt lat="49.13641" lon="4.07247">
        <ele>274.6</ele>
        <time>2026-08-24T12:10:52Z</time>
      </trkpt>
      <trkpt lat="49.13632" lon="4.07245">
        <ele>274.2</ele>
        <time>2026-08-24T12:10:53Z</time>
      </trkpt>
      <trkpt lat="49.13622" lon="4.07244">
        <ele>274.2</ele>
        <time>2026-08-24T12:10:54Z</time>
      </trkpt>
      <trkpt lat="49.13613" lon="4.07242">
        <ele>274.2</ele>
        <time>2026-08-24T12:10:55Z</time>
      </trkpt>
      <trkpt lat="49.13603" lon="4.07241">
        <ele>274</ele>
        <time>2026-08-24T12:10:56Z</time>
      </trkpt>
      <trkpt lat="49.13594" lon="4.07239">
        <ele>274</ele>
        <time>2026-08-24T12:10:57Z</time>
      </trkpt>
      <trkpt lat="49.13584" lon="4.07238">
        <ele>273.6</ele>
        <time>2026-08-24T12:10:58Z</time>
      </trkpt>
      <trkpt lat="49.13575" lon="4.07236">
        <ele>273.2</ele>
        <time>2026-08-24T12:10:59Z</time>
      </trkpt>
      <trkpt lat="49.13566" lon="4.07235">
        <ele>272.8</ele>
        <time>2026-08-24T12:11:00Z</time>
      </trkpt>
      <trkpt lat="49.13556" lon="4.07233">
        <ele>272.6</ele>
        <time>2026-08-24T12:11:01Z</time>
      </trkpt>
      <trkpt lat="49.13547" lon="4.07231">
        <ele>272.4</ele>
        <time>2026-08-24T12:11:02Z</time>
      </trkpt>
      <trkpt lat="49.13538" lon="4.0723">
        <ele>272.6</ele>
        <time>2026-08-24T12:11:03Z</time>
      </trkpt>
      <trkpt lat="49.13528" lon="4.07228">
        <ele>272.6</ele>
        <time>2026-08-24T12:11:04Z</time>
      </trkpt>
      <trkpt lat="49.13519" lon="4.07227">
        <ele>272.2</ele>
        <time>2026-08-24T12:11:05Z</time>
      </trkpt>
      <trkpt lat="49.1351" lon="4.07225">
        <ele>272</ele>
        <time>2026-08-24T12:11:06Z</time>
      </trkpt>
      <trkpt lat="49.135" lon="4.07223">
        <ele>271.6</ele>
        <time>2026-08-24T12:11:07Z</time>
      </trkpt>
      <trkpt lat="49.13491" lon="4.07222">
        <ele>271.4</ele>
        <time>2026-08-24T12:11:08Z</time>
      </trkpt>
      <trkpt lat="49.13481" lon="4.0722">
        <ele>271.4</ele>
        <time>2026-08-24T12:11:09Z</time>
      </trkpt>
      <trkpt lat="49.13472" lon="4.07218">
        <ele>271.2</ele>
        <time>2026-08-24T12:11:10Z</time>
      </trkpt>
      <trkpt lat="49.13463" lon="4.07217">
        <ele>271</ele>
        <time>2026-08-24T12:11:11Z</time>
      </trkpt>
      <trkpt lat="49.13454" lon="4.07215">
        <ele>271.2</ele>
        <time>2026-08-24T12:11:12Z</time>
      </trkpt>
      <trkpt lat="49.13444" lon="4.07214">
        <ele>271.2</ele>
        <time>2026-08-24T12:11:13Z</time>
      </trkpt>
      <trkpt lat="49.13435" lon="4.07212">
        <ele>271</ele>
        <time>2026-08-24T12:11:14Z</time>
      </trkpt>
      <trkpt lat="49.13425" lon="4.07211">
        <ele>271</ele>
        <time>2026-08-24T12:11:15Z</time>
      </trkpt>
      <trkpt lat="49.13416" lon="4.07209">
        <ele>271</ele>
        <time>2026-08-24T12:11:16Z</time>
      </trkpt>
      <trkpt lat="49.13406" lon="4.07207">
        <ele>270.8</ele>
        <time>2026-08-24T12:11:17Z</time>
      </trkpt>
      <trkpt lat="49.13397" lon="4.07206">
        <ele>270.4</ele>
        <time>2026-08-24T12:11:18Z</time>
      </trkpt>
      <trkpt lat="49.13388" lon="4.07204">
        <ele>270.4</ele>
        <time>2026-08-24T12:11:19Z</time>
      </trkpt>
      <trkpt lat="49.13378" lon="4.07203">
        <ele>270</ele>
        <time>2026-08-24T12:11:20Z</time>
      </trkpt>
      <trkpt lat="49.13369" lon="4.07201">
        <ele>269.8</ele>
        <time>2026-08-24T12:11:21Z</time>
      </trkpt>
      <trkpt lat="49.1336" lon="4.072">
        <ele>269.8</ele>
        <time>2026-08-24T12:11:22Z</time>
      </trkpt>
      <trkpt lat="49.13351" lon="4.07198">
        <ele>269.6</ele>
        <time>2026-08-24T12:11:23Z</time>
      </trkpt>
      <trkpt lat="49.13342" lon="4.07197">
        <ele>269.6</ele>
        <time>2026-08-24T12:11:24Z</time>
      </trkpt>
      <trkpt lat="49.13333" lon="4.07195">
        <ele>269.8</ele>
        <time>2026-08-24T12:11:25Z</time>
      </trkpt>
      <trkpt lat="49.13323" lon="4.07194">
        <ele>269.8</ele>
        <time>2026-08-24T12:11:26Z</time>
      </trkpt>
      <trkpt lat="49.13315" lon="4.07192">
        <ele>269.8</ele>
        <time>2026-08-24T12:11:27Z</time>
      </trkpt>
      <trkpt lat="49.13306" lon="4.0719">
        <ele>269.8</ele>
        <time>2026-08-24T12:11:28Z</time>
      </trkpt>
      <trkpt lat="49.13297" lon="4.07189">
        <ele>269.8</ele>
        <time>2026-08-24T12:11:29Z</time>
      </trkpt>
      <trkpt lat="49.13289" lon="4.07188">
        <ele>269.8</ele>
        <time>2026-08-24T12:11:30Z</time>
      </trkpt>
      <trkpt lat="49.1328" lon="4.07186">
        <ele>269.8</ele>
        <time>2026-08-24T12:11:31Z</time>
      </trkpt>
      <trkpt lat="49.13272" lon="4.07185">
        <ele>269.8</ele>
        <time>2026-08-24T12:11:32Z</time>
      </trkpt>
      <trkpt lat="49.13264" lon="4.07183">
        <ele>270</ele>
        <time>2026-08-24T12:11:33Z</time>
      </trkpt>
      <trkpt lat="49.13256" lon="4.07182">
        <ele>269.8</ele>
        <time>2026-08-24T12:11:34Z</time>
      </trkpt>
      <trkpt lat="49.13248" lon="4.0718">
        <ele>269.8</ele>
        <time>2026-08-24T12:11:35Z</time>
      </trkpt>
      <trkpt lat="49.1324" lon="4.07179">
        <ele>269.8</ele>
        <time>2026-08-24T12:11:36Z</time>
      </trkpt>
      <trkpt lat="49.13232" lon="4.07177">
        <ele>270</ele>
        <time>2026-08-24T12:11:37Z</time>
      </trkpt>
      <trkpt lat="49.13224" lon="4.07176">
        <ele>270.2</ele>
        <time>2026-08-24T12:11:38Z</time>
      </trkpt>
      <trkpt lat="49.13217" lon="4.07174">
        <ele>270.6</ele>
        <time>2026-08-24T12:11:39Z</time>
      </trkpt>
      <trkpt lat="49.1321" lon="4.07173">
        <ele>270.8</ele>
        <time>2026-08-24T12:11:40Z</time>
      </trkpt>
      <trkpt lat="49.13202" lon="4.07171">
        <ele>271</ele>
        <time>2026-08-24T12:11:41Z</time>
      </trkpt>
      <trkpt lat="49.13195" lon="4.0717">
        <ele>271.2</ele>
        <time>2026-08-24T12:11:42Z</time>
      </trkpt>
      <trkpt lat="49.13188" lon="4.07169">
        <ele>271.2</ele>
        <time>2026-08-24T12:11:43Z</time>
      </trkpt>
      <trkpt lat="49.1318" lon="4.07167">
        <ele>271.2</ele>
        <time>2026-08-24T12:11:44Z</time>
      </trkpt>
      <trkpt lat="49.13173" lon="4.07166">
        <ele>271.4</ele>
        <time>2026-08-24T12:11:45Z</time>
      </trkpt>
      <trkpt lat="49.13166" lon="4.07164">
        <ele>271.4</ele>
        <time>2026-08-24T12:11:46Z</time>
      </trkpt>
      <trkpt lat="49.13158" lon="4.07163">
        <ele>271.4</ele>
        <time>2026-08-24T12:11:47Z</time>
      </trkpt>
      <trkpt lat="49.13151" lon="4.07162">
        <ele>271.6</ele>
        <time>2026-08-24T12:11:48Z</time>
      </trkpt>
      <trkpt lat="49.13143" lon="4.07161">
        <ele>271.6</ele>
        <time>2026-08-24T12:11:49Z</time>
      </trkpt>
      <trkpt lat="49.13136" lon="4.07159">
        <ele>271.6</ele>
        <time>2026-08-24T12:11:50Z</time>
      </trkpt>
      <trkpt lat="49.13129" lon="4.07158">
        <ele>271.8</ele>
        <time>2026-08-24T12:11:51Z</time>
      </trkpt>
      <trkpt lat="49.13121" lon="4.07157">
        <ele>271.8</ele>
        <time>2026-08-24T12:11:52Z</time>
      </trkpt>
      <trkpt lat="49.13114" lon="4.07157">
        <ele>271.8</ele>
        <time>2026-08-24T12:11:53Z</time>
      </trkpt>
      <trkpt lat="49.13106" lon="4.07159">
        <ele>271.6</ele>
        <time>2026-08-24T12:11:54Z</time>
      </trkpt>
      <trkpt lat="49.13099" lon="4.07163">
        <ele>271.6</ele>
        <time>2026-08-24T12:11:55Z</time>
      </trkpt>
      <trkpt lat="49.13093" lon="4.07169">
        <ele>271.6</ele>
        <time>2026-08-24T12:11:56Z</time>
      </trkpt>
      <trkpt lat="49.13088" lon="4.07177">
        <ele>271.6</ele>
        <time>2026-08-24T12:11:57Z</time>
      </trkpt>
      <trkpt lat="49.13086" lon="4.07186">
        <ele>271.4</ele>
        <time>2026-08-24T12:11:58Z</time>
      </trkpt>
      <trkpt lat="49.13085" lon="4.07197">
        <ele>271.4</ele>
        <time>2026-08-24T12:11:59Z</time>
      </trkpt>
      <trkpt lat="49.13085" lon="4.07207">
        <ele>271.2</ele>
        <time>2026-08-24T12:12:00Z</time>
      </trkpt>
      <trkpt lat="49.13084" lon="4.07218">
        <ele>271</ele>
        <time>2026-08-24T12:12:01Z</time>
      </trkpt>
      <trkpt lat="49.13084" lon="4.07229">
        <ele>270.8</ele>
        <time>2026-08-24T12:12:02Z</time>
      </trkpt>
      <trkpt lat="49.13083" lon="4.07241">
        <ele>270.4</ele>
        <time>2026-08-24T12:12:03Z</time>
      </trkpt>
      <trkpt lat="49.13083" lon="4.07252">
        <ele>270.2</ele>
        <time>2026-08-24T12:12:04Z</time>
      </trkpt>
      <trkpt lat="49.13082" lon="4.07263">
        <ele>269.8</ele>
        <time>2026-08-24T12:12:05Z</time>
      </trkpt>
      <trkpt lat="49.13081" lon="4.07275">
        <ele>269.4</ele>
        <time>2026-08-24T12:12:06Z</time>
      </trkpt>
      <trkpt lat="49.1308" lon="4.07287">
        <ele>269.2</ele>
        <time>2026-08-24T12:12:07Z</time>
      </trkpt>
      <trkpt lat="49.13079" lon="4.073">
        <ele>268.6</ele>
        <time>2026-08-24T12:12:08Z</time>
      </trkpt>
      <trkpt lat="49.13077" lon="4.07313">
        <ele>268.2</ele>
        <time>2026-08-24T12:12:09Z</time>
      </trkpt>
      <trkpt lat="49.13074" lon="4.07327">
        <ele>267.6</ele>
        <time>2026-08-24T12:12:10Z</time>
      </trkpt>
      <trkpt lat="49.13071" lon="4.0734">
        <ele>267</ele>
        <time>2026-08-24T12:12:11Z</time>
      </trkpt>
      <trkpt lat="49.13067" lon="4.07353">
        <ele>266.4</ele>
        <time>2026-08-24T12:12:12Z</time>
      </trkpt>
      <trkpt lat="49.13063" lon="4.07367">
        <ele>265.6</ele>
        <time>2026-08-24T12:12:13Z</time>
      </trkpt>
      <trkpt lat="49.13059" lon="4.07381">
        <ele>264.8</ele>
        <time>2026-08-24T12:12:14Z</time>
      </trkpt>
      <trkpt lat="49.13056" lon="4.07395">
        <ele>264.2</ele>
        <time>2026-08-24T12:12:15Z</time>
      </trkpt>
      <trkpt lat="49.13053" lon="4.0741">
        <ele>263.4</ele>
        <time>2026-08-24T12:12:16Z</time>
      </trkpt>
      <trkpt lat="49.1305" lon="4.07425">
        <ele>262.8</ele>
        <time>2026-08-24T12:12:17Z</time>
      </trkpt>
      <trkpt lat="49.13048" lon="4.07441">
        <ele>262</ele>
        <time>2026-08-24T12:12:18Z</time>
      </trkpt>
      <trkpt lat="49.13047" lon="4.07455">
        <ele>261.4</ele>
        <time>2026-08-24T12:12:19Z</time>
      </trkpt>
      <trkpt lat="49.13045" lon="4.07471">
        <ele>261</ele>
        <time>2026-08-24T12:12:20Z</time>
      </trkpt>
      <trkpt lat="49.13042" lon="4.07486">
        <ele>260.4</ele>
        <time>2026-08-24T12:12:21Z</time>
      </trkpt>
      <trkpt lat="49.1304" lon="4.07501">
        <ele>260</ele>
        <time>2026-08-24T12:12:22Z</time>
      </trkpt>
      <trkpt lat="49.13037" lon="4.07516">
        <ele>259.6</ele>
        <time>2026-08-24T12:12:23Z</time>
      </trkpt>
      <trkpt lat="49.13033" lon="4.0753">
        <ele>259</ele>
        <time>2026-08-24T12:12:24Z</time>
      </trkpt>
      <trkpt lat="49.1303" lon="4.07544">
        <ele>258.6</ele>
        <time>2026-08-24T12:12:25Z</time>
      </trkpt>
      <trkpt lat="49.13026" lon="4.07558">
        <ele>258</ele>
        <time>2026-08-24T12:12:26Z</time>
      </trkpt>
      <trkpt lat="49.13022" lon="4.07572">
        <ele>257.2</ele>
        <time>2026-08-24T12:12:27Z</time>
      </trkpt>
      <trkpt lat="49.13018" lon="4.07586">
        <ele>256.4</ele>
        <time>2026-08-24T12:12:28Z</time>
      </trkpt>
      <trkpt lat="49.13013" lon="4.076">
        <ele>256</ele>
        <time>2026-08-24T12:12:29Z</time>
      </trkpt>
      <trkpt lat="49.13008" lon="4.07614">
        <ele>255.4</ele>
        <time>2026-08-24T12:12:30Z</time>
      </trkpt>
      <trkpt lat="49.13003" lon="4.07629">
        <ele>254.6</ele>
        <time>2026-08-24T12:12:31Z</time>
      </trkpt>
      <trkpt lat="49.12998" lon="4.07644">
        <ele>254.2</ele>
        <time>2026-08-24T12:12:32Z</time>
      </trkpt>
      <trkpt lat="49.12993" lon="4.07659">
        <ele>253.4</ele>
        <time>2026-08-24T12:12:33Z</time>
      </trkpt>
      <trkpt lat="49.12989" lon="4.07674">
        <ele>252.6</ele>
        <time>2026-08-24T12:12:34Z</time>
      </trkpt>
      <trkpt lat="49.12983" lon="4.07689">
        <ele>252</ele>
        <time>2026-08-24T12:12:35Z</time>
      </trkpt>
      <trkpt lat="49.12978" lon="4.07705">
        <ele>251.2</ele>
        <time>2026-08-24T12:12:36Z</time>
      </trkpt>
      <trkpt lat="49.12973" lon="4.0772">
        <ele>250.6</ele>
        <time>2026-08-24T12:12:37Z</time>
      </trkpt>
      <trkpt lat="49.12968" lon="4.07734">
        <ele>250</ele>
        <time>2026-08-24T12:12:38Z</time>
      </trkpt>
      <trkpt lat="49.12964" lon="4.07748">
        <ele>249.6</ele>
        <time>2026-08-24T12:12:39Z</time>
      </trkpt>
      <trkpt lat="49.12959" lon="4.07761">
        <ele>249.2</ele>
        <time>2026-08-24T12:12:40Z</time>
      </trkpt>
      <trkpt lat="49.12955" lon="4.07775">
        <ele>248.6</ele>
        <time>2026-08-24T12:12:41Z</time>
      </trkpt>
      <trkpt lat="49.1295" lon="4.07787">
        <ele>248.2</ele>
        <time>2026-08-24T12:12:42Z</time>
      </trkpt>
      <trkpt lat="49.12946" lon="4.078">
        <ele>247.4</ele>
        <time>2026-08-24T12:12:43Z</time>
      </trkpt>
      <trkpt lat="49.12941" lon="4.07812">
        <ele>246.6</ele>
        <time>2026-08-24T12:12:44Z</time>
      </trkpt>
      <trkpt lat="49.12936" lon="4.07824">
        <ele>245.6</ele>
        <time>2026-08-24T12:12:45Z</time>
      </trkpt>
      <trkpt lat="49.12931" lon="4.07835">
        <ele>244.8</ele>
        <time>2026-08-24T12:12:46Z</time>
      </trkpt>
      <trkpt lat="49.12926" lon="4.07847">
        <ele>243.8</ele>
        <time>2026-08-24T12:12:47Z</time>
      </trkpt>
      <trkpt lat="49.1292" lon="4.07859">
        <ele>242.8</ele>
        <time>2026-08-24T12:12:48Z</time>
      </trkpt>
      <trkpt lat="49.12914" lon="4.07871">
        <ele>241.8</ele>
        <time>2026-08-24T12:12:49Z</time>
      </trkpt>
      <trkpt lat="49.12908" lon="4.07883">
        <ele>240.6</ele>
        <time>2026-08-24T12:12:50Z</time>
      </trkpt>
      <trkpt lat="49.12902" lon="4.07896">
        <ele>239.8</ele>
        <time>2026-08-24T12:12:51Z</time>
      </trkpt>
      <trkpt lat="49.12896" lon="4.07908">
        <ele>238.6</ele>
        <time>2026-08-24T12:12:52Z</time>
      </trkpt>
      <trkpt lat="49.1289" lon="4.0792">
        <ele>237.8</ele>
        <time>2026-08-24T12:12:53Z</time>
      </trkpt>
      <trkpt lat="49.12884" lon="4.07933">
        <ele>237</ele>
        <time>2026-08-24T12:12:54Z</time>
      </trkpt>
      <trkpt lat="49.12879" lon="4.07944">
        <ele>236.4</ele>
        <time>2026-08-24T12:12:55Z</time>
      </trkpt>
      <trkpt lat="49.12874" lon="4.07955">
        <ele>236</ele>
        <time>2026-08-24T12:12:56Z</time>
      </trkpt>
      <trkpt lat="49.1287" lon="4.07967">
        <ele>235.6</ele>
        <time>2026-08-24T12:12:57Z</time>
      </trkpt>
      <trkpt lat="49.12866" lon="4.07977">
        <ele>235.2</ele>
        <time>2026-08-24T12:12:58Z</time>
      </trkpt>
      <trkpt lat="49.12862" lon="4.07988">
        <ele>234.8</ele>
        <time>2026-08-24T12:12:59Z</time>
      </trkpt>
      <trkpt lat="49.1286" lon="4.07998">
        <ele>234.4</ele>
        <time>2026-08-24T12:13:00Z</time>
      </trkpt>
      <trkpt lat="49.12858" lon="4.08008">
        <ele>233.8</ele>
        <time>2026-08-24T12:13:01Z</time>
      </trkpt>
      <trkpt lat="49.12857" lon="4.08017">
        <ele>233.4</ele>
        <time>2026-08-24T12:13:02Z</time>
      </trkpt>
      <trkpt lat="49.12855" lon="4.08025">
        <ele>233</ele>
        <time>2026-08-24T12:13:03Z</time>
      </trkpt>
      <trkpt lat="49.12852" lon="4.08033">
        <ele>232.6</ele>
        <time>2026-08-24T12:13:04Z</time>
      </trkpt>
      <trkpt lat="49.12848" lon="4.08039">
        <ele>232.2</ele>
        <time>2026-08-24T12:13:05Z</time>
      </trkpt>
      <trkpt lat="49.12843" lon="4.08043">
        <ele>231.8</ele>
        <time>2026-08-24T12:13:06Z</time>
      </trkpt>
      <trkpt lat="49.12837" lon="4.08045">
        <ele>231.2</ele>
        <time>2026-08-24T12:13:07Z</time>
      </trkpt>
      <trkpt lat="49.12829" lon="4.08047">
        <ele>230.6</ele>
        <time>2026-08-24T12:13:08Z</time>
      </trkpt>
      <trkpt lat="49.12822" lon="4.0805">
        <ele>230</ele>
        <time>2026-08-24T12:13:09Z</time>
      </trkpt>
      <trkpt lat="49.12814" lon="4.08052">
        <ele>229</ele>
        <time>2026-08-24T12:13:10Z</time>
      </trkpt>
      <trkpt lat="49.12806" lon="4.08056">
        <ele>228.2</ele>
        <time>2026-08-24T12:13:11Z</time>
      </trkpt>
      <trkpt lat="49.12799" lon="4.0806">
        <ele>227.4</ele>
        <time>2026-08-24T12:13:12Z</time>
      </trkpt>
      <trkpt lat="49.12793" lon="4.08064">
        <ele>226.4</ele>
        <time>2026-08-24T12:13:13Z</time>
      </trkpt>
      <trkpt lat="49.12787" lon="4.08067">
        <ele>225.6</ele>
        <time>2026-08-24T12:13:14Z</time>
      </trkpt>
      <trkpt lat="49.12782" lon="4.08071">
        <ele>225</ele>
        <time>2026-08-24T12:13:15Z</time>
      </trkpt>
      <trkpt lat="49.12777" lon="4.08074">
        <ele>224.4</ele>
        <time>2026-08-24T12:13:16Z</time>
      </trkpt>
      <trkpt lat="49.12772" lon="4.08079">
        <ele>223.8</ele>
        <time>2026-08-24T12:13:17Z</time>
      </trkpt>
      <trkpt lat="49.12769" lon="4.08084">
        <ele>223.2</ele>
        <time>2026-08-24T12:13:18Z</time>
      </trkpt>
      <trkpt lat="49.12766" lon="4.08091">
        <ele>222.8</ele>
        <time>2026-08-24T12:13:19Z</time>
      </trkpt>
      <trkpt lat="49.12765" lon="4.08099">
        <ele>222.4</ele>
        <time>2026-08-24T12:13:20Z</time>
      </trkpt>
      <trkpt lat="49.12765" lon="4.08109">
        <ele>221.8</ele>
        <time>2026-08-24T12:13:21Z</time>
      </trkpt>
      <trkpt lat="49.12766" lon="4.08118">
        <ele>221.2</ele>
        <time>2026-08-24T12:13:22Z</time>
      </trkpt>
      <trkpt lat="49.12768" lon="4.08128">
        <ele>220.6</ele>
        <time>2026-08-24T12:13:23Z</time>
      </trkpt>
      <trkpt lat="49.1277" lon="4.08138">
        <ele>220</ele>
        <time>2026-08-24T12:13:24Z</time>
      </trkpt>
      <trkpt lat="49.12772" lon="4.08149">
        <ele>219.2</ele>
        <time>2026-08-24T12:13:25Z</time>
      </trkpt>
      <trkpt lat="49.12774" lon="4.0816">
        <ele>218.4</ele>
        <time>2026-08-24T12:13:26Z</time>
      </trkpt>
      <trkpt lat="49.12777" lon="4.08171">
        <ele>217.6</ele>
        <time>2026-08-24T12:13:27Z</time>
      </trkpt>
      <trkpt lat="49.12779" lon="4.08183">
        <ele>216.8</ele>
        <time>2026-08-24T12:13:28Z</time>
      </trkpt>
      <trkpt lat="49.12781" lon="4.08195">
        <ele>216</ele>
        <time>2026-08-24T12:13:29Z</time>
      </trkpt>
      <trkpt lat="49.12784" lon="4.08207">
        <ele>215.4</ele>
        <time>2026-08-24T12:13:30Z</time>
      </trkpt>
      <trkpt lat="49.12786" lon="4.0822">
        <ele>214.6</ele>
        <time>2026-08-24T12:13:31Z</time>
      </trkpt>
      <trkpt lat="49.12789" lon="4.08231">
        <ele>214.2</ele>
        <time>2026-08-24T12:13:32Z</time>
      </trkpt>
      <trkpt lat="49.12791" lon="4.08243">
        <ele>213.8</ele>
        <time>2026-08-24T12:13:33Z</time>
      </trkpt>
      <trkpt lat="49.12794" lon="4.08254">
        <ele>213.4</ele>
        <time>2026-08-24T12:13:34Z</time>
      </trkpt>
      <trkpt lat="49.12797" lon="4.08265">
        <ele>213.2</ele>
        <time>2026-08-24T12:13:35Z</time>
      </trkpt>
      <trkpt lat="49.12799" lon="4.08275">
        <ele>212.8</ele>
        <time>2026-08-24T12:13:36Z</time>
      </trkpt>
      <trkpt lat="49.128" lon="4.08287">
        <ele>212.4</ele>
        <time>2026-08-24T12:13:37Z</time>
      </trkpt>
      <trkpt lat="49.128" lon="4.08299">
        <ele>211.6</ele>
        <time>2026-08-24T12:13:38Z</time>
      </trkpt>
      <trkpt lat="49.12798" lon="4.08312">
        <ele>211</ele>
        <time>2026-08-24T12:13:39Z</time>
      </trkpt>
      <trkpt lat="49.12795" lon="4.08325">
        <ele>210.2</ele>
        <time>2026-08-24T12:13:40Z</time>
      </trkpt>
      <trkpt lat="49.1279" lon="4.08337">
        <ele>209.6</ele>
        <time>2026-08-24T12:13:41Z</time>
      </trkpt>
      <trkpt lat="49.12784" lon="4.08348">
        <ele>209</ele>
        <time>2026-08-24T12:13:42Z</time>
      </trkpt>
      <trkpt lat="49.12777" lon="4.08358">
        <ele>208.6</ele>
        <time>2026-08-24T12:13:43Z</time>
      </trkpt>
      <trkpt lat="49.12771" lon="4.08368">
        <ele>208.2</ele>
        <time>2026-08-24T12:13:44Z</time>
      </trkpt>
      <trkpt lat="49.12764" lon="4.08378">
        <ele>207.8</ele>
        <time>2026-08-24T12:13:45Z</time>
      </trkpt>
      <trkpt lat="49.12758" lon="4.08387">
        <ele>207.4</ele>
        <time>2026-08-24T12:13:46Z</time>
      </trkpt>
      <trkpt lat="49.12751" lon="4.08396">
        <ele>207</ele>
        <time>2026-08-24T12:13:47Z</time>
      </trkpt>
      <trkpt lat="49.12744" lon="4.08405">
        <ele>206.4</ele>
        <time>2026-08-24T12:13:48Z</time>
      </trkpt>
      <trkpt lat="49.12736" lon="4.08412">
        <ele>206</ele>
        <time>2026-08-24T12:13:49Z</time>
      </trkpt>
      <trkpt lat="49.12727" lon="4.08419">
        <ele>205.2</ele>
        <time>2026-08-24T12:13:50Z</time>
      </trkpt>
      <trkpt lat="49.12718" lon="4.08425">
        <ele>204.6</ele>
        <time>2026-08-24T12:13:51Z</time>
      </trkpt>
      <trkpt lat="49.12708" lon="4.08429">
        <ele>204</ele>
        <time>2026-08-24T12:13:52Z</time>
      </trkpt>
      <trkpt lat="49.12698" lon="4.08433">
        <ele>203.4</ele>
        <time>2026-08-24T12:13:53Z</time>
      </trkpt>
      <trkpt lat="49.12687" lon="4.08437">
        <ele>202.8</ele>
        <time>2026-08-24T12:13:54Z</time>
      </trkpt>
      <trkpt lat="49.12676" lon="4.08441">
        <ele>202.2</ele>
        <time>2026-08-24T12:13:55Z</time>
      </trkpt>
      <trkpt lat="49.12666" lon="4.08445">
        <ele>202</ele>
        <time>2026-08-24T12:13:56Z</time>
      </trkpt>
      <trkpt lat="49.12655" lon="4.08449">
        <ele>201.4</ele>
        <time>2026-08-24T12:13:57Z</time>
      </trkpt>
      <trkpt lat="49.12645" lon="4.08453">
        <ele>200.8</ele>
        <time>2026-08-24T12:13:58Z</time>
      </trkpt>
      <trkpt lat="49.12636" lon="4.08457">
        <ele>200.4</ele>
        <time>2026-08-24T12:13:59Z</time>
      </trkpt>
      <trkpt lat="49.12626" lon="4.08461">
        <ele>200.4</ele>
        <time>2026-08-24T12:14:00Z</time>
      </trkpt>
      <trkpt lat="49.12618" lon="4.08464">
        <ele>200.4</ele>
        <time>2026-08-24T12:14:01Z</time>
      </trkpt>
      <trkpt lat="49.1261" lon="4.08467">
        <ele>200.4</ele>
        <time>2026-08-24T12:14:02Z</time>
      </trkpt>
      <trkpt lat="49.12603" lon="4.0847">
        <ele>200.6</ele>
        <time>2026-08-24T12:14:03Z</time>
      </trkpt>
      <trkpt lat="49.12597" lon="4.08472">
        <ele>201</ele>
        <time>2026-08-24T12:14:04Z</time>
      </trkpt>
      <trkpt lat="49.12592" lon="4.08475">
        <ele>201.2</ele>
        <time>2026-08-24T12:14:05Z</time>
      </trkpt>
      <trkpt lat="49.12587" lon="4.08478">
        <ele>201.4</ele>
        <time>2026-08-24T12:14:06Z</time>
      </trkpt>
      <trkpt lat="49.12583" lon="4.0848">
        <ele>201.6</ele>
        <time>2026-08-24T12:14:07Z</time>
      </trkpt>
      <trkpt lat="49.1258" lon="4.0848">
        <ele>201.8</ele>
        <time>2026-08-24T12:14:08Z</time>
      </trkpt>
      <trkpt lat="49.12576" lon="4.08478">
        <ele>202</ele>
        <time>2026-08-24T12:14:09Z</time>
      </trkpt>
      <trkpt lat="49.12574" lon="4.08475">
        <ele>202.2</ele>
        <time>2026-08-24T12:14:10Z</time>
      </trkpt>
      <trkpt lat="49.12573" lon="4.08471">
        <ele>202.4</ele>
        <time>2026-08-24T12:14:11Z</time>
      </trkpt>
      <trkpt lat="49.12573" lon="4.08467">
        <ele>202.6</ele>
        <time>2026-08-24T12:14:12Z</time>
      </trkpt>
      <trkpt lat="49.12574" lon="4.08463">
        <ele>202.8</ele>
        <time>2026-08-24T12:14:13Z</time>
      </trkpt>
      <trkpt lat="49.12574" lon="4.0846">
        <ele>203</ele>
        <time>2026-08-24T12:14:14Z</time>
      </trkpt>
      <trkpt lat="49.12574" lon="4.08456">
        <ele>203.2</ele>
        <time>2026-08-24T12:14:15Z</time>
      </trkpt>
      <trkpt lat="49.12575" lon="4.08453">
        <ele>203.4</ele>
        <time>2026-08-24T12:14:16Z</time>
      </trkpt>
      <trkpt lat="49.12575" lon="4.08449">
        <ele>203.8</ele>
        <time>2026-08-24T12:14:17Z</time>
      </trkpt>
      <trkpt lat="49.12575" lon="4.08446">
        <ele>204</ele>
        <time>2026-08-24T12:14:18Z</time>
      </trkpt>
      <trkpt lat="49.12576" lon="4.08442">
        <ele>204.2</ele>
        <time>2026-08-24T12:14:19Z</time>
      </trkpt>
      <trkpt lat="49.12577" lon="4.08439">
        <ele>204.6</ele>
        <time>2026-08-24T12:14:20Z</time>
      </trkpt>
      <trkpt lat="49.12578" lon="4.08436">
        <ele>204.8</ele>
        <time>2026-08-24T12:14:21Z</time>
      </trkpt>
      <trkpt lat="49.12579" lon="4.08432">
        <ele>205.2</ele>
        <time>2026-08-24T12:14:22Z</time>
      </trkpt>
      <trkpt lat="49.1258" lon="4.08428">
        <ele>205.4</ele>
        <time>2026-08-24T12:14:23Z</time>
      </trkpt>
      <trkpt lat="49.1258" lon="4.08424">
        <ele>205.6</ele>
        <time>2026-08-24T12:14:24Z</time>
      </trkpt>
      <trkpt lat="49.12581" lon="4.0842">
        <ele>205.8</ele>
        <time>2026-08-24T12:14:25Z</time>
      </trkpt>
      <trkpt lat="49.12581" lon="4.08416">
        <ele>206</ele>
        <time>2026-08-24T12:14:26Z</time>
      </trkpt>
      <trkpt lat="49.12581" lon="4.08413">
        <ele>206.4</ele>
        <time>2026-08-24T12:14:27Z</time>
      </trkpt>
      <trkpt lat="49.12582" lon="4.08409">
        <ele>206.6</ele>
        <time>2026-08-24T12:14:28Z</time>
      </trkpt>
      <trkpt lat="49.12582" lon="4.08406">
        <ele>206.8</ele>
        <time>2026-08-24T12:14:29Z</time>
      </trkpt>
      <trkpt lat="49.12583" lon="4.08402">
        <ele>207.2</ele>
        <time>2026-08-24T12:14:30Z</time>
      </trkpt>
      <trkpt lat="49.12583" lon="4.08399">
        <ele>207.4</ele>
        <time>2026-08-24T12:14:31Z</time>
      </trkpt>
      <trkpt lat="49.12583" lon="4.08395">
        <ele>207.6</ele>
        <time>2026-08-24T12:14:32Z</time>
      </trkpt>
      <trkpt lat="49.12584" lon="4.08392">
        <ele>208</ele>
        <time>2026-08-24T12:14:33Z</time>
      </trkpt>
      <trkpt lat="49.12584" lon="4.08388">
        <ele>208.2</ele>
        <time>2026-08-24T12:14:34Z</time>
      </trkpt>
      <trkpt lat="49.12585" lon="4.08385">
        <ele>208.4</ele>
        <time>2026-08-24T12:14:35Z</time>
      </trkpt>
      <trkpt lat="49.12585" lon="4.08381">
        <ele>208.6</ele>
        <time>2026-08-24T12:14:36Z</time>
      </trkpt>
      <trkpt lat="49.12585" lon="4.08377">
        <ele>209</ele>
        <time>2026-08-24T12:14:37Z</time>
      </trkpt>
      <trkpt lat="49.12585" lon="4.08374">
        <ele>209.2</ele>
        <time>2026-08-24T12:14:38Z</time>
      </trkpt>
      <trkpt lat="49.12585" lon="4.0837">
        <ele>209.4</ele>
        <time>2026-08-24T12:14:39Z</time>
      </trkpt>
      <trkpt lat="49.12585" lon="4.08367">
        <ele>209.6</ele>
        <time>2026-08-24T12:14:40Z</time>
      </trkpt>
      <trkpt lat="49.12585" lon="4.08363">
        <ele>209.8</ele>
        <time>2026-08-24T12:14:41Z</time>
      </trkpt>
      <trkpt lat="49.12585" lon="4.0836">
        <ele>210</ele>
        <time>2026-08-24T12:14:42Z</time>
      </trkpt>
      <trkpt lat="49.12585" lon="4.08356">
        <ele>210.2</ele>
        <time>2026-08-24T12:14:43Z</time>
      </trkpt>
      <trkpt lat="49.12585" lon="4.08353">
        <ele>210.4</ele>
        <time>2026-08-24T12:14:44Z</time>
      </trkpt>
      <trkpt lat="49.12585" lon="4.0835">
        <ele>210.6</ele>
        <time>2026-08-24T12:14:45Z</time>
      </trkpt>
      <trkpt lat="49.12584" lon="4.08347">
        <ele>210.8</ele>
        <time>2026-08-24T12:14:46Z</time>
      </trkpt>
      <trkpt lat="49.12584" lon="4.08343">
        <ele>211</ele>
        <time>2026-08-24T12:14:47Z</time>
      </trkpt>
      <trkpt lat="49.12584" lon="4.0834">
        <ele>211.2</ele>
        <time>2026-08-24T12:14:48Z</time>
      </trkpt>
      <trkpt lat="49.12584" lon="4.08337">
        <ele>211.4</ele>
        <time>2026-08-24T12:14:49Z</time>
      </trkpt>
      <trkpt lat="49.12584" lon="4.08334">
        <ele>211.6</ele>
        <time>2026-08-24T12:14:50Z</time>
      </trkpt>
      <trkpt lat="49.12584" lon="4.08331">
        <ele>211.8</ele>
        <time>2026-08-24T12:14:51Z</time>
      </trkpt>
      <trkpt lat="49.12584" lon="4.08327">
        <ele>212</ele>
        <time>2026-08-24T12:14:52Z</time>
      </trkpt>
      <trkpt lat="49.12585" lon="4.08324">
        <ele>212.2</ele>
        <time>2026-08-24T12:14:53Z</time>
      </trkpt>
      <trkpt lat="49.12585" lon="4.08321">
        <ele>212.6</ele>
        <time>2026-08-24T12:14:54Z</time>
      </trkpt>
      <trkpt lat="49.12585" lon="4.08318">
        <ele>212.8</ele>
        <time>2026-08-24T12:14:55Z</time>
      </trkpt>
      <trkpt lat="49.12585" lon="4.08315">
        <ele>213.2</ele>
        <time>2026-08-24T12:14:56Z</time>
      </trkpt>
      <trkpt lat="49.12586" lon="4.08312">
        <ele>213.4</ele>
        <time>2026-08-24T12:14:57Z</time>
      </trkpt>
      <trkpt lat="49.12586" lon="4.08309">
        <ele>213.6</ele>
        <time>2026-08-24T12:14:58Z</time>
      </trkpt>
      <trkpt lat="49.12586" lon="4.08306">
        <ele>213.8</ele>
        <time>2026-08-24T12:14:59Z</time>
      </trkpt>
      <trkpt lat="49.12587" lon="4.08303">
        <ele>214</ele>
        <time>2026-08-24T12:15:00Z</time>
      </trkpt>
      <trkpt lat="49.12588" lon="4.083">
        <ele>214.2</ele>
        <time>2026-08-24T12:15:01Z</time>
      </trkpt>
      <trkpt lat="49.1259" lon="4.08298">
        <ele>214.2</ele>
        <time>2026-08-24T12:15:02Z</time>
      </trkpt>
      <trkpt lat="49.12591" lon="4.08296">
        <ele>214.4</ele>
        <time>2026-08-24T12:15:03Z</time>
      </trkpt>
      <trkpt lat="49.12593" lon="4.08294">
        <ele>214.6</ele>
        <time>2026-08-24T12:15:04Z</time>
      </trkpt>
      <trkpt lat="49.12594" lon="4.08291">
        <ele>214.8</ele>
        <time>2026-08-24T12:15:05Z</time>
      </trkpt>
      <trkpt lat="49.12596" lon="4.08289">
        <ele>215</ele>
        <time>2026-08-24T12:15:06Z</time>
      </trkpt>
      <trkpt lat="49.12597" lon="4.08287">
        <ele>215.4</ele>
        <time>2026-08-24T12:15:07Z</time>
      </trkpt>
      <trkpt lat="49.12599" lon="4.08285">
        <ele>215.6</ele>
        <time>2026-08-24T12:15:08Z</time>
      </trkpt>
      <trkpt lat="49.126" lon="4.08283">
        <ele>215.8</ele>
        <time>2026-08-24T12:15:09Z</time>
      </trkpt>
      <trkpt lat="49.12602" lon="4.08281">
        <ele>216</ele>
        <time>2026-08-24T12:15:10Z</time>
      </trkpt>
      <trkpt lat="49.12603" lon="4.08279">
        <ele>216.2</ele>
        <time>2026-08-24T12:15:11Z</time>
      </trkpt>
      <trkpt lat="49.12605" lon="4.08278">
        <ele>216.2</ele>
        <time>2026-08-24T12:15:12Z</time>
      </trkpt>
      <trkpt lat="49.12606" lon="4.08276">
        <ele>216.4</ele>
        <time>2026-08-24T12:15:13Z</time>
      </trkpt>
      <trkpt lat="49.12608" lon="4.08274">
        <ele>216.4</ele>
        <time>2026-08-24T12:15:14Z</time>
      </trkpt>
      <trkpt lat="49.12609" lon="4.08272">
        <ele>216.6</ele>
        <time>2026-08-24T12:15:15Z</time>
      </trkpt>
      <trkpt lat="49.12611" lon="4.0827">
        <ele>216.8</ele>
        <time>2026-08-24T12:15:16Z</time>
      </trkpt>
      <trkpt lat="49.12613" lon="4.08268">
        <ele>217</ele>
        <time>2026-08-24T12:15:17Z</time>
      </trkpt>
      <trkpt lat="49.12614" lon="4.08266">
        <ele>217</ele>
        <time>2026-08-24T12:15:18Z</time>
      </trkpt>
      <trkpt lat="49.12615" lon="4.08264">
        <ele>217.2</ele>
        <time>2026-08-24T12:15:19Z</time>
      </trkpt>
      <trkpt lat="49.12617" lon="4.08262">
        <ele>217.4</ele>
        <time>2026-08-24T12:15:20Z</time>
      </trkpt>
      <trkpt lat="49.12618" lon="4.0826">
        <ele>217.6</ele>
        <time>2026-08-24T12:15:21Z</time>
      </trkpt>
      <trkpt lat="49.12618" lon="4.08257">
        <ele>217.8</ele>
        <time>2026-08-24T12:15:22Z</time>
      </trkpt>
      <trkpt lat="49.12618" lon="4.08254">
        <ele>218</ele>
        <time>2026-08-24T12:15:23Z</time>
      </trkpt>
      <trkpt lat="49.12617" lon="4.08251">
        <ele>218.2</ele>
        <time>2026-08-24T12:15:24Z</time>
      </trkpt>
      <trkpt lat="49.12616" lon="4.08248">
        <ele>218.4</ele>
        <time>2026-08-24T12:15:25Z</time>
      </trkpt>
      <trkpt lat="49.12615" lon="4.08245">
        <ele>218.6</ele>
        <time>2026-08-24T12:15:26Z</time>
      </trkpt>
      <trkpt lat="49.12614" lon="4.08243">
        <ele>218.8</ele>
        <time>2026-08-24T12:15:27Z</time>
      </trkpt>
      <trkpt lat="49.12613" lon="4.0824">
        <ele>219</ele>
        <time>2026-08-24T12:15:28Z</time>
      </trkpt>
      <trkpt lat="49.12612" lon="4.08237">
        <ele>219.2</ele>
        <time>2026-08-24T12:15:29Z</time>
      </trkpt>
      <trkpt lat="49.12611" lon="4.08234">
        <ele>219.2</ele>
        <time>2026-08-24T12:15:30Z</time>
      </trkpt>
      <trkpt lat="49.1261" lon="4.08232">
        <ele>219.4</ele>
        <time>2026-08-24T12:15:31Z</time>
      </trkpt>
      <trkpt lat="49.12609" lon="4.08229">
        <ele>219.8</ele>
        <time>2026-08-24T12:15:32Z</time>
      </trkpt>
      <trkpt lat="49.12608" lon="4.08227">
        <ele>220</ele>
        <time>2026-08-24T12:15:33Z</time>
      </trkpt>
      <trkpt lat="49.12606" lon="4.08224">
        <ele>220.2</ele>
        <time>2026-08-24T12:15:34Z</time>
      </trkpt>
      <trkpt lat="49.12605" lon="4.08222">
        <ele>220.4</ele>
        <time>2026-08-24T12:15:35Z</time>
      </trkpt>
      <trkpt lat="49.12604" lon="4.08219">
        <ele>220.6</ele>
        <time>2026-08-24T12:15:36Z</time>
      </trkpt>
      <trkpt lat="49.12603" lon="4.08217">
        <ele>220.8</ele>
        <time>2026-08-24T12:15:37Z</time>
      </trkpt>
      <trkpt lat="49.12602" lon="4.08214">
        <ele>220.8</ele>
        <time>2026-08-24T12:15:38Z</time>
      </trkpt>
      <trkpt lat="49.12601" lon="4.08212">
        <ele>221</ele>
        <time>2026-08-24T12:15:39Z</time>
      </trkpt>
      <trkpt lat="49.126" lon="4.08209">
        <ele>221.2</ele>
        <time>2026-08-24T12:15:40Z</time>
      </trkpt>
      <trkpt lat="49.12599" lon="4.08207">
        <ele>221.4</ele>
        <time>2026-08-24T12:15:41Z</time>
      </trkpt>
      <trkpt lat="49.12598" lon="4.08204">
        <ele>221.6</ele>
        <time>2026-08-24T12:15:42Z</time>
      </trkpt>
      <trkpt lat="49.12597" lon="4.08201">
        <ele>221.8</ele>
        <time>2026-08-24T12:15:43Z</time>
      </trkpt>
      <trkpt lat="49.12596" lon="4.08198">
        <ele>222</ele>
        <time>2026-08-24T12:15:44Z</time>
      </trkpt>
      <trkpt lat="49.12595" lon="4.08196">
        <ele>222.2</ele>
        <time>2026-08-24T12:15:45Z</time>
      </trkpt>
      <trkpt lat="49.12594" lon="4.08193">
        <ele>222.2</ele>
        <time>2026-08-24T12:15:46Z</time>
      </trkpt>
      <trkpt lat="49.12592" lon="4.0819">
        <ele>222.4</ele>
        <time>2026-08-24T12:15:47Z</time>
      </trkpt>
      <trkpt lat="49.12591" lon="4.08187">
        <ele>222.6</ele>
        <time>2026-08-24T12:15:48Z</time>
      </trkpt>
      <trkpt lat="49.1259" lon="4.08185">
        <ele>222.8</ele>
        <time>2026-08-24T12:15:49Z</time>
      </trkpt>
      <trkpt lat="49.12589" lon="4.08182">
        <ele>223</ele>
        <time>2026-08-24T12:15:50Z</time>
      </trkpt>
      <trkpt lat="49.12587" lon="4.08179">
        <ele>223.2</ele>
        <time>2026-08-24T12:15:51Z</time>
      </trkpt>
      <trkpt lat="49.12586" lon="4.08176">
        <ele>223.4</ele>
        <time>2026-08-24T12:15:52Z</time>
      </trkpt>
      <trkpt lat="49.12585" lon="4.08173">
        <ele>223.4</ele>
        <time>2026-08-24T12:15:53Z</time>
      </trkpt>
      <trkpt lat="49.12584" lon="4.08171">
        <ele>223.6</ele>
        <time>2026-08-24T12:15:54Z</time>
      </trkpt>
      <trkpt lat="49.12582" lon="4.08168">
        <ele>223.8</ele>
        <time>2026-08-24T12:15:55Z</time>
      </trkpt>
      <trkpt lat="49.12581" lon="4.08166">
        <ele>224</ele>
        <time>2026-08-24T12:15:56Z</time>
      </trkpt>
      <trkpt lat="49.12579" lon="4.08163">
        <ele>224.2</ele>
        <time>2026-08-24T12:15:57Z</time>
      </trkpt>
      <trkpt lat="49.12578" lon="4.08161">
        <ele>224.4</ele>
        <time>2026-08-24T12:15:58Z</time>
      </trkpt>
      <trkpt lat="49.12576" lon="4.08159">
        <ele>224.6</ele>
        <time>2026-08-24T12:15:59Z</time>
      </trkpt>
      <trkpt lat="49.12575" lon="4.08157">
        <ele>224.8</ele>
        <time>2026-08-24T12:16:00Z</time>
      </trkpt>
      <trkpt lat="49.12573" lon="4.08155">
        <ele>225.2</ele>
        <time>2026-08-24T12:16:01Z</time>
      </trkpt>
      <trkpt lat="49.12571" lon="4.08154">
        <ele>225.4</ele>
        <time>2026-08-24T12:16:02Z</time>
      </trkpt>
      <trkpt lat="49.12569" lon="4.08153">
        <ele>225.6</ele>
        <time>2026-08-24T12:16:03Z</time>
      </trkpt>
      <trkpt lat="49.12567" lon="4.08152">
        <ele>225.8</ele>
        <time>2026-08-24T12:16:04Z</time>
      </trkpt>
      <trkpt lat="49.12564" lon="4.08152">
        <ele>225.8</ele>
        <time>2026-08-24T12:16:05Z</time>
      </trkpt>
      <trkpt lat="49.12562" lon="4.08152">
        <ele>225.8</ele>
        <time>2026-08-24T12:16:06Z</time>
      </trkpt>
      <trkpt lat="49.12559" lon="4.08152">
        <ele>225.8</ele>
        <time>2026-08-24T12:16:07Z</time>
      </trkpt>
      <trkpt lat="49.12556" lon="4.08152">
        <ele>225.8</ele>
        <time>2026-08-24T12:16:08Z</time>
      </trkpt>
      <trkpt lat="49.12553" lon="4.08151">
        <ele>225.8</ele>
        <time>2026-08-24T12:16:09Z</time>
      </trkpt>
      <trkpt lat="49.1255" lon="4.08149">
        <ele>225.8</ele>
        <time>2026-08-24T12:16:10Z</time>
      </trkpt>
      <trkpt lat="49.12548" lon="4.08146">
        <ele>226</ele>
        <time>2026-08-24T12:16:11Z</time>
      </trkpt>
      <trkpt lat="49.12547" lon="4.08142">
        <ele>226</ele>
        <time>2026-08-24T12:16:12Z</time>
      </trkpt>
      <trkpt lat="49.12545" lon="4.08138">
        <ele>226.2</ele>
        <time>2026-08-24T12:16:13Z</time>
      </trkpt>
      <trkpt lat="49.12544" lon="4.08134">
        <ele>226.4</ele>
        <time>2026-08-24T12:16:14Z</time>
      </trkpt>
      <trkpt lat="49.12543" lon="4.0813">
        <ele>226.6</ele>
        <time>2026-08-24T12:16:15Z</time>
      </trkpt>
      <trkpt lat="49.12541" lon="4.08127">
        <ele>227</ele>
        <time>2026-08-24T12:16:16Z</time>
      </trkpt>
      <trkpt lat="49.1254" lon="4.08124">
        <ele>227.2</ele>
        <time>2026-08-24T12:16:17Z</time>
      </trkpt>
      <trkpt lat="49.12539" lon="4.0812">
        <ele>227.4</ele>
        <time>2026-08-24T12:16:18Z</time>
      </trkpt>
      <trkpt lat="49.12538" lon="4.08117">
        <ele>227.6</ele>
        <time>2026-08-24T12:16:19Z</time>
      </trkpt>
      <trkpt lat="49.12537" lon="4.08114">
        <ele>227.8</ele>
        <time>2026-08-24T12:16:20Z</time>
      </trkpt>
      <trkpt lat="49.12536" lon="4.0811">
        <ele>227.8</ele>
        <time>2026-08-24T12:16:21Z</time>
      </trkpt>
      <trkpt lat="49.12535" lon="4.08107">
        <ele>228</ele>
        <time>2026-08-24T12:16:22Z</time>
      </trkpt>
      <trkpt lat="49.12534" lon="4.08104">
        <ele>228.2</ele>
        <time>2026-08-24T12:16:23Z</time>
      </trkpt>
      <trkpt lat="49.12533" lon="4.081">
        <ele>228.4</ele>
        <time>2026-08-24T12:16:24Z</time>
      </trkpt>
      <trkpt lat="49.12532" lon="4.08097">
        <ele>228.6</ele>
        <time>2026-08-24T12:16:25Z</time>
      </trkpt>
      <trkpt lat="49.12531" lon="4.08094">
        <ele>228.8</ele>
        <time>2026-08-24T12:16:26Z</time>
      </trkpt>
      <trkpt lat="49.1253" lon="4.0809">
        <ele>229</ele>
        <time>2026-08-24T12:16:27Z</time>
      </trkpt>
      <trkpt lat="49.12529" lon="4.08087">
        <ele>229</ele>
        <time>2026-08-24T12:16:28Z</time>
      </trkpt>
      <trkpt lat="49.12528" lon="4.08083">
        <ele>229.2</ele>
        <time>2026-08-24T12:16:29Z</time>
      </trkpt>
      <trkpt lat="49.12527" lon="4.0808">
        <ele>229.4</ele>
        <time>2026-08-24T12:16:30Z</time>
      </trkpt>
      <trkpt lat="49.12526" lon="4.08077">
        <ele>229.6</ele>
        <time>2026-08-24T12:16:31Z</time>
      </trkpt>
      <trkpt lat="49.12526" lon="4.08073">
        <ele>229.8</ele>
        <time>2026-08-24T12:16:32Z</time>
      </trkpt>
      <trkpt lat="49.12525" lon="4.0807">
        <ele>230</ele>
        <time>2026-08-24T12:16:33Z</time>
      </trkpt>
      <trkpt lat="49.12524" lon="4.08067">
        <ele>230.2</ele>
        <time>2026-08-24T12:16:34Z</time>
      </trkpt>
      <trkpt lat="49.12522" lon="4.08064">
        <ele>230.4</ele>
        <time>2026-08-24T12:16:35Z</time>
      </trkpt>
      <trkpt lat="49.12521" lon="4.08061">
        <ele>230.8</ele>
        <time>2026-08-24T12:16:36Z</time>
      </trkpt>
      <trkpt lat="49.12519" lon="4.08058">
        <ele>231.2</ele>
        <time>2026-08-24T12:16:37Z</time>
      </trkpt>
      <trkpt lat="49.12517" lon="4.08056">
        <ele>231.4</ele>
        <time>2026-08-24T12:16:38Z</time>
      </trkpt>
      <trkpt lat="49.12515" lon="4.08055">
        <ele>231.6</ele>
        <time>2026-08-24T12:16:39Z</time>
      </trkpt>
      <trkpt lat="49.12512" lon="4.08055">
        <ele>231.8</ele>
        <time>2026-08-24T12:16:40Z</time>
      </trkpt>
      <trkpt lat="49.12509" lon="4.08056">
        <ele>232</ele>
        <time>2026-08-24T12:16:41Z</time>
      </trkpt>
      <trkpt lat="49.12506" lon="4.08057">
        <ele>232.2</ele>
        <time>2026-08-24T12:16:42Z</time>
      </trkpt>
      <trkpt lat="49.12504" lon="4.08058">
        <ele>232.4</ele>
        <time>2026-08-24T12:16:43Z</time>
      </trkpt>
      <trkpt lat="49.12501" lon="4.0806">
        <ele>232.4</ele>
        <time>2026-08-24T12:16:44Z</time>
      </trkpt>
      <trkpt lat="49.12498" lon="4.08062">
        <ele>232.6</ele>
        <time>2026-08-24T12:16:45Z</time>
      </trkpt>
      <trkpt lat="49.12495" lon="4.08063">
        <ele>232.8</ele>
        <time>2026-08-24T12:16:46Z</time>
      </trkpt>
      <trkpt lat="49.12492" lon="4.08065">
        <ele>233</ele>
        <time>2026-08-24T12:16:47Z</time>
      </trkpt>
      <trkpt lat="49.12489" lon="4.08066">
        <ele>233.2</ele>
        <time>2026-08-24T12:16:48Z</time>
      </trkpt>
      <trkpt lat="49.12485" lon="4.08068">
        <ele>233.4</ele>
        <time>2026-08-24T12:16:49Z</time>
      </trkpt>
      <trkpt lat="49.12482" lon="4.08069">
        <ele>233.6</ele>
        <time>2026-08-24T12:16:50Z</time>
      </trkpt>
      <trkpt lat="49.12479" lon="4.0807">
        <ele>233.6</ele>
        <time>2026-08-24T12:16:51Z</time>
      </trkpt>
      <trkpt lat="49.12476" lon="4.08071">
        <ele>233.6</ele>
        <time>2026-08-24T12:16:52Z</time>
      </trkpt>
      <trkpt lat="49.12472" lon="4.08071">
        <ele>233.6</ele>
        <time>2026-08-24T12:16:53Z</time>
      </trkpt>
      <trkpt lat="49.12469" lon="4.08071">
        <ele>233.6</ele>
        <time>2026-08-24T12:16:54Z</time>
      </trkpt>
      <trkpt lat="49.12465" lon="4.08071">
        <ele>233.6</ele>
        <time>2026-08-24T12:16:55Z</time>
      </trkpt>
      <trkpt lat="49.12461" lon="4.0807">
        <ele>233.6</ele>
        <time>2026-08-24T12:16:56Z</time>
      </trkpt>
      <trkpt lat="49.12458" lon="4.08069">
        <ele>233.8</ele>
        <time>2026-08-24T12:16:57Z</time>
      </trkpt>
      <trkpt lat="49.12454" lon="4.08068">
        <ele>234</ele>
        <time>2026-08-24T12:16:58Z</time>
      </trkpt>
      <trkpt lat="49.12451" lon="4.08066">
        <ele>234.2</ele>
        <time>2026-08-24T12:16:59Z</time>
      </trkpt>
      <trkpt lat="49.12448" lon="4.08063">
        <ele>234.4</ele>
        <time>2026-08-24T12:17:00Z</time>
      </trkpt>
      <trkpt lat="49.12445" lon="4.0806">
        <ele>234.4</ele>
        <time>2026-08-24T12:17:01Z</time>
      </trkpt>
      <trkpt lat="49.12443" lon="4.08056">
        <ele>234.6</ele>
        <time>2026-08-24T12:17:02Z</time>
      </trkpt>
      <trkpt lat="49.1244" lon="4.08053">
        <ele>235</ele>
        <time>2026-08-24T12:17:03Z</time>
      </trkpt>
      <trkpt lat="49.12438" lon="4.08049">
        <ele>235</ele>
        <time>2026-08-24T12:17:04Z</time>
      </trkpt>
      <trkpt lat="49.12436" lon="4.08045">
        <ele>235.2</ele>
        <time>2026-08-24T12:17:05Z</time>
      </trkpt>
      <trkpt lat="49.12434" lon="4.08041">
        <ele>235.4</ele>
        <time>2026-08-24T12:17:06Z</time>
      </trkpt>
      <trkpt lat="49.12432" lon="4.08037">
        <ele>235.6</ele>
        <time>2026-08-24T12:17:07Z</time>
      </trkpt>
      <trkpt lat="49.12431" lon="4.08033">
        <ele>235.8</ele>
        <time>2026-08-24T12:17:08Z</time>
      </trkpt>
      <trkpt lat="49.12429" lon="4.08029">
        <ele>236.2</ele>
        <time>2026-08-24T12:17:09Z</time>
      </trkpt>
      <trkpt lat="49.12427" lon="4.08025">
        <ele>236.8</ele>
        <time>2026-08-24T12:17:10Z</time>
      </trkpt>
      <trkpt lat="49.12426" lon="4.08021">
        <ele>237</ele>
        <time>2026-08-24T12:17:11Z</time>
      </trkpt>
      <trkpt lat="49.12424" lon="4.08017">
        <ele>237.2</ele>
        <time>2026-08-24T12:17:12Z</time>
      </trkpt>
      <trkpt lat="49.12423" lon="4.08013">
        <ele>237.4</ele>
        <time>2026-08-24T12:17:13Z</time>
      </trkpt>
      <trkpt lat="49.12421" lon="4.08008">
        <ele>237.6</ele>
        <time>2026-08-24T12:17:14Z</time>
      </trkpt>
      <trkpt lat="49.1242" lon="4.08004">
        <ele>237.6</ele>
        <time>2026-08-24T12:17:15Z</time>
      </trkpt>
      <trkpt lat="49.12418" lon="4.08">
        <ele>237.6</ele>
        <time>2026-08-24T12:17:16Z</time>
      </trkpt>
      <trkpt lat="49.12417" lon="4.07996">
        <ele>237.6</ele>
        <time>2026-08-24T12:17:17Z</time>
      </trkpt>
      <trkpt lat="49.12415" lon="4.07992">
        <ele>237.6</ele>
        <time>2026-08-24T12:17:18Z</time>
      </trkpt>
      <trkpt lat="49.12414" lon="4.07989">
        <ele>237.6</ele>
        <time>2026-08-24T12:17:19Z</time>
      </trkpt>
      <trkpt lat="49.12412" lon="4.07985">
        <ele>237.8</ele>
        <time>2026-08-24T12:17:20Z</time>
      </trkpt>
      <trkpt lat="49.12411" lon="4.07981">
        <ele>238</ele>
        <time>2026-08-24T12:17:21Z</time>
      </trkpt>
      <trkpt lat="49.12409" lon="4.07977">
        <ele>238</ele>
        <time>2026-08-24T12:17:22Z</time>
      </trkpt>
      <trkpt lat="49.12408" lon="4.07973">
        <ele>238.2</ele>
        <time>2026-08-24T12:17:23Z</time>
      </trkpt>
      <trkpt lat="49.12406" lon="4.07969">
        <ele>238.6</ele>
        <time>2026-08-24T12:17:24Z</time>
      </trkpt>
      <trkpt lat="49.12405" lon="4.07965">
        <ele>238.8</ele>
        <time>2026-08-24T12:17:25Z</time>
      </trkpt>
      <trkpt lat="49.12403" lon="4.07961">
        <ele>239</ele>
        <time>2026-08-24T12:17:26Z</time>
      </trkpt>
      <trkpt lat="49.12401" lon="4.07957">
        <ele>239.2</ele>
        <time>2026-08-24T12:17:27Z</time>
      </trkpt>
      <trkpt lat="49.124" lon="4.07953">
        <ele>239.4</ele>
        <time>2026-08-24T12:17:28Z</time>
      </trkpt>
      <trkpt lat="49.12398" lon="4.07949">
        <ele>239.6</ele>
        <time>2026-08-24T12:17:29Z</time>
      </trkpt>
      <trkpt lat="49.12397" lon="4.07945">
        <ele>239.8</ele>
        <time>2026-08-24T12:17:30Z</time>
      </trkpt>
      <trkpt lat="49.12395" lon="4.07941">
        <ele>240</ele>
        <time>2026-08-24T12:17:31Z</time>
      </trkpt>
      <trkpt lat="49.12394" lon="4.07937">
        <ele>240.2</ele>
        <time>2026-08-24T12:17:32Z</time>
      </trkpt>
      <trkpt lat="49.12393" lon="4.07933">
        <ele>240.4</ele>
        <time>2026-08-24T12:17:33Z</time>
      </trkpt>
      <trkpt lat="49.12391" lon="4.07929">
        <ele>240.6</ele>
        <time>2026-08-24T12:17:34Z</time>
      </trkpt>
      <trkpt lat="49.1239" lon="4.07925">
        <ele>240.8</ele>
        <time>2026-08-24T12:17:35Z</time>
      </trkpt>
      <trkpt lat="49.12388" lon="4.07921">
        <ele>241</ele>
        <time>2026-08-24T12:17:36Z</time>
      </trkpt>
      <trkpt lat="49.12386" lon="4.07918">
        <ele>241.2</ele>
        <time>2026-08-24T12:17:37Z</time>
      </trkpt>
      <trkpt lat="49.12384" lon="4.07914">
        <ele>241.4</ele>
        <time>2026-08-24T12:17:38Z</time>
      </trkpt>
      <trkpt lat="49.12383" lon="4.0791">
        <ele>241.6</ele>
        <time>2026-08-24T12:17:39Z</time>
      </trkpt>
      <trkpt lat="49.12381" lon="4.07906">
        <ele>241.8</ele>
        <time>2026-08-24T12:17:40Z</time>
      </trkpt>
      <trkpt lat="49.1238" lon="4.07902">
        <ele>242</ele>
        <time>2026-08-24T12:17:41Z</time>
      </trkpt>
      <trkpt lat="49.12378" lon="4.07898">
        <ele>242.2</ele>
        <time>2026-08-24T12:17:42Z</time>
      </trkpt>
      <trkpt lat="49.12377" lon="4.07895">
        <ele>242.2</ele>
        <time>2026-08-24T12:17:43Z</time>
      </trkpt>
      <trkpt lat="49.12376" lon="4.07891">
        <ele>242.4</ele>
        <time>2026-08-24T12:17:44Z</time>
      </trkpt>
      <trkpt lat="49.12374" lon="4.07887">
        <ele>242.6</ele>
        <time>2026-08-24T12:17:45Z</time>
      </trkpt>
      <trkpt lat="49.12373" lon="4.07883">
        <ele>242.8</ele>
        <time>2026-08-24T12:17:46Z</time>
      </trkpt>
      <trkpt lat="49.12371" lon="4.07879">
        <ele>243</ele>
        <time>2026-08-24T12:17:47Z</time>
      </trkpt>
      <trkpt lat="49.1237" lon="4.07875">
        <ele>243.2</ele>
        <time>2026-08-24T12:17:48Z</time>
      </trkpt>
      <trkpt lat="49.12368" lon="4.0787">
        <ele>243.4</ele>
        <time>2026-08-24T12:17:49Z</time>
      </trkpt>
      <trkpt lat="49.12367" lon="4.07866">
        <ele>243.6</ele>
        <time>2026-08-24T12:17:50Z</time>
      </trkpt>
      <trkpt lat="49.12365" lon="4.07862">
        <ele>243.8</ele>
        <time>2026-08-24T12:17:51Z</time>
      </trkpt>
      <trkpt lat="49.12364" lon="4.07857">
        <ele>244</ele>
        <time>2026-08-24T12:17:52Z</time>
      </trkpt>
      <trkpt lat="49.12363" lon="4.07853">
        <ele>244.2</ele>
        <time>2026-08-24T12:17:53Z</time>
      </trkpt>
      <trkpt lat="49.12361" lon="4.07849">
        <ele>244.2</ele>
        <time>2026-08-24T12:17:54Z</time>
      </trkpt>
      <trkpt lat="49.1236" lon="4.07844">
        <ele>244.4</ele>
        <time>2026-08-24T12:17:55Z</time>
      </trkpt>
      <trkpt lat="49.12359" lon="4.07839">
        <ele>244.6</ele>
        <time>2026-08-24T12:17:56Z</time>
      </trkpt>
      <trkpt lat="49.12358" lon="4.07834">
        <ele>244.6</ele>
        <time>2026-08-24T12:17:57Z</time>
      </trkpt>
      <trkpt lat="49.12357" lon="4.07829">
        <ele>244.8</ele>
        <time>2026-08-24T12:17:58Z</time>
      </trkpt>
      <trkpt lat="49.12357" lon="4.07824">
        <ele>245</ele>
        <time>2026-08-24T12:17:59Z</time>
      </trkpt>
      <trkpt lat="49.12357" lon="4.07819">
        <ele>245.2</ele>
        <time>2026-08-24T12:18:00Z</time>
      </trkpt>
      <trkpt lat="49.12357" lon="4.07814">
        <ele>245.2</ele>
        <time>2026-08-24T12:18:01Z</time>
      </trkpt>
      <trkpt lat="49.12357" lon="4.07808">
        <ele>245.4</ele>
        <time>2026-08-24T12:18:02Z</time>
      </trkpt>
      <trkpt lat="49.12358" lon="4.07803">
        <ele>245.6</ele>
        <time>2026-08-24T12:18:03Z</time>
      </trkpt>
      <trkpt lat="49.12358" lon="4.07798">
        <ele>245.6</ele>
        <time>2026-08-24T12:18:04Z</time>
      </trkpt>
      <trkpt lat="49.12359" lon="4.07792">
        <ele>245.6</ele>
        <time>2026-08-24T12:18:05Z</time>
      </trkpt>
      <trkpt lat="49.1236" lon="4.07787">
        <ele>245.8</ele>
        <time>2026-08-24T12:18:06Z</time>
      </trkpt>
      <trkpt lat="49.12362" lon="4.07782">
        <ele>245.8</ele>
        <time>2026-08-24T12:18:07Z</time>
      </trkpt>
      <trkpt lat="49.12363" lon="4.07778">
        <ele>246</ele>
        <time>2026-08-24T12:18:08Z</time>
      </trkpt>
      <trkpt lat="49.12365" lon="4.07773">
        <ele>246.2</ele>
        <time>2026-08-24T12:18:09Z</time>
      </trkpt>
      <trkpt lat="49.12367" lon="4.07768">
        <ele>246.2</ele>
        <time>2026-08-24T12:18:10Z</time>
      </trkpt>
      <trkpt lat="49.12368" lon="4.07764">
        <ele>246.4</ele>
        <time>2026-08-24T12:18:11Z</time>
      </trkpt>
      <trkpt lat="49.1237" lon="4.07759">
        <ele>246.6</ele>
        <time>2026-08-24T12:18:12Z</time>
      </trkpt>
      <trkpt lat="49.12372" lon="4.07755">
        <ele>246.8</ele>
        <time>2026-08-24T12:18:13Z</time>
      </trkpt>
      <trkpt lat="49.12374" lon="4.07751">
        <ele>247.2</ele>
        <time>2026-08-24T12:18:14Z</time>
      </trkpt>
      <trkpt lat="49.12376" lon="4.07746">
        <ele>247.4</ele>
        <time>2026-08-24T12:18:15Z</time>
      </trkpt>
      <trkpt lat="49.12377" lon="4.07742">
        <ele>247.6</ele>
        <time>2026-08-24T12:18:16Z</time>
      </trkpt>
      <trkpt lat="49.12379" lon="4.07737">
        <ele>248</ele>
        <time>2026-08-24T12:18:17Z</time>
      </trkpt>
      <trkpt lat="49.1238" lon="4.07733">
        <ele>248.2</ele>
        <time>2026-08-24T12:18:18Z</time>
      </trkpt>
      <trkpt lat="49.12382" lon="4.07728">
        <ele>248.4</ele>
        <time>2026-08-24T12:18:19Z</time>
      </trkpt>
      <trkpt lat="49.12384" lon="4.07724">
        <ele>248.8</ele>
        <time>2026-08-24T12:18:20Z</time>
      </trkpt>
      <trkpt lat="49.12386" lon="4.07719">
        <ele>249</ele>
        <time>2026-08-24T12:18:21Z</time>
      </trkpt>
      <trkpt lat="49.12388" lon="4.07715">
        <ele>249.2</ele>
        <time>2026-08-24T12:18:22Z</time>
      </trkpt>
      <trkpt lat="49.12389" lon="4.0771">
        <ele>249.4</ele>
        <time>2026-08-24T12:18:23Z</time>
      </trkpt>
      <trkpt lat="49.12391" lon="4.07705">
        <ele>249.6</ele>
        <time>2026-08-24T12:18:24Z</time>
      </trkpt>
      <trkpt lat="49.12393" lon="4.07701">
        <ele>249.8</ele>
        <time>2026-08-24T12:18:25Z</time>
      </trkpt>
      <trkpt lat="49.12395" lon="4.07696">
        <ele>250.2</ele>
        <time>2026-08-24T12:18:26Z</time>
      </trkpt>
      <trkpt lat="49.12396" lon="4.07692">
        <ele>250.6</ele>
        <time>2026-08-24T12:18:27Z</time>
      </trkpt>
      <trkpt lat="49.12398" lon="4.07688">
        <ele>250.8</ele>
        <time>2026-08-24T12:18:28Z</time>
      </trkpt>
      <trkpt lat="49.124" lon="4.07684">
        <ele>251</ele>
        <time>2026-08-24T12:18:29Z</time>
      </trkpt>
      <trkpt lat="49.12401" lon="4.07679">
        <ele>251.2</ele>
        <time>2026-08-24T12:18:30Z</time>
      </trkpt>
      <trkpt lat="49.12403" lon="4.07675">
        <ele>251.4</ele>
        <time>2026-08-24T12:18:31Z</time>
      </trkpt>
      <trkpt lat="49.12405" lon="4.07671">
        <ele>251.6</ele>
        <time>2026-08-24T12:18:32Z</time>
      </trkpt>
      <trkpt lat="49.12406" lon="4.07667">
        <ele>251.6</ele>
        <time>2026-08-24T12:18:33Z</time>
      </trkpt>
      <trkpt lat="49.12408" lon="4.07663">
        <ele>251.8</ele>
        <time>2026-08-24T12:18:34Z</time>
      </trkpt>
      <trkpt lat="49.12409" lon="4.07659">
        <ele>252</ele>
        <time>2026-08-24T12:18:35Z</time>
      </trkpt>
      <trkpt lat="49.12411" lon="4.07655">
        <ele>252.2</ele>
        <time>2026-08-24T12:18:36Z</time>
      </trkpt>
      <trkpt lat="49.12413" lon="4.07651">
        <ele>252.6</ele>
        <time>2026-08-24T12:18:37Z</time>
      </trkpt>
      <trkpt lat="49.12414" lon="4.07646">
        <ele>252.8</ele>
        <time>2026-08-24T12:18:38Z</time>
      </trkpt>
      <trkpt lat="49.12416" lon="4.07642">
        <ele>253.2</ele>
        <time>2026-08-24T12:18:39Z</time>
      </trkpt>
      <trkpt lat="49.12418" lon="4.07638">
        <ele>253.4</ele>
        <time>2026-08-24T12:18:40Z</time>
      </trkpt>
      <trkpt lat="49.12419" lon="4.07634">
        <ele>253.6</ele>
        <time>2026-08-24T12:18:41Z</time>
      </trkpt>
      <trkpt lat="49.12421" lon="4.0763">
        <ele>253.8</ele>
        <time>2026-08-24T12:18:42Z</time>
      </trkpt>
      <trkpt lat="49.12423" lon="4.07626">
        <ele>253.8</ele>
        <time>2026-08-24T12:18:43Z</time>
      </trkpt>
      <trkpt lat="49.12424" lon="4.07621">
        <ele>254</ele>
        <time>2026-08-24T12:18:44Z</time>
      </trkpt>
      <trkpt lat="49.12426" lon="4.07617">
        <ele>254.2</ele>
        <time>2026-08-24T12:18:45Z</time>
      </trkpt>
      <trkpt lat="49.12428" lon="4.07612">
        <ele>254.4</ele>
        <time>2026-08-24T12:18:46Z</time>
      </trkpt>
      <trkpt lat="49.1243" lon="4.07608">
        <ele>254.6</ele>
        <time>2026-08-24T12:18:47Z</time>
      </trkpt>
      <trkpt lat="49.12432" lon="4.07604">
        <ele>254.8</ele>
        <time>2026-08-24T12:18:48Z</time>
      </trkpt>
      <trkpt lat="49.12433" lon="4.076">
        <ele>255</ele>
        <time>2026-08-24T12:18:49Z</time>
      </trkpt>
      <trkpt lat="49.12435" lon="4.07595">
        <ele>255.2</ele>
        <time>2026-08-24T12:18:50Z</time>
      </trkpt>
      <trkpt lat="49.12437" lon="4.07591">
        <ele>255.4</ele>
        <time>2026-08-24T12:18:51Z</time>
      </trkpt>
      <trkpt lat="49.12438" lon="4.07587">
        <ele>255.6</ele>
        <time>2026-08-24T12:18:52Z</time>
      </trkpt>
      <trkpt lat="49.1244" lon="4.07582">
        <ele>255.8</ele>
        <time>2026-08-24T12:18:53Z</time>
      </trkpt>
      <trkpt lat="49.12442" lon="4.07578">
        <ele>256</ele>
        <time>2026-08-24T12:18:54Z</time>
      </trkpt>
      <trkpt lat="49.12443" lon="4.07574">
        <ele>256.4</ele>
        <time>2026-08-24T12:18:55Z</time>
      </trkpt>
      <trkpt lat="49.12445" lon="4.0757">
        <ele>256.6</ele>
        <time>2026-08-24T12:18:56Z</time>
      </trkpt>
      <trkpt lat="49.12447" lon="4.07566">
        <ele>256.8</ele>
        <time>2026-08-24T12:18:57Z</time>
      </trkpt>
      <trkpt lat="49.12448" lon="4.07562">
        <ele>257.2</ele>
        <time>2026-08-24T12:18:58Z</time>
      </trkpt>
      <trkpt lat="49.1245" lon="4.07558">
        <ele>257.2</ele>
        <time>2026-08-24T12:18:59Z</time>
      </trkpt>
      <trkpt lat="49.12452" lon="4.07554">
        <ele>257.4</ele>
        <time>2026-08-24T12:19:00Z</time>
      </trkpt>
      <trkpt lat="49.12454" lon="4.0755">
        <ele>257.6</ele>
        <time>2026-08-24T12:19:01Z</time>
      </trkpt>
      <trkpt lat="49.12455" lon="4.07546">
        <ele>257.8</ele>
        <time>2026-08-24T12:19:02Z</time>
      </trkpt>
      <trkpt lat="49.12457" lon="4.07542">
        <ele>258</ele>
        <time>2026-08-24T12:19:03Z</time>
      </trkpt>
      <trkpt lat="49.12459" lon="4.07539">
        <ele>258.2</ele>
        <time>2026-08-24T12:19:04Z</time>
      </trkpt>
      <trkpt lat="49.1246" lon="4.07535">
        <ele>258.4</ele>
        <time>2026-08-24T12:19:05Z</time>
      </trkpt>
      <trkpt lat="49.12462" lon="4.0753">
        <ele>258.4</ele>
        <time>2026-08-24T12:19:06Z</time>
      </trkpt>
      <trkpt lat="49.12464" lon="4.07527">
        <ele>258.6</ele>
        <time>2026-08-24T12:19:07Z</time>
      </trkpt>
      <trkpt lat="49.12466" lon="4.07522">
        <ele>258.6</ele>
        <time>2026-08-24T12:19:08Z</time>
      </trkpt>
      <trkpt lat="49.12468" lon="4.07518">
        <ele>258.8</ele>
        <time>2026-08-24T12:19:09Z</time>
      </trkpt>
      <trkpt lat="49.1247" lon="4.07513">
        <ele>259</ele>
        <time>2026-08-24T12:19:10Z</time>
      </trkpt>
      <trkpt lat="49.12473" lon="4.07509">
        <ele>259.2</ele>
        <time>2026-08-24T12:19:11Z</time>
      </trkpt>
      <trkpt lat="49.12475" lon="4.07504">
        <ele>259.2</ele>
        <time>2026-08-24T12:19:12Z</time>
      </trkpt>
      <trkpt lat="49.12477" lon="4.075">
        <ele>259.4</ele>
        <time>2026-08-24T12:19:13Z</time>
      </trkpt>
      <trkpt lat="49.1248" lon="4.07496">
        <ele>259.4</ele>
        <time>2026-08-24T12:19:14Z</time>
      </trkpt>
      <trkpt lat="49.12482" lon="4.07491">
        <ele>259.4</ele>
        <time>2026-08-24T12:19:15Z</time>
      </trkpt>
      <trkpt lat="49.12484" lon="4.07486">
        <ele>259.6</ele>
        <time>2026-08-24T12:19:16Z</time>
      </trkpt>
      <trkpt lat="49.12487" lon="4.07481">
        <ele>259.6</ele>
        <time>2026-08-24T12:19:17Z</time>
      </trkpt>
      <trkpt lat="49.12489" lon="4.07476">
        <ele>259.8</ele>
        <time>2026-08-24T12:19:18Z</time>
      </trkpt>
      <trkpt lat="49.12492" lon="4.07471">
        <ele>260</ele>
        <time>2026-08-24T12:19:19Z</time>
      </trkpt>
      <trkpt lat="49.12494" lon="4.07465">
        <ele>260</ele>
        <time>2026-08-24T12:19:20Z</time>
      </trkpt>
      <trkpt lat="49.12496" lon="4.0746">
        <ele>260.2</ele>
        <time>2026-08-24T12:19:21Z</time>
      </trkpt>
      <trkpt lat="49.12499" lon="4.07455">
        <ele>260.4</ele>
        <time>2026-08-24T12:19:22Z</time>
      </trkpt>
      <trkpt lat="49.12502" lon="4.0745">
        <ele>260.6</ele>
        <time>2026-08-24T12:19:23Z</time>
      </trkpt>
      <trkpt lat="49.12504" lon="4.07445">
        <ele>260.8</ele>
        <time>2026-08-24T12:19:24Z</time>
      </trkpt>
      <trkpt lat="49.12507" lon="4.0744">
        <ele>261</ele>
        <time>2026-08-24T12:19:25Z</time>
      </trkpt>
      <trkpt lat="49.1251" lon="4.07434">
        <ele>261.2</ele>
        <time>2026-08-24T12:19:26Z</time>
      </trkpt>
      <trkpt lat="49.12512" lon="4.07429">
        <ele>261.2</ele>
        <time>2026-08-24T12:19:27Z</time>
      </trkpt>
      <trkpt lat="49.12515" lon="4.07422">
        <ele>261.4</ele>
        <time>2026-08-24T12:19:28Z</time>
      </trkpt>
      <trkpt lat="49.12518" lon="4.07416">
        <ele>261.4</ele>
        <time>2026-08-24T12:19:29Z</time>
      </trkpt>
      <trkpt lat="49.1252" lon="4.0741">
        <ele>261.6</ele>
        <time>2026-08-24T12:19:30Z</time>
      </trkpt>
      <trkpt lat="49.12522" lon="4.07404">
        <ele>261.6</ele>
        <time>2026-08-24T12:19:31Z</time>
      </trkpt>
      <trkpt lat="49.12523" lon="4.07397">
        <ele>261.8</ele>
        <time>2026-08-24T12:19:32Z</time>
      </trkpt>
      <trkpt lat="49.12525" lon="4.0739">
        <ele>261.8</ele>
        <time>2026-08-24T12:19:33Z</time>
      </trkpt>
      <trkpt lat="49.12526" lon="4.07384">
        <ele>261.8</ele>
        <time>2026-08-24T12:19:34Z</time>
      </trkpt>
      <trkpt lat="49.12527" lon="4.07377">
        <ele>262</ele>
        <time>2026-08-24T12:19:35Z</time>
      </trkpt>
      <trkpt lat="49.12528" lon="4.0737">
        <ele>262</ele>
        <time>2026-08-24T12:19:36Z</time>
      </trkpt>
      <trkpt lat="49.12529" lon="4.07362">
        <ele>262</ele>
        <time>2026-08-24T12:19:37Z</time>
      </trkpt>
      <trkpt lat="49.12529" lon="4.07354">
        <ele>262.2</ele>
        <time>2026-08-24T12:19:38Z</time>
      </trkpt>
      <trkpt lat="49.12529" lon="4.07346">
        <ele>262.2</ele>
        <time>2026-08-24T12:19:39Z</time>
      </trkpt>
      <trkpt lat="49.12529" lon="4.07338">
        <ele>262.2</ele>
        <time>2026-08-24T12:19:40Z</time>
      </trkpt>
      <trkpt lat="49.12529" lon="4.07329">
        <ele>262.2</ele>
        <time>2026-08-24T12:19:41Z</time>
      </trkpt>
      <trkpt lat="49.12529" lon="4.0732">
        <ele>262.2</ele>
        <time>2026-08-24T12:19:42Z</time>
      </trkpt>
      <trkpt lat="49.12529" lon="4.07311">
        <ele>262.2</ele>
        <time>2026-08-24T12:19:43Z</time>
      </trkpt>
      <trkpt lat="49.12528" lon="4.07302">
        <ele>262.2</ele>
        <time>2026-08-24T12:19:44Z</time>
      </trkpt>
      <trkpt lat="49.12528" lon="4.07293">
        <ele>262.4</ele>
        <time>2026-08-24T12:19:45Z</time>
      </trkpt>
      <trkpt lat="49.12528" lon="4.07283">
        <ele>262.4</ele>
        <time>2026-08-24T12:19:46Z</time>
      </trkpt>
      <trkpt lat="49.12527" lon="4.07274">
        <ele>262.4</ele>
        <time>2026-08-24T12:19:47Z</time>
      </trkpt>
      <trkpt lat="49.12527" lon="4.07264">
        <ele>262.6</ele>
        <time>2026-08-24T12:19:48Z</time>
      </trkpt>
      <trkpt lat="49.12527" lon="4.07255">
        <ele>262.6</ele>
        <time>2026-08-24T12:19:49Z</time>
      </trkpt>
      <trkpt lat="49.12526" lon="4.07245">
        <ele>262.6</ele>
        <time>2026-08-24T12:19:50Z</time>
      </trkpt>
      <trkpt lat="49.12525" lon="4.07236">
        <ele>262.6</ele>
        <time>2026-08-24T12:19:51Z</time>
      </trkpt>
      <trkpt lat="49.12525" lon="4.07226">
        <ele>262.8</ele>
        <time>2026-08-24T12:19:52Z</time>
      </trkpt>
      <trkpt lat="49.12525" lon="4.07217">
        <ele>262.8</ele>
        <time>2026-08-24T12:19:53Z</time>
      </trkpt>
      <trkpt lat="49.12525" lon="4.07207">
        <ele>262.8</ele>
        <time>2026-08-24T12:19:54Z</time>
      </trkpt>
      <trkpt lat="49.12524" lon="4.07197">
        <ele>262.8</ele>
        <time>2026-08-24T12:19:55Z</time>
      </trkpt>
      <trkpt lat="49.12524" lon="4.07188">
        <ele>262.8</ele>
        <time>2026-08-24T12:19:56Z</time>
      </trkpt>
      <trkpt lat="49.12524" lon="4.07178">
        <ele>262.6</ele>
        <time>2026-08-24T12:19:57Z</time>
      </trkpt>
      <trkpt lat="49.12524" lon="4.07168">
        <ele>262.4</ele>
        <time>2026-08-24T12:19:58Z</time>
      </trkpt>
      <trkpt lat="49.12523" lon="4.07158">
        <ele>262.4</ele>
        <time>2026-08-24T12:19:59Z</time>
      </trkpt>
      <trkpt lat="49.12523" lon="4.07147">
        <ele>262.4</ele>
        <time>2026-08-24T12:20:00Z</time>
      </trkpt>
      <trkpt lat="49.12523" lon="4.07137">
        <ele>262.4</ele>
        <time>2026-08-24T12:20:01Z</time>
      </trkpt>
      <trkpt lat="49.12522" lon="4.07126">
        <ele>262.4</ele>
        <time>2026-08-24T12:20:02Z</time>
      </trkpt>
      <trkpt lat="49.12522" lon="4.07115">
        <ele>262.4</ele>
        <time>2026-08-24T12:20:03Z</time>
      </trkpt>
      <trkpt lat="49.12522" lon="4.07105">
        <ele>262.6</ele>
        <time>2026-08-24T12:20:04Z</time>
      </trkpt>
      <trkpt lat="49.12522" lon="4.07094">
        <ele>262.6</ele>
        <time>2026-08-24T12:20:05Z</time>
      </trkpt>
      <trkpt lat="49.12521" lon="4.07083">
        <ele>262.6</ele>
        <time>2026-08-24T12:20:06Z</time>
      </trkpt>
      <trkpt lat="49.12521" lon="4.07073">
        <ele>262.6</ele>
        <time>2026-08-24T12:20:07Z</time>
      </trkpt>
      <trkpt lat="49.1252" lon="4.07062">
        <ele>262.8</ele>
        <time>2026-08-24T12:20:08Z</time>
      </trkpt>
      <trkpt lat="49.1252" lon="4.07052">
        <ele>262.8</ele>
        <time>2026-08-24T12:20:09Z</time>
      </trkpt>
      <trkpt lat="49.1252" lon="4.07041">
        <ele>262.8</ele>
        <time>2026-08-24T12:20:10Z</time>
      </trkpt>
      <trkpt lat="49.12519" lon="4.0703">
        <ele>262.8</ele>
        <time>2026-08-24T12:20:11Z</time>
      </trkpt>
      <trkpt lat="49.12519" lon="4.0702">
        <ele>263</ele>
        <time>2026-08-24T12:20:12Z</time>
      </trkpt>
      <trkpt lat="49.12519" lon="4.07009">
        <ele>263</ele>
        <time>2026-08-24T12:20:13Z</time>
      </trkpt>
      <trkpt lat="49.12519" lon="4.06998">
        <ele>263.2</ele>
        <time>2026-08-24T12:20:14Z</time>
      </trkpt>
      <trkpt lat="49.12519" lon="4.06987">
        <ele>263.2</ele>
        <time>2026-08-24T12:20:15Z</time>
      </trkpt>
      <trkpt lat="49.12519" lon="4.06977">
        <ele>263.4</ele>
        <time>2026-08-24T12:20:16Z</time>
      </trkpt>
      <trkpt lat="49.12519" lon="4.06967">
        <ele>263.6</ele>
        <time>2026-08-24T12:20:17Z</time>
      </trkpt>
      <trkpt lat="49.12521" lon="4.06957">
        <ele>263.8</ele>
        <time>2026-08-24T12:20:18Z</time>
      </trkpt>
      <trkpt lat="49.12522" lon="4.06947">
        <ele>264</ele>
        <time>2026-08-24T12:20:19Z</time>
      </trkpt>
      <trkpt lat="49.12524" lon="4.06938">
        <ele>264.2</ele>
        <time>2026-08-24T12:20:20Z</time>
      </trkpt>
      <trkpt lat="49.12526" lon="4.06929">
        <ele>264.4</ele>
        <time>2026-08-24T12:20:21Z</time>
      </trkpt>
      <trkpt lat="49.12527" lon="4.0692">
        <ele>264.4</ele>
        <time>2026-08-24T12:20:22Z</time>
      </trkpt>
      <trkpt lat="49.12529" lon="4.06912">
        <ele>264.6</ele>
        <time>2026-08-24T12:20:23Z</time>
      </trkpt>
      <trkpt lat="49.12531" lon="4.06903">
        <ele>264.8</ele>
        <time>2026-08-24T12:20:24Z</time>
      </trkpt>
      <trkpt lat="49.12533" lon="4.06895">
        <ele>265</ele>
        <time>2026-08-24T12:20:25Z</time>
      </trkpt>
      <trkpt lat="49.12536" lon="4.06888">
        <ele>265.2</ele>
        <time>2026-08-24T12:20:26Z</time>
      </trkpt>
      <trkpt lat="49.12538" lon="4.0688">
        <ele>265.6</ele>
        <time>2026-08-24T12:20:27Z</time>
      </trkpt>
      <trkpt lat="49.12539" lon="4.06872">
        <ele>265.8</ele>
        <time>2026-08-24T12:20:28Z</time>
      </trkpt>
      <trkpt lat="49.12541" lon="4.06865">
        <ele>266.2</ele>
        <time>2026-08-24T12:20:29Z</time>
      </trkpt>
      <trkpt lat="49.12543" lon="4.06857">
        <ele>266.6</ele>
        <time>2026-08-24T12:20:30Z</time>
      </trkpt>
      <trkpt lat="49.12545" lon="4.0685">
        <ele>267</ele>
        <time>2026-08-24T12:20:31Z</time>
      </trkpt>
      <trkpt lat="49.12547" lon="4.06843">
        <ele>267.2</ele>
        <time>2026-08-24T12:20:32Z</time>
      </trkpt>
      <trkpt lat="49.12549" lon="4.06835">
        <ele>267.4</ele>
        <time>2026-08-24T12:20:33Z</time>
      </trkpt>
      <trkpt lat="49.12551" lon="4.06828">
        <ele>267.6</ele>
        <time>2026-08-24T12:20:34Z</time>
      </trkpt>
      <trkpt lat="49.12554" lon="4.06821">
        <ele>267.6</ele>
        <time>2026-08-24T12:20:35Z</time>
      </trkpt>
      <trkpt lat="49.12556" lon="4.06814">
        <ele>267.6</ele>
        <time>2026-08-24T12:20:36Z</time>
      </trkpt>
      <trkpt lat="49.12558" lon="4.06807">
        <ele>267.8</ele>
        <time>2026-08-24T12:20:37Z</time>
      </trkpt>
      <trkpt lat="49.1256" lon="4.06799">
        <ele>268</ele>
        <time>2026-08-24T12:20:38Z</time>
      </trkpt>
      <trkpt lat="49.12562" lon="4.06791">
        <ele>268.2</ele>
        <time>2026-08-24T12:20:39Z</time>
      </trkpt>
      <trkpt lat="49.12563" lon="4.06784">
        <ele>268.4</ele>
        <time>2026-08-24T12:20:40Z</time>
      </trkpt>
      <trkpt lat="49.12565" lon="4.06776">
        <ele>268.6</ele>
        <time>2026-08-24T12:20:41Z</time>
      </trkpt>
      <trkpt lat="49.12566" lon="4.06768">
        <ele>268.8</ele>
        <time>2026-08-24T12:20:42Z</time>
      </trkpt>
      <trkpt lat="49.12567" lon="4.0676">
        <ele>268.8</ele>
        <time>2026-08-24T12:20:43Z</time>
      </trkpt>
      <trkpt lat="49.12568" lon="4.06751">
        <ele>269</ele>
        <time>2026-08-24T12:20:44Z</time>
      </trkpt>
      <trkpt lat="49.12569" lon="4.06743">
        <ele>269</ele>
        <time>2026-08-24T12:20:45Z</time>
      </trkpt>
      <trkpt lat="49.1257" lon="4.06734">
        <ele>269.2</ele>
        <time>2026-08-24T12:20:46Z</time>
      </trkpt>
      <trkpt lat="49.1257" lon="4.06726">
        <ele>269.4</ele>
        <time>2026-08-24T12:20:47Z</time>
      </trkpt>
      <trkpt lat="49.12571" lon="4.06717">
        <ele>269.8</ele>
        <time>2026-08-24T12:20:48Z</time>
      </trkpt>
      <trkpt lat="49.12571" lon="4.06708">
        <ele>269.8</ele>
        <time>2026-08-24T12:20:49Z</time>
      </trkpt>
      <trkpt lat="49.12571" lon="4.06699">
        <ele>270</ele>
        <time>2026-08-24T12:20:50Z</time>
      </trkpt>
      <trkpt lat="49.12571" lon="4.0669">
        <ele>270.2</ele>
        <time>2026-08-24T12:20:51Z</time>
      </trkpt>
      <trkpt lat="49.12571" lon="4.06681">
        <ele>270.2</ele>
        <time>2026-08-24T12:20:52Z</time>
      </trkpt>
      <trkpt lat="49.12571" lon="4.06672">
        <ele>270.2</ele>
        <time>2026-08-24T12:20:53Z</time>
      </trkpt>
      <trkpt lat="49.12571" lon="4.06663">
        <ele>270.2</ele>
        <time>2026-08-24T12:20:54Z</time>
      </trkpt>
      <trkpt lat="49.12571" lon="4.06654">
        <ele>270.4</ele>
        <time>2026-08-24T12:20:55Z</time>
      </trkpt>
      <trkpt lat="49.12571" lon="4.06645">
        <ele>270.4</ele>
        <time>2026-08-24T12:20:56Z</time>
      </trkpt>
      <trkpt lat="49.12571" lon="4.06636">
        <ele>270.6</ele>
        <time>2026-08-24T12:20:57Z</time>
      </trkpt>
      <trkpt lat="49.1257" lon="4.06627">
        <ele>270.6</ele>
        <time>2026-08-24T12:20:58Z</time>
      </trkpt>
      <trkpt lat="49.1257" lon="4.06618">
        <ele>270.6</ele>
        <time>2026-08-24T12:20:59Z</time>
      </trkpt>
      <trkpt lat="49.1257" lon="4.06609">
        <ele>270.6</ele>
        <time>2026-08-24T12:21:00Z</time>
      </trkpt>
      <trkpt lat="49.1257" lon="4.06599">
        <ele>270.8</ele>
        <time>2026-08-24T12:21:01Z</time>
      </trkpt>
      <trkpt lat="49.1257" lon="4.0659">
        <ele>270.8</ele>
        <time>2026-08-24T12:21:02Z</time>
      </trkpt>
      <trkpt lat="49.1257" lon="4.06581">
        <ele>270.8</ele>
        <time>2026-08-24T12:21:03Z</time>
      </trkpt>
      <trkpt lat="49.12569" lon="4.06571">
        <ele>270.8</ele>
        <time>2026-08-24T12:21:04Z</time>
      </trkpt>
      <trkpt lat="49.12569" lon="4.06562">
        <ele>271</ele>
        <time>2026-08-24T12:21:05Z</time>
      </trkpt>
      <trkpt lat="49.12569" lon="4.06552">
        <ele>271</ele>
        <time>2026-08-24T12:21:06Z</time>
      </trkpt>
      <trkpt lat="49.12569" lon="4.06543">
        <ele>271</ele>
        <time>2026-08-24T12:21:07Z</time>
      </trkpt>
      <trkpt lat="49.12569" lon="4.06534">
        <ele>271</ele>
        <time>2026-08-24T12:21:08Z</time>
      </trkpt>
      <trkpt lat="49.12569" lon="4.06524">
        <ele>271.2</ele>
        <time>2026-08-24T12:21:09Z</time>
      </trkpt>
      <trkpt lat="49.12569" lon="4.06515">
        <ele>271.4</ele>
        <time>2026-08-24T12:21:10Z</time>
      </trkpt>
      <trkpt lat="49.12569" lon="4.06506">
        <ele>271.6</ele>
        <time>2026-08-24T12:21:11Z</time>
      </trkpt>
      <trkpt lat="49.12568" lon="4.06496">
        <ele>271.6</ele>
        <time>2026-08-24T12:21:12Z</time>
      </trkpt>
      <trkpt lat="49.12568" lon="4.06487">
        <ele>271.6</ele>
        <time>2026-08-24T12:21:13Z</time>
      </trkpt>
      <trkpt lat="49.12568" lon="4.06478">
        <ele>271.8</ele>
        <time>2026-08-24T12:21:14Z</time>
      </trkpt>
      <trkpt lat="49.12568" lon="4.06468">
        <ele>272</ele>
        <time>2026-08-24T12:21:15Z</time>
      </trkpt>
      <trkpt lat="49.12567" lon="4.06458">
        <ele>272</ele>
        <time>2026-08-24T12:21:16Z</time>
      </trkpt>
      <trkpt lat="49.12567" lon="4.06449">
        <ele>272</ele>
        <time>2026-08-24T12:21:17Z</time>
      </trkpt>
      <trkpt lat="49.12567" lon="4.0644">
        <ele>272.2</ele>
        <time>2026-08-24T12:21:18Z</time>
      </trkpt>
      <trkpt lat="49.12567" lon="4.0643">
        <ele>272.2</ele>
        <time>2026-08-24T12:21:19Z</time>
      </trkpt>
      <trkpt lat="49.12568" lon="4.06421">
        <ele>272.4</ele>
        <time>2026-08-24T12:21:20Z</time>
      </trkpt>
      <trkpt lat="49.12568" lon="4.06413">
        <ele>272.4</ele>
        <time>2026-08-24T12:21:21Z</time>
      </trkpt>
      <trkpt lat="49.12569" lon="4.06404">
        <ele>272.6</ele>
        <time>2026-08-24T12:21:22Z</time>
      </trkpt>
      <trkpt lat="49.1257" lon="4.06395">
        <ele>272.8</ele>
        <time>2026-08-24T12:21:23Z</time>
      </trkpt>
      <trkpt lat="49.1257" lon="4.06386">
        <ele>273</ele>
        <time>2026-08-24T12:21:24Z</time>
      </trkpt>
      <trkpt lat="49.12571" lon="4.06377">
        <ele>273.2</ele>
        <time>2026-08-24T12:21:25Z</time>
      </trkpt>
      <trkpt lat="49.12572" lon="4.06367">
        <ele>273.4</ele>
        <time>2026-08-24T12:21:26Z</time>
      </trkpt>
      <trkpt lat="49.12573" lon="4.06358">
        <ele>273.4</ele>
        <time>2026-08-24T12:21:27Z</time>
      </trkpt>
      <trkpt lat="49.12573" lon="4.06349">
        <ele>273.2</ele>
        <time>2026-08-24T12:21:28Z</time>
      </trkpt>
      <trkpt lat="49.12574" lon="4.06339">
        <ele>273.2</ele>
        <time>2026-08-24T12:21:29Z</time>
      </trkpt>
      <trkpt lat="49.12575" lon="4.0633">
        <ele>273.2</ele>
        <time>2026-08-24T12:21:30Z</time>
      </trkpt>
      <trkpt lat="49.12576" lon="4.0632">
        <ele>273</ele>
        <time>2026-08-24T12:21:31Z</time>
      </trkpt>
      <trkpt lat="49.12577" lon="4.06311">
        <ele>273.2</ele>
        <time>2026-08-24T12:21:32Z</time>
      </trkpt>
      <trkpt lat="49.12578" lon="4.06301">
        <ele>273.2</ele>
        <time>2026-08-24T12:21:33Z</time>
      </trkpt>
      <trkpt lat="49.12578" lon="4.06291">
        <ele>273</ele>
        <time>2026-08-24T12:21:34Z</time>
      </trkpt>
      <trkpt lat="49.12579" lon="4.0628">
        <ele>273</ele>
        <time>2026-08-24T12:21:35Z</time>
      </trkpt>
      <trkpt lat="49.1258" lon="4.0627">
        <ele>272.8</ele>
        <time>2026-08-24T12:21:36Z</time>
      </trkpt>
      <trkpt lat="49.12581" lon="4.06259">
        <ele>272.6</ele>
        <time>2026-08-24T12:21:37Z</time>
      </trkpt>
      <trkpt lat="49.12582" lon="4.06248">
        <ele>272.4</ele>
        <time>2026-08-24T12:21:38Z</time>
      </trkpt>
      <trkpt lat="49.12584" lon="4.06237">
        <ele>272.2</ele>
        <time>2026-08-24T12:21:39Z</time>
      </trkpt>
      <trkpt lat="49.12585" lon="4.06226">
        <ele>272</ele>
        <time>2026-08-24T12:21:40Z</time>
      </trkpt>
      <trkpt lat="49.12586" lon="4.06214">
        <ele>271.6</ele>
        <time>2026-08-24T12:21:41Z</time>
      </trkpt>
      <trkpt lat="49.12586" lon="4.06203">
        <ele>271.6</ele>
        <time>2026-08-24T12:21:42Z</time>
      </trkpt>
      <trkpt lat="49.12587" lon="4.06191">
        <ele>271.6</ele>
        <time>2026-08-24T12:21:43Z</time>
      </trkpt>
      <trkpt lat="49.12589" lon="4.06179">
        <ele>271.4</ele>
        <time>2026-08-24T12:21:44Z</time>
      </trkpt>
      <trkpt lat="49.1259" lon="4.06167">
        <ele>271.4</ele>
        <time>2026-08-24T12:21:45Z</time>
      </trkpt>
      <trkpt lat="49.12591" lon="4.06155">
        <ele>271</ele>
        <time>2026-08-24T12:21:46Z</time>
      </trkpt>
      <trkpt lat="49.12592" lon="4.06143">
        <ele>270.8</ele>
        <time>2026-08-24T12:21:47Z</time>
      </trkpt>
      <trkpt lat="49.12593" lon="4.06132">
        <ele>270.6</ele>
        <time>2026-08-24T12:21:48Z</time>
      </trkpt>
      <trkpt lat="49.12594" lon="4.0612">
        <ele>270.6</ele>
        <time>2026-08-24T12:21:49Z</time>
      </trkpt>
      <trkpt lat="49.12595" lon="4.06108">
        <ele>270.8</ele>
        <time>2026-08-24T12:21:50Z</time>
      </trkpt>
      <trkpt lat="49.12596" lon="4.06096">
        <ele>270.8</ele>
        <time>2026-08-24T12:21:51Z</time>
      </trkpt>
      <trkpt lat="49.12597" lon="4.06083">
        <ele>270.8</ele>
        <time>2026-08-24T12:21:52Z</time>
      </trkpt>
      <trkpt lat="49.12598" lon="4.06071">
        <ele>270.8</ele>
        <time>2026-08-24T12:21:53Z</time>
      </trkpt>
      <trkpt lat="49.12599" lon="4.06058">
        <ele>270.8</ele>
        <time>2026-08-24T12:21:54Z</time>
      </trkpt>
      <trkpt lat="49.126" lon="4.06045">
        <ele>270.6</ele>
        <time>2026-08-24T12:21:55Z</time>
      </trkpt>
      <trkpt lat="49.12602" lon="4.06032">
        <ele>270.4</ele>
        <time>2026-08-24T12:21:56Z</time>
      </trkpt>
      <trkpt lat="49.12603" lon="4.06019">
        <ele>270.2</ele>
        <time>2026-08-24T12:21:57Z</time>
      </trkpt>
      <trkpt lat="49.12604" lon="4.06006">
        <ele>270.2</ele>
        <time>2026-08-24T12:21:58Z</time>
      </trkpt>
      <trkpt lat="49.12605" lon="4.05992">
        <ele>270.2</ele>
        <time>2026-08-24T12:21:59Z</time>
      </trkpt>
      <trkpt lat="49.12607" lon="4.05979">
        <ele>270.2</ele>
        <time>2026-08-24T12:22:00Z</time>
      </trkpt>
      <trkpt lat="49.12608" lon="4.05966">
        <ele>270.2</ele>
        <time>2026-08-24T12:22:01Z</time>
      </trkpt>
      <trkpt lat="49.12609" lon="4.05953">
        <ele>270.2</ele>
        <time>2026-08-24T12:22:02Z</time>
      </trkpt>
      <trkpt lat="49.1261" lon="4.0594">
        <ele>270.2</ele>
        <time>2026-08-24T12:22:03Z</time>
      </trkpt>
      <trkpt lat="49.12611" lon="4.05927">
        <ele>270</ele>
        <time>2026-08-24T12:22:04Z</time>
      </trkpt>
      <trkpt lat="49.12613" lon="4.05913">
        <ele>270</ele>
        <time>2026-08-24T12:22:05Z</time>
      </trkpt>
      <trkpt lat="49.12614" lon="4.059">
        <ele>270</ele>
        <time>2026-08-24T12:22:06Z</time>
      </trkpt>
      <trkpt lat="49.12615" lon="4.05887">
        <ele>270</ele>
        <time>2026-08-24T12:22:07Z</time>
      </trkpt>
      <trkpt lat="49.12616" lon="4.05874">
        <ele>270.2</ele>
        <time>2026-08-24T12:22:08Z</time>
      </trkpt>
      <trkpt lat="49.12617" lon="4.0586">
        <ele>270.2</ele>
        <time>2026-08-24T12:22:09Z</time>
      </trkpt>
      <trkpt lat="49.12618" lon="4.05848">
        <ele>270.2</ele>
        <time>2026-08-24T12:22:10Z</time>
      </trkpt>
      <trkpt lat="49.12619" lon="4.05835">
        <ele>269.8</ele>
        <time>2026-08-24T12:22:11Z</time>
      </trkpt>
      <trkpt lat="49.12621" lon="4.05822">
        <ele>269.6</ele>
        <time>2026-08-24T12:22:12Z</time>
      </trkpt>
      <trkpt lat="49.12622" lon="4.0581">
        <ele>269.4</ele>
        <time>2026-08-24T12:22:13Z</time>
      </trkpt>
      <trkpt lat="49.12624" lon="4.05797">
        <ele>269</ele>
        <time>2026-08-24T12:22:14Z</time>
      </trkpt>
      <trkpt lat="49.12625" lon="4.05784">
        <ele>269</ele>
        <time>2026-08-24T12:22:15Z</time>
      </trkpt>
      <trkpt lat="49.12626" lon="4.05772">
        <ele>268.8</ele>
        <time>2026-08-24T12:22:16Z</time>
      </trkpt>
      <trkpt lat="49.12626" lon="4.05759">
        <ele>268.4</ele>
        <time>2026-08-24T12:22:17Z</time>
      </trkpt>
      <trkpt lat="49.12626" lon="4.05747">
        <ele>268.2</ele>
        <time>2026-08-24T12:22:18Z</time>
      </trkpt>
      <trkpt lat="49.12626" lon="4.05735">
        <ele>268.2</ele>
        <time>2026-08-24T12:22:19Z</time>
      </trkpt>
      <trkpt lat="49.12625" lon="4.05723">
        <ele>267.8</ele>
        <time>2026-08-24T12:22:20Z</time>
      </trkpt>
      <trkpt lat="49.12623" lon="4.05711">
        <ele>267.8</ele>
        <time>2026-08-24T12:22:21Z</time>
      </trkpt>
      <trkpt lat="49.1262" lon="4.05699">
        <ele>267.6</ele>
        <time>2026-08-24T12:22:22Z</time>
      </trkpt>
      <trkpt lat="49.12616" lon="4.05687">
        <ele>267.4</ele>
        <time>2026-08-24T12:22:23Z</time>
      </trkpt>
      <trkpt lat="49.12612" lon="4.05675">
        <ele>267.4</ele>
        <time>2026-08-24T12:22:24Z</time>
      </trkpt>
      <trkpt lat="49.12607" lon="4.05664">
        <ele>267.2</ele>
        <time>2026-08-24T12:22:25Z</time>
      </trkpt>
      <trkpt lat="49.12602" lon="4.05653">
        <ele>266.8</ele>
        <time>2026-08-24T12:22:26Z</time>
      </trkpt>
      <trkpt lat="49.12596" lon="4.05643">
        <ele>266.6</ele>
        <time>2026-08-24T12:22:27Z</time>
      </trkpt>
      <trkpt lat="49.1259" lon="4.05633">
        <ele>266.2</ele>
        <time>2026-08-24T12:22:28Z</time>
      </trkpt>
      <trkpt lat="49.12585" lon="4.05624">
        <ele>265.8</ele>
        <time>2026-08-24T12:22:29Z</time>
      </trkpt>
      <trkpt lat="49.12577" lon="4.05612">
        <ele>265.6</ele>
        <time>2026-08-24T12:22:30Z</time>
      </trkpt>
      <trkpt lat="49.1257" lon="4.05601">
        <ele>265.4</ele>
        <time>2026-08-24T12:22:31Z</time>
      </trkpt>
      <trkpt lat="49.12563" lon="4.0559">
        <ele>265</ele>
        <time>2026-08-24T12:22:32Z</time>
      </trkpt>
      <trkpt lat="49.12556" lon="4.05579">
        <ele>264.8</ele>
        <time>2026-08-24T12:22:33Z</time>
      </trkpt>
      <trkpt lat="49.1255" lon="4.05567">
        <ele>264.4</ele>
        <time>2026-08-24T12:22:34Z</time>
      </trkpt>
      <trkpt lat="49.12543" lon="4.05556">
        <ele>263.8</ele>
        <time>2026-08-24T12:22:35Z</time>
      </trkpt>
      <trkpt lat="49.12536" lon="4.05544">
        <ele>263.4</ele>
        <time>2026-08-24T12:22:36Z</time>
      </trkpt>
      <trkpt lat="49.12529" lon="4.05533">
        <ele>263.4</ele>
        <time>2026-08-24T12:22:37Z</time>
      </trkpt>
      <trkpt lat="49.12521" lon="4.05522">
        <ele>263</ele>
        <time>2026-08-24T12:22:38Z</time>
      </trkpt>
      <trkpt lat="49.12514" lon="4.0551">
        <ele>262.6</ele>
        <time>2026-08-24T12:22:39Z</time>
      </trkpt>
      <trkpt lat="49.12506" lon="4.05498">
        <ele>262.2</ele>
        <time>2026-08-24T12:22:40Z</time>
      </trkpt>
      <trkpt lat="49.12499" lon="4.05484">
        <ele>261.8</ele>
        <time>2026-08-24T12:22:41Z</time>
      </trkpt>
      <trkpt lat="49.12492" lon="4.0547">
        <ele>261.2</ele>
        <time>2026-08-24T12:22:42Z</time>
      </trkpt>
      <trkpt lat="49.12486" lon="4.05455">
        <ele>260.8</ele>
        <time>2026-08-24T12:22:43Z</time>
      </trkpt>
      <trkpt lat="49.12482" lon="4.05439">
        <ele>259.8</ele>
        <time>2026-08-24T12:22:44Z</time>
      </trkpt>
      <trkpt lat="49.12478" lon="4.05422">
        <ele>259</ele>
        <time>2026-08-24T12:22:45Z</time>
      </trkpt>
      <trkpt lat="49.12477" lon="4.05404">
        <ele>258.2</ele>
        <time>2026-08-24T12:22:46Z</time>
      </trkpt>
      <trkpt lat="49.12476" lon="4.05385">
        <ele>257</ele>
        <time>2026-08-24T12:22:47Z</time>
      </trkpt>
      <trkpt lat="49.12476" lon="4.05367">
        <ele>255.8</ele>
        <time>2026-08-24T12:22:48Z</time>
      </trkpt>
      <trkpt lat="49.12477" lon="4.05348">
        <ele>255</ele>
        <time>2026-08-24T12:22:49Z</time>
      </trkpt>
      <trkpt lat="49.1248" lon="4.0533">
        <ele>254.6</ele>
        <time>2026-08-24T12:22:50Z</time>
      </trkpt>
      <trkpt lat="49.12482" lon="4.05312">
        <ele>253.8</ele>
        <time>2026-08-24T12:22:51Z</time>
      </trkpt>
      <trkpt lat="49.12484" lon="4.05294">
        <ele>253.4</ele>
        <time>2026-08-24T12:22:52Z</time>
      </trkpt>
      <trkpt lat="49.12484" lon="4.05276">
        <ele>253.2</ele>
        <time>2026-08-24T12:22:53Z</time>
      </trkpt>
      <trkpt lat="49.12483" lon="4.05258">
        <ele>252.8</ele>
        <time>2026-08-24T12:22:54Z</time>
      </trkpt>
      <trkpt lat="49.12481" lon="4.05241">
        <ele>252.6</ele>
        <time>2026-08-24T12:22:55Z</time>
      </trkpt>
      <trkpt lat="49.12479" lon="4.05225">
        <ele>252.6</ele>
        <time>2026-08-24T12:22:56Z</time>
      </trkpt>
      <trkpt lat="49.12476" lon="4.0521">
        <ele>252.6</ele>
        <time>2026-08-24T12:22:57Z</time>
      </trkpt>
      <trkpt lat="49.12474" lon="4.05197">
        <ele>252.8</ele>
        <time>2026-08-24T12:22:58Z</time>
      </trkpt>
      <trkpt lat="49.1247" lon="4.05179">
        <ele>253</ele>
        <time>2026-08-24T12:22:59Z</time>
      </trkpt>
      <trkpt lat="49.12467" lon="4.05168">
        <ele>252.8</ele>
        <time>2026-08-24T12:23:00Z</time>
      </trkpt>
      <trkpt lat="49.12463" lon="4.05151">
        <ele>253</ele>
        <time>2026-08-24T12:23:01Z</time>
      </trkpt>
      <trkpt lat="49.12459" lon="4.05138">
        <ele>253</ele>
        <time>2026-08-24T12:23:02Z</time>
      </trkpt>
      <trkpt lat="49.12454" lon="4.05125">
        <ele>253</ele>
        <time>2026-08-24T12:23:03Z</time>
      </trkpt>
      <trkpt lat="49.12449" lon="4.05113">
        <ele>253.2</ele>
        <time>2026-08-24T12:23:04Z</time>
      </trkpt>
      <trkpt lat="49.12445" lon="4.05101">
        <ele>253.4</ele>
        <time>2026-08-24T12:23:05Z</time>
      </trkpt>
      <trkpt lat="49.1244" lon="4.05088">
        <ele>253.6</ele>
        <time>2026-08-24T12:23:06Z</time>
      </trkpt>
      <trkpt lat="49.12436" lon="4.05076">
        <ele>253.4</ele>
        <time>2026-08-24T12:23:07Z</time>
      </trkpt>
      <trkpt lat="49.12431" lon="4.05063">
        <ele>253.6</ele>
        <time>2026-08-24T12:23:08Z</time>
      </trkpt>
      <trkpt lat="49.12426" lon="4.05051">
        <ele>253.4</ele>
        <time>2026-08-24T12:23:09Z</time>
      </trkpt>
      <trkpt lat="49.12423" lon="4.0504">
        <ele>253</ele>
        <time>2026-08-24T12:23:10Z</time>
      </trkpt>
      <trkpt lat="49.12417" lon="4.05025">
        <ele>252.8</ele>
        <time>2026-08-24T12:23:11Z</time>
      </trkpt>
      <trkpt lat="49.12413" lon="4.05012">
        <ele>252.6</ele>
        <time>2026-08-24T12:23:12Z</time>
      </trkpt>
      <trkpt lat="49.12408" lon="4.04998">
        <ele>252.2</ele>
        <time>2026-08-24T12:23:13Z</time>
      </trkpt>
      <trkpt lat="49.12403" lon="4.04984">
        <ele>251.6</ele>
        <time>2026-08-24T12:23:14Z</time>
      </trkpt>
      <trkpt lat="49.12398" lon="4.04969">
        <ele>251</ele>
        <time>2026-08-24T12:23:15Z</time>
      </trkpt>
      <trkpt lat="49.12393" lon="4.04955">
        <ele>250.2</ele>
        <time>2026-08-24T12:23:16Z</time>
      </trkpt>
      <trkpt lat="49.12388" lon="4.0494">
        <ele>249.6</ele>
        <time>2026-08-24T12:23:17Z</time>
      </trkpt>
      <trkpt lat="49.12385" lon="4.04928">
        <ele>249</ele>
        <time>2026-08-24T12:23:18Z</time>
      </trkpt>
      <trkpt lat="49.1238" lon="4.0491">
        <ele>248.2</ele>
        <time>2026-08-24T12:23:19Z</time>
      </trkpt>
      <trkpt lat="49.12376" lon="4.04897">
        <ele>247.2</ele>
        <time>2026-08-24T12:23:20Z</time>
      </trkpt>
      <trkpt lat="49.12373" lon="4.04881">
        <ele>246.6</ele>
        <time>2026-08-24T12:23:21Z</time>
      </trkpt>
      <trkpt lat="49.12369" lon="4.04862">
        <ele>245.6</ele>
        <time>2026-08-24T12:23:22Z</time>
      </trkpt>
      <trkpt lat="49.12368" lon="4.04846">
        <ele>244.8</ele>
        <time>2026-08-24T12:23:23Z</time>
      </trkpt>
      <trkpt lat="49.12367" lon="4.04829">
        <ele>243.8</ele>
        <time>2026-08-24T12:23:24Z</time>
      </trkpt>
      <trkpt lat="49.12366" lon="4.04812">
        <ele>242.8</ele>
        <time>2026-08-24T12:23:25Z</time>
      </trkpt>
      <trkpt lat="49.12366" lon="4.04795">
        <ele>241.8</ele>
        <time>2026-08-24T12:23:26Z</time>
      </trkpt>
      <trkpt lat="49.12365" lon="4.04778">
        <ele>241.4</ele>
        <time>2026-08-24T12:23:27Z</time>
      </trkpt>
      <trkpt lat="49.12362" lon="4.04761">
        <ele>240.8</ele>
        <time>2026-08-24T12:23:28Z</time>
      </trkpt>
      <trkpt lat="49.12358" lon="4.04744">
        <ele>240.2</ele>
        <time>2026-08-24T12:23:29Z</time>
      </trkpt>
      <trkpt lat="49.12354" lon="4.04728">
        <ele>239.6</ele>
        <time>2026-08-24T12:23:30Z</time>
      </trkpt>
      <trkpt lat="49.12349" lon="4.04711">
        <ele>239.2</ele>
        <time>2026-08-24T12:23:31Z</time>
      </trkpt>
      <trkpt lat="49.12344" lon="4.04694">
        <ele>238</ele>
        <time>2026-08-24T12:23:32Z</time>
      </trkpt>
      <trkpt lat="49.12339" lon="4.04676">
        <ele>236.4</ele>
        <time>2026-08-24T12:23:33Z</time>
      </trkpt>
      <trkpt lat="49.12334" lon="4.04657">
        <ele>235.2</ele>
        <time>2026-08-24T12:23:34Z</time>
      </trkpt>
      <trkpt lat="49.1233" lon="4.04639">
        <ele>234.2</ele>
        <time>2026-08-24T12:23:35Z</time>
      </trkpt>
      <trkpt lat="49.12328" lon="4.0462">
        <ele>233.4</ele>
        <time>2026-08-24T12:23:36Z</time>
      </trkpt>
      <trkpt lat="49.12327" lon="4.046">
        <ele>232.6</ele>
        <time>2026-08-24T12:23:37Z</time>
      </trkpt>
      <trkpt lat="49.12325" lon="4.04581">
        <ele>232.2</ele>
        <time>2026-08-24T12:23:38Z</time>
      </trkpt>
      <trkpt lat="49.12323" lon="4.04562">
        <ele>231.6</ele>
        <time>2026-08-24T12:23:39Z</time>
      </trkpt>
      <trkpt lat="49.12318" lon="4.04544">
        <ele>230</ele>
        <time>2026-08-24T12:23:40Z</time>
      </trkpt>
      <trkpt lat="49.12313" lon="4.04528">
        <ele>229.2</ele>
        <time>2026-08-24T12:23:41Z</time>
      </trkpt>
      <trkpt lat="49.12306" lon="4.04514">
        <ele>228.6</ele>
        <time>2026-08-24T12:23:42Z</time>
      </trkpt>
      <trkpt lat="49.12297" lon="4.04501">
        <ele>227.8</ele>
        <time>2026-08-24T12:23:43Z</time>
      </trkpt>
      <trkpt lat="49.12288" lon="4.04489">
        <ele>227.4</ele>
        <time>2026-08-24T12:23:44Z</time>
      </trkpt>
      <trkpt lat="49.1228" lon="4.04478">
        <ele>227</ele>
        <time>2026-08-24T12:23:45Z</time>
      </trkpt>
      <trkpt lat="49.12271" lon="4.04468">
        <ele>226.6</ele>
        <time>2026-08-24T12:23:46Z</time>
      </trkpt>
      <trkpt lat="49.12261" lon="4.04457">
        <ele>226</ele>
        <time>2026-08-24T12:23:47Z</time>
      </trkpt>
      <trkpt lat="49.12252" lon="4.04446">
        <ele>225.8</ele>
        <time>2026-08-24T12:23:48Z</time>
      </trkpt>
      <trkpt lat="49.12243" lon="4.04435">
        <ele>225.6</ele>
        <time>2026-08-24T12:23:49Z</time>
      </trkpt>
      <trkpt lat="49.12233" lon="4.04424">
        <ele>225</ele>
        <time>2026-08-24T12:23:50Z</time>
      </trkpt>
      <trkpt lat="49.12223" lon="4.04412">
        <ele>224.6</ele>
        <time>2026-08-24T12:23:51Z</time>
      </trkpt>
      <trkpt lat="49.12215" lon="4.04399">
        <ele>224</ele>
        <time>2026-08-24T12:23:52Z</time>
      </trkpt>
      <trkpt lat="49.12207" lon="4.04384">
        <ele>222.8</ele>
        <time>2026-08-24T12:23:53Z</time>
      </trkpt>
      <trkpt lat="49.122" lon="4.04369">
        <ele>222.2</ele>
        <time>2026-08-24T12:23:54Z</time>
      </trkpt>
      <trkpt lat="49.12194" lon="4.04352">
        <ele>221.6</ele>
        <time>2026-08-24T12:23:55Z</time>
      </trkpt>
      <trkpt lat="49.12189" lon="4.04334">
        <ele>220.6</ele>
        <time>2026-08-24T12:23:56Z</time>
      </trkpt>
      <trkpt lat="49.12185" lon="4.04315">
        <ele>219.8</ele>
        <time>2026-08-24T12:23:57Z</time>
      </trkpt>
      <trkpt lat="49.12182" lon="4.04296">
        <ele>218.8</ele>
        <time>2026-08-24T12:23:58Z</time>
      </trkpt>
      <trkpt lat="49.1218" lon="4.04277">
        <ele>218.2</ele>
        <time>2026-08-24T12:23:59Z</time>
      </trkpt>
      <trkpt lat="49.12178" lon="4.04258">
        <ele>217.6</ele>
        <time>2026-08-24T12:24:00Z</time>
      </trkpt>
      <trkpt lat="49.12176" lon="4.04239">
        <ele>216.4</ele>
        <time>2026-08-24T12:24:01Z</time>
      </trkpt>
      <trkpt lat="49.12175" lon="4.04219">
        <ele>215.6</ele>
        <time>2026-08-24T12:24:02Z</time>
      </trkpt>
      <trkpt lat="49.12174" lon="4.042">
        <ele>215.2</ele>
        <time>2026-08-24T12:24:03Z</time>
      </trkpt>
      <trkpt lat="49.12173" lon="4.04181">
        <ele>214.6</ele>
        <time>2026-08-24T12:24:04Z</time>
      </trkpt>
      <trkpt lat="49.12173" lon="4.04162">
        <ele>214</ele>
        <time>2026-08-24T12:24:05Z</time>
      </trkpt>
      <trkpt lat="49.12174" lon="4.04142">
        <ele>213.6</ele>
        <time>2026-08-24T12:24:06Z</time>
      </trkpt>
      <trkpt lat="49.12175" lon="4.04126">
        <ele>213</ele>
        <time>2026-08-24T12:24:07Z</time>
      </trkpt>
      <trkpt lat="49.12177" lon="4.04103">
        <ele>212.6</ele>
        <time>2026-08-24T12:24:08Z</time>
      </trkpt>
      <trkpt lat="49.1218" lon="4.04084">
        <ele>211.6</ele>
        <time>2026-08-24T12:24:09Z</time>
      </trkpt>
      <trkpt lat="49.12182" lon="4.04065">
        <ele>210.6</ele>
        <time>2026-08-24T12:24:10Z</time>
      </trkpt>
      <trkpt lat="49.12185" lon="4.04047">
        <ele>209.8</ele>
        <time>2026-08-24T12:24:11Z</time>
      </trkpt>
      <trkpt lat="49.12189" lon="4.04028">
        <ele>209.2</ele>
        <time>2026-08-24T12:24:12Z</time>
      </trkpt>
      <trkpt lat="49.12191" lon="4.04009">
        <ele>208.6</ele>
        <time>2026-08-24T12:24:13Z</time>
      </trkpt>
      <trkpt lat="49.12194" lon="4.03991">
        <ele>208.6</ele>
        <time>2026-08-24T12:24:14Z</time>
      </trkpt>
      <trkpt lat="49.12196" lon="4.03972">
        <ele>207.8</ele>
        <time>2026-08-24T12:24:15Z</time>
      </trkpt>
      <trkpt lat="49.12198" lon="4.03953">
        <ele>206.8</ele>
        <time>2026-08-24T12:24:16Z</time>
      </trkpt>
      <trkpt lat="49.12199" lon="4.03934">
        <ele>206.2</ele>
        <time>2026-08-24T12:24:17Z</time>
      </trkpt>
      <trkpt lat="49.122" lon="4.03915">
        <ele>205.6</ele>
        <time>2026-08-24T12:24:18Z</time>
      </trkpt>
      <trkpt lat="49.12201" lon="4.03896">
        <ele>204.8</ele>
        <time>2026-08-24T12:24:19Z</time>
      </trkpt>
      <trkpt lat="49.12201" lon="4.03877">
        <ele>204</ele>
        <time>2026-08-24T12:24:20Z</time>
      </trkpt>
      <trkpt lat="49.12201" lon="4.03859">
        <ele>203.6</ele>
        <time>2026-08-24T12:24:21Z</time>
      </trkpt>
      <trkpt lat="49.12201" lon="4.03842">
        <ele>203</ele>
        <time>2026-08-24T12:24:22Z</time>
      </trkpt>
      <trkpt lat="49.12202" lon="4.03826">
        <ele>202.4</ele>
        <time>2026-08-24T12:24:23Z</time>
      </trkpt>
      <trkpt lat="49.12203" lon="4.03811">
        <ele>201.8</ele>
        <time>2026-08-24T12:24:24Z</time>
      </trkpt>
      <trkpt lat="49.12204" lon="4.03796">
        <ele>201.4</ele>
        <time>2026-08-24T12:24:25Z</time>
      </trkpt>
      <trkpt lat="49.12206" lon="4.03783">
        <ele>201.4</ele>
        <time>2026-08-24T12:24:26Z</time>
      </trkpt>
      <trkpt lat="49.12209" lon="4.0377">
        <ele>200.8</ele>
        <time>2026-08-24T12:24:27Z</time>
      </trkpt>
      <trkpt lat="49.12215" lon="4.0376">
        <ele>200</ele>
        <time>2026-08-24T12:24:28Z</time>
      </trkpt>
      <trkpt lat="49.12222" lon="4.03752">
        <ele>199.6</ele>
        <time>2026-08-24T12:24:29Z</time>
      </trkpt>
      <trkpt lat="49.1223" lon="4.03746">
        <ele>198.8</ele>
        <time>2026-08-24T12:24:30Z</time>
      </trkpt>
      <trkpt lat="49.12239" lon="4.03745">
        <ele>197.8</ele>
        <time>2026-08-24T12:24:31Z</time>
      </trkpt>
      <trkpt lat="49.12249" lon="4.03748">
        <ele>197</ele>
        <time>2026-08-24T12:24:32Z</time>
      </trkpt>
      <trkpt lat="49.12257" lon="4.03753">
        <ele>196.2</ele>
        <time>2026-08-24T12:24:33Z</time>
      </trkpt>
      <trkpt lat="49.12265" lon="4.03761">
        <ele>195.4</ele>
        <time>2026-08-24T12:24:34Z</time>
      </trkpt>
      <trkpt lat="49.12272" lon="4.03771">
        <ele>194.6</ele>
        <time>2026-08-24T12:24:35Z</time>
      </trkpt>
      <trkpt lat="49.12279" lon="4.03781">
        <ele>193.8</ele>
        <time>2026-08-24T12:24:36Z</time>
      </trkpt>
      <trkpt lat="49.12286" lon="4.0379">
        <ele>193.2</ele>
        <time>2026-08-24T12:24:37Z</time>
      </trkpt>
      <trkpt lat="49.12292" lon="4.038">
        <ele>192.6</ele>
        <time>2026-08-24T12:24:38Z</time>
      </trkpt>
      <trkpt lat="49.12299" lon="4.03808">
        <ele>192.4</ele>
        <time>2026-08-24T12:24:39Z</time>
      </trkpt>
      <trkpt lat="49.12307" lon="4.03814">
        <ele>192.2</ele>
        <time>2026-08-24T12:24:40Z</time>
      </trkpt>
      <trkpt lat="49.12316" lon="4.03817">
        <ele>192.2</ele>
        <time>2026-08-24T12:24:41Z</time>
      </trkpt>
      <trkpt lat="49.12325" lon="4.03817">
        <ele>192.2</ele>
        <time>2026-08-24T12:24:42Z</time>
      </trkpt>
      <trkpt lat="49.12334" lon="4.03814">
        <ele>192.2</ele>
        <time>2026-08-24T12:24:43Z</time>
      </trkpt>
      <trkpt lat="49.12342" lon="4.03808">
        <ele>192</ele>
        <time>2026-08-24T12:24:44Z</time>
      </trkpt>
      <trkpt lat="49.12349" lon="4.03799">
        <ele>191.6</ele>
        <time>2026-08-24T12:24:45Z</time>
      </trkpt>
      <trkpt lat="49.12356" lon="4.03788">
        <ele>191.2</ele>
        <time>2026-08-24T12:24:46Z</time>
      </trkpt>
      <trkpt lat="49.12363" lon="4.03777">
        <ele>190.4</ele>
        <time>2026-08-24T12:24:47Z</time>
      </trkpt>
      <trkpt lat="49.12369" lon="4.03765">
        <ele>189.6</ele>
        <time>2026-08-24T12:24:48Z</time>
      </trkpt>
      <trkpt lat="49.12375" lon="4.03752">
        <ele>188.6</ele>
        <time>2026-08-24T12:24:49Z</time>
      </trkpt>
      <trkpt lat="49.12379" lon="4.03737">
        <ele>188</ele>
        <time>2026-08-24T12:24:50Z</time>
      </trkpt>
      <trkpt lat="49.12382" lon="4.03722">
        <ele>187.2</ele>
        <time>2026-08-24T12:24:51Z</time>
      </trkpt>
      <trkpt lat="49.12384" lon="4.03705">
        <ele>186.6</ele>
        <time>2026-08-24T12:24:52Z</time>
      </trkpt>
      <trkpt lat="49.12385" lon="4.03687">
        <ele>186</ele>
        <time>2026-08-24T12:24:53Z</time>
      </trkpt>
      <trkpt lat="49.12386" lon="4.03669">
        <ele>185.4</ele>
        <time>2026-08-24T12:24:54Z</time>
      </trkpt>
      <trkpt lat="49.12386" lon="4.03651">
        <ele>184.6</ele>
        <time>2026-08-24T12:24:55Z</time>
      </trkpt>
      <trkpt lat="49.12386" lon="4.03633">
        <ele>183.8</ele>
        <time>2026-08-24T12:24:56Z</time>
      </trkpt>
      <trkpt lat="49.12386" lon="4.03615">
        <ele>182.4</ele>
        <time>2026-08-24T12:24:57Z</time>
      </trkpt>
      <trkpt lat="49.12386" lon="4.03598">
        <ele>181.4</ele>
        <time>2026-08-24T12:24:58Z</time>
      </trkpt>
      <trkpt lat="49.12385" lon="4.03581">
        <ele>181.2</ele>
        <time>2026-08-24T12:24:59Z</time>
      </trkpt>
      <trkpt lat="49.1238" lon="4.03566">
        <ele>181.2</ele>
        <time>2026-08-24T12:25:00Z</time>
      </trkpt>
      <trkpt lat="49.12374" lon="4.03553">
        <ele>181.2</ele>
        <time>2026-08-24T12:25:01Z</time>
      </trkpt>
      <trkpt lat="49.12367" lon="4.03542">
        <ele>181.4</ele>
        <time>2026-08-24T12:25:02Z</time>
      </trkpt>
      <trkpt lat="49.12359" lon="4.03532">
        <ele>181.4</ele>
        <time>2026-08-24T12:25:03Z</time>
      </trkpt>
      <trkpt lat="49.12351" lon="4.03522">
        <ele>181.2</ele>
        <time>2026-08-24T12:25:04Z</time>
      </trkpt>
      <trkpt lat="49.12342" lon="4.03512">
        <ele>180.8</ele>
        <time>2026-08-24T12:25:05Z</time>
      </trkpt>
      <trkpt lat="49.12334" lon="4.035">
        <ele>180.6</ele>
        <time>2026-08-24T12:25:06Z</time>
      </trkpt>
      <trkpt lat="49.12327" lon="4.03487">
        <ele>180.2</ele>
        <time>2026-08-24T12:25:07Z</time>
      </trkpt>
      <trkpt lat="49.1232" lon="4.03474">
        <ele>179.8</ele>
        <time>2026-08-24T12:25:08Z</time>
      </trkpt>
      <trkpt lat="49.12313" lon="4.03459">
        <ele>179.4</ele>
        <time>2026-08-24T12:25:09Z</time>
      </trkpt>
      <trkpt lat="49.12306" lon="4.03445">
        <ele>179</ele>
        <time>2026-08-24T12:25:10Z</time>
      </trkpt>
      <trkpt lat="49.12299" lon="4.0343">
        <ele>178.4</ele>
        <time>2026-08-24T12:25:11Z</time>
      </trkpt>
      <trkpt lat="49.12292" lon="4.03414">
        <ele>178</ele>
        <time>2026-08-24T12:25:12Z</time>
      </trkpt>
      <trkpt lat="49.12285" lon="4.03398">
        <ele>177.6</ele>
        <time>2026-08-24T12:25:13Z</time>
      </trkpt>
      <trkpt lat="49.12277" lon="4.03383">
        <ele>177</ele>
        <time>2026-08-24T12:25:14Z</time>
      </trkpt>
      <trkpt lat="49.1227" lon="4.03367">
        <ele>176.4</ele>
        <time>2026-08-24T12:25:15Z</time>
      </trkpt>
      <trkpt lat="49.12263" lon="4.03351">
        <ele>176</ele>
        <time>2026-08-24T12:25:16Z</time>
      </trkpt>
      <trkpt lat="49.12256" lon="4.03336">
        <ele>175.8</ele>
        <time>2026-08-24T12:25:17Z</time>
      </trkpt>
      <trkpt lat="49.12249" lon="4.0332">
        <ele>175.4</ele>
        <time>2026-08-24T12:25:18Z</time>
      </trkpt>
      <trkpt lat="49.12243" lon="4.03304">
        <ele>175.2</ele>
        <time>2026-08-24T12:25:19Z</time>
      </trkpt>
      <trkpt lat="49.12237" lon="4.03289">
        <ele>174.8</ele>
        <time>2026-08-24T12:25:20Z</time>
      </trkpt>
      <trkpt lat="49.12231" lon="4.03275">
        <ele>174.4</ele>
        <time>2026-08-24T12:25:21Z</time>
      </trkpt>
      <trkpt lat="49.12225" lon="4.0326">
        <ele>174</ele>
        <time>2026-08-24T12:25:22Z</time>
      </trkpt>
      <trkpt lat="49.12219" lon="4.03247">
        <ele>173.8</ele>
        <time>2026-08-24T12:25:23Z</time>
      </trkpt>
      <trkpt lat="49.12213" lon="4.03233">
        <ele>173.4</ele>
        <time>2026-08-24T12:25:24Z</time>
      </trkpt>
      <trkpt lat="49.12207" lon="4.0322">
        <ele>173</ele>
        <time>2026-08-24T12:25:25Z</time>
      </trkpt>
      <trkpt lat="49.122" lon="4.03207">
        <ele>172.8</ele>
        <time>2026-08-24T12:25:26Z</time>
      </trkpt>
      <trkpt lat="49.12194" lon="4.03193">
        <ele>172.2</ele>
        <time>2026-08-24T12:25:27Z</time>
      </trkpt>
      <trkpt lat="49.12187" lon="4.03181">
        <ele>171.6</ele>
        <time>2026-08-24T12:25:28Z</time>
      </trkpt>
      <trkpt lat="49.1218" lon="4.03169">
        <ele>171.2</ele>
        <time>2026-08-24T12:25:29Z</time>
      </trkpt>
      <trkpt lat="49.12173" lon="4.03157">
        <ele>171</ele>
        <time>2026-08-24T12:25:30Z</time>
      </trkpt>
      <trkpt lat="49.12167" lon="4.03147">
        <ele>171</ele>
        <time>2026-08-24T12:25:31Z</time>
      </trkpt>
      <trkpt lat="49.1216" lon="4.03137">
        <ele>171.2</ele>
        <time>2026-08-24T12:25:32Z</time>
      </trkpt>
      <trkpt lat="49.12155" lon="4.0313">
        <ele>171.4</ele>
        <time>2026-08-24T12:25:33Z</time>
      </trkpt>
      <trkpt lat="49.12148" lon="4.03119">
        <ele>171.8</ele>
        <time>2026-08-24T12:25:34Z</time>
      </trkpt>
      <trkpt lat="49.12143" lon="4.03111">
        <ele>172.6</ele>
        <time>2026-08-24T12:25:35Z</time>
      </trkpt>
      <trkpt lat="49.12137" lon="4.03103">
        <ele>172.8</ele>
        <time>2026-08-24T12:25:36Z</time>
      </trkpt>
      <trkpt lat="49.12131" lon="4.03096">
        <ele>173.2</ele>
        <time>2026-08-24T12:25:37Z</time>
      </trkpt>
      <trkpt lat="49.12125" lon="4.0309">
        <ele>173.4</ele>
        <time>2026-08-24T12:25:38Z</time>
      </trkpt>
      <trkpt lat="49.12118" lon="4.03085">
        <ele>173.4</ele>
        <time>2026-08-24T12:25:39Z</time>
      </trkpt>
      <trkpt lat="49.12112" lon="4.03081">
        <ele>173.4</ele>
        <time>2026-08-24T12:25:40Z</time>
      </trkpt>
      <trkpt lat="49.12105" lon="4.0308">
        <ele>173.6</ele>
        <time>2026-08-24T12:25:41Z</time>
      </trkpt>
      <trkpt lat="49.12098" lon="4.03079">
        <ele>173.6</ele>
        <time>2026-08-24T12:25:42Z</time>
      </trkpt>
      <trkpt lat="49.12091" lon="4.03079">
        <ele>173.8</ele>
        <time>2026-08-24T12:25:43Z</time>
      </trkpt>
      <trkpt lat="49.12084" lon="4.03079">
        <ele>173.8</ele>
        <time>2026-08-24T12:25:44Z</time>
      </trkpt>
      <trkpt lat="49.12078" lon="4.0308">
        <ele>174.2</ele>
        <time>2026-08-24T12:25:45Z</time>
      </trkpt>
      <trkpt lat="49.12073" lon="4.0308">
        <ele>174.4</ele>
        <time>2026-08-24T12:25:46Z</time>
      </trkpt>
      <trkpt lat="49.12067" lon="4.03081">
        <ele>174.8</ele>
        <time>2026-08-24T12:25:47Z</time>
      </trkpt>
      <trkpt lat="49.12061" lon="4.03082">
        <ele>175.2</ele>
        <time>2026-08-24T12:25:48Z</time>
      </trkpt>
      <trkpt lat="49.12056" lon="4.03082">
        <ele>175.4</ele>
        <time>2026-08-24T12:25:49Z</time>
      </trkpt>
      <trkpt lat="49.12051" lon="4.03083">
        <ele>175.8</ele>
        <time>2026-08-24T12:25:50Z</time>
      </trkpt>
      <trkpt lat="49.12046" lon="4.03084">
        <ele>176</ele>
        <time>2026-08-24T12:25:51Z</time>
      </trkpt>
      <trkpt lat="49.12042" lon="4.03085">
        <ele>176.2</ele>
        <time>2026-08-24T12:25:52Z</time>
      </trkpt>
      <trkpt lat="49.12037" lon="4.03086">
        <ele>176.6</ele>
        <time>2026-08-24T12:25:53Z</time>
      </trkpt>
      <trkpt lat="49.12033" lon="4.03086">
        <ele>176.8</ele>
        <time>2026-08-24T12:25:54Z</time>
      </trkpt>
      <trkpt lat="49.12029" lon="4.03087">
        <ele>177.2</ele>
        <time>2026-08-24T12:25:55Z</time>
      </trkpt>
      <trkpt lat="49.12025" lon="4.03088">
        <ele>177.6</ele>
        <time>2026-08-24T12:25:56Z</time>
      </trkpt>
      <trkpt lat="49.1202" lon="4.03088">
        <ele>177.8</ele>
        <time>2026-08-24T12:25:57Z</time>
      </trkpt>
      <trkpt lat="49.12016" lon="4.03089">
        <ele>178</ele>
        <time>2026-08-24T12:25:58Z</time>
      </trkpt>
      <trkpt lat="49.12011" lon="4.03089">
        <ele>178.4</ele>
        <time>2026-08-24T12:25:59Z</time>
      </trkpt>
      <trkpt lat="49.12007" lon="4.0309">
        <ele>178.6</ele>
        <time>2026-08-24T12:26:00Z</time>
      </trkpt>
      <trkpt lat="49.12003" lon="4.0309">
        <ele>178.8</ele>
        <time>2026-08-24T12:26:01Z</time>
      </trkpt>
      <trkpt lat="49.11998" lon="4.03091">
        <ele>179.2</ele>
        <time>2026-08-24T12:26:02Z</time>
      </trkpt>
      <trkpt lat="49.11994" lon="4.03092">
        <ele>179.4</ele>
        <time>2026-08-24T12:26:03Z</time>
      </trkpt>
      <trkpt lat="49.1199" lon="4.03093">
        <ele>179.6</ele>
        <time>2026-08-24T12:26:04Z</time>
      </trkpt>
      <trkpt lat="49.11986" lon="4.03094">
        <ele>180</ele>
        <time>2026-08-24T12:26:05Z</time>
      </trkpt>
      <trkpt lat="49.11982" lon="4.03094">
        <ele>180.4</ele>
        <time>2026-08-24T12:26:06Z</time>
      </trkpt>
      <trkpt lat="49.11978" lon="4.03095">
        <ele>180.8</ele>
        <time>2026-08-24T12:26:07Z</time>
      </trkpt>
      <trkpt lat="49.11974" lon="4.03095">
        <ele>181</ele>
        <time>2026-08-24T12:26:08Z</time>
      </trkpt>
      <trkpt lat="49.11969" lon="4.03095">
        <ele>181.4</ele>
        <time>2026-08-24T12:26:09Z</time>
      </trkpt>
      <trkpt lat="49.11966" lon="4.03096">
        <ele>181.6</ele>
        <time>2026-08-24T12:26:10Z</time>
      </trkpt>
      <trkpt lat="49.11962" lon="4.03096">
        <ele>181.8</ele>
        <time>2026-08-24T12:26:11Z</time>
      </trkpt>
      <trkpt lat="49.11958" lon="4.03096">
        <ele>182</ele>
        <time>2026-08-24T12:26:12Z</time>
      </trkpt>
      <trkpt lat="49.11954" lon="4.03097">
        <ele>182.2</ele>
        <time>2026-08-24T12:26:13Z</time>
      </trkpt>
      <trkpt lat="49.1195" lon="4.03097">
        <ele>182.2</ele>
        <time>2026-08-24T12:26:14Z</time>
      </trkpt>
      <trkpt lat="49.11947" lon="4.03097">
        <ele>182.4</ele>
        <time>2026-08-24T12:26:15Z</time>
      </trkpt>
      <trkpt lat="49.11943" lon="4.03097">
        <ele>182.6</ele>
        <time>2026-08-24T12:26:16Z</time>
      </trkpt>
      <trkpt lat="49.1194" lon="4.03097">
        <ele>182.8</ele>
        <time>2026-08-24T12:26:17Z</time>
      </trkpt>
      <trkpt lat="49.11936" lon="4.03098">
        <ele>183</ele>
        <time>2026-08-24T12:26:18Z</time>
      </trkpt>
      <trkpt lat="49.11933" lon="4.03099">
        <ele>183.4</ele>
        <time>2026-08-24T12:26:19Z</time>
      </trkpt>
      <trkpt lat="49.11929" lon="4.03099">
        <ele>183.6</ele>
        <time>2026-08-24T12:26:20Z</time>
      </trkpt>
      <trkpt lat="49.11926" lon="4.031">
        <ele>183.6</ele>
        <time>2026-08-24T12:26:21Z</time>
      </trkpt>
      <trkpt lat="49.11923" lon="4.031">
        <ele>183.8</ele>
        <time>2026-08-24T12:26:22Z</time>
      </trkpt>
      <trkpt lat="49.1192" lon="4.03101">
        <ele>184</ele>
        <time>2026-08-24T12:26:23Z</time>
      </trkpt>
      <trkpt lat="49.11917" lon="4.03101">
        <ele>184.2</ele>
        <time>2026-08-24T12:26:24Z</time>
      </trkpt>
      <trkpt lat="49.11914" lon="4.03101">
        <ele>184.4</ele>
        <time>2026-08-24T12:26:25Z</time>
      </trkpt>
      <trkpt lat="49.11911" lon="4.03102">
        <ele>184.6</ele>
        <time>2026-08-24T12:26:26Z</time>
      </trkpt>
      <trkpt lat="49.11908" lon="4.03102">
        <ele>185</ele>
        <time>2026-08-24T12:26:27Z</time>
      </trkpt>
      <trkpt lat="49.11905" lon="4.03103">
        <ele>185.2</ele>
        <time>2026-08-24T12:26:28Z</time>
      </trkpt>
      <trkpt lat="49.11902" lon="4.03103">
        <ele>185.6</ele>
        <time>2026-08-24T12:26:29Z</time>
      </trkpt>
      <trkpt lat="49.11898" lon="4.03104">
        <ele>185.8</ele>
        <time>2026-08-24T12:26:30Z</time>
      </trkpt>
      <trkpt lat="49.11895" lon="4.03104">
        <ele>186</ele>
        <time>2026-08-24T12:26:31Z</time>
      </trkpt>
      <trkpt lat="49.11892" lon="4.03105">
        <ele>186.2</ele>
        <time>2026-08-24T12:26:32Z</time>
      </trkpt>
      <trkpt lat="49.11889" lon="4.03105">
        <ele>186.2</ele>
        <time>2026-08-24T12:26:33Z</time>
      </trkpt>
      <trkpt lat="49.11886" lon="4.03105">
        <ele>186.4</ele>
        <time>2026-08-24T12:26:34Z</time>
      </trkpt>
      <trkpt lat="49.11883" lon="4.03105">
        <ele>186.6</ele>
        <time>2026-08-24T12:26:35Z</time>
      </trkpt>
      <trkpt lat="49.1188" lon="4.03106">
        <ele>186.6</ele>
        <time>2026-08-24T12:26:36Z</time>
      </trkpt>
      <trkpt lat="49.11877" lon="4.03106">
        <ele>186.8</ele>
        <time>2026-08-24T12:26:37Z</time>
      </trkpt>
      <trkpt lat="49.11874" lon="4.03106">
        <ele>187</ele>
        <time>2026-08-24T12:26:38Z</time>
      </trkpt>
      <trkpt lat="49.11871" lon="4.03107">
        <ele>187.2</ele>
        <time>2026-08-24T12:26:39Z</time>
      </trkpt>
      <trkpt lat="49.11868" lon="4.03108">
        <ele>187.2</ele>
        <time>2026-08-24T12:26:40Z</time>
      </trkpt>
      <trkpt lat="49.11865" lon="4.03108">
        <ele>187.4</ele>
        <time>2026-08-24T12:26:41Z</time>
      </trkpt>
      <trkpt lat="49.11862" lon="4.03108">
        <ele>187.4</ele>
        <time>2026-08-24T12:26:42Z</time>
      </trkpt>
      <trkpt lat="49.11859" lon="4.03108">
        <ele>187.6</ele>
        <time>2026-08-24T12:26:43Z</time>
      </trkpt>
      <trkpt lat="49.11856" lon="4.03109">
        <ele>187.8</ele>
        <time>2026-08-24T12:26:44Z</time>
      </trkpt>
      <trkpt lat="49.11853" lon="4.03109">
        <ele>187.8</ele>
        <time>2026-08-24T12:26:45Z</time>
      </trkpt>
      <trkpt lat="49.1185" lon="4.0311">
        <ele>188</ele>
        <time>2026-08-24T12:26:46Z</time>
      </trkpt>
      <trkpt lat="49.11847" lon="4.0311">
        <ele>188.2</ele>
        <time>2026-08-24T12:26:47Z</time>
      </trkpt>
      <trkpt lat="49.11844" lon="4.0311">
        <ele>188.4</ele>
        <time>2026-08-24T12:26:48Z</time>
      </trkpt>
      <trkpt lat="49.11841" lon="4.0311">
        <ele>188.6</ele>
        <time>2026-08-24T12:26:49Z</time>
      </trkpt>
      <trkpt lat="49.11838" lon="4.0311">
        <ele>188.8</ele>
        <time>2026-08-24T12:26:50Z</time>
      </trkpt>
      <trkpt lat="49.11835" lon="4.0311">
        <ele>189</ele>
        <time>2026-08-24T12:26:51Z</time>
      </trkpt>
      <trkpt lat="49.11832" lon="4.03109">
        <ele>189.4</ele>
        <time>2026-08-24T12:26:52Z</time>
      </trkpt>
      <trkpt lat="49.11829" lon="4.03109">
        <ele>189.6</ele>
        <time>2026-08-24T12:26:53Z</time>
      </trkpt>
      <trkpt lat="49.11826" lon="4.03109">
        <ele>189.8</ele>
        <time>2026-08-24T12:26:54Z</time>
      </trkpt>
      <trkpt lat="49.11823" lon="4.03108">
        <ele>189.8</ele>
        <time>2026-08-24T12:26:55Z</time>
      </trkpt>
      <trkpt lat="49.1182" lon="4.03108">
        <ele>190</ele>
        <time>2026-08-24T12:26:56Z</time>
      </trkpt>
      <trkpt lat="49.11817" lon="4.03107">
        <ele>190.2</ele>
        <time>2026-08-24T12:26:57Z</time>
      </trkpt>
      <trkpt lat="49.11814" lon="4.03106">
        <ele>190.2</ele>
        <time>2026-08-24T12:26:58Z</time>
      </trkpt>
      <trkpt lat="49.11811" lon="4.03105">
        <ele>190.4</ele>
        <time>2026-08-24T12:26:59Z</time>
      </trkpt>
      <trkpt lat="49.11808" lon="4.03104">
        <ele>190.4</ele>
        <time>2026-08-24T12:27:00Z</time>
      </trkpt>
      <trkpt lat="49.11805" lon="4.03103">
        <ele>190.6</ele>
        <time>2026-08-24T12:27:01Z</time>
      </trkpt>
      <trkpt lat="49.11802" lon="4.03102">
        <ele>190.8</ele>
        <time>2026-08-24T12:27:02Z</time>
      </trkpt>
      <trkpt lat="49.11799" lon="4.03102">
        <ele>191</ele>
        <time>2026-08-24T12:27:03Z</time>
      </trkpt>
      <trkpt lat="49.11796" lon="4.03101">
        <ele>191.2</ele>
        <time>2026-08-24T12:27:04Z</time>
      </trkpt>
      <trkpt lat="49.11793" lon="4.031">
        <ele>191.2</ele>
        <time>2026-08-24T12:27:05Z</time>
      </trkpt>
      <trkpt lat="49.1179" lon="4.03099">
        <ele>191.4</ele>
        <time>2026-08-24T12:27:06Z</time>
      </trkpt>
      <trkpt lat="49.11786" lon="4.03098">
        <ele>191.6</ele>
        <time>2026-08-24T12:27:07Z</time>
      </trkpt>
      <trkpt lat="49.11783" lon="4.03097">
        <ele>191.8</ele>
        <time>2026-08-24T12:27:08Z</time>
      </trkpt>
      <trkpt lat="49.1178" lon="4.03096">
        <ele>192</ele>
        <time>2026-08-24T12:27:09Z</time>
      </trkpt>
      <trkpt lat="49.11776" lon="4.03095">
        <ele>192</ele>
        <time>2026-08-24T12:27:10Z</time>
      </trkpt>
      <trkpt lat="49.11773" lon="4.03094">
        <ele>192</ele>
        <time>2026-08-24T12:27:11Z</time>
      </trkpt>
      <trkpt lat="49.11769" lon="4.03093">
        <ele>191.8</ele>
        <time>2026-08-24T12:27:12Z</time>
      </trkpt>
      <trkpt lat="49.11765" lon="4.03092">
        <ele>191.8</ele>
        <time>2026-08-24T12:27:13Z</time>
      </trkpt>
      <trkpt lat="49.11761" lon="4.03091">
        <ele>191.8</ele>
        <time>2026-08-24T12:27:14Z</time>
      </trkpt>
      <trkpt lat="49.11758" lon="4.0309">
        <ele>191.8</ele>
        <time>2026-08-24T12:27:15Z</time>
      </trkpt>
      <trkpt lat="49.11754" lon="4.03089">
        <ele>191.8</ele>
        <time>2026-08-24T12:27:16Z</time>
      </trkpt>
      <trkpt lat="49.1175" lon="4.03088">
        <ele>191.8</ele>
        <time>2026-08-24T12:27:17Z</time>
      </trkpt>
      <trkpt lat="49.11746" lon="4.03087">
        <ele>192</ele>
        <time>2026-08-24T12:27:18Z</time>
      </trkpt>
      <trkpt lat="49.11742" lon="4.03086">
        <ele>192</ele>
        <time>2026-08-24T12:27:19Z</time>
      </trkpt>
      <trkpt lat="49.11739" lon="4.03084">
        <ele>192.2</ele>
        <time>2026-08-24T12:27:20Z</time>
      </trkpt>
      <trkpt lat="49.11735" lon="4.03083">
        <ele>192.4</ele>
        <time>2026-08-24T12:27:21Z</time>
      </trkpt>
      <trkpt lat="49.11731" lon="4.03082">
        <ele>192.4</ele>
        <time>2026-08-24T12:27:22Z</time>
      </trkpt>
      <trkpt lat="49.11727" lon="4.03081">
        <ele>192.6</ele>
        <time>2026-08-24T12:27:23Z</time>
      </trkpt>
      <trkpt lat="49.11723" lon="4.0308">
        <ele>192.8</ele>
        <time>2026-08-24T12:27:24Z</time>
      </trkpt>
      <trkpt lat="49.11719" lon="4.03079">
        <ele>193.2</ele>
        <time>2026-08-24T12:27:25Z</time>
      </trkpt>
      <trkpt lat="49.11715" lon="4.03078">
        <ele>193.4</ele>
        <time>2026-08-24T12:27:26Z</time>
      </trkpt>
      <trkpt lat="49.11711" lon="4.03077">
        <ele>193.6</ele>
        <time>2026-08-24T12:27:27Z</time>
      </trkpt>
      <trkpt lat="49.11707" lon="4.03075">
        <ele>194</ele>
        <time>2026-08-24T12:27:28Z</time>
      </trkpt>
      <trkpt lat="49.11703" lon="4.03075">
        <ele>194.2</ele>
        <time>2026-08-24T12:27:29Z</time>
      </trkpt>
      <trkpt lat="49.11699" lon="4.03074">
        <ele>194.4</ele>
        <time>2026-08-24T12:27:30Z</time>
      </trkpt>
      <trkpt lat="49.11695" lon="4.03073">
        <ele>194.6</ele>
        <time>2026-08-24T12:27:31Z</time>
      </trkpt>
      <trkpt lat="49.11691" lon="4.03072">
        <ele>194.6</ele>
        <time>2026-08-24T12:27:32Z</time>
      </trkpt>
      <trkpt lat="49.11688" lon="4.03072">
        <ele>194.8</ele>
        <time>2026-08-24T12:27:33Z</time>
      </trkpt>
      <trkpt lat="49.11684" lon="4.03072">
        <ele>195</ele>
        <time>2026-08-24T12:27:34Z</time>
      </trkpt>
      <trkpt lat="49.1168" lon="4.03072">
        <ele>195.2</ele>
        <time>2026-08-24T12:27:35Z</time>
      </trkpt>
      <trkpt lat="49.11676" lon="4.03072">
        <ele>195.4</ele>
        <time>2026-08-24T12:27:36Z</time>
      </trkpt>
      <trkpt lat="49.11672" lon="4.03071">
        <ele>195.6</ele>
        <time>2026-08-24T12:27:37Z</time>
      </trkpt>
      <trkpt lat="49.11669" lon="4.03071">
        <ele>195.8</ele>
        <time>2026-08-24T12:27:38Z</time>
      </trkpt>
      <trkpt lat="49.11665" lon="4.03072">
        <ele>195.8</ele>
        <time>2026-08-24T12:27:39Z</time>
      </trkpt>
      <trkpt lat="49.11661" lon="4.03072">
        <ele>196</ele>
        <time>2026-08-24T12:27:40Z</time>
      </trkpt>
      <trkpt lat="49.11657" lon="4.03073">
        <ele>196.2</ele>
        <time>2026-08-24T12:27:41Z</time>
      </trkpt>
      <trkpt lat="49.11653" lon="4.03074">
        <ele>196.2</ele>
        <time>2026-08-24T12:27:42Z</time>
      </trkpt>
      <trkpt lat="49.11649" lon="4.03075">
        <ele>196.4</ele>
        <time>2026-08-24T12:27:43Z</time>
      </trkpt>
      <trkpt lat="49.11645" lon="4.03076">
        <ele>196.4</ele>
        <time>2026-08-24T12:27:44Z</time>
      </trkpt>
      <trkpt lat="49.11641" lon="4.03076">
        <ele>196.6</ele>
        <time>2026-08-24T12:27:45Z</time>
      </trkpt>
      <trkpt lat="49.11637" lon="4.03077">
        <ele>196.6</ele>
        <time>2026-08-24T12:27:46Z</time>
      </trkpt>
      <trkpt lat="49.11633" lon="4.03078">
        <ele>196.8</ele>
        <time>2026-08-24T12:27:47Z</time>
      </trkpt>
      <trkpt lat="49.11629" lon="4.03079">
        <ele>196.8</ele>
        <time>2026-08-24T12:27:48Z</time>
      </trkpt>
      <trkpt lat="49.11626" lon="4.0308">
        <ele>197</ele>
        <time>2026-08-24T12:27:49Z</time>
      </trkpt>
      <trkpt lat="49.11622" lon="4.03081">
        <ele>197</ele>
        <time>2026-08-24T12:27:50Z</time>
      </trkpt>
      <trkpt lat="49.11618" lon="4.03083">
        <ele>197.4</ele>
        <time>2026-08-24T12:27:51Z</time>
      </trkpt>
      <trkpt lat="49.11614" lon="4.03085">
        <ele>197.6</ele>
        <time>2026-08-24T12:27:52Z</time>
      </trkpt>
      <trkpt lat="49.11611" lon="4.03086">
        <ele>198</ele>
        <time>2026-08-24T12:27:53Z</time>
      </trkpt>
      <trkpt lat="49.11607" lon="4.03088">
        <ele>198.4</ele>
        <time>2026-08-24T12:27:54Z</time>
      </trkpt>
      <trkpt lat="49.11604" lon="4.0309">
        <ele>199</ele>
        <time>2026-08-24T12:27:55Z</time>
      </trkpt>
      <trkpt lat="49.11601" lon="4.03092">
        <ele>199.2</ele>
        <time>2026-08-24T12:27:56Z</time>
      </trkpt>
      <trkpt lat="49.11597" lon="4.03094">
        <ele>199.4</ele>
        <time>2026-08-24T12:27:57Z</time>
      </trkpt>
      <trkpt lat="49.11594" lon="4.03096">
        <ele>199.6</ele>
        <time>2026-08-24T12:27:58Z</time>
      </trkpt>
      <trkpt lat="49.11591" lon="4.03098">
        <ele>199.8</ele>
        <time>2026-08-24T12:27:59Z</time>
      </trkpt>
      <trkpt lat="49.11587" lon="4.031">
        <ele>199.8</ele>
        <time>2026-08-24T12:28:00Z</time>
      </trkpt>
      <trkpt lat="49.11584" lon="4.03103">
        <ele>200</ele>
        <time>2026-08-24T12:28:01Z</time>
      </trkpt>
      <trkpt lat="49.11581" lon="4.03105">
        <ele>200.2</ele>
        <time>2026-08-24T12:28:02Z</time>
      </trkpt>
      <trkpt lat="49.11578" lon="4.03107">
        <ele>200.4</ele>
        <time>2026-08-24T12:28:03Z</time>
      </trkpt>
      <trkpt lat="49.11575" lon="4.03109">
        <ele>200.6</ele>
        <time>2026-08-24T12:28:04Z</time>
      </trkpt>
      <trkpt lat="49.11572" lon="4.03111">
        <ele>200.8</ele>
        <time>2026-08-24T12:28:05Z</time>
      </trkpt>
      <trkpt lat="49.11569" lon="4.03114">
        <ele>201</ele>
        <time>2026-08-24T12:28:06Z</time>
      </trkpt>
      <trkpt lat="49.11566" lon="4.03116">
        <ele>201.2</ele>
        <time>2026-08-24T12:28:07Z</time>
      </trkpt>
      <trkpt lat="49.11563" lon="4.03118">
        <ele>201.4</ele>
        <time>2026-08-24T12:28:08Z</time>
      </trkpt>
      <trkpt lat="49.1156" lon="4.0312">
        <ele>201.4</ele>
        <time>2026-08-24T12:28:09Z</time>
      </trkpt>
      <trkpt lat="49.11557" lon="4.03122">
        <ele>201.6</ele>
        <time>2026-08-24T12:28:10Z</time>
      </trkpt>
      <trkpt lat="49.11555" lon="4.03124">
        <ele>201.8</ele>
        <time>2026-08-24T12:28:11Z</time>
      </trkpt>
      <trkpt lat="49.11552" lon="4.03126">
        <ele>202.2</ele>
        <time>2026-08-24T12:28:12Z</time>
      </trkpt>
      <trkpt lat="49.11549" lon="4.03129">
        <ele>202.4</ele>
        <time>2026-08-24T12:28:13Z</time>
      </trkpt>
      <trkpt lat="49.11547" lon="4.03131">
        <ele>202.6</ele>
        <time>2026-08-24T12:28:14Z</time>
      </trkpt>
      <trkpt lat="49.11544" lon="4.03134">
        <ele>202.8</ele>
        <time>2026-08-24T12:28:15Z</time>
      </trkpt>
      <trkpt lat="49.11542" lon="4.03136">
        <ele>203</ele>
        <time>2026-08-24T12:28:16Z</time>
      </trkpt>
      <trkpt lat="49.11539" lon="4.03139">
        <ele>203.2</ele>
        <time>2026-08-24T12:28:17Z</time>
      </trkpt>
      <trkpt lat="49.11537" lon="4.03141">
        <ele>203.4</ele>
        <time>2026-08-24T12:28:18Z</time>
      </trkpt>
      <trkpt lat="49.11535" lon="4.03144">
        <ele>203.6</ele>
        <time>2026-08-24T12:28:19Z</time>
      </trkpt>
      <trkpt lat="49.11533" lon="4.03146">
        <ele>203.8</ele>
        <time>2026-08-24T12:28:20Z</time>
      </trkpt>
      <trkpt lat="49.11531" lon="4.03149">
        <ele>204</ele>
        <time>2026-08-24T12:28:21Z</time>
      </trkpt>
      <trkpt lat="49.11529" lon="4.03152">
        <ele>204.2</ele>
        <time>2026-08-24T12:28:22Z</time>
      </trkpt>
      <trkpt lat="49.11527" lon="4.03155">
        <ele>204.4</ele>
        <time>2026-08-24T12:28:23Z</time>
      </trkpt>
      <trkpt lat="49.11525" lon="4.03158">
        <ele>204.6</ele>
        <time>2026-08-24T12:28:24Z</time>
      </trkpt>
      <trkpt lat="49.11523" lon="4.03161">
        <ele>204.8</ele>
        <time>2026-08-24T12:28:25Z</time>
      </trkpt>
      <trkpt lat="49.11521" lon="4.03165">
        <ele>205</ele>
        <time>2026-08-24T12:28:26Z</time>
      </trkpt>
      <trkpt lat="49.11519" lon="4.03168">
        <ele>205.2</ele>
        <time>2026-08-24T12:28:27Z</time>
      </trkpt>
      <trkpt lat="49.11517" lon="4.03172">
        <ele>205.4</ele>
        <time>2026-08-24T12:28:28Z</time>
      </trkpt>
      <trkpt lat="49.11516" lon="4.03175">
        <ele>205.4</ele>
        <time>2026-08-24T12:28:29Z</time>
      </trkpt>
      <trkpt lat="49.11514" lon="4.03178">
        <ele>205.6</ele>
        <time>2026-08-24T12:28:30Z</time>
      </trkpt>
      <trkpt lat="49.11512" lon="4.03182">
        <ele>205.8</ele>
        <time>2026-08-24T12:28:31Z</time>
      </trkpt>
      <trkpt lat="49.1151" lon="4.03185">
        <ele>206</ele>
        <time>2026-08-24T12:28:32Z</time>
      </trkpt>
      <trkpt lat="49.11509" lon="4.03189">
        <ele>206.2</ele>
        <time>2026-08-24T12:28:33Z</time>
      </trkpt>
      <trkpt lat="49.11507" lon="4.03192">
        <ele>206.4</ele>
        <time>2026-08-24T12:28:34Z</time>
      </trkpt>
      <trkpt lat="49.11505" lon="4.03196">
        <ele>206.6</ele>
        <time>2026-08-24T12:28:35Z</time>
      </trkpt>
      <trkpt lat="49.11504" lon="4.03199">
        <ele>206.8</ele>
        <time>2026-08-24T12:28:36Z</time>
      </trkpt>
      <trkpt lat="49.11502" lon="4.03202">
        <ele>207</ele>
        <time>2026-08-24T12:28:37Z</time>
      </trkpt>
      <trkpt lat="49.115" lon="4.03205">
        <ele>207.2</ele>
        <time>2026-08-24T12:28:38Z</time>
      </trkpt>
      <trkpt lat="49.11498" lon="4.03209">
        <ele>207.4</ele>
        <time>2026-08-24T12:28:39Z</time>
      </trkpt>
      <trkpt lat="49.11497" lon="4.03212">
        <ele>207.6</ele>
        <time>2026-08-24T12:28:40Z</time>
      </trkpt>
      <trkpt lat="49.11494" lon="4.03216">
        <ele>207.8</ele>
        <time>2026-08-24T12:28:41Z</time>
      </trkpt>
      <trkpt lat="49.11492" lon="4.03219">
        <ele>208</ele>
        <time>2026-08-24T12:28:42Z</time>
      </trkpt>
      <trkpt lat="49.1149" lon="4.03222">
        <ele>208.2</ele>
        <time>2026-08-24T12:28:43Z</time>
      </trkpt>
      <trkpt lat="49.11488" lon="4.03225">
        <ele>208.2</ele>
        <time>2026-08-24T12:28:44Z</time>
      </trkpt>
      <trkpt lat="49.11485" lon="4.03228">
        <ele>208.4</ele>
        <time>2026-08-24T12:28:45Z</time>
      </trkpt>
      <trkpt lat="49.11482" lon="4.0323">
        <ele>208.6</ele>
        <time>2026-08-24T12:28:46Z</time>
      </trkpt>
      <trkpt lat="49.1148" lon="4.03232">
        <ele>208.8</ele>
        <time>2026-08-24T12:28:47Z</time>
      </trkpt>
      <trkpt lat="49.11477" lon="4.03234">
        <ele>209</ele>
        <time>2026-08-24T12:28:48Z</time>
      </trkpt>
      <trkpt lat="49.11474" lon="4.03236">
        <ele>209.4</ele>
        <time>2026-08-24T12:28:49Z</time>
      </trkpt>
      <trkpt lat="49.11471" lon="4.03237">
        <ele>209.6</ele>
        <time>2026-08-24T12:28:50Z</time>
      </trkpt>
      <trkpt lat="49.11468" lon="4.03238">
        <ele>209.8</ele>
        <time>2026-08-24T12:28:51Z</time>
      </trkpt>
      <trkpt lat="49.11465" lon="4.03238">
        <ele>210</ele>
        <time>2026-08-24T12:28:52Z</time>
      </trkpt>
      <trkpt lat="49.11462" lon="4.03238">
        <ele>210.4</ele>
        <time>2026-08-24T12:28:53Z</time>
      </trkpt>
      <trkpt lat="49.11459" lon="4.03237">
        <ele>210.6</ele>
        <time>2026-08-24T12:28:54Z</time>
      </trkpt>
      <trkpt lat="49.11457" lon="4.03236">
        <ele>211</ele>
        <time>2026-08-24T12:28:55Z</time>
      </trkpt>
      <trkpt lat="49.11454" lon="4.03235">
        <ele>211.2</ele>
        <time>2026-08-24T12:28:56Z</time>
      </trkpt>
      <trkpt lat="49.11452" lon="4.03234">
        <ele>211.4</ele>
        <time>2026-08-24T12:28:57Z</time>
      </trkpt>
      <trkpt lat="49.11449" lon="4.03232">
        <ele>211.6</ele>
        <time>2026-08-24T12:28:58Z</time>
      </trkpt>
      <trkpt lat="49.11447" lon="4.03231">
        <ele>211.8</ele>
        <time>2026-08-24T12:28:59Z</time>
      </trkpt>
      <trkpt lat="49.11445" lon="4.0323">
        <ele>212</ele>
        <time>2026-08-24T12:29:00Z</time>
      </trkpt>
      <trkpt lat="49.11442" lon="4.03228">
        <ele>212.2</ele>
        <time>2026-08-24T12:29:01Z</time>
      </trkpt>
      <trkpt lat="49.1144" lon="4.03227">
        <ele>212.4</ele>
        <time>2026-08-24T12:29:02Z</time>
      </trkpt>
      <trkpt lat="49.11437" lon="4.03225">
        <ele>212.6</ele>
        <time>2026-08-24T12:29:03Z</time>
      </trkpt>
      <trkpt lat="49.11435" lon="4.03224">
        <ele>212.8</ele>
        <time>2026-08-24T12:29:04Z</time>
      </trkpt>
      <trkpt lat="49.11432" lon="4.03222">
        <ele>213</ele>
        <time>2026-08-24T12:29:05Z</time>
      </trkpt>
      <trkpt lat="49.1143" lon="4.03221">
        <ele>213.2</ele>
        <time>2026-08-24T12:29:06Z</time>
      </trkpt>
      <trkpt lat="49.11427" lon="4.03219">
        <ele>213.4</ele>
        <time>2026-08-24T12:29:07Z</time>
      </trkpt>
      <trkpt lat="49.11425" lon="4.03217">
        <ele>213.6</ele>
        <time>2026-08-24T12:29:08Z</time>
      </trkpt>
      <trkpt lat="49.11422" lon="4.03215">
        <ele>213.8</ele>
        <time>2026-08-24T12:29:09Z</time>
      </trkpt>
      <trkpt lat="49.1142" lon="4.03213">
        <ele>213.8</ele>
        <time>2026-08-24T12:29:10Z</time>
      </trkpt>
      <trkpt lat="49.11417" lon="4.03212">
        <ele>214</ele>
        <time>2026-08-24T12:29:11Z</time>
      </trkpt>
      <trkpt lat="49.11415" lon="4.0321">
        <ele>214.2</ele>
        <time>2026-08-24T12:29:12Z</time>
      </trkpt>
      <trkpt lat="49.11412" lon="4.03208">
        <ele>214.4</ele>
        <time>2026-08-24T12:29:13Z</time>
      </trkpt>
      <trkpt lat="49.1141" lon="4.03207">
        <ele>214.6</ele>
        <time>2026-08-24T12:29:14Z</time>
      </trkpt>
      <trkpt lat="49.11407" lon="4.03205">
        <ele>214.8</ele>
        <time>2026-08-24T12:29:15Z</time>
      </trkpt>
      <trkpt lat="49.11404" lon="4.03203">
        <ele>215</ele>
        <time>2026-08-24T12:29:16Z</time>
      </trkpt>
      <trkpt lat="49.11401" lon="4.03202">
        <ele>215.2</ele>
        <time>2026-08-24T12:29:17Z</time>
      </trkpt>
      <trkpt lat="49.11399" lon="4.032">
        <ele>215.4</ele>
        <time>2026-08-24T12:29:18Z</time>
      </trkpt>
      <trkpt lat="49.11396" lon="4.03199">
        <ele>215.4</ele>
        <time>2026-08-24T12:29:19Z</time>
      </trkpt>
      <trkpt lat="49.11393" lon="4.03197">
        <ele>215.6</ele>
        <time>2026-08-24T12:29:20Z</time>
      </trkpt>
      <trkpt lat="49.1139" lon="4.03195">
        <ele>215.8</ele>
        <time>2026-08-24T12:29:21Z</time>
      </trkpt>
      <trkpt lat="49.11387" lon="4.03193">
        <ele>216</ele>
        <time>2026-08-24T12:29:22Z</time>
      </trkpt>
      <trkpt lat="49.11385" lon="4.03192">
        <ele>216.2</ele>
        <time>2026-08-24T12:29:23Z</time>
      </trkpt>
      <trkpt lat="49.11382" lon="4.0319">
        <ele>216.4</ele>
        <time>2026-08-24T12:29:24Z</time>
      </trkpt>
      <trkpt lat="49.1138" lon="4.03188">
        <ele>216.6</ele>
        <time>2026-08-24T12:29:25Z</time>
      </trkpt>
      <trkpt lat="49.11378" lon="4.03188">
        <ele>216.8</ele>
        <time>2026-08-24T12:29:26Z</time>
      </trkpt>
      <trkpt lat="49.11376" lon="4.0319">
        <ele>217</ele>
        <time>2026-08-24T12:29:27Z</time>
      </trkpt>
      <trkpt lat="49.11375" lon="4.03193">
        <ele>217</ele>
        <time>2026-08-24T12:29:28Z</time>
      </trkpt>
      <trkpt lat="49.11375" lon="4.03197">
        <ele>217</ele>
        <time>2026-08-24T12:29:29Z</time>
      </trkpt>
      <trkpt lat="49.11376" lon="4.03203">
        <ele>217</ele>
        <time>2026-08-24T12:29:30Z</time>
      </trkpt>
      <trkpt lat="49.11377" lon="4.03209">
        <ele>217</ele>
        <time>2026-08-24T12:29:31Z</time>
      </trkpt>
      <trkpt lat="49.11378" lon="4.03216">
        <ele>216.8</ele>
        <time>2026-08-24T12:29:32Z</time>
      </trkpt>
      <trkpt lat="49.11379" lon="4.03224">
        <ele>216.6</ele>
        <time>2026-08-24T12:29:33Z</time>
      </trkpt>
      <trkpt lat="49.11381" lon="4.03233">
        <ele>216</ele>
        <time>2026-08-24T12:29:34Z</time>
      </trkpt>
      <trkpt lat="49.11382" lon="4.03244">
        <ele>215.6</ele>
        <time>2026-08-24T12:29:35Z</time>
      </trkpt>
      <trkpt lat="49.11383" lon="4.03255">
        <ele>214.6</ele>
        <time>2026-08-24T12:29:36Z</time>
      </trkpt>
      <trkpt lat="49.11384" lon="4.03267">
        <ele>213.6</ele>
        <time>2026-08-24T12:29:37Z</time>
      </trkpt>
      <trkpt lat="49.11385" lon="4.0328">
        <ele>212.6</ele>
        <time>2026-08-24T12:29:38Z</time>
      </trkpt>
      <trkpt lat="49.11385" lon="4.03293">
        <ele>212</ele>
        <time>2026-08-24T12:29:39Z</time>
      </trkpt>
      <trkpt lat="49.11384" lon="4.03306">
        <ele>211.2</ele>
        <time>2026-08-24T12:29:40Z</time>
      </trkpt>
      <trkpt lat="49.11383" lon="4.03319">
        <ele>210.2</ele>
        <time>2026-08-24T12:29:41Z</time>
      </trkpt>
      <trkpt lat="49.11381" lon="4.03333">
        <ele>209.2</ele>
        <time>2026-08-24T12:29:42Z</time>
      </trkpt>
      <trkpt lat="49.11379" lon="4.03346">
        <ele>208.2</ele>
        <time>2026-08-24T12:29:43Z</time>
      </trkpt>
      <trkpt lat="49.11378" lon="4.03358">
        <ele>207.6</ele>
        <time>2026-08-24T12:29:44Z</time>
      </trkpt>
      <trkpt lat="49.11376" lon="4.0337">
        <ele>206.8</ele>
        <time>2026-08-24T12:29:45Z</time>
      </trkpt>
      <trkpt lat="49.11374" lon="4.03382">
        <ele>206.2</ele>
        <time>2026-08-24T12:29:46Z</time>
      </trkpt>
      <trkpt lat="49.11371" lon="4.03393">
        <ele>205.4</ele>
        <time>2026-08-24T12:29:47Z</time>
      </trkpt>
      <trkpt lat="49.11366" lon="4.03403">
        <ele>204.8</ele>
        <time>2026-08-24T12:29:48Z</time>
      </trkpt>
      <trkpt lat="49.11361" lon="4.03412">
        <ele>203.8</ele>
        <time>2026-08-24T12:29:49Z</time>
      </trkpt>
      <trkpt lat="49.11355" lon="4.03419">
        <ele>203</ele>
        <time>2026-08-24T12:29:50Z</time>
      </trkpt>
      <trkpt lat="49.11348" lon="4.03425">
        <ele>202.4</ele>
        <time>2026-08-24T12:29:51Z</time>
      </trkpt>
      <trkpt lat="49.1134" lon="4.03431">
        <ele>202</ele>
        <time>2026-08-24T12:29:52Z</time>
      </trkpt>
      <trkpt lat="49.11333" lon="4.03437">
        <ele>201.4</ele>
        <time>2026-08-24T12:29:53Z</time>
      </trkpt>
      <trkpt lat="49.11325" lon="4.03443">
        <ele>201</ele>
        <time>2026-08-24T12:29:54Z</time>
      </trkpt>
      <trkpt lat="49.11317" lon="4.03449">
        <ele>200.2</ele>
        <time>2026-08-24T12:29:55Z</time>
      </trkpt>
      <trkpt lat="49.11309" lon="4.03456">
        <ele>199.4</ele>
        <time>2026-08-24T12:29:56Z</time>
      </trkpt>
      <trkpt lat="49.113" lon="4.03464">
        <ele>197.6</ele>
        <time>2026-08-24T12:29:57Z</time>
      </trkpt>
      <trkpt lat="49.11292" lon="4.03471">
        <ele>196</ele>
        <time>2026-08-24T12:29:58Z</time>
      </trkpt>
      <trkpt lat="49.11284" lon="4.03479">
        <ele>195</ele>
        <time>2026-08-24T12:29:59Z</time>
      </trkpt>
      <trkpt lat="49.11276" lon="4.03487">
        <ele>193.6</ele>
        <time>2026-08-24T12:30:00Z</time>
      </trkpt>
      <trkpt lat="49.11268" lon="4.03495">
        <ele>192.6</ele>
        <time>2026-08-24T12:30:01Z</time>
      </trkpt>
      <trkpt lat="49.1126" lon="4.03503">
        <ele>191.4</ele>
        <time>2026-08-24T12:30:02Z</time>
      </trkpt>
      <trkpt lat="49.11253" lon="4.03511">
        <ele>190.4</ele>
        <time>2026-08-24T12:30:03Z</time>
      </trkpt>
      <trkpt lat="49.11246" lon="4.03518">
        <ele>189.4</ele>
        <time>2026-08-24T12:30:04Z</time>
      </trkpt>
      <trkpt lat="49.11238" lon="4.03526">
        <ele>188.2</ele>
        <time>2026-08-24T12:30:05Z</time>
      </trkpt>
      <trkpt lat="49.1123" lon="4.03532">
        <ele>187.8</ele>
        <time>2026-08-24T12:30:06Z</time>
      </trkpt>
      <trkpt lat="49.11221" lon="4.03537">
        <ele>186.8</ele>
        <time>2026-08-24T12:30:07Z</time>
      </trkpt>
      <trkpt lat="49.11212" lon="4.0354">
        <ele>185.8</ele>
        <time>2026-08-24T12:30:08Z</time>
      </trkpt>
      <trkpt lat="49.11203" lon="4.03542">
        <ele>184.6</ele>
        <time>2026-08-24T12:30:09Z</time>
      </trkpt>
      <trkpt lat="49.11193" lon="4.03541">
        <ele>183.6</ele>
        <time>2026-08-24T12:30:10Z</time>
      </trkpt>
      <trkpt lat="49.11183" lon="4.03538">
        <ele>183.4</ele>
        <time>2026-08-24T12:30:11Z</time>
      </trkpt>
      <trkpt lat="49.11172" lon="4.03535">
        <ele>183</ele>
        <time>2026-08-24T12:30:12Z</time>
      </trkpt>
      <trkpt lat="49.11163" lon="4.0353">
        <ele>182.6</ele>
        <time>2026-08-24T12:30:13Z</time>
      </trkpt>
      <trkpt lat="49.11153" lon="4.03525">
        <ele>182.2</ele>
        <time>2026-08-24T12:30:14Z</time>
      </trkpt>
      <trkpt lat="49.11143" lon="4.03521">
        <ele>182</ele>
        <time>2026-08-24T12:30:15Z</time>
      </trkpt>
      <trkpt lat="49.11134" lon="4.03518">
        <ele>182</ele>
        <time>2026-08-24T12:30:16Z</time>
      </trkpt>
      <trkpt lat="49.11125" lon="4.03517">
        <ele>182.4</ele>
        <time>2026-08-24T12:30:17Z</time>
      </trkpt>
      <trkpt lat="49.11115" lon="4.03519">
        <ele>182.6</ele>
        <time>2026-08-24T12:30:18Z</time>
      </trkpt>
      <trkpt lat="49.11106" lon="4.03522">
        <ele>182.6</ele>
        <time>2026-08-24T12:30:19Z</time>
      </trkpt>
      <trkpt lat="49.11098" lon="4.03529">
        <ele>182.8</ele>
        <time>2026-08-24T12:30:20Z</time>
      </trkpt>
      <trkpt lat="49.1109" lon="4.03538">
        <ele>182.6</ele>
        <time>2026-08-24T12:30:21Z</time>
      </trkpt>
      <trkpt lat="49.11083" lon="4.03548">
        <ele>182</ele>
        <time>2026-08-24T12:30:22Z</time>
      </trkpt>
      <trkpt lat="49.11076" lon="4.03559">
        <ele>181.2</ele>
        <time>2026-08-24T12:30:23Z</time>
      </trkpt>
      <trkpt lat="49.11069" lon="4.03569">
        <ele>180.4</ele>
        <time>2026-08-24T12:30:24Z</time>
      </trkpt>
      <trkpt lat="49.11061" lon="4.0358">
        <ele>179.2</ele>
        <time>2026-08-24T12:30:25Z</time>
      </trkpt>
      <trkpt lat="49.11054" lon="4.03589">
        <ele>178.4</ele>
        <time>2026-08-24T12:30:26Z</time>
      </trkpt>
      <trkpt lat="49.11047" lon="4.03599">
        <ele>178</ele>
        <time>2026-08-24T12:30:27Z</time>
      </trkpt>
      <trkpt lat="49.1104" lon="4.03609">
        <ele>177.6</ele>
        <time>2026-08-24T12:30:28Z</time>
      </trkpt>
      <trkpt lat="49.11034" lon="4.0362">
        <ele>177.4</ele>
        <time>2026-08-24T12:30:29Z</time>
      </trkpt>
      <trkpt lat="49.11029" lon="4.03631">
        <ele>177.2</ele>
        <time>2026-08-24T12:30:30Z</time>
      </trkpt>
      <trkpt lat="49.11025" lon="4.03644">
        <ele>176.6</ele>
        <time>2026-08-24T12:30:31Z</time>
      </trkpt>
      <trkpt lat="49.11022" lon="4.03657">
        <ele>175.8</ele>
        <time>2026-08-24T12:30:32Z</time>
      </trkpt>
      <trkpt lat="49.11021" lon="4.03672">
        <ele>175.2</ele>
        <time>2026-08-24T12:30:33Z</time>
      </trkpt>
      <trkpt lat="49.11022" lon="4.03686">
        <ele>174.4</ele>
        <time>2026-08-24T12:30:34Z</time>
      </trkpt>
      <trkpt lat="49.11024" lon="4.037">
        <ele>173.2</ele>
        <time>2026-08-24T12:30:35Z</time>
      </trkpt>
      <trkpt lat="49.11026" lon="4.03714">
        <ele>172</ele>
        <time>2026-08-24T12:30:36Z</time>
      </trkpt>
      <trkpt lat="49.11027" lon="4.03728">
        <ele>171.2</ele>
        <time>2026-08-24T12:30:37Z</time>
      </trkpt>
      <trkpt lat="49.11026" lon="4.03741">
        <ele>170.4</ele>
        <time>2026-08-24T12:30:38Z</time>
      </trkpt>
      <trkpt lat="49.11022" lon="4.03753">
        <ele>169.8</ele>
        <time>2026-08-24T12:30:39Z</time>
      </trkpt>
      <trkpt lat="49.11018" lon="4.03761">
        <ele>169</ele>
        <time>2026-08-24T12:30:40Z</time>
      </trkpt>
      <trkpt lat="49.11013" lon="4.03768">
        <ele>168.8</ele>
        <time>2026-08-24T12:30:41Z</time>
      </trkpt>
      <trkpt lat="49.11006" lon="4.03774">
        <ele>168.4</ele>
        <time>2026-08-24T12:30:42Z</time>
      </trkpt>
      <trkpt lat="49.10999" lon="4.0378">
        <ele>168</ele>
        <time>2026-08-24T12:30:43Z</time>
      </trkpt>
      <trkpt lat="49.10991" lon="4.03786">
        <ele>167.4</ele>
        <time>2026-08-24T12:30:44Z</time>
      </trkpt>
      <trkpt lat="49.10983" lon="4.03793">
        <ele>166.4</ele>
        <time>2026-08-24T12:30:45Z</time>
      </trkpt>
      <trkpt lat="49.10975" lon="4.038">
        <ele>165.6</ele>
        <time>2026-08-24T12:30:46Z</time>
      </trkpt>
      <trkpt lat="49.10967" lon="4.03807">
        <ele>164.6</ele>
        <time>2026-08-24T12:30:47Z</time>
      </trkpt>
      <trkpt lat="49.1096" lon="4.03815">
        <ele>164</ele>
        <time>2026-08-24T12:30:48Z</time>
      </trkpt>
      <trkpt lat="49.10952" lon="4.03824">
        <ele>163.2</ele>
        <time>2026-08-24T12:30:49Z</time>
      </trkpt>
      <trkpt lat="49.10944" lon="4.03833">
        <ele>163</ele>
        <time>2026-08-24T12:30:50Z</time>
      </trkpt>
      <trkpt lat="49.10937" lon="4.03841">
        <ele>162.2</ele>
        <time>2026-08-24T12:30:51Z</time>
      </trkpt>
      <trkpt lat="49.10928" lon="4.0385">
        <ele>161.2</ele>
        <time>2026-08-24T12:30:52Z</time>
      </trkpt>
      <trkpt lat="49.1092" lon="4.03859">
        <ele>160.4</ele>
        <time>2026-08-24T12:30:53Z</time>
      </trkpt>
      <trkpt lat="49.10911" lon="4.03867">
        <ele>159.6</ele>
        <time>2026-08-24T12:30:54Z</time>
      </trkpt>
      <trkpt lat="49.10901" lon="4.03873">
        <ele>159.2</ele>
        <time>2026-08-24T12:30:55Z</time>
      </trkpt>
      <trkpt lat="49.10892" lon="4.03879">
        <ele>158.8</ele>
        <time>2026-08-24T12:30:56Z</time>
      </trkpt>
      <trkpt lat="49.10883" lon="4.03884">
        <ele>158.2</ele>
        <time>2026-08-24T12:30:57Z</time>
      </trkpt>
      <trkpt lat="49.10874" lon="4.03888">
        <ele>157.8</ele>
        <time>2026-08-24T12:30:58Z</time>
      </trkpt>
      <trkpt lat="49.10866" lon="4.03893">
        <ele>157.4</ele>
        <time>2026-08-24T12:30:59Z</time>
      </trkpt>
      <trkpt lat="49.10857" lon="4.03898">
        <ele>157</ele>
        <time>2026-08-24T12:31:00Z</time>
      </trkpt>
      <trkpt lat="49.10847" lon="4.03904">
        <ele>156.8</ele>
        <time>2026-08-24T12:31:01Z</time>
      </trkpt>
      <trkpt lat="49.10837" lon="4.03908">
        <ele>156.6</ele>
        <time>2026-08-24T12:31:02Z</time>
      </trkpt>
      <trkpt lat="49.10827" lon="4.03911">
        <ele>156.4</ele>
        <time>2026-08-24T12:31:03Z</time>
      </trkpt>
      <trkpt lat="49.10818" lon="4.03913">
        <ele>156.2</ele>
        <time>2026-08-24T12:31:04Z</time>
      </trkpt>
      <trkpt lat="49.10808" lon="4.03915">
        <ele>156.2</ele>
        <time>2026-08-24T12:31:05Z</time>
      </trkpt>
      <trkpt lat="49.10798" lon="4.03916">
        <ele>156</ele>
        <time>2026-08-24T12:31:06Z</time>
      </trkpt>
      <trkpt lat="49.10789" lon="4.03917">
        <ele>155.6</ele>
        <time>2026-08-24T12:31:07Z</time>
      </trkpt>
      <trkpt lat="49.1078" lon="4.03917">
        <ele>155.4</ele>
        <time>2026-08-24T12:31:08Z</time>
      </trkpt>
      <trkpt lat="49.10771" lon="4.03918">
        <ele>155.4</ele>
        <time>2026-08-24T12:31:09Z</time>
      </trkpt>
      <trkpt lat="49.10762" lon="4.03919">
        <ele>155.2</ele>
        <time>2026-08-24T12:31:10Z</time>
      </trkpt>
      <trkpt lat="49.10753" lon="4.0392">
        <ele>155.4</ele>
        <time>2026-08-24T12:31:11Z</time>
      </trkpt>
      <trkpt lat="49.10745" lon="4.03921">
        <ele>156</ele>
        <time>2026-08-24T12:31:12Z</time>
      </trkpt>
      <trkpt lat="49.10736" lon="4.03921">
        <ele>156.2</ele>
        <time>2026-08-24T12:31:13Z</time>
      </trkpt>
      <trkpt lat="49.10728" lon="4.03922">
        <ele>156.6</ele>
        <time>2026-08-24T12:31:14Z</time>
      </trkpt>
      <trkpt lat="49.10719" lon="4.03923">
        <ele>156.8</ele>
        <time>2026-08-24T12:31:15Z</time>
      </trkpt>
      <trkpt lat="49.10711" lon="4.03924">
        <ele>157</ele>
        <time>2026-08-24T12:31:16Z</time>
      </trkpt>
      <trkpt lat="49.10702" lon="4.03925">
        <ele>157</ele>
        <time>2026-08-24T12:31:17Z</time>
      </trkpt>
      <trkpt lat="49.10695" lon="4.03925">
        <ele>157</ele>
        <time>2026-08-24T12:31:18Z</time>
      </trkpt>
      <trkpt lat="49.10687" lon="4.03926">
        <ele>157.2</ele>
        <time>2026-08-24T12:31:19Z</time>
      </trkpt>
      <trkpt lat="49.10679" lon="4.03927">
        <ele>157.4</ele>
        <time>2026-08-24T12:31:20Z</time>
      </trkpt>
      <trkpt lat="49.10671" lon="4.03928">
        <ele>157.4</ele>
        <time>2026-08-24T12:31:21Z</time>
      </trkpt>
      <trkpt lat="49.10664" lon="4.03929">
        <ele>157.2</ele>
        <time>2026-08-24T12:31:22Z</time>
      </trkpt>
      <trkpt lat="49.10657" lon="4.03929">
        <ele>157.6</ele>
        <time>2026-08-24T12:31:23Z</time>
      </trkpt>
      <trkpt lat="49.1065" lon="4.0393">
        <ele>157.6</ele>
        <time>2026-08-24T12:31:24Z</time>
      </trkpt>
      <trkpt lat="49.10644" lon="4.0393">
        <ele>157.8</ele>
        <time>2026-08-24T12:31:25Z</time>
      </trkpt>
      <trkpt lat="49.10638" lon="4.03931">
        <ele>158.2</ele>
        <time>2026-08-24T12:31:26Z</time>
      </trkpt>
      <trkpt lat="49.10632" lon="4.03932">
        <ele>158.8</ele>
        <time>2026-08-24T12:31:27Z</time>
      </trkpt>
      <trkpt lat="49.10626" lon="4.03932">
        <ele>159.2</ele>
        <time>2026-08-24T12:31:28Z</time>
      </trkpt>
      <trkpt lat="49.10621" lon="4.03933">
        <ele>159.6</ele>
        <time>2026-08-24T12:31:29Z</time>
      </trkpt>
      <trkpt lat="49.10615" lon="4.03934">
        <ele>160</ele>
        <time>2026-08-24T12:31:30Z</time>
      </trkpt>
      <trkpt lat="49.1061" lon="4.03935">
        <ele>160.4</ele>
        <time>2026-08-24T12:31:31Z</time>
      </trkpt>
      <trkpt lat="49.10605" lon="4.03935">
        <ele>160.6</ele>
        <time>2026-08-24T12:31:32Z</time>
      </trkpt>
      <trkpt lat="49.106" lon="4.03936">
        <ele>161</ele>
        <time>2026-08-24T12:31:33Z</time>
      </trkpt>
      <trkpt lat="49.10595" lon="4.03937">
        <ele>161.4</ele>
        <time>2026-08-24T12:31:34Z</time>
      </trkpt>
      <trkpt lat="49.10591" lon="4.03937">
        <ele>161.6</ele>
        <time>2026-08-24T12:31:35Z</time>
      </trkpt>
      <trkpt lat="49.10586" lon="4.03937">
        <ele>162</ele>
        <time>2026-08-24T12:31:36Z</time>
      </trkpt>
      <trkpt lat="49.10581" lon="4.03938">
        <ele>162.4</ele>
        <time>2026-08-24T12:31:37Z</time>
      </trkpt>
      <trkpt lat="49.10577" lon="4.03939">
        <ele>162.8</ele>
        <time>2026-08-24T12:31:38Z</time>
      </trkpt>
      <trkpt lat="49.10572" lon="4.03939">
        <ele>163.2</ele>
        <time>2026-08-24T12:31:39Z</time>
      </trkpt>
      <trkpt lat="49.10567" lon="4.0394">
        <ele>163.6</ele>
        <time>2026-08-24T12:31:40Z</time>
      </trkpt>
      <trkpt lat="49.10563" lon="4.0394">
        <ele>164</ele>
        <time>2026-08-24T12:31:41Z</time>
      </trkpt>
      <trkpt lat="49.1056" lon="4.03939">
        <ele>164.2</ele>
        <time>2026-08-24T12:31:42Z</time>
      </trkpt>
      <trkpt lat="49.10555" lon="4.0394">
        <ele>164.2</ele>
        <time>2026-08-24T12:31:43Z</time>
      </trkpt>
      <trkpt lat="49.10551" lon="4.0394">
        <ele>164.2</ele>
        <time>2026-08-24T12:31:44Z</time>
      </trkpt>
      <trkpt lat="49.10546" lon="4.0394">
        <ele>164.6</ele>
        <time>2026-08-24T12:31:45Z</time>
      </trkpt>
      <trkpt lat="49.10542" lon="4.0394">
        <ele>164.8</ele>
        <time>2026-08-24T12:31:46Z</time>
      </trkpt>
      <trkpt lat="49.10538" lon="4.03939">
        <ele>164.8</ele>
        <time>2026-08-24T12:31:47Z</time>
      </trkpt>
      <trkpt lat="49.10534" lon="4.03939">
        <ele>165</ele>
        <time>2026-08-24T12:31:48Z</time>
      </trkpt>
      <trkpt lat="49.10531" lon="4.03939">
        <ele>165.6</ele>
        <time>2026-08-24T12:31:49Z</time>
      </trkpt>
      <trkpt lat="49.10528" lon="4.03938">
        <ele>165.8</ele>
        <time>2026-08-24T12:31:50Z</time>
      </trkpt>
      <trkpt lat="49.10524" lon="4.03939">
        <ele>165.8</ele>
        <time>2026-08-24T12:31:51Z</time>
      </trkpt>
      <trkpt lat="49.10518" lon="4.03939">
        <ele>166</ele>
        <time>2026-08-24T12:31:52Z</time>
      </trkpt>
      <trkpt lat="49.10513" lon="4.03941">
        <ele>166.2</ele>
        <time>2026-08-24T12:31:53Z</time>
      </trkpt>
      <trkpt lat="49.10508" lon="4.03941">
        <ele>166</ele>
        <time>2026-08-24T12:31:54Z</time>
      </trkpt>
      <trkpt lat="49.10502" lon="4.03943">
        <ele>166</ele>
        <time>2026-08-24T12:31:55Z</time>
      </trkpt>
      <trkpt lat="49.10495" lon="4.03945">
        <ele>166</ele>
        <time>2026-08-24T12:31:56Z</time>
      </trkpt>
      <trkpt lat="49.10489" lon="4.03946">
        <ele>165.8</ele>
        <time>2026-08-24T12:31:57Z</time>
      </trkpt>
      <trkpt lat="49.10483" lon="4.03946">
        <ele>165.8</ele>
        <time>2026-08-24T12:31:58Z</time>
      </trkpt>
      <trkpt lat="49.10477" lon="4.03947">
        <ele>165.6</ele>
        <time>2026-08-24T12:31:59Z</time>
      </trkpt>
      <trkpt lat="49.10471" lon="4.03948">
        <ele>165.4</ele>
        <time>2026-08-24T12:32:00Z</time>
      </trkpt>
      <trkpt lat="49.10465" lon="4.03948">
        <ele>165.2</ele>
        <time>2026-08-24T12:32:01Z</time>
      </trkpt>
      <trkpt lat="49.10458" lon="4.03949">
        <ele>165</ele>
        <time>2026-08-24T12:32:02Z</time>
      </trkpt>
      <trkpt lat="49.10452" lon="4.0395">
        <ele>164.8</ele>
        <time>2026-08-24T12:32:03Z</time>
      </trkpt>
      <trkpt lat="49.10446" lon="4.0395">
        <ele>164.6</ele>
        <time>2026-08-24T12:32:04Z</time>
      </trkpt>
      <trkpt lat="49.10439" lon="4.03951">
        <ele>164.4</ele>
        <time>2026-08-24T12:32:05Z</time>
      </trkpt>
      <trkpt lat="49.10432" lon="4.03951">
        <ele>164.4</ele>
        <time>2026-08-24T12:32:06Z</time>
      </trkpt>
      <trkpt lat="49.10426" lon="4.03952">
        <ele>164.2</ele>
        <time>2026-08-24T12:32:07Z</time>
      </trkpt>
      <trkpt lat="49.1042" lon="4.03952">
        <ele>164</ele>
        <time>2026-08-24T12:32:08Z</time>
      </trkpt>
      <trkpt lat="49.10413" lon="4.03953">
        <ele>164</ele>
        <time>2026-08-24T12:32:09Z</time>
      </trkpt>
      <trkpt lat="49.10407" lon="4.03953">
        <ele>164.2</ele>
        <time>2026-08-24T12:32:10Z</time>
      </trkpt>
      <trkpt lat="49.10401" lon="4.03953">
        <ele>164.2</ele>
        <time>2026-08-24T12:32:11Z</time>
      </trkpt>
      <trkpt lat="49.10396" lon="4.03953">
        <ele>164.4</ele>
        <time>2026-08-24T12:32:12Z</time>
      </trkpt>
      <trkpt lat="49.1039" lon="4.03954">
        <ele>164.6</ele>
        <time>2026-08-24T12:32:13Z</time>
      </trkpt>
      <trkpt lat="49.10384" lon="4.03955">
        <ele>164.8</ele>
        <time>2026-08-24T12:32:14Z</time>
      </trkpt>
      <trkpt lat="49.10378" lon="4.03955">
        <ele>164.8</ele>
        <time>2026-08-24T12:32:15Z</time>
      </trkpt>
      <trkpt lat="49.10372" lon="4.03956">
        <ele>164.8</ele>
        <time>2026-08-24T12:32:16Z</time>
      </trkpt>
      <trkpt lat="49.10365" lon="4.03956">
        <ele>164.8</ele>
        <time>2026-08-24T12:32:17Z</time>
      </trkpt>
      <trkpt lat="49.10359" lon="4.03957">
        <ele>164.6</ele>
        <time>2026-08-24T12:32:18Z</time>
      </trkpt>
      <trkpt lat="49.10352" lon="4.03957">
        <ele>164.6</ele>
        <time>2026-08-24T12:32:19Z</time>
      </trkpt>
      <trkpt lat="49.10346" lon="4.03958">
        <ele>164.6</ele>
        <time>2026-08-24T12:32:20Z</time>
      </trkpt>
      <trkpt lat="49.1034" lon="4.03958">
        <ele>164.6</ele>
        <time>2026-08-24T12:32:21Z</time>
      </trkpt>
      <trkpt lat="49.10334" lon="4.03959">
        <ele>164.6</ele>
        <time>2026-08-24T12:32:22Z</time>
      </trkpt>
      <trkpt lat="49.10328" lon="4.03959">
        <ele>164.8</ele>
        <time>2026-08-24T12:32:23Z</time>
      </trkpt>
      <trkpt lat="49.10322" lon="4.0396">
        <ele>165</ele>
        <time>2026-08-24T12:32:24Z</time>
      </trkpt>
      <trkpt lat="49.10316" lon="4.03961">
        <ele>165</ele>
        <time>2026-08-24T12:32:25Z</time>
      </trkpt>
      <trkpt lat="49.1031" lon="4.03961">
        <ele>165</ele>
        <time>2026-08-24T12:32:26Z</time>
      </trkpt>
      <trkpt lat="49.10305" lon="4.03962">
        <ele>165</ele>
        <time>2026-08-24T12:32:27Z</time>
      </trkpt>
      <trkpt lat="49.10299" lon="4.03962">
        <ele>165</ele>
        <time>2026-08-24T12:32:28Z</time>
      </trkpt>
      <trkpt lat="49.10293" lon="4.03963">
        <ele>165</ele>
        <time>2026-08-24T12:32:29Z</time>
      </trkpt>
      <trkpt lat="49.10287" lon="4.03963">
        <ele>165.2</ele>
        <time>2026-08-24T12:32:30Z</time>
      </trkpt>
      <trkpt lat="49.10281" lon="4.03964">
        <ele>165.4</ele>
        <time>2026-08-24T12:32:31Z</time>
      </trkpt>
      <trkpt lat="49.10276" lon="4.03964">
        <ele>165.8</ele>
        <time>2026-08-24T12:32:32Z</time>
      </trkpt>
      <trkpt lat="49.10271" lon="4.03964">
        <ele>166.2</ele>
        <time>2026-08-24T12:32:33Z</time>
      </trkpt>
      <trkpt lat="49.10267" lon="4.03965">
        <ele>166.6</ele>
        <time>2026-08-24T12:32:34Z</time>
      </trkpt>
      <trkpt lat="49.10262" lon="4.03966">
        <ele>167</ele>
        <time>2026-08-24T12:32:35Z</time>
      </trkpt>
      <trkpt lat="49.10258" lon="4.03966">
        <ele>167.4</ele>
        <time>2026-08-24T12:32:36Z</time>
      </trkpt>
      <trkpt lat="49.10255" lon="4.03966">
        <ele>167.8</ele>
        <time>2026-08-24T12:32:37Z</time>
      </trkpt>
      <trkpt lat="49.10251" lon="4.03967">
        <ele>168.2</ele>
        <time>2026-08-24T12:32:38Z</time>
      </trkpt>
      <trkpt lat="49.10247" lon="4.03967">
        <ele>168.6</ele>
        <time>2026-08-24T12:32:39Z</time>
      </trkpt>
      <trkpt lat="49.10244" lon="4.03968">
        <ele>169</ele>
        <time>2026-08-24T12:32:40Z</time>
      </trkpt>
      <trkpt lat="49.1024" lon="4.03968">
        <ele>169.2</ele>
        <time>2026-08-24T12:32:41Z</time>
      </trkpt>
      <trkpt lat="49.10236" lon="4.03969">
        <ele>169.4</ele>
        <time>2026-08-24T12:32:42Z</time>
      </trkpt>
      <trkpt lat="49.10232" lon="4.03969">
        <ele>169.6</ele>
        <time>2026-08-24T12:32:43Z</time>
      </trkpt>
      <trkpt lat="49.10228" lon="4.03969">
        <ele>169.8</ele>
        <time>2026-08-24T12:32:44Z</time>
      </trkpt>
      <trkpt lat="49.10224" lon="4.0397">
        <ele>170</ele>
        <time>2026-08-24T12:32:45Z</time>
      </trkpt>
      <trkpt lat="49.1022" lon="4.0397">
        <ele>170</ele>
        <time>2026-08-24T12:32:46Z</time>
      </trkpt>
      <trkpt lat="49.10215" lon="4.0397">
        <ele>170.2</ele>
        <time>2026-08-24T12:32:47Z</time>
      </trkpt>
      <trkpt lat="49.10211" lon="4.0397">
        <ele>170.2</ele>
        <time>2026-08-24T12:32:48Z</time>
      </trkpt>
      <trkpt lat="49.10206" lon="4.0397">
        <ele>170.2</ele>
        <time>2026-08-24T12:32:49Z</time>
      </trkpt>
      <trkpt lat="49.10202" lon="4.03971">
        <ele>170.2</ele>
        <time>2026-08-24T12:32:50Z</time>
      </trkpt>
      <trkpt lat="49.10197" lon="4.03971">
        <ele>170.2</ele>
        <time>2026-08-24T12:32:51Z</time>
      </trkpt>
      <trkpt lat="49.10193" lon="4.03972">
        <ele>170.4</ele>
        <time>2026-08-24T12:32:52Z</time>
      </trkpt>
      <trkpt lat="49.10188" lon="4.03972">
        <ele>170.6</ele>
        <time>2026-08-24T12:32:53Z</time>
      </trkpt>
      <trkpt lat="49.10184" lon="4.03972">
        <ele>170.8</ele>
        <time>2026-08-24T12:32:54Z</time>
      </trkpt>
      <trkpt lat="49.1018" lon="4.03973">
        <ele>171</ele>
        <time>2026-08-24T12:32:55Z</time>
      </trkpt>
      <trkpt lat="49.10177" lon="4.03973">
        <ele>171.2</ele>
        <time>2026-08-24T12:32:56Z</time>
      </trkpt>
      <trkpt lat="49.10173" lon="4.03973">
        <ele>171.6</ele>
        <time>2026-08-24T12:32:57Z</time>
      </trkpt>
      <trkpt lat="49.10169" lon="4.03974">
        <ele>171.8</ele>
        <time>2026-08-24T12:32:58Z</time>
      </trkpt>
      <trkpt lat="49.10166" lon="4.03974">
        <ele>172.2</ele>
        <time>2026-08-24T12:32:59Z</time>
      </trkpt>
      <trkpt lat="49.10162" lon="4.03974">
        <ele>172.4</ele>
        <time>2026-08-24T12:33:00Z</time>
      </trkpt>
      <trkpt lat="49.10159" lon="4.03974">
        <ele>172.6</ele>
        <time>2026-08-24T12:33:01Z</time>
      </trkpt>
      <trkpt lat="49.10155" lon="4.03974">
        <ele>172.8</ele>
        <time>2026-08-24T12:33:02Z</time>
      </trkpt>
      <trkpt lat="49.10152" lon="4.03974">
        <ele>173</ele>
        <time>2026-08-24T12:33:03Z</time>
      </trkpt>
      <trkpt lat="49.10148" lon="4.03975">
        <ele>173.2</ele>
        <time>2026-08-24T12:33:04Z</time>
      </trkpt>
      <trkpt lat="49.10145" lon="4.03975">
        <ele>173.2</ele>
        <time>2026-08-24T12:33:05Z</time>
      </trkpt>
      <trkpt lat="49.10141" lon="4.03976">
        <ele>173.4</ele>
        <time>2026-08-24T12:33:06Z</time>
      </trkpt>
      <trkpt lat="49.10138" lon="4.03976">
        <ele>173.6</ele>
        <time>2026-08-24T12:33:07Z</time>
      </trkpt>
      <trkpt lat="49.10134" lon="4.03976">
        <ele>173.6</ele>
        <time>2026-08-24T12:33:08Z</time>
      </trkpt>
      <trkpt lat="49.1013" lon="4.03977">
        <ele>173.8</ele>
        <time>2026-08-24T12:33:09Z</time>
      </trkpt>
      <trkpt lat="49.10126" lon="4.03977">
        <ele>174</ele>
        <time>2026-08-24T12:33:10Z</time>
      </trkpt>
      <trkpt lat="49.10122" lon="4.03977">
        <ele>174</ele>
        <time>2026-08-24T12:33:11Z</time>
      </trkpt>
      <trkpt lat="49.10118" lon="4.03978">
        <ele>174.2</ele>
        <time>2026-08-24T12:33:12Z</time>
      </trkpt>
      <trkpt lat="49.10115" lon="4.03978">
        <ele>174.6</ele>
        <time>2026-08-24T12:33:13Z</time>
      </trkpt>
      <trkpt lat="49.10111" lon="4.03979">
        <ele>174.8</ele>
        <time>2026-08-24T12:33:14Z</time>
      </trkpt>
      <trkpt lat="49.10107" lon="4.03979">
        <ele>175</ele>
        <time>2026-08-24T12:33:15Z</time>
      </trkpt>
      <trkpt lat="49.10103" lon="4.0398">
        <ele>175.2</ele>
        <time>2026-08-24T12:33:16Z</time>
      </trkpt>
      <trkpt lat="49.10099" lon="4.03981">
        <ele>175.2</ele>
        <time>2026-08-24T12:33:17Z</time>
      </trkpt>
      <trkpt lat="49.10094" lon="4.03981">
        <ele>175.2</ele>
        <time>2026-08-24T12:33:18Z</time>
      </trkpt>
      <trkpt lat="49.10089" lon="4.03981">
        <ele>175</ele>
        <time>2026-08-24T12:33:19Z</time>
      </trkpt>
      <trkpt lat="49.10084" lon="4.03982">
        <ele>175</ele>
        <time>2026-08-24T12:33:20Z</time>
      </trkpt>
      <trkpt lat="49.10079" lon="4.03982">
        <ele>174.8</ele>
        <time>2026-08-24T12:33:21Z</time>
      </trkpt>
      <trkpt lat="49.10074" lon="4.03982">
        <ele>174.8</ele>
        <time>2026-08-24T12:33:22Z</time>
      </trkpt>
      <trkpt lat="49.10069" lon="4.03982">
        <ele>174.6</ele>
        <time>2026-08-24T12:33:23Z</time>
      </trkpt>
      <trkpt lat="49.10063" lon="4.03983">
        <ele>174.6</ele>
        <time>2026-08-24T12:33:24Z</time>
      </trkpt>
      <trkpt lat="49.10058" lon="4.03983">
        <ele>174.6</ele>
        <time>2026-08-24T12:33:25Z</time>
      </trkpt>
      <trkpt lat="49.10052" lon="4.03984">
        <ele>174.4</ele>
        <time>2026-08-24T12:33:26Z</time>
      </trkpt>
      <trkpt lat="49.10046" lon="4.03984">
        <ele>174.4</ele>
        <time>2026-08-24T12:33:27Z</time>
      </trkpt>
      <trkpt lat="49.1004" lon="4.03984">
        <ele>174.2</ele>
        <time>2026-08-24T12:33:28Z</time>
      </trkpt>
      <trkpt lat="49.10033" lon="4.03985">
        <ele>174</ele>
        <time>2026-08-24T12:33:29Z</time>
      </trkpt>
      <trkpt lat="49.10027" lon="4.03986">
        <ele>173.8</ele>
        <time>2026-08-24T12:33:30Z</time>
      </trkpt>
      <trkpt lat="49.1002" lon="4.03986">
        <ele>173.6</ele>
        <time>2026-08-24T12:33:31Z</time>
      </trkpt>
      <trkpt lat="49.10014" lon="4.03987">
        <ele>173.6</ele>
        <time>2026-08-24T12:33:32Z</time>
      </trkpt>
      <trkpt lat="49.10007" lon="4.03987">
        <ele>173.6</ele>
        <time>2026-08-24T12:33:33Z</time>
      </trkpt>
      <trkpt lat="49.10001" lon="4.03987">
        <ele>173.6</ele>
        <time>2026-08-24T12:33:34Z</time>
      </trkpt>
      <trkpt lat="49.09994" lon="4.03987">
        <ele>173.8</ele>
        <time>2026-08-24T12:33:35Z</time>
      </trkpt>
      <trkpt lat="49.09987" lon="4.03988">
        <ele>174</ele>
        <time>2026-08-24T12:33:36Z</time>
      </trkpt>
      <trkpt lat="49.09981" lon="4.03989">
        <ele>174</ele>
        <time>2026-08-24T12:33:37Z</time>
      </trkpt>
      <trkpt lat="49.09975" lon="4.03989">
        <ele>174</ele>
        <time>2026-08-24T12:33:38Z</time>
      </trkpt>
      <trkpt lat="49.09968" lon="4.03989">
        <ele>174.2</ele>
        <time>2026-08-24T12:33:39Z</time>
      </trkpt>
      <trkpt lat="49.09961" lon="4.0399">
        <ele>174.2</ele>
        <time>2026-08-24T12:33:40Z</time>
      </trkpt>
      <trkpt lat="49.09953" lon="4.0399">
        <ele>174</ele>
        <time>2026-08-24T12:33:41Z</time>
      </trkpt>
      <trkpt lat="49.09946" lon="4.0399">
        <ele>174</ele>
        <time>2026-08-24T12:33:42Z</time>
      </trkpt>
      <trkpt lat="49.09938" lon="4.0399">
        <ele>173.8</ele>
        <time>2026-08-24T12:33:43Z</time>
      </trkpt>
      <trkpt lat="49.0993" lon="4.03991">
        <ele>173.8</ele>
        <time>2026-08-24T12:33:44Z</time>
      </trkpt>
      <trkpt lat="49.09922" lon="4.03991">
        <ele>173.4</ele>
        <time>2026-08-24T12:33:45Z</time>
      </trkpt>
      <trkpt lat="49.09914" lon="4.03991">
        <ele>173</ele>
        <time>2026-08-24T12:33:46Z</time>
      </trkpt>
      <trkpt lat="49.09906" lon="4.03992">
        <ele>173</ele>
        <time>2026-08-24T12:33:47Z</time>
      </trkpt>
      <trkpt lat="49.09898" lon="4.03993">
        <ele>172.6</ele>
        <time>2026-08-24T12:33:48Z</time>
      </trkpt>
      <trkpt lat="49.0989" lon="4.03993">
        <ele>172.6</ele>
        <time>2026-08-24T12:33:49Z</time>
      </trkpt>
      <trkpt lat="49.09882" lon="4.03995">
        <ele>172.4</ele>
        <time>2026-08-24T12:33:50Z</time>
      </trkpt>
      <trkpt lat="49.09874" lon="4.03996">
        <ele>172.4</ele>
        <time>2026-08-24T12:33:51Z</time>
      </trkpt>
      <trkpt lat="49.09866" lon="4.03997">
        <ele>172.2</ele>
        <time>2026-08-24T12:33:52Z</time>
      </trkpt>
      <trkpt lat="49.09858" lon="4.03999">
        <ele>172.2</ele>
        <time>2026-08-24T12:33:53Z</time>
      </trkpt>
      <trkpt lat="49.09849" lon="4.04001">
        <ele>172</ele>
        <time>2026-08-24T12:33:54Z</time>
      </trkpt>
      <trkpt lat="49.09841" lon="4.04003">
        <ele>171.8</ele>
        <time>2026-08-24T12:33:55Z</time>
      </trkpt>
      <trkpt lat="49.09832" lon="4.04006">
        <ele>171.6</ele>
        <time>2026-08-24T12:33:56Z</time>
      </trkpt>
      <trkpt lat="49.09824" lon="4.04008">
        <ele>171.2</ele>
        <time>2026-08-24T12:33:57Z</time>
      </trkpt>
      <trkpt lat="49.09814" lon="4.04011">
        <ele>170.6</ele>
        <time>2026-08-24T12:33:58Z</time>
      </trkpt>
      <trkpt lat="49.09805" lon="4.04013">
        <ele>170.4</ele>
        <time>2026-08-24T12:33:59Z</time>
      </trkpt>
      <trkpt lat="49.09795" lon="4.04015">
        <ele>169.8</ele>
        <time>2026-08-24T12:34:00Z</time>
      </trkpt>
      <trkpt lat="49.09785" lon="4.04017">
        <ele>169.2</ele>
        <time>2026-08-24T12:34:01Z</time>
      </trkpt>
      <trkpt lat="49.09774" lon="4.04018">
        <ele>168.6</ele>
        <time>2026-08-24T12:34:02Z</time>
      </trkpt>
      <trkpt lat="49.09763" lon="4.04019">
        <ele>168</ele>
        <time>2026-08-24T12:34:03Z</time>
      </trkpt>
      <trkpt lat="49.09752" lon="4.0402">
        <ele>167</ele>
        <time>2026-08-24T12:34:04Z</time>
      </trkpt>
      <trkpt lat="49.09741" lon="4.0402">
        <ele>166</ele>
        <time>2026-08-24T12:34:05Z</time>
      </trkpt>
      <trkpt lat="49.09729" lon="4.04021">
        <ele>165.2</ele>
        <time>2026-08-24T12:34:06Z</time>
      </trkpt>
      <trkpt lat="49.09717" lon="4.04022">
        <ele>164</ele>
        <time>2026-08-24T12:34:07Z</time>
      </trkpt>
      <trkpt lat="49.09705" lon="4.04025">
        <ele>162.8</ele>
        <time>2026-08-24T12:34:08Z</time>
      </trkpt>
      <trkpt lat="49.09693" lon="4.0403">
        <ele>161.6</ele>
        <time>2026-08-24T12:34:09Z</time>
      </trkpt>
      <trkpt lat="49.09681" lon="4.04037">
        <ele>160.4</ele>
        <time>2026-08-24T12:34:10Z</time>
      </trkpt>
      <trkpt lat="49.0967" lon="4.04044">
        <ele>159.6</ele>
        <time>2026-08-24T12:34:11Z</time>
      </trkpt>
      <trkpt lat="49.09659" lon="4.04051">
        <ele>159</ele>
        <time>2026-08-24T12:34:12Z</time>
      </trkpt>
      <trkpt lat="49.09649" lon="4.04058">
        <ele>158.4</ele>
        <time>2026-08-24T12:34:13Z</time>
      </trkpt>
      <trkpt lat="49.09639" lon="4.04065">
        <ele>158</ele>
        <time>2026-08-24T12:34:14Z</time>
      </trkpt>
      <trkpt lat="49.0963" lon="4.04073">
        <ele>157.8</ele>
        <time>2026-08-24T12:34:15Z</time>
      </trkpt>
      <trkpt lat="49.09622" lon="4.04082">
        <ele>157.8</ele>
        <time>2026-08-24T12:34:16Z</time>
      </trkpt>
      <trkpt lat="49.09614" lon="4.04092">
        <ele>157.4</ele>
        <time>2026-08-24T12:34:17Z</time>
      </trkpt>
      <trkpt lat="49.09607" lon="4.04101">
        <ele>157.6</ele>
        <time>2026-08-24T12:34:18Z</time>
      </trkpt>
      <trkpt lat="49.096" lon="4.04111">
        <ele>157.6</ele>
        <time>2026-08-24T12:34:19Z</time>
      </trkpt>
      <trkpt lat="49.09594" lon="4.04121">
        <ele>157.8</ele>
        <time>2026-08-24T12:34:20Z</time>
      </trkpt>
      <trkpt lat="49.09588" lon="4.0413">
        <ele>158.2</ele>
        <time>2026-08-24T12:34:21Z</time>
      </trkpt>
      <trkpt lat="49.09582" lon="4.04139">
        <ele>158.8</ele>
        <time>2026-08-24T12:34:22Z</time>
      </trkpt>
      <trkpt lat="49.09577" lon="4.04147">
        <ele>159.2</ele>
        <time>2026-08-24T12:34:23Z</time>
      </trkpt>
      <trkpt lat="49.09572" lon="4.04155">
        <ele>159.8</ele>
        <time>2026-08-24T12:34:24Z</time>
      </trkpt>
      <trkpt lat="49.09567" lon="4.04162">
        <ele>160.4</ele>
        <time>2026-08-24T12:34:25Z</time>
      </trkpt>
      <trkpt lat="49.09563" lon="4.04169">
        <ele>161.2</ele>
        <time>2026-08-24T12:34:26Z</time>
      </trkpt>
      <trkpt lat="49.09559" lon="4.04176">
        <ele>161.8</ele>
        <time>2026-08-24T12:34:27Z</time>
      </trkpt>
      <trkpt lat="49.09555" lon="4.04182">
        <ele>162.2</ele>
        <time>2026-08-24T12:34:28Z</time>
      </trkpt>
      <trkpt lat="49.09552" lon="4.04188">
        <ele>162.8</ele>
        <time>2026-08-24T12:34:29Z</time>
      </trkpt>
      <trkpt lat="49.09548" lon="4.04194">
        <ele>163.2</ele>
        <time>2026-08-24T12:34:30Z</time>
      </trkpt>
      <trkpt lat="49.09545" lon="4.04199">
        <ele>163.6</ele>
        <time>2026-08-24T12:34:31Z</time>
      </trkpt>
      <trkpt lat="49.09542" lon="4.04204">
        <ele>164</ele>
        <time>2026-08-24T12:34:32Z</time>
      </trkpt>
      <trkpt lat="49.09539" lon="4.04209">
        <ele>164.4</ele>
        <time>2026-08-24T12:34:33Z</time>
      </trkpt>
      <trkpt lat="49.09536" lon="4.04214">
        <ele>164.8</ele>
        <time>2026-08-24T12:34:34Z</time>
      </trkpt>
      <trkpt lat="49.09533" lon="4.04219">
        <ele>165</ele>
        <time>2026-08-24T12:34:35Z</time>
      </trkpt>
      <trkpt lat="49.0953" lon="4.04225">
        <ele>165.6</ele>
        <time>2026-08-24T12:34:36Z</time>
      </trkpt>
      <trkpt lat="49.09527" lon="4.0423">
        <ele>166</ele>
        <time>2026-08-24T12:34:37Z</time>
      </trkpt>
      <trkpt lat="49.09525" lon="4.04235">
        <ele>166.4</ele>
        <time>2026-08-24T12:34:38Z</time>
      </trkpt>
      <trkpt lat="49.09522" lon="4.04241">
        <ele>166.6</ele>
        <time>2026-08-24T12:34:39Z</time>
      </trkpt>
      <trkpt lat="49.09519" lon="4.04247">
        <ele>167</ele>
        <time>2026-08-24T12:34:40Z</time>
      </trkpt>
      <trkpt lat="49.09516" lon="4.04253">
        <ele>167.2</ele>
        <time>2026-08-24T12:34:41Z</time>
      </trkpt>
      <trkpt lat="49.09514" lon="4.04258">
        <ele>167.2</ele>
        <time>2026-08-24T12:34:42Z</time>
      </trkpt>
      <trkpt lat="49.09511" lon="4.04264">
        <ele>167.4</ele>
        <time>2026-08-24T12:34:43Z</time>
      </trkpt>
      <trkpt lat="49.09508" lon="4.04269">
        <ele>167.6</ele>
        <time>2026-08-24T12:34:44Z</time>
      </trkpt>
      <trkpt lat="49.09506" lon="4.04275">
        <ele>167.6</ele>
        <time>2026-08-24T12:34:45Z</time>
      </trkpt>
      <trkpt lat="49.09503" lon="4.04281">
        <ele>167.6</ele>
        <time>2026-08-24T12:34:46Z</time>
      </trkpt>
      <trkpt lat="49.095" lon="4.04286">
        <ele>167.8</ele>
        <time>2026-08-24T12:34:47Z</time>
      </trkpt>
      <trkpt lat="49.09497" lon="4.04292">
        <ele>168.2</ele>
        <time>2026-08-24T12:34:48Z</time>
      </trkpt>
      <trkpt lat="49.09494" lon="4.04298">
        <ele>168.4</ele>
        <time>2026-08-24T12:34:49Z</time>
      </trkpt>
      <trkpt lat="49.0949" lon="4.04305">
        <ele>168.4</ele>
        <time>2026-08-24T12:34:50Z</time>
      </trkpt>
      <trkpt lat="49.09487" lon="4.04311">
        <ele>168.6</ele>
        <time>2026-08-24T12:34:51Z</time>
      </trkpt>
      <trkpt lat="49.09483" lon="4.04318">
        <ele>168.6</ele>
        <time>2026-08-24T12:34:52Z</time>
      </trkpt>
      <trkpt lat="49.09478" lon="4.04325">
        <ele>168.4</ele>
        <time>2026-08-24T12:34:53Z</time>
      </trkpt>
      <trkpt lat="49.09474" lon="4.04332">
        <ele>168</ele>
        <time>2026-08-24T12:34:54Z</time>
      </trkpt>
      <trkpt lat="49.09468" lon="4.04339">
        <ele>167.8</ele>
        <time>2026-08-24T12:34:55Z</time>
      </trkpt>
      <trkpt lat="49.09463" lon="4.04346">
        <ele>167.2</ele>
        <time>2026-08-24T12:34:56Z</time>
      </trkpt>
      <trkpt lat="49.09457" lon="4.04354">
        <ele>166.4</ele>
        <time>2026-08-24T12:34:57Z</time>
      </trkpt>
      <trkpt lat="49.09451" lon="4.04362">
        <ele>165.4</ele>
        <time>2026-08-24T12:34:58Z</time>
      </trkpt>
      <trkpt lat="49.09444" lon="4.0437">
        <ele>164.6</ele>
        <time>2026-08-24T12:34:59Z</time>
      </trkpt>
      <trkpt lat="49.09437" lon="4.04379">
        <ele>164</ele>
        <time>2026-08-24T12:35:00Z</time>
      </trkpt>
      <trkpt lat="49.09429" lon="4.04388">
        <ele>163.2</ele>
        <time>2026-08-24T12:35:01Z</time>
      </trkpt>
      <trkpt lat="49.09422" lon="4.04397">
        <ele>163</ele>
        <time>2026-08-24T12:35:02Z</time>
      </trkpt>
      <trkpt lat="49.09416" lon="4.04407">
        <ele>162.4</ele>
        <time>2026-08-24T12:35:03Z</time>
      </trkpt>
      <trkpt lat="49.09409" lon="4.04417">
        <ele>161.4</ele>
        <time>2026-08-24T12:35:04Z</time>
      </trkpt>
      <trkpt lat="49.09401" lon="4.04427">
        <ele>160.4</ele>
        <time>2026-08-24T12:35:05Z</time>
      </trkpt>
      <trkpt lat="49.09394" lon="4.04438">
        <ele>159.2</ele>
        <time>2026-08-24T12:35:06Z</time>
      </trkpt>
      <trkpt lat="49.09386" lon="4.04448">
        <ele>158.6</ele>
        <time>2026-08-24T12:35:07Z</time>
      </trkpt>
      <trkpt lat="49.09378" lon="4.04459">
        <ele>157.6</ele>
        <time>2026-08-24T12:35:08Z</time>
      </trkpt>
      <trkpt lat="49.0937" lon="4.0447">
        <ele>156.8</ele>
        <time>2026-08-24T12:35:09Z</time>
      </trkpt>
      <trkpt lat="49.0936" lon="4.0448">
        <ele>156</ele>
        <time>2026-08-24T12:35:10Z</time>
      </trkpt>
      <trkpt lat="49.09349" lon="4.04489">
        <ele>154.8</ele>
        <time>2026-08-24T12:35:11Z</time>
      </trkpt>
      <trkpt lat="49.09338" lon="4.04497">
        <ele>153.4</ele>
        <time>2026-08-24T12:35:12Z</time>
      </trkpt>
      <trkpt lat="49.09326" lon="4.04504">
        <ele>152</ele>
        <time>2026-08-24T12:35:13Z</time>
      </trkpt>
      <trkpt lat="49.09315" lon="4.0451">
        <ele>151.2</ele>
        <time>2026-08-24T12:35:14Z</time>
      </trkpt>
      <trkpt lat="49.09303" lon="4.04516">
        <ele>150.4</ele>
        <time>2026-08-24T12:35:15Z</time>
      </trkpt>
      <trkpt lat="49.09292" lon="4.04523">
        <ele>149.8</ele>
        <time>2026-08-24T12:35:16Z</time>
      </trkpt>
      <trkpt lat="49.09281" lon="4.04529">
        <ele>149</ele>
        <time>2026-08-24T12:35:17Z</time>
      </trkpt>
      <trkpt lat="49.0927" lon="4.04535">
        <ele>148.6</ele>
        <time>2026-08-24T12:35:18Z</time>
      </trkpt>
      <trkpt lat="49.0926" lon="4.04541">
        <ele>148</ele>
        <time>2026-08-24T12:35:19Z</time>
      </trkpt>
      <trkpt lat="49.0925" lon="4.04547">
        <ele>147.6</ele>
        <time>2026-08-24T12:35:20Z</time>
      </trkpt>
      <trkpt lat="49.09241" lon="4.04553">
        <ele>148</ele>
        <time>2026-08-24T12:35:21Z</time>
      </trkpt>
      <trkpt lat="49.09233" lon="4.04558">
        <ele>148.2</ele>
        <time>2026-08-24T12:35:22Z</time>
      </trkpt>
      <trkpt lat="49.09225" lon="4.04564">
        <ele>148.2</ele>
        <time>2026-08-24T12:35:23Z</time>
      </trkpt>
      <trkpt lat="49.09217" lon="4.0457">
        <ele>148.4</ele>
        <time>2026-08-24T12:35:24Z</time>
      </trkpt>
      <trkpt lat="49.0921" lon="4.04577">
        <ele>148.6</ele>
        <time>2026-08-24T12:35:25Z</time>
      </trkpt>
      <trkpt lat="49.09202" lon="4.04583">
        <ele>148.6</ele>
        <time>2026-08-24T12:35:26Z</time>
      </trkpt>
      <trkpt lat="49.09195" lon="4.0459">
        <ele>148.8</ele>
        <time>2026-08-24T12:35:27Z</time>
      </trkpt>
      <trkpt lat="49.09189" lon="4.04597">
        <ele>149</ele>
        <time>2026-08-24T12:35:28Z</time>
      </trkpt>
      <trkpt lat="49.09182" lon="4.04604">
        <ele>149.6</ele>
        <time>2026-08-24T12:35:29Z</time>
      </trkpt>
      <trkpt lat="49.09176" lon="4.04611">
        <ele>150.2</ele>
        <time>2026-08-24T12:35:30Z</time>
      </trkpt>
      <trkpt lat="49.0917" lon="4.04617">
        <ele>150.8</ele>
        <time>2026-08-24T12:35:31Z</time>
      </trkpt>
      <trkpt lat="49.09165" lon="4.04624">
        <ele>151.4</ele>
        <time>2026-08-24T12:35:32Z</time>
      </trkpt>
      <trkpt lat="49.0916" lon="4.0463">
        <ele>151.6</ele>
        <time>2026-08-24T12:35:33Z</time>
      </trkpt>
      <trkpt lat="49.09155" lon="4.04636">
        <ele>152.6</ele>
        <time>2026-08-24T12:35:34Z</time>
      </trkpt>
      <trkpt lat="49.09151" lon="4.04641">
        <ele>153</ele>
        <time>2026-08-24T12:35:35Z</time>
      </trkpt>
      <trkpt lat="49.09147" lon="4.04646">
        <ele>153.8</ele>
        <time>2026-08-24T12:35:36Z</time>
      </trkpt>
      <trkpt lat="49.09143" lon="4.04652">
        <ele>154.4</ele>
        <time>2026-08-24T12:35:37Z</time>
      </trkpt>
      <trkpt lat="49.09139" lon="4.04657">
        <ele>154.8</ele>
        <time>2026-08-24T12:35:38Z</time>
      </trkpt>
      <trkpt lat="49.09135" lon="4.04662">
        <ele>155</ele>
        <time>2026-08-24T12:35:39Z</time>
      </trkpt>
      <trkpt lat="49.09131" lon="4.04667">
        <ele>155.6</ele>
        <time>2026-08-24T12:35:40Z</time>
      </trkpt>
      <trkpt lat="49.09127" lon="4.04672">
        <ele>156</ele>
        <time>2026-08-24T12:35:41Z</time>
      </trkpt>
      <trkpt lat="49.09123" lon="4.04677">
        <ele>156.4</ele>
        <time>2026-08-24T12:35:42Z</time>
      </trkpt>
      <trkpt lat="49.09119" lon="4.04681">
        <ele>156.6</ele>
        <time>2026-08-24T12:35:43Z</time>
      </trkpt>
      <trkpt lat="49.09116" lon="4.04686">
        <ele>157</ele>
        <time>2026-08-24T12:35:44Z</time>
      </trkpt>
      <trkpt lat="49.09112" lon="4.04691">
        <ele>157.4</ele>
        <time>2026-08-24T12:35:45Z</time>
      </trkpt>
      <trkpt lat="49.09109" lon="4.04695">
        <ele>157.6</ele>
        <time>2026-08-24T12:35:46Z</time>
      </trkpt>
      <trkpt lat="49.09105" lon="4.04699">
        <ele>157.6</ele>
        <time>2026-08-24T12:35:47Z</time>
      </trkpt>
      <trkpt lat="49.09102" lon="4.04704">
        <ele>158</ele>
        <time>2026-08-24T12:35:48Z</time>
      </trkpt>
      <trkpt lat="49.09099" lon="4.04708">
        <ele>158.4</ele>
        <time>2026-08-24T12:35:49Z</time>
      </trkpt>
      <trkpt lat="49.09096" lon="4.04712">
        <ele>158.8</ele>
        <time>2026-08-24T12:35:50Z</time>
      </trkpt>
      <trkpt lat="49.09093" lon="4.04716">
        <ele>159.4</ele>
        <time>2026-08-24T12:35:51Z</time>
      </trkpt>
      <trkpt lat="49.09091" lon="4.04719">
        <ele>159.6</ele>
        <time>2026-08-24T12:35:52Z</time>
      </trkpt>
      <trkpt lat="49.09089" lon="4.04722">
        <ele>159.8</ele>
        <time>2026-08-24T12:35:53Z</time>
      </trkpt>
      <trkpt lat="49.09086" lon="4.04725">
        <ele>160</ele>
        <time>2026-08-24T12:35:54Z</time>
      </trkpt>
      <trkpt lat="49.09084" lon="4.04728">
        <ele>160.2</ele>
        <time>2026-08-24T12:35:55Z</time>
      </trkpt>
      <trkpt lat="49.09082" lon="4.04731">
        <ele>160.2</ele>
        <time>2026-08-24T12:35:56Z</time>
      </trkpt>
      <trkpt lat="49.0908" lon="4.04735">
        <ele>160.6</ele>
        <time>2026-08-24T12:35:57Z</time>
      </trkpt>
      <trkpt lat="49.09076" lon="4.04738">
        <ele>161</ele>
        <time>2026-08-24T12:35:58Z</time>
      </trkpt>
      <trkpt lat="49.09072" lon="4.04742">
        <ele>161.2</ele>
        <time>2026-08-24T12:35:59Z</time>
      </trkpt>
      <trkpt lat="49.09068" lon="4.04746">
        <ele>161.4</ele>
        <time>2026-08-24T12:36:00Z</time>
      </trkpt>
      <trkpt lat="49.09065" lon="4.04749">
        <ele>161.4</ele>
        <time>2026-08-24T12:36:01Z</time>
      </trkpt>
      <trkpt lat="49.0906" lon="4.04751">
        <ele>161.4</ele>
        <time>2026-08-24T12:36:02Z</time>
      </trkpt>
      <trkpt lat="49.09054" lon="4.04755">
        <ele>161.2</ele>
        <time>2026-08-24T12:36:03Z</time>
      </trkpt>
      <trkpt lat="49.09048" lon="4.04758">
        <ele>161</ele>
        <time>2026-08-24T12:36:04Z</time>
      </trkpt>
      <trkpt lat="49.09042" lon="4.04762">
        <ele>160.8</ele>
        <time>2026-08-24T12:36:05Z</time>
      </trkpt>
      <trkpt lat="49.09035" lon="4.04766">
        <ele>160.6</ele>
        <time>2026-08-24T12:36:06Z</time>
      </trkpt>
      <trkpt lat="49.09028" lon="4.0477">
        <ele>160.4</ele>
        <time>2026-08-24T12:36:07Z</time>
      </trkpt>
      <trkpt lat="49.09021" lon="4.04773">
        <ele>160</ele>
        <time>2026-08-24T12:36:08Z</time>
      </trkpt>
      <trkpt lat="49.09014" lon="4.04777">
        <ele>159.6</ele>
        <time>2026-08-24T12:36:09Z</time>
      </trkpt>
      <trkpt lat="49.09007" lon="4.04781">
        <ele>159.4</ele>
        <time>2026-08-24T12:36:10Z</time>
      </trkpt>
      <trkpt lat="49.09" lon="4.04785">
        <ele>158.8</ele>
        <time>2026-08-24T12:36:11Z</time>
      </trkpt>
      <trkpt lat="49.08992" lon="4.04788">
        <ele>158.4</ele>
        <time>2026-08-24T12:36:12Z</time>
      </trkpt>
      <trkpt lat="49.08985" lon="4.04791">
        <ele>158</ele>
        <time>2026-08-24T12:36:13Z</time>
      </trkpt>
      <trkpt lat="49.08977" lon="4.04794">
        <ele>157.6</ele>
        <time>2026-08-24T12:36:14Z</time>
      </trkpt>
      <trkpt lat="49.0897" lon="4.04797">
        <ele>157.4</ele>
        <time>2026-08-24T12:36:15Z</time>
      </trkpt>
      <trkpt lat="49.08963" lon="4.04799">
        <ele>157.4</ele>
        <time>2026-08-24T12:36:16Z</time>
      </trkpt>
      <trkpt lat="49.08956" lon="4.04801">
        <ele>157.4</ele>
        <time>2026-08-24T12:36:17Z</time>
      </trkpt>
      <trkpt lat="49.08949" lon="4.04803">
        <ele>157.6</ele>
        <time>2026-08-24T12:36:18Z</time>
      </trkpt>
      <trkpt lat="49.08943" lon="4.04805">
        <ele>157.6</ele>
        <time>2026-08-24T12:36:19Z</time>
      </trkpt>
      <trkpt lat="49.08935" lon="4.04807">
        <ele>158</ele>
        <time>2026-08-24T12:36:20Z</time>
      </trkpt>
      <trkpt lat="49.08929" lon="4.04808">
        <ele>158.2</ele>
        <time>2026-08-24T12:36:21Z</time>
      </trkpt>
      <trkpt lat="49.08923" lon="4.04809">
        <ele>158</ele>
        <time>2026-08-24T12:36:22Z</time>
      </trkpt>
      <trkpt lat="49.08916" lon="4.04811">
        <ele>158</ele>
        <time>2026-08-24T12:36:23Z</time>
      </trkpt>
      <trkpt lat="49.0891" lon="4.04812">
        <ele>158</ele>
        <time>2026-08-24T12:36:24Z</time>
      </trkpt>
      <trkpt lat="49.08904" lon="4.04813">
        <ele>157.8</ele>
        <time>2026-08-24T12:36:25Z</time>
      </trkpt>
      <trkpt lat="49.08898" lon="4.04814">
        <ele>157.8</ele>
        <time>2026-08-24T12:36:26Z</time>
      </trkpt>
      <trkpt lat="49.08892" lon="4.04816">
        <ele>157.8</ele>
        <time>2026-08-24T12:36:27Z</time>
      </trkpt>
      <trkpt lat="49.08885" lon="4.04817">
        <ele>158</ele>
        <time>2026-08-24T12:36:28Z</time>
      </trkpt>
      <trkpt lat="49.08878" lon="4.04818">
        <ele>158</ele>
        <time>2026-08-24T12:36:29Z</time>
      </trkpt>
      <trkpt lat="49.08872" lon="4.04819">
        <ele>158.2</ele>
        <time>2026-08-24T12:36:30Z</time>
      </trkpt>
      <trkpt lat="49.08865" lon="4.04821">
        <ele>158.4</ele>
        <time>2026-08-24T12:36:31Z</time>
      </trkpt>
      <trkpt lat="49.08857" lon="4.04822">
        <ele>158.2</ele>
        <time>2026-08-24T12:36:32Z</time>
      </trkpt>
      <trkpt lat="49.0885" lon="4.04823">
        <ele>158.2</ele>
        <time>2026-08-24T12:36:33Z</time>
      </trkpt>
      <trkpt lat="49.08842" lon="4.04824">
        <ele>158.2</ele>
        <time>2026-08-24T12:36:34Z</time>
      </trkpt>
      <trkpt lat="49.08835" lon="4.04825">
        <ele>158.2</ele>
        <time>2026-08-24T12:36:35Z</time>
      </trkpt>
      <trkpt lat="49.08827" lon="4.04826">
        <ele>157.8</ele>
        <time>2026-08-24T12:36:36Z</time>
      </trkpt>
      <trkpt lat="49.0882" lon="4.04826">
        <ele>157.8</ele>
        <time>2026-08-24T12:36:37Z</time>
      </trkpt>
      <trkpt lat="49.08813" lon="4.04827">
        <ele>157.8</ele>
        <time>2026-08-24T12:36:38Z</time>
      </trkpt>
      <trkpt lat="49.08805" lon="4.04828">
        <ele>157.4</ele>
        <time>2026-08-24T12:36:39Z</time>
      </trkpt>
      <trkpt lat="49.08798" lon="4.04828">
        <ele>157.4</ele>
        <time>2026-08-24T12:36:40Z</time>
      </trkpt>
      <trkpt lat="49.08791" lon="4.04829">
        <ele>157.4</ele>
        <time>2026-08-24T12:36:41Z</time>
      </trkpt>
      <trkpt lat="49.08784" lon="4.04829">
        <ele>157.2</ele>
        <time>2026-08-24T12:36:42Z</time>
      </trkpt>
      <trkpt lat="49.08776" lon="4.04829">
        <ele>157</ele>
        <time>2026-08-24T12:36:43Z</time>
      </trkpt>
      <trkpt lat="49.08768" lon="4.04828">
        <ele>156.8</ele>
        <time>2026-08-24T12:36:44Z</time>
      </trkpt>
      <trkpt lat="49.08761" lon="4.04828">
        <ele>156.4</ele>
        <time>2026-08-24T12:36:45Z</time>
      </trkpt>
      <trkpt lat="49.08753" lon="4.04827">
        <ele>156.4</ele>
        <time>2026-08-24T12:36:46Z</time>
      </trkpt>
      <trkpt lat="49.08745" lon="4.04825">
        <ele>156.2</ele>
        <time>2026-08-24T12:36:47Z</time>
      </trkpt>
      <trkpt lat="49.08737" lon="4.04824">
        <ele>156.2</ele>
        <time>2026-08-24T12:36:48Z</time>
      </trkpt>
      <trkpt lat="49.08729" lon="4.04822">
        <ele>156.2</ele>
        <time>2026-08-24T12:36:49Z</time>
      </trkpt>
      <trkpt lat="49.08722" lon="4.04821">
        <ele>156.2</ele>
        <time>2026-08-24T12:36:50Z</time>
      </trkpt>
      <trkpt lat="49.08714" lon="4.0482">
        <ele>156.2</ele>
        <time>2026-08-24T12:36:51Z</time>
      </trkpt>
      <trkpt lat="49.08706" lon="4.04819">
        <ele>156.2</ele>
        <time>2026-08-24T12:36:52Z</time>
      </trkpt>
      <trkpt lat="49.08698" lon="4.04819">
        <ele>156</ele>
        <time>2026-08-24T12:36:53Z</time>
      </trkpt>
      <trkpt lat="49.0869" lon="4.0482">
        <ele>156</ele>
        <time>2026-08-24T12:36:54Z</time>
      </trkpt>
      <trkpt lat="49.08682" lon="4.04821">
        <ele>156</ele>
        <time>2026-08-24T12:36:55Z</time>
      </trkpt>
      <trkpt lat="49.08675" lon="4.04823">
        <ele>155.6</ele>
        <time>2026-08-24T12:36:56Z</time>
      </trkpt>
      <trkpt lat="49.08667" lon="4.04826">
        <ele>155.6</ele>
        <time>2026-08-24T12:36:57Z</time>
      </trkpt>
      <trkpt lat="49.0866" lon="4.0483">
        <ele>155.6</ele>
        <time>2026-08-24T12:36:58Z</time>
      </trkpt>
      <trkpt lat="49.08653" lon="4.04833">
        <ele>155.6</ele>
        <time>2026-08-24T12:36:59Z</time>
      </trkpt>
      <trkpt lat="49.08645" lon="4.04837">
        <ele>155.6</ele>
        <time>2026-08-24T12:37:00Z</time>
      </trkpt>
      <trkpt lat="49.08638" lon="4.04841">
        <ele>155.6</ele>
        <time>2026-08-24T12:37:01Z</time>
      </trkpt>
      <trkpt lat="49.08631" lon="4.04845">
        <ele>155.4</ele>
        <time>2026-08-24T12:37:02Z</time>
      </trkpt>
      <trkpt lat="49.08625" lon="4.04848">
        <ele>155.4</ele>
        <time>2026-08-24T12:37:03Z</time>
      </trkpt>
      <trkpt lat="49.08618" lon="4.04851">
        <ele>155.4</ele>
        <time>2026-08-24T12:37:04Z</time>
      </trkpt>
      <trkpt lat="49.08611" lon="4.04854">
        <ele>155.4</ele>
        <time>2026-08-24T12:37:05Z</time>
      </trkpt>
      <trkpt lat="49.08605" lon="4.04856">
        <ele>155.4</ele>
        <time>2026-08-24T12:37:06Z</time>
      </trkpt>
      <trkpt lat="49.08598" lon="4.04858">
        <ele>155.6</ele>
        <time>2026-08-24T12:37:07Z</time>
      </trkpt>
      <trkpt lat="49.08591" lon="4.04859">
        <ele>156</ele>
        <time>2026-08-24T12:37:08Z</time>
      </trkpt>
      <trkpt lat="49.08585" lon="4.0486">
        <ele>156.4</ele>
        <time>2026-08-24T12:37:09Z</time>
      </trkpt>
      <trkpt lat="49.08578" lon="4.0486">
        <ele>156.4</ele>
        <time>2026-08-24T12:37:10Z</time>
      </trkpt>
      <trkpt lat="49.08571" lon="4.04859">
        <ele>156.4</ele>
        <time>2026-08-24T12:37:11Z</time>
      </trkpt>
      <trkpt lat="49.08564" lon="4.04858">
        <ele>156.4</ele>
        <time>2026-08-24T12:37:12Z</time>
      </trkpt>
      <trkpt lat="49.08556" lon="4.04856">
        <ele>156.2</ele>
        <time>2026-08-24T12:37:13Z</time>
      </trkpt>
      <trkpt lat="49.08548" lon="4.04855">
        <ele>156</ele>
        <time>2026-08-24T12:37:14Z</time>
      </trkpt>
      <trkpt lat="49.0854" lon="4.04853">
        <ele>155.6</ele>
        <time>2026-08-24T12:37:15Z</time>
      </trkpt>
      <trkpt lat="49.08532" lon="4.04851">
        <ele>155.2</ele>
        <time>2026-08-24T12:37:16Z</time>
      </trkpt>
      <trkpt lat="49.08523" lon="4.04848">
        <ele>154.8</ele>
        <time>2026-08-24T12:37:17Z</time>
      </trkpt>
      <trkpt lat="49.08514" lon="4.04845">
        <ele>154.2</ele>
        <time>2026-08-24T12:37:18Z</time>
      </trkpt>
      <trkpt lat="49.08504" lon="4.04842">
        <ele>153.6</ele>
        <time>2026-08-24T12:37:19Z</time>
      </trkpt>
      <trkpt lat="49.08495" lon="4.04839">
        <ele>153.4</ele>
        <time>2026-08-24T12:37:20Z</time>
      </trkpt>
      <trkpt lat="49.08485" lon="4.04835">
        <ele>152.6</ele>
        <time>2026-08-24T12:37:21Z</time>
      </trkpt>
      <trkpt lat="49.08474" lon="4.04832">
        <ele>152</ele>
        <time>2026-08-24T12:37:22Z</time>
      </trkpt>
      <trkpt lat="49.08464" lon="4.04828">
        <ele>151.4</ele>
        <time>2026-08-24T12:37:23Z</time>
      </trkpt>
      <trkpt lat="49.08453" lon="4.04824">
        <ele>150.6</ele>
        <time>2026-08-24T12:37:24Z</time>
      </trkpt>
      <trkpt lat="49.08442" lon="4.0482">
        <ele>149.4</ele>
        <time>2026-08-24T12:37:25Z</time>
      </trkpt>
      <trkpt lat="49.0843" lon="4.04816">
        <ele>148.6</ele>
        <time>2026-08-24T12:37:26Z</time>
      </trkpt>
      <trkpt lat="49.08419" lon="4.04812">
        <ele>147.8</ele>
        <time>2026-08-24T12:37:27Z</time>
      </trkpt>
      <trkpt lat="49.08407" lon="4.04808">
        <ele>147</ele>
        <time>2026-08-24T12:37:28Z</time>
      </trkpt>
      <trkpt lat="49.08395" lon="4.04805">
        <ele>145.8</ele>
        <time>2026-08-24T12:37:29Z</time>
      </trkpt>
      <trkpt lat="49.08383" lon="4.04803">
        <ele>144.8</ele>
        <time>2026-08-24T12:37:30Z</time>
      </trkpt>
      <trkpt lat="49.08371" lon="4.04801">
        <ele>144.2</ele>
        <time>2026-08-24T12:37:31Z</time>
      </trkpt>
      <trkpt lat="49.0836" lon="4.04799">
        <ele>143.8</ele>
        <time>2026-08-24T12:37:32Z</time>
      </trkpt>
      <trkpt lat="49.08347" lon="4.04798">
        <ele>143</ele>
        <time>2026-08-24T12:37:33Z</time>
      </trkpt>
      <trkpt lat="49.08335" lon="4.04796">
        <ele>142.4</ele>
        <time>2026-08-24T12:37:34Z</time>
      </trkpt>
      <trkpt lat="49.08323" lon="4.04795">
        <ele>142.2</ele>
        <time>2026-08-24T12:37:35Z</time>
      </trkpt>
      <trkpt lat="49.0831" lon="4.04793">
        <ele>141.6</ele>
        <time>2026-08-24T12:37:36Z</time>
      </trkpt>
      <trkpt lat="49.08297" lon="4.04792">
        <ele>140.6</ele>
        <time>2026-08-24T12:37:37Z</time>
      </trkpt>
      <trkpt lat="49.08284" lon="4.0479">
        <ele>140</ele>
        <time>2026-08-24T12:37:38Z</time>
      </trkpt>
      <trkpt lat="49.08271" lon="4.04787">
        <ele>139</ele>
        <time>2026-08-24T12:37:39Z</time>
      </trkpt>
      <trkpt lat="49.08257" lon="4.04785">
        <ele>137.6</ele>
        <time>2026-08-24T12:37:40Z</time>
      </trkpt>
      <trkpt lat="49.08243" lon="4.04782">
        <ele>136.6</ele>
        <time>2026-08-24T12:37:41Z</time>
      </trkpt>
      <trkpt lat="49.08229" lon="4.0478">
        <ele>135.2</ele>
        <time>2026-08-24T12:37:42Z</time>
      </trkpt>
      <trkpt lat="49.08215" lon="4.04777">
        <ele>133.6</ele>
        <time>2026-08-24T12:37:43Z</time>
      </trkpt>
      <trkpt lat="49.08201" lon="4.04774">
        <ele>132.8</ele>
        <time>2026-08-24T12:37:44Z</time>
      </trkpt>
      <trkpt lat="49.08187" lon="4.04771">
        <ele>131.6</ele>
        <time>2026-08-24T12:37:45Z</time>
      </trkpt>
      <trkpt lat="49.08173" lon="4.04767">
        <ele>130.6</ele>
        <time>2026-08-24T12:37:46Z</time>
      </trkpt>
      <trkpt lat="49.08159" lon="4.04763">
        <ele>129.4</ele>
        <time>2026-08-24T12:37:47Z</time>
      </trkpt>
      <trkpt lat="49.08145" lon="4.04759">
        <ele>128.2</ele>
        <time>2026-08-24T12:37:48Z</time>
      </trkpt>
      <trkpt lat="49.08131" lon="4.04754">
        <ele>127.2</ele>
        <time>2026-08-24T12:37:49Z</time>
      </trkpt>
      <trkpt lat="49.08117" lon="4.04749">
        <ele>126.2</ele>
        <time>2026-08-24T12:37:50Z</time>
      </trkpt>
      <trkpt lat="49.08104" lon="4.04744">
        <ele>125.4</ele>
        <time>2026-08-24T12:37:51Z</time>
      </trkpt>
      <trkpt lat="49.08091" lon="4.04738">
        <ele>124.8</ele>
        <time>2026-08-24T12:37:52Z</time>
      </trkpt>
      <trkpt lat="49.08077" lon="4.04731">
        <ele>124.2</ele>
        <time>2026-08-24T12:37:53Z</time>
      </trkpt>
      <trkpt lat="49.08065" lon="4.04722">
        <ele>123.8</ele>
        <time>2026-08-24T12:37:54Z</time>
      </trkpt>
      <trkpt lat="49.08053" lon="4.04712">
        <ele>123.2</ele>
        <time>2026-08-24T12:37:55Z</time>
      </trkpt>
      <trkpt lat="49.08041" lon="4.047">
        <ele>122.6</ele>
        <time>2026-08-24T12:37:56Z</time>
      </trkpt>
      <trkpt lat="49.0803" lon="4.04688">
        <ele>121.8</ele>
        <time>2026-08-24T12:37:57Z</time>
      </trkpt>
      <trkpt lat="49.08019" lon="4.04675">
        <ele>121</ele>
        <time>2026-08-24T12:37:58Z</time>
      </trkpt>
      <trkpt lat="49.08008" lon="4.04663">
        <ele>120</ele>
        <time>2026-08-24T12:37:59Z</time>
      </trkpt>
      <trkpt lat="49.07997" lon="4.0465">
        <ele>119.2</ele>
        <time>2026-08-24T12:38:00Z</time>
      </trkpt>
      <trkpt lat="49.07987" lon="4.04637">
        <ele>118.4</ele>
        <time>2026-08-24T12:38:01Z</time>
      </trkpt>
      <trkpt lat="49.07976" lon="4.04623">
        <ele>117.6</ele>
        <time>2026-08-24T12:38:02Z</time>
      </trkpt>
      <trkpt lat="49.07965" lon="4.0461">
        <ele>117</ele>
        <time>2026-08-24T12:38:03Z</time>
      </trkpt>
      <trkpt lat="49.07955" lon="4.04597">
        <ele>116.6</ele>
        <time>2026-08-24T12:38:04Z</time>
      </trkpt>
      <trkpt lat="49.07944" lon="4.04583">
        <ele>115.8</ele>
        <time>2026-08-24T12:38:05Z</time>
      </trkpt>
      <trkpt lat="49.07933" lon="4.0457">
        <ele>114.8</ele>
        <time>2026-08-24T12:38:06Z</time>
      </trkpt>
      <trkpt lat="49.07923" lon="4.04557">
        <ele>114.2</ele>
        <time>2026-08-24T12:38:07Z</time>
      </trkpt>
      <trkpt lat="49.07912" lon="4.04544">
        <ele>113.6</ele>
        <time>2026-08-24T12:38:08Z</time>
      </trkpt>
      <trkpt lat="49.07902" lon="4.04532">
        <ele>113</ele>
        <time>2026-08-24T12:38:09Z</time>
      </trkpt>
      <trkpt lat="49.07893" lon="4.04519">
        <ele>112.6</ele>
        <time>2026-08-24T12:38:10Z</time>
      </trkpt>
      <trkpt lat="49.07883" lon="4.04507">
        <ele>112</ele>
        <time>2026-08-24T12:38:11Z</time>
      </trkpt>
      <trkpt lat="49.07873" lon="4.04495">
        <ele>111.2</ele>
        <time>2026-08-24T12:38:12Z</time>
      </trkpt>
      <trkpt lat="49.07863" lon="4.04483">
        <ele>110.4</ele>
        <time>2026-08-24T12:38:13Z</time>
      </trkpt>
      <trkpt lat="49.07853" lon="4.04471">
        <ele>109.6</ele>
        <time>2026-08-24T12:38:14Z</time>
      </trkpt>
      <trkpt lat="49.07844" lon="4.04459">
        <ele>109</ele>
        <time>2026-08-24T12:38:15Z</time>
      </trkpt>
      <trkpt lat="49.07834" lon="4.04447">
        <ele>108.4</ele>
        <time>2026-08-24T12:38:16Z</time>
      </trkpt>
      <trkpt lat="49.07824" lon="4.04436">
        <ele>107.6</ele>
        <time>2026-08-24T12:38:17Z</time>
      </trkpt>
      <trkpt lat="49.07814" lon="4.04426">
        <ele>107</ele>
        <time>2026-08-24T12:38:18Z</time>
      </trkpt>
      <trkpt lat="49.07803" lon="4.04419">
        <ele>106.4</ele>
        <time>2026-08-24T12:38:19Z</time>
      </trkpt>
      <trkpt lat="49.07791" lon="4.04414">
        <ele>105.8</ele>
        <time>2026-08-24T12:38:20Z</time>
      </trkpt>
      <trkpt lat="49.07779" lon="4.04412">
        <ele>105.2</ele>
        <time>2026-08-24T12:38:21Z</time>
      </trkpt>
      <trkpt lat="49.07768" lon="4.04414">
        <ele>104.8</ele>
        <time>2026-08-24T12:38:22Z</time>
      </trkpt>
      <trkpt lat="49.07758" lon="4.04418">
        <ele>104.8</ele>
        <time>2026-08-24T12:38:23Z</time>
      </trkpt>
      <trkpt lat="49.07748" lon="4.04425">
        <ele>104.6</ele>
        <time>2026-08-24T12:38:24Z</time>
      </trkpt>
      <trkpt lat="49.0774" lon="4.04433">
        <ele>104.8</ele>
        <time>2026-08-24T12:38:25Z</time>
      </trkpt>
      <trkpt lat="49.07732" lon="4.04442">
        <ele>105.2</ele>
        <time>2026-08-24T12:38:26Z</time>
      </trkpt>
      <trkpt lat="49.07726" lon="4.04451">
        <ele>105.6</ele>
        <time>2026-08-24T12:38:27Z</time>
      </trkpt>
      <trkpt lat="49.0772" lon="4.04461">
        <ele>106</ele>
        <time>2026-08-24T12:38:28Z</time>
      </trkpt>
      <trkpt lat="49.07714" lon="4.0447">
        <ele>106.6</ele>
        <time>2026-08-24T12:38:29Z</time>
      </trkpt>
      <trkpt lat="49.07708" lon="4.04479">
        <ele>107.2</ele>
        <time>2026-08-24T12:38:30Z</time>
      </trkpt>
      <trkpt lat="49.07702" lon="4.04487">
        <ele>107.6</ele>
        <time>2026-08-24T12:38:31Z</time>
      </trkpt>
      <trkpt lat="49.07698" lon="4.04495">
        <ele>108.2</ele>
        <time>2026-08-24T12:38:32Z</time>
      </trkpt>
      <trkpt lat="49.07694" lon="4.04502">
        <ele>109</ele>
        <time>2026-08-24T12:38:33Z</time>
      </trkpt>
      <trkpt lat="49.07691" lon="4.04509">
        <ele>109.6</ele>
        <time>2026-08-24T12:38:34Z</time>
      </trkpt>
      <trkpt lat="49.07687" lon="4.04515">
        <ele>110.2</ele>
        <time>2026-08-24T12:38:35Z</time>
      </trkpt>
      <trkpt lat="49.07683" lon="4.04522">
        <ele>111</ele>
        <time>2026-08-24T12:38:36Z</time>
      </trkpt>
      <trkpt lat="49.07679" lon="4.04529">
        <ele>111.6</ele>
        <time>2026-08-24T12:38:37Z</time>
      </trkpt>
      <trkpt lat="49.07674" lon="4.04535">
        <ele>112.4</ele>
        <time>2026-08-24T12:38:38Z</time>
      </trkpt>
      <trkpt lat="49.07671" lon="4.04542">
        <ele>112.8</ele>
        <time>2026-08-24T12:38:39Z</time>
      </trkpt>
      <trkpt lat="49.07667" lon="4.04549">
        <ele>113.4</ele>
        <time>2026-08-24T12:38:40Z</time>
      </trkpt>
      <trkpt lat="49.07662" lon="4.04556">
        <ele>113.6</ele>
        <time>2026-08-24T12:38:41Z</time>
      </trkpt>
      <trkpt lat="49.07659" lon="4.04562">
        <ele>113.8</ele>
        <time>2026-08-24T12:38:42Z</time>
      </trkpt>
      <trkpt lat="49.07655" lon="4.04569">
        <ele>114</ele>
        <time>2026-08-24T12:38:43Z</time>
      </trkpt>
      <trkpt lat="49.07652" lon="4.04575">
        <ele>114.4</ele>
        <time>2026-08-24T12:38:44Z</time>
      </trkpt>
      <trkpt lat="49.07649" lon="4.04581">
        <ele>115</ele>
        <time>2026-08-24T12:38:45Z</time>
      </trkpt>
      <trkpt lat="49.07646" lon="4.04587">
        <ele>115.6</ele>
        <time>2026-08-24T12:38:46Z</time>
      </trkpt>
      <trkpt lat="49.07643" lon="4.04594">
        <ele>116.2</ele>
        <time>2026-08-24T12:38:47Z</time>
      </trkpt>
      <trkpt lat="49.0764" lon="4.046">
        <ele>116.6</ele>
        <time>2026-08-24T12:38:48Z</time>
      </trkpt>
      <trkpt lat="49.07636" lon="4.04607">
        <ele>116.8</ele>
        <time>2026-08-24T12:38:49Z</time>
      </trkpt>
      <trkpt lat="49.07634" lon="4.04614">
        <ele>117.2</ele>
        <time>2026-08-24T12:38:50Z</time>
      </trkpt>
      <trkpt lat="49.07631" lon="4.04622">
        <ele>117.4</ele>
        <time>2026-08-24T12:38:51Z</time>
      </trkpt>
      <trkpt lat="49.07629" lon="4.0463">
        <ele>117.6</ele>
        <time>2026-08-24T12:38:52Z</time>
      </trkpt>
      <trkpt lat="49.07627" lon="4.04638">
        <ele>117.8</ele>
        <time>2026-08-24T12:38:53Z</time>
      </trkpt>
      <trkpt lat="49.07626" lon="4.04646">
        <ele>117.8</ele>
        <time>2026-08-24T12:38:54Z</time>
      </trkpt>
      <trkpt lat="49.07624" lon="4.04652">
        <ele>117.8</ele>
        <time>2026-08-24T12:38:55Z</time>
      </trkpt>
      <trkpt lat="49.07622" lon="4.04658">
        <ele>118</ele>
        <time>2026-08-24T12:38:56Z</time>
      </trkpt>
      <trkpt lat="49.07621" lon="4.04666">
        <ele>118</ele>
        <time>2026-08-24T12:38:57Z</time>
      </trkpt>
      <trkpt lat="49.07619" lon="4.04675">
        <ele>117.8</ele>
        <time>2026-08-24T12:38:58Z</time>
      </trkpt>
      <trkpt lat="49.07617" lon="4.04684">
        <ele>117.4</ele>
        <time>2026-08-24T12:38:59Z</time>
      </trkpt>
      <trkpt lat="49.07615" lon="4.04694">
        <ele>117.2</ele>
        <time>2026-08-24T12:39:00Z</time>
      </trkpt>
      <trkpt lat="49.07613" lon="4.04705">
        <ele>116.6</ele>
        <time>2026-08-24T12:39:01Z</time>
      </trkpt>
      <trkpt lat="49.07611" lon="4.04715">
        <ele>116</ele>
        <time>2026-08-24T12:39:02Z</time>
      </trkpt>
      <trkpt lat="49.07609" lon="4.04726">
        <ele>115.4</ele>
        <time>2026-08-24T12:39:03Z</time>
      </trkpt>
      <trkpt lat="49.07607" lon="4.04738">
        <ele>114.8</ele>
        <time>2026-08-24T12:39:04Z</time>
      </trkpt>
      <trkpt lat="49.07606" lon="4.0475">
        <ele>114.2</ele>
        <time>2026-08-24T12:39:05Z</time>
      </trkpt>
      <trkpt lat="49.07606" lon="4.04762">
        <ele>113.8</ele>
        <time>2026-08-24T12:39:06Z</time>
      </trkpt>
      <trkpt lat="49.07607" lon="4.04774">
        <ele>113.4</ele>
        <time>2026-08-24T12:39:07Z</time>
      </trkpt>
      <trkpt lat="49.07609" lon="4.04786">
        <ele>112.8</ele>
        <time>2026-08-24T12:39:08Z</time>
      </trkpt>
      <trkpt lat="49.07612" lon="4.04799">
        <ele>112.2</ele>
        <time>2026-08-24T12:39:09Z</time>
      </trkpt>
      <trkpt lat="49.07614" lon="4.04811">
        <ele>111.6</ele>
        <time>2026-08-24T12:39:10Z</time>
      </trkpt>
      <trkpt lat="49.07614" lon="4.04823">
        <ele>111.2</ele>
        <time>2026-08-24T12:39:11Z</time>
      </trkpt>
      <trkpt lat="49.07612" lon="4.04834">
        <ele>110.6</ele>
        <time>2026-08-24T12:39:12Z</time>
      </trkpt>
      <trkpt lat="49.07607" lon="4.04843">
        <ele>110.2</ele>
        <time>2026-08-24T12:39:13Z</time>
      </trkpt>
      <trkpt lat="49.07602" lon="4.0485">
        <ele>110</ele>
        <time>2026-08-24T12:39:14Z</time>
      </trkpt>
      <trkpt lat="49.07596" lon="4.04854">
        <ele>110.2</ele>
        <time>2026-08-24T12:39:15Z</time>
      </trkpt>
      <trkpt lat="49.0759" lon="4.04858">
        <ele>110.4</ele>
        <time>2026-08-24T12:39:16Z</time>
      </trkpt>
      <trkpt lat="49.07585" lon="4.0486">
        <ele>111</ele>
        <time>2026-08-24T12:39:17Z</time>
      </trkpt>
      <trkpt lat="49.0758" lon="4.04862">
        <ele>111.6</ele>
        <time>2026-08-24T12:39:18Z</time>
      </trkpt>
      <trkpt lat="49.07575" lon="4.04864">
        <ele>112.2</ele>
        <time>2026-08-24T12:39:19Z</time>
      </trkpt>
      <trkpt lat="49.0757" lon="4.04864">
        <ele>113</ele>
        <time>2026-08-24T12:39:20Z</time>
      </trkpt>
      <trkpt lat="49.07566" lon="4.04865">
        <ele>113.4</ele>
        <time>2026-08-24T12:39:21Z</time>
      </trkpt>
      <trkpt lat="49.07561" lon="4.04865">
        <ele>114</ele>
        <time>2026-08-24T12:39:22Z</time>
      </trkpt>
      <trkpt lat="49.07557" lon="4.04865">
        <ele>114.4</ele>
        <time>2026-08-24T12:39:23Z</time>
      </trkpt>
      <trkpt lat="49.07553" lon="4.04864">
        <ele>114.6</ele>
        <time>2026-08-24T12:39:24Z</time>
      </trkpt>
      <trkpt lat="49.07549" lon="4.04863">
        <ele>114.8</ele>
        <time>2026-08-24T12:39:25Z</time>
      </trkpt>
      <trkpt lat="49.07544" lon="4.04862">
        <ele>115</ele>
        <time>2026-08-24T12:39:26Z</time>
      </trkpt>
      <trkpt lat="49.0754" lon="4.04861">
        <ele>115.2</ele>
        <time>2026-08-24T12:39:27Z</time>
      </trkpt>
      <trkpt lat="49.07535" lon="4.04859">
        <ele>115.2</ele>
        <time>2026-08-24T12:39:28Z</time>
      </trkpt>
      <trkpt lat="49.0753" lon="4.04857">
        <ele>115.2</ele>
        <time>2026-08-24T12:39:29Z</time>
      </trkpt>
      <trkpt lat="49.07525" lon="4.04854">
        <ele>115.2</ele>
        <time>2026-08-24T12:39:30Z</time>
      </trkpt>
      <trkpt lat="49.0752" lon="4.04851">
        <ele>115.2</ele>
        <time>2026-08-24T12:39:31Z</time>
      </trkpt>
      <trkpt lat="49.07516" lon="4.04848">
        <ele>115.4</ele>
        <time>2026-08-24T12:39:32Z</time>
      </trkpt>
      <trkpt lat="49.07511" lon="4.04844">
        <ele>115.6</ele>
        <time>2026-08-24T12:39:33Z</time>
      </trkpt>
      <trkpt lat="49.07506" lon="4.04841">
        <ele>115.8</ele>
        <time>2026-08-24T12:39:34Z</time>
      </trkpt>
      <trkpt lat="49.07501" lon="4.04837">
        <ele>116</ele>
        <time>2026-08-24T12:39:35Z</time>
      </trkpt>
      <trkpt lat="49.07496" lon="4.04833">
        <ele>116.2</ele>
        <time>2026-08-24T12:39:36Z</time>
      </trkpt>
      <trkpt lat="49.07491" lon="4.04829">
        <ele>116.2</ele>
        <time>2026-08-24T12:39:37Z</time>
      </trkpt>
      <trkpt lat="49.07486" lon="4.04825">
        <ele>116.4</ele>
        <time>2026-08-24T12:39:38Z</time>
      </trkpt>
      <trkpt lat="49.07481" lon="4.04821">
        <ele>116.4</ele>
        <time>2026-08-24T12:39:39Z</time>
      </trkpt>
      <trkpt lat="49.07475" lon="4.04817">
        <ele>116.4</ele>
        <time>2026-08-24T12:39:40Z</time>
      </trkpt>
      <trkpt lat="49.0747" lon="4.04813">
        <ele>116.4</ele>
        <time>2026-08-24T12:39:41Z</time>
      </trkpt>
      <trkpt lat="49.07465" lon="4.04809">
        <ele>116.6</ele>
        <time>2026-08-24T12:39:42Z</time>
      </trkpt>
      <trkpt lat="49.0746" lon="4.04804">
        <ele>116.8</ele>
        <time>2026-08-24T12:39:43Z</time>
      </trkpt>
      <trkpt lat="49.07454" lon="4.048">
        <ele>116.8</ele>
        <time>2026-08-24T12:39:44Z</time>
      </trkpt>
      <trkpt lat="49.07449" lon="4.04795">
        <ele>116.6</ele>
        <time>2026-08-24T12:39:45Z</time>
      </trkpt>
      <trkpt lat="49.07444" lon="4.04791">
        <ele>116.8</ele>
        <time>2026-08-24T12:39:46Z</time>
      </trkpt>
      <trkpt lat="49.07439" lon="4.04787">
        <ele>116.6</ele>
        <time>2026-08-24T12:39:47Z</time>
      </trkpt>
      <trkpt lat="49.07433" lon="4.04782">
        <ele>116.8</ele>
        <time>2026-08-24T12:39:48Z</time>
      </trkpt>
      <trkpt lat="49.07428" lon="4.04778">
        <ele>117</ele>
        <time>2026-08-24T12:39:49Z</time>
      </trkpt>
      <trkpt lat="49.07422" lon="4.04774">
        <ele>117</ele>
        <time>2026-08-24T12:39:50Z</time>
      </trkpt>
      <trkpt lat="49.07417" lon="4.0477">
        <ele>117.2</ele>
        <time>2026-08-24T12:39:51Z</time>
      </trkpt>
      <trkpt lat="49.07411" lon="4.04766">
        <ele>117.2</ele>
        <time>2026-08-24T12:39:52Z</time>
      </trkpt>
      <trkpt lat="49.07406" lon="4.04762">
        <ele>117</ele>
        <time>2026-08-24T12:39:53Z</time>
      </trkpt>
      <trkpt lat="49.07401" lon="4.04758">
        <ele>117</ele>
        <time>2026-08-24T12:39:54Z</time>
      </trkpt>
      <trkpt lat="49.07396" lon="4.04754">
        <ele>117.2</ele>
        <time>2026-08-24T12:39:55Z</time>
      </trkpt>
      <trkpt lat="49.07391" lon="4.04751">
        <ele>117.2</ele>
        <time>2026-08-24T12:39:56Z</time>
      </trkpt>
      <trkpt lat="49.07387" lon="4.04748">
        <ele>117.4</ele>
        <time>2026-08-24T12:39:57Z</time>
      </trkpt>
      <trkpt lat="49.07383" lon="4.04746">
        <ele>117.6</ele>
        <time>2026-08-24T12:39:58Z</time>
      </trkpt>
      <trkpt lat="49.0738" lon="4.04744">
        <ele>117.8</ele>
        <time>2026-08-24T12:39:59Z</time>
      </trkpt>
      <trkpt lat="49.07378" lon="4.04743">
        <ele>117.8</ele>
        <time>2026-08-24T12:40:00Z</time>
      </trkpt>
      <trkpt lat="49.07377" lon="4.04741">
        <ele>118.2</ele>
        <time>2026-08-24T12:40:01Z</time>
      </trkpt>
      <trkpt lat="49.07376" lon="4.04739">
        <ele>118.2</ele>
        <time>2026-08-24T12:40:02Z</time>
      </trkpt>
      <trkpt lat="49.07376" lon="4.04738">
        <ele>118.4</ele>
        <time>2026-08-24T12:40:03Z</time>
      </trkpt>
      <trkpt lat="49.07376" lon="4.04738">
        <ele>118.6</ele>
        <time>2026-08-24T12:40:04Z</time>
      </trkpt>
      <trkpt lat="49.07376" lon="4.04738">
        <ele>118.6</ele>
        <time>2026-08-24T12:40:05Z</time>
      </trkpt>
      <trkpt lat="49.07371" lon="4.04739">
        <ele>118</ele>
        <time>2026-08-24T12:40:39Z</time>
      </trkpt>
      <trkpt lat="49.07369" lon="4.04739">
        <ele>117.8</ele>
        <time>2026-08-24T12:40:40Z</time>
      </trkpt>
      <trkpt lat="49.07366" lon="4.04738">
        <ele>117.6</ele>
        <time>2026-08-24T12:40:41Z</time>
      </trkpt>
      <trkpt lat="49.07363" lon="4.04736">
        <ele>117.6</ele>
        <time>2026-08-24T12:40:42Z</time>
      </trkpt>
      <trkpt lat="49.07359" lon="4.04735">
        <ele>117.6</ele>
        <time>2026-08-24T12:40:43Z</time>
      </trkpt>
      <trkpt lat="49.07356" lon="4.04734">
        <ele>117.6</ele>
        <time>2026-08-24T12:40:44Z</time>
      </trkpt>
      <trkpt lat="49.07352" lon="4.04732">
        <ele>117.6</ele>
        <time>2026-08-24T12:40:45Z</time>
      </trkpt>
      <trkpt lat="49.07349" lon="4.04731">
        <ele>117.8</ele>
        <time>2026-08-24T12:40:46Z</time>
      </trkpt>
      <trkpt lat="49.07345" lon="4.04729">
        <ele>117.8</ele>
        <time>2026-08-24T12:40:47Z</time>
      </trkpt>
      <trkpt lat="49.07341" lon="4.04727">
        <ele>117.6</ele>
        <time>2026-08-24T12:40:48Z</time>
      </trkpt>
      <trkpt lat="49.07337" lon="4.04726">
        <ele>117.4</ele>
        <time>2026-08-24T12:40:49Z</time>
      </trkpt>
      <trkpt lat="49.07332" lon="4.04724">
        <ele>117.2</ele>
        <time>2026-08-24T12:40:50Z</time>
      </trkpt>
      <trkpt lat="49.07327" lon="4.04722">
        <ele>117.2</ele>
        <time>2026-08-24T12:40:51Z</time>
      </trkpt>
      <trkpt lat="49.07322" lon="4.0472">
        <ele>117</ele>
        <time>2026-08-24T12:40:52Z</time>
      </trkpt>
      <trkpt lat="49.07316" lon="4.04717">
        <ele>116.8</ele>
        <time>2026-08-24T12:40:53Z</time>
      </trkpt>
      <trkpt lat="49.0731" lon="4.04715">
        <ele>116.6</ele>
        <time>2026-08-24T12:40:54Z</time>
      </trkpt>
      <trkpt lat="49.07304" lon="4.04713">
        <ele>116.2</ele>
        <time>2026-08-24T12:40:55Z</time>
      </trkpt>
      <trkpt lat="49.07297" lon="4.0471">
        <ele>115.6</ele>
        <time>2026-08-24T12:40:56Z</time>
      </trkpt>
      <trkpt lat="49.0729" lon="4.04706">
        <ele>115</ele>
        <time>2026-08-24T12:40:57Z</time>
      </trkpt>
      <trkpt lat="49.07282" lon="4.04703">
        <ele>114.2</ele>
        <time>2026-08-24T12:40:58Z</time>
      </trkpt>
      <trkpt lat="49.07274" lon="4.04699">
        <ele>113.4</ele>
        <time>2026-08-24T12:40:59Z</time>
      </trkpt>
      <trkpt lat="49.07266" lon="4.04695">
        <ele>112.6</ele>
        <time>2026-08-24T12:41:00Z</time>
      </trkpt>
      <trkpt lat="49.07259" lon="4.04691">
        <ele>112</ele>
        <time>2026-08-24T12:41:01Z</time>
      </trkpt>
      <trkpt lat="49.07251" lon="4.04687">
        <ele>111.4</ele>
        <time>2026-08-24T12:41:02Z</time>
      </trkpt>
      <trkpt lat="49.07243" lon="4.04683">
        <ele>111</ele>
        <time>2026-08-24T12:41:03Z</time>
      </trkpt>
      <trkpt lat="49.07235" lon="4.04678">
        <ele>110.6</ele>
        <time>2026-08-24T12:41:04Z</time>
      </trkpt>
      <trkpt lat="49.07228" lon="4.04674">
        <ele>110.2</ele>
        <time>2026-08-24T12:41:05Z</time>
      </trkpt>
      <trkpt lat="49.0722" lon="4.04669">
        <ele>109.6</ele>
        <time>2026-08-24T12:41:06Z</time>
      </trkpt>
      <trkpt lat="49.07213" lon="4.04664">
        <ele>109.2</ele>
        <time>2026-08-24T12:41:07Z</time>
      </trkpt>
      <trkpt lat="49.07206" lon="4.04658">
        <ele>108.4</ele>
        <time>2026-08-24T12:41:08Z</time>
      </trkpt>
      <trkpt lat="49.072" lon="4.04651">
        <ele>107.8</ele>
        <time>2026-08-24T12:41:09Z</time>
      </trkpt>
      <trkpt lat="49.07194" lon="4.04644">
        <ele>107.2</ele>
        <time>2026-08-24T12:41:10Z</time>
      </trkpt>
      <trkpt lat="49.07189" lon="4.04638">
        <ele>106.6</ele>
        <time>2026-08-24T12:41:11Z</time>
      </trkpt>
      <trkpt lat="49.07184" lon="4.04632">
        <ele>106</ele>
        <time>2026-08-24T12:41:12Z</time>
      </trkpt>
      <trkpt lat="49.07181" lon="4.04626">
        <ele>105.6</ele>
        <time>2026-08-24T12:41:13Z</time>
      </trkpt>
      <trkpt lat="49.07177" lon="4.04621">
        <ele>105.2</ele>
        <time>2026-08-24T12:41:14Z</time>
      </trkpt>
      <trkpt lat="49.07174" lon="4.04617">
        <ele>104.8</ele>
        <time>2026-08-24T12:41:15Z</time>
      </trkpt>
      <trkpt lat="49.07172" lon="4.04613">
        <ele>104.6</ele>
        <time>2026-08-24T12:41:16Z</time>
      </trkpt>
      <trkpt lat="49.07171" lon="4.0461">
        <ele>104.4</ele>
        <time>2026-08-24T12:41:17Z</time>
      </trkpt>
      <trkpt lat="49.07169" lon="4.04607">
        <ele>104.2</ele>
        <time>2026-08-24T12:41:18Z</time>
      </trkpt>
      <trkpt lat="49.07168" lon="4.04603">
        <ele>104</ele>
        <time>2026-08-24T12:41:19Z</time>
      </trkpt>
      <trkpt lat="49.07167" lon="4.04599">
        <ele>103.8</ele>
        <time>2026-08-24T12:41:20Z</time>
      </trkpt>
      <trkpt lat="49.07165" lon="4.04595">
        <ele>103.6</ele>
        <time>2026-08-24T12:41:21Z</time>
      </trkpt>
      <trkpt lat="49.07163" lon="4.0459">
        <ele>103.4</ele>
        <time>2026-08-24T12:41:22Z</time>
      </trkpt>
      <trkpt lat="49.0716" lon="4.04584">
        <ele>103.2</ele>
        <time>2026-08-24T12:41:23Z</time>
      </trkpt>
      <trkpt lat="49.07158" lon="4.04578">
        <ele>102.8</ele>
        <time>2026-08-24T12:41:24Z</time>
      </trkpt>
      <trkpt lat="49.07155" lon="4.04572">
        <ele>102.6</ele>
        <time>2026-08-24T12:41:25Z</time>
      </trkpt>
      <trkpt lat="49.07152" lon="4.04565">
        <ele>102.4</ele>
        <time>2026-08-24T12:41:26Z</time>
      </trkpt>
      <trkpt lat="49.0715" lon="4.04559">
        <ele>102.2</ele>
        <time>2026-08-24T12:41:27Z</time>
      </trkpt>
      <trkpt lat="49.07146" lon="4.04554">
        <ele>102</ele>
        <time>2026-08-24T12:41:28Z</time>
      </trkpt>
      <trkpt lat="49.07142" lon="4.0455">
        <ele>101.6</ele>
        <time>2026-08-24T12:41:29Z</time>
      </trkpt>
      <trkpt lat="49.07138" lon="4.04548">
        <ele>101.4</ele>
        <time>2026-08-24T12:41:30Z</time>
      </trkpt>
      <trkpt lat="49.07133" lon="4.04546">
        <ele>101</ele>
        <time>2026-08-24T12:41:31Z</time>
      </trkpt>
      <trkpt lat="49.07128" lon="4.04544">
        <ele>100.8</ele>
        <time>2026-08-24T12:41:32Z</time>
      </trkpt>
      <trkpt lat="49.07123" lon="4.04542">
        <ele>100.6</ele>
        <time>2026-08-24T12:41:33Z</time>
      </trkpt>
      <trkpt lat="49.07117" lon="4.04541">
        <ele>100.4</ele>
        <time>2026-08-24T12:41:34Z</time>
      </trkpt>
      <trkpt lat="49.07111" lon="4.0454">
        <ele>100</ele>
        <time>2026-08-24T12:41:35Z</time>
      </trkpt>
      <trkpt lat="49.07105" lon="4.04539">
        <ele>99.8</ele>
        <time>2026-08-24T12:41:36Z</time>
      </trkpt>
      <trkpt lat="49.07099" lon="4.04538">
        <ele>99.4</ele>
        <time>2026-08-24T12:41:37Z</time>
      </trkpt>
      <trkpt lat="49.07092" lon="4.04537">
        <ele>99</ele>
        <time>2026-08-24T12:41:38Z</time>
      </trkpt>
      <trkpt lat="49.07085" lon="4.04535">
        <ele>98.6</ele>
        <time>2026-08-24T12:41:39Z</time>
      </trkpt>
      <trkpt lat="49.07078" lon="4.04534">
        <ele>98</ele>
        <time>2026-08-24T12:41:40Z</time>
      </trkpt>
      <trkpt lat="49.07071" lon="4.04533">
        <ele>97.6</ele>
        <time>2026-08-24T12:41:41Z</time>
      </trkpt>
      <trkpt lat="49.07063" lon="4.04532">
        <ele>97.4</ele>
        <time>2026-08-24T12:41:42Z</time>
      </trkpt>
      <trkpt lat="49.07056" lon="4.0453">
        <ele>97</ele>
        <time>2026-08-24T12:41:43Z</time>
      </trkpt>
      <trkpt lat="49.07049" lon="4.04529">
        <ele>96.8</ele>
        <time>2026-08-24T12:41:44Z</time>
      </trkpt>
      <trkpt lat="49.07042" lon="4.04528">
        <ele>96.6</ele>
        <time>2026-08-24T12:41:45Z</time>
      </trkpt>
      <trkpt lat="49.07035" lon="4.04527">
        <ele>96.6</ele>
        <time>2026-08-24T12:41:46Z</time>
      </trkpt>
      <trkpt lat="49.07029" lon="4.04526">
        <ele>96.6</ele>
        <time>2026-08-24T12:41:47Z</time>
      </trkpt>
      <trkpt lat="49.07022" lon="4.04526">
        <ele>96.6</ele>
        <time>2026-08-24T12:41:48Z</time>
      </trkpt>
      <trkpt lat="49.07016" lon="4.04525">
        <ele>96.6</ele>
        <time>2026-08-24T12:41:49Z</time>
      </trkpt>
      <trkpt lat="49.0701" lon="4.04524">
        <ele>96.8</ele>
        <time>2026-08-24T12:41:50Z</time>
      </trkpt>
      <trkpt lat="49.07004" lon="4.04523">
        <ele>96.8</ele>
        <time>2026-08-24T12:41:51Z</time>
      </trkpt>
      <trkpt lat="49.06997" lon="4.04523">
        <ele>97</ele>
        <time>2026-08-24T12:41:52Z</time>
      </trkpt>
      <trkpt lat="49.06992" lon="4.04524">
        <ele>97</ele>
        <time>2026-08-24T12:41:53Z</time>
      </trkpt>
      <trkpt lat="49.06987" lon="4.04525">
        <ele>97</ele>
        <time>2026-08-24T12:41:54Z</time>
      </trkpt>
      <trkpt lat="49.06981" lon="4.04528">
        <ele>97</ele>
        <time>2026-08-24T12:41:55Z</time>
      </trkpt>
      <trkpt lat="49.06975" lon="4.0453">
        <ele>96.8</ele>
        <time>2026-08-24T12:41:56Z</time>
      </trkpt>
      <trkpt lat="49.0697" lon="4.04533">
        <ele>96.8</ele>
        <time>2026-08-24T12:41:57Z</time>
      </trkpt>
      <trkpt lat="49.06963" lon="4.04535">
        <ele>96.6</ele>
        <time>2026-08-24T12:41:58Z</time>
      </trkpt>
      <trkpt lat="49.06957" lon="4.04538">
        <ele>96.4</ele>
        <time>2026-08-24T12:41:59Z</time>
      </trkpt>
      <trkpt lat="49.06951" lon="4.04541">
        <ele>96.2</ele>
        <time>2026-08-24T12:42:00Z</time>
      </trkpt>
      <trkpt lat="49.06944" lon="4.04544">
        <ele>95.8</ele>
        <time>2026-08-24T12:42:01Z</time>
      </trkpt>
      <trkpt lat="49.06938" lon="4.04548">
        <ele>95.6</ele>
        <time>2026-08-24T12:42:02Z</time>
      </trkpt>
      <trkpt lat="49.06932" lon="4.0455">
        <ele>95.4</ele>
        <time>2026-08-24T12:42:03Z</time>
      </trkpt>
      <trkpt lat="49.06926" lon="4.04553">
        <ele>95.2</ele>
        <time>2026-08-24T12:42:04Z</time>
      </trkpt>
      <trkpt lat="49.0692" lon="4.04556">
        <ele>95</ele>
        <time>2026-08-24T12:42:05Z</time>
      </trkpt>
      <trkpt lat="49.06916" lon="4.04558">
        <ele>94.8</ele>
        <time>2026-08-24T12:42:06Z</time>
      </trkpt>
      <trkpt lat="49.06911" lon="4.0456">
        <ele>94.8</ele>
        <time>2026-08-24T12:42:07Z</time>
      </trkpt>
      <trkpt lat="49.06907" lon="4.04561">
        <ele>94.6</ele>
        <time>2026-08-24T12:42:08Z</time>
      </trkpt>
      <trkpt lat="49.06904" lon="4.04563">
        <ele>94.4</ele>
        <time>2026-08-24T12:42:09Z</time>
      </trkpt>
      <trkpt lat="49.06901" lon="4.04564">
        <ele>94.4</ele>
        <time>2026-08-24T12:42:10Z</time>
      </trkpt>
      <trkpt lat="49.06898" lon="4.04566">
        <ele>94.4</ele>
        <time>2026-08-24T12:42:11Z</time>
      </trkpt>
      <trkpt lat="49.06894" lon="4.04567">
        <ele>94.2</ele>
        <time>2026-08-24T12:42:12Z</time>
      </trkpt>
      <trkpt lat="49.0689" lon="4.0457">
        <ele>94</ele>
        <time>2026-08-24T12:42:13Z</time>
      </trkpt>
      <trkpt lat="49.06885" lon="4.04573">
        <ele>93.6</ele>
        <time>2026-08-24T12:42:14Z</time>
      </trkpt>
      <trkpt lat="49.0688" lon="4.04576">
        <ele>93</ele>
        <time>2026-08-24T12:42:15Z</time>
      </trkpt>
      <trkpt lat="49.06874" lon="4.04578">
        <ele>92.6</ele>
        <time>2026-08-24T12:42:16Z</time>
      </trkpt>
      <trkpt lat="49.06868" lon="4.04581">
        <ele>92.4</ele>
        <time>2026-08-24T12:42:17Z</time>
      </trkpt>
      <trkpt lat="49.06862" lon="4.04584">
        <ele>92.4</ele>
        <time>2026-08-24T12:42:18Z</time>
      </trkpt>
      <trkpt lat="49.06856" lon="4.04588">
        <ele>92.4</ele>
        <time>2026-08-24T12:42:19Z</time>
      </trkpt>
      <trkpt lat="49.06849" lon="4.04591">
        <ele>92.4</ele>
        <time>2026-08-24T12:42:20Z</time>
      </trkpt>
      <trkpt lat="49.06842" lon="4.04594">
        <ele>92</ele>
        <time>2026-08-24T12:42:21Z</time>
      </trkpt>
      <trkpt lat="49.06835" lon="4.04598">
        <ele>91.6</ele>
        <time>2026-08-24T12:42:22Z</time>
      </trkpt>
      <trkpt lat="49.06828" lon="4.046">
        <ele>91.2</ele>
        <time>2026-08-24T12:42:23Z</time>
      </trkpt>
      <trkpt lat="49.06821" lon="4.04604">
        <ele>90.8</ele>
        <time>2026-08-24T12:42:24Z</time>
      </trkpt>
      <trkpt lat="49.06814" lon="4.04607">
        <ele>90.4</ele>
        <time>2026-08-24T12:42:25Z</time>
      </trkpt>
      <trkpt lat="49.06808" lon="4.0461">
        <ele>90.2</ele>
        <time>2026-08-24T12:42:26Z</time>
      </trkpt>
      <trkpt lat="49.068" lon="4.04614">
        <ele>89.8</ele>
        <time>2026-08-24T12:42:27Z</time>
      </trkpt>
      <trkpt lat="49.06793" lon="4.04618">
        <ele>89.6</ele>
        <time>2026-08-24T12:42:28Z</time>
      </trkpt>
      <trkpt lat="49.06786" lon="4.04621">
        <ele>89.6</ele>
        <time>2026-08-24T12:42:29Z</time>
      </trkpt>
      <trkpt lat="49.0678" lon="4.04624">
        <ele>89.6</ele>
        <time>2026-08-24T12:42:30Z</time>
      </trkpt>
      <trkpt lat="49.06774" lon="4.04627">
        <ele>89.4</ele>
        <time>2026-08-24T12:42:31Z</time>
      </trkpt>
      <trkpt lat="49.06769" lon="4.0463">
        <ele>89.4</ele>
        <time>2026-08-24T12:42:32Z</time>
      </trkpt>
      <trkpt lat="49.06764" lon="4.04632">
        <ele>89.4</ele>
        <time>2026-08-24T12:42:33Z</time>
      </trkpt>
      <trkpt lat="49.06759" lon="4.04634">
        <ele>89.2</ele>
        <time>2026-08-24T12:42:34Z</time>
      </trkpt>
      <trkpt lat="49.06755" lon="4.04638">
        <ele>89</ele>
        <time>2026-08-24T12:42:35Z</time>
      </trkpt>
      <trkpt lat="49.06751" lon="4.04642">
        <ele>88.8</ele>
        <time>2026-08-24T12:42:36Z</time>
      </trkpt>
      <trkpt lat="49.06748" lon="4.04649">
        <ele>88.6</ele>
        <time>2026-08-24T12:42:37Z</time>
      </trkpt>
      <trkpt lat="49.06744" lon="4.04656">
        <ele>88.2</ele>
        <time>2026-08-24T12:42:38Z</time>
      </trkpt>
      <trkpt lat="49.06742" lon="4.04662">
        <ele>88</ele>
        <time>2026-08-24T12:42:39Z</time>
      </trkpt>
      <trkpt lat="49.0674" lon="4.04669">
        <ele>87.8</ele>
        <time>2026-08-24T12:42:40Z</time>
      </trkpt>
      <trkpt lat="49.06739" lon="4.04674">
        <ele>87.6</ele>
        <time>2026-08-24T12:42:41Z</time>
      </trkpt>
      <trkpt lat="49.06738" lon="4.04677">
        <ele>87.4</ele>
        <time>2026-08-24T12:42:42Z</time>
      </trkpt>
      <trkpt lat="49.06738" lon="4.04679">
        <ele>87.2</ele>
        <time>2026-08-24T12:42:43Z</time>
      </trkpt>
      <trkpt lat="49.06738" lon="4.04681">
        <ele>87.2</ele>
        <time>2026-08-24T12:42:44Z</time>
      </trkpt>
      <trkpt lat="49.06738" lon="4.04682">
        <ele>87</ele>
        <time>2026-08-24T12:42:45Z</time>
      </trkpt>
      <trkpt lat="49.06738" lon="4.04682">
        <ele>87.2</ele>
        <time>2026-08-24T12:42:46Z</time>
      </trkpt>
      <trkpt lat="49.0674" lon="4.04687">
        <ele>87.2</ele>
        <time>2026-08-24T12:42:48Z</time>
      </trkpt>
      <trkpt lat="49.06742" lon="4.0469">
        <ele>87.2</ele>
        <time>2026-08-24T12:42:49Z</time>
      </trkpt>
      <trkpt lat="49.06745" lon="4.04692">
        <ele>87.2</ele>
        <time>2026-08-24T12:42:50Z</time>
      </trkpt>
      <trkpt lat="49.06748" lon="4.04694">
        <ele>87.2</ele>
        <time>2026-08-24T12:42:51Z</time>
      </trkpt>
      <trkpt lat="49.06752" lon="4.04697">
        <ele>87.2</ele>
        <time>2026-08-24T12:42:52Z</time>
      </trkpt>
      <trkpt lat="49.06756" lon="4.04699">
        <ele>87</ele>
        <time>2026-08-24T12:42:53Z</time>
      </trkpt>
      <trkpt lat="49.06761" lon="4.04701">
        <ele>87</ele>
        <time>2026-08-24T12:42:54Z</time>
      </trkpt>
      <trkpt lat="49.06766" lon="4.04704">
        <ele>86.8</ele>
        <time>2026-08-24T12:42:55Z</time>
      </trkpt>
      <trkpt lat="49.06771" lon="4.04707">
        <ele>86.6</ele>
        <time>2026-08-24T12:42:56Z</time>
      </trkpt>
      <trkpt lat="49.06776" lon="4.04709">
        <ele>86.6</ele>
        <time>2026-08-24T12:42:57Z</time>
      </trkpt>
      <trkpt lat="49.06782" lon="4.04712">
        <ele>86.6</ele>
        <time>2026-08-24T12:42:58Z</time>
      </trkpt>
      <trkpt lat="49.06787" lon="4.04715">
        <ele>86.6</ele>
        <time>2026-08-24T12:42:59Z</time>
      </trkpt>
      <trkpt lat="49.06793" lon="4.04717">
        <ele>86.4</ele>
        <time>2026-08-24T12:43:00Z</time>
      </trkpt>
      <trkpt lat="49.06799" lon="4.0472">
        <ele>86.2</ele>
        <time>2026-08-24T12:43:01Z</time>
      </trkpt>
      <trkpt lat="49.06805" lon="4.04723">
        <ele>86</ele>
        <time>2026-08-24T12:43:02Z</time>
      </trkpt>
      <trkpt lat="49.0681" lon="4.04726">
        <ele>85.8</ele>
        <time>2026-08-24T12:43:03Z</time>
      </trkpt>
      <trkpt lat="49.06816" lon="4.04729">
        <ele>85.6</ele>
        <time>2026-08-24T12:43:04Z</time>
      </trkpt>
      <trkpt lat="49.06822" lon="4.04732">
        <ele>85.6</ele>
        <time>2026-08-24T12:43:05Z</time>
      </trkpt>
      <trkpt lat="49.06828" lon="4.04735">
        <ele>85.4</ele>
        <time>2026-08-24T12:43:06Z</time>
      </trkpt>
      <trkpt lat="49.06834" lon="4.04738">
        <ele>85.4</ele>
        <time>2026-08-24T12:43:07Z</time>
      </trkpt>
      <trkpt lat="49.0684" lon="4.04741">
        <ele>85.4</ele>
        <time>2026-08-24T12:43:08Z</time>
      </trkpt>
      <trkpt lat="49.06846" lon="4.04743">
        <ele>85.4</ele>
        <time>2026-08-24T12:43:09Z</time>
      </trkpt>
      <trkpt lat="49.06852" lon="4.04746">
        <ele>85.4</ele>
        <time>2026-08-24T12:43:10Z</time>
      </trkpt>
      <trkpt lat="49.06858" lon="4.04749">
        <ele>85.4</ele>
        <time>2026-08-24T12:43:11Z</time>
      </trkpt>
      <trkpt lat="49.06864" lon="4.04751">
        <ele>85.4</ele>
        <time>2026-08-24T12:43:12Z</time>
      </trkpt>
      <trkpt lat="49.0687" lon="4.04753">
        <ele>85.6</ele>
        <time>2026-08-24T12:43:13Z</time>
      </trkpt>
      <trkpt lat="49.06877" lon="4.04755">
        <ele>85.6</ele>
        <time>2026-08-24T12:43:14Z</time>
      </trkpt>
      <trkpt lat="49.06883" lon="4.04757">
        <ele>85.4</ele>
        <time>2026-08-24T12:43:15Z</time>
      </trkpt>
      <trkpt lat="49.06889" lon="4.0476">
        <ele>85.2</ele>
        <time>2026-08-24T12:43:16Z</time>
      </trkpt>
      <trkpt lat="49.06895" lon="4.04763">
        <ele>85.2</ele>
        <time>2026-08-24T12:43:17Z</time>
      </trkpt>
      <trkpt lat="49.06901" lon="4.04766">
        <ele>85.2</ele>
        <time>2026-08-24T12:43:18Z</time>
      </trkpt>
      <trkpt lat="49.06907" lon="4.0477">
        <ele>85.4</ele>
        <time>2026-08-24T12:43:19Z</time>
      </trkpt>
      <trkpt lat="49.06913" lon="4.04772">
        <ele>85.6</ele>
        <time>2026-08-24T12:43:20Z</time>
      </trkpt>
      <trkpt lat="49.06919" lon="4.04774">
        <ele>85.8</ele>
        <time>2026-08-24T12:43:21Z</time>
      </trkpt>
      <trkpt lat="49.06924" lon="4.04777">
        <ele>86</ele>
        <time>2026-08-24T12:43:22Z</time>
      </trkpt>
      <trkpt lat="49.0693" lon="4.04779">
        <ele>86.2</ele>
        <time>2026-08-24T12:43:23Z</time>
      </trkpt>
      <trkpt lat="49.06935" lon="4.04782">
        <ele>86.4</ele>
        <time>2026-08-24T12:43:24Z</time>
      </trkpt>
      <trkpt lat="49.06941" lon="4.04784">
        <ele>86.6</ele>
        <time>2026-08-24T12:43:25Z</time>
      </trkpt>
      <trkpt lat="49.06945" lon="4.04786">
        <ele>86.6</ele>
        <time>2026-08-24T12:43:26Z</time>
      </trkpt>
      <trkpt lat="49.0695" lon="4.04788">
        <ele>86.8</ele>
        <time>2026-08-24T12:43:27Z</time>
      </trkpt>
      <trkpt lat="49.06955" lon="4.0479">
        <ele>86.8</ele>
        <time>2026-08-24T12:43:28Z</time>
      </trkpt>
      <trkpt lat="49.0696" lon="4.04793">
        <ele>87</ele>
        <time>2026-08-24T12:43:29Z</time>
      </trkpt>
      <trkpt lat="49.06964" lon="4.04796">
        <ele>87.2</ele>
        <time>2026-08-24T12:43:30Z</time>
      </trkpt>
      <trkpt lat="49.06968" lon="4.048">
        <ele>87.2</ele>
        <time>2026-08-24T12:43:31Z</time>
      </trkpt>
      <trkpt lat="49.06972" lon="4.04803">
        <ele>87.4</ele>
        <time>2026-08-24T12:43:32Z</time>
      </trkpt>
      <trkpt lat="49.06976" lon="4.04807">
        <ele>87.4</ele>
        <time>2026-08-24T12:43:33Z</time>
      </trkpt>
      <trkpt lat="49.0698" lon="4.04811">
        <ele>87.4</ele>
        <time>2026-08-24T12:43:34Z</time>
      </trkpt>
      <trkpt lat="49.06985" lon="4.04814">
        <ele>87.6</ele>
        <time>2026-08-24T12:43:35Z</time>
      </trkpt>
      <trkpt lat="49.06989" lon="4.04818">
        <ele>87.8</ele>
        <time>2026-08-24T12:43:36Z</time>
      </trkpt>
      <trkpt lat="49.06994" lon="4.04821">
        <ele>88.2</ele>
        <time>2026-08-24T12:43:37Z</time>
      </trkpt>
      <trkpt lat="49.06998" lon="4.04824">
        <ele>88.4</ele>
        <time>2026-08-24T12:43:38Z</time>
      </trkpt>
      <trkpt lat="49.07002" lon="4.04828">
        <ele>88.6</ele>
        <time>2026-08-24T12:43:39Z</time>
      </trkpt>
      <trkpt lat="49.07006" lon="4.04831">
        <ele>88.8</ele>
        <time>2026-08-24T12:43:40Z</time>
      </trkpt>
      <trkpt lat="49.0701" lon="4.04835">
        <ele>88.8</ele>
        <time>2026-08-24T12:43:41Z</time>
      </trkpt>
      <trkpt lat="49.07015" lon="4.04836">
        <ele>88.8</ele>
        <time>2026-08-24T12:43:42Z</time>
      </trkpt>
      <trkpt lat="49.07019" lon="4.04835">
        <ele>88.6</ele>
        <time>2026-08-24T12:43:43Z</time>
      </trkpt>
      <trkpt lat="49.07022" lon="4.04832">
        <ele>88.8</ele>
        <time>2026-08-24T12:43:44Z</time>
      </trkpt>
      <trkpt lat="49.07025" lon="4.04828">
        <ele>88.8</ele>
        <time>2026-08-24T12:43:45Z</time>
      </trkpt>
      <trkpt lat="49.07028" lon="4.04823">
        <ele>89</ele>
        <time>2026-08-24T12:43:46Z</time>
      </trkpt>
      <trkpt lat="49.07031" lon="4.04819">
        <ele>89.2</ele>
        <time>2026-08-24T12:43:47Z</time>
      </trkpt>
      <trkpt lat="49.07034" lon="4.04814">
        <ele>89.4</ele>
        <time>2026-08-24T12:43:48Z</time>
      </trkpt>
      <trkpt lat="49.07036" lon="4.0481">
        <ele>89.4</ele>
        <time>2026-08-24T12:43:49Z</time>
      </trkpt>
      <trkpt lat="49.07039" lon="4.04806">
        <ele>89.6</ele>
        <time>2026-08-24T12:43:50Z</time>
      </trkpt>
      <trkpt lat="49.07041" lon="4.04802">
        <ele>89.8</ele>
        <time>2026-08-24T12:43:51Z</time>
      </trkpt>
      <trkpt lat="49.07043" lon="4.04798">
        <ele>90</ele>
        <time>2026-08-24T12:43:52Z</time>
      </trkpt>
      <trkpt lat="49.07046" lon="4.04795">
        <ele>90.2</ele>
        <time>2026-08-24T12:43:53Z</time>
      </trkpt>
      <trkpt lat="49.07049" lon="4.04792">
        <ele>90.4</ele>
        <time>2026-08-24T12:43:54Z</time>
      </trkpt>
      <trkpt lat="49.07052" lon="4.04791">
        <ele>90.6</ele>
        <time>2026-08-24T12:43:55Z</time>
      </trkpt>
      <trkpt lat="49.07055" lon="4.04793">
        <ele>90.8</ele>
        <time>2026-08-24T12:43:56Z</time>
      </trkpt>
      <trkpt lat="49.07058" lon="4.04796">
        <ele>90.8</ele>
        <time>2026-08-24T12:43:57Z</time>
      </trkpt>
      <trkpt lat="49.07061" lon="4.04799">
        <ele>90.8</ele>
        <time>2026-08-24T12:43:58Z</time>
      </trkpt>
      <trkpt lat="49.07063" lon="4.04802">
        <ele>91</ele>
        <time>2026-08-24T12:43:59Z</time>
      </trkpt>
      <trkpt lat="49.07066" lon="4.04805">
        <ele>90.8</ele>
        <time>2026-08-24T12:44:00Z</time>
      </trkpt>
      <trkpt lat="49.07068" lon="4.04809">
        <ele>90.8</ele>
        <time>2026-08-24T12:44:01Z</time>
      </trkpt>
      <trkpt lat="49.07071" lon="4.04814">
        <ele>91</ele>
        <time>2026-08-24T12:44:02Z</time>
      </trkpt>
      <trkpt lat="49.07074" lon="4.04818">
        <ele>91.2</ele>
        <time>2026-08-24T12:44:03Z</time>
      </trkpt>
      <trkpt lat="49.07077" lon="4.04823">
        <ele>91.2</ele>
        <time>2026-08-24T12:44:04Z</time>
      </trkpt>
      <trkpt lat="49.0708" lon="4.04829">
        <ele>91.2</ele>
        <time>2026-08-24T12:44:05Z</time>
      </trkpt>
      <trkpt lat="49.07084" lon="4.04835">
        <ele>91</ele>
        <time>2026-08-24T12:44:06Z</time>
      </trkpt>
      <trkpt lat="49.07089" lon="4.04841">
        <ele>90.8</ele>
        <time>2026-08-24T12:44:07Z</time>
      </trkpt>
      <trkpt lat="49.07093" lon="4.04847">
        <ele>90.6</ele>
        <time>2026-08-24T12:44:08Z</time>
      </trkpt>
      <trkpt lat="49.07097" lon="4.04853">
        <ele>90.4</ele>
        <time>2026-08-24T12:44:09Z</time>
      </trkpt>
      <trkpt lat="49.07101" lon="4.04859">
        <ele>90.2</ele>
        <time>2026-08-24T12:44:10Z</time>
      </trkpt>
      <trkpt lat="49.07105" lon="4.04865">
        <ele>90.2</ele>
        <time>2026-08-24T12:44:11Z</time>
      </trkpt>
      <trkpt lat="49.0711" lon="4.04871">
        <ele>90</ele>
        <time>2026-08-24T12:44:12Z</time>
      </trkpt>
      <trkpt lat="49.07114" lon="4.04878">
        <ele>89.8</ele>
        <time>2026-08-24T12:44:13Z</time>
      </trkpt>
      <trkpt lat="49.07119" lon="4.04885">
        <ele>89.6</ele>
        <time>2026-08-24T12:44:14Z</time>
      </trkpt>
      <trkpt lat="49.07123" lon="4.04891">
        <ele>89.6</ele>
        <time>2026-08-24T12:44:15Z</time>
      </trkpt>
      <trkpt lat="49.07128" lon="4.04898">
        <ele>89.4</ele>
        <time>2026-08-24T12:44:16Z</time>
      </trkpt>
      <trkpt lat="49.07133" lon="4.04905">
        <ele>89.4</ele>
        <time>2026-08-24T12:44:17Z</time>
      </trkpt>
      <trkpt lat="49.07137" lon="4.04912">
        <ele>89.4</ele>
        <time>2026-08-24T12:44:18Z</time>
      </trkpt>
      <trkpt lat="49.07143" lon="4.04919">
        <ele>89.4</ele>
        <time>2026-08-24T12:44:19Z</time>
      </trkpt>
      <trkpt lat="49.07148" lon="4.04926">
        <ele>89.4</ele>
        <time>2026-08-24T12:44:20Z</time>
      </trkpt>
      <trkpt lat="49.07153" lon="4.04932">
        <ele>89.2</ele>
        <time>2026-08-24T12:44:21Z</time>
      </trkpt>
      <trkpt lat="49.07158" lon="4.04939">
        <ele>88.8</ele>
        <time>2026-08-24T12:44:22Z</time>
      </trkpt>
      <trkpt lat="49.07163" lon="4.04946">
        <ele>88.6</ele>
        <time>2026-08-24T12:44:23Z</time>
      </trkpt>
      <trkpt lat="49.07169" lon="4.04952">
        <ele>88.4</ele>
        <time>2026-08-24T12:44:24Z</time>
      </trkpt>
      <trkpt lat="49.07174" lon="4.04959">
        <ele>88.2</ele>
        <time>2026-08-24T12:44:25Z</time>
      </trkpt>
      <trkpt lat="49.07179" lon="4.04965">
        <ele>88</ele>
        <time>2026-08-24T12:44:26Z</time>
      </trkpt>
      <trkpt lat="49.07184" lon="4.04971">
        <ele>87.8</ele>
        <time>2026-08-24T12:44:27Z</time>
      </trkpt>
      <trkpt lat="49.07189" lon="4.04977">
        <ele>87.6</ele>
        <time>2026-08-24T12:44:28Z</time>
      </trkpt>
      <trkpt lat="49.07194" lon="4.04982">
        <ele>87.8</ele>
        <time>2026-08-24T12:44:29Z</time>
      </trkpt>
      <trkpt lat="49.07199" lon="4.04986">
        <ele>88</ele>
        <time>2026-08-24T12:44:30Z</time>
      </trkpt>
      <trkpt lat="49.07205" lon="4.04989">
        <ele>88.2</ele>
        <time>2026-08-24T12:44:31Z</time>
      </trkpt>
      <trkpt lat="49.07211" lon="4.04993">
        <ele>88.4</ele>
        <time>2026-08-24T12:44:32Z</time>
      </trkpt>
      <trkpt lat="49.07216" lon="4.04996">
        <ele>88.6</ele>
        <time>2026-08-24T12:44:33Z</time>
      </trkpt>
      <trkpt lat="49.07222" lon="4.04999">
        <ele>88.6</ele>
        <time>2026-08-24T12:44:34Z</time>
      </trkpt>
      <trkpt lat="49.07228" lon="4.05001">
        <ele>88.6</ele>
        <time>2026-08-24T12:44:35Z</time>
      </trkpt>
      <trkpt lat="49.07235" lon="4.05004">
        <ele>88.6</ele>
        <time>2026-08-24T12:44:36Z</time>
      </trkpt>
      <trkpt lat="49.07241" lon="4.05006">
        <ele>88.6</ele>
        <time>2026-08-24T12:44:37Z</time>
      </trkpt>
      <trkpt lat="49.07247" lon="4.05008">
        <ele>88.4</ele>
        <time>2026-08-24T12:44:38Z</time>
      </trkpt>
      <trkpt lat="49.07253" lon="4.05011">
        <ele>88.4</ele>
        <time>2026-08-24T12:44:39Z</time>
      </trkpt>
      <trkpt lat="49.07259" lon="4.05014">
        <ele>88.4</ele>
        <time>2026-08-24T12:44:40Z</time>
      </trkpt>
      <trkpt lat="49.07265" lon="4.05017">
        <ele>88.2</ele>
        <time>2026-08-24T12:44:41Z</time>
      </trkpt>
      <trkpt lat="49.07271" lon="4.05022">
        <ele>88.2</ele>
        <time>2026-08-24T12:44:42Z</time>
      </trkpt>
      <trkpt lat="49.07276" lon="4.05026">
        <ele>88</ele>
        <time>2026-08-24T12:44:43Z</time>
      </trkpt>
      <trkpt lat="49.07281" lon="4.05032">
        <ele>88.2</ele>
        <time>2026-08-24T12:44:44Z</time>
      </trkpt>
      <trkpt lat="49.07286" lon="4.05037">
        <ele>88.2</ele>
        <time>2026-08-24T12:44:45Z</time>
      </trkpt>
      <trkpt lat="49.07291" lon="4.05043">
        <ele>88.4</ele>
        <time>2026-08-24T12:44:46Z</time>
      </trkpt>
      <trkpt lat="49.07295" lon="4.05049">
        <ele>88.4</ele>
        <time>2026-08-24T12:44:47Z</time>
      </trkpt>
      <trkpt lat="49.07299" lon="4.05056">
        <ele>88.6</ele>
        <time>2026-08-24T12:44:48Z</time>
      </trkpt>
      <trkpt lat="49.07304" lon="4.05063">
        <ele>88.4</ele>
        <time>2026-08-24T12:44:49Z</time>
      </trkpt>
      <trkpt lat="49.07308" lon="4.05069">
        <ele>88.6</ele>
        <time>2026-08-24T12:44:50Z</time>
      </trkpt>
      <trkpt lat="49.07313" lon="4.05076">
        <ele>88.6</ele>
        <time>2026-08-24T12:44:51Z</time>
      </trkpt>
      <trkpt lat="49.07317" lon="4.05084">
        <ele>88.6</ele>
        <time>2026-08-24T12:44:52Z</time>
      </trkpt>
      <trkpt lat="49.07321" lon="4.05092">
        <ele>88.6</ele>
        <time>2026-08-24T12:44:53Z</time>
      </trkpt>
      <trkpt lat="49.07325" lon="4.051">
        <ele>88.6</ele>
        <time>2026-08-24T12:44:54Z</time>
      </trkpt>
      <trkpt lat="49.07329" lon="4.05108">
        <ele>88.4</ele>
        <time>2026-08-24T12:44:55Z</time>
      </trkpt>
      <trkpt lat="49.07334" lon="4.05116">
        <ele>88.2</ele>
        <time>2026-08-24T12:44:56Z</time>
      </trkpt>
      <trkpt lat="49.07339" lon="4.05123">
        <ele>88</ele>
        <time>2026-08-24T12:44:57Z</time>
      </trkpt>
      <trkpt lat="49.07343" lon="4.0513">
        <ele>87.8</ele>
        <time>2026-08-24T12:44:58Z</time>
      </trkpt>
      <trkpt lat="49.07348" lon="4.05137">
        <ele>87.8</ele>
        <time>2026-08-24T12:44:59Z</time>
      </trkpt>
      <trkpt lat="49.07353" lon="4.05144">
        <ele>87.8</ele>
        <time>2026-08-24T12:45:00Z</time>
      </trkpt>
      <trkpt lat="49.07358" lon="4.05151">
        <ele>88</ele>
        <time>2026-08-24T12:45:01Z</time>
      </trkpt>
      <trkpt lat="49.07363" lon="4.05157">
        <ele>88</ele>
        <time>2026-08-24T12:45:02Z</time>
      </trkpt>
      <trkpt lat="49.07368" lon="4.05164">
        <ele>88.2</ele>
        <time>2026-08-24T12:45:03Z</time>
      </trkpt>
      <trkpt lat="49.07373" lon="4.0517">
        <ele>88.4</ele>
        <time>2026-08-24T12:45:04Z</time>
      </trkpt>
      <trkpt lat="49.07378" lon="4.05175">
        <ele>88.6</ele>
        <time>2026-08-24T12:45:05Z</time>
      </trkpt>
      <trkpt lat="49.07384" lon="4.0518">
        <ele>88.8</ele>
        <time>2026-08-24T12:45:06Z</time>
      </trkpt>
      <trkpt lat="49.07389" lon="4.05185">
        <ele>89</ele>
        <time>2026-08-24T12:45:07Z</time>
      </trkpt>
      <trkpt lat="49.07394" lon="4.0519">
        <ele>89.2</ele>
        <time>2026-08-24T12:45:08Z</time>
      </trkpt>
      <trkpt lat="49.07398" lon="4.05195">
        <ele>89.4</ele>
        <time>2026-08-24T12:45:09Z</time>
      </trkpt>
      <trkpt lat="49.07403" lon="4.05201">
        <ele>89.6</ele>
        <time>2026-08-24T12:45:10Z</time>
      </trkpt>
      <trkpt lat="49.07406" lon="4.05206">
        <ele>89.6</ele>
        <time>2026-08-24T12:45:11Z</time>
      </trkpt>
      <trkpt lat="49.0741" lon="4.05212">
        <ele>90</ele>
        <time>2026-08-24T12:45:12Z</time>
      </trkpt>
      <trkpt lat="49.07413" lon="4.05217">
        <ele>90.2</ele>
        <time>2026-08-24T12:45:13Z</time>
      </trkpt>
      <trkpt lat="49.07416" lon="4.05222">
        <ele>90.4</ele>
        <time>2026-08-24T12:45:14Z</time>
      </trkpt>
      <trkpt lat="49.07419" lon="4.05228">
        <ele>90.6</ele>
        <time>2026-08-24T12:45:15Z</time>
      </trkpt>
      <trkpt lat="49.07422" lon="4.05233">
        <ele>90.8</ele>
        <time>2026-08-24T12:45:16Z</time>
      </trkpt>
      <trkpt lat="49.07425" lon="4.05238">
        <ele>91.2</ele>
        <time>2026-08-24T12:45:17Z</time>
      </trkpt>
      <trkpt lat="49.07428" lon="4.05244">
        <ele>91.4</ele>
        <time>2026-08-24T12:45:18Z</time>
      </trkpt>
      <trkpt lat="49.07431" lon="4.05249">
        <ele>92</ele>
        <time>2026-08-24T12:45:19Z</time>
      </trkpt>
      <trkpt lat="49.07434" lon="4.05253">
        <ele>92.2</ele>
        <time>2026-08-24T12:45:20Z</time>
      </trkpt>
      <trkpt lat="49.07437" lon="4.05258">
        <ele>92.6</ele>
        <time>2026-08-24T12:45:21Z</time>
      </trkpt>
      <trkpt lat="49.07439" lon="4.05263">
        <ele>92.8</ele>
        <time>2026-08-24T12:45:22Z</time>
      </trkpt>
      <trkpt lat="49.07442" lon="4.05268">
        <ele>93</ele>
        <time>2026-08-24T12:45:23Z</time>
      </trkpt>
      <trkpt lat="49.07445" lon="4.05273">
        <ele>93.2</ele>
        <time>2026-08-24T12:45:24Z</time>
      </trkpt>
      <trkpt lat="49.07447" lon="4.05278">
        <ele>93.4</ele>
        <time>2026-08-24T12:45:25Z</time>
      </trkpt>
      <trkpt lat="49.0745" lon="4.05283">
        <ele>93.6</ele>
        <time>2026-08-24T12:45:26Z</time>
      </trkpt>
      <trkpt lat="49.07453" lon="4.05288">
        <ele>94</ele>
        <time>2026-08-24T12:45:27Z</time>
      </trkpt>
      <trkpt lat="49.07456" lon="4.05293">
        <ele>94.2</ele>
        <time>2026-08-24T12:45:28Z</time>
      </trkpt>
      <trkpt lat="49.07459" lon="4.05299">
        <ele>94.6</ele>
        <time>2026-08-24T12:45:29Z</time>
      </trkpt>
      <trkpt lat="49.07462" lon="4.05304">
        <ele>94.8</ele>
        <time>2026-08-24T12:45:30Z</time>
      </trkpt>
      <trkpt lat="49.07465" lon="4.0531">
        <ele>94.8</ele>
        <time>2026-08-24T12:45:31Z</time>
      </trkpt>
      <trkpt lat="49.07468" lon="4.05316">
        <ele>94.8</ele>
        <time>2026-08-24T12:45:32Z</time>
      </trkpt>
      <trkpt lat="49.07472" lon="4.05322">
        <ele>94.8</ele>
        <time>2026-08-24T12:45:33Z</time>
      </trkpt>
      <trkpt lat="49.07475" lon="4.05328">
        <ele>94.6</ele>
        <time>2026-08-24T12:45:34Z</time>
      </trkpt>
      <trkpt lat="49.07478" lon="4.05334">
        <ele>94.6</ele>
        <time>2026-08-24T12:45:35Z</time>
      </trkpt>
      <trkpt lat="49.07482" lon="4.0534">
        <ele>94.8</ele>
        <time>2026-08-24T12:45:36Z</time>
      </trkpt>
      <trkpt lat="49.07486" lon="4.05346">
        <ele>94.8</ele>
        <time>2026-08-24T12:45:37Z</time>
      </trkpt>
      <trkpt lat="49.07489" lon="4.05352">
        <ele>94.6</ele>
        <time>2026-08-24T12:45:38Z</time>
      </trkpt>
      <trkpt lat="49.07493" lon="4.05359">
        <ele>94.4</ele>
        <time>2026-08-24T12:45:39Z</time>
      </trkpt>
      <trkpt lat="49.07497" lon="4.05365">
        <ele>94</ele>
        <time>2026-08-24T12:45:40Z</time>
      </trkpt>
      <trkpt lat="49.07501" lon="4.05371">
        <ele>93.8</ele>
        <time>2026-08-24T12:45:41Z</time>
      </trkpt>
      <trkpt lat="49.07506" lon="4.05376">
        <ele>93.2</ele>
        <time>2026-08-24T12:45:42Z</time>
      </trkpt>
      <trkpt lat="49.07511" lon="4.05382">
        <ele>93.2</ele>
        <time>2026-08-24T12:45:43Z</time>
      </trkpt>
      <trkpt lat="49.07516" lon="4.05386">
        <ele>92.8</ele>
        <time>2026-08-24T12:45:44Z</time>
      </trkpt>
      <trkpt lat="49.07522" lon="4.05391">
        <ele>92.6</ele>
        <time>2026-08-24T12:45:45Z</time>
      </trkpt>
      <trkpt lat="49.07527" lon="4.05395">
        <ele>92.4</ele>
        <time>2026-08-24T12:45:46Z</time>
      </trkpt>
      <trkpt lat="49.07533" lon="4.05399">
        <ele>92.2</ele>
        <time>2026-08-24T12:45:47Z</time>
      </trkpt>
      <trkpt lat="49.07539" lon="4.05403">
        <ele>92.2</ele>
        <time>2026-08-24T12:45:48Z</time>
      </trkpt>
      <trkpt lat="49.07544" lon="4.05407">
        <ele>92</ele>
        <time>2026-08-24T12:45:49Z</time>
      </trkpt>
      <trkpt lat="49.0755" lon="4.05411">
        <ele>92</ele>
        <time>2026-08-24T12:45:50Z</time>
      </trkpt>
      <trkpt lat="49.07556" lon="4.05415">
        <ele>92</ele>
        <time>2026-08-24T12:45:51Z</time>
      </trkpt>
      <trkpt lat="49.07563" lon="4.05419">
        <ele>92</ele>
        <time>2026-08-24T12:45:52Z</time>
      </trkpt>
      <trkpt lat="49.07569" lon="4.05423">
        <ele>92</ele>
        <time>2026-08-24T12:45:53Z</time>
      </trkpt>
      <trkpt lat="49.07576" lon="4.05427">
        <ele>91.8</ele>
        <time>2026-08-24T12:45:54Z</time>
      </trkpt>
      <trkpt lat="49.07582" lon="4.05431">
        <ele>91.6</ele>
        <time>2026-08-24T12:45:55Z</time>
      </trkpt>
      <trkpt lat="49.07589" lon="4.05436">
        <ele>91.4</ele>
        <time>2026-08-24T12:45:56Z</time>
      </trkpt>
      <trkpt lat="49.07595" lon="4.05441">
        <ele>91</ele>
        <time>2026-08-24T12:45:57Z</time>
      </trkpt>
      <trkpt lat="49.07602" lon="4.05445">
        <ele>90.8</ele>
        <time>2026-08-24T12:45:58Z</time>
      </trkpt>
      <trkpt lat="49.07609" lon="4.0545">
        <ele>90.6</ele>
        <time>2026-08-24T12:45:59Z</time>
      </trkpt>
      <trkpt lat="49.07615" lon="4.05455">
        <ele>90.4</ele>
        <time>2026-08-24T12:46:00Z</time>
      </trkpt>
      <trkpt lat="49.0762" lon="4.05462">
        <ele>90.4</ele>
        <time>2026-08-24T12:46:01Z</time>
      </trkpt>
      <trkpt lat="49.07626" lon="4.05469">
        <ele>90.2</ele>
        <time>2026-08-24T12:46:02Z</time>
      </trkpt>
      <trkpt lat="49.07631" lon="4.05477">
        <ele>90</ele>
        <time>2026-08-24T12:46:03Z</time>
      </trkpt>
      <trkpt lat="49.07637" lon="4.05486">
        <ele>90</ele>
        <time>2026-08-24T12:46:04Z</time>
      </trkpt>
      <trkpt lat="49.07642" lon="4.05494">
        <ele>90</ele>
        <time>2026-08-24T12:46:05Z</time>
      </trkpt>
      <trkpt lat="49.07647" lon="4.05503">
        <ele>90</ele>
        <time>2026-08-24T12:46:06Z</time>
      </trkpt>
      <trkpt lat="49.07652" lon="4.05512">
        <ele>89.8</ele>
        <time>2026-08-24T12:46:07Z</time>
      </trkpt>
      <trkpt lat="49.07657" lon="4.0552">
        <ele>89.8</ele>
        <time>2026-08-24T12:46:08Z</time>
      </trkpt>
      <trkpt lat="49.07662" lon="4.05529">
        <ele>89.6</ele>
        <time>2026-08-24T12:46:09Z</time>
      </trkpt>
      <trkpt lat="49.07667" lon="4.05538">
        <ele>89.4</ele>
        <time>2026-08-24T12:46:10Z</time>
      </trkpt>
      <trkpt lat="49.07671" lon="4.05546">
        <ele>89.4</ele>
        <time>2026-08-24T12:46:11Z</time>
      </trkpt>
      <trkpt lat="49.07676" lon="4.05554">
        <ele>89.2</ele>
        <time>2026-08-24T12:46:12Z</time>
      </trkpt>
      <trkpt lat="49.0768" lon="4.05562">
        <ele>89.2</ele>
        <time>2026-08-24T12:46:13Z</time>
      </trkpt>
      <trkpt lat="49.07685" lon="4.0557">
        <ele>89.2</ele>
        <time>2026-08-24T12:46:14Z</time>
      </trkpt>
      <trkpt lat="49.07689" lon="4.05578">
        <ele>89</ele>
        <time>2026-08-24T12:46:15Z</time>
      </trkpt>
      <trkpt lat="49.07694" lon="4.05585">
        <ele>89</ele>
        <time>2026-08-24T12:46:16Z</time>
      </trkpt>
      <trkpt lat="49.07698" lon="4.05593">
        <ele>89.2</ele>
        <time>2026-08-24T12:46:17Z</time>
      </trkpt>
      <trkpt lat="49.07702" lon="4.056">
        <ele>89.4</ele>
        <time>2026-08-24T12:46:18Z</time>
      </trkpt>
      <trkpt lat="49.07706" lon="4.05608">
        <ele>89.6</ele>
        <time>2026-08-24T12:46:19Z</time>
      </trkpt>
      <trkpt lat="49.0771" lon="4.05615">
        <ele>89.8</ele>
        <time>2026-08-24T12:46:20Z</time>
      </trkpt>
      <trkpt lat="49.07714" lon="4.05622">
        <ele>90</ele>
        <time>2026-08-24T12:46:21Z</time>
      </trkpt>
      <trkpt lat="49.07718" lon="4.05629">
        <ele>90.2</ele>
        <time>2026-08-24T12:46:22Z</time>
      </trkpt>
      <trkpt lat="49.07722" lon="4.05636">
        <ele>90.4</ele>
        <time>2026-08-24T12:46:23Z</time>
      </trkpt>
      <trkpt lat="49.07726" lon="4.05643">
        <ele>90.4</ele>
        <time>2026-08-24T12:46:24Z</time>
      </trkpt>
      <trkpt lat="49.07729" lon="4.0565">
        <ele>90.6</ele>
        <time>2026-08-24T12:46:25Z</time>
      </trkpt>
      <trkpt lat="49.07733" lon="4.05656">
        <ele>90.6</ele>
        <time>2026-08-24T12:46:26Z</time>
      </trkpt>
      <trkpt lat="49.07737" lon="4.05662">
        <ele>90.8</ele>
        <time>2026-08-24T12:46:27Z</time>
      </trkpt>
      <trkpt lat="49.07741" lon="4.05669">
        <ele>90.8</ele>
        <time>2026-08-24T12:46:28Z</time>
      </trkpt>
      <trkpt lat="49.07744" lon="4.05675">
        <ele>91</ele>
        <time>2026-08-24T12:46:29Z</time>
      </trkpt>
      <trkpt lat="49.07748" lon="4.05681">
        <ele>91.2</ele>
        <time>2026-08-24T12:46:30Z</time>
      </trkpt>
      <trkpt lat="49.07752" lon="4.05687">
        <ele>91.2</ele>
        <time>2026-08-24T12:46:31Z</time>
      </trkpt>
      <trkpt lat="49.07755" lon="4.05694">
        <ele>91.2</ele>
        <time>2026-08-24T12:46:32Z</time>
      </trkpt>
      <trkpt lat="49.07759" lon="4.057">
        <ele>91.2</ele>
        <time>2026-08-24T12:46:33Z</time>
      </trkpt>
      <trkpt lat="49.07763" lon="4.05707">
        <ele>91.2</ele>
        <time>2026-08-24T12:46:34Z</time>
      </trkpt>
      <trkpt lat="49.07766" lon="4.05713">
        <ele>91.2</ele>
        <time>2026-08-24T12:46:35Z</time>
      </trkpt>
      <trkpt lat="49.0777" lon="4.0572">
        <ele>91.4</ele>
        <time>2026-08-24T12:46:36Z</time>
      </trkpt>
      <trkpt lat="49.07774" lon="4.05726">
        <ele>91.6</ele>
        <time>2026-08-24T12:46:37Z</time>
      </trkpt>
      <trkpt lat="49.07778" lon="4.05733">
        <ele>91.8</ele>
        <time>2026-08-24T12:46:38Z</time>
      </trkpt>
      <trkpt lat="49.07782" lon="4.0574">
        <ele>91.6</ele>
        <time>2026-08-24T12:46:39Z</time>
      </trkpt>
      <trkpt lat="49.07786" lon="4.05747">
        <ele>91.6</ele>
        <time>2026-08-24T12:46:40Z</time>
      </trkpt>
      <trkpt lat="49.0779" lon="4.05754">
        <ele>91.8</ele>
        <time>2026-08-24T12:46:41Z</time>
      </trkpt>
      <trkpt lat="49.07793" lon="4.05761">
        <ele>91.8</ele>
        <time>2026-08-24T12:46:42Z</time>
      </trkpt>
      <trkpt lat="49.07797" lon="4.05768">
        <ele>91.8</ele>
        <time>2026-08-24T12:46:43Z</time>
      </trkpt>
      <trkpt lat="49.07801" lon="4.05776">
        <ele>91.8</ele>
        <time>2026-08-24T12:46:44Z</time>
      </trkpt>
      <trkpt lat="49.07805" lon="4.05783">
        <ele>91.8</ele>
        <time>2026-08-24T12:46:45Z</time>
      </trkpt>
      <trkpt lat="49.07809" lon="4.05791">
        <ele>91.6</ele>
        <time>2026-08-24T12:46:46Z</time>
      </trkpt>
      <trkpt lat="49.07813" lon="4.05799">
        <ele>91.4</ele>
        <time>2026-08-24T12:46:47Z</time>
      </trkpt>
      <trkpt lat="49.07817" lon="4.05806">
        <ele>91.2</ele>
        <time>2026-08-24T12:46:48Z</time>
      </trkpt>
      <trkpt lat="49.07822" lon="4.05814">
        <ele>91</ele>
        <time>2026-08-24T12:46:49Z</time>
      </trkpt>
      <trkpt lat="49.07826" lon="4.05822">
        <ele>91</ele>
        <time>2026-08-24T12:46:50Z</time>
      </trkpt>
      <trkpt lat="49.0783" lon="4.0583">
        <ele>91</ele>
        <time>2026-08-24T12:46:51Z</time>
      </trkpt>
      <trkpt lat="49.07834" lon="4.05838">
        <ele>91</ele>
        <time>2026-08-24T12:46:52Z</time>
      </trkpt>
      <trkpt lat="49.07838" lon="4.05847">
        <ele>91</ele>
        <time>2026-08-24T12:46:53Z</time>
      </trkpt>
      <trkpt lat="49.07842" lon="4.05854">
        <ele>91</ele>
        <time>2026-08-24T12:46:54Z</time>
      </trkpt>
      <trkpt lat="49.07846" lon="4.05862">
        <ele>91</ele>
        <time>2026-08-24T12:46:55Z</time>
      </trkpt>
      <trkpt lat="49.07851" lon="4.0587">
        <ele>91.2</ele>
        <time>2026-08-24T12:46:56Z</time>
      </trkpt>
      <trkpt lat="49.07855" lon="4.05878">
        <ele>91.2</ele>
        <time>2026-08-24T12:46:57Z</time>
      </trkpt>
      <trkpt lat="49.07859" lon="4.05886">
        <ele>91.2</ele>
        <time>2026-08-24T12:46:58Z</time>
      </trkpt>
      <trkpt lat="49.07864" lon="4.05894">
        <ele>91.2</ele>
        <time>2026-08-24T12:46:59Z</time>
      </trkpt>
      <trkpt lat="49.07868" lon="4.05903">
        <ele>91</ele>
        <time>2026-08-24T12:47:00Z</time>
      </trkpt>
      <trkpt lat="49.07873" lon="4.05911">
        <ele>90.6</ele>
        <time>2026-08-24T12:47:01Z</time>
      </trkpt>
      <trkpt lat="49.07877" lon="4.0592">
        <ele>90.4</ele>
        <time>2026-08-24T12:47:02Z</time>
      </trkpt>
      <trkpt lat="49.07881" lon="4.05929">
        <ele>90.2</ele>
        <time>2026-08-24T12:47:03Z</time>
      </trkpt>
      <trkpt lat="49.07886" lon="4.05937">
        <ele>90</ele>
        <time>2026-08-24T12:47:04Z</time>
      </trkpt>
      <trkpt lat="49.07891" lon="4.05946">
        <ele>90</ele>
        <time>2026-08-24T12:47:05Z</time>
      </trkpt>
      <trkpt lat="49.07895" lon="4.05955">
        <ele>89.8</ele>
        <time>2026-08-24T12:47:06Z</time>
      </trkpt>
      <trkpt lat="49.079" lon="4.05964">
        <ele>89.6</ele>
        <time>2026-08-24T12:47:07Z</time>
      </trkpt>
      <trkpt lat="49.07904" lon="4.05973">
        <ele>89.6</ele>
        <time>2026-08-24T12:47:08Z</time>
      </trkpt>
      <trkpt lat="49.07908" lon="4.05982">
        <ele>89.4</ele>
        <time>2026-08-24T12:47:09Z</time>
      </trkpt>
      <trkpt lat="49.07913" lon="4.05991">
        <ele>89.4</ele>
        <time>2026-08-24T12:47:10Z</time>
      </trkpt>
      <trkpt lat="49.07916" lon="4.06">
        <ele>89.2</ele>
        <time>2026-08-24T12:47:11Z</time>
      </trkpt>
      <trkpt lat="49.0792" lon="4.0601">
        <ele>89.2</ele>
        <time>2026-08-24T12:47:12Z</time>
      </trkpt>
      <trkpt lat="49.07924" lon="4.0602">
        <ele>89.2</ele>
        <time>2026-08-24T12:47:13Z</time>
      </trkpt>
      <trkpt lat="49.07928" lon="4.0603">
        <ele>89.2</ele>
        <time>2026-08-24T12:47:14Z</time>
      </trkpt>
      <trkpt lat="49.07932" lon="4.0604">
        <ele>89</ele>
        <time>2026-08-24T12:47:15Z</time>
      </trkpt>
      <trkpt lat="49.07936" lon="4.0605">
        <ele>89</ele>
        <time>2026-08-24T12:47:16Z</time>
      </trkpt>
      <trkpt lat="49.0794" lon="4.0606">
        <ele>88.8</ele>
        <time>2026-08-24T12:47:17Z</time>
      </trkpt>
      <trkpt lat="49.07943" lon="4.0607">
        <ele>88.4</ele>
        <time>2026-08-24T12:47:18Z</time>
      </trkpt>
      <trkpt lat="49.07946" lon="4.0608">
        <ele>88.4</ele>
        <time>2026-08-24T12:47:19Z</time>
      </trkpt>
      <trkpt lat="49.0795" lon="4.0609">
        <ele>88.2</ele>
        <time>2026-08-24T12:47:20Z</time>
      </trkpt>
      <trkpt lat="49.07953" lon="4.061">
        <ele>88.2</ele>
        <time>2026-08-24T12:47:21Z</time>
      </trkpt>
      <trkpt lat="49.07957" lon="4.0611">
        <ele>88</ele>
        <time>2026-08-24T12:47:22Z</time>
      </trkpt>
      <trkpt lat="49.07961" lon="4.0612">
        <ele>88</ele>
        <time>2026-08-24T12:47:23Z</time>
      </trkpt>
      <trkpt lat="49.07964" lon="4.0613">
        <ele>87.8</ele>
        <time>2026-08-24T12:47:24Z</time>
      </trkpt>
      <trkpt lat="49.07968" lon="4.0614">
        <ele>87.8</ele>
        <time>2026-08-24T12:47:25Z</time>
      </trkpt>
      <trkpt lat="49.07971" lon="4.06149">
        <ele>87.6</ele>
        <time>2026-08-24T12:47:26Z</time>
      </trkpt>
      <trkpt lat="49.07975" lon="4.06159">
        <ele>87.6</ele>
        <time>2026-08-24T12:47:27Z</time>
      </trkpt>
      <trkpt lat="49.07978" lon="4.06168">
        <ele>87.8</ele>
        <time>2026-08-24T12:47:28Z</time>
      </trkpt>
      <trkpt lat="49.07981" lon="4.06178">
        <ele>87.8</ele>
        <time>2026-08-24T12:47:29Z</time>
      </trkpt>
      <trkpt lat="49.07985" lon="4.06187">
        <ele>87.8</ele>
        <time>2026-08-24T12:47:30Z</time>
      </trkpt>
      <trkpt lat="49.07988" lon="4.06196">
        <ele>87.8</ele>
        <time>2026-08-24T12:47:31Z</time>
      </trkpt>
      <trkpt lat="49.07991" lon="4.06205">
        <ele>87.8</ele>
        <time>2026-08-24T12:47:32Z</time>
      </trkpt>
      <trkpt lat="49.07994" lon="4.06214">
        <ele>87.8</ele>
        <time>2026-08-24T12:47:33Z</time>
      </trkpt>
      <trkpt lat="49.07998" lon="4.06223">
        <ele>88</ele>
        <time>2026-08-24T12:47:34Z</time>
      </trkpt>
      <trkpt lat="49.08001" lon="4.06232">
        <ele>88</ele>
        <time>2026-08-24T12:47:35Z</time>
      </trkpt>
      <trkpt lat="49.08005" lon="4.06241">
        <ele>87.8</ele>
        <time>2026-08-24T12:47:36Z</time>
      </trkpt>
      <trkpt lat="49.08009" lon="4.0625">
        <ele>87.8</ele>
        <time>2026-08-24T12:47:37Z</time>
      </trkpt>
      <trkpt lat="49.08012" lon="4.06259">
        <ele>87.8</ele>
        <time>2026-08-24T12:47:38Z</time>
      </trkpt>
      <trkpt lat="49.08016" lon="4.06269">
        <ele>87.8</ele>
        <time>2026-08-24T12:47:39Z</time>
      </trkpt>
      <trkpt lat="49.08019" lon="4.06277">
        <ele>87.8</ele>
        <time>2026-08-24T12:47:40Z</time>
      </trkpt>
      <trkpt lat="49.08023" lon="4.06287">
        <ele>87.8</ele>
        <time>2026-08-24T12:47:41Z</time>
      </trkpt>
      <trkpt lat="49.08027" lon="4.06295">
        <ele>88</ele>
        <time>2026-08-24T12:47:42Z</time>
      </trkpt>
      <trkpt lat="49.08031" lon="4.06304">
        <ele>88</ele>
        <time>2026-08-24T12:47:43Z</time>
      </trkpt>
      <trkpt lat="49.08034" lon="4.06312">
        <ele>88</ele>
        <time>2026-08-24T12:47:44Z</time>
      </trkpt>
      <trkpt lat="49.08038" lon="4.0632">
        <ele>88</ele>
        <time>2026-08-24T12:47:45Z</time>
      </trkpt>
      <trkpt lat="49.08042" lon="4.06329">
        <ele>88.2</ele>
        <time>2026-08-24T12:47:46Z</time>
      </trkpt>
      <trkpt lat="49.08045" lon="4.06337">
        <ele>88.2</ele>
        <time>2026-08-24T12:47:47Z</time>
      </trkpt>
      <trkpt lat="49.08049" lon="4.06345">
        <ele>88.4</ele>
        <time>2026-08-24T12:47:48Z</time>
      </trkpt>
      <trkpt lat="49.08053" lon="4.06353">
        <ele>88.4</ele>
        <time>2026-08-24T12:47:49Z</time>
      </trkpt>
      <trkpt lat="49.08056" lon="4.0636">
        <ele>88.6</ele>
        <time>2026-08-24T12:47:50Z</time>
      </trkpt>
      <trkpt lat="49.08059" lon="4.06368">
        <ele>88.6</ele>
        <time>2026-08-24T12:47:51Z</time>
      </trkpt>
      <trkpt lat="49.08063" lon="4.06376">
        <ele>88.6</ele>
        <time>2026-08-24T12:47:52Z</time>
      </trkpt>
      <trkpt lat="49.08066" lon="4.06383">
        <ele>88.8</ele>
        <time>2026-08-24T12:47:53Z</time>
      </trkpt>
      <trkpt lat="49.0807" lon="4.06391">
        <ele>88.8</ele>
        <time>2026-08-24T12:47:54Z</time>
      </trkpt>
      <trkpt lat="49.08073" lon="4.06399">
        <ele>88.8</ele>
        <time>2026-08-24T12:47:55Z</time>
      </trkpt>
      <trkpt lat="49.08077" lon="4.06407">
        <ele>88.6</ele>
        <time>2026-08-24T12:47:56Z</time>
      </trkpt>
      <trkpt lat="49.08081" lon="4.06415">
        <ele>88.6</ele>
        <time>2026-08-24T12:47:57Z</time>
      </trkpt>
      <trkpt lat="49.08085" lon="4.06422">
        <ele>88.2</ele>
        <time>2026-08-24T12:47:58Z</time>
      </trkpt>
      <trkpt lat="49.08088" lon="4.0643">
        <ele>88</ele>
        <time>2026-08-24T12:47:59Z</time>
      </trkpt>
      <trkpt lat="49.08092" lon="4.06437">
        <ele>88</ele>
        <time>2026-08-24T12:48:00Z</time>
      </trkpt>
      <trkpt lat="49.08095" lon="4.06445">
        <ele>88</ele>
        <time>2026-08-24T12:48:01Z</time>
      </trkpt>
      <trkpt lat="49.08099" lon="4.06452">
        <ele>88</ele>
        <time>2026-08-24T12:48:02Z</time>
      </trkpt>
      <trkpt lat="49.08102" lon="4.0646">
        <ele>88.2</ele>
        <time>2026-08-24T12:48:03Z</time>
      </trkpt>
      <trkpt lat="49.08105" lon="4.06468">
        <ele>88.2</ele>
        <time>2026-08-24T12:48:04Z</time>
      </trkpt>
      <trkpt lat="49.08107" lon="4.06475">
        <ele>88.2</ele>
        <time>2026-08-24T12:48:05Z</time>
      </trkpt>
      <trkpt lat="49.08109" lon="4.06483">
        <ele>88.2</ele>
        <time>2026-08-24T12:48:06Z</time>
      </trkpt>
      <trkpt lat="49.08109" lon="4.0649">
        <ele>88.4</ele>
        <time>2026-08-24T12:48:07Z</time>
      </trkpt>
      <trkpt lat="49.08109" lon="4.06498">
        <ele>88.4</ele>
        <time>2026-08-24T12:48:08Z</time>
      </trkpt>
      <trkpt lat="49.08109" lon="4.06506">
        <ele>88.6</ele>
        <time>2026-08-24T12:48:09Z</time>
      </trkpt>
      <trkpt lat="49.08108" lon="4.06514">
        <ele>88.6</ele>
        <time>2026-08-24T12:48:10Z</time>
      </trkpt>
      <trkpt lat="49.08108" lon="4.06523">
        <ele>88.8</ele>
        <time>2026-08-24T12:48:11Z</time>
      </trkpt>
      <trkpt lat="49.08107" lon="4.06531">
        <ele>89</ele>
        <time>2026-08-24T12:48:12Z</time>
      </trkpt>
      <trkpt lat="49.08106" lon="4.06539">
        <ele>89.4</ele>
        <time>2026-08-24T12:48:13Z</time>
      </trkpt>
      <trkpt lat="49.08105" lon="4.06547">
        <ele>89.6</ele>
        <time>2026-08-24T12:48:14Z</time>
      </trkpt>
      <trkpt lat="49.08105" lon="4.06556">
        <ele>89.8</ele>
        <time>2026-08-24T12:48:15Z</time>
      </trkpt>
      <trkpt lat="49.08104" lon="4.06565">
        <ele>89.8</ele>
        <time>2026-08-24T12:48:16Z</time>
      </trkpt>
      <trkpt lat="49.08102" lon="4.06573">
        <ele>89.8</ele>
        <time>2026-08-24T12:48:17Z</time>
      </trkpt>
      <trkpt lat="49.08102" lon="4.06582">
        <ele>89.6</ele>
        <time>2026-08-24T12:48:18Z</time>
      </trkpt>
      <trkpt lat="49.08101" lon="4.06591">
        <ele>89.4</ele>
        <time>2026-08-24T12:48:19Z</time>
      </trkpt>
      <trkpt lat="49.081" lon="4.066">
        <ele>89.4</ele>
        <time>2026-08-24T12:48:20Z</time>
      </trkpt>
      <trkpt lat="49.08099" lon="4.06609">
        <ele>89.4</ele>
        <time>2026-08-24T12:48:21Z</time>
      </trkpt>
      <trkpt lat="49.08099" lon="4.06619">
        <ele>89.6</ele>
        <time>2026-08-24T12:48:22Z</time>
      </trkpt>
      <trkpt lat="49.08098" lon="4.06628">
        <ele>89.6</ele>
        <time>2026-08-24T12:48:23Z</time>
      </trkpt>
      <trkpt lat="49.08099" lon="4.06637">
        <ele>89.8</ele>
        <time>2026-08-24T12:48:24Z</time>
      </trkpt>
      <trkpt lat="49.08099" lon="4.06647">
        <ele>89.8</ele>
        <time>2026-08-24T12:48:25Z</time>
      </trkpt>
      <trkpt lat="49.08101" lon="4.06656">
        <ele>89.8</ele>
        <time>2026-08-24T12:48:26Z</time>
      </trkpt>
      <trkpt lat="49.08102" lon="4.06666">
        <ele>89.6</ele>
        <time>2026-08-24T12:48:27Z</time>
      </trkpt>
      <trkpt lat="49.08104" lon="4.06675">
        <ele>89.4</ele>
        <time>2026-08-24T12:48:28Z</time>
      </trkpt>
      <trkpt lat="49.08105" lon="4.06684">
        <ele>89.4</ele>
        <time>2026-08-24T12:48:29Z</time>
      </trkpt>
      <trkpt lat="49.08107" lon="4.06693">
        <ele>89.4</ele>
        <time>2026-08-24T12:48:30Z</time>
      </trkpt>
      <trkpt lat="49.08109" lon="4.06702">
        <ele>89.4</ele>
        <time>2026-08-24T12:48:31Z</time>
      </trkpt>
      <trkpt lat="49.08111" lon="4.06711">
        <ele>89.4</ele>
        <time>2026-08-24T12:48:32Z</time>
      </trkpt>
      <trkpt lat="49.08113" lon="4.0672">
        <ele>89.2</ele>
        <time>2026-08-24T12:48:33Z</time>
      </trkpt>
      <trkpt lat="49.08115" lon="4.06728">
        <ele>89.2</ele>
        <time>2026-08-24T12:48:34Z</time>
      </trkpt>
      <trkpt lat="49.08117" lon="4.06737">
        <ele>89.2</ele>
        <time>2026-08-24T12:48:35Z</time>
      </trkpt>
      <trkpt lat="49.0812" lon="4.06746">
        <ele>89.2</ele>
        <time>2026-08-24T12:48:36Z</time>
      </trkpt>
      <trkpt lat="49.08122" lon="4.06754">
        <ele>89.4</ele>
        <time>2026-08-24T12:48:37Z</time>
      </trkpt>
      <trkpt lat="49.08125" lon="4.06763">
        <ele>89.6</ele>
        <time>2026-08-24T12:48:38Z</time>
      </trkpt>
      <trkpt lat="49.08127" lon="4.06772">
        <ele>89.8</ele>
        <time>2026-08-24T12:48:39Z</time>
      </trkpt>
      <trkpt lat="49.08129" lon="4.0678">
        <ele>89.8</ele>
        <time>2026-08-24T12:48:40Z</time>
      </trkpt>
      <trkpt lat="49.08131" lon="4.06789">
        <ele>89.8</ele>
        <time>2026-08-24T12:48:41Z</time>
      </trkpt>
      <trkpt lat="49.08133" lon="4.06799">
        <ele>89.8</ele>
        <time>2026-08-24T12:48:42Z</time>
      </trkpt>
      <trkpt lat="49.08135" lon="4.06808">
        <ele>89.8</ele>
        <time>2026-08-24T12:48:43Z</time>
      </trkpt>
      <trkpt lat="49.08136" lon="4.06817">
        <ele>89.8</ele>
        <time>2026-08-24T12:48:44Z</time>
      </trkpt>
      <trkpt lat="49.08138" lon="4.06827">
        <ele>90</ele>
        <time>2026-08-24T12:48:45Z</time>
      </trkpt>
      <trkpt lat="49.08139" lon="4.06837">
        <ele>90</ele>
        <time>2026-08-24T12:48:46Z</time>
      </trkpt>
      <trkpt lat="49.08141" lon="4.06846">
        <ele>90</ele>
        <time>2026-08-24T12:48:47Z</time>
      </trkpt>
      <trkpt lat="49.08142" lon="4.06856">
        <ele>90</ele>
        <time>2026-08-24T12:48:48Z</time>
      </trkpt>
      <trkpt lat="49.08144" lon="4.06865">
        <ele>90</ele>
        <time>2026-08-24T12:48:49Z</time>
      </trkpt>
      <trkpt lat="49.08146" lon="4.06875">
        <ele>90</ele>
        <time>2026-08-24T12:48:50Z</time>
      </trkpt>
      <trkpt lat="49.08147" lon="4.06884">
        <ele>90</ele>
        <time>2026-08-24T12:48:51Z</time>
      </trkpt>
      <trkpt lat="49.08149" lon="4.06894">
        <ele>90</ele>
        <time>2026-08-24T12:48:52Z</time>
      </trkpt>
      <trkpt lat="49.0815" lon="4.06903">
        <ele>90</ele>
        <time>2026-08-24T12:48:53Z</time>
      </trkpt>
      <trkpt lat="49.08151" lon="4.06913">
        <ele>90</ele>
        <time>2026-08-24T12:48:54Z</time>
      </trkpt>
      <trkpt lat="49.08153" lon="4.06922">
        <ele>90</ele>
        <time>2026-08-24T12:48:55Z</time>
      </trkpt>
      <trkpt lat="49.08153" lon="4.06932">
        <ele>89.8</ele>
        <time>2026-08-24T12:48:56Z</time>
      </trkpt>
      <trkpt lat="49.08154" lon="4.06942">
        <ele>89.8</ele>
        <time>2026-08-24T12:48:57Z</time>
      </trkpt>
      <trkpt lat="49.08155" lon="4.06952">
        <ele>89.8</ele>
        <time>2026-08-24T12:48:58Z</time>
      </trkpt>
      <trkpt lat="49.08157" lon="4.06961">
        <ele>89.8</ele>
        <time>2026-08-24T12:48:59Z</time>
      </trkpt>
      <trkpt lat="49.08158" lon="4.06971">
        <ele>89.8</ele>
        <time>2026-08-24T12:49:00Z</time>
      </trkpt>
      <trkpt lat="49.0816" lon="4.0698">
        <ele>90</ele>
        <time>2026-08-24T12:49:01Z</time>
      </trkpt>
      <trkpt lat="49.08162" lon="4.0699">
        <ele>90.4</ele>
        <time>2026-08-24T12:49:02Z</time>
      </trkpt>
      <trkpt lat="49.08163" lon="4.06999">
        <ele>90.6</ele>
        <time>2026-08-24T12:49:03Z</time>
      </trkpt>
      <trkpt lat="49.08165" lon="4.07008">
        <ele>90.8</ele>
        <time>2026-08-24T12:49:04Z</time>
      </trkpt>
      <trkpt lat="49.08167" lon="4.07017">
        <ele>91</ele>
        <time>2026-08-24T12:49:05Z</time>
      </trkpt>
      <trkpt lat="49.08169" lon="4.07025">
        <ele>91.2</ele>
        <time>2026-08-24T12:49:06Z</time>
      </trkpt>
      <trkpt lat="49.08171" lon="4.07034">
        <ele>91.4</ele>
        <time>2026-08-24T12:49:07Z</time>
      </trkpt>
      <trkpt lat="49.08171" lon="4.07043">
        <ele>91.6</ele>
        <time>2026-08-24T12:49:08Z</time>
      </trkpt>
      <trkpt lat="49.08171" lon="4.07051">
        <ele>91.6</ele>
        <time>2026-08-24T12:49:09Z</time>
      </trkpt>
      <trkpt lat="49.0817" lon="4.0706">
        <ele>91.8</ele>
        <time>2026-08-24T12:49:10Z</time>
      </trkpt>
      <trkpt lat="49.08169" lon="4.0707">
        <ele>91.8</ele>
        <time>2026-08-24T12:49:11Z</time>
      </trkpt>
      <trkpt lat="49.08167" lon="4.07079">
        <ele>91.8</ele>
        <time>2026-08-24T12:49:12Z</time>
      </trkpt>
      <trkpt lat="49.08166" lon="4.07089">
        <ele>91.8</ele>
        <time>2026-08-24T12:49:13Z</time>
      </trkpt>
      <trkpt lat="49.08165" lon="4.07099">
        <ele>91.6</ele>
        <time>2026-08-24T12:49:14Z</time>
      </trkpt>
      <trkpt lat="49.08164" lon="4.07109">
        <ele>91.6</ele>
        <time>2026-08-24T12:49:15Z</time>
      </trkpt>
      <trkpt lat="49.08162" lon="4.07119">
        <ele>91.6</ele>
        <time>2026-08-24T12:49:16Z</time>
      </trkpt>
      <trkpt lat="49.0816" lon="4.07128">
        <ele>91.6</ele>
        <time>2026-08-24T12:49:17Z</time>
      </trkpt>
      <trkpt lat="49.08157" lon="4.07138">
        <ele>91.4</ele>
        <time>2026-08-24T12:49:18Z</time>
      </trkpt>
      <trkpt lat="49.08153" lon="4.07146">
        <ele>91.4</ele>
        <time>2026-08-24T12:49:19Z</time>
      </trkpt>
      <trkpt lat="49.0815" lon="4.07154">
        <ele>91.4</ele>
        <time>2026-08-24T12:49:20Z</time>
      </trkpt>
      <trkpt lat="49.08146" lon="4.07161">
        <ele>91.4</ele>
        <time>2026-08-24T12:49:21Z</time>
      </trkpt>
      <trkpt lat="49.08141" lon="4.07168">
        <ele>91.4</ele>
        <time>2026-08-24T12:49:22Z</time>
      </trkpt>
      <trkpt lat="49.08137" lon="4.07173">
        <ele>91.6</ele>
        <time>2026-08-24T12:49:23Z</time>
      </trkpt>
      <trkpt lat="49.08134" lon="4.07179">
        <ele>91.6</ele>
        <time>2026-08-24T12:49:24Z</time>
      </trkpt>
      <trkpt lat="49.08132" lon="4.07185">
        <ele>91.8</ele>
        <time>2026-08-24T12:49:25Z</time>
      </trkpt>
      <trkpt lat="49.08131" lon="4.07192">
        <ele>91.8</ele>
        <time>2026-08-24T12:49:26Z</time>
      </trkpt>
      <trkpt lat="49.08132" lon="4.072">
        <ele>92</ele>
        <time>2026-08-24T12:49:27Z</time>
      </trkpt>
      <trkpt lat="49.08134" lon="4.07208">
        <ele>91.8</ele>
        <time>2026-08-24T12:49:28Z</time>
      </trkpt>
      <trkpt lat="49.08135" lon="4.07216">
        <ele>91.8</ele>
        <time>2026-08-24T12:49:29Z</time>
      </trkpt>
      <trkpt lat="49.08137" lon="4.07225">
        <ele>91.6</ele>
        <time>2026-08-24T12:49:30Z</time>
      </trkpt>
      <trkpt lat="49.08139" lon="4.07234">
        <ele>91.4</ele>
        <time>2026-08-24T12:49:31Z</time>
      </trkpt>
      <trkpt lat="49.0814" lon="4.07242">
        <ele>91.4</ele>
        <time>2026-08-24T12:49:32Z</time>
      </trkpt>
      <trkpt lat="49.08142" lon="4.07251">
        <ele>91.6</ele>
        <time>2026-08-24T12:49:33Z</time>
      </trkpt>
      <trkpt lat="49.08144" lon="4.07261">
        <ele>91.8</ele>
        <time>2026-08-24T12:49:34Z</time>
      </trkpt>
      <trkpt lat="49.08146" lon="4.0727">
        <ele>92</ele>
        <time>2026-08-24T12:49:35Z</time>
      </trkpt>
      <trkpt lat="49.08148" lon="4.07279">
        <ele>92</ele>
        <time>2026-08-24T12:49:36Z</time>
      </trkpt>
      <trkpt lat="49.0815" lon="4.07288">
        <ele>92.2</ele>
        <time>2026-08-24T12:49:37Z</time>
      </trkpt>
      <trkpt lat="49.08151" lon="4.07297">
        <ele>92</ele>
        <time>2026-08-24T12:49:38Z</time>
      </trkpt>
      <trkpt lat="49.08154" lon="4.07306">
        <ele>92</ele>
        <time>2026-08-24T12:49:39Z</time>
      </trkpt>
      <trkpt lat="49.08156" lon="4.07316">
        <ele>91.8</ele>
        <time>2026-08-24T12:49:40Z</time>
      </trkpt>
      <trkpt lat="49.08158" lon="4.07325">
        <ele>91.8</ele>
        <time>2026-08-24T12:49:41Z</time>
      </trkpt>
      <trkpt lat="49.0816" lon="4.07334">
        <ele>91.8</ele>
        <time>2026-08-24T12:49:42Z</time>
      </trkpt>
      <trkpt lat="49.08162" lon="4.07343">
        <ele>91.6</ele>
        <time>2026-08-24T12:49:43Z</time>
      </trkpt>
      <trkpt lat="49.08164" lon="4.07352">
        <ele>91.4</ele>
        <time>2026-08-24T12:49:44Z</time>
      </trkpt>
      <trkpt lat="49.08166" lon="4.07361">
        <ele>91.4</ele>
        <time>2026-08-24T12:49:45Z</time>
      </trkpt>
      <trkpt lat="49.08168" lon="4.0737">
        <ele>91.2</ele>
        <time>2026-08-24T12:49:46Z</time>
      </trkpt>
      <trkpt lat="49.08169" lon="4.0738">
        <ele>91.2</ele>
        <time>2026-08-24T12:49:47Z</time>
      </trkpt>
      <trkpt lat="49.08171" lon="4.07389">
        <ele>91.2</ele>
        <time>2026-08-24T12:49:48Z</time>
      </trkpt>
      <trkpt lat="49.08172" lon="4.07398">
        <ele>91.4</ele>
        <time>2026-08-24T12:49:49Z</time>
      </trkpt>
      <trkpt lat="49.08174" lon="4.07407">
        <ele>91.4</ele>
        <time>2026-08-24T12:49:50Z</time>
      </trkpt>
      <trkpt lat="49.08176" lon="4.07416">
        <ele>91.4</ele>
        <time>2026-08-24T12:49:51Z</time>
      </trkpt>
      <trkpt lat="49.08178" lon="4.07425">
        <ele>91.4</ele>
        <time>2026-08-24T12:49:52Z</time>
      </trkpt>
      <trkpt lat="49.0818" lon="4.07434">
        <ele>91.6</ele>
        <time>2026-08-24T12:49:53Z</time>
      </trkpt>
      <trkpt lat="49.08181" lon="4.07442">
        <ele>91.6</ele>
        <time>2026-08-24T12:49:54Z</time>
      </trkpt>
      <trkpt lat="49.08183" lon="4.07451">
        <ele>91.6</ele>
        <time>2026-08-24T12:49:55Z</time>
      </trkpt>
      <trkpt lat="49.08185" lon="4.0746">
        <ele>91.6</ele>
        <time>2026-08-24T12:49:56Z</time>
      </trkpt>
      <trkpt lat="49.08187" lon="4.07469">
        <ele>91.8</ele>
        <time>2026-08-24T12:49:57Z</time>
      </trkpt>
      <trkpt lat="49.08189" lon="4.07478">
        <ele>92</ele>
        <time>2026-08-24T12:49:58Z</time>
      </trkpt>
      <trkpt lat="49.08191" lon="4.07486">
        <ele>92.4</ele>
        <time>2026-08-24T12:49:59Z</time>
      </trkpt>
      <trkpt lat="49.08193" lon="4.07495">
        <ele>92.8</ele>
        <time>2026-08-24T12:50:00Z</time>
      </trkpt>
      <trkpt lat="49.08195" lon="4.07504">
        <ele>93</ele>
        <time>2026-08-24T12:50:01Z</time>
      </trkpt>
      <trkpt lat="49.08197" lon="4.07512">
        <ele>93.2</ele>
        <time>2026-08-24T12:50:02Z</time>
      </trkpt>
      <trkpt lat="49.08199" lon="4.0752">
        <ele>93.4</ele>
        <time>2026-08-24T12:50:03Z</time>
      </trkpt>
      <trkpt lat="49.08201" lon="4.07528">
        <ele>93.2</ele>
        <time>2026-08-24T12:50:04Z</time>
      </trkpt>
      <trkpt lat="49.08203" lon="4.07537">
        <ele>93.2</ele>
        <time>2026-08-24T12:50:05Z</time>
      </trkpt>
      <trkpt lat="49.08205" lon="4.07546">
        <ele>93</ele>
        <time>2026-08-24T12:50:06Z</time>
      </trkpt>
      <trkpt lat="49.08207" lon="4.07555">
        <ele>92.8</ele>
        <time>2026-08-24T12:50:07Z</time>
      </trkpt>
      <trkpt lat="49.08209" lon="4.07564">
        <ele>92.8</ele>
        <time>2026-08-24T12:50:08Z</time>
      </trkpt>
      <trkpt lat="49.0821" lon="4.07574">
        <ele>92.8</ele>
        <time>2026-08-24T12:50:09Z</time>
      </trkpt>
      <trkpt lat="49.08211" lon="4.07583">
        <ele>93</ele>
        <time>2026-08-24T12:50:10Z</time>
      </trkpt>
      <trkpt lat="49.08211" lon="4.07593">
        <ele>93</ele>
        <time>2026-08-24T12:50:11Z</time>
      </trkpt>
      <trkpt lat="49.08211" lon="4.07603">
        <ele>93.2</ele>
        <time>2026-08-24T12:50:12Z</time>
      </trkpt>
      <trkpt lat="49.08211" lon="4.07613">
        <ele>93.2</ele>
        <time>2026-08-24T12:50:13Z</time>
      </trkpt>
      <trkpt lat="49.0821" lon="4.07622">
        <ele>93.2</ele>
        <time>2026-08-24T12:50:14Z</time>
      </trkpt>
      <trkpt lat="49.0821" lon="4.07632">
        <ele>93.2</ele>
        <time>2026-08-24T12:50:15Z</time>
      </trkpt>
      <trkpt lat="49.0821" lon="4.07641">
        <ele>93.4</ele>
        <time>2026-08-24T12:50:16Z</time>
      </trkpt>
      <trkpt lat="49.0821" lon="4.07651">
        <ele>93.4</ele>
        <time>2026-08-24T12:50:17Z</time>
      </trkpt>
      <trkpt lat="49.0821" lon="4.0766">
        <ele>93.4</ele>
        <time>2026-08-24T12:50:18Z</time>
      </trkpt>
      <trkpt lat="49.08211" lon="4.07669">
        <ele>93.6</ele>
        <time>2026-08-24T12:50:19Z</time>
      </trkpt>
      <trkpt lat="49.08211" lon="4.07678">
        <ele>93.6</ele>
        <time>2026-08-24T12:50:20Z</time>
      </trkpt>
      <trkpt lat="49.08212" lon="4.07687">
        <ele>93.8</ele>
        <time>2026-08-24T12:50:21Z</time>
      </trkpt>
      <trkpt lat="49.08213" lon="4.07695">
        <ele>94.2</ele>
        <time>2026-08-24T12:50:22Z</time>
      </trkpt>
      <trkpt lat="49.08214" lon="4.07703">
        <ele>94.4</ele>
        <time>2026-08-24T12:50:23Z</time>
      </trkpt>
      <trkpt lat="49.08215" lon="4.07709">
        <ele>94.8</ele>
        <time>2026-08-24T12:50:24Z</time>
      </trkpt>
      <trkpt lat="49.08215" lon="4.07716">
        <ele>95</ele>
        <time>2026-08-24T12:50:25Z</time>
      </trkpt>
      <trkpt lat="49.08216" lon="4.07722">
        <ele>95.4</ele>
        <time>2026-08-24T12:50:26Z</time>
      </trkpt>
      <trkpt lat="49.08217" lon="4.07728">
        <ele>95.8</ele>
        <time>2026-08-24T12:50:27Z</time>
      </trkpt>
      <trkpt lat="49.08217" lon="4.07734">
        <ele>96</ele>
        <time>2026-08-24T12:50:28Z</time>
      </trkpt>
      <trkpt lat="49.08218" lon="4.0774">
        <ele>96.2</ele>
        <time>2026-08-24T12:50:29Z</time>
      </trkpt>
      <trkpt lat="49.08218" lon="4.07747">
        <ele>96.4</ele>
        <time>2026-08-24T12:50:30Z</time>
      </trkpt>
      <trkpt lat="49.08217" lon="4.07754">
        <ele>96.4</ele>
        <time>2026-08-24T12:50:31Z</time>
      </trkpt>
      <trkpt lat="49.08217" lon="4.07761">
        <ele>96.2</ele>
        <time>2026-08-24T12:50:32Z</time>
      </trkpt>
      <trkpt lat="49.08216" lon="4.07769">
        <ele>96.2</ele>
        <time>2026-08-24T12:50:33Z</time>
      </trkpt>
      <trkpt lat="49.08216" lon="4.07778">
        <ele>96</ele>
        <time>2026-08-24T12:50:34Z</time>
      </trkpt>
      <trkpt lat="49.08215" lon="4.07786">
        <ele>96</ele>
        <time>2026-08-24T12:50:35Z</time>
      </trkpt>
      <trkpt lat="49.08214" lon="4.07794">
        <ele>96</ele>
        <time>2026-08-24T12:50:36Z</time>
      </trkpt>
      <trkpt lat="49.08214" lon="4.07803">
        <ele>96</ele>
        <time>2026-08-24T12:50:37Z</time>
      </trkpt>
      <trkpt lat="49.08213" lon="4.07812">
        <ele>96.2</ele>
        <time>2026-08-24T12:50:38Z</time>
      </trkpt>
      <trkpt lat="49.08212" lon="4.07821">
        <ele>96.2</ele>
        <time>2026-08-24T12:50:39Z</time>
      </trkpt>
      <trkpt lat="49.08211" lon="4.0783">
        <ele>96.2</ele>
        <time>2026-08-24T12:50:40Z</time>
      </trkpt>
      <trkpt lat="49.0821" lon="4.07839">
        <ele>96.2</ele>
        <time>2026-08-24T12:50:41Z</time>
      </trkpt>
      <trkpt lat="49.08209" lon="4.07848">
        <ele>96.2</ele>
        <time>2026-08-24T12:50:42Z</time>
      </trkpt>
      <trkpt lat="49.08208" lon="4.07857">
        <ele>96</ele>
        <time>2026-08-24T12:50:43Z</time>
      </trkpt>
      <trkpt lat="49.08208" lon="4.07865">
        <ele>96</ele>
        <time>2026-08-24T12:50:44Z</time>
      </trkpt>
      <trkpt lat="49.08208" lon="4.07874">
        <ele>96.2</ele>
        <time>2026-08-24T12:50:45Z</time>
      </trkpt>
      <trkpt lat="49.08208" lon="4.07882">
        <ele>96.2</ele>
        <time>2026-08-24T12:50:46Z</time>
      </trkpt>
      <trkpt lat="49.08208" lon="4.07889">
        <ele>96.2</ele>
        <time>2026-08-24T12:50:47Z</time>
      </trkpt>
      <trkpt lat="49.08208" lon="4.07896">
        <ele>96.4</ele>
        <time>2026-08-24T12:50:48Z</time>
      </trkpt>
      <trkpt lat="49.08208" lon="4.07904">
        <ele>96.6</ele>
        <time>2026-08-24T12:50:49Z</time>
      </trkpt>
      <trkpt lat="49.08208" lon="4.0791">
        <ele>96.8</ele>
        <time>2026-08-24T12:50:50Z</time>
      </trkpt>
      <trkpt lat="49.08208" lon="4.07917">
        <ele>97</ele>
        <time>2026-08-24T12:50:51Z</time>
      </trkpt>
      <trkpt lat="49.08208" lon="4.07924">
        <ele>97.4</ele>
        <time>2026-08-24T12:50:52Z</time>
      </trkpt>
      <trkpt lat="49.08208" lon="4.07931">
        <ele>97.6</ele>
        <time>2026-08-24T12:50:53Z</time>
      </trkpt>
      <trkpt lat="49.08208" lon="4.07937">
        <ele>97.8</ele>
        <time>2026-08-24T12:50:54Z</time>
      </trkpt>
      <trkpt lat="49.08208" lon="4.07944">
        <ele>98</ele>
        <time>2026-08-24T12:50:55Z</time>
      </trkpt>
      <trkpt lat="49.08208" lon="4.07951">
        <ele>98</ele>
        <time>2026-08-24T12:50:56Z</time>
      </trkpt>
      <trkpt lat="49.08208" lon="4.07957">
        <ele>98.2</ele>
        <time>2026-08-24T12:50:57Z</time>
      </trkpt>
      <trkpt lat="49.08207" lon="4.07964">
        <ele>98.2</ele>
        <time>2026-08-24T12:50:58Z</time>
      </trkpt>
      <trkpt lat="49.08207" lon="4.07971">
        <ele>98.4</ele>
        <time>2026-08-24T12:50:59Z</time>
      </trkpt>
      <trkpt lat="49.08205" lon="4.07978">
        <ele>98.4</ele>
        <time>2026-08-24T12:51:00Z</time>
      </trkpt>
      <trkpt lat="49.08203" lon="4.07985">
        <ele>98.4</ele>
        <time>2026-08-24T12:51:01Z</time>
      </trkpt>
      <trkpt lat="49.08201" lon="4.07992">
        <ele>98.4</ele>
        <time>2026-08-24T12:51:02Z</time>
      </trkpt>
      <trkpt lat="49.08198" lon="4.07999">
        <ele>98.2</ele>
        <time>2026-08-24T12:51:03Z</time>
      </trkpt>
      <trkpt lat="49.08195" lon="4.08007">
        <ele>98.2</ele>
        <time>2026-08-24T12:51:04Z</time>
      </trkpt>
      <trkpt lat="49.08192" lon="4.08014">
        <ele>98</ele>
        <time>2026-08-24T12:51:05Z</time>
      </trkpt>
      <trkpt lat="49.08188" lon="4.08021">
        <ele>97.8</ele>
        <time>2026-08-24T12:51:06Z</time>
      </trkpt>
      <trkpt lat="49.08184" lon="4.08028">
        <ele>97.4</ele>
        <time>2026-08-24T12:51:07Z</time>
      </trkpt>
      <trkpt lat="49.08179" lon="4.08035">
        <ele>97</ele>
        <time>2026-08-24T12:51:08Z</time>
      </trkpt>
      <trkpt lat="49.08173" lon="4.08042">
        <ele>96.6</ele>
        <time>2026-08-24T12:51:09Z</time>
      </trkpt>
      <trkpt lat="49.08166" lon="4.08048">
        <ele>96.2</ele>
        <time>2026-08-24T12:51:10Z</time>
      </trkpt>
      <trkpt lat="49.08159" lon="4.08054">
        <ele>95.8</ele>
        <time>2026-08-24T12:51:11Z</time>
      </trkpt>
      <trkpt lat="49.08152" lon="4.08059">
        <ele>95.4</ele>
        <time>2026-08-24T12:51:12Z</time>
      </trkpt>
      <trkpt lat="49.08145" lon="4.08064">
        <ele>95</ele>
        <time>2026-08-24T12:51:13Z</time>
      </trkpt>
      <trkpt lat="49.08138" lon="4.08069">
        <ele>94.6</ele>
        <time>2026-08-24T12:51:14Z</time>
      </trkpt>
      <trkpt lat="49.0813" lon="4.08073">
        <ele>94.6</ele>
        <time>2026-08-24T12:51:15Z</time>
      </trkpt>
      <trkpt lat="49.08123" lon="4.08076">
        <ele>94.4</ele>
        <time>2026-08-24T12:51:16Z</time>
      </trkpt>
      <trkpt lat="49.08115" lon="4.08078">
        <ele>94.2</ele>
        <time>2026-08-24T12:51:17Z</time>
      </trkpt>
      <trkpt lat="49.08108" lon="4.0808">
        <ele>94</ele>
        <time>2026-08-24T12:51:18Z</time>
      </trkpt>
      <trkpt lat="49.08101" lon="4.08082">
        <ele>94</ele>
        <time>2026-08-24T12:51:19Z</time>
      </trkpt>
      <trkpt lat="49.08094" lon="4.08084">
        <ele>94</ele>
        <time>2026-08-24T12:51:20Z</time>
      </trkpt>
      <trkpt lat="49.08087" lon="4.08086">
        <ele>94.2</ele>
        <time>2026-08-24T12:51:21Z</time>
      </trkpt>
      <trkpt lat="49.08081" lon="4.08088">
        <ele>94.4</ele>
        <time>2026-08-24T12:51:22Z</time>
      </trkpt>
      <trkpt lat="49.08075" lon="4.08089">
        <ele>94.6</ele>
        <time>2026-08-24T12:51:23Z</time>
      </trkpt>
      <trkpt lat="49.08069" lon="4.0809">
        <ele>94.6</ele>
        <time>2026-08-24T12:51:24Z</time>
      </trkpt>
      <trkpt lat="49.08063" lon="4.08091">
        <ele>94.4</ele>
        <time>2026-08-24T12:51:25Z</time>
      </trkpt>
      <trkpt lat="49.08056" lon="4.08092">
        <ele>94.4</ele>
        <time>2026-08-24T12:51:26Z</time>
      </trkpt>
      <trkpt lat="49.0805" lon="4.08094">
        <ele>94.2</ele>
        <time>2026-08-24T12:51:27Z</time>
      </trkpt>
      <trkpt lat="49.08044" lon="4.08095">
        <ele>94.2</ele>
        <time>2026-08-24T12:51:28Z</time>
      </trkpt>
      <trkpt lat="49.08038" lon="4.08096">
        <ele>94.4</ele>
        <time>2026-08-24T12:51:29Z</time>
      </trkpt>
      <trkpt lat="49.08032" lon="4.08098">
        <ele>94.4</ele>
        <time>2026-08-24T12:51:30Z</time>
      </trkpt>
      <trkpt lat="49.08026" lon="4.08099">
        <ele>94.6</ele>
        <time>2026-08-24T12:51:31Z</time>
      </trkpt>
      <trkpt lat="49.0802" lon="4.08101">
        <ele>94.6</ele>
        <time>2026-08-24T12:51:32Z</time>
      </trkpt>
      <trkpt lat="49.08015" lon="4.08102">
        <ele>94.8</ele>
        <time>2026-08-24T12:51:33Z</time>
      </trkpt>
      <trkpt lat="49.0801" lon="4.08103">
        <ele>95</ele>
        <time>2026-08-24T12:51:34Z</time>
      </trkpt>
      <trkpt lat="49.08005" lon="4.08104">
        <ele>95.2</ele>
        <time>2026-08-24T12:51:35Z</time>
      </trkpt>
      <trkpt lat="49.08" lon="4.08105">
        <ele>95.4</ele>
        <time>2026-08-24T12:51:36Z</time>
      </trkpt>
      <trkpt lat="49.07996" lon="4.08106">
        <ele>95.8</ele>
        <time>2026-08-24T12:51:37Z</time>
      </trkpt>
      <trkpt lat="49.07992" lon="4.08107">
        <ele>96</ele>
        <time>2026-08-24T12:51:38Z</time>
      </trkpt>
      <trkpt lat="49.07987" lon="4.08107">
        <ele>96.2</ele>
        <time>2026-08-24T12:51:39Z</time>
      </trkpt>
      <trkpt lat="49.07984" lon="4.08108">
        <ele>96.6</ele>
        <time>2026-08-24T12:51:40Z</time>
      </trkpt>
      <trkpt lat="49.0798" lon="4.08109">
        <ele>97</ele>
        <time>2026-08-24T12:51:41Z</time>
      </trkpt>
      <trkpt lat="49.07977" lon="4.0811">
        <ele>97.2</ele>
        <time>2026-08-24T12:51:42Z</time>
      </trkpt>
      <trkpt lat="49.07974" lon="4.08111">
        <ele>97.6</ele>
        <time>2026-08-24T12:51:43Z</time>
      </trkpt>
      <trkpt lat="49.07971" lon="4.08111">
        <ele>97.8</ele>
        <time>2026-08-24T12:51:44Z</time>
      </trkpt>
      <trkpt lat="49.07969" lon="4.08112">
        <ele>98.2</ele>
        <time>2026-08-24T12:51:45Z</time>
      </trkpt>
      <trkpt lat="49.07966" lon="4.08113">
        <ele>98.4</ele>
        <time>2026-08-24T12:51:46Z</time>
      </trkpt>
      <trkpt lat="49.07964" lon="4.08116">
        <ele>98.6</ele>
        <time>2026-08-24T12:51:47Z</time>
      </trkpt>
      <trkpt lat="49.07962" lon="4.08118">
        <ele>98.8</ele>
        <time>2026-08-24T12:51:48Z</time>
      </trkpt>
      <trkpt lat="49.07959" lon="4.08121">
        <ele>99</ele>
        <time>2026-08-24T12:51:49Z</time>
      </trkpt>
      <trkpt lat="49.07956" lon="4.08124">
        <ele>99</ele>
        <time>2026-08-24T12:51:50Z</time>
      </trkpt>
      <trkpt lat="49.07955" lon="4.08128">
        <ele>99</ele>
        <time>2026-08-24T12:51:51Z</time>
      </trkpt>
      <trkpt lat="49.07954" lon="4.08133">
        <ele>99.2</ele>
        <time>2026-08-24T12:51:52Z</time>
      </trkpt>
      <trkpt lat="49.07954" lon="4.08138">
        <ele>99.2</ele>
        <time>2026-08-24T12:51:53Z</time>
      </trkpt>
      <trkpt lat="49.07955" lon="4.08144">
        <ele>99.2</ele>
        <time>2026-08-24T12:51:54Z</time>
      </trkpt>
      <trkpt lat="49.07957" lon="4.0815">
        <ele>99.2</ele>
        <time>2026-08-24T12:51:55Z</time>
      </trkpt>
      <trkpt lat="49.07958" lon="4.08156">
        <ele>99.2</ele>
        <time>2026-08-24T12:51:56Z</time>
      </trkpt>
      <trkpt lat="49.07959" lon="4.08162">
        <ele>99.2</ele>
        <time>2026-08-24T12:51:57Z</time>
      </trkpt>
      <trkpt lat="49.07961" lon="4.08168">
        <ele>99</ele>
        <time>2026-08-24T12:51:58Z</time>
      </trkpt>
      <trkpt lat="49.07963" lon="4.08174">
        <ele>99</ele>
        <time>2026-08-24T12:51:59Z</time>
      </trkpt>
      <trkpt lat="49.07964" lon="4.08181">
        <ele>99</ele>
        <time>2026-08-24T12:52:00Z</time>
      </trkpt>
      <trkpt lat="49.07966" lon="4.08188">
        <ele>99</ele>
        <time>2026-08-24T12:52:01Z</time>
      </trkpt>
      <trkpt lat="49.07968" lon="4.08195">
        <ele>99</ele>
        <time>2026-08-24T12:52:02Z</time>
      </trkpt>
      <trkpt lat="49.0797" lon="4.08202">
        <ele>99.2</ele>
        <time>2026-08-24T12:52:03Z</time>
      </trkpt>
      <trkpt lat="49.07971" lon="4.0821">
        <ele>99.2</ele>
        <time>2026-08-24T12:52:04Z</time>
      </trkpt>
      <trkpt lat="49.07973" lon="4.08218">
        <ele>99</ele>
        <time>2026-08-24T12:52:05Z</time>
      </trkpt>
      <trkpt lat="49.07975" lon="4.08225">
        <ele>98.8</ele>
        <time>2026-08-24T12:52:06Z</time>
      </trkpt>
      <trkpt lat="49.07977" lon="4.08233">
        <ele>98.8</ele>
        <time>2026-08-24T12:52:07Z</time>
      </trkpt>
      <trkpt lat="49.07979" lon="4.08241">
        <ele>98.8</ele>
        <time>2026-08-24T12:52:08Z</time>
      </trkpt>
      <trkpt lat="49.07981" lon="4.08248">
        <ele>98.8</ele>
        <time>2026-08-24T12:52:09Z</time>
      </trkpt>
      <trkpt lat="49.07983" lon="4.08256">
        <ele>99</ele>
        <time>2026-08-24T12:52:10Z</time>
      </trkpt>
      <trkpt lat="49.07985" lon="4.08264">
        <ele>99.2</ele>
        <time>2026-08-24T12:52:11Z</time>
      </trkpt>
      <trkpt lat="49.07987" lon="4.08272">
        <ele>99.2</ele>
        <time>2026-08-24T12:52:12Z</time>
      </trkpt>
      <trkpt lat="49.07989" lon="4.0828">
        <ele>99.4</ele>
        <time>2026-08-24T12:52:13Z</time>
      </trkpt>
      <trkpt lat="49.07991" lon="4.08289">
        <ele>99.4</ele>
        <time>2026-08-24T12:52:14Z</time>
      </trkpt>
      <trkpt lat="49.07993" lon="4.08297">
        <ele>99.4</ele>
        <time>2026-08-24T12:52:15Z</time>
      </trkpt>
      <trkpt lat="49.07995" lon="4.08305">
        <ele>99.6</ele>
        <time>2026-08-24T12:52:16Z</time>
      </trkpt>
      <trkpt lat="49.07997" lon="4.08313">
        <ele>99.4</ele>
        <time>2026-08-24T12:52:17Z</time>
      </trkpt>
      <trkpt lat="49.07999" lon="4.08322">
        <ele>99.4</ele>
        <time>2026-08-24T12:52:18Z</time>
      </trkpt>
      <trkpt lat="49.08001" lon="4.0833">
        <ele>99.2</ele>
        <time>2026-08-24T12:52:19Z</time>
      </trkpt>
      <trkpt lat="49.08003" lon="4.08338">
        <ele>99.2</ele>
        <time>2026-08-24T12:52:20Z</time>
      </trkpt>
      <trkpt lat="49.08005" lon="4.08347">
        <ele>99.2</ele>
        <time>2026-08-24T12:52:21Z</time>
      </trkpt>
      <trkpt lat="49.08007" lon="4.08355">
        <ele>99.2</ele>
        <time>2026-08-24T12:52:22Z</time>
      </trkpt>
      <trkpt lat="49.08009" lon="4.08364">
        <ele>99</ele>
        <time>2026-08-24T12:52:23Z</time>
      </trkpt>
      <trkpt lat="49.08011" lon="4.08372">
        <ele>99</ele>
        <time>2026-08-24T12:52:24Z</time>
      </trkpt>
      <trkpt lat="49.08013" lon="4.0838">
        <ele>98.8</ele>
        <time>2026-08-24T12:52:25Z</time>
      </trkpt>
      <trkpt lat="49.08015" lon="4.08388">
        <ele>98.8</ele>
        <time>2026-08-24T12:52:26Z</time>
      </trkpt>
      <trkpt lat="49.08017" lon="4.08396">
        <ele>98.6</ele>
        <time>2026-08-24T12:52:27Z</time>
      </trkpt>
      <trkpt lat="49.08019" lon="4.08403">
        <ele>98.6</ele>
        <time>2026-08-24T12:52:28Z</time>
      </trkpt>
      <trkpt lat="49.08021" lon="4.08411">
        <ele>98.6</ele>
        <time>2026-08-24T12:52:29Z</time>
      </trkpt>
      <trkpt lat="49.08023" lon="4.08418">
        <ele>98.8</ele>
        <time>2026-08-24T12:52:30Z</time>
      </trkpt>
      <trkpt lat="49.08025" lon="4.08426">
        <ele>98.8</ele>
        <time>2026-08-24T12:52:31Z</time>
      </trkpt>
      <trkpt lat="49.08026" lon="4.08433">
        <ele>99.2</ele>
        <time>2026-08-24T12:52:32Z</time>
      </trkpt>
      <trkpt lat="49.08028" lon="4.0844">
        <ele>99.2</ele>
        <time>2026-08-24T12:52:33Z</time>
      </trkpt>
      <trkpt lat="49.0803" lon="4.08447">
        <ele>99.6</ele>
        <time>2026-08-24T12:52:34Z</time>
      </trkpt>
      <trkpt lat="49.08032" lon="4.08454">
        <ele>99.6</ele>
        <time>2026-08-24T12:52:35Z</time>
      </trkpt>
      <trkpt lat="49.08034" lon="4.08461">
        <ele>99.8</ele>
        <time>2026-08-24T12:52:36Z</time>
      </trkpt>
      <trkpt lat="49.08036" lon="4.08469">
        <ele>100</ele>
        <time>2026-08-24T12:52:37Z</time>
      </trkpt>
      <trkpt lat="49.08038" lon="4.08476">
        <ele>100</ele>
        <time>2026-08-24T12:52:38Z</time>
      </trkpt>
      <trkpt lat="49.0804" lon="4.08483">
        <ele>100</ele>
        <time>2026-08-24T12:52:39Z</time>
      </trkpt>
      <trkpt lat="49.08042" lon="4.08491">
        <ele>100</ele>
        <time>2026-08-24T12:52:40Z</time>
      </trkpt>
      <trkpt lat="49.08044" lon="4.08498">
        <ele>99.8</ele>
        <time>2026-08-24T12:52:41Z</time>
      </trkpt>
      <trkpt lat="49.08047" lon="4.08506">
        <ele>99.8</ele>
        <time>2026-08-24T12:52:42Z</time>
      </trkpt>
      <trkpt lat="49.08049" lon="4.08514">
        <ele>99.6</ele>
        <time>2026-08-24T12:52:43Z</time>
      </trkpt>
      <trkpt lat="49.08051" lon="4.08523">
        <ele>99.4</ele>
        <time>2026-08-24T12:52:44Z</time>
      </trkpt>
      <trkpt lat="49.08053" lon="4.08531">
        <ele>99.2</ele>
        <time>2026-08-24T12:52:45Z</time>
      </trkpt>
      <trkpt lat="49.08055" lon="4.08539">
        <ele>99</ele>
        <time>2026-08-24T12:52:46Z</time>
      </trkpt>
      <trkpt lat="49.08057" lon="4.08547">
        <ele>98.6</ele>
        <time>2026-08-24T12:52:47Z</time>
      </trkpt>
      <trkpt lat="49.0806" lon="4.08555">
        <ele>98.6</ele>
        <time>2026-08-24T12:52:48Z</time>
      </trkpt>
      <trkpt lat="49.08062" lon="4.08564">
        <ele>98.4</ele>
        <time>2026-08-24T12:52:49Z</time>
      </trkpt>
      <trkpt lat="49.08064" lon="4.08572">
        <ele>98.6</ele>
        <time>2026-08-24T12:52:50Z</time>
      </trkpt>
      <trkpt lat="49.08067" lon="4.0858">
        <ele>98.4</ele>
        <time>2026-08-24T12:52:51Z</time>
      </trkpt>
      <trkpt lat="49.08069" lon="4.08589">
        <ele>98.6</ele>
        <time>2026-08-24T12:52:52Z</time>
      </trkpt>
      <trkpt lat="49.08072" lon="4.08597">
        <ele>98.6</ele>
        <time>2026-08-24T12:52:53Z</time>
      </trkpt>
      <trkpt lat="49.08074" lon="4.08606">
        <ele>98.4</ele>
        <time>2026-08-24T12:52:54Z</time>
      </trkpt>
      <trkpt lat="49.08077" lon="4.08615">
        <ele>98.2</ele>
        <time>2026-08-24T12:52:55Z</time>
      </trkpt>
      <trkpt lat="49.08079" lon="4.08624">
        <ele>98.2</ele>
        <time>2026-08-24T12:52:56Z</time>
      </trkpt>
      <trkpt lat="49.08082" lon="4.08633">
        <ele>98.2</ele>
        <time>2026-08-24T12:52:57Z</time>
      </trkpt>
      <trkpt lat="49.08084" lon="4.08642">
        <ele>98</ele>
        <time>2026-08-24T12:52:58Z</time>
      </trkpt>
      <trkpt lat="49.08087" lon="4.08651">
        <ele>98</ele>
        <time>2026-08-24T12:52:59Z</time>
      </trkpt>
      <trkpt lat="49.08089" lon="4.08659">
        <ele>97.8</ele>
        <time>2026-08-24T12:53:00Z</time>
      </trkpt>
      <trkpt lat="49.08092" lon="4.08668">
        <ele>97.8</ele>
        <time>2026-08-24T12:53:01Z</time>
      </trkpt>
      <trkpt lat="49.08094" lon="4.08677">
        <ele>97.6</ele>
        <time>2026-08-24T12:53:02Z</time>
      </trkpt>
      <trkpt lat="49.08097" lon="4.08686">
        <ele>97.6</ele>
        <time>2026-08-24T12:53:03Z</time>
      </trkpt>
      <trkpt lat="49.081" lon="4.08695">
        <ele>97.4</ele>
        <time>2026-08-24T12:53:04Z</time>
      </trkpt>
      <trkpt lat="49.08102" lon="4.08704">
        <ele>97.4</ele>
        <time>2026-08-24T12:53:05Z</time>
      </trkpt>
      <trkpt lat="49.08105" lon="4.08713">
        <ele>97.2</ele>
        <time>2026-08-24T12:53:06Z</time>
      </trkpt>
      <trkpt lat="49.08107" lon="4.08722">
        <ele>97</ele>
        <time>2026-08-24T12:53:07Z</time>
      </trkpt>
      <trkpt lat="49.0811" lon="4.08731">
        <ele>96.8</ele>
        <time>2026-08-24T12:53:08Z</time>
      </trkpt>
      <trkpt lat="49.08112" lon="4.0874">
        <ele>96.6</ele>
        <time>2026-08-24T12:53:09Z</time>
      </trkpt>
      <trkpt lat="49.08115" lon="4.08748">
        <ele>96.4</ele>
        <time>2026-08-24T12:53:10Z</time>
      </trkpt>
      <trkpt lat="49.08118" lon="4.08757">
        <ele>96.2</ele>
        <time>2026-08-24T12:53:11Z</time>
      </trkpt>
      <trkpt lat="49.0812" lon="4.08765">
        <ele>96.4</ele>
        <time>2026-08-24T12:53:12Z</time>
      </trkpt>
      <trkpt lat="49.08123" lon="4.08773">
        <ele>96.6</ele>
        <time>2026-08-24T12:53:13Z</time>
      </trkpt>
      <trkpt lat="49.08125" lon="4.08782">
        <ele>96.8</ele>
        <time>2026-08-24T12:53:14Z</time>
      </trkpt>
      <trkpt lat="49.08127" lon="4.0879">
        <ele>97</ele>
        <time>2026-08-24T12:53:15Z</time>
      </trkpt>
      <trkpt lat="49.0813" lon="4.08798">
        <ele>97.4</ele>
        <time>2026-08-24T12:53:16Z</time>
      </trkpt>
      <trkpt lat="49.08132" lon="4.08805">
        <ele>97.6</ele>
        <time>2026-08-24T12:53:17Z</time>
      </trkpt>
      <trkpt lat="49.08134" lon="4.08813">
        <ele>97.6</ele>
        <time>2026-08-24T12:53:18Z</time>
      </trkpt>
      <trkpt lat="49.08137" lon="4.08821">
        <ele>97.6</ele>
        <time>2026-08-24T12:53:19Z</time>
      </trkpt>
      <trkpt lat="49.08139" lon="4.08828">
        <ele>98</ele>
        <time>2026-08-24T12:53:20Z</time>
      </trkpt>
      <trkpt lat="49.08141" lon="4.08836">
        <ele>98</ele>
        <time>2026-08-24T12:53:21Z</time>
      </trkpt>
      <trkpt lat="49.08143" lon="4.08843">
        <ele>98.2</ele>
        <time>2026-08-24T12:53:22Z</time>
      </trkpt>
      <trkpt lat="49.08146" lon="4.08851">
        <ele>98.2</ele>
        <time>2026-08-24T12:53:23Z</time>
      </trkpt>
      <trkpt lat="49.08148" lon="4.08858">
        <ele>98.4</ele>
        <time>2026-08-24T12:53:24Z</time>
      </trkpt>
      <trkpt lat="49.0815" lon="4.08866">
        <ele>98.4</ele>
        <time>2026-08-24T12:53:25Z</time>
      </trkpt>
      <trkpt lat="49.08152" lon="4.08874">
        <ele>98.2</ele>
        <time>2026-08-24T12:53:26Z</time>
      </trkpt>
      <trkpt lat="49.08155" lon="4.08882">
        <ele>98.2</ele>
        <time>2026-08-24T12:53:27Z</time>
      </trkpt>
      <trkpt lat="49.08157" lon="4.0889">
        <ele>98.2</ele>
        <time>2026-08-24T12:53:28Z</time>
      </trkpt>
      <trkpt lat="49.0816" lon="4.08898">
        <ele>98.2</ele>
        <time>2026-08-24T12:53:29Z</time>
      </trkpt>
      <trkpt lat="49.08162" lon="4.08906">
        <ele>98</ele>
        <time>2026-08-24T12:53:30Z</time>
      </trkpt>
      <trkpt lat="49.08164" lon="4.08914">
        <ele>98</ele>
        <time>2026-08-24T12:53:31Z</time>
      </trkpt>
      <trkpt lat="49.08167" lon="4.08923">
        <ele>98</ele>
        <time>2026-08-24T12:53:32Z</time>
      </trkpt>
      <trkpt lat="49.08169" lon="4.08932">
        <ele>97.8</ele>
        <time>2026-08-24T12:53:33Z</time>
      </trkpt>
      <trkpt lat="49.08172" lon="4.0894">
        <ele>97.8</ele>
        <time>2026-08-24T12:53:34Z</time>
      </trkpt>
      <trkpt lat="49.08174" lon="4.08949">
        <ele>97.8</ele>
        <time>2026-08-24T12:53:35Z</time>
      </trkpt>
      <trkpt lat="49.08177" lon="4.08957">
        <ele>97.6</ele>
        <time>2026-08-24T12:53:36Z</time>
      </trkpt>
      <trkpt lat="49.08179" lon="4.08966">
        <ele>97.4</ele>
        <time>2026-08-24T12:53:37Z</time>
      </trkpt>
      <trkpt lat="49.08181" lon="4.08974">
        <ele>97.2</ele>
        <time>2026-08-24T12:53:38Z</time>
      </trkpt>
      <trkpt lat="49.08184" lon="4.08982">
        <ele>97</ele>
        <time>2026-08-24T12:53:39Z</time>
      </trkpt>
      <trkpt lat="49.08186" lon="4.0899">
        <ele>97</ele>
        <time>2026-08-24T12:53:40Z</time>
      </trkpt>
      <trkpt lat="49.08189" lon="4.08998">
        <ele>97.2</ele>
        <time>2026-08-24T12:53:41Z</time>
      </trkpt>
      <trkpt lat="49.08191" lon="4.09005">
        <ele>97.6</ele>
        <time>2026-08-24T12:53:42Z</time>
      </trkpt>
      <trkpt lat="49.08193" lon="4.09013">
        <ele>97.8</ele>
        <time>2026-08-24T12:53:43Z</time>
      </trkpt>
      <trkpt lat="49.08195" lon="4.0902">
        <ele>98.2</ele>
        <time>2026-08-24T12:53:44Z</time>
      </trkpt>
      <trkpt lat="49.08197" lon="4.09027">
        <ele>98.6</ele>
        <time>2026-08-24T12:53:45Z</time>
      </trkpt>
      <trkpt lat="49.08199" lon="4.09034">
        <ele>98.8</ele>
        <time>2026-08-24T12:53:46Z</time>
      </trkpt>
      <trkpt lat="49.08201" lon="4.09041">
        <ele>99</ele>
        <time>2026-08-24T12:53:47Z</time>
      </trkpt>
      <trkpt lat="49.08203" lon="4.09047">
        <ele>99.2</ele>
        <time>2026-08-24T12:53:48Z</time>
      </trkpt>
      <trkpt lat="49.08205" lon="4.09054">
        <ele>99.6</ele>
        <time>2026-08-24T12:53:49Z</time>
      </trkpt>
      <trkpt lat="49.08207" lon="4.09061">
        <ele>99.8</ele>
        <time>2026-08-24T12:53:50Z</time>
      </trkpt>
      <trkpt lat="49.08209" lon="4.09067">
        <ele>99.8</ele>
        <time>2026-08-24T12:53:51Z</time>
      </trkpt>
      <trkpt lat="49.08211" lon="4.09074">
        <ele>99.8</ele>
        <time>2026-08-24T12:53:52Z</time>
      </trkpt>
      <trkpt lat="49.08213" lon="4.09081">
        <ele>99.8</ele>
        <time>2026-08-24T12:53:53Z</time>
      </trkpt>
      <trkpt lat="49.08215" lon="4.09087">
        <ele>99.8</ele>
        <time>2026-08-24T12:53:54Z</time>
      </trkpt>
      <trkpt lat="49.08217" lon="4.09094">
        <ele>99.8</ele>
        <time>2026-08-24T12:53:55Z</time>
      </trkpt>
      <trkpt lat="49.08219" lon="4.09102">
        <ele>99.6</ele>
        <time>2026-08-24T12:53:56Z</time>
      </trkpt>
      <trkpt lat="49.08222" lon="4.09109">
        <ele>99.6</ele>
        <time>2026-08-24T12:53:57Z</time>
      </trkpt>
      <trkpt lat="49.08224" lon="4.09116">
        <ele>99.4</ele>
        <time>2026-08-24T12:53:58Z</time>
      </trkpt>
      <trkpt lat="49.08226" lon="4.09124">
        <ele>99.2</ele>
        <time>2026-08-24T12:53:59Z</time>
      </trkpt>
      <trkpt lat="49.08228" lon="4.09132">
        <ele>99</ele>
        <time>2026-08-24T12:54:00Z</time>
      </trkpt>
      <trkpt lat="49.08231" lon="4.09139">
        <ele>98.8</ele>
        <time>2026-08-24T12:54:01Z</time>
      </trkpt>
      <trkpt lat="49.08233" lon="4.09147">
        <ele>98.6</ele>
        <time>2026-08-24T12:54:02Z</time>
      </trkpt>
      <trkpt lat="49.08236" lon="4.09155">
        <ele>98.4</ele>
        <time>2026-08-24T12:54:03Z</time>
      </trkpt>
      <trkpt lat="49.08238" lon="4.09163">
        <ele>98.6</ele>
        <time>2026-08-24T12:54:04Z</time>
      </trkpt>
      <trkpt lat="49.08241" lon="4.09171">
        <ele>98.4</ele>
        <time>2026-08-24T12:54:05Z</time>
      </trkpt>
      <trkpt lat="49.08243" lon="4.09179">
        <ele>98.6</ele>
        <time>2026-08-24T12:54:06Z</time>
      </trkpt>
      <trkpt lat="49.08246" lon="4.09187">
        <ele>98.6</ele>
        <time>2026-08-24T12:54:07Z</time>
      </trkpt>
      <trkpt lat="49.08249" lon="4.09194">
        <ele>99</ele>
        <time>2026-08-24T12:54:08Z</time>
      </trkpt>
      <trkpt lat="49.08252" lon="4.09202">
        <ele>99</ele>
        <time>2026-08-24T12:54:09Z</time>
      </trkpt>
      <trkpt lat="49.08254" lon="4.0921">
        <ele>99</ele>
        <time>2026-08-24T12:54:10Z</time>
      </trkpt>
      <trkpt lat="49.08256" lon="4.09218">
        <ele>99.2</ele>
        <time>2026-08-24T12:54:11Z</time>
      </trkpt>
      <trkpt lat="49.08259" lon="4.09226">
        <ele>99</ele>
        <time>2026-08-24T12:54:12Z</time>
      </trkpt>
      <trkpt lat="49.0826" lon="4.09234">
        <ele>99</ele>
        <time>2026-08-24T12:54:13Z</time>
      </trkpt>
      <trkpt lat="49.08262" lon="4.09243">
        <ele>99</ele>
        <time>2026-08-24T12:54:14Z</time>
      </trkpt>
      <trkpt lat="49.08263" lon="4.09251">
        <ele>99</ele>
        <time>2026-08-24T12:54:15Z</time>
      </trkpt>
      <trkpt lat="49.08265" lon="4.0926">
        <ele>99.2</ele>
        <time>2026-08-24T12:54:16Z</time>
      </trkpt>
      <trkpt lat="49.08267" lon="4.09268">
        <ele>99.2</ele>
        <time>2026-08-24T12:54:17Z</time>
      </trkpt>
      <trkpt lat="49.0827" lon="4.09275">
        <ele>99.2</ele>
        <time>2026-08-24T12:54:18Z</time>
      </trkpt>
      <trkpt lat="49.08272" lon="4.09283">
        <ele>99.2</ele>
        <time>2026-08-24T12:54:19Z</time>
      </trkpt>
      <trkpt lat="49.08274" lon="4.0929">
        <ele>99.2</ele>
        <time>2026-08-24T12:54:20Z</time>
      </trkpt>
      <trkpt lat="49.08277" lon="4.09297">
        <ele>99.4</ele>
        <time>2026-08-24T12:54:21Z</time>
      </trkpt>
      <trkpt lat="49.08279" lon="4.09304">
        <ele>99.4</ele>
        <time>2026-08-24T12:54:22Z</time>
      </trkpt>
      <trkpt lat="49.08281" lon="4.09312">
        <ele>99.4</ele>
        <time>2026-08-24T12:54:23Z</time>
      </trkpt>
      <trkpt lat="49.08284" lon="4.09319">
        <ele>99.4</ele>
        <time>2026-08-24T12:54:24Z</time>
      </trkpt>
      <trkpt lat="49.08287" lon="4.09327">
        <ele>99.6</ele>
        <time>2026-08-24T12:54:25Z</time>
      </trkpt>
      <trkpt lat="49.08289" lon="4.09334">
        <ele>99.6</ele>
        <time>2026-08-24T12:54:26Z</time>
      </trkpt>
      <trkpt lat="49.08292" lon="4.09342">
        <ele>99.6</ele>
        <time>2026-08-24T12:54:27Z</time>
      </trkpt>
      <trkpt lat="49.08295" lon="4.0935">
        <ele>99.6</ele>
        <time>2026-08-24T12:54:28Z</time>
      </trkpt>
      <trkpt lat="49.08297" lon="4.09358">
        <ele>99.6</ele>
        <time>2026-08-24T12:54:29Z</time>
      </trkpt>
      <trkpt lat="49.083" lon="4.09366">
        <ele>99.6</ele>
        <time>2026-08-24T12:54:30Z</time>
      </trkpt>
      <trkpt lat="49.08303" lon="4.09374">
        <ele>99.8</ele>
        <time>2026-08-24T12:54:31Z</time>
      </trkpt>
      <trkpt lat="49.08306" lon="4.09382">
        <ele>99.8</ele>
        <time>2026-08-24T12:54:32Z</time>
      </trkpt>
      <trkpt lat="49.08309" lon="4.0939">
        <ele>99.8</ele>
        <time>2026-08-24T12:54:33Z</time>
      </trkpt>
      <trkpt lat="49.08312" lon="4.09398">
        <ele>99.8</ele>
        <time>2026-08-24T12:54:34Z</time>
      </trkpt>
      <trkpt lat="49.08315" lon="4.09406">
        <ele>99.8</ele>
        <time>2026-08-24T12:54:35Z</time>
      </trkpt>
      <trkpt lat="49.08318" lon="4.09413">
        <ele>99.8</ele>
        <time>2026-08-24T12:54:36Z</time>
      </trkpt>
      <trkpt lat="49.08321" lon="4.0942">
        <ele>99.6</ele>
        <time>2026-08-24T12:54:37Z</time>
      </trkpt>
      <trkpt lat="49.08324" lon="4.09427">
        <ele>99.8</ele>
        <time>2026-08-24T12:54:38Z</time>
      </trkpt>
      <trkpt lat="49.08327" lon="4.09435">
        <ele>99.8</ele>
        <time>2026-08-24T12:54:39Z</time>
      </trkpt>
      <trkpt lat="49.0833" lon="4.09442">
        <ele>99.8</ele>
        <time>2026-08-24T12:54:40Z</time>
      </trkpt>
      <trkpt lat="49.08333" lon="4.0945">
        <ele>100</ele>
        <time>2026-08-24T12:54:41Z</time>
      </trkpt>
      <trkpt lat="49.08336" lon="4.09458">
        <ele>100</ele>
        <time>2026-08-24T12:54:42Z</time>
      </trkpt>
      <trkpt lat="49.08339" lon="4.09465">
        <ele>100.2</ele>
        <time>2026-08-24T12:54:43Z</time>
      </trkpt>
      <trkpt lat="49.08341" lon="4.09473">
        <ele>100.2</ele>
        <time>2026-08-24T12:54:44Z</time>
      </trkpt>
      <trkpt lat="49.08344" lon="4.0948">
        <ele>100.2</ele>
        <time>2026-08-24T12:54:45Z</time>
      </trkpt>
      <trkpt lat="49.08347" lon="4.09487">
        <ele>100.4</ele>
        <time>2026-08-24T12:54:46Z</time>
      </trkpt>
      <trkpt lat="49.08349" lon="4.09494">
        <ele>100.6</ele>
        <time>2026-08-24T12:54:47Z</time>
      </trkpt>
      <trkpt lat="49.08351" lon="4.09501">
        <ele>101</ele>
        <time>2026-08-24T12:54:48Z</time>
      </trkpt>
      <trkpt lat="49.08354" lon="4.09508">
        <ele>101.4</ele>
        <time>2026-08-24T12:54:49Z</time>
      </trkpt>
      <trkpt lat="49.08356" lon="4.09514">
        <ele>101.8</ele>
        <time>2026-08-24T12:54:50Z</time>
      </trkpt>
      <trkpt lat="49.08357" lon="4.09521">
        <ele>102</ele>
        <time>2026-08-24T12:54:51Z</time>
      </trkpt>
      <trkpt lat="49.08359" lon="4.09527">
        <ele>102.2</ele>
        <time>2026-08-24T12:54:52Z</time>
      </trkpt>
      <trkpt lat="49.08361" lon="4.09534">
        <ele>102.6</ele>
        <time>2026-08-24T12:54:53Z</time>
      </trkpt>
      <trkpt lat="49.08362" lon="4.0954">
        <ele>102.8</ele>
        <time>2026-08-24T12:54:54Z</time>
      </trkpt>
      <trkpt lat="49.08364" lon="4.09546">
        <ele>103.2</ele>
        <time>2026-08-24T12:54:55Z</time>
      </trkpt>
      <trkpt lat="49.08366" lon="4.09553">
        <ele>103.6</ele>
        <time>2026-08-24T12:54:56Z</time>
      </trkpt>
      <trkpt lat="49.08367" lon="4.09559">
        <ele>103.8</ele>
        <time>2026-08-24T12:54:57Z</time>
      </trkpt>
      <trkpt lat="49.08369" lon="4.09565">
        <ele>103.6</ele>
        <time>2026-08-24T12:54:58Z</time>
      </trkpt>
      <trkpt lat="49.0837" lon="4.09572">
        <ele>103.8</ele>
        <time>2026-08-24T12:54:59Z</time>
      </trkpt>
      <trkpt lat="49.08371" lon="4.09578">
        <ele>103.8</ele>
        <time>2026-08-24T12:55:00Z</time>
      </trkpt>
      <trkpt lat="49.08372" lon="4.09584">
        <ele>104</ele>
        <time>2026-08-24T12:55:01Z</time>
      </trkpt>
      <trkpt lat="49.08374" lon="4.0959">
        <ele>104</ele>
        <time>2026-08-24T12:55:02Z</time>
      </trkpt>
      <trkpt lat="49.08375" lon="4.09597">
        <ele>104</ele>
        <time>2026-08-24T12:55:03Z</time>
      </trkpt>
      <trkpt lat="49.08375" lon="4.09603">
        <ele>104</ele>
        <time>2026-08-24T12:55:04Z</time>
      </trkpt>
      <trkpt lat="49.08376" lon="4.0961">
        <ele>104</ele>
        <time>2026-08-24T12:55:05Z</time>
      </trkpt>
      <trkpt lat="49.08377" lon="4.09617">
        <ele>104.2</ele>
        <time>2026-08-24T12:55:06Z</time>
      </trkpt>
      <trkpt lat="49.08378" lon="4.09623">
        <ele>104.2</ele>
        <time>2026-08-24T12:55:07Z</time>
      </trkpt>
      <trkpt lat="49.08379" lon="4.0963">
        <ele>104.6</ele>
        <time>2026-08-24T12:55:08Z</time>
      </trkpt>
      <trkpt lat="49.0838" lon="4.09637">
        <ele>104.8</ele>
        <time>2026-08-24T12:55:09Z</time>
      </trkpt>
      <trkpt lat="49.08381" lon="4.09644">
        <ele>105</ele>
        <time>2026-08-24T12:55:10Z</time>
      </trkpt>
      <trkpt lat="49.08382" lon="4.09652">
        <ele>105.4</ele>
        <time>2026-08-24T12:55:11Z</time>
      </trkpt>
      <trkpt lat="49.08383" lon="4.09659">
        <ele>105.6</ele>
        <time>2026-08-24T12:55:12Z</time>
      </trkpt>
      <trkpt lat="49.08384" lon="4.09667">
        <ele>105.8</ele>
        <time>2026-08-24T12:55:13Z</time>
      </trkpt>
      <trkpt lat="49.08386" lon="4.09675">
        <ele>106</ele>
        <time>2026-08-24T12:55:14Z</time>
      </trkpt>
      <trkpt lat="49.08387" lon="4.09682">
        <ele>106.2</ele>
        <time>2026-08-24T12:55:15Z</time>
      </trkpt>
      <trkpt lat="49.08388" lon="4.0969">
        <ele>106.4</ele>
        <time>2026-08-24T12:55:16Z</time>
      </trkpt>
      <trkpt lat="49.08389" lon="4.09699">
        <ele>106.4</ele>
        <time>2026-08-24T12:55:17Z</time>
      </trkpt>
      <trkpt lat="49.0839" lon="4.09707">
        <ele>106.4</ele>
        <time>2026-08-24T12:55:18Z</time>
      </trkpt>
      <trkpt lat="49.08391" lon="4.09715">
        <ele>106.4</ele>
        <time>2026-08-24T12:55:19Z</time>
      </trkpt>
      <trkpt lat="49.08393" lon="4.09723">
        <ele>106.4</ele>
        <time>2026-08-24T12:55:20Z</time>
      </trkpt>
      <trkpt lat="49.08394" lon="4.09731">
        <ele>106.2</ele>
        <time>2026-08-24T12:55:21Z</time>
      </trkpt>
      <trkpt lat="49.08394" lon="4.09739">
        <ele>106.2</ele>
        <time>2026-08-24T12:55:22Z</time>
      </trkpt>
      <trkpt lat="49.08396" lon="4.09747">
        <ele>106.2</ele>
        <time>2026-08-24T12:55:23Z</time>
      </trkpt>
      <trkpt lat="49.08397" lon="4.09756">
        <ele>106.2</ele>
        <time>2026-08-24T12:55:24Z</time>
      </trkpt>
      <trkpt lat="49.08398" lon="4.09764">
        <ele>106.2</ele>
        <time>2026-08-24T12:55:25Z</time>
      </trkpt>
      <trkpt lat="49.084" lon="4.09772">
        <ele>106.2</ele>
        <time>2026-08-24T12:55:26Z</time>
      </trkpt>
      <trkpt lat="49.08401" lon="4.0978">
        <ele>106.4</ele>
        <time>2026-08-24T12:55:27Z</time>
      </trkpt>
      <trkpt lat="49.08401" lon="4.09788">
        <ele>106.4</ele>
        <time>2026-08-24T12:55:28Z</time>
      </trkpt>
      <trkpt lat="49.08402" lon="4.09796">
        <ele>106.4</ele>
        <time>2026-08-24T12:55:29Z</time>
      </trkpt>
      <trkpt lat="49.08402" lon="4.09803">
        <ele>106.6</ele>
        <time>2026-08-24T12:55:30Z</time>
      </trkpt>
      <trkpt lat="49.08403" lon="4.09811">
        <ele>106.8</ele>
        <time>2026-08-24T12:55:31Z</time>
      </trkpt>
      <trkpt lat="49.08404" lon="4.09819">
        <ele>106.8</ele>
        <time>2026-08-24T12:55:32Z</time>
      </trkpt>
      <trkpt lat="49.08405" lon="4.09826">
        <ele>107</ele>
        <time>2026-08-24T12:55:33Z</time>
      </trkpt>
      <trkpt lat="49.08406" lon="4.09833">
        <ele>107.2</ele>
        <time>2026-08-24T12:55:34Z</time>
      </trkpt>
      <trkpt lat="49.08407" lon="4.0984">
        <ele>107.2</ele>
        <time>2026-08-24T12:55:35Z</time>
      </trkpt>
      <trkpt lat="49.08408" lon="4.09847">
        <ele>107.4</ele>
        <time>2026-08-24T12:55:36Z</time>
      </trkpt>
      <trkpt lat="49.08409" lon="4.09854">
        <ele>107.6</ele>
        <time>2026-08-24T12:55:37Z</time>
      </trkpt>
      <trkpt lat="49.0841" lon="4.09861">
        <ele>107.8</ele>
        <time>2026-08-24T12:55:38Z</time>
      </trkpt>
      <trkpt lat="49.08411" lon="4.09868">
        <ele>108</ele>
        <time>2026-08-24T12:55:39Z</time>
      </trkpt>
      <trkpt lat="49.08413" lon="4.09875">
        <ele>108.2</ele>
        <time>2026-08-24T12:55:40Z</time>
      </trkpt>
      <trkpt lat="49.08414" lon="4.09883">
        <ele>108.2</ele>
        <time>2026-08-24T12:55:41Z</time>
      </trkpt>
      <trkpt lat="49.08415" lon="4.0989">
        <ele>108.4</ele>
        <time>2026-08-24T12:55:42Z</time>
      </trkpt>
      <trkpt lat="49.08417" lon="4.09898">
        <ele>108.4</ele>
        <time>2026-08-24T12:55:43Z</time>
      </trkpt>
      <trkpt lat="49.08419" lon="4.09905">
        <ele>108.4</ele>
        <time>2026-08-24T12:55:44Z</time>
      </trkpt>
      <trkpt lat="49.08421" lon="4.09912">
        <ele>108.4</ele>
        <time>2026-08-24T12:55:45Z</time>
      </trkpt>
      <trkpt lat="49.08424" lon="4.0992">
        <ele>108.2</ele>
        <time>2026-08-24T12:55:46Z</time>
      </trkpt>
      <trkpt lat="49.08426" lon="4.09928">
        <ele>108.2</ele>
        <time>2026-08-24T12:55:47Z</time>
      </trkpt>
      <trkpt lat="49.08429" lon="4.09936">
        <ele>108.2</ele>
        <time>2026-08-24T12:55:48Z</time>
      </trkpt>
      <trkpt lat="49.08432" lon="4.09945">
        <ele>108.2</ele>
        <time>2026-08-24T12:55:49Z</time>
      </trkpt>
      <trkpt lat="49.08435" lon="4.09953">
        <ele>108</ele>
        <time>2026-08-24T12:55:50Z</time>
      </trkpt>
      <trkpt lat="49.08439" lon="4.09962">
        <ele>107.8</ele>
        <time>2026-08-24T12:55:51Z</time>
      </trkpt>
      <trkpt lat="49.08442" lon="4.0997">
        <ele>107.6</ele>
        <time>2026-08-24T12:55:52Z</time>
      </trkpt>
      <trkpt lat="49.08445" lon="4.09978">
        <ele>107.4</ele>
        <time>2026-08-24T12:55:53Z</time>
      </trkpt>
      <trkpt lat="49.08448" lon="4.09986">
        <ele>107.2</ele>
        <time>2026-08-24T12:55:54Z</time>
      </trkpt>
      <trkpt lat="49.08451" lon="4.09994">
        <ele>107.2</ele>
        <time>2026-08-24T12:55:55Z</time>
      </trkpt>
      <trkpt lat="49.08453" lon="4.10002">
        <ele>107</ele>
        <time>2026-08-24T12:55:56Z</time>
      </trkpt>
      <trkpt lat="49.08456" lon="4.1001">
        <ele>107</ele>
        <time>2026-08-24T12:55:57Z</time>
      </trkpt>
      <trkpt lat="49.08459" lon="4.10017">
        <ele>106.8</ele>
        <time>2026-08-24T12:55:58Z</time>
      </trkpt>
      <trkpt lat="49.08461" lon="4.10025">
        <ele>106.8</ele>
        <time>2026-08-24T12:55:59Z</time>
      </trkpt>
      <trkpt lat="49.08463" lon="4.10033">
        <ele>106.8</ele>
        <time>2026-08-24T12:56:00Z</time>
      </trkpt>
      <trkpt lat="49.08465" lon="4.10042">
        <ele>107</ele>
        <time>2026-08-24T12:56:01Z</time>
      </trkpt>
      <trkpt lat="49.08469" lon="4.10051">
        <ele>107</ele>
        <time>2026-08-24T12:56:02Z</time>
      </trkpt>
      <trkpt lat="49.08472" lon="4.1006">
        <ele>106.8</ele>
        <time>2026-08-24T12:56:03Z</time>
      </trkpt>
      <trkpt lat="49.08476" lon="4.10068">
        <ele>106.6</ele>
        <time>2026-08-24T12:56:04Z</time>
      </trkpt>
      <trkpt lat="49.0848" lon="4.10077">
        <ele>106.6</ele>
        <time>2026-08-24T12:56:05Z</time>
      </trkpt>
      <trkpt lat="49.08483" lon="4.10085">
        <ele>106.2</ele>
        <time>2026-08-24T12:56:06Z</time>
      </trkpt>
      <trkpt lat="49.08488" lon="4.10094">
        <ele>106</ele>
        <time>2026-08-24T12:56:07Z</time>
      </trkpt>
      <trkpt lat="49.08491" lon="4.10103">
        <ele>105.6</ele>
        <time>2026-08-24T12:56:08Z</time>
      </trkpt>
      <trkpt lat="49.08496" lon="4.1011">
        <ele>105.4</ele>
        <time>2026-08-24T12:56:09Z</time>
      </trkpt>
      <trkpt lat="49.085" lon="4.10118">
        <ele>105.2</ele>
        <time>2026-08-24T12:56:10Z</time>
      </trkpt>
      <trkpt lat="49.08505" lon="4.10127">
        <ele>105.2</ele>
        <time>2026-08-24T12:56:11Z</time>
      </trkpt>
      <trkpt lat="49.08509" lon="4.10136">
        <ele>105.2</ele>
        <time>2026-08-24T12:56:12Z</time>
      </trkpt>
      <trkpt lat="49.08514" lon="4.10145">
        <ele>105.2</ele>
        <time>2026-08-24T12:56:13Z</time>
      </trkpt>
      <trkpt lat="49.08518" lon="4.10153">
        <ele>105.4</ele>
        <time>2026-08-24T12:56:14Z</time>
      </trkpt>
      <trkpt lat="49.08522" lon="4.1016">
        <ele>105.4</ele>
        <time>2026-08-24T12:56:15Z</time>
      </trkpt>
      <trkpt lat="49.08526" lon="4.10168">
        <ele>105.4</ele>
        <time>2026-08-24T12:56:16Z</time>
      </trkpt>
      <trkpt lat="49.0853" lon="4.10177">
        <ele>105.4</ele>
        <time>2026-08-24T12:56:17Z</time>
      </trkpt>
      <trkpt lat="49.08534" lon="4.10186">
        <ele>105.4</ele>
        <time>2026-08-24T12:56:18Z</time>
      </trkpt>
      <trkpt lat="49.08539" lon="4.10194">
        <ele>105.2</ele>
        <time>2026-08-24T12:56:19Z</time>
      </trkpt>
      <trkpt lat="49.08543" lon="4.10201">
        <ele>105</ele>
        <time>2026-08-24T12:56:20Z</time>
      </trkpt>
      <trkpt lat="49.08547" lon="4.10209">
        <ele>104.8</ele>
        <time>2026-08-24T12:56:21Z</time>
      </trkpt>
      <trkpt lat="49.08551" lon="4.10216">
        <ele>104.6</ele>
        <time>2026-08-24T12:56:22Z</time>
      </trkpt>
      <trkpt lat="49.08555" lon="4.10223">
        <ele>104.4</ele>
        <time>2026-08-24T12:56:23Z</time>
      </trkpt>
      <trkpt lat="49.08559" lon="4.1023">
        <ele>104.4</ele>
        <time>2026-08-24T12:56:24Z</time>
      </trkpt>
      <trkpt lat="49.08563" lon="4.10236">
        <ele>104.4</ele>
        <time>2026-08-24T12:56:25Z</time>
      </trkpt>
      <trkpt lat="49.08566" lon="4.10243">
        <ele>104.4</ele>
        <time>2026-08-24T12:56:26Z</time>
      </trkpt>
      <trkpt lat="49.0857" lon="4.10249">
        <ele>104.8</ele>
        <time>2026-08-24T12:56:27Z</time>
      </trkpt>
      <trkpt lat="49.08573" lon="4.10256">
        <ele>105</ele>
        <time>2026-08-24T12:56:28Z</time>
      </trkpt>
      <trkpt lat="49.08577" lon="4.10262">
        <ele>105.2</ele>
        <time>2026-08-24T12:56:29Z</time>
      </trkpt>
      <trkpt lat="49.0858" lon="4.10268">
        <ele>105.2</ele>
        <time>2026-08-24T12:56:30Z</time>
      </trkpt>
      <trkpt lat="49.08584" lon="4.10274">
        <ele>105.4</ele>
        <time>2026-08-24T12:56:31Z</time>
      </trkpt>
      <trkpt lat="49.08588" lon="4.10281">
        <ele>105.4</ele>
        <time>2026-08-24T12:56:32Z</time>
      </trkpt>
      <trkpt lat="49.08591" lon="4.10287">
        <ele>105.4</ele>
        <time>2026-08-24T12:56:33Z</time>
      </trkpt>
      <trkpt lat="49.08595" lon="4.10294">
        <ele>105.4</ele>
        <time>2026-08-24T12:56:34Z</time>
      </trkpt>
      <trkpt lat="49.08598" lon="4.103">
        <ele>105.6</ele>
        <time>2026-08-24T12:56:35Z</time>
      </trkpt>
      <trkpt lat="49.08601" lon="4.10307">
        <ele>105.6</ele>
        <time>2026-08-24T12:56:36Z</time>
      </trkpt>
      <trkpt lat="49.08605" lon="4.10313">
        <ele>105.6</ele>
        <time>2026-08-24T12:56:37Z</time>
      </trkpt>
      <trkpt lat="49.08609" lon="4.1032">
        <ele>105.8</ele>
        <time>2026-08-24T12:56:38Z</time>
      </trkpt>
      <trkpt lat="49.08612" lon="4.10326">
        <ele>105.8</ele>
        <time>2026-08-24T12:56:39Z</time>
      </trkpt>
      <trkpt lat="49.08616" lon="4.10333">
        <ele>106</ele>
        <time>2026-08-24T12:56:40Z</time>
      </trkpt>
      <trkpt lat="49.08619" lon="4.10339">
        <ele>106</ele>
        <time>2026-08-24T12:56:41Z</time>
      </trkpt>
      <trkpt lat="49.08623" lon="4.10346">
        <ele>106</ele>
        <time>2026-08-24T12:56:42Z</time>
      </trkpt>
      <trkpt lat="49.08626" lon="4.10353">
        <ele>106</ele>
        <time>2026-08-24T12:56:43Z</time>
      </trkpt>
      <trkpt lat="49.08629" lon="4.10359">
        <ele>106</ele>
        <time>2026-08-24T12:56:44Z</time>
      </trkpt>
      <trkpt lat="49.08633" lon="4.10365">
        <ele>105.6</ele>
        <time>2026-08-24T12:56:45Z</time>
      </trkpt>
      <trkpt lat="49.08636" lon="4.10372">
        <ele>105.6</ele>
        <time>2026-08-24T12:56:46Z</time>
      </trkpt>
      <trkpt lat="49.0864" lon="4.10379">
        <ele>105.6</ele>
        <time>2026-08-24T12:56:47Z</time>
      </trkpt>
      <trkpt lat="49.08643" lon="4.10386">
        <ele>105.4</ele>
        <time>2026-08-24T12:56:48Z</time>
      </trkpt>
      <trkpt lat="49.08647" lon="4.10392">
        <ele>105.4</ele>
        <time>2026-08-24T12:56:49Z</time>
      </trkpt>
      <trkpt lat="49.0865" lon="4.10399">
        <ele>105.4</ele>
        <time>2026-08-24T12:56:50Z</time>
      </trkpt>
      <trkpt lat="49.08655" lon="4.10406">
        <ele>105.2</ele>
        <time>2026-08-24T12:56:51Z</time>
      </trkpt>
      <trkpt lat="49.08658" lon="4.10414">
        <ele>105.2</ele>
        <time>2026-08-24T12:56:52Z</time>
      </trkpt>
      <trkpt lat="49.08663" lon="4.10421">
        <ele>105.2</ele>
        <time>2026-08-24T12:56:53Z</time>
      </trkpt>
      <trkpt lat="49.08667" lon="4.10428">
        <ele>105.2</ele>
        <time>2026-08-24T12:56:54Z</time>
      </trkpt>
      <trkpt lat="49.08671" lon="4.10436">
        <ele>105.2</ele>
        <time>2026-08-24T12:56:55Z</time>
      </trkpt>
      <trkpt lat="49.08675" lon="4.10443">
        <ele>105.2</ele>
        <time>2026-08-24T12:56:56Z</time>
      </trkpt>
      <trkpt lat="49.08679" lon="4.1045">
        <ele>105</ele>
        <time>2026-08-24T12:56:57Z</time>
      </trkpt>
      <trkpt lat="49.08684" lon="4.10458">
        <ele>105</ele>
        <time>2026-08-24T12:56:58Z</time>
      </trkpt>
      <trkpt lat="49.08688" lon="4.10466">
        <ele>104.8</ele>
        <time>2026-08-24T12:56:59Z</time>
      </trkpt>
      <trkpt lat="49.08693" lon="4.10474">
        <ele>104.6</ele>
        <time>2026-08-24T12:57:00Z</time>
      </trkpt>
      <trkpt lat="49.08697" lon="4.10482">
        <ele>104.4</ele>
        <time>2026-08-24T12:57:01Z</time>
      </trkpt>
      <trkpt lat="49.08701" lon="4.1049">
        <ele>104.2</ele>
        <time>2026-08-24T12:57:02Z</time>
      </trkpt>
      <trkpt lat="49.08705" lon="4.10498">
        <ele>104</ele>
        <time>2026-08-24T12:57:03Z</time>
      </trkpt>
      <trkpt lat="49.0871" lon="4.10506">
        <ele>104</ele>
        <time>2026-08-24T12:57:04Z</time>
      </trkpt>
      <trkpt lat="49.08714" lon="4.10514">
        <ele>103.8</ele>
        <time>2026-08-24T12:57:05Z</time>
      </trkpt>
      <trkpt lat="49.08719" lon="4.10522">
        <ele>103.6</ele>
        <time>2026-08-24T12:57:06Z</time>
      </trkpt>
      <trkpt lat="49.08723" lon="4.10529">
        <ele>103.6</ele>
        <time>2026-08-24T12:57:07Z</time>
      </trkpt>
      <trkpt lat="49.08728" lon="4.10537">
        <ele>103.6</ele>
        <time>2026-08-24T12:57:08Z</time>
      </trkpt>
      <trkpt lat="49.08732" lon="4.10544">
        <ele>103.6</ele>
        <time>2026-08-24T12:57:09Z</time>
      </trkpt>
      <trkpt lat="49.08736" lon="4.10551">
        <ele>103.8</ele>
        <time>2026-08-24T12:57:10Z</time>
      </trkpt>
      <trkpt lat="49.0874" lon="4.10558">
        <ele>103.8</ele>
        <time>2026-08-24T12:57:11Z</time>
      </trkpt>
      <trkpt lat="49.08744" lon="4.10565">
        <ele>103.6</ele>
        <time>2026-08-24T12:57:12Z</time>
      </trkpt>
      <trkpt lat="49.08748" lon="4.10572">
        <ele>103.6</ele>
        <time>2026-08-24T12:57:13Z</time>
      </trkpt>
      <trkpt lat="49.08752" lon="4.10578">
        <ele>103.6</ele>
        <time>2026-08-24T12:57:14Z</time>
      </trkpt>
      <trkpt lat="49.08755" lon="4.10585">
        <ele>103.4</ele>
        <time>2026-08-24T12:57:15Z</time>
      </trkpt>
      <trkpt lat="49.08759" lon="4.10591">
        <ele>103.4</ele>
        <time>2026-08-24T12:57:16Z</time>
      </trkpt>
      <trkpt lat="49.08762" lon="4.10597">
        <ele>103.4</ele>
        <time>2026-08-24T12:57:17Z</time>
      </trkpt>
      <trkpt lat="49.08765" lon="4.10602">
        <ele>103.4</ele>
        <time>2026-08-24T12:57:18Z</time>
      </trkpt>
      <trkpt lat="49.08768" lon="4.10608">
        <ele>103.2</ele>
        <time>2026-08-24T12:57:19Z</time>
      </trkpt>
      <trkpt lat="49.08772" lon="4.10613">
        <ele>103.2</ele>
        <time>2026-08-24T12:57:20Z</time>
      </trkpt>
      <trkpt lat="49.08775" lon="4.10619">
        <ele>103.4</ele>
        <time>2026-08-24T12:57:21Z</time>
      </trkpt>
      <trkpt lat="49.08779" lon="4.10623">
        <ele>103.8</ele>
        <time>2026-08-24T12:57:22Z</time>
      </trkpt>
      <trkpt lat="49.08783" lon="4.10628">
        <ele>104.2</ele>
        <time>2026-08-24T12:57:23Z</time>
      </trkpt>
      <trkpt lat="49.08787" lon="4.10632">
        <ele>104.6</ele>
        <time>2026-08-24T12:57:24Z</time>
      </trkpt>
      <trkpt lat="49.08791" lon="4.10637">
        <ele>104.8</ele>
        <time>2026-08-24T12:57:25Z</time>
      </trkpt>
      <trkpt lat="49.08795" lon="4.10642">
        <ele>105</ele>
        <time>2026-08-24T12:57:26Z</time>
      </trkpt>
      <trkpt lat="49.08799" lon="4.10647">
        <ele>105.2</ele>
        <time>2026-08-24T12:57:27Z</time>
      </trkpt>
      <trkpt lat="49.08803" lon="4.10652">
        <ele>105.4</ele>
        <time>2026-08-24T12:57:28Z</time>
      </trkpt>
      <trkpt lat="49.08807" lon="4.10656">
        <ele>105.6</ele>
        <time>2026-08-24T12:57:29Z</time>
      </trkpt>
      <trkpt lat="49.08812" lon="4.10661">
        <ele>106</ele>
        <time>2026-08-24T12:57:30Z</time>
      </trkpt>
      <trkpt lat="49.08816" lon="4.10666">
        <ele>106</ele>
        <time>2026-08-24T12:57:31Z</time>
      </trkpt>
      <trkpt lat="49.0882" lon="4.1067">
        <ele>106.2</ele>
        <time>2026-08-24T12:57:32Z</time>
      </trkpt>
      <trkpt lat="49.08824" lon="4.10675">
        <ele>106.2</ele>
        <time>2026-08-24T12:57:33Z</time>
      </trkpt>
      <trkpt lat="49.08828" lon="4.10679">
        <ele>106.4</ele>
        <time>2026-08-24T12:57:34Z</time>
      </trkpt>
      <trkpt lat="49.08832" lon="4.10684">
        <ele>106.4</ele>
        <time>2026-08-24T12:57:35Z</time>
      </trkpt>
      <trkpt lat="49.08836" lon="4.10688">
        <ele>106.4</ele>
        <time>2026-08-24T12:57:36Z</time>
      </trkpt>
      <trkpt lat="49.0884" lon="4.10693">
        <ele>106.2</ele>
        <time>2026-08-24T12:57:37Z</time>
      </trkpt>
      <trkpt lat="49.08845" lon="4.10697">
        <ele>106.4</ele>
        <time>2026-08-24T12:57:38Z</time>
      </trkpt>
      <trkpt lat="49.08849" lon="4.10702">
        <ele>106.4</ele>
        <time>2026-08-24T12:57:39Z</time>
      </trkpt>
      <trkpt lat="49.08853" lon="4.10707">
        <ele>106.4</ele>
        <time>2026-08-24T12:57:40Z</time>
      </trkpt>
      <trkpt lat="49.08857" lon="4.10712">
        <ele>106.4</ele>
        <time>2026-08-24T12:57:41Z</time>
      </trkpt>
      <trkpt lat="49.08861" lon="4.10716">
        <ele>106.4</ele>
        <time>2026-08-24T12:57:42Z</time>
      </trkpt>
      <trkpt lat="49.08865" lon="4.10721">
        <ele>106.4</ele>
        <time>2026-08-24T12:57:43Z</time>
      </trkpt>
      <trkpt lat="49.08869" lon="4.10726">
        <ele>106.4</ele>
        <time>2026-08-24T12:57:44Z</time>
      </trkpt>
      <trkpt lat="49.08873" lon="4.10731">
        <ele>106.4</ele>
        <time>2026-08-24T12:57:45Z</time>
      </trkpt>
      <trkpt lat="49.08877" lon="4.10735">
        <ele>106.4</ele>
        <time>2026-08-24T12:57:46Z</time>
      </trkpt>
      <trkpt lat="49.08881" lon="4.1074">
        <ele>106.6</ele>
        <time>2026-08-24T12:57:47Z</time>
      </trkpt>
      <trkpt lat="49.08885" lon="4.10744">
        <ele>107</ele>
        <time>2026-08-24T12:57:48Z</time>
      </trkpt>
      <trkpt lat="49.08889" lon="4.10748">
        <ele>107.2</ele>
        <time>2026-08-24T12:57:49Z</time>
      </trkpt>
      <trkpt lat="49.08892" lon="4.10753">
        <ele>107.6</ele>
        <time>2026-08-24T12:57:50Z</time>
      </trkpt>
      <trkpt lat="49.08896" lon="4.10757">
        <ele>108</ele>
        <time>2026-08-24T12:57:51Z</time>
      </trkpt>
      <trkpt lat="49.089" lon="4.10762">
        <ele>108.2</ele>
        <time>2026-08-24T12:57:52Z</time>
      </trkpt>
      <trkpt lat="49.08904" lon="4.10766">
        <ele>108.4</ele>
        <time>2026-08-24T12:57:53Z</time>
      </trkpt>
      <trkpt lat="49.08908" lon="4.1077">
        <ele>108.6</ele>
        <time>2026-08-24T12:57:54Z</time>
      </trkpt>
      <trkpt lat="49.08912" lon="4.10775">
        <ele>108.6</ele>
        <time>2026-08-24T12:57:55Z</time>
      </trkpt>
      <trkpt lat="49.08916" lon="4.1078">
        <ele>108.6</ele>
        <time>2026-08-24T12:57:56Z</time>
      </trkpt>
      <trkpt lat="49.0892" lon="4.10785">
        <ele>108.4</ele>
        <time>2026-08-24T12:57:57Z</time>
      </trkpt>
      <trkpt lat="49.08924" lon="4.1079">
        <ele>108.4</ele>
        <time>2026-08-24T12:57:58Z</time>
      </trkpt>
      <trkpt lat="49.08928" lon="4.10795">
        <ele>108.4</ele>
        <time>2026-08-24T12:57:59Z</time>
      </trkpt>
      <trkpt lat="49.08932" lon="4.10799">
        <ele>108.4</ele>
        <time>2026-08-24T12:58:00Z</time>
      </trkpt>
      <trkpt lat="49.08936" lon="4.10804">
        <ele>108.6</ele>
        <time>2026-08-24T12:58:01Z</time>
      </trkpt>
      <trkpt lat="49.08939" lon="4.10808">
        <ele>108.4</ele>
        <time>2026-08-24T12:58:02Z</time>
      </trkpt>
      <trkpt lat="49.08943" lon="4.10812">
        <ele>108.6</ele>
        <time>2026-08-24T12:58:03Z</time>
      </trkpt>
      <trkpt lat="49.08947" lon="4.10816">
        <ele>108.6</ele>
        <time>2026-08-24T12:58:04Z</time>
      </trkpt>
      <trkpt lat="49.0895" lon="4.10821">
        <ele>108.6</ele>
        <time>2026-08-24T12:58:05Z</time>
      </trkpt>
      <trkpt lat="49.08954" lon="4.10825">
        <ele>108.8</ele>
        <time>2026-08-24T12:58:06Z</time>
      </trkpt>
      <trkpt lat="49.08957" lon="4.10829">
        <ele>109.2</ele>
        <time>2026-08-24T12:58:07Z</time>
      </trkpt>
      <trkpt lat="49.0896" lon="4.10834">
        <ele>109.2</ele>
        <time>2026-08-24T12:58:08Z</time>
      </trkpt>
      <trkpt lat="49.08964" lon="4.10838">
        <ele>109.4</ele>
        <time>2026-08-24T12:58:09Z</time>
      </trkpt>
      <trkpt lat="49.08967" lon="4.10842">
        <ele>109.6</ele>
        <time>2026-08-24T12:58:10Z</time>
      </trkpt>
      <trkpt lat="49.08971" lon="4.10846">
        <ele>109.8</ele>
        <time>2026-08-24T12:58:11Z</time>
      </trkpt>
      <trkpt lat="49.08974" lon="4.1085">
        <ele>110</ele>
        <time>2026-08-24T12:58:12Z</time>
      </trkpt>
      <trkpt lat="49.08977" lon="4.10854">
        <ele>110.2</ele>
        <time>2026-08-24T12:58:13Z</time>
      </trkpt>
      <trkpt lat="49.0898" lon="4.10858">
        <ele>110.4</ele>
        <time>2026-08-24T12:58:14Z</time>
      </trkpt>
      <trkpt lat="49.08984" lon="4.10863">
        <ele>110.6</ele>
        <time>2026-08-24T12:58:15Z</time>
      </trkpt>
      <trkpt lat="49.08987" lon="4.10867">
        <ele>110.8</ele>
        <time>2026-08-24T12:58:16Z</time>
      </trkpt>
      <trkpt lat="49.0899" lon="4.10871">
        <ele>110.8</ele>
        <time>2026-08-24T12:58:17Z</time>
      </trkpt>
      <trkpt lat="49.08994" lon="4.10874">
        <ele>111</ele>
        <time>2026-08-24T12:58:18Z</time>
      </trkpt>
      <trkpt lat="49.08997" lon="4.10878">
        <ele>111</ele>
        <time>2026-08-24T12:58:19Z</time>
      </trkpt>
      <trkpt lat="49.09001" lon="4.10882">
        <ele>111.2</ele>
        <time>2026-08-24T12:58:20Z</time>
      </trkpt>
      <trkpt lat="49.09004" lon="4.10887">
        <ele>111.4</ele>
        <time>2026-08-24T12:58:21Z</time>
      </trkpt>
      <trkpt lat="49.09008" lon="4.10891">
        <ele>111.6</ele>
        <time>2026-08-24T12:58:22Z</time>
      </trkpt>
      <trkpt lat="49.09011" lon="4.10895">
        <ele>111.6</ele>
        <time>2026-08-24T12:58:23Z</time>
      </trkpt>
      <trkpt lat="49.09014" lon="4.10899">
        <ele>111.8</ele>
        <time>2026-08-24T12:58:24Z</time>
      </trkpt>
      <trkpt lat="49.09018" lon="4.10904">
        <ele>112</ele>
        <time>2026-08-24T12:58:25Z</time>
      </trkpt>
      <trkpt lat="49.09021" lon="4.10908">
        <ele>112.2</ele>
        <time>2026-08-24T12:58:26Z</time>
      </trkpt>
      <trkpt lat="49.09025" lon="4.10912">
        <ele>112.4</ele>
        <time>2026-08-24T12:58:27Z</time>
      </trkpt>
      <trkpt lat="49.09028" lon="4.10917">
        <ele>112.6</ele>
        <time>2026-08-24T12:58:28Z</time>
      </trkpt>
      <trkpt lat="49.09031" lon="4.10921">
        <ele>112.8</ele>
        <time>2026-08-24T12:58:29Z</time>
      </trkpt>
      <trkpt lat="49.09035" lon="4.10926">
        <ele>112.6</ele>
        <time>2026-08-24T12:58:30Z</time>
      </trkpt>
      <trkpt lat="49.09038" lon="4.1093">
        <ele>112.8</ele>
        <time>2026-08-24T12:58:31Z</time>
      </trkpt>
      <trkpt lat="49.09041" lon="4.10935">
        <ele>112.8</ele>
        <time>2026-08-24T12:58:32Z</time>
      </trkpt>
      <trkpt lat="49.09044" lon="4.10939">
        <ele>113</ele>
        <time>2026-08-24T12:58:33Z</time>
      </trkpt>
      <trkpt lat="49.09046" lon="4.10945">
        <ele>113</ele>
        <time>2026-08-24T12:58:34Z</time>
      </trkpt>
      <trkpt lat="49.09049" lon="4.1095">
        <ele>113.2</ele>
        <time>2026-08-24T12:58:35Z</time>
      </trkpt>
      <trkpt lat="49.09052" lon="4.10955">
        <ele>113.4</ele>
        <time>2026-08-24T12:58:36Z</time>
      </trkpt>
      <trkpt lat="49.09055" lon="4.10962">
        <ele>113.4</ele>
        <time>2026-08-24T12:58:37Z</time>
      </trkpt>
      <trkpt lat="49.09057" lon="4.10968">
        <ele>113.2</ele>
        <time>2026-08-24T12:58:38Z</time>
      </trkpt>
      <trkpt lat="49.09059" lon="4.10974">
        <ele>113</ele>
        <time>2026-08-24T12:58:39Z</time>
      </trkpt>
      <trkpt lat="49.09061" lon="4.10981">
        <ele>112.8</ele>
        <time>2026-08-24T12:58:40Z</time>
      </trkpt>
      <trkpt lat="49.09063" lon="4.10988">
        <ele>112.6</ele>
        <time>2026-08-24T12:58:41Z</time>
      </trkpt>
      <trkpt lat="49.09064" lon="4.10994">
        <ele>112.4</ele>
        <time>2026-08-24T12:58:42Z</time>
      </trkpt>
      <trkpt lat="49.09065" lon="4.11001">
        <ele>112.4</ele>
        <time>2026-08-24T12:58:43Z</time>
      </trkpt>
      <trkpt lat="49.09066" lon="4.11008">
        <ele>112.4</ele>
        <time>2026-08-24T12:58:44Z</time>
      </trkpt>
      <trkpt lat="49.09067" lon="4.11014">
        <ele>112.6</ele>
        <time>2026-08-24T12:58:45Z</time>
      </trkpt>
      <trkpt lat="49.09068" lon="4.1102">
        <ele>112.8</ele>
        <time>2026-08-24T12:58:46Z</time>
      </trkpt>
      <trkpt lat="49.09069" lon="4.11026">
        <ele>113.2</ele>
        <time>2026-08-24T12:58:47Z</time>
      </trkpt>
      <trkpt lat="49.0907" lon="4.11031">
        <ele>113.4</ele>
        <time>2026-08-24T12:58:48Z</time>
      </trkpt>
      <trkpt lat="49.09071" lon="4.11037">
        <ele>113.8</ele>
        <time>2026-08-24T12:58:49Z</time>
      </trkpt>
      <trkpt lat="49.09072" lon="4.11042">
        <ele>114</ele>
        <time>2026-08-24T12:58:50Z</time>
      </trkpt>
      <trkpt lat="49.09072" lon="4.11047">
        <ele>114.2</ele>
        <time>2026-08-24T12:58:51Z</time>
      </trkpt>
      <trkpt lat="49.09073" lon="4.11052">
        <ele>114.4</ele>
        <time>2026-08-24T12:58:52Z</time>
      </trkpt>
      <trkpt lat="49.09074" lon="4.11056">
        <ele>114.6</ele>
        <time>2026-08-24T12:58:53Z</time>
      </trkpt>
      <trkpt lat="49.09074" lon="4.11061">
        <ele>115</ele>
        <time>2026-08-24T12:58:54Z</time>
      </trkpt>
      <trkpt lat="49.09075" lon="4.11065">
        <ele>115.2</ele>
        <time>2026-08-24T12:58:55Z</time>
      </trkpt>
      <trkpt lat="49.09076" lon="4.11069">
        <ele>115.4</ele>
        <time>2026-08-24T12:58:56Z</time>
      </trkpt>
      <trkpt lat="49.09077" lon="4.11074">
        <ele>115.4</ele>
        <time>2026-08-24T12:58:57Z</time>
      </trkpt>
      <trkpt lat="49.09077" lon="4.11078">
        <ele>115.4</ele>
        <time>2026-08-24T12:58:58Z</time>
      </trkpt>
      <trkpt lat="49.09078" lon="4.11082">
        <ele>115.6</ele>
        <time>2026-08-24T12:58:59Z</time>
      </trkpt>
      <trkpt lat="49.09078" lon="4.11086">
        <ele>115.8</ele>
        <time>2026-08-24T12:59:00Z</time>
      </trkpt>
      <trkpt lat="49.09079" lon="4.1109">
        <ele>116</ele>
        <time>2026-08-24T12:59:01Z</time>
      </trkpt>
      <trkpt lat="49.0908" lon="4.11094">
        <ele>116.2</ele>
        <time>2026-08-24T12:59:02Z</time>
      </trkpt>
      <trkpt lat="49.0908" lon="4.11098">
        <ele>116.6</ele>
        <time>2026-08-24T12:59:03Z</time>
      </trkpt>
      <trkpt lat="49.09081" lon="4.11101">
        <ele>116.8</ele>
        <time>2026-08-24T12:59:04Z</time>
      </trkpt>
      <trkpt lat="49.09081" lon="4.11105">
        <ele>117.2</ele>
        <time>2026-08-24T12:59:05Z</time>
      </trkpt>
      <trkpt lat="49.09082" lon="4.11109">
        <ele>117.4</ele>
        <time>2026-08-24T12:59:06Z</time>
      </trkpt>
      <trkpt lat="49.09082" lon="4.11113">
        <ele>117.6</ele>
        <time>2026-08-24T12:59:07Z</time>
      </trkpt>
      <trkpt lat="49.09083" lon="4.11117">
        <ele>117.8</ele>
        <time>2026-08-24T12:59:08Z</time>
      </trkpt>
      <trkpt lat="49.09084" lon="4.1112">
        <ele>118</ele>
        <time>2026-08-24T12:59:09Z</time>
      </trkpt>
      <trkpt lat="49.09084" lon="4.11124">
        <ele>118.2</ele>
        <time>2026-08-24T12:59:10Z</time>
      </trkpt>
      <trkpt lat="49.09085" lon="4.11128">
        <ele>118.4</ele>
        <time>2026-08-24T12:59:11Z</time>
      </trkpt>
      <trkpt lat="49.09086" lon="4.11132">
        <ele>118.6</ele>
        <time>2026-08-24T12:59:12Z</time>
      </trkpt>
      <trkpt lat="49.09086" lon="4.11136">
        <ele>118.8</ele>
        <time>2026-08-24T12:59:13Z</time>
      </trkpt>
      <trkpt lat="49.09087" lon="4.1114">
        <ele>119</ele>
        <time>2026-08-24T12:59:14Z</time>
      </trkpt>
      <trkpt lat="49.09087" lon="4.11144">
        <ele>119</ele>
        <time>2026-08-24T12:59:15Z</time>
      </trkpt>
      <trkpt lat="49.09088" lon="4.11148">
        <ele>119.2</ele>
        <time>2026-08-24T12:59:16Z</time>
      </trkpt>
      <trkpt lat="49.09089" lon="4.11152">
        <ele>119.4</ele>
        <time>2026-08-24T12:59:17Z</time>
      </trkpt>
      <trkpt lat="49.09089" lon="4.11156">
        <ele>119.8</ele>
        <time>2026-08-24T12:59:18Z</time>
      </trkpt>
      <trkpt lat="49.0909" lon="4.1116">
        <ele>120</ele>
        <time>2026-08-24T12:59:19Z</time>
      </trkpt>
      <trkpt lat="49.0909" lon="4.11164">
        <ele>120.2</ele>
        <time>2026-08-24T12:59:20Z</time>
      </trkpt>
      <trkpt lat="49.09091" lon="4.11168">
        <ele>120.2</ele>
        <time>2026-08-24T12:59:21Z</time>
      </trkpt>
      <trkpt lat="49.09092" lon="4.11172">
        <ele>120.4</ele>
        <time>2026-08-24T12:59:22Z</time>
      </trkpt>
      <trkpt lat="49.09092" lon="4.11175">
        <ele>120.6</ele>
        <time>2026-08-24T12:59:23Z</time>
      </trkpt>
      <trkpt lat="49.09093" lon="4.11179">
        <ele>120.6</ele>
        <time>2026-08-24T12:59:24Z</time>
      </trkpt>
      <trkpt lat="49.09093" lon="4.11183">
        <ele>120.8</ele>
        <time>2026-08-24T12:59:25Z</time>
      </trkpt>
      <trkpt lat="49.09094" lon="4.11187">
        <ele>121.2</ele>
        <time>2026-08-24T12:59:26Z</time>
      </trkpt>
      <trkpt lat="49.09094" lon="4.11191">
        <ele>121.4</ele>
        <time>2026-08-24T12:59:27Z</time>
      </trkpt>
      <trkpt lat="49.09095" lon="4.11195">
        <ele>121.6</ele>
        <time>2026-08-24T12:59:28Z</time>
      </trkpt>
      <trkpt lat="49.09095" lon="4.11199">
        <ele>121.8</ele>
        <time>2026-08-24T12:59:29Z</time>
      </trkpt>
      <trkpt lat="49.09096" lon="4.11203">
        <ele>122</ele>
        <time>2026-08-24T12:59:30Z</time>
      </trkpt>
      <trkpt lat="49.09096" lon="4.11207">
        <ele>122.2</ele>
        <time>2026-08-24T12:59:31Z</time>
      </trkpt>
      <trkpt lat="49.09097" lon="4.1121">
        <ele>122.6</ele>
        <time>2026-08-24T12:59:32Z</time>
      </trkpt>
      <trkpt lat="49.09097" lon="4.11214">
        <ele>122.8</ele>
        <time>2026-08-24T12:59:33Z</time>
      </trkpt>
      <trkpt lat="49.09098" lon="4.11218">
        <ele>123</ele>
        <time>2026-08-24T12:59:34Z</time>
      </trkpt>
      <trkpt lat="49.09098" lon="4.11222">
        <ele>123.2</ele>
        <time>2026-08-24T12:59:35Z</time>
      </trkpt>
      <trkpt lat="49.09099" lon="4.11226">
        <ele>123.4</ele>
        <time>2026-08-24T12:59:36Z</time>
      </trkpt>
      <trkpt lat="49.09099" lon="4.1123">
        <ele>123.4</ele>
        <time>2026-08-24T12:59:37Z</time>
      </trkpt>
      <trkpt lat="49.091" lon="4.11234">
        <ele>123.6</ele>
        <time>2026-08-24T12:59:38Z</time>
      </trkpt>
      <trkpt lat="49.091" lon="4.11238">
        <ele>123.8</ele>
        <time>2026-08-24T12:59:39Z</time>
      </trkpt>
      <trkpt lat="49.09101" lon="4.11242">
        <ele>124</ele>
        <time>2026-08-24T12:59:40Z</time>
      </trkpt>
      <trkpt lat="49.09101" lon="4.11246">
        <ele>124.4</ele>
        <time>2026-08-24T12:59:41Z</time>
      </trkpt>
      <trkpt lat="49.09101" lon="4.1125">
        <ele>124.6</ele>
        <time>2026-08-24T12:59:42Z</time>
      </trkpt>
      <trkpt lat="49.09102" lon="4.11254">
        <ele>124.8</ele>
        <time>2026-08-24T12:59:43Z</time>
      </trkpt>
      <trkpt lat="49.09102" lon="4.11258">
        <ele>125</ele>
        <time>2026-08-24T12:59:44Z</time>
      </trkpt>
      <trkpt lat="49.09102" lon="4.11262">
        <ele>125.2</ele>
        <time>2026-08-24T12:59:45Z</time>
      </trkpt>
      <trkpt lat="49.09102" lon="4.11265">
        <ele>125.2</ele>
        <time>2026-08-24T12:59:46Z</time>
      </trkpt>
      <trkpt lat="49.09102" lon="4.11269">
        <ele>125.4</ele>
        <time>2026-08-24T12:59:47Z</time>
      </trkpt>
      <trkpt lat="49.09103" lon="4.11273">
        <ele>125.4</ele>
        <time>2026-08-24T12:59:48Z</time>
      </trkpt>
      <trkpt lat="49.09103" lon="4.11277">
        <ele>125.6</ele>
        <time>2026-08-24T12:59:49Z</time>
      </trkpt>
      <trkpt lat="49.09103" lon="4.11281">
        <ele>125.8</ele>
        <time>2026-08-24T12:59:50Z</time>
      </trkpt>
      <trkpt lat="49.09103" lon="4.11284">
        <ele>125.8</ele>
        <time>2026-08-24T12:59:51Z</time>
      </trkpt>
      <trkpt lat="49.09103" lon="4.11288">
        <ele>126</ele>
        <time>2026-08-24T12:59:52Z</time>
      </trkpt>
      <trkpt lat="49.09103" lon="4.11292">
        <ele>126.2</ele>
        <time>2026-08-24T12:59:53Z</time>
      </trkpt>
      <trkpt lat="49.09103" lon="4.11296">
        <ele>126.6</ele>
        <time>2026-08-24T12:59:54Z</time>
      </trkpt>
      <trkpt lat="49.09104" lon="4.113">
        <ele>126.8</ele>
        <time>2026-08-24T12:59:55Z</time>
      </trkpt>
      <trkpt lat="49.09104" lon="4.11303">
        <ele>127</ele>
        <time>2026-08-24T12:59:56Z</time>
      </trkpt>
      <trkpt lat="49.09104" lon="4.11307">
        <ele>127.2</ele>
        <time>2026-08-24T12:59:57Z</time>
      </trkpt>
      <trkpt lat="49.09105" lon="4.11311">
        <ele>127.4</ele>
        <time>2026-08-24T12:59:58Z</time>
      </trkpt>
      <trkpt lat="49.09105" lon="4.11315">
        <ele>127.6</ele>
        <time>2026-08-24T12:59:59Z</time>
      </trkpt>
      <trkpt lat="49.09105" lon="4.11319">
        <ele>127.6</ele>
        <time>2026-08-24T13:00:00Z</time>
      </trkpt>
      <trkpt lat="49.09105" lon="4.11322">
        <ele>127.6</ele>
        <time>2026-08-24T13:00:01Z</time>
      </trkpt>
      <trkpt lat="49.09105" lon="4.11326">
        <ele>127.8</ele>
        <time>2026-08-24T13:00:02Z</time>
      </trkpt>
      <trkpt lat="49.09105" lon="4.1133">
        <ele>127.8</ele>
        <time>2026-08-24T13:00:03Z</time>
      </trkpt>
      <trkpt lat="49.09105" lon="4.11334">
        <ele>127.8</ele>
        <time>2026-08-24T13:00:04Z</time>
      </trkpt>
      <trkpt lat="49.09105" lon="4.11337">
        <ele>128</ele>
        <time>2026-08-24T13:00:05Z</time>
      </trkpt>
      <trkpt lat="49.09105" lon="4.11341">
        <ele>128.2</ele>
        <time>2026-08-24T13:00:06Z</time>
      </trkpt>
      <trkpt lat="49.09106" lon="4.11345">
        <ele>128.4</ele>
        <time>2026-08-24T13:00:07Z</time>
      </trkpt>
      <trkpt lat="49.09106" lon="4.11349">
        <ele>128.6</ele>
        <time>2026-08-24T13:00:08Z</time>
      </trkpt>
      <trkpt lat="49.09106" lon="4.11353">
        <ele>129</ele>
        <time>2026-08-24T13:00:09Z</time>
      </trkpt>
      <trkpt lat="49.09106" lon="4.11356">
        <ele>129.2</ele>
        <time>2026-08-24T13:00:10Z</time>
      </trkpt>
      <trkpt lat="49.09107" lon="4.1136">
        <ele>129.6</ele>
        <time>2026-08-24T13:00:11Z</time>
      </trkpt>
      <trkpt lat="49.09107" lon="4.11364">
        <ele>129.8</ele>
        <time>2026-08-24T13:00:12Z</time>
      </trkpt>
      <trkpt lat="49.09107" lon="4.11368">
        <ele>130</ele>
        <time>2026-08-24T13:00:13Z</time>
      </trkpt>
      <trkpt lat="49.09107" lon="4.11372">
        <ele>130.4</ele>
        <time>2026-08-24T13:00:14Z</time>
      </trkpt>
      <trkpt lat="49.09108" lon="4.11375">
        <ele>130.6</ele>
        <time>2026-08-24T13:00:15Z</time>
      </trkpt>
      <trkpt lat="49.09108" lon="4.11379">
        <ele>130.8</ele>
        <time>2026-08-24T13:00:16Z</time>
      </trkpt>
      <trkpt lat="49.09108" lon="4.11383">
        <ele>131</ele>
        <time>2026-08-24T13:00:17Z</time>
      </trkpt>
      <trkpt lat="49.09108" lon="4.11386">
        <ele>131.2</ele>
        <time>2026-08-24T13:00:18Z</time>
      </trkpt>
      <trkpt lat="49.09108" lon="4.1139">
        <ele>131.2</ele>
        <time>2026-08-24T13:00:19Z</time>
      </trkpt>
      <trkpt lat="49.09108" lon="4.11394">
        <ele>131.4</ele>
        <time>2026-08-24T13:00:20Z</time>
      </trkpt>
      <trkpt lat="49.09108" lon="4.11397">
        <ele>131.4</ele>
        <time>2026-08-24T13:00:21Z</time>
      </trkpt>
      <trkpt lat="49.09108" lon="4.11401">
        <ele>131.6</ele>
        <time>2026-08-24T13:00:22Z</time>
      </trkpt>
      <trkpt lat="49.09108" lon="4.11405">
        <ele>131.8</ele>
        <time>2026-08-24T13:00:23Z</time>
      </trkpt>
      <trkpt lat="49.09108" lon="4.11409">
        <ele>132.2</ele>
        <time>2026-08-24T13:00:24Z</time>
      </trkpt>
      <trkpt lat="49.09108" lon="4.11413">
        <ele>132.2</ele>
        <time>2026-08-24T13:00:25Z</time>
      </trkpt>
      <trkpt lat="49.09109" lon="4.11416">
        <ele>132.4</ele>
        <time>2026-08-24T13:00:26Z</time>
      </trkpt>
      <trkpt lat="49.09109" lon="4.1142">
        <ele>132.6</ele>
        <time>2026-08-24T13:00:27Z</time>
      </trkpt>
      <trkpt lat="49.09109" lon="4.11424">
        <ele>132.6</ele>
        <time>2026-08-24T13:00:28Z</time>
      </trkpt>
      <trkpt lat="49.09109" lon="4.11427">
        <ele>132.8</ele>
        <time>2026-08-24T13:00:29Z</time>
      </trkpt>
      <trkpt lat="49.09109" lon="4.11431">
        <ele>133</ele>
        <time>2026-08-24T13:00:30Z</time>
      </trkpt>
      <trkpt lat="49.0911" lon="4.11434">
        <ele>133</ele>
        <time>2026-08-24T13:00:31Z</time>
      </trkpt>
      <trkpt lat="49.0911" lon="4.11438">
        <ele>133.2</ele>
        <time>2026-08-24T13:00:32Z</time>
      </trkpt>
      <trkpt lat="49.0911" lon="4.11442">
        <ele>133.2</ele>
        <time>2026-08-24T13:00:33Z</time>
      </trkpt>
      <trkpt lat="49.0911" lon="4.11445">
        <ele>133.4</ele>
        <time>2026-08-24T13:00:34Z</time>
      </trkpt>
      <trkpt lat="49.0911" lon="4.11449">
        <ele>133.6</ele>
        <time>2026-08-24T13:00:35Z</time>
      </trkpt>
      <trkpt lat="49.0911" lon="4.11452">
        <ele>133.8</ele>
        <time>2026-08-24T13:00:36Z</time>
      </trkpt>
      <trkpt lat="49.0911" lon="4.11456">
        <ele>134</ele>
        <time>2026-08-24T13:00:37Z</time>
      </trkpt>
      <trkpt lat="49.09111" lon="4.1146">
        <ele>134.2</ele>
        <time>2026-08-24T13:00:38Z</time>
      </trkpt>
      <trkpt lat="49.09111" lon="4.11463">
        <ele>134.4</ele>
        <time>2026-08-24T13:00:39Z</time>
      </trkpt>
      <trkpt lat="49.09111" lon="4.11467">
        <ele>134.6</ele>
        <time>2026-08-24T13:00:40Z</time>
      </trkpt>
      <trkpt lat="49.09111" lon="4.11471">
        <ele>134.8</ele>
        <time>2026-08-24T13:00:41Z</time>
      </trkpt>
      <trkpt lat="49.09111" lon="4.11475">
        <ele>135</ele>
        <time>2026-08-24T13:00:42Z</time>
      </trkpt>
      <trkpt lat="49.09112" lon="4.11479">
        <ele>135.2</ele>
        <time>2026-08-24T13:00:43Z</time>
      </trkpt>
      <trkpt lat="49.09112" lon="4.11483">
        <ele>135.4</ele>
        <time>2026-08-24T13:00:44Z</time>
      </trkpt>
      <trkpt lat="49.09112" lon="4.11487">
        <ele>135.6</ele>
        <time>2026-08-24T13:00:45Z</time>
      </trkpt>
      <trkpt lat="49.09112" lon="4.11491">
        <ele>135.8</ele>
        <time>2026-08-24T13:00:46Z</time>
      </trkpt>
      <trkpt lat="49.09113" lon="4.11495">
        <ele>136</ele>
        <time>2026-08-24T13:00:47Z</time>
      </trkpt>
      <trkpt lat="49.09113" lon="4.11499">
        <ele>136.2</ele>
        <time>2026-08-24T13:00:48Z</time>
      </trkpt>
      <trkpt lat="49.09113" lon="4.11503">
        <ele>136.2</ele>
        <time>2026-08-24T13:00:49Z</time>
      </trkpt>
      <trkpt lat="49.09113" lon="4.11507">
        <ele>136.4</ele>
        <time>2026-08-24T13:00:50Z</time>
      </trkpt>
      <trkpt lat="49.09113" lon="4.11511">
        <ele>136.6</ele>
        <time>2026-08-24T13:00:51Z</time>
      </trkpt>
      <trkpt lat="49.09113" lon="4.11516">
        <ele>136.6</ele>
        <time>2026-08-24T13:00:52Z</time>
      </trkpt>
      <trkpt lat="49.09114" lon="4.11519">
        <ele>136.6</ele>
        <time>2026-08-24T13:00:53Z</time>
      </trkpt>
      <trkpt lat="49.09114" lon="4.11523">
        <ele>136.6</ele>
        <time>2026-08-24T13:00:54Z</time>
      </trkpt>
      <trkpt lat="49.09114" lon="4.11527">
        <ele>136.6</ele>
        <time>2026-08-24T13:00:55Z</time>
      </trkpt>
      <trkpt lat="49.09114" lon="4.11531">
        <ele>136.8</ele>
        <time>2026-08-24T13:00:56Z</time>
      </trkpt>
      <trkpt lat="49.09115" lon="4.11535">
        <ele>136.8</ele>
        <time>2026-08-24T13:00:57Z</time>
      </trkpt>
      <trkpt lat="49.09115" lon="4.11539">
        <ele>137</ele>
        <time>2026-08-24T13:00:58Z</time>
      </trkpt>
      <trkpt lat="49.09115" lon="4.11543">
        <ele>137</ele>
        <time>2026-08-24T13:00:59Z</time>
      </trkpt>
      <trkpt lat="49.09115" lon="4.11547">
        <ele>137.2</ele>
        <time>2026-08-24T13:01:00Z</time>
      </trkpt>
      <trkpt lat="49.09116" lon="4.11551">
        <ele>137.4</ele>
        <time>2026-08-24T13:01:01Z</time>
      </trkpt>
      <trkpt lat="49.09116" lon="4.11555">
        <ele>137.6</ele>
        <time>2026-08-24T13:01:02Z</time>
      </trkpt>
      <trkpt lat="49.09116" lon="4.1156">
        <ele>137.8</ele>
        <time>2026-08-24T13:01:03Z</time>
      </trkpt>
      <trkpt lat="49.09116" lon="4.11564">
        <ele>137.8</ele>
        <time>2026-08-24T13:01:04Z</time>
      </trkpt>
      <trkpt lat="49.09117" lon="4.11568">
        <ele>138</ele>
        <time>2026-08-24T13:01:05Z</time>
      </trkpt>
      <trkpt lat="49.09117" lon="4.11572">
        <ele>138.2</ele>
        <time>2026-08-24T13:01:06Z</time>
      </trkpt>
      <trkpt lat="49.09117" lon="4.11576">
        <ele>138.4</ele>
        <time>2026-08-24T13:01:07Z</time>
      </trkpt>
      <trkpt lat="49.09118" lon="4.1158">
        <ele>138.6</ele>
        <time>2026-08-24T13:01:08Z</time>
      </trkpt>
      <trkpt lat="49.09118" lon="4.11584">
        <ele>138.8</ele>
        <time>2026-08-24T13:01:09Z</time>
      </trkpt>
      <trkpt lat="49.09118" lon="4.11588">
        <ele>138.8</ele>
        <time>2026-08-24T13:01:10Z</time>
      </trkpt>
      <trkpt lat="49.09118" lon="4.11592">
        <ele>139</ele>
        <time>2026-08-24T13:01:11Z</time>
      </trkpt>
      <trkpt lat="49.09118" lon="4.11597">
        <ele>139.2</ele>
        <time>2026-08-24T13:01:12Z</time>
      </trkpt>
      <trkpt lat="49.09118" lon="4.11601">
        <ele>139.6</ele>
        <time>2026-08-24T13:01:13Z</time>
      </trkpt>
      <trkpt lat="49.09118" lon="4.11605">
        <ele>139.8</ele>
        <time>2026-08-24T13:01:14Z</time>
      </trkpt>
      <trkpt lat="49.09119" lon="4.11609">
        <ele>140</ele>
        <time>2026-08-24T13:01:15Z</time>
      </trkpt>
      <trkpt lat="49.09119" lon="4.11613">
        <ele>140.2</ele>
        <time>2026-08-24T13:01:16Z</time>
      </trkpt>
      <trkpt lat="49.09119" lon="4.11617">
        <ele>140.6</ele>
        <time>2026-08-24T13:01:17Z</time>
      </trkpt>
      <trkpt lat="49.09119" lon="4.11621">
        <ele>140.6</ele>
        <time>2026-08-24T13:01:18Z</time>
      </trkpt>
      <trkpt lat="49.09119" lon="4.11625">
        <ele>140.8</ele>
        <time>2026-08-24T13:01:19Z</time>
      </trkpt>
      <trkpt lat="49.09119" lon="4.11629">
        <ele>140.8</ele>
        <time>2026-08-24T13:01:20Z</time>
      </trkpt>
      <trkpt lat="49.0912" lon="4.11634">
        <ele>141.2</ele>
        <time>2026-08-24T13:01:21Z</time>
      </trkpt>
      <trkpt lat="49.0912" lon="4.11638">
        <ele>141.4</ele>
        <time>2026-08-24T13:01:22Z</time>
      </trkpt>
      <trkpt lat="49.09119" lon="4.11642">
        <ele>141.6</ele>
        <time>2026-08-24T13:01:23Z</time>
      </trkpt>
      <trkpt lat="49.09119" lon="4.11647">
        <ele>142</ele>
        <time>2026-08-24T13:01:24Z</time>
      </trkpt>
      <trkpt lat="49.09118" lon="4.11651">
        <ele>142.2</ele>
        <time>2026-08-24T13:01:25Z</time>
      </trkpt>
      <trkpt lat="49.09118" lon="4.11655">
        <ele>142.4</ele>
        <time>2026-08-24T13:01:26Z</time>
      </trkpt>
      <trkpt lat="49.09118" lon="4.1166">
        <ele>142.4</ele>
        <time>2026-08-24T13:01:27Z</time>
      </trkpt>
      <trkpt lat="49.09117" lon="4.11664">
        <ele>142.6</ele>
        <time>2026-08-24T13:01:28Z</time>
      </trkpt>
      <trkpt lat="49.09116" lon="4.11668">
        <ele>142.6</ele>
        <time>2026-08-24T13:01:29Z</time>
      </trkpt>
      <trkpt lat="49.09115" lon="4.11673">
        <ele>142.8</ele>
        <time>2026-08-24T13:01:30Z</time>
      </trkpt>
      <trkpt lat="49.09114" lon="4.11677">
        <ele>143</ele>
        <time>2026-08-24T13:01:31Z</time>
      </trkpt>
      <trkpt lat="49.09113" lon="4.11681">
        <ele>143.2</ele>
        <time>2026-08-24T13:01:32Z</time>
      </trkpt>
      <trkpt lat="49.09112" lon="4.11685">
        <ele>143.4</ele>
        <time>2026-08-24T13:01:33Z</time>
      </trkpt>
      <trkpt lat="49.0911" lon="4.1169">
        <ele>143.8</ele>
        <time>2026-08-24T13:01:34Z</time>
      </trkpt>
      <trkpt lat="49.09109" lon="4.11694">
        <ele>144</ele>
        <time>2026-08-24T13:01:35Z</time>
      </trkpt>
      <trkpt lat="49.09108" lon="4.11699">
        <ele>144.2</ele>
        <time>2026-08-24T13:01:36Z</time>
      </trkpt>
      <trkpt lat="49.09106" lon="4.11703">
        <ele>144.2</ele>
        <time>2026-08-24T13:01:37Z</time>
      </trkpt>
      <trkpt lat="49.09105" lon="4.11707">
        <ele>144.2</ele>
        <time>2026-08-24T13:01:38Z</time>
      </trkpt>
      <trkpt lat="49.09104" lon="4.11711">
        <ele>144.2</ele>
        <time>2026-08-24T13:01:39Z</time>
      </trkpt>
      <trkpt lat="49.09102" lon="4.11715">
        <ele>144.2</ele>
        <time>2026-08-24T13:01:40Z</time>
      </trkpt>
      <trkpt lat="49.09101" lon="4.11719">
        <ele>144.4</ele>
        <time>2026-08-24T13:01:41Z</time>
      </trkpt>
      <trkpt lat="49.09099" lon="4.11724">
        <ele>144.6</ele>
        <time>2026-08-24T13:01:42Z</time>
      </trkpt>
      <trkpt lat="49.09098" lon="4.11728">
        <ele>144.8</ele>
        <time>2026-08-24T13:01:43Z</time>
      </trkpt>
      <trkpt lat="49.09097" lon="4.11732">
        <ele>145</ele>
        <time>2026-08-24T13:01:44Z</time>
      </trkpt>
      <trkpt lat="49.09095" lon="4.11737">
        <ele>145.2</ele>
        <time>2026-08-24T13:01:45Z</time>
      </trkpt>
      <trkpt lat="49.09094" lon="4.11741">
        <ele>145.4</ele>
        <time>2026-08-24T13:01:46Z</time>
      </trkpt>
      <trkpt lat="49.09093" lon="4.11745">
        <ele>145.6</ele>
        <time>2026-08-24T13:01:47Z</time>
      </trkpt>
      <trkpt lat="49.09092" lon="4.11749">
        <ele>146</ele>
        <time>2026-08-24T13:01:48Z</time>
      </trkpt>
      <trkpt lat="49.09091" lon="4.11753">
        <ele>146.2</ele>
        <time>2026-08-24T13:01:49Z</time>
      </trkpt>
      <trkpt lat="49.0909" lon="4.11757">
        <ele>146.6</ele>
        <time>2026-08-24T13:01:50Z</time>
      </trkpt>
      <trkpt lat="49.09089" lon="4.11762">
        <ele>146.8</ele>
        <time>2026-08-24T13:01:51Z</time>
      </trkpt>
      <trkpt lat="49.09087" lon="4.11766">
        <ele>147.2</ele>
        <time>2026-08-24T13:01:52Z</time>
      </trkpt>
      <trkpt lat="49.09085" lon="4.11771">
        <ele>147.4</ele>
        <time>2026-08-24T13:01:53Z</time>
      </trkpt>
      <trkpt lat="49.09082" lon="4.11776">
        <ele>147.6</ele>
        <time>2026-08-24T13:01:54Z</time>
      </trkpt>
      <trkpt lat="49.0908" lon="4.1178">
        <ele>147.8</ele>
        <time>2026-08-24T13:01:55Z</time>
      </trkpt>
      <trkpt lat="49.09079" lon="4.11785">
        <ele>148</ele>
        <time>2026-08-24T13:01:56Z</time>
      </trkpt>
      <trkpt lat="49.09077" lon="4.1179">
        <ele>148</ele>
        <time>2026-08-24T13:01:57Z</time>
      </trkpt>
      <trkpt lat="49.09076" lon="4.11795">
        <ele>148.2</ele>
        <time>2026-08-24T13:01:58Z</time>
      </trkpt>
      <trkpt lat="49.09074" lon="4.11799">
        <ele>148.2</ele>
        <time>2026-08-24T13:01:59Z</time>
      </trkpt>
      <trkpt lat="49.09073" lon="4.11804">
        <ele>148.4</ele>
        <time>2026-08-24T13:02:00Z</time>
      </trkpt>
      <trkpt lat="49.09071" lon="4.11809">
        <ele>148.6</ele>
        <time>2026-08-24T13:02:01Z</time>
      </trkpt>
      <trkpt lat="49.0907" lon="4.11813">
        <ele>148.8</ele>
        <time>2026-08-24T13:02:02Z</time>
      </trkpt>
      <trkpt lat="49.09068" lon="4.11817">
        <ele>148.8</ele>
        <time>2026-08-24T13:02:03Z</time>
      </trkpt>
      <trkpt lat="49.09067" lon="4.11821">
        <ele>149.2</ele>
        <time>2026-08-24T13:02:04Z</time>
      </trkpt>
      <trkpt lat="49.09066" lon="4.11826">
        <ele>149.4</ele>
        <time>2026-08-24T13:02:05Z</time>
      </trkpt>
      <trkpt lat="49.09064" lon="4.1183">
        <ele>149.6</ele>
        <time>2026-08-24T13:02:06Z</time>
      </trkpt>
      <trkpt lat="49.09063" lon="4.11834">
        <ele>149.8</ele>
        <time>2026-08-24T13:02:07Z</time>
      </trkpt>
      <trkpt lat="49.09062" lon="4.11838">
        <ele>150</ele>
        <time>2026-08-24T13:02:08Z</time>
      </trkpt>
      <trkpt lat="49.0906" lon="4.11843">
        <ele>150.4</ele>
        <time>2026-08-24T13:02:09Z</time>
      </trkpt>
      <trkpt lat="49.09059" lon="4.11847">
        <ele>150.6</ele>
        <time>2026-08-24T13:02:10Z</time>
      </trkpt>
      <trkpt lat="49.09057" lon="4.11851">
        <ele>150.6</ele>
        <time>2026-08-24T13:02:11Z</time>
      </trkpt>
      <trkpt lat="49.09056" lon="4.11855">
        <ele>150.8</ele>
        <time>2026-08-24T13:02:12Z</time>
      </trkpt>
      <trkpt lat="49.09055" lon="4.1186">
        <ele>151</ele>
        <time>2026-08-24T13:02:13Z</time>
      </trkpt>
      <trkpt lat="49.09053" lon="4.11864">
        <ele>151</ele>
        <time>2026-08-24T13:02:14Z</time>
      </trkpt>
      <trkpt lat="49.09052" lon="4.11868">
        <ele>151.2</ele>
        <time>2026-08-24T13:02:15Z</time>
      </trkpt>
      <trkpt lat="49.09051" lon="4.11873">
        <ele>151.4</ele>
        <time>2026-08-24T13:02:16Z</time>
      </trkpt>
      <trkpt lat="49.09049" lon="4.11877">
        <ele>151.6</ele>
        <time>2026-08-24T13:02:17Z</time>
      </trkpt>
      <trkpt lat="49.09048" lon="4.11881">
        <ele>151.8</ele>
        <time>2026-08-24T13:02:18Z</time>
      </trkpt>
      <trkpt lat="49.09047" lon="4.11885">
        <ele>152</ele>
        <time>2026-08-24T13:02:19Z</time>
      </trkpt>
      <trkpt lat="49.09045" lon="4.11889">
        <ele>152.2</ele>
        <time>2026-08-24T13:02:20Z</time>
      </trkpt>
      <trkpt lat="49.09044" lon="4.11893">
        <ele>152.4</ele>
        <time>2026-08-24T13:02:21Z</time>
      </trkpt>
      <trkpt lat="49.09042" lon="4.11898">
        <ele>152.6</ele>
        <time>2026-08-24T13:02:22Z</time>
      </trkpt>
      <trkpt lat="49.09041" lon="4.11902">
        <ele>152.8</ele>
        <time>2026-08-24T13:02:23Z</time>
      </trkpt>
      <trkpt lat="49.0904" lon="4.11906">
        <ele>153</ele>
        <time>2026-08-24T13:02:24Z</time>
      </trkpt>
      <trkpt lat="49.09038" lon="4.11911">
        <ele>153.2</ele>
        <time>2026-08-24T13:02:25Z</time>
      </trkpt>
      <trkpt lat="49.09037" lon="4.11915">
        <ele>153.6</ele>
        <time>2026-08-24T13:02:26Z</time>
      </trkpt>
      <trkpt lat="49.09035" lon="4.1192">
        <ele>153.8</ele>
        <time>2026-08-24T13:02:27Z</time>
      </trkpt>
      <trkpt lat="49.09034" lon="4.11924">
        <ele>153.8</ele>
        <time>2026-08-24T13:02:28Z</time>
      </trkpt>
      <trkpt lat="49.09032" lon="4.11929">
        <ele>154</ele>
        <time>2026-08-24T13:02:29Z</time>
      </trkpt>
      <trkpt lat="49.09031" lon="4.11934">
        <ele>154.2</ele>
        <time>2026-08-24T13:02:30Z</time>
      </trkpt>
      <trkpt lat="49.09029" lon="4.11938">
        <ele>154.4</ele>
        <time>2026-08-24T13:02:31Z</time>
      </trkpt>
      <trkpt lat="49.09028" lon="4.11943">
        <ele>154.6</ele>
        <time>2026-08-24T13:02:32Z</time>
      </trkpt>
      <trkpt lat="49.09026" lon="4.11947">
        <ele>154.8</ele>
        <time>2026-08-24T13:02:33Z</time>
      </trkpt>
      <trkpt lat="49.09025" lon="4.11952">
        <ele>155</ele>
        <time>2026-08-24T13:02:34Z</time>
      </trkpt>
      <trkpt lat="49.09024" lon="4.11956">
        <ele>155.2</ele>
        <time>2026-08-24T13:02:35Z</time>
      </trkpt>
      <trkpt lat="49.09022" lon="4.1196">
        <ele>155.4</ele>
        <time>2026-08-24T13:02:36Z</time>
      </trkpt>
      <trkpt lat="49.09021" lon="4.11964">
        <ele>155.4</ele>
        <time>2026-08-24T13:02:37Z</time>
      </trkpt>
      <trkpt lat="49.0902" lon="4.11968">
        <ele>155.6</ele>
        <time>2026-08-24T13:02:38Z</time>
      </trkpt>
      <trkpt lat="49.0902" lon="4.11972">
        <ele>155.8</ele>
        <time>2026-08-24T13:02:39Z</time>
      </trkpt>
      <trkpt lat="49.09019" lon="4.11976">
        <ele>155.8</ele>
        <time>2026-08-24T13:02:40Z</time>
      </trkpt>
      <trkpt lat="49.09018" lon="4.11981">
        <ele>156.2</ele>
        <time>2026-08-24T13:02:41Z</time>
      </trkpt>
      <trkpt lat="49.09017" lon="4.11985">
        <ele>156.4</ele>
        <time>2026-08-24T13:02:42Z</time>
      </trkpt>
      <trkpt lat="49.09017" lon="4.11989">
        <ele>156.4</ele>
        <time>2026-08-24T13:02:43Z</time>
      </trkpt>
      <trkpt lat="49.09016" lon="4.11994">
        <ele>156.4</ele>
        <time>2026-08-24T13:02:44Z</time>
      </trkpt>
      <trkpt lat="49.09016" lon="4.11998">
        <ele>156.6</ele>
        <time>2026-08-24T13:02:45Z</time>
      </trkpt>
      <trkpt lat="49.09015" lon="4.12003">
        <ele>156.8</ele>
        <time>2026-08-24T13:02:46Z</time>
      </trkpt>
      <trkpt lat="49.09015" lon="4.12008">
        <ele>156.8</ele>
        <time>2026-08-24T13:02:47Z</time>
      </trkpt>
      <trkpt lat="49.09015" lon="4.12013">
        <ele>157.2</ele>
        <time>2026-08-24T13:02:48Z</time>
      </trkpt>
      <trkpt lat="49.09014" lon="4.12017">
        <ele>157.6</ele>
        <time>2026-08-24T13:02:49Z</time>
      </trkpt>
      <trkpt lat="49.09013" lon="4.12022">
        <ele>157.8</ele>
        <time>2026-08-24T13:02:50Z</time>
      </trkpt>
      <trkpt lat="49.09012" lon="4.12026">
        <ele>157.8</ele>
        <time>2026-08-24T13:02:51Z</time>
      </trkpt>
      <trkpt lat="49.09012" lon="4.12031">
        <ele>158</ele>
        <time>2026-08-24T13:02:52Z</time>
      </trkpt>
      <trkpt lat="49.09011" lon="4.12036">
        <ele>158</ele>
        <time>2026-08-24T13:02:53Z</time>
      </trkpt>
      <trkpt lat="49.09011" lon="4.1204">
        <ele>158.2</ele>
        <time>2026-08-24T13:02:54Z</time>
      </trkpt>
      <trkpt lat="49.0901" lon="4.12045">
        <ele>158.2</ele>
        <time>2026-08-24T13:02:55Z</time>
      </trkpt>
      <trkpt lat="49.0901" lon="4.12049">
        <ele>158.2</ele>
        <time>2026-08-24T13:02:56Z</time>
      </trkpt>
      <trkpt lat="49.09009" lon="4.12053">
        <ele>158.4</ele>
        <time>2026-08-24T13:02:57Z</time>
      </trkpt>
      <trkpt lat="49.09009" lon="4.12057">
        <ele>158.4</ele>
        <time>2026-08-24T13:02:58Z</time>
      </trkpt>
      <trkpt lat="49.09008" lon="4.12062">
        <ele>158.6</ele>
        <time>2026-08-24T13:02:59Z</time>
      </trkpt>
      <trkpt lat="49.09008" lon="4.12066">
        <ele>158.6</ele>
        <time>2026-08-24T13:03:00Z</time>
      </trkpt>
      <trkpt lat="49.09008" lon="4.12071">
        <ele>158.8</ele>
        <time>2026-08-24T13:03:01Z</time>
      </trkpt>
      <trkpt lat="49.09007" lon="4.12075">
        <ele>158.8</ele>
        <time>2026-08-24T13:03:02Z</time>
      </trkpt>
      <trkpt lat="49.09007" lon="4.12079">
        <ele>158.8</ele>
        <time>2026-08-24T13:03:03Z</time>
      </trkpt>
      <trkpt lat="49.09006" lon="4.12082">
        <ele>158.8</ele>
        <time>2026-08-24T13:03:04Z</time>
      </trkpt>
      <trkpt lat="49.09006" lon="4.12085">
        <ele>159</ele>
        <time>2026-08-24T13:03:05Z</time>
      </trkpt>
      <trkpt lat="49.09005" lon="4.12088">
        <ele>159.2</ele>
        <time>2026-08-24T13:03:06Z</time>
      </trkpt>
      <trkpt lat="49.09005" lon="4.12091">
        <ele>159.4</ele>
        <time>2026-08-24T13:03:07Z</time>
      </trkpt>
      <trkpt lat="49.09005" lon="4.12093">
        <ele>159.8</ele>
        <time>2026-08-24T13:03:08Z</time>
      </trkpt>
      <trkpt lat="49.09005" lon="4.12095">
        <ele>160.2</ele>
        <time>2026-08-24T13:03:09Z</time>
      </trkpt>
      <trkpt lat="49.09005" lon="4.12095">
        <ele>160.6</ele>
        <time>2026-08-24T13:03:10Z</time>
      </trkpt>
      <trkpt lat="49.09005" lon="4.12096">
        <ele>161</ele>
        <time>2026-08-24T13:03:11Z</time>
      </trkpt>
      <trkpt lat="49.0901" lon="4.12099">
        <ele>162.4</ele>
        <time>2026-08-24T13:03:15Z</time>
      </trkpt>
      <trkpt lat="49.09012" lon="4.12097">
        <ele>162.6</ele>
        <time>2026-08-24T13:03:16Z</time>
      </trkpt>
      <trkpt lat="49.09014" lon="4.12094">
        <ele>162.6</ele>
        <time>2026-08-24T13:03:17Z</time>
      </trkpt>
      <trkpt lat="49.09017" lon="4.12091">
        <ele>162.8</ele>
        <time>2026-08-24T13:03:18Z</time>
      </trkpt>
      <trkpt lat="49.0902" lon="4.12088">
        <ele>162.8</ele>
        <time>2026-08-24T13:03:19Z</time>
      </trkpt>
      <trkpt lat="49.09023" lon="4.12084">
        <ele>162.8</ele>
        <time>2026-08-24T13:03:20Z</time>
      </trkpt>
      <trkpt lat="49.09026" lon="4.12081">
        <ele>162.8</ele>
        <time>2026-08-24T13:03:21Z</time>
      </trkpt>
      <trkpt lat="49.09029" lon="4.12077">
        <ele>162.8</ele>
        <time>2026-08-24T13:03:22Z</time>
      </trkpt>
      <trkpt lat="49.09032" lon="4.12073">
        <ele>163</ele>
        <time>2026-08-24T13:03:23Z</time>
      </trkpt>
      <trkpt lat="49.09035" lon="4.12069">
        <ele>163</ele>
        <time>2026-08-24T13:03:24Z</time>
      </trkpt>
      <trkpt lat="49.09039" lon="4.12065">
        <ele>163</ele>
        <time>2026-08-24T13:03:25Z</time>
      </trkpt>
      <trkpt lat="49.09042" lon="4.12062">
        <ele>163</ele>
        <time>2026-08-24T13:03:26Z</time>
      </trkpt>
      <trkpt lat="49.09045" lon="4.12058">
        <ele>163</ele>
        <time>2026-08-24T13:03:27Z</time>
      </trkpt>
      <trkpt lat="49.09048" lon="4.12053">
        <ele>163</ele>
        <time>2026-08-24T13:03:28Z</time>
      </trkpt>
      <trkpt lat="49.09052" lon="4.12049">
        <ele>163</ele>
        <time>2026-08-24T13:03:29Z</time>
      </trkpt>
      <trkpt lat="49.09055" lon="4.12045">
        <ele>163</ele>
        <time>2026-08-24T13:03:30Z</time>
      </trkpt>
      <trkpt lat="49.09058" lon="4.12041">
        <ele>163.2</ele>
        <time>2026-08-24T13:03:31Z</time>
      </trkpt>
      <trkpt lat="49.09062" lon="4.12036">
        <ele>163.2</ele>
        <time>2026-08-24T13:03:32Z</time>
      </trkpt>
      <trkpt lat="49.09065" lon="4.12032">
        <ele>163.2</ele>
        <time>2026-08-24T13:03:33Z</time>
      </trkpt>
      <trkpt lat="49.09069" lon="4.12027">
        <ele>163.2</ele>
        <time>2026-08-24T13:03:34Z</time>
      </trkpt>
      <trkpt lat="49.09073" lon="4.12022">
        <ele>163.4</ele>
        <time>2026-08-24T13:03:35Z</time>
      </trkpt>
      <trkpt lat="49.09077" lon="4.12017">
        <ele>163.4</ele>
        <time>2026-08-24T13:03:36Z</time>
      </trkpt>
      <trkpt lat="49.09081" lon="4.12012">
        <ele>163.6</ele>
        <time>2026-08-24T13:03:37Z</time>
      </trkpt>
      <trkpt lat="49.09085" lon="4.12007">
        <ele>163.6</ele>
        <time>2026-08-24T13:03:38Z</time>
      </trkpt>
      <trkpt lat="49.0909" lon="4.12001">
        <ele>163.6</ele>
        <time>2026-08-24T13:03:39Z</time>
      </trkpt>
      <trkpt lat="49.09094" lon="4.11996">
        <ele>163.4</ele>
        <time>2026-08-24T13:03:40Z</time>
      </trkpt>
      <trkpt lat="49.09099" lon="4.1199">
        <ele>163.4</ele>
        <time>2026-08-24T13:03:41Z</time>
      </trkpt>
      <trkpt lat="49.09103" lon="4.11984">
        <ele>163.2</ele>
        <time>2026-08-24T13:03:42Z</time>
      </trkpt>
      <trkpt lat="49.09107" lon="4.11979">
        <ele>163.2</ele>
        <time>2026-08-24T13:03:43Z</time>
      </trkpt>
      <trkpt lat="49.09112" lon="4.11973">
        <ele>163</ele>
        <time>2026-08-24T13:03:44Z</time>
      </trkpt>
      <trkpt lat="49.09116" lon="4.11968">
        <ele>163</ele>
        <time>2026-08-24T13:03:45Z</time>
      </trkpt>
      <trkpt lat="49.09121" lon="4.11962">
        <ele>162.8</ele>
        <time>2026-08-24T13:03:46Z</time>
      </trkpt>
      <trkpt lat="49.09126" lon="4.11955">
        <ele>162.8</ele>
        <time>2026-08-24T13:03:47Z</time>
      </trkpt>
      <trkpt lat="49.09131" lon="4.11948">
        <ele>162.6</ele>
        <time>2026-08-24T13:03:48Z</time>
      </trkpt>
      <trkpt lat="49.09136" lon="4.11941">
        <ele>162.4</ele>
        <time>2026-08-24T13:03:49Z</time>
      </trkpt>
      <trkpt lat="49.09142" lon="4.11934">
        <ele>162.2</ele>
        <time>2026-08-24T13:03:50Z</time>
      </trkpt>
      <trkpt lat="49.09147" lon="4.11927">
        <ele>162</ele>
        <time>2026-08-24T13:03:51Z</time>
      </trkpt>
      <trkpt lat="49.09153" lon="4.1192">
        <ele>161.6</ele>
        <time>2026-08-24T13:03:52Z</time>
      </trkpt>
      <trkpt lat="49.09159" lon="4.11913">
        <ele>161.2</ele>
        <time>2026-08-24T13:03:53Z</time>
      </trkpt>
      <trkpt lat="49.09165" lon="4.11905">
        <ele>160.8</ele>
        <time>2026-08-24T13:03:54Z</time>
      </trkpt>
      <trkpt lat="49.09171" lon="4.11897">
        <ele>160.4</ele>
        <time>2026-08-24T13:03:55Z</time>
      </trkpt>
      <trkpt lat="49.09177" lon="4.1189">
        <ele>160.4</ele>
        <time>2026-08-24T13:03:56Z</time>
      </trkpt>
      <trkpt lat="49.09183" lon="4.11882">
        <ele>160</ele>
        <time>2026-08-24T13:03:57Z</time>
      </trkpt>
      <trkpt lat="49.0919" lon="4.11874">
        <ele>159.8</ele>
        <time>2026-08-24T13:03:58Z</time>
      </trkpt>
      <trkpt lat="49.09197" lon="4.11865">
        <ele>159.4</ele>
        <time>2026-08-24T13:03:59Z</time>
      </trkpt>
      <trkpt lat="49.09204" lon="4.11857">
        <ele>159</ele>
        <time>2026-08-24T13:04:00Z</time>
      </trkpt>
      <trkpt lat="49.09211" lon="4.11847">
        <ele>158.6</ele>
        <time>2026-08-24T13:04:01Z</time>
      </trkpt>
      <trkpt lat="49.09218" lon="4.11838">
        <ele>158</ele>
        <time>2026-08-24T13:04:02Z</time>
      </trkpt>
      <trkpt lat="49.09226" lon="4.11829">
        <ele>157.4</ele>
        <time>2026-08-24T13:04:03Z</time>
      </trkpt>
      <trkpt lat="49.09233" lon="4.11819">
        <ele>157</ele>
        <time>2026-08-24T13:04:04Z</time>
      </trkpt>
      <trkpt lat="49.09241" lon="4.1181">
        <ele>156.2</ele>
        <time>2026-08-24T13:04:05Z</time>
      </trkpt>
      <trkpt lat="49.09248" lon="4.118">
        <ele>155.8</ele>
        <time>2026-08-24T13:04:06Z</time>
      </trkpt>
      <trkpt lat="49.09256" lon="4.11789">
        <ele>155.4</ele>
        <time>2026-08-24T13:04:07Z</time>
      </trkpt>
      <trkpt lat="49.09264" lon="4.11779">
        <ele>155</ele>
        <time>2026-08-24T13:04:08Z</time>
      </trkpt>
      <trkpt lat="49.09272" lon="4.11769">
        <ele>154.4</ele>
        <time>2026-08-24T13:04:09Z</time>
      </trkpt>
      <trkpt lat="49.0928" lon="4.11759">
        <ele>154</ele>
        <time>2026-08-24T13:04:10Z</time>
      </trkpt>
      <trkpt lat="49.09288" lon="4.11749">
        <ele>153.6</ele>
        <time>2026-08-24T13:04:11Z</time>
      </trkpt>
      <trkpt lat="49.09296" lon="4.11739">
        <ele>153.2</ele>
        <time>2026-08-24T13:04:12Z</time>
      </trkpt>
      <trkpt lat="49.09304" lon="4.11729">
        <ele>153</ele>
        <time>2026-08-24T13:04:13Z</time>
      </trkpt>
      <trkpt lat="49.09312" lon="4.11718">
        <ele>152.8</ele>
        <time>2026-08-24T13:04:14Z</time>
      </trkpt>
      <trkpt lat="49.0932" lon="4.11708">
        <ele>152.4</ele>
        <time>2026-08-24T13:04:15Z</time>
      </trkpt>
      <trkpt lat="49.09329" lon="4.11697">
        <ele>152.2</ele>
        <time>2026-08-24T13:04:16Z</time>
      </trkpt>
      <trkpt lat="49.09337" lon="4.11688">
        <ele>152</ele>
        <time>2026-08-24T13:04:17Z</time>
      </trkpt>
      <trkpt lat="49.09345" lon="4.11678">
        <ele>151.8</ele>
        <time>2026-08-24T13:04:18Z</time>
      </trkpt>
      <trkpt lat="49.09354" lon="4.11668">
        <ele>151.6</ele>
        <time>2026-08-24T13:04:19Z</time>
      </trkpt>
      <trkpt lat="49.09362" lon="4.11659">
        <ele>151.4</ele>
        <time>2026-08-24T13:04:20Z</time>
      </trkpt>
      <trkpt lat="49.09371" lon="4.11651">
        <ele>151.2</ele>
        <time>2026-08-24T13:04:21Z</time>
      </trkpt>
      <trkpt lat="49.09379" lon="4.11644">
        <ele>151.2</ele>
        <time>2026-08-24T13:04:22Z</time>
      </trkpt>
      <trkpt lat="49.09388" lon="4.11638">
        <ele>151.2</ele>
        <time>2026-08-24T13:04:23Z</time>
      </trkpt>
      <trkpt lat="49.09397" lon="4.11632">
        <ele>151</ele>
        <time>2026-08-24T13:04:24Z</time>
      </trkpt>
      <trkpt lat="49.09406" lon="4.11628">
        <ele>151</ele>
        <time>2026-08-24T13:04:25Z</time>
      </trkpt>
      <trkpt lat="49.09415" lon="4.11624">
        <ele>151</ele>
        <time>2026-08-24T13:04:26Z</time>
      </trkpt>
      <trkpt lat="49.09424" lon="4.11621">
        <ele>150.8</ele>
        <time>2026-08-24T13:04:27Z</time>
      </trkpt>
      <trkpt lat="49.09434" lon="4.11618">
        <ele>150.6</ele>
        <time>2026-08-24T13:04:28Z</time>
      </trkpt>
      <trkpt lat="49.09443" lon="4.11617">
        <ele>150.2</ele>
        <time>2026-08-24T13:04:29Z</time>
      </trkpt>
      <trkpt lat="49.09452" lon="4.11617">
        <ele>149.8</ele>
        <time>2026-08-24T13:04:30Z</time>
      </trkpt>
      <trkpt lat="49.09462" lon="4.11617">
        <ele>149.6</ele>
        <time>2026-08-24T13:04:31Z</time>
      </trkpt>
      <trkpt lat="49.09471" lon="4.11618">
        <ele>149.2</ele>
        <time>2026-08-24T13:04:32Z</time>
      </trkpt>
      <trkpt lat="49.09481" lon="4.11619">
        <ele>149</ele>
        <time>2026-08-24T13:04:33Z</time>
      </trkpt>
      <trkpt lat="49.0949" lon="4.11622">
        <ele>149</ele>
        <time>2026-08-24T13:04:34Z</time>
      </trkpt>
      <trkpt lat="49.095" lon="4.11625">
        <ele>148.8</ele>
        <time>2026-08-24T13:04:35Z</time>
      </trkpt>
      <trkpt lat="49.0951" lon="4.11629">
        <ele>148.6</ele>
        <time>2026-08-24T13:04:36Z</time>
      </trkpt>
      <trkpt lat="49.0952" lon="4.11632">
        <ele>148.2</ele>
        <time>2026-08-24T13:04:37Z</time>
      </trkpt>
      <trkpt lat="49.0953" lon="4.11636">
        <ele>147.4</ele>
        <time>2026-08-24T13:04:38Z</time>
      </trkpt>
      <trkpt lat="49.09541" lon="4.11639">
        <ele>146.8</ele>
        <time>2026-08-24T13:04:39Z</time>
      </trkpt>
      <trkpt lat="49.09552" lon="4.11642">
        <ele>146.2</ele>
        <time>2026-08-24T13:04:40Z</time>
      </trkpt>
      <trkpt lat="49.09563" lon="4.11646">
        <ele>145.6</ele>
        <time>2026-08-24T13:04:41Z</time>
      </trkpt>
      <trkpt lat="49.09574" lon="4.11649">
        <ele>145.2</ele>
        <time>2026-08-24T13:04:42Z</time>
      </trkpt>
      <trkpt lat="49.09586" lon="4.11653">
        <ele>144.4</ele>
        <time>2026-08-24T13:04:43Z</time>
      </trkpt>
      <trkpt lat="49.09598" lon="4.11657">
        <ele>143.8</ele>
        <time>2026-08-24T13:04:44Z</time>
      </trkpt>
      <trkpt lat="49.0961" lon="4.11661">
        <ele>143</ele>
        <time>2026-08-24T13:04:45Z</time>
      </trkpt>
      <trkpt lat="49.09621" lon="4.11665">
        <ele>142.4</ele>
        <time>2026-08-24T13:04:46Z</time>
      </trkpt>
      <trkpt lat="49.09633" lon="4.11669">
        <ele>141.8</ele>
        <time>2026-08-24T13:04:47Z</time>
      </trkpt>
      <trkpt lat="49.09645" lon="4.11673">
        <ele>140.8</ele>
        <time>2026-08-24T13:04:48Z</time>
      </trkpt>
      <trkpt lat="49.09657" lon="4.11677">
        <ele>139.6</ele>
        <time>2026-08-24T13:04:49Z</time>
      </trkpt>
      <trkpt lat="49.09669" lon="4.1168">
        <ele>138.6</ele>
        <time>2026-08-24T13:04:50Z</time>
      </trkpt>
      <trkpt lat="49.09681" lon="4.11684">
        <ele>138.4</ele>
        <time>2026-08-24T13:04:51Z</time>
      </trkpt>
      <trkpt lat="49.09693" lon="4.11688">
        <ele>138</ele>
        <time>2026-08-24T13:04:52Z</time>
      </trkpt>
      <trkpt lat="49.09705" lon="4.11691">
        <ele>137.4</ele>
        <time>2026-08-24T13:04:53Z</time>
      </trkpt>
      <trkpt lat="49.09717" lon="4.11695">
        <ele>136.8</ele>
        <time>2026-08-24T13:04:54Z</time>
      </trkpt>
      <trkpt lat="49.09729" lon="4.11698">
        <ele>136.2</ele>
        <time>2026-08-24T13:04:55Z</time>
      </trkpt>
      <trkpt lat="49.0974" lon="4.11702">
        <ele>135.4</ele>
        <time>2026-08-24T13:04:56Z</time>
      </trkpt>
      <trkpt lat="49.09752" lon="4.11706">
        <ele>134.8</ele>
        <time>2026-08-24T13:04:57Z</time>
      </trkpt>
      <trkpt lat="49.09764" lon="4.1171">
        <ele>134</ele>
        <time>2026-08-24T13:04:58Z</time>
      </trkpt>
      <trkpt lat="49.09776" lon="4.11714">
        <ele>133.2</ele>
        <time>2026-08-24T13:04:59Z</time>
      </trkpt>
      <trkpt lat="49.09787" lon="4.11717">
        <ele>132.4</ele>
        <time>2026-08-24T13:05:00Z</time>
      </trkpt>
      <trkpt lat="49.09799" lon="4.1172">
        <ele>131.8</ele>
        <time>2026-08-24T13:05:01Z</time>
      </trkpt>
      <trkpt lat="49.0981" lon="4.11724">
        <ele>131.2</ele>
        <time>2026-08-24T13:05:02Z</time>
      </trkpt>
      <trkpt lat="49.09822" lon="4.11727">
        <ele>130.8</ele>
        <time>2026-08-24T13:05:03Z</time>
      </trkpt>
      <trkpt lat="49.09833" lon="4.11731">
        <ele>130.2</ele>
        <time>2026-08-24T13:05:04Z</time>
      </trkpt>
      <trkpt lat="49.09844" lon="4.11734">
        <ele>129.8</ele>
        <time>2026-08-24T13:05:05Z</time>
      </trkpt>
      <trkpt lat="49.09855" lon="4.11736">
        <ele>129.2</ele>
        <time>2026-08-24T13:05:06Z</time>
      </trkpt>
      <trkpt lat="49.09866" lon="4.11738">
        <ele>128.6</ele>
        <time>2026-08-24T13:05:07Z</time>
      </trkpt>
      <trkpt lat="49.09878" lon="4.1174">
        <ele>128</ele>
        <time>2026-08-24T13:05:08Z</time>
      </trkpt>
      <trkpt lat="49.09889" lon="4.11741">
        <ele>127.4</ele>
        <time>2026-08-24T13:05:09Z</time>
      </trkpt>
      <trkpt lat="49.099" lon="4.11742">
        <ele>126.8</ele>
        <time>2026-08-24T13:05:10Z</time>
      </trkpt>
      <trkpt lat="49.09911" lon="4.11743">
        <ele>126.2</ele>
        <time>2026-08-24T13:05:11Z</time>
      </trkpt>
      <trkpt lat="49.09922" lon="4.11744">
        <ele>125.4</ele>
        <time>2026-08-24T13:05:12Z</time>
      </trkpt>
      <trkpt lat="49.09932" lon="4.11745">
        <ele>125</ele>
        <time>2026-08-24T13:05:13Z</time>
      </trkpt>
      <trkpt lat="49.09943" lon="4.11746">
        <ele>124.2</ele>
        <time>2026-08-24T13:05:14Z</time>
      </trkpt>
      <trkpt lat="49.09954" lon="4.11746">
        <ele>123.6</ele>
        <time>2026-08-24T13:05:15Z</time>
      </trkpt>
      <trkpt lat="49.09965" lon="4.11747">
        <ele>123.2</ele>
        <time>2026-08-24T13:05:16Z</time>
      </trkpt>
      <trkpt lat="49.09975" lon="4.11748">
        <ele>122.8</ele>
        <time>2026-08-24T13:05:17Z</time>
      </trkpt>
      <trkpt lat="49.09986" lon="4.11749">
        <ele>122.4</ele>
        <time>2026-08-24T13:05:18Z</time>
      </trkpt>
      <trkpt lat="49.09996" lon="4.11749">
        <ele>122.4</ele>
        <time>2026-08-24T13:05:19Z</time>
      </trkpt>
      <trkpt lat="49.10007" lon="4.1175">
        <ele>122</ele>
        <time>2026-08-24T13:05:20Z</time>
      </trkpt>
      <trkpt lat="49.10016" lon="4.11751">
        <ele>122</ele>
        <time>2026-08-24T13:05:21Z</time>
      </trkpt>
      <trkpt lat="49.10025" lon="4.11751">
        <ele>121.8</ele>
        <time>2026-08-24T13:05:22Z</time>
      </trkpt>
      <trkpt lat="49.10033" lon="4.11751">
        <ele>121.6</ele>
        <time>2026-08-24T13:05:23Z</time>
      </trkpt>
      <trkpt lat="49.10041" lon="4.11752">
        <ele>121.8</ele>
        <time>2026-08-24T13:05:24Z</time>
      </trkpt>
      <trkpt lat="49.10048" lon="4.11754">
        <ele>122</ele>
        <time>2026-08-24T13:05:25Z</time>
      </trkpt>
      <trkpt lat="49.10054" lon="4.11759">
        <ele>122</ele>
        <time>2026-08-24T13:05:26Z</time>
      </trkpt>
      <trkpt lat="49.10059" lon="4.11765">
        <ele>122</ele>
        <time>2026-08-24T13:05:27Z</time>
      </trkpt>
      <trkpt lat="49.10064" lon="4.11771">
        <ele>122.2</ele>
        <time>2026-08-24T13:05:28Z</time>
      </trkpt>
      <trkpt lat="49.1007" lon="4.11776">
        <ele>122.2</ele>
        <time>2026-08-24T13:05:29Z</time>
      </trkpt>
      <trkpt lat="49.10075" lon="4.1178">
        <ele>122.4</ele>
        <time>2026-08-24T13:05:30Z</time>
      </trkpt>
      <trkpt lat="49.10081" lon="4.11783">
        <ele>122.4</ele>
        <time>2026-08-24T13:05:31Z</time>
      </trkpt>
      <trkpt lat="49.10086" lon="4.11787">
        <ele>122.6</ele>
        <time>2026-08-24T13:05:32Z</time>
      </trkpt>
      <trkpt lat="49.10091" lon="4.1179">
        <ele>122.6</ele>
        <time>2026-08-24T13:05:33Z</time>
      </trkpt>
      <trkpt lat="49.10096" lon="4.11794">
        <ele>122.8</ele>
        <time>2026-08-24T13:05:34Z</time>
      </trkpt>
      <trkpt lat="49.10101" lon="4.11798">
        <ele>123</ele>
        <time>2026-08-24T13:05:35Z</time>
      </trkpt>
      <trkpt lat="49.10106" lon="4.11802">
        <ele>123.2</ele>
        <time>2026-08-24T13:05:36Z</time>
      </trkpt>
      <trkpt lat="49.10111" lon="4.11806">
        <ele>123.4</ele>
        <time>2026-08-24T13:05:37Z</time>
      </trkpt>
      <trkpt lat="49.10117" lon="4.11811">
        <ele>123.4</ele>
        <time>2026-08-24T13:05:38Z</time>
      </trkpt>
      <trkpt lat="49.10121" lon="4.11816">
        <ele>123.6</ele>
        <time>2026-08-24T13:05:39Z</time>
      </trkpt>
      <trkpt lat="49.10126" lon="4.11821">
        <ele>123.6</ele>
        <time>2026-08-24T13:05:40Z</time>
      </trkpt>
      <trkpt lat="49.10131" lon="4.11827">
        <ele>123.6</ele>
        <time>2026-08-24T13:05:41Z</time>
      </trkpt>
      <trkpt lat="49.10136" lon="4.11832">
        <ele>123.6</ele>
        <time>2026-08-24T13:05:42Z</time>
      </trkpt>
      <trkpt lat="49.1014" lon="4.11838">
        <ele>123.6</ele>
        <time>2026-08-24T13:05:43Z</time>
      </trkpt>
      <trkpt lat="49.10145" lon="4.11845">
        <ele>123.4</ele>
        <time>2026-08-24T13:05:44Z</time>
      </trkpt>
      <trkpt lat="49.10149" lon="4.11851">
        <ele>123.4</ele>
        <time>2026-08-24T13:05:45Z</time>
      </trkpt>
      <trkpt lat="49.10152" lon="4.11858">
        <ele>123.4</ele>
        <time>2026-08-24T13:05:46Z</time>
      </trkpt>
      <trkpt lat="49.10156" lon="4.11865">
        <ele>123.2</ele>
        <time>2026-08-24T13:05:47Z</time>
      </trkpt>
      <trkpt lat="49.1016" lon="4.11873">
        <ele>123.2</ele>
        <time>2026-08-24T13:05:48Z</time>
      </trkpt>
      <trkpt lat="49.10164" lon="4.1188">
        <ele>123.2</ele>
        <time>2026-08-24T13:05:49Z</time>
      </trkpt>
      <trkpt lat="49.10167" lon="4.11887">
        <ele>123.4</ele>
        <time>2026-08-24T13:05:50Z</time>
      </trkpt>
      <trkpt lat="49.10171" lon="4.11895">
        <ele>123.6</ele>
        <time>2026-08-24T13:05:51Z</time>
      </trkpt>
      <trkpt lat="49.10175" lon="4.11902">
        <ele>123.8</ele>
        <time>2026-08-24T13:05:52Z</time>
      </trkpt>
      <trkpt lat="49.10179" lon="4.11909">
        <ele>123.8</ele>
        <time>2026-08-24T13:05:53Z</time>
      </trkpt>
      <trkpt lat="49.10182" lon="4.11916">
        <ele>124</ele>
        <time>2026-08-24T13:05:54Z</time>
      </trkpt>
      <trkpt lat="49.10186" lon="4.11922">
        <ele>124</ele>
        <time>2026-08-24T13:05:55Z</time>
      </trkpt>
      <trkpt lat="49.1019" lon="4.11929">
        <ele>124</ele>
        <time>2026-08-24T13:05:56Z</time>
      </trkpt>
      <trkpt lat="49.10193" lon="4.11936">
        <ele>124</ele>
        <time>2026-08-24T13:05:57Z</time>
      </trkpt>
      <trkpt lat="49.10197" lon="4.11943">
        <ele>124</ele>
        <time>2026-08-24T13:05:58Z</time>
      </trkpt>
      <trkpt lat="49.102" lon="4.1195">
        <ele>124</ele>
        <time>2026-08-24T13:05:59Z</time>
      </trkpt>
      <trkpt lat="49.10204" lon="4.11957">
        <ele>124.2</ele>
        <time>2026-08-24T13:06:00Z</time>
      </trkpt>
      <trkpt lat="49.10207" lon="4.11964">
        <ele>124.2</ele>
        <time>2026-08-24T13:06:01Z</time>
      </trkpt>
      <trkpt lat="49.10211" lon="4.11971">
        <ele>124.2</ele>
        <time>2026-08-24T13:06:02Z</time>
      </trkpt>
      <trkpt lat="49.10214" lon="4.11977">
        <ele>124</ele>
        <time>2026-08-24T13:06:03Z</time>
      </trkpt>
      <trkpt lat="49.10218" lon="4.11984">
        <ele>124</ele>
        <time>2026-08-24T13:06:04Z</time>
      </trkpt>
      <trkpt lat="49.10222" lon="4.1199">
        <ele>123.8</ele>
        <time>2026-08-24T13:06:05Z</time>
      </trkpt>
      <trkpt lat="49.10225" lon="4.11996">
        <ele>124</ele>
        <time>2026-08-24T13:06:06Z</time>
      </trkpt>
      <trkpt lat="49.10229" lon="4.12002">
        <ele>124</ele>
        <time>2026-08-24T13:06:07Z</time>
      </trkpt>
      <trkpt lat="49.10232" lon="4.12007">
        <ele>124.2</ele>
        <time>2026-08-24T13:06:08Z</time>
      </trkpt>
      <trkpt lat="49.10235" lon="4.12011">
        <ele>124.4</ele>
        <time>2026-08-24T13:06:09Z</time>
      </trkpt>
      <trkpt lat="49.10239" lon="4.12016">
        <ele>124.6</ele>
        <time>2026-08-24T13:06:10Z</time>
      </trkpt>
      <trkpt lat="49.10242" lon="4.1202">
        <ele>124.8</ele>
        <time>2026-08-24T13:06:11Z</time>
      </trkpt>
      <trkpt lat="49.10245" lon="4.12025">
        <ele>125</ele>
        <time>2026-08-24T13:06:12Z</time>
      </trkpt>
      <trkpt lat="49.10248" lon="4.12029">
        <ele>125.4</ele>
        <time>2026-08-24T13:06:13Z</time>
      </trkpt>
      <trkpt lat="49.10251" lon="4.12033">
        <ele>125.6</ele>
        <time>2026-08-24T13:06:14Z</time>
      </trkpt>
      <trkpt lat="49.10254" lon="4.12037">
        <ele>125.8</ele>
        <time>2026-08-24T13:06:15Z</time>
      </trkpt>
      <trkpt lat="49.10257" lon="4.1204">
        <ele>126.2</ele>
        <time>2026-08-24T13:06:16Z</time>
      </trkpt>
      <trkpt lat="49.1026" lon="4.12044">
        <ele>126.4</ele>
        <time>2026-08-24T13:06:17Z</time>
      </trkpt>
      <trkpt lat="49.10263" lon="4.12048">
        <ele>126.6</ele>
        <time>2026-08-24T13:06:18Z</time>
      </trkpt>
      <trkpt lat="49.10266" lon="4.12052">
        <ele>126.8</ele>
        <time>2026-08-24T13:06:19Z</time>
      </trkpt>
      <trkpt lat="49.10269" lon="4.12056">
        <ele>127</ele>
        <time>2026-08-24T13:06:20Z</time>
      </trkpt>
      <trkpt lat="49.10272" lon="4.1206">
        <ele>127.2</ele>
        <time>2026-08-24T13:06:21Z</time>
      </trkpt>
      <trkpt lat="49.10275" lon="4.12064">
        <ele>127.2</ele>
        <time>2026-08-24T13:06:22Z</time>
      </trkpt>
      <trkpt lat="49.10278" lon="4.12068">
        <ele>127.2</ele>
        <time>2026-08-24T13:06:23Z</time>
      </trkpt>
      <trkpt lat="49.10281" lon="4.12071">
        <ele>127.4</ele>
        <time>2026-08-24T13:06:24Z</time>
      </trkpt>
      <trkpt lat="49.10284" lon="4.12075">
        <ele>127.4</ele>
        <time>2026-08-24T13:06:25Z</time>
      </trkpt>
      <trkpt lat="49.10287" lon="4.12079">
        <ele>127.6</ele>
        <time>2026-08-24T13:06:26Z</time>
      </trkpt>
      <trkpt lat="49.1029" lon="4.12083">
        <ele>127.6</ele>
        <time>2026-08-24T13:06:27Z</time>
      </trkpt>
      <trkpt lat="49.10293" lon="4.12087">
        <ele>128</ele>
        <time>2026-08-24T13:06:28Z</time>
      </trkpt>
      <trkpt lat="49.10296" lon="4.12091">
        <ele>128.4</ele>
        <time>2026-08-24T13:06:29Z</time>
      </trkpt>
      <trkpt lat="49.10299" lon="4.12095">
        <ele>128.6</ele>
        <time>2026-08-24T13:06:30Z</time>
      </trkpt>
      <trkpt lat="49.10302" lon="4.12099">
        <ele>129</ele>
        <time>2026-08-24T13:06:31Z</time>
      </trkpt>
      <trkpt lat="49.10305" lon="4.12103">
        <ele>129.2</ele>
        <time>2026-08-24T13:06:32Z</time>
      </trkpt>
      <trkpt lat="49.10309" lon="4.12108">
        <ele>129.6</ele>
        <time>2026-08-24T13:06:33Z</time>
      </trkpt>
      <trkpt lat="49.10312" lon="4.12112">
        <ele>129.8</ele>
        <time>2026-08-24T13:06:34Z</time>
      </trkpt>
      <trkpt lat="49.10315" lon="4.12116">
        <ele>130</ele>
        <time>2026-08-24T13:06:35Z</time>
      </trkpt>
      <trkpt lat="49.10318" lon="4.1212">
        <ele>130.2</ele>
        <time>2026-08-24T13:06:36Z</time>
      </trkpt>
      <trkpt lat="49.10322" lon="4.12125">
        <ele>130.4</ele>
        <time>2026-08-24T13:06:37Z</time>
      </trkpt>
      <trkpt lat="49.10325" lon="4.12129">
        <ele>130.4</ele>
        <time>2026-08-24T13:06:38Z</time>
      </trkpt>
      <trkpt lat="49.10328" lon="4.12134">
        <ele>130.6</ele>
        <time>2026-08-24T13:06:39Z</time>
      </trkpt>
      <trkpt lat="49.10331" lon="4.12138">
        <ele>130.6</ele>
        <time>2026-08-24T13:06:40Z</time>
      </trkpt>
      <trkpt lat="49.10335" lon="4.12142">
        <ele>130.6</ele>
        <time>2026-08-24T13:06:41Z</time>
      </trkpt>
      <trkpt lat="49.10338" lon="4.12147">
        <ele>130.6</ele>
        <time>2026-08-24T13:06:42Z</time>
      </trkpt>
      <trkpt lat="49.10341" lon="4.12151">
        <ele>130.8</ele>
        <time>2026-08-24T13:06:43Z</time>
      </trkpt>
      <trkpt lat="49.10344" lon="4.12155">
        <ele>130.8</ele>
        <time>2026-08-24T13:06:44Z</time>
      </trkpt>
      <trkpt lat="49.10347" lon="4.12159">
        <ele>131</ele>
        <time>2026-08-24T13:06:45Z</time>
      </trkpt>
      <trkpt lat="49.1035" lon="4.12164">
        <ele>131.2</ele>
        <time>2026-08-24T13:06:46Z</time>
      </trkpt>
      <trkpt lat="49.10353" lon="4.12168">
        <ele>131.4</ele>
        <time>2026-08-24T13:06:47Z</time>
      </trkpt>
      <trkpt lat="49.10356" lon="4.12172">
        <ele>131.6</ele>
        <time>2026-08-24T13:06:48Z</time>
      </trkpt>
      <trkpt lat="49.10359" lon="4.12176">
        <ele>131.8</ele>
        <time>2026-08-24T13:06:49Z</time>
      </trkpt>
      <trkpt lat="49.10361" lon="4.12179">
        <ele>132</ele>
        <time>2026-08-24T13:06:50Z</time>
      </trkpt>
      <trkpt lat="49.10364" lon="4.12183">
        <ele>132.2</ele>
        <time>2026-08-24T13:06:51Z</time>
      </trkpt>
      <trkpt lat="49.10368" lon="4.12187">
        <ele>132.2</ele>
        <time>2026-08-24T13:06:52Z</time>
      </trkpt>
      <trkpt lat="49.1037" lon="4.12192">
        <ele>132.4</ele>
        <time>2026-08-24T13:06:53Z</time>
      </trkpt>
      <trkpt lat="49.10373" lon="4.12196">
        <ele>132.6</ele>
        <time>2026-08-24T13:06:54Z</time>
      </trkpt>
      <trkpt lat="49.10377" lon="4.12199">
        <ele>132.8</ele>
        <time>2026-08-24T13:06:55Z</time>
      </trkpt>
      <trkpt lat="49.1038" lon="4.12203">
        <ele>133</ele>
        <time>2026-08-24T13:06:56Z</time>
      </trkpt>
      <trkpt lat="49.10383" lon="4.12207">
        <ele>133.2</ele>
        <time>2026-08-24T13:06:57Z</time>
      </trkpt>
      <trkpt lat="49.10386" lon="4.12211">
        <ele>133.4</ele>
        <time>2026-08-24T13:06:58Z</time>
      </trkpt>
      <trkpt lat="49.10389" lon="4.12215">
        <ele>133.4</ele>
        <time>2026-08-24T13:06:59Z</time>
      </trkpt>
      <trkpt lat="49.10392" lon="4.1222">
        <ele>133.2</ele>
        <time>2026-08-24T13:07:00Z</time>
      </trkpt>
      <trkpt lat="49.10395" lon="4.12224">
        <ele>133.2</ele>
        <time>2026-08-24T13:07:01Z</time>
      </trkpt>
      <trkpt lat="49.10399" lon="4.12228">
        <ele>133.2</ele>
        <time>2026-08-24T13:07:02Z</time>
      </trkpt>
      <trkpt lat="49.10402" lon="4.12233">
        <ele>133.2</ele>
        <time>2026-08-24T13:07:03Z</time>
      </trkpt>
      <trkpt lat="49.10404" lon="4.12237">
        <ele>133.2</ele>
        <time>2026-08-24T13:07:04Z</time>
      </trkpt>
      <trkpt lat="49.10407" lon="4.12241">
        <ele>133.4</ele>
        <time>2026-08-24T13:07:05Z</time>
      </trkpt>
      <trkpt lat="49.1041" lon="4.12245">
        <ele>133.4</ele>
        <time>2026-08-24T13:07:06Z</time>
      </trkpt>
      <trkpt lat="49.10413" lon="4.12249">
        <ele>133.6</ele>
        <time>2026-08-24T13:07:07Z</time>
      </trkpt>
      <trkpt lat="49.10415" lon="4.12253">
        <ele>133.6</ele>
        <time>2026-08-24T13:07:08Z</time>
      </trkpt>
      <trkpt lat="49.10418" lon="4.12257">
        <ele>133.8</ele>
        <time>2026-08-24T13:07:09Z</time>
      </trkpt>
      <trkpt lat="49.10421" lon="4.1226">
        <ele>134</ele>
        <time>2026-08-24T13:07:10Z</time>
      </trkpt>
      <trkpt lat="49.10424" lon="4.12264">
        <ele>134.4</ele>
        <time>2026-08-24T13:07:11Z</time>
      </trkpt>
      <trkpt lat="49.10426" lon="4.12269">
        <ele>134.4</ele>
        <time>2026-08-24T13:07:12Z</time>
      </trkpt>
      <trkpt lat="49.10429" lon="4.12273">
        <ele>134.4</ele>
        <time>2026-08-24T13:07:13Z</time>
      </trkpt>
      <trkpt lat="49.10432" lon="4.12278">
        <ele>134.4</ele>
        <time>2026-08-24T13:07:14Z</time>
      </trkpt>
      <trkpt lat="49.10435" lon="4.12284">
        <ele>134.4</ele>
        <time>2026-08-24T13:07:15Z</time>
      </trkpt>
      <trkpt lat="49.10438" lon="4.12289">
        <ele>134.4</ele>
        <time>2026-08-24T13:07:16Z</time>
      </trkpt>
      <trkpt lat="49.10441" lon="4.12294">
        <ele>134.6</ele>
        <time>2026-08-24T13:07:17Z</time>
      </trkpt>
      <trkpt lat="49.10444" lon="4.123">
        <ele>134.8</ele>
        <time>2026-08-24T13:07:18Z</time>
      </trkpt>
      <trkpt lat="49.10447" lon="4.12305">
        <ele>135</ele>
        <time>2026-08-24T13:07:19Z</time>
      </trkpt>
      <trkpt lat="49.1045" lon="4.12311">
        <ele>135</ele>
        <time>2026-08-24T13:07:20Z</time>
      </trkpt>
      <trkpt lat="49.10453" lon="4.12318">
        <ele>134.8</ele>
        <time>2026-08-24T13:07:21Z</time>
      </trkpt>
      <trkpt lat="49.10456" lon="4.12324">
        <ele>134.8</ele>
        <time>2026-08-24T13:07:22Z</time>
      </trkpt>
      <trkpt lat="49.1046" lon="4.12331">
        <ele>134.8</ele>
        <time>2026-08-24T13:07:23Z</time>
      </trkpt>
      <trkpt lat="49.10464" lon="4.12338">
        <ele>134.8</ele>
        <time>2026-08-24T13:07:24Z</time>
      </trkpt>
      <trkpt lat="49.10467" lon="4.12344">
        <ele>134.6</ele>
        <time>2026-08-24T13:07:25Z</time>
      </trkpt>
      <trkpt lat="49.1047" lon="4.12351">
        <ele>134.6</ele>
        <time>2026-08-24T13:07:26Z</time>
      </trkpt>
      <trkpt lat="49.10472" lon="4.12357">
        <ele>134.6</ele>
        <time>2026-08-24T13:07:27Z</time>
      </trkpt>
      <trkpt lat="49.10476" lon="4.12364">
        <ele>134.6</ele>
        <time>2026-08-24T13:07:28Z</time>
      </trkpt>
      <trkpt lat="49.10479" lon="4.12371">
        <ele>134.8</ele>
        <time>2026-08-24T13:07:29Z</time>
      </trkpt>
      <trkpt lat="49.10482" lon="4.12378">
        <ele>135</ele>
        <time>2026-08-24T13:07:30Z</time>
      </trkpt>
      <trkpt lat="49.10485" lon="4.12385">
        <ele>135.2</ele>
        <time>2026-08-24T13:07:31Z</time>
      </trkpt>
      <trkpt lat="49.10488" lon="4.12392">
        <ele>135.4</ele>
        <time>2026-08-24T13:07:32Z</time>
      </trkpt>
      <trkpt lat="49.10492" lon="4.12398">
        <ele>135.6</ele>
        <time>2026-08-24T13:07:33Z</time>
      </trkpt>
      <trkpt lat="49.10495" lon="4.12405">
        <ele>135.8</ele>
        <time>2026-08-24T13:07:34Z</time>
      </trkpt>
      <trkpt lat="49.10498" lon="4.12412">
        <ele>135.8</ele>
        <time>2026-08-24T13:07:35Z</time>
      </trkpt>
      <trkpt lat="49.10502" lon="4.12419">
        <ele>136</ele>
        <time>2026-08-24T13:07:36Z</time>
      </trkpt>
      <trkpt lat="49.10505" lon="4.12425">
        <ele>136</ele>
        <time>2026-08-24T13:07:37Z</time>
      </trkpt>
      <trkpt lat="49.10508" lon="4.12432">
        <ele>136</ele>
        <time>2026-08-24T13:07:38Z</time>
      </trkpt>
      <trkpt lat="49.10512" lon="4.12439">
        <ele>135.8</ele>
        <time>2026-08-24T13:07:39Z</time>
      </trkpt>
      <trkpt lat="49.10515" lon="4.12445">
        <ele>135.8</ele>
        <time>2026-08-24T13:07:40Z</time>
      </trkpt>
      <trkpt lat="49.10518" lon="4.12452">
        <ele>135.8</ele>
        <time>2026-08-24T13:07:41Z</time>
      </trkpt>
      <trkpt lat="49.10521" lon="4.12459">
        <ele>135.8</ele>
        <time>2026-08-24T13:07:42Z</time>
      </trkpt>
      <trkpt lat="49.10524" lon="4.12465">
        <ele>136</ele>
        <time>2026-08-24T13:07:43Z</time>
      </trkpt>
      <trkpt lat="49.10528" lon="4.12472">
        <ele>136.4</ele>
        <time>2026-08-24T13:07:44Z</time>
      </trkpt>
      <trkpt lat="49.10531" lon="4.12479">
        <ele>136.6</ele>
        <time>2026-08-24T13:07:45Z</time>
      </trkpt>
      <trkpt lat="49.10534" lon="4.12486">
        <ele>137</ele>
        <time>2026-08-24T13:07:46Z</time>
      </trkpt>
      <trkpt lat="49.10538" lon="4.12493">
        <ele>137.2</ele>
        <time>2026-08-24T13:07:47Z</time>
      </trkpt>
      <trkpt lat="49.10541" lon="4.125">
        <ele>137.2</ele>
        <time>2026-08-24T13:07:48Z</time>
      </trkpt>
      <trkpt lat="49.10544" lon="4.12507">
        <ele>137.2</ele>
        <time>2026-08-24T13:07:49Z</time>
      </trkpt>
      <trkpt lat="49.10547" lon="4.12513">
        <ele>137.2</ele>
        <time>2026-08-24T13:07:50Z</time>
      </trkpt>
      <trkpt lat="49.10551" lon="4.1252">
        <ele>137.2</ele>
        <time>2026-08-24T13:07:51Z</time>
      </trkpt>
      <trkpt lat="49.10554" lon="4.12526">
        <ele>137</ele>
        <time>2026-08-24T13:07:52Z</time>
      </trkpt>
      <trkpt lat="49.10558" lon="4.12532">
        <ele>137</ele>
        <time>2026-08-24T13:07:53Z</time>
      </trkpt>
      <trkpt lat="49.10561" lon="4.12537">
        <ele>137</ele>
        <time>2026-08-24T13:07:54Z</time>
      </trkpt>
      <trkpt lat="49.10565" lon="4.12542">
        <ele>137</ele>
        <time>2026-08-24T13:07:55Z</time>
      </trkpt>
      <trkpt lat="49.10569" lon="4.12548">
        <ele>137.2</ele>
        <time>2026-08-24T13:07:56Z</time>
      </trkpt>
      <trkpt lat="49.10573" lon="4.12552">
        <ele>137.2</ele>
        <time>2026-08-24T13:07:57Z</time>
      </trkpt>
      <trkpt lat="49.10577" lon="4.12557">
        <ele>137.4</ele>
        <time>2026-08-24T13:07:58Z</time>
      </trkpt>
      <trkpt lat="49.10581" lon="4.12561">
        <ele>137.6</ele>
        <time>2026-08-24T13:07:59Z</time>
      </trkpt>
      <trkpt lat="49.10585" lon="4.12566">
        <ele>137.8</ele>
        <time>2026-08-24T13:08:00Z</time>
      </trkpt>
      <trkpt lat="49.10589" lon="4.12571">
        <ele>138</ele>
        <time>2026-08-24T13:08:01Z</time>
      </trkpt>
      <trkpt lat="49.10593" lon="4.12575">
        <ele>138.2</ele>
        <time>2026-08-24T13:08:02Z</time>
      </trkpt>
      <trkpt lat="49.10597" lon="4.1258">
        <ele>138.4</ele>
        <time>2026-08-24T13:08:03Z</time>
      </trkpt>
      <trkpt lat="49.10601" lon="4.12584">
        <ele>138.6</ele>
        <time>2026-08-24T13:08:04Z</time>
      </trkpt>
      <trkpt lat="49.10605" lon="4.12589">
        <ele>139</ele>
        <time>2026-08-24T13:08:05Z</time>
      </trkpt>
      <trkpt lat="49.10609" lon="4.12593">
        <ele>139.4</ele>
        <time>2026-08-24T13:08:06Z</time>
      </trkpt>
      <trkpt lat="49.10613" lon="4.12597">
        <ele>139.6</ele>
        <time>2026-08-24T13:08:07Z</time>
      </trkpt>
      <trkpt lat="49.10617" lon="4.12602">
        <ele>139.8</ele>
        <time>2026-08-24T13:08:08Z</time>
      </trkpt>
      <trkpt lat="49.10621" lon="4.12606">
        <ele>139.8</ele>
        <time>2026-08-24T13:08:09Z</time>
      </trkpt>
      <trkpt lat="49.10625" lon="4.1261">
        <ele>139.8</ele>
        <time>2026-08-24T13:08:10Z</time>
      </trkpt>
      <trkpt lat="49.10629" lon="4.12614">
        <ele>139.8</ele>
        <time>2026-08-24T13:08:11Z</time>
      </trkpt>
      <trkpt lat="49.10633" lon="4.12618">
        <ele>140.2</ele>
        <time>2026-08-24T13:08:12Z</time>
      </trkpt>
      <trkpt lat="49.10636" lon="4.12622">
        <ele>140.2</ele>
        <time>2026-08-24T13:08:13Z</time>
      </trkpt>
      <trkpt lat="49.1064" lon="4.12626">
        <ele>140.4</ele>
        <time>2026-08-24T13:08:14Z</time>
      </trkpt>
      <trkpt lat="49.10644" lon="4.1263">
        <ele>140.4</ele>
        <time>2026-08-24T13:08:15Z</time>
      </trkpt>
      <trkpt lat="49.10647" lon="4.12634">
        <ele>140.6</ele>
        <time>2026-08-24T13:08:16Z</time>
      </trkpt>
      <trkpt lat="49.10651" lon="4.12638">
        <ele>140.6</ele>
        <time>2026-08-24T13:08:17Z</time>
      </trkpt>
      <trkpt lat="49.10654" lon="4.12642">
        <ele>140.6</ele>
        <time>2026-08-24T13:08:18Z</time>
      </trkpt>
      <trkpt lat="49.10658" lon="4.12646">
        <ele>140.8</ele>
        <time>2026-08-24T13:08:19Z</time>
      </trkpt>
      <trkpt lat="49.10661" lon="4.1265">
        <ele>140.8</ele>
        <time>2026-08-24T13:08:20Z</time>
      </trkpt>
      <trkpt lat="49.10665" lon="4.12654">
        <ele>140.8</ele>
        <time>2026-08-24T13:08:21Z</time>
      </trkpt>
      <trkpt lat="49.10668" lon="4.12658">
        <ele>141</ele>
        <time>2026-08-24T13:08:22Z</time>
      </trkpt>
      <trkpt lat="49.10671" lon="4.12663">
        <ele>141.4</ele>
        <time>2026-08-24T13:08:23Z</time>
      </trkpt>
      <trkpt lat="49.10674" lon="4.12667">
        <ele>141.6</ele>
        <time>2026-08-24T13:08:24Z</time>
      </trkpt>
      <trkpt lat="49.10677" lon="4.12672">
        <ele>142</ele>
        <time>2026-08-24T13:08:25Z</time>
      </trkpt>
      <trkpt lat="49.1068" lon="4.12677">
        <ele>142</ele>
        <time>2026-08-24T13:08:26Z</time>
      </trkpt>
      <trkpt lat="49.10683" lon="4.12681">
        <ele>142.2</ele>
        <time>2026-08-24T13:08:27Z</time>
      </trkpt>
      <trkpt lat="49.10686" lon="4.12686">
        <ele>142.4</ele>
        <time>2026-08-24T13:08:28Z</time>
      </trkpt>
      <trkpt lat="49.10689" lon="4.12692">
        <ele>142.4</ele>
        <time>2026-08-24T13:08:29Z</time>
      </trkpt>
      <trkpt lat="49.10692" lon="4.12697">
        <ele>142.4</ele>
        <time>2026-08-24T13:08:30Z</time>
      </trkpt>
      <trkpt lat="49.10694" lon="4.12702">
        <ele>142.6</ele>
        <time>2026-08-24T13:08:31Z</time>
      </trkpt>
      <trkpt lat="49.10696" lon="4.12708">
        <ele>142.6</ele>
        <time>2026-08-24T13:08:32Z</time>
      </trkpt>
      <trkpt lat="49.10699" lon="4.12713">
        <ele>142.6</ele>
        <time>2026-08-24T13:08:33Z</time>
      </trkpt>
      <trkpt lat="49.10701" lon="4.12719">
        <ele>142.6</ele>
        <time>2026-08-24T13:08:34Z</time>
      </trkpt>
      <trkpt lat="49.10704" lon="4.12724">
        <ele>142.6</ele>
        <time>2026-08-24T13:08:35Z</time>
      </trkpt>
      <trkpt lat="49.10706" lon="4.12729">
        <ele>142.8</ele>
        <time>2026-08-24T13:08:36Z</time>
      </trkpt>
      <trkpt lat="49.10709" lon="4.12734">
        <ele>142.8</ele>
        <time>2026-08-24T13:08:37Z</time>
      </trkpt>
      <trkpt lat="49.10711" lon="4.1274">
        <ele>142.8</ele>
        <time>2026-08-24T13:08:38Z</time>
      </trkpt>
      <trkpt lat="49.10714" lon="4.12746">
        <ele>143</ele>
        <time>2026-08-24T13:08:39Z</time>
      </trkpt>
      <trkpt lat="49.10717" lon="4.12751">
        <ele>143</ele>
        <time>2026-08-24T13:08:40Z</time>
      </trkpt>
      <trkpt lat="49.10719" lon="4.12757">
        <ele>143</ele>
        <time>2026-08-24T13:08:41Z</time>
      </trkpt>
      <trkpt lat="49.10722" lon="4.12763">
        <ele>143</ele>
        <time>2026-08-24T13:08:42Z</time>
      </trkpt>
      <trkpt lat="49.10725" lon="4.12769">
        <ele>143</ele>
        <time>2026-08-24T13:08:43Z</time>
      </trkpt>
      <trkpt lat="49.10728" lon="4.12776">
        <ele>143.2</ele>
        <time>2026-08-24T13:08:44Z</time>
      </trkpt>
      <trkpt lat="49.1073" lon="4.12782">
        <ele>143.4</ele>
        <time>2026-08-24T13:08:45Z</time>
      </trkpt>
      <trkpt lat="49.10733" lon="4.12789">
        <ele>143.4</ele>
        <time>2026-08-24T13:08:46Z</time>
      </trkpt>
      <trkpt lat="49.10736" lon="4.12795">
        <ele>143.4</ele>
        <time>2026-08-24T13:08:47Z</time>
      </trkpt>
      <trkpt lat="49.10739" lon="4.12802">
        <ele>143.6</ele>
        <time>2026-08-24T13:08:48Z</time>
      </trkpt>
      <trkpt lat="49.10742" lon="4.12809">
        <ele>143.6</ele>
        <time>2026-08-24T13:08:49Z</time>
      </trkpt>
      <trkpt lat="49.10745" lon="4.12815">
        <ele>143.4</ele>
        <time>2026-08-24T13:08:50Z</time>
      </trkpt>
      <trkpt lat="49.10748" lon="4.12822">
        <ele>143.2</ele>
        <time>2026-08-24T13:08:51Z</time>
      </trkpt>
      <trkpt lat="49.10752" lon="4.1283">
        <ele>143.2</ele>
        <time>2026-08-24T13:08:52Z</time>
      </trkpt>
      <trkpt lat="49.10755" lon="4.12837">
        <ele>143</ele>
        <time>2026-08-24T13:08:53Z</time>
      </trkpt>
      <trkpt lat="49.10758" lon="4.12844">
        <ele>142.8</ele>
        <time>2026-08-24T13:08:54Z</time>
      </trkpt>
      <trkpt lat="49.10762" lon="4.12851">
        <ele>142.6</ele>
        <time>2026-08-24T13:08:55Z</time>
      </trkpt>
      <trkpt lat="49.10765" lon="4.12859">
        <ele>142.4</ele>
        <time>2026-08-24T13:08:56Z</time>
      </trkpt>
      <trkpt lat="49.10768" lon="4.12867">
        <ele>142.2</ele>
        <time>2026-08-24T13:08:57Z</time>
      </trkpt>
      <trkpt lat="49.10771" lon="4.12875">
        <ele>142</ele>
        <time>2026-08-24T13:08:58Z</time>
      </trkpt>
      <trkpt lat="49.10773" lon="4.12884">
        <ele>141.8</ele>
        <time>2026-08-24T13:08:59Z</time>
      </trkpt>
      <trkpt lat="49.10776" lon="4.12892">
        <ele>141.8</ele>
        <time>2026-08-24T13:09:00Z</time>
      </trkpt>
      <trkpt lat="49.10778" lon="4.129">
        <ele>141.8</ele>
        <time>2026-08-24T13:09:01Z</time>
      </trkpt>
      <trkpt lat="49.1078" lon="4.12909">
        <ele>141.8</ele>
        <time>2026-08-24T13:09:02Z</time>
      </trkpt>
      <trkpt lat="49.10781" lon="4.12917">
        <ele>142</ele>
        <time>2026-08-24T13:09:03Z</time>
      </trkpt>
      <trkpt lat="49.10782" lon="4.12925">
        <ele>142.2</ele>
        <time>2026-08-24T13:09:04Z</time>
      </trkpt>
      <trkpt lat="49.10784" lon="4.12934">
        <ele>142.6</ele>
        <time>2026-08-24T13:09:05Z</time>
      </trkpt>
      <trkpt lat="49.10785" lon="4.12942">
        <ele>142.8</ele>
        <time>2026-08-24T13:09:06Z</time>
      </trkpt>
      <trkpt lat="49.10785" lon="4.1295">
        <ele>143.2</ele>
        <time>2026-08-24T13:09:07Z</time>
      </trkpt>
      <trkpt lat="49.10786" lon="4.12958">
        <ele>143.4</ele>
        <time>2026-08-24T13:09:08Z</time>
      </trkpt>
      <trkpt lat="49.10786" lon="4.12967">
        <ele>143.8</ele>
        <time>2026-08-24T13:09:09Z</time>
      </trkpt>
      <trkpt lat="49.10786" lon="4.12975">
        <ele>144</ele>
        <time>2026-08-24T13:09:10Z</time>
      </trkpt>
      <trkpt lat="49.10786" lon="4.12983">
        <ele>144</ele>
        <time>2026-08-24T13:09:11Z</time>
      </trkpt>
      <trkpt lat="49.10786" lon="4.12991">
        <ele>144.2</ele>
        <time>2026-08-24T13:09:12Z</time>
      </trkpt>
      <trkpt lat="49.10786" lon="4.12998">
        <ele>144.2</ele>
        <time>2026-08-24T13:09:13Z</time>
      </trkpt>
      <trkpt lat="49.10786" lon="4.13006">
        <ele>144.4</ele>
        <time>2026-08-24T13:09:14Z</time>
      </trkpt>
      <trkpt lat="49.10785" lon="4.13014">
        <ele>144.6</ele>
        <time>2026-08-24T13:09:15Z</time>
      </trkpt>
      <trkpt lat="49.10785" lon="4.13021">
        <ele>144.8</ele>
        <time>2026-08-24T13:09:16Z</time>
      </trkpt>
      <trkpt lat="49.10785" lon="4.13028">
        <ele>144.8</ele>
        <time>2026-08-24T13:09:17Z</time>
      </trkpt>
      <trkpt lat="49.10784" lon="4.13036">
        <ele>145.2</ele>
        <time>2026-08-24T13:09:18Z</time>
      </trkpt>
      <trkpt lat="49.10784" lon="4.13043">
        <ele>145.4</ele>
        <time>2026-08-24T13:09:19Z</time>
      </trkpt>
      <trkpt lat="49.10784" lon="4.1305">
        <ele>145.6</ele>
        <time>2026-08-24T13:09:20Z</time>
      </trkpt>
      <trkpt lat="49.10784" lon="4.13058">
        <ele>146.2</ele>
        <time>2026-08-24T13:09:21Z</time>
      </trkpt>
      <trkpt lat="49.10784" lon="4.13065">
        <ele>146.6</ele>
        <time>2026-08-24T13:09:22Z</time>
      </trkpt>
      <trkpt lat="49.10783" lon="4.13072">
        <ele>146.8</ele>
        <time>2026-08-24T13:09:23Z</time>
      </trkpt>
      <trkpt lat="49.10783" lon="4.13079">
        <ele>147</ele>
        <time>2026-08-24T13:09:24Z</time>
      </trkpt>
      <trkpt lat="49.10783" lon="4.13087">
        <ele>147.2</ele>
        <time>2026-08-24T13:09:25Z</time>
      </trkpt>
      <trkpt lat="49.10782" lon="4.13094">
        <ele>147.4</ele>
        <time>2026-08-24T13:09:26Z</time>
      </trkpt>
      <trkpt lat="49.10781" lon="4.13102">
        <ele>147.4</ele>
        <time>2026-08-24T13:09:27Z</time>
      </trkpt>
      <trkpt lat="49.10781" lon="4.13109">
        <ele>147.8</ele>
        <time>2026-08-24T13:09:28Z</time>
      </trkpt>
      <trkpt lat="49.1078" lon="4.13117">
        <ele>147.8</ele>
        <time>2026-08-24T13:09:29Z</time>
      </trkpt>
      <trkpt lat="49.1078" lon="4.13124">
        <ele>148</ele>
        <time>2026-08-24T13:09:30Z</time>
      </trkpt>
      <trkpt lat="49.1078" lon="4.13131">
        <ele>148</ele>
        <time>2026-08-24T13:09:31Z</time>
      </trkpt>
      <trkpt lat="49.10779" lon="4.13139">
        <ele>148.2</ele>
        <time>2026-08-24T13:09:32Z</time>
      </trkpt>
      <trkpt lat="49.10779" lon="4.13146">
        <ele>148.4</ele>
        <time>2026-08-24T13:09:33Z</time>
      </trkpt>
      <trkpt lat="49.10778" lon="4.13153">
        <ele>148.6</ele>
        <time>2026-08-24T13:09:34Z</time>
      </trkpt>
      <trkpt lat="49.10778" lon="4.1316">
        <ele>148.6</ele>
        <time>2026-08-24T13:09:35Z</time>
      </trkpt>
      <trkpt lat="49.10778" lon="4.13168">
        <ele>148.8</ele>
        <time>2026-08-24T13:09:36Z</time>
      </trkpt>
      <trkpt lat="49.10778" lon="4.13175">
        <ele>149</ele>
        <time>2026-08-24T13:09:37Z</time>
      </trkpt>
      <trkpt lat="49.10777" lon="4.13182">
        <ele>149.2</ele>
        <time>2026-08-24T13:09:38Z</time>
      </trkpt>
      <trkpt lat="49.10777" lon="4.13189">
        <ele>149.4</ele>
        <time>2026-08-24T13:09:39Z</time>
      </trkpt>
      <trkpt lat="49.10777" lon="4.13197">
        <ele>149.6</ele>
        <time>2026-08-24T13:09:40Z</time>
      </trkpt>
      <trkpt lat="49.10777" lon="4.13204">
        <ele>150</ele>
        <time>2026-08-24T13:09:41Z</time>
      </trkpt>
      <trkpt lat="49.10776" lon="4.13211">
        <ele>150.2</ele>
        <time>2026-08-24T13:09:42Z</time>
      </trkpt>
      <trkpt lat="49.10776" lon="4.13218">
        <ele>150.4</ele>
        <time>2026-08-24T13:09:43Z</time>
      </trkpt>
      <trkpt lat="49.10776" lon="4.13225">
        <ele>150.6</ele>
        <time>2026-08-24T13:09:44Z</time>
      </trkpt>
      <trkpt lat="49.10776" lon="4.13232">
        <ele>150.8</ele>
        <time>2026-08-24T13:09:45Z</time>
      </trkpt>
      <trkpt lat="49.10775" lon="4.13239">
        <ele>150.6</ele>
        <time>2026-08-24T13:09:46Z</time>
      </trkpt>
      <trkpt lat="49.10775" lon="4.13246">
        <ele>150.8</ele>
        <time>2026-08-24T13:09:47Z</time>
      </trkpt>
      <trkpt lat="49.10774" lon="4.13253">
        <ele>150.8</ele>
        <time>2026-08-24T13:09:48Z</time>
      </trkpt>
      <trkpt lat="49.10774" lon="4.1326">
        <ele>151</ele>
        <time>2026-08-24T13:09:49Z</time>
      </trkpt>
      <trkpt lat="49.10774" lon="4.13267">
        <ele>151</ele>
        <time>2026-08-24T13:09:50Z</time>
      </trkpt>
      <trkpt lat="49.10774" lon="4.13274">
        <ele>151</ele>
        <time>2026-08-24T13:09:51Z</time>
      </trkpt>
      <trkpt lat="49.10773" lon="4.13281">
        <ele>151.2</ele>
        <time>2026-08-24T13:09:52Z</time>
      </trkpt>
      <trkpt lat="49.10773" lon="4.13289">
        <ele>151.2</ele>
        <time>2026-08-24T13:09:53Z</time>
      </trkpt>
      <trkpt lat="49.10772" lon="4.13296">
        <ele>151.2</ele>
        <time>2026-08-24T13:09:54Z</time>
      </trkpt>
      <trkpt lat="49.10772" lon="4.13303">
        <ele>151.2</ele>
        <time>2026-08-24T13:09:55Z</time>
      </trkpt>
      <trkpt lat="49.10772" lon="4.1331">
        <ele>151.2</ele>
        <time>2026-08-24T13:09:56Z</time>
      </trkpt>
      <trkpt lat="49.10771" lon="4.13317">
        <ele>151.4</ele>
        <time>2026-08-24T13:09:57Z</time>
      </trkpt>
      <trkpt lat="49.10771" lon="4.13324">
        <ele>151.6</ele>
        <time>2026-08-24T13:09:58Z</time>
      </trkpt>
      <trkpt lat="49.1077" lon="4.13331">
        <ele>151.6</ele>
        <time>2026-08-24T13:09:59Z</time>
      </trkpt>
      <trkpt lat="49.1077" lon="4.13338">
        <ele>151.8</ele>
        <time>2026-08-24T13:10:00Z</time>
      </trkpt>
      <trkpt lat="49.10769" lon="4.13344">
        <ele>152</ele>
        <time>2026-08-24T13:10:01Z</time>
      </trkpt>
      <trkpt lat="49.10769" lon="4.13351">
        <ele>152.2</ele>
        <time>2026-08-24T13:10:02Z</time>
      </trkpt>
      <trkpt lat="49.10768" lon="4.13357">
        <ele>152.4</ele>
        <time>2026-08-24T13:10:03Z</time>
      </trkpt>
      <trkpt lat="49.10768" lon="4.13364">
        <ele>152.6</ele>
        <time>2026-08-24T13:10:04Z</time>
      </trkpt>
      <trkpt lat="49.10768" lon="4.1337">
        <ele>152.8</ele>
        <time>2026-08-24T13:10:05Z</time>
      </trkpt>
      <trkpt lat="49.10767" lon="4.13377">
        <ele>153</ele>
        <time>2026-08-24T13:10:06Z</time>
      </trkpt>
      <trkpt lat="49.10767" lon="4.13383">
        <ele>153.2</ele>
        <time>2026-08-24T13:10:07Z</time>
      </trkpt>
      <trkpt lat="49.10767" lon="4.13389">
        <ele>153.4</ele>
        <time>2026-08-24T13:10:08Z</time>
      </trkpt>
      <trkpt lat="49.10767" lon="4.13396">
        <ele>153.6</ele>
        <time>2026-08-24T13:10:09Z</time>
      </trkpt>
      <trkpt lat="49.10766" lon="4.13404">
        <ele>153.8</ele>
        <time>2026-08-24T13:10:10Z</time>
      </trkpt>
      <trkpt lat="49.10765" lon="4.1341">
        <ele>154</ele>
        <time>2026-08-24T13:10:11Z</time>
      </trkpt>
      <trkpt lat="49.10765" lon="4.13416">
        <ele>154</ele>
        <time>2026-08-24T13:10:12Z</time>
      </trkpt>
      <trkpt lat="49.10764" lon="4.13423">
        <ele>154</ele>
        <time>2026-08-24T13:10:13Z</time>
      </trkpt>
      <trkpt lat="49.10764" lon="4.1343">
        <ele>154.2</ele>
        <time>2026-08-24T13:10:14Z</time>
      </trkpt>
      <trkpt lat="49.10763" lon="4.13437">
        <ele>154.4</ele>
        <time>2026-08-24T13:10:15Z</time>
      </trkpt>
      <trkpt lat="49.10762" lon="4.13444">
        <ele>154.6</ele>
        <time>2026-08-24T13:10:16Z</time>
      </trkpt>
      <trkpt lat="49.10761" lon="4.13451">
        <ele>154.6</ele>
        <time>2026-08-24T13:10:17Z</time>
      </trkpt>
      <trkpt lat="49.1076" lon="4.13459">
        <ele>154.8</ele>
        <time>2026-08-24T13:10:18Z</time>
      </trkpt>
      <trkpt lat="49.10759" lon="4.13466">
        <ele>154.8</ele>
        <time>2026-08-24T13:10:19Z</time>
      </trkpt>
      <trkpt lat="49.10758" lon="4.13474">
        <ele>154.8</ele>
        <time>2026-08-24T13:10:20Z</time>
      </trkpt>
      <trkpt lat="49.10757" lon="4.13481">
        <ele>154.8</ele>
        <time>2026-08-24T13:10:21Z</time>
      </trkpt>
      <trkpt lat="49.10756" lon="4.13489">
        <ele>155</ele>
        <time>2026-08-24T13:10:22Z</time>
      </trkpt>
      <trkpt lat="49.10755" lon="4.13496">
        <ele>155</ele>
        <time>2026-08-24T13:10:23Z</time>
      </trkpt>
      <trkpt lat="49.10754" lon="4.13504">
        <ele>154.8</ele>
        <time>2026-08-24T13:10:24Z</time>
      </trkpt>
      <trkpt lat="49.10753" lon="4.13512">
        <ele>154.8</ele>
        <time>2026-08-24T13:10:25Z</time>
      </trkpt>
      <trkpt lat="49.10752" lon="4.1352">
        <ele>154.8</ele>
        <time>2026-08-24T13:10:26Z</time>
      </trkpt>
      <trkpt lat="49.10752" lon="4.13527">
        <ele>154.8</ele>
        <time>2026-08-24T13:10:27Z</time>
      </trkpt>
      <trkpt lat="49.10751" lon="4.13535">
        <ele>154.8</ele>
        <time>2026-08-24T13:10:28Z</time>
      </trkpt>
      <trkpt lat="49.10749" lon="4.13543">
        <ele>154.8</ele>
        <time>2026-08-24T13:10:29Z</time>
      </trkpt>
      <trkpt lat="49.10748" lon="4.13551">
        <ele>155</ele>
        <time>2026-08-24T13:10:30Z</time>
      </trkpt>
      <trkpt lat="49.10747" lon="4.13558">
        <ele>155</ele>
        <time>2026-08-24T13:10:31Z</time>
      </trkpt>
      <trkpt lat="49.10746" lon="4.13567">
        <ele>155.2</ele>
        <time>2026-08-24T13:10:32Z</time>
      </trkpt>
      <trkpt lat="49.10745" lon="4.13573">
        <ele>155.4</ele>
        <time>2026-08-24T13:10:33Z</time>
      </trkpt>
      <trkpt lat="49.10744" lon="4.13581">
        <ele>155.4</ele>
        <time>2026-08-24T13:10:34Z</time>
      </trkpt>
      <trkpt lat="49.10743" lon="4.13588">
        <ele>155.6</ele>
        <time>2026-08-24T13:10:35Z</time>
      </trkpt>
      <trkpt lat="49.10742" lon="4.13596">
        <ele>155.8</ele>
        <time>2026-08-24T13:10:36Z</time>
      </trkpt>
      <trkpt lat="49.10742" lon="4.13603">
        <ele>155.8</ele>
        <time>2026-08-24T13:10:37Z</time>
      </trkpt>
      <trkpt lat="49.10741" lon="4.13611">
        <ele>156</ele>
        <time>2026-08-24T13:10:38Z</time>
      </trkpt>
      <trkpt lat="49.1074" lon="4.13618">
        <ele>156.2</ele>
        <time>2026-08-24T13:10:39Z</time>
      </trkpt>
      <trkpt lat="49.10739" lon="4.13626">
        <ele>156.4</ele>
        <time>2026-08-24T13:10:40Z</time>
      </trkpt>
      <trkpt lat="49.10738" lon="4.13634">
        <ele>156.4</ele>
        <time>2026-08-24T13:10:41Z</time>
      </trkpt>
      <trkpt lat="49.10737" lon="4.13641">
        <ele>156.6</ele>
        <time>2026-08-24T13:10:42Z</time>
      </trkpt>
      <trkpt lat="49.10736" lon="4.13649">
        <ele>156.8</ele>
        <time>2026-08-24T13:10:43Z</time>
      </trkpt>
      <trkpt lat="49.10735" lon="4.13656">
        <ele>156.8</ele>
        <time>2026-08-24T13:10:44Z</time>
      </trkpt>
      <trkpt lat="49.10733" lon="4.13664">
        <ele>157</ele>
        <time>2026-08-24T13:10:45Z</time>
      </trkpt>
      <trkpt lat="49.10732" lon="4.13672">
        <ele>157.2</ele>
        <time>2026-08-24T13:10:46Z</time>
      </trkpt>
      <trkpt lat="49.10731" lon="4.13679">
        <ele>157.2</ele>
        <time>2026-08-24T13:10:47Z</time>
      </trkpt>
      <trkpt lat="49.1073" lon="4.13687">
        <ele>157.2</ele>
        <time>2026-08-24T13:10:48Z</time>
      </trkpt>
      <trkpt lat="49.1073" lon="4.13694">
        <ele>157.2</ele>
        <time>2026-08-24T13:10:49Z</time>
      </trkpt>
      <trkpt lat="49.10729" lon="4.13702">
        <ele>157.4</ele>
        <time>2026-08-24T13:10:50Z</time>
      </trkpt>
      <trkpt lat="49.10728" lon="4.13709">
        <ele>157.4</ele>
        <time>2026-08-24T13:10:51Z</time>
      </trkpt>
      <trkpt lat="49.10727" lon="4.13716">
        <ele>157.4</ele>
        <time>2026-08-24T13:10:52Z</time>
      </trkpt>
      <trkpt lat="49.10726" lon="4.13723">
        <ele>157.6</ele>
        <time>2026-08-24T13:10:53Z</time>
      </trkpt>
      <trkpt lat="49.10725" lon="4.13731">
        <ele>158</ele>
        <time>2026-08-24T13:10:54Z</time>
      </trkpt>
      <trkpt lat="49.10724" lon="4.13738">
        <ele>158</ele>
        <time>2026-08-24T13:10:55Z</time>
      </trkpt>
      <trkpt lat="49.10723" lon="4.13744">
        <ele>158</ele>
        <time>2026-08-24T13:10:56Z</time>
      </trkpt>
      <trkpt lat="49.10722" lon="4.13751">
        <ele>158.4</ele>
        <time>2026-08-24T13:10:57Z</time>
      </trkpt>
      <trkpt lat="49.10721" lon="4.13758">
        <ele>158.4</ele>
        <time>2026-08-24T13:10:58Z</time>
      </trkpt>
      <trkpt lat="49.1072" lon="4.13765">
        <ele>158.6</ele>
        <time>2026-08-24T13:10:59Z</time>
      </trkpt>
      <trkpt lat="49.1072" lon="4.13772">
        <ele>158.8</ele>
        <time>2026-08-24T13:11:00Z</time>
      </trkpt>
      <trkpt lat="49.10719" lon="4.13778">
        <ele>159.2</ele>
        <time>2026-08-24T13:11:01Z</time>
      </trkpt>
      <trkpt lat="49.10718" lon="4.13785">
        <ele>159.4</ele>
        <time>2026-08-24T13:11:02Z</time>
      </trkpt>
      <trkpt lat="49.10718" lon="4.13792">
        <ele>159.6</ele>
        <time>2026-08-24T13:11:03Z</time>
      </trkpt>
      <trkpt lat="49.10717" lon="4.13798">
        <ele>160</ele>
        <time>2026-08-24T13:11:04Z</time>
      </trkpt>
      <trkpt lat="49.10717" lon="4.13805">
        <ele>160.4</ele>
        <time>2026-08-24T13:11:05Z</time>
      </trkpt>
      <trkpt lat="49.10717" lon="4.13812">
        <ele>160.6</ele>
        <time>2026-08-24T13:11:06Z</time>
      </trkpt>
      <trkpt lat="49.10718" lon="4.13818">
        <ele>160.8</ele>
        <time>2026-08-24T13:11:07Z</time>
      </trkpt>
      <trkpt lat="49.10719" lon="4.13825">
        <ele>161</ele>
        <time>2026-08-24T13:11:08Z</time>
      </trkpt>
      <trkpt lat="49.1072" lon="4.13832">
        <ele>161.2</ele>
        <time>2026-08-24T13:11:09Z</time>
      </trkpt>
      <trkpt lat="49.10721" lon="4.13839">
        <ele>161</ele>
        <time>2026-08-24T13:11:10Z</time>
      </trkpt>
      <trkpt lat="49.10723" lon="4.13845">
        <ele>161</ele>
        <time>2026-08-24T13:11:11Z</time>
      </trkpt>
      <trkpt lat="49.10724" lon="4.13852">
        <ele>161.2</ele>
        <time>2026-08-24T13:11:12Z</time>
      </trkpt>
      <trkpt lat="49.10726" lon="4.13858">
        <ele>161.2</ele>
        <time>2026-08-24T13:11:13Z</time>
      </trkpt>
      <trkpt lat="49.10727" lon="4.13864">
        <ele>161.4</ele>
        <time>2026-08-24T13:11:14Z</time>
      </trkpt>
      <trkpt lat="49.10729" lon="4.1387">
        <ele>161.6</ele>
        <time>2026-08-24T13:11:15Z</time>
      </trkpt>
      <trkpt lat="49.10731" lon="4.13876">
        <ele>162</ele>
        <time>2026-08-24T13:11:16Z</time>
      </trkpt>
      <trkpt lat="49.10733" lon="4.13881">
        <ele>162.4</ele>
        <time>2026-08-24T13:11:17Z</time>
      </trkpt>
      <trkpt lat="49.10735" lon="4.13887">
        <ele>162.6</ele>
        <time>2026-08-24T13:11:18Z</time>
      </trkpt>
      <trkpt lat="49.10738" lon="4.13892">
        <ele>162.8</ele>
        <time>2026-08-24T13:11:19Z</time>
      </trkpt>
      <trkpt lat="49.1074" lon="4.13897">
        <ele>163</ele>
        <time>2026-08-24T13:11:20Z</time>
      </trkpt>
      <trkpt lat="49.10743" lon="4.13902">
        <ele>163</ele>
        <time>2026-08-24T13:11:21Z</time>
      </trkpt>
      <trkpt lat="49.10746" lon="4.13907">
        <ele>163</ele>
        <time>2026-08-24T13:11:22Z</time>
      </trkpt>
      <trkpt lat="49.10748" lon="4.13912">
        <ele>163</ele>
        <time>2026-08-24T13:11:23Z</time>
      </trkpt>
      <trkpt lat="49.10751" lon="4.13917">
        <ele>163.2</ele>
        <time>2026-08-24T13:11:24Z</time>
      </trkpt>
      <trkpt lat="49.10754" lon="4.13922">
        <ele>163.4</ele>
        <time>2026-08-24T13:11:25Z</time>
      </trkpt>
      <trkpt lat="49.10757" lon="4.13926">
        <ele>163.4</ele>
        <time>2026-08-24T13:11:26Z</time>
      </trkpt>
      <trkpt lat="49.10761" lon="4.1393">
        <ele>163.8</ele>
        <time>2026-08-24T13:11:27Z</time>
      </trkpt>
      <trkpt lat="49.10764" lon="4.13934">
        <ele>164</ele>
        <time>2026-08-24T13:11:28Z</time>
      </trkpt>
      <trkpt lat="49.10768" lon="4.13938">
        <ele>164.2</ele>
        <time>2026-08-24T13:11:29Z</time>
      </trkpt>
      <trkpt lat="49.10771" lon="4.13941">
        <ele>164.6</ele>
        <time>2026-08-24T13:11:30Z</time>
      </trkpt>
      <trkpt lat="49.10775" lon="4.13945">
        <ele>164.8</ele>
        <time>2026-08-24T13:11:31Z</time>
      </trkpt>
      <trkpt lat="49.10778" lon="4.13948">
        <ele>165.2</ele>
        <time>2026-08-24T13:11:32Z</time>
      </trkpt>
      <trkpt lat="49.10782" lon="4.13951">
        <ele>165.4</ele>
        <time>2026-08-24T13:11:33Z</time>
      </trkpt>
      <trkpt lat="49.10785" lon="4.13954">
        <ele>165.8</ele>
        <time>2026-08-24T13:11:34Z</time>
      </trkpt>
      <trkpt lat="49.10788" lon="4.13957">
        <ele>166.2</ele>
        <time>2026-08-24T13:11:35Z</time>
      </trkpt>
      <trkpt lat="49.10791" lon="4.1396">
        <ele>166.4</ele>
        <time>2026-08-24T13:11:36Z</time>
      </trkpt>
      <trkpt lat="49.10794" lon="4.13962">
        <ele>166.8</ele>
        <time>2026-08-24T13:11:37Z</time>
      </trkpt>
      <trkpt lat="49.10797" lon="4.13963">
        <ele>167</ele>
        <time>2026-08-24T13:11:38Z</time>
      </trkpt>
      <trkpt lat="49.108" lon="4.13965">
        <ele>167.4</ele>
        <time>2026-08-24T13:11:39Z</time>
      </trkpt>
      <trkpt lat="49.10803" lon="4.13967">
        <ele>167.6</ele>
        <time>2026-08-24T13:11:40Z</time>
      </trkpt>
      <trkpt lat="49.10807" lon="4.13969">
        <ele>167.8</ele>
        <time>2026-08-24T13:11:41Z</time>
      </trkpt>
      <trkpt lat="49.10809" lon="4.13972">
        <ele>168</ele>
        <time>2026-08-24T13:11:42Z</time>
      </trkpt>
      <trkpt lat="49.10812" lon="4.13974">
        <ele>168.2</ele>
        <time>2026-08-24T13:11:43Z</time>
      </trkpt>
      <trkpt lat="49.10815" lon="4.13977">
        <ele>168.4</ele>
        <time>2026-08-24T13:11:44Z</time>
      </trkpt>
      <trkpt lat="49.10818" lon="4.1398">
        <ele>168.6</ele>
        <time>2026-08-24T13:11:45Z</time>
      </trkpt>
      <trkpt lat="49.10821" lon="4.13983">
        <ele>169</ele>
        <time>2026-08-24T13:11:46Z</time>
      </trkpt>
      <trkpt lat="49.10825" lon="4.13985">
        <ele>169.2</ele>
        <time>2026-08-24T13:11:47Z</time>
      </trkpt>
      <trkpt lat="49.10828" lon="4.13988">
        <ele>169.4</ele>
        <time>2026-08-24T13:11:48Z</time>
      </trkpt>
      <trkpt lat="49.10831" lon="4.13991">
        <ele>169.6</ele>
        <time>2026-08-24T13:11:49Z</time>
      </trkpt>
      <trkpt lat="49.10834" lon="4.13993">
        <ele>169.8</ele>
        <time>2026-08-24T13:11:50Z</time>
      </trkpt>
      <trkpt lat="49.10837" lon="4.13996">
        <ele>170</ele>
        <time>2026-08-24T13:11:51Z</time>
      </trkpt>
      <trkpt lat="49.1084" lon="4.13998">
        <ele>170.2</ele>
        <time>2026-08-24T13:11:52Z</time>
      </trkpt>
      <trkpt lat="49.10843" lon="4.14">
        <ele>170.2</ele>
        <time>2026-08-24T13:11:53Z</time>
      </trkpt>
      <trkpt lat="49.10847" lon="4.14002">
        <ele>170.4</ele>
        <time>2026-08-24T13:11:54Z</time>
      </trkpt>
      <trkpt lat="49.1085" lon="4.14004">
        <ele>170.6</ele>
        <time>2026-08-24T13:11:55Z</time>
      </trkpt>
      <trkpt lat="49.10853" lon="4.14006">
        <ele>170.8</ele>
        <time>2026-08-24T13:11:56Z</time>
      </trkpt>
      <trkpt lat="49.10856" lon="4.14008">
        <ele>171</ele>
        <time>2026-08-24T13:11:57Z</time>
      </trkpt>
      <trkpt lat="49.10859" lon="4.1401">
        <ele>171.2</ele>
        <time>2026-08-24T13:11:58Z</time>
      </trkpt>
      <trkpt lat="49.10862" lon="4.14013">
        <ele>171.4</ele>
        <time>2026-08-24T13:11:59Z</time>
      </trkpt>
      <trkpt lat="49.10865" lon="4.14015">
        <ele>171.6</ele>
        <time>2026-08-24T13:12:00Z</time>
      </trkpt>
      <trkpt lat="49.10868" lon="4.14017">
        <ele>171.8</ele>
        <time>2026-08-24T13:12:01Z</time>
      </trkpt>
      <trkpt lat="49.10871" lon="4.14019">
        <ele>172</ele>
        <time>2026-08-24T13:12:02Z</time>
      </trkpt>
      <trkpt lat="49.10874" lon="4.14022">
        <ele>172</ele>
        <time>2026-08-24T13:12:03Z</time>
      </trkpt>
      <trkpt lat="49.10877" lon="4.14024">
        <ele>172.2</ele>
        <time>2026-08-24T13:12:04Z</time>
      </trkpt>
      <trkpt lat="49.1088" lon="4.14026">
        <ele>172.4</ele>
        <time>2026-08-24T13:12:05Z</time>
      </trkpt>
      <trkpt lat="49.10884" lon="4.14028">
        <ele>172.2</ele>
        <time>2026-08-24T13:12:06Z</time>
      </trkpt>
      <trkpt lat="49.10887" lon="4.1403">
        <ele>172.4</ele>
        <time>2026-08-24T13:12:07Z</time>
      </trkpt>
      <trkpt lat="49.1089" lon="4.14033">
        <ele>172.4</ele>
        <time>2026-08-24T13:12:08Z</time>
      </trkpt>
      <trkpt lat="49.10894" lon="4.14035">
        <ele>172.4</ele>
        <time>2026-08-24T13:12:09Z</time>
      </trkpt>
      <trkpt lat="49.10897" lon="4.14037">
        <ele>172.6</ele>
        <time>2026-08-24T13:12:10Z</time>
      </trkpt>
      <trkpt lat="49.10901" lon="4.14039">
        <ele>172.8</ele>
        <time>2026-08-24T13:12:11Z</time>
      </trkpt>
      <trkpt lat="49.10905" lon="4.14041">
        <ele>173</ele>
        <time>2026-08-24T13:12:12Z</time>
      </trkpt>
      <trkpt lat="49.10908" lon="4.14043">
        <ele>173.2</ele>
        <time>2026-08-24T13:12:13Z</time>
      </trkpt>
      <trkpt lat="49.10912" lon="4.14045">
        <ele>173.4</ele>
        <time>2026-08-24T13:12:14Z</time>
      </trkpt>
      <trkpt lat="49.10916" lon="4.14046">
        <ele>173.6</ele>
        <time>2026-08-24T13:12:15Z</time>
      </trkpt>
      <trkpt lat="49.10919" lon="4.14048">
        <ele>173.8</ele>
        <time>2026-08-24T13:12:16Z</time>
      </trkpt>
      <trkpt lat="49.10923" lon="4.1405">
        <ele>173.8</ele>
        <time>2026-08-24T13:12:17Z</time>
      </trkpt>
      <trkpt lat="49.10927" lon="4.14052">
        <ele>174</ele>
        <time>2026-08-24T13:12:18Z</time>
      </trkpt>
      <trkpt lat="49.10931" lon="4.14054">
        <ele>174</ele>
        <time>2026-08-24T13:12:19Z</time>
      </trkpt>
      <trkpt lat="49.10934" lon="4.14056">
        <ele>174.2</ele>
        <time>2026-08-24T13:12:20Z</time>
      </trkpt>
      <trkpt lat="49.10938" lon="4.14058">
        <ele>174.2</ele>
        <time>2026-08-24T13:12:21Z</time>
      </trkpt>
      <trkpt lat="49.10942" lon="4.1406">
        <ele>174.2</ele>
        <time>2026-08-24T13:12:22Z</time>
      </trkpt>
      <trkpt lat="49.10946" lon="4.14062">
        <ele>174.2</ele>
        <time>2026-08-24T13:12:23Z</time>
      </trkpt>
      <trkpt lat="49.1095" lon="4.14064">
        <ele>174.2</ele>
        <time>2026-08-24T13:12:24Z</time>
      </trkpt>
      <trkpt lat="49.10954" lon="4.14067">
        <ele>174.4</ele>
        <time>2026-08-24T13:12:25Z</time>
      </trkpt>
      <trkpt lat="49.10958" lon="4.14069">
        <ele>174.6</ele>
        <time>2026-08-24T13:12:26Z</time>
      </trkpt>
      <trkpt lat="49.10962" lon="4.14071">
        <ele>174.8</ele>
        <time>2026-08-24T13:12:27Z</time>
      </trkpt>
      <trkpt lat="49.10966" lon="4.14072">
        <ele>175</ele>
        <time>2026-08-24T13:12:28Z</time>
      </trkpt>
      <trkpt lat="49.1097" lon="4.14074">
        <ele>175</ele>
        <time>2026-08-24T13:12:29Z</time>
      </trkpt>
      <trkpt lat="49.10974" lon="4.14077">
        <ele>175.2</ele>
        <time>2026-08-24T13:12:30Z</time>
      </trkpt>
      <trkpt lat="49.10978" lon="4.14079">
        <ele>175.4</ele>
        <time>2026-08-24T13:12:31Z</time>
      </trkpt>
      <trkpt lat="49.10982" lon="4.14081">
        <ele>175.6</ele>
        <time>2026-08-24T13:12:32Z</time>
      </trkpt>
      <trkpt lat="49.10986" lon="4.14083">
        <ele>175.6</ele>
        <time>2026-08-24T13:12:33Z</time>
      </trkpt>
      <trkpt lat="49.1099" lon="4.14085">
        <ele>175.8</ele>
        <time>2026-08-24T13:12:34Z</time>
      </trkpt>
      <trkpt lat="49.10994" lon="4.14087">
        <ele>175.8</ele>
        <time>2026-08-24T13:12:35Z</time>
      </trkpt>
      <trkpt lat="49.10998" lon="4.14089">
        <ele>176</ele>
        <time>2026-08-24T13:12:36Z</time>
      </trkpt>
      <trkpt lat="49.11002" lon="4.14092">
        <ele>176</ele>
        <time>2026-08-24T13:12:37Z</time>
      </trkpt>
      <trkpt lat="49.11006" lon="4.14093">
        <ele>176</ele>
        <time>2026-08-24T13:12:38Z</time>
      </trkpt>
      <trkpt lat="49.1101" lon="4.14095">
        <ele>176.2</ele>
        <time>2026-08-24T13:12:39Z</time>
      </trkpt>
      <trkpt lat="49.11014" lon="4.14097">
        <ele>176.2</ele>
        <time>2026-08-24T13:12:40Z</time>
      </trkpt>
      <trkpt lat="49.11018" lon="4.14098">
        <ele>176.4</ele>
        <time>2026-08-24T13:12:41Z</time>
      </trkpt>
      <trkpt lat="49.11023" lon="4.14099">
        <ele>176.4</ele>
        <time>2026-08-24T13:12:42Z</time>
      </trkpt>
      <trkpt lat="49.11027" lon="4.14101">
        <ele>176.6</ele>
        <time>2026-08-24T13:12:43Z</time>
      </trkpt>
      <trkpt lat="49.11031" lon="4.14102">
        <ele>176.8</ele>
        <time>2026-08-24T13:12:44Z</time>
      </trkpt>
      <trkpt lat="49.11035" lon="4.14102">
        <ele>176.8</ele>
        <time>2026-08-24T13:12:45Z</time>
      </trkpt>
      <trkpt lat="49.1104" lon="4.14102">
        <ele>176.6</ele>
        <time>2026-08-24T13:12:46Z</time>
      </trkpt>
      <trkpt lat="49.11044" lon="4.14102">
        <ele>176.6</ele>
        <time>2026-08-24T13:12:47Z</time>
      </trkpt>
      <trkpt lat="49.11048" lon="4.14102">
        <ele>176.6</ele>
        <time>2026-08-24T13:12:48Z</time>
      </trkpt>
      <trkpt lat="49.11053" lon="4.14102">
        <ele>176.6</ele>
        <time>2026-08-24T13:12:49Z</time>
      </trkpt>
      <trkpt lat="49.11057" lon="4.14101">
        <ele>176.6</ele>
        <time>2026-08-24T13:12:50Z</time>
      </trkpt>
      <trkpt lat="49.11061" lon="4.141">
        <ele>176.8</ele>
        <time>2026-08-24T13:12:51Z</time>
      </trkpt>
      <trkpt lat="49.11065" lon="4.14099">
        <ele>177</ele>
        <time>2026-08-24T13:12:52Z</time>
      </trkpt>
      <trkpt lat="49.11069" lon="4.14098">
        <ele>177.2</ele>
        <time>2026-08-24T13:12:53Z</time>
      </trkpt>
      <trkpt lat="49.11073" lon="4.14097">
        <ele>177.6</ele>
        <time>2026-08-24T13:12:54Z</time>
      </trkpt>
      <trkpt lat="49.11077" lon="4.14095">
        <ele>177.8</ele>
        <time>2026-08-24T13:12:55Z</time>
      </trkpt>
      <trkpt lat="49.11081" lon="4.14093">
        <ele>178.2</ele>
        <time>2026-08-24T13:12:56Z</time>
      </trkpt>
      <trkpt lat="49.11084" lon="4.14091">
        <ele>178.4</ele>
        <time>2026-08-24T13:12:57Z</time>
      </trkpt>
      <trkpt lat="49.11088" lon="4.14089">
        <ele>178.6</ele>
        <time>2026-08-24T13:12:58Z</time>
      </trkpt>
      <trkpt lat="49.11092" lon="4.14087">
        <ele>178.8</ele>
        <time>2026-08-24T13:12:59Z</time>
      </trkpt>
      <trkpt lat="49.11096" lon="4.14085">
        <ele>179</ele>
        <time>2026-08-24T13:13:00Z</time>
      </trkpt>
      <trkpt lat="49.11099" lon="4.14083">
        <ele>179.2</ele>
        <time>2026-08-24T13:13:01Z</time>
      </trkpt>
      <trkpt lat="49.11103" lon="4.14081">
        <ele>179.4</ele>
        <time>2026-08-24T13:13:02Z</time>
      </trkpt>
      <trkpt lat="49.11107" lon="4.14079">
        <ele>179.6</ele>
        <time>2026-08-24T13:13:03Z</time>
      </trkpt>
      <trkpt lat="49.11111" lon="4.14077">
        <ele>179.8</ele>
        <time>2026-08-24T13:13:04Z</time>
      </trkpt>
      <trkpt lat="49.11114" lon="4.14075">
        <ele>180</ele>
        <time>2026-08-24T13:13:05Z</time>
      </trkpt>
      <trkpt lat="49.11118" lon="4.14073">
        <ele>180.2</ele>
        <time>2026-08-24T13:13:06Z</time>
      </trkpt>
      <trkpt lat="49.11122" lon="4.14071">
        <ele>180.2</ele>
        <time>2026-08-24T13:13:07Z</time>
      </trkpt>
      <trkpt lat="49.11125" lon="4.14069">
        <ele>180.4</ele>
        <time>2026-08-24T13:13:08Z</time>
      </trkpt>
      <trkpt lat="49.11129" lon="4.14066">
        <ele>180.4</ele>
        <time>2026-08-24T13:13:09Z</time>
      </trkpt>
      <trkpt lat="49.11133" lon="4.14064">
        <ele>180.4</ele>
        <time>2026-08-24T13:13:10Z</time>
      </trkpt>
      <trkpt lat="49.11136" lon="4.14062">
        <ele>180.6</ele>
        <time>2026-08-24T13:13:11Z</time>
      </trkpt>
      <trkpt lat="49.1114" lon="4.1406">
        <ele>180.6</ele>
        <time>2026-08-24T13:13:12Z</time>
      </trkpt>
      <trkpt lat="49.11143" lon="4.14057">
        <ele>180.8</ele>
        <time>2026-08-24T13:13:13Z</time>
      </trkpt>
      <trkpt lat="49.11147" lon="4.14055">
        <ele>181</ele>
        <time>2026-08-24T13:13:14Z</time>
      </trkpt>
      <trkpt lat="49.11151" lon="4.14053">
        <ele>181.2</ele>
        <time>2026-08-24T13:13:15Z</time>
      </trkpt>
      <trkpt lat="49.11154" lon="4.14051">
        <ele>181.4</ele>
        <time>2026-08-24T13:13:16Z</time>
      </trkpt>
      <trkpt lat="49.11158" lon="4.14049">
        <ele>181.6</ele>
        <time>2026-08-24T13:13:17Z</time>
      </trkpt>
      <trkpt lat="49.11162" lon="4.14047">
        <ele>181.6</ele>
        <time>2026-08-24T13:13:18Z</time>
      </trkpt>
      <trkpt lat="49.11166" lon="4.14045">
        <ele>181.6</ele>
        <time>2026-08-24T13:13:19Z</time>
      </trkpt>
      <trkpt lat="49.11169" lon="4.14043">
        <ele>181.8</ele>
        <time>2026-08-24T13:13:20Z</time>
      </trkpt>
      <trkpt lat="49.11173" lon="4.14041">
        <ele>181.8</ele>
        <time>2026-08-24T13:13:21Z</time>
      </trkpt>
      <trkpt lat="49.11177" lon="4.14039">
        <ele>182</ele>
        <time>2026-08-24T13:13:22Z</time>
      </trkpt>
      <trkpt lat="49.1118" lon="4.14037">
        <ele>182</ele>
        <time>2026-08-24T13:13:23Z</time>
      </trkpt>
      <trkpt lat="49.11184" lon="4.14035">
        <ele>182.2</ele>
        <time>2026-08-24T13:13:24Z</time>
      </trkpt>
      <trkpt lat="49.11188" lon="4.14032">
        <ele>182.4</ele>
        <time>2026-08-24T13:13:25Z</time>
      </trkpt>
      <trkpt lat="49.11192" lon="4.1403">
        <ele>182.6</ele>
        <time>2026-08-24T13:13:26Z</time>
      </trkpt>
      <trkpt lat="49.11195" lon="4.14028">
        <ele>182.8</ele>
        <time>2026-08-24T13:13:27Z</time>
      </trkpt>
      <trkpt lat="49.11199" lon="4.14026">
        <ele>183</ele>
        <time>2026-08-24T13:13:28Z</time>
      </trkpt>
      <trkpt lat="49.11203" lon="4.14024">
        <ele>183.2</ele>
        <time>2026-08-24T13:13:29Z</time>
      </trkpt>
      <trkpt lat="49.11206" lon="4.14021">
        <ele>183.2</ele>
        <time>2026-08-24T13:13:30Z</time>
      </trkpt>
      <trkpt lat="49.1121" lon="4.14019">
        <ele>183.4</ele>
        <time>2026-08-24T13:13:31Z</time>
      </trkpt>
      <trkpt lat="49.11214" lon="4.14017">
        <ele>183.4</ele>
        <time>2026-08-24T13:13:32Z</time>
      </trkpt>
      <trkpt lat="49.11218" lon="4.14015">
        <ele>183.4</ele>
        <time>2026-08-24T13:13:33Z</time>
      </trkpt>
      <trkpt lat="49.11221" lon="4.14013">
        <ele>183.6</ele>
        <time>2026-08-24T13:13:34Z</time>
      </trkpt>
      <trkpt lat="49.11225" lon="4.1401">
        <ele>183.8</ele>
        <time>2026-08-24T13:13:35Z</time>
      </trkpt>
      <trkpt lat="49.11229" lon="4.14008">
        <ele>184</ele>
        <time>2026-08-24T13:13:36Z</time>
      </trkpt>
      <trkpt lat="49.11233" lon="4.14005">
        <ele>184.2</ele>
        <time>2026-08-24T13:13:37Z</time>
      </trkpt>
      <trkpt lat="49.11236" lon="4.14001">
        <ele>184.4</ele>
        <time>2026-08-24T13:13:38Z</time>
      </trkpt>
      <trkpt lat="49.1124" lon="4.13998">
        <ele>184.6</ele>
        <time>2026-08-24T13:13:39Z</time>
      </trkpt>
      <trkpt lat="49.11243" lon="4.13995">
        <ele>185</ele>
        <time>2026-08-24T13:13:40Z</time>
      </trkpt>
      <trkpt lat="49.11247" lon="4.13992">
        <ele>185.2</ele>
        <time>2026-08-24T13:13:41Z</time>
      </trkpt>
      <trkpt lat="49.1125" lon="4.13988">
        <ele>185.6</ele>
        <time>2026-08-24T13:13:42Z</time>
      </trkpt>
      <trkpt lat="49.11253" lon="4.13985">
        <ele>186</ele>
        <time>2026-08-24T13:13:43Z</time>
      </trkpt>
      <trkpt lat="49.11256" lon="4.13982">
        <ele>186</ele>
        <time>2026-08-24T13:13:44Z</time>
      </trkpt>
      <trkpt lat="49.1126" lon="4.13979">
        <ele>186.4</ele>
        <time>2026-08-24T13:13:45Z</time>
      </trkpt>
      <trkpt lat="49.11263" lon="4.13975">
        <ele>186.8</ele>
        <time>2026-08-24T13:13:46Z</time>
      </trkpt>
      <trkpt lat="49.11266" lon="4.13972">
        <ele>187.2</ele>
        <time>2026-08-24T13:13:47Z</time>
      </trkpt>
      <trkpt lat="49.1127" lon="4.13968">
        <ele>187.6</ele>
        <time>2026-08-24T13:13:48Z</time>
      </trkpt>
      <trkpt lat="49.11273" lon="4.13964">
        <ele>187.8</ele>
        <time>2026-08-24T13:13:49Z</time>
      </trkpt>
      <trkpt lat="49.11276" lon="4.1396">
        <ele>188.2</ele>
        <time>2026-08-24T13:13:50Z</time>
      </trkpt>
      <trkpt lat="49.1128" lon="4.13956">
        <ele>188.6</ele>
        <time>2026-08-24T13:13:51Z</time>
      </trkpt>
      <trkpt lat="49.11283" lon="4.13952">
        <ele>188.8</ele>
        <time>2026-08-24T13:13:52Z</time>
      </trkpt>
      <trkpt lat="49.11286" lon="4.13948">
        <ele>189</ele>
        <time>2026-08-24T13:13:53Z</time>
      </trkpt>
      <trkpt lat="49.11289" lon="4.13944">
        <ele>189.4</ele>
        <time>2026-08-24T13:13:54Z</time>
      </trkpt>
      <trkpt lat="49.11293" lon="4.1394">
        <ele>189.8</ele>
        <time>2026-08-24T13:13:55Z</time>
      </trkpt>
      <trkpt lat="49.11296" lon="4.13935">
        <ele>190</ele>
        <time>2026-08-24T13:13:56Z</time>
      </trkpt>
      <trkpt lat="49.11299" lon="4.13931">
        <ele>190.2</ele>
        <time>2026-08-24T13:13:57Z</time>
      </trkpt>
      <trkpt lat="49.11302" lon="4.13927">
        <ele>190.4</ele>
        <time>2026-08-24T13:13:58Z</time>
      </trkpt>
      <trkpt lat="49.11305" lon="4.13923">
        <ele>190.6</ele>
        <time>2026-08-24T13:13:59Z</time>
      </trkpt>
      <trkpt lat="49.11309" lon="4.13918">
        <ele>190.8</ele>
        <time>2026-08-24T13:14:00Z</time>
      </trkpt>
      <trkpt lat="49.11312" lon="4.13914">
        <ele>191</ele>
        <time>2026-08-24T13:14:01Z</time>
      </trkpt>
      <trkpt lat="49.11315" lon="4.1391">
        <ele>191.2</ele>
        <time>2026-08-24T13:14:02Z</time>
      </trkpt>
      <trkpt lat="49.11318" lon="4.13906">
        <ele>191.4</ele>
        <time>2026-08-24T13:14:03Z</time>
      </trkpt>
      <trkpt lat="49.11321" lon="4.13901">
        <ele>191.6</ele>
        <time>2026-08-24T13:14:04Z</time>
      </trkpt>
      <trkpt lat="49.11325" lon="4.13897">
        <ele>191.8</ele>
        <time>2026-08-24T13:14:05Z</time>
      </trkpt>
      <trkpt lat="49.11328" lon="4.13893">
        <ele>192</ele>
        <time>2026-08-24T13:14:06Z</time>
      </trkpt>
      <trkpt lat="49.11331" lon="4.13889">
        <ele>192.4</ele>
        <time>2026-08-24T13:14:07Z</time>
      </trkpt>
      <trkpt lat="49.11334" lon="4.13885">
        <ele>192.8</ele>
        <time>2026-08-24T13:14:08Z</time>
      </trkpt>
      <trkpt lat="49.11338" lon="4.13881">
        <ele>192.8</ele>
        <time>2026-08-24T13:14:09Z</time>
      </trkpt>
      <trkpt lat="49.11341" lon="4.13877">
        <ele>193.2</ele>
        <time>2026-08-24T13:14:10Z</time>
      </trkpt>
      <trkpt lat="49.11344" lon="4.13873">
        <ele>193.4</ele>
        <time>2026-08-24T13:14:11Z</time>
      </trkpt>
      <trkpt lat="49.11347" lon="4.13869">
        <ele>193.4</ele>
        <time>2026-08-24T13:14:12Z</time>
      </trkpt>
      <trkpt lat="49.1135" lon="4.13865">
        <ele>193.6</ele>
        <time>2026-08-24T13:14:13Z</time>
      </trkpt>
      <trkpt lat="49.11353" lon="4.13861">
        <ele>193.8</ele>
        <time>2026-08-24T13:14:14Z</time>
      </trkpt>
      <trkpt lat="49.11357" lon="4.13858">
        <ele>194</ele>
        <time>2026-08-24T13:14:15Z</time>
      </trkpt>
      <trkpt lat="49.1136" lon="4.13854">
        <ele>194.2</ele>
        <time>2026-08-24T13:14:16Z</time>
      </trkpt>
      <trkpt lat="49.11363" lon="4.13851">
        <ele>194.4</ele>
        <time>2026-08-24T13:14:17Z</time>
      </trkpt>
      <trkpt lat="49.11367" lon="4.13847">
        <ele>194.6</ele>
        <time>2026-08-24T13:14:18Z</time>
      </trkpt>
      <trkpt lat="49.1137" lon="4.13843">
        <ele>194.6</ele>
        <time>2026-08-24T13:14:19Z</time>
      </trkpt>
      <trkpt lat="49.11373" lon="4.1384">
        <ele>194.8</ele>
        <time>2026-08-24T13:14:20Z</time>
      </trkpt>
      <trkpt lat="49.11377" lon="4.13836">
        <ele>195</ele>
        <time>2026-08-24T13:14:21Z</time>
      </trkpt>
      <trkpt lat="49.1138" lon="4.13833">
        <ele>195.2</ele>
        <time>2026-08-24T13:14:22Z</time>
      </trkpt>
      <trkpt lat="49.11383" lon="4.13829">
        <ele>195.4</ele>
        <time>2026-08-24T13:14:23Z</time>
      </trkpt>
      <trkpt lat="49.11387" lon="4.13826">
        <ele>195.6</ele>
        <time>2026-08-24T13:14:24Z</time>
      </trkpt>
      <trkpt lat="49.11391" lon="4.13823">
        <ele>195.8</ele>
        <time>2026-08-24T13:14:25Z</time>
      </trkpt>
      <trkpt lat="49.11394" lon="4.1382">
        <ele>196</ele>
        <time>2026-08-24T13:14:26Z</time>
      </trkpt>
      <trkpt lat="49.11398" lon="4.13817">
        <ele>196.2</ele>
        <time>2026-08-24T13:14:27Z</time>
      </trkpt>
      <trkpt lat="49.11401" lon="4.13814">
        <ele>196.4</ele>
        <time>2026-08-24T13:14:28Z</time>
      </trkpt>
      <trkpt lat="49.11404" lon="4.1381">
        <ele>196.6</ele>
        <time>2026-08-24T13:14:29Z</time>
      </trkpt>
      <trkpt lat="49.11408" lon="4.13807">
        <ele>196.8</ele>
        <time>2026-08-24T13:14:30Z</time>
      </trkpt>
      <trkpt lat="49.11411" lon="4.13804">
        <ele>197</ele>
        <time>2026-08-24T13:14:31Z</time>
      </trkpt>
      <trkpt lat="49.11414" lon="4.13801">
        <ele>197.2</ele>
        <time>2026-08-24T13:14:32Z</time>
      </trkpt>
      <trkpt lat="49.11417" lon="4.13798">
        <ele>197.2</ele>
        <time>2026-08-24T13:14:33Z</time>
      </trkpt>
      <trkpt lat="49.11421" lon="4.13796">
        <ele>197.4</ele>
        <time>2026-08-24T13:14:34Z</time>
      </trkpt>
      <trkpt lat="49.11424" lon="4.13793">
        <ele>197.4</ele>
        <time>2026-08-24T13:14:35Z</time>
      </trkpt>
      <trkpt lat="49.11428" lon="4.13791">
        <ele>197.6</ele>
        <time>2026-08-24T13:14:36Z</time>
      </trkpt>
      <trkpt lat="49.11431" lon="4.13789">
        <ele>197.8</ele>
        <time>2026-08-24T13:14:37Z</time>
      </trkpt>
      <trkpt lat="49.11434" lon="4.13786">
        <ele>198</ele>
        <time>2026-08-24T13:14:38Z</time>
      </trkpt>
      <trkpt lat="49.11438" lon="4.13783">
        <ele>198.2</ele>
        <time>2026-08-24T13:14:39Z</time>
      </trkpt>
      <trkpt lat="49.11441" lon="4.13781">
        <ele>198.4</ele>
        <time>2026-08-24T13:14:40Z</time>
      </trkpt>
      <trkpt lat="49.11445" lon="4.13778">
        <ele>198.6</ele>
        <time>2026-08-24T13:14:41Z</time>
      </trkpt>
      <trkpt lat="49.11448" lon="4.13776">
        <ele>198.8</ele>
        <time>2026-08-24T13:14:42Z</time>
      </trkpt>
      <trkpt lat="49.11452" lon="4.13774">
        <ele>198.8</ele>
        <time>2026-08-24T13:14:43Z</time>
      </trkpt>
      <trkpt lat="49.11455" lon="4.13771">
        <ele>199</ele>
        <time>2026-08-24T13:14:44Z</time>
      </trkpt>
      <trkpt lat="49.11458" lon="4.13769">
        <ele>199.2</ele>
        <time>2026-08-24T13:14:45Z</time>
      </trkpt>
      <trkpt lat="49.11461" lon="4.13766">
        <ele>199.4</ele>
        <time>2026-08-24T13:14:46Z</time>
      </trkpt>
      <trkpt lat="49.11464" lon="4.13764">
        <ele>199.6</ele>
        <time>2026-08-24T13:14:47Z</time>
      </trkpt>
      <trkpt lat="49.11467" lon="4.13762">
        <ele>200</ele>
        <time>2026-08-24T13:14:48Z</time>
      </trkpt>
      <trkpt lat="49.1147" lon="4.13759">
        <ele>200.2</ele>
        <time>2026-08-24T13:14:49Z</time>
      </trkpt>
      <trkpt lat="49.11474" lon="4.13757">
        <ele>200.6</ele>
        <time>2026-08-24T13:14:50Z</time>
      </trkpt>
      <trkpt lat="49.11477" lon="4.13755">
        <ele>200.8</ele>
        <time>2026-08-24T13:14:51Z</time>
      </trkpt>
      <trkpt lat="49.1148" lon="4.13752">
        <ele>201</ele>
        <time>2026-08-24T13:14:52Z</time>
      </trkpt>
      <trkpt lat="49.11483" lon="4.13749">
        <ele>201.2</ele>
        <time>2026-08-24T13:14:53Z</time>
      </trkpt>
      <trkpt lat="49.11486" lon="4.13747">
        <ele>201.4</ele>
        <time>2026-08-24T13:14:54Z</time>
      </trkpt>
      <trkpt lat="49.11489" lon="4.13745">
        <ele>201.4</ele>
        <time>2026-08-24T13:14:55Z</time>
      </trkpt>
      <trkpt lat="49.11492" lon="4.13742">
        <ele>201.6</ele>
        <time>2026-08-24T13:14:56Z</time>
      </trkpt>
      <trkpt lat="49.11495" lon="4.1374">
        <ele>201.6</ele>
        <time>2026-08-24T13:14:57Z</time>
      </trkpt>
      <trkpt lat="49.11499" lon="4.13737">
        <ele>201.8</ele>
        <time>2026-08-24T13:14:58Z</time>
      </trkpt>
      <trkpt lat="49.11501" lon="4.13735">
        <ele>201.8</ele>
        <time>2026-08-24T13:14:59Z</time>
      </trkpt>
      <trkpt lat="49.11504" lon="4.13732">
        <ele>202</ele>
        <time>2026-08-24T13:15:00Z</time>
      </trkpt>
      <trkpt lat="49.11507" lon="4.13729">
        <ele>202</ele>
        <time>2026-08-24T13:15:01Z</time>
      </trkpt>
      <trkpt lat="49.11511" lon="4.13726">
        <ele>202.2</ele>
        <time>2026-08-24T13:15:02Z</time>
      </trkpt>
      <trkpt lat="49.11514" lon="4.13724">
        <ele>202.2</ele>
        <time>2026-08-24T13:15:03Z</time>
      </trkpt>
      <trkpt lat="49.11517" lon="4.13721">
        <ele>202.6</ele>
        <time>2026-08-24T13:15:04Z</time>
      </trkpt>
      <trkpt lat="49.1152" lon="4.13719">
        <ele>202.6</ele>
        <time>2026-08-24T13:15:05Z</time>
      </trkpt>
      <trkpt lat="49.11524" lon="4.13717">
        <ele>203</ele>
        <time>2026-08-24T13:15:06Z</time>
      </trkpt>
      <trkpt lat="49.11527" lon="4.13715">
        <ele>203.2</ele>
        <time>2026-08-24T13:15:07Z</time>
      </trkpt>
      <trkpt lat="49.1153" lon="4.13713">
        <ele>203.4</ele>
        <time>2026-08-24T13:15:08Z</time>
      </trkpt>
      <trkpt lat="49.11534" lon="4.1371">
        <ele>203.4</ele>
        <time>2026-08-24T13:15:09Z</time>
      </trkpt>
      <trkpt lat="49.11537" lon="4.13708">
        <ele>203.6</ele>
        <time>2026-08-24T13:15:10Z</time>
      </trkpt>
      <trkpt lat="49.1154" lon="4.13705">
        <ele>203.6</ele>
        <time>2026-08-24T13:15:11Z</time>
      </trkpt>
      <trkpt lat="49.11543" lon="4.13702">
        <ele>203.8</ele>
        <time>2026-08-24T13:15:12Z</time>
      </trkpt>
      <trkpt lat="49.11547" lon="4.137">
        <ele>203.8</ele>
        <time>2026-08-24T13:15:13Z</time>
      </trkpt>
      <trkpt lat="49.1155" lon="4.13697">
        <ele>204</ele>
        <time>2026-08-24T13:15:14Z</time>
      </trkpt>
      <trkpt lat="49.11553" lon="4.13694">
        <ele>204</ele>
        <time>2026-08-24T13:15:15Z</time>
      </trkpt>
      <trkpt lat="49.11556" lon="4.13692">
        <ele>204.2</ele>
        <time>2026-08-24T13:15:16Z</time>
      </trkpt>
      <trkpt lat="49.11559" lon="4.1369">
        <ele>204.2</ele>
        <time>2026-08-24T13:15:17Z</time>
      </trkpt>
      <trkpt lat="49.11562" lon="4.13687">
        <ele>204.4</ele>
        <time>2026-08-24T13:15:18Z</time>
      </trkpt>
      <trkpt lat="49.11565" lon="4.13685">
        <ele>204.6</ele>
        <time>2026-08-24T13:15:19Z</time>
      </trkpt>
      <trkpt lat="49.11568" lon="4.13682">
        <ele>204.8</ele>
        <time>2026-08-24T13:15:20Z</time>
      </trkpt>
      <trkpt lat="49.11571" lon="4.1368">
        <ele>205</ele>
        <time>2026-08-24T13:15:21Z</time>
      </trkpt>
      <trkpt lat="49.11574" lon="4.13678">
        <ele>205.2</ele>
        <time>2026-08-24T13:15:22Z</time>
      </trkpt>
      <trkpt lat="49.11577" lon="4.13676">
        <ele>205.6</ele>
        <time>2026-08-24T13:15:23Z</time>
      </trkpt>
      <trkpt lat="49.1158" lon="4.13673">
        <ele>205.8</ele>
        <time>2026-08-24T13:15:24Z</time>
      </trkpt>
      <trkpt lat="49.11583" lon="4.1367">
        <ele>206.2</ele>
        <time>2026-08-24T13:15:25Z</time>
      </trkpt>
      <trkpt lat="49.11586" lon="4.13668">
        <ele>206.4</ele>
        <time>2026-08-24T13:15:26Z</time>
      </trkpt>
      <trkpt lat="49.11589" lon="4.13666">
        <ele>206.8</ele>
        <time>2026-08-24T13:15:27Z</time>
      </trkpt>
      <trkpt lat="49.11593" lon="4.13663">
        <ele>207</ele>
        <time>2026-08-24T13:15:28Z</time>
      </trkpt>
      <trkpt lat="49.11596" lon="4.13661">
        <ele>207.2</ele>
        <time>2026-08-24T13:15:29Z</time>
      </trkpt>
      <trkpt lat="49.11599" lon="4.13659">
        <ele>207.4</ele>
        <time>2026-08-24T13:15:30Z</time>
      </trkpt>
      <trkpt lat="49.11603" lon="4.13656">
        <ele>207.6</ele>
        <time>2026-08-24T13:15:31Z</time>
      </trkpt>
      <trkpt lat="49.11606" lon="4.13653">
        <ele>208</ele>
        <time>2026-08-24T13:15:32Z</time>
      </trkpt>
      <trkpt lat="49.1161" lon="4.13651">
        <ele>208.2</ele>
        <time>2026-08-24T13:15:33Z</time>
      </trkpt>
      <trkpt lat="49.11613" lon="4.13648">
        <ele>208.4</ele>
        <time>2026-08-24T13:15:34Z</time>
      </trkpt>
      <trkpt lat="49.11617" lon="4.13645">
        <ele>208.8</ele>
        <time>2026-08-24T13:15:35Z</time>
      </trkpt>
      <trkpt lat="49.11621" lon="4.13642">
        <ele>208.8</ele>
        <time>2026-08-24T13:15:36Z</time>
      </trkpt>
      <trkpt lat="49.11624" lon="4.1364">
        <ele>208.6</ele>
        <time>2026-08-24T13:15:37Z</time>
      </trkpt>
      <trkpt lat="49.11628" lon="4.13637">
        <ele>208.8</ele>
        <time>2026-08-24T13:15:38Z</time>
      </trkpt>
      <trkpt lat="49.11631" lon="4.13635">
        <ele>209</ele>
        <time>2026-08-24T13:15:39Z</time>
      </trkpt>
      <trkpt lat="49.11635" lon="4.13632">
        <ele>209.2</ele>
        <time>2026-08-24T13:15:40Z</time>
      </trkpt>
      <trkpt lat="49.11638" lon="4.13629">
        <ele>209.4</ele>
        <time>2026-08-24T13:15:41Z</time>
      </trkpt>
      <trkpt lat="49.11642" lon="4.13627">
        <ele>209.6</ele>
        <time>2026-08-24T13:15:42Z</time>
      </trkpt>
      <trkpt lat="49.11646" lon="4.13625">
        <ele>209.6</ele>
        <time>2026-08-24T13:15:43Z</time>
      </trkpt>
      <trkpt lat="49.1165" lon="4.13622">
        <ele>209.8</ele>
        <time>2026-08-24T13:15:44Z</time>
      </trkpt>
      <trkpt lat="49.11654" lon="4.13619">
        <ele>209.8</ele>
        <time>2026-08-24T13:15:45Z</time>
      </trkpt>
      <trkpt lat="49.11658" lon="4.13617">
        <ele>209.8</ele>
        <time>2026-08-24T13:15:46Z</time>
      </trkpt>
      <trkpt lat="49.11662" lon="4.13615">
        <ele>209.8</ele>
        <time>2026-08-24T13:15:47Z</time>
      </trkpt>
      <trkpt lat="49.11665" lon="4.13613">
        <ele>210.2</ele>
        <time>2026-08-24T13:15:48Z</time>
      </trkpt>
      <trkpt lat="49.11669" lon="4.13612">
        <ele>210.2</ele>
        <time>2026-08-24T13:15:49Z</time>
      </trkpt>
      <trkpt lat="49.11673" lon="4.13611">
        <ele>210.4</ele>
        <time>2026-08-24T13:15:50Z</time>
      </trkpt>
      <trkpt lat="49.11676" lon="4.1361">
        <ele>210.6</ele>
        <time>2026-08-24T13:15:51Z</time>
      </trkpt>
      <trkpt lat="49.11679" lon="4.13609">
        <ele>210.6</ele>
        <time>2026-08-24T13:15:52Z</time>
      </trkpt>
      <trkpt lat="49.11682" lon="4.13608">
        <ele>210.4</ele>
        <time>2026-08-24T13:15:53Z</time>
      </trkpt>
      <trkpt lat="49.11686" lon="4.13608">
        <ele>210.4</ele>
        <time>2026-08-24T13:15:54Z</time>
      </trkpt>
      <trkpt lat="49.1169" lon="4.13609">
        <ele>210.4</ele>
        <time>2026-08-24T13:15:55Z</time>
      </trkpt>
      <trkpt lat="49.11694" lon="4.13609">
        <ele>210.4</ele>
        <time>2026-08-24T13:15:56Z</time>
      </trkpt>
      <trkpt lat="49.11698" lon="4.1361">
        <ele>210.4</ele>
        <time>2026-08-24T13:15:57Z</time>
      </trkpt>
      <trkpt lat="49.11703" lon="4.13611">
        <ele>210.4</ele>
        <time>2026-08-24T13:15:58Z</time>
      </trkpt>
      <trkpt lat="49.11707" lon="4.13612">
        <ele>210.2</ele>
        <time>2026-08-24T13:15:59Z</time>
      </trkpt>
      <trkpt lat="49.11712" lon="4.13613">
        <ele>210.2</ele>
        <time>2026-08-24T13:16:00Z</time>
      </trkpt>
      <trkpt lat="49.11716" lon="4.13613">
        <ele>210.2</ele>
        <time>2026-08-24T13:16:01Z</time>
      </trkpt>
      <trkpt lat="49.1172" lon="4.13614">
        <ele>210.2</ele>
        <time>2026-08-24T13:16:02Z</time>
      </trkpt>
      <trkpt lat="49.11725" lon="4.13615">
        <ele>210.2</ele>
        <time>2026-08-24T13:16:03Z</time>
      </trkpt>
      <trkpt lat="49.1173" lon="4.13616">
        <ele>210.2</ele>
        <time>2026-08-24T13:16:04Z</time>
      </trkpt>
      <trkpt lat="49.11734" lon="4.13618">
        <ele>210.2</ele>
        <time>2026-08-24T13:16:05Z</time>
      </trkpt>
      <trkpt lat="49.11739" lon="4.13619">
        <ele>210.4</ele>
        <time>2026-08-24T13:16:06Z</time>
      </trkpt>
      <trkpt lat="49.11744" lon="4.1362">
        <ele>210.4</ele>
        <time>2026-08-24T13:16:07Z</time>
      </trkpt>
      <trkpt lat="49.11749" lon="4.13621">
        <ele>210.4</ele>
        <time>2026-08-24T13:16:08Z</time>
      </trkpt>
      <trkpt lat="49.11753" lon="4.13623">
        <ele>210.6</ele>
        <time>2026-08-24T13:16:09Z</time>
      </trkpt>
      <trkpt lat="49.11758" lon="4.13624">
        <ele>210.6</ele>
        <time>2026-08-24T13:16:10Z</time>
      </trkpt>
      <trkpt lat="49.11762" lon="4.13626">
        <ele>210.8</ele>
        <time>2026-08-24T13:16:11Z</time>
      </trkpt>
      <trkpt lat="49.11767" lon="4.13628">
        <ele>210.8</ele>
        <time>2026-08-24T13:16:12Z</time>
      </trkpt>
      <trkpt lat="49.11773" lon="4.13629">
        <ele>211</ele>
        <time>2026-08-24T13:16:13Z</time>
      </trkpt>
      <trkpt lat="49.11778" lon="4.13631">
        <ele>211.2</ele>
        <time>2026-08-24T13:16:14Z</time>
      </trkpt>
      <trkpt lat="49.11783" lon="4.13633">
        <ele>211.4</ele>
        <time>2026-08-24T13:16:15Z</time>
      </trkpt>
      <trkpt lat="49.11788" lon="4.13634">
        <ele>211.4</ele>
        <time>2026-08-24T13:16:16Z</time>
      </trkpt>
      <trkpt lat="49.11793" lon="4.13636">
        <ele>211.6</ele>
        <time>2026-08-24T13:16:17Z</time>
      </trkpt>
      <trkpt lat="49.11798" lon="4.13637">
        <ele>211.6</ele>
        <time>2026-08-24T13:16:18Z</time>
      </trkpt>
      <trkpt lat="49.11803" lon="4.13639">
        <ele>211.8</ele>
        <time>2026-08-24T13:16:19Z</time>
      </trkpt>
      <trkpt lat="49.11808" lon="4.1364">
        <ele>212</ele>
        <time>2026-08-24T13:16:20Z</time>
      </trkpt>
      <trkpt lat="49.11813" lon="4.13642">
        <ele>212</ele>
        <time>2026-08-24T13:16:21Z</time>
      </trkpt>
      <trkpt lat="49.11817" lon="4.13644">
        <ele>212.2</ele>
        <time>2026-08-24T13:16:22Z</time>
      </trkpt>
      <trkpt lat="49.11822" lon="4.13645">
        <ele>212.4</ele>
        <time>2026-08-24T13:16:23Z</time>
      </trkpt>
      <trkpt lat="49.11827" lon="4.13646">
        <ele>212.4</ele>
        <time>2026-08-24T13:16:24Z</time>
      </trkpt>
      <trkpt lat="49.11832" lon="4.13648">
        <ele>212.6</ele>
        <time>2026-08-24T13:16:25Z</time>
      </trkpt>
      <trkpt lat="49.11836" lon="4.13649">
        <ele>212.6</ele>
        <time>2026-08-24T13:16:26Z</time>
      </trkpt>
      <trkpt lat="49.11841" lon="4.1365">
        <ele>212.8</ele>
        <time>2026-08-24T13:16:27Z</time>
      </trkpt>
      <trkpt lat="49.11845" lon="4.13652">
        <ele>213</ele>
        <time>2026-08-24T13:16:28Z</time>
      </trkpt>
      <trkpt lat="49.1185" lon="4.13653">
        <ele>213.2</ele>
        <time>2026-08-24T13:16:29Z</time>
      </trkpt>
      <trkpt lat="49.11854" lon="4.13654">
        <ele>213.4</ele>
        <time>2026-08-24T13:16:30Z</time>
      </trkpt>
      <trkpt lat="49.11858" lon="4.13656">
        <ele>213.4</ele>
        <time>2026-08-24T13:16:31Z</time>
      </trkpt>
      <trkpt lat="49.11863" lon="4.13657">
        <ele>213.6</ele>
        <time>2026-08-24T13:16:32Z</time>
      </trkpt>
      <trkpt lat="49.11867" lon="4.13658">
        <ele>213.8</ele>
        <time>2026-08-24T13:16:33Z</time>
      </trkpt>
      <trkpt lat="49.11871" lon="4.13659">
        <ele>213.8</ele>
        <time>2026-08-24T13:16:34Z</time>
      </trkpt>
      <trkpt lat="49.11875" lon="4.1366">
        <ele>214</ele>
        <time>2026-08-24T13:16:35Z</time>
      </trkpt>
      <trkpt lat="49.11879" lon="4.13661">
        <ele>214.2</ele>
        <time>2026-08-24T13:16:36Z</time>
      </trkpt>
      <trkpt lat="49.11883" lon="4.13663">
        <ele>214.4</ele>
        <time>2026-08-24T13:16:37Z</time>
      </trkpt>
      <trkpt lat="49.11887" lon="4.13664">
        <ele>214.6</ele>
        <time>2026-08-24T13:16:38Z</time>
      </trkpt>
      <trkpt lat="49.11891" lon="4.13665">
        <ele>214.6</ele>
        <time>2026-08-24T13:16:39Z</time>
      </trkpt>
      <trkpt lat="49.11895" lon="4.13666">
        <ele>215</ele>
        <time>2026-08-24T13:16:40Z</time>
      </trkpt>
      <trkpt lat="49.11899" lon="4.13668">
        <ele>215.2</ele>
        <time>2026-08-24T13:16:41Z</time>
      </trkpt>
      <trkpt lat="49.11903" lon="4.13669">
        <ele>215.4</ele>
        <time>2026-08-24T13:16:42Z</time>
      </trkpt>
      <trkpt lat="49.11906" lon="4.13671">
        <ele>215.6</ele>
        <time>2026-08-24T13:16:43Z</time>
      </trkpt>
      <trkpt lat="49.1191" lon="4.13672">
        <ele>215.8</ele>
        <time>2026-08-24T13:16:44Z</time>
      </trkpt>
      <trkpt lat="49.11914" lon="4.13673">
        <ele>216</ele>
        <time>2026-08-24T13:16:45Z</time>
      </trkpt>
      <trkpt lat="49.11918" lon="4.13674">
        <ele>216</ele>
        <time>2026-08-24T13:16:46Z</time>
      </trkpt>
      <trkpt lat="49.11921" lon="4.13676">
        <ele>216.2</ele>
        <time>2026-08-24T13:16:47Z</time>
      </trkpt>
      <trkpt lat="49.11925" lon="4.13677">
        <ele>216.4</ele>
        <time>2026-08-24T13:16:48Z</time>
      </trkpt>
      <trkpt lat="49.11929" lon="4.13678">
        <ele>216.4</ele>
        <time>2026-08-24T13:16:49Z</time>
      </trkpt>
      <trkpt lat="49.11932" lon="4.13679">
        <ele>216.6</ele>
        <time>2026-08-24T13:16:50Z</time>
      </trkpt>
      <trkpt lat="49.11936" lon="4.1368">
        <ele>216.8</ele>
        <time>2026-08-24T13:16:51Z</time>
      </trkpt>
      <trkpt lat="49.1194" lon="4.13681">
        <ele>217</ele>
        <time>2026-08-24T13:16:52Z</time>
      </trkpt>
      <trkpt lat="49.11943" lon="4.13683">
        <ele>217</ele>
        <time>2026-08-24T13:16:53Z</time>
      </trkpt>
      <trkpt lat="49.11947" lon="4.13685">
        <ele>217</ele>
        <time>2026-08-24T13:16:54Z</time>
      </trkpt>
      <trkpt lat="49.1195" lon="4.13686">
        <ele>217.2</ele>
        <time>2026-08-24T13:16:55Z</time>
      </trkpt>
      <trkpt lat="49.11954" lon="4.13688">
        <ele>217.2</ele>
        <time>2026-08-24T13:16:56Z</time>
      </trkpt>
      <trkpt lat="49.11957" lon="4.13689">
        <ele>217.4</ele>
        <time>2026-08-24T13:16:57Z</time>
      </trkpt>
      <trkpt lat="49.11961" lon="4.13691">
        <ele>217.6</ele>
        <time>2026-08-24T13:16:58Z</time>
      </trkpt>
      <trkpt lat="49.11964" lon="4.13692">
        <ele>217.6</ele>
        <time>2026-08-24T13:16:59Z</time>
      </trkpt>
      <trkpt lat="49.11968" lon="4.13694">
        <ele>217.8</ele>
        <time>2026-08-24T13:17:00Z</time>
      </trkpt>
      <trkpt lat="49.11971" lon="4.13696">
        <ele>218.2</ele>
        <time>2026-08-24T13:17:01Z</time>
      </trkpt>
      <trkpt lat="49.11974" lon="4.13697">
        <ele>218.4</ele>
        <time>2026-08-24T13:17:02Z</time>
      </trkpt>
      <trkpt lat="49.11977" lon="4.13699">
        <ele>218.6</ele>
        <time>2026-08-24T13:17:03Z</time>
      </trkpt>
      <trkpt lat="49.1198" lon="4.137">
        <ele>218.8</ele>
        <time>2026-08-24T13:17:04Z</time>
      </trkpt>
      <trkpt lat="49.11984" lon="4.13702">
        <ele>219</ele>
        <time>2026-08-24T13:17:05Z</time>
      </trkpt>
      <trkpt lat="49.11987" lon="4.13704">
        <ele>219.2</ele>
        <time>2026-08-24T13:17:06Z</time>
      </trkpt>
      <trkpt lat="49.1199" lon="4.13706">
        <ele>219.4</ele>
        <time>2026-08-24T13:17:07Z</time>
      </trkpt>
      <trkpt lat="49.11993" lon="4.13709">
        <ele>219.6</ele>
        <time>2026-08-24T13:17:08Z</time>
      </trkpt>
      <trkpt lat="49.11996" lon="4.13711">
        <ele>219.8</ele>
        <time>2026-08-24T13:17:09Z</time>
      </trkpt>
      <trkpt lat="49.11999" lon="4.13713">
        <ele>220</ele>
        <time>2026-08-24T13:17:10Z</time>
      </trkpt>
      <trkpt lat="49.12002" lon="4.13715">
        <ele>220.4</ele>
        <time>2026-08-24T13:17:11Z</time>
      </trkpt>
      <trkpt lat="49.12005" lon="4.13718">
        <ele>220.6</ele>
        <time>2026-08-24T13:17:12Z</time>
      </trkpt>
      <trkpt lat="49.12009" lon="4.1372">
        <ele>220.8</ele>
        <time>2026-08-24T13:17:13Z</time>
      </trkpt>
      <trkpt lat="49.12012" lon="4.13723">
        <ele>221</ele>
        <time>2026-08-24T13:17:14Z</time>
      </trkpt>
      <trkpt lat="49.12015" lon="4.13725">
        <ele>221.4</ele>
        <time>2026-08-24T13:17:15Z</time>
      </trkpt>
      <trkpt lat="49.12019" lon="4.13728">
        <ele>221.4</ele>
        <time>2026-08-24T13:17:16Z</time>
      </trkpt>
      <trkpt lat="49.12022" lon="4.13731">
        <ele>221.6</ele>
        <time>2026-08-24T13:17:17Z</time>
      </trkpt>
      <trkpt lat="49.12025" lon="4.13734">
        <ele>221.8</ele>
        <time>2026-08-24T13:17:18Z</time>
      </trkpt>
      <trkpt lat="49.12029" lon="4.13736">
        <ele>221.8</ele>
        <time>2026-08-24T13:17:19Z</time>
      </trkpt>
      <trkpt lat="49.12032" lon="4.13739">
        <ele>222</ele>
        <time>2026-08-24T13:17:20Z</time>
      </trkpt>
      <trkpt lat="49.12036" lon="4.13742">
        <ele>222.2</ele>
        <time>2026-08-24T13:17:21Z</time>
      </trkpt>
      <trkpt lat="49.12039" lon="4.13745">
        <ele>222.2</ele>
        <time>2026-08-24T13:17:22Z</time>
      </trkpt>
      <trkpt lat="49.12043" lon="4.13748">
        <ele>222.2</ele>
        <time>2026-08-24T13:17:23Z</time>
      </trkpt>
      <trkpt lat="49.12046" lon="4.13751">
        <ele>222.4</ele>
        <time>2026-08-24T13:17:24Z</time>
      </trkpt>
      <trkpt lat="49.12049" lon="4.13754">
        <ele>222.4</ele>
        <time>2026-08-24T13:17:25Z</time>
      </trkpt>
      <trkpt lat="49.12053" lon="4.13757">
        <ele>222.6</ele>
        <time>2026-08-24T13:17:26Z</time>
      </trkpt>
      <trkpt lat="49.12056" lon="4.13761">
        <ele>222.8</ele>
        <time>2026-08-24T13:17:27Z</time>
      </trkpt>
      <trkpt lat="49.12059" lon="4.13764">
        <ele>223</ele>
        <time>2026-08-24T13:17:28Z</time>
      </trkpt>
      <trkpt lat="49.12063" lon="4.13767">
        <ele>223.4</ele>
        <time>2026-08-24T13:17:29Z</time>
      </trkpt>
      <trkpt lat="49.12066" lon="4.1377">
        <ele>223.6</ele>
        <time>2026-08-24T13:17:30Z</time>
      </trkpt>
      <trkpt lat="49.12069" lon="4.13773">
        <ele>223.8</ele>
        <time>2026-08-24T13:17:31Z</time>
      </trkpt>
      <trkpt lat="49.12071" lon="4.13776">
        <ele>224</ele>
        <time>2026-08-24T13:17:32Z</time>
      </trkpt>
      <trkpt lat="49.12074" lon="4.13779">
        <ele>224.4</ele>
        <time>2026-08-24T13:17:33Z</time>
      </trkpt>
      <trkpt lat="49.12078" lon="4.13783">
        <ele>224.4</ele>
        <time>2026-08-24T13:17:34Z</time>
      </trkpt>
      <trkpt lat="49.12082" lon="4.13786">
        <ele>224.6</ele>
        <time>2026-08-24T13:17:35Z</time>
      </trkpt>
      <trkpt lat="49.12085" lon="4.1379">
        <ele>225</ele>
        <time>2026-08-24T13:17:36Z</time>
      </trkpt>
      <trkpt lat="49.12089" lon="4.13794">
        <ele>225</ele>
        <time>2026-08-24T13:17:37Z</time>
      </trkpt>
      <trkpt lat="49.12092" lon="4.13797">
        <ele>225.2</ele>
        <time>2026-08-24T13:17:38Z</time>
      </trkpt>
      <trkpt lat="49.12095" lon="4.138">
        <ele>225.4</ele>
        <time>2026-08-24T13:17:39Z</time>
      </trkpt>
      <trkpt lat="49.12098" lon="4.13804">
        <ele>225.6</ele>
        <time>2026-08-24T13:17:40Z</time>
      </trkpt>
      <trkpt lat="49.12102" lon="4.13807">
        <ele>225.8</ele>
        <time>2026-08-24T13:17:41Z</time>
      </trkpt>
      <trkpt lat="49.12105" lon="4.1381">
        <ele>226</ele>
        <time>2026-08-24T13:17:42Z</time>
      </trkpt>
      <trkpt lat="49.12108" lon="4.13813">
        <ele>226.2</ele>
        <time>2026-08-24T13:17:43Z</time>
      </trkpt>
      <trkpt lat="49.12111" lon="4.13816">
        <ele>226.2</ele>
        <time>2026-08-24T13:17:44Z</time>
      </trkpt>
      <trkpt lat="49.12114" lon="4.13819">
        <ele>226.4</ele>
        <time>2026-08-24T13:17:45Z</time>
      </trkpt>
      <trkpt lat="49.12118" lon="4.13822">
        <ele>226.6</ele>
        <time>2026-08-24T13:17:46Z</time>
      </trkpt>
      <trkpt lat="49.12121" lon="4.13826">
        <ele>226.8</ele>
        <time>2026-08-24T13:17:47Z</time>
      </trkpt>
      <trkpt lat="49.12124" lon="4.13829">
        <ele>226.8</ele>
        <time>2026-08-24T13:17:48Z</time>
      </trkpt>
      <trkpt lat="49.12127" lon="4.13832">
        <ele>227</ele>
        <time>2026-08-24T13:17:49Z</time>
      </trkpt>
      <trkpt lat="49.1213" lon="4.13835">
        <ele>227.2</ele>
        <time>2026-08-24T13:17:50Z</time>
      </trkpt>
      <trkpt lat="49.12133" lon="4.13838">
        <ele>227.4</ele>
        <time>2026-08-24T13:17:51Z</time>
      </trkpt>
      <trkpt lat="49.12136" lon="4.13841">
        <ele>227.6</ele>
        <time>2026-08-24T13:17:52Z</time>
      </trkpt>
      <trkpt lat="49.12139" lon="4.13844">
        <ele>227.8</ele>
        <time>2026-08-24T13:17:53Z</time>
      </trkpt>
      <trkpt lat="49.12141" lon="4.13846">
        <ele>228</ele>
        <time>2026-08-24T13:17:54Z</time>
      </trkpt>
      <trkpt lat="49.12144" lon="4.1385">
        <ele>228</ele>
        <time>2026-08-24T13:17:55Z</time>
      </trkpt>
      <trkpt lat="49.12147" lon="4.13853">
        <ele>228.2</ele>
        <time>2026-08-24T13:17:56Z</time>
      </trkpt>
      <trkpt lat="49.1215" lon="4.13856">
        <ele>228.4</ele>
        <time>2026-08-24T13:17:57Z</time>
      </trkpt>
      <trkpt lat="49.12152" lon="4.13859">
        <ele>228.8</ele>
        <time>2026-08-24T13:17:58Z</time>
      </trkpt>
      <trkpt lat="49.12155" lon="4.13862">
        <ele>229</ele>
        <time>2026-08-24T13:17:59Z</time>
      </trkpt>
      <trkpt lat="49.12158" lon="4.13864">
        <ele>229.2</ele>
        <time>2026-08-24T13:18:00Z</time>
      </trkpt>
      <trkpt lat="49.12161" lon="4.13867">
        <ele>229.4</ele>
        <time>2026-08-24T13:18:01Z</time>
      </trkpt>
      <trkpt lat="49.12163" lon="4.1387">
        <ele>229.6</ele>
        <time>2026-08-24T13:18:02Z</time>
      </trkpt>
      <trkpt lat="49.12166" lon="4.13873">
        <ele>229.8</ele>
        <time>2026-08-24T13:18:03Z</time>
      </trkpt>
      <trkpt lat="49.12169" lon="4.13875">
        <ele>229.8</ele>
        <time>2026-08-24T13:18:04Z</time>
      </trkpt>
      <trkpt lat="49.12171" lon="4.13878">
        <ele>230</ele>
        <time>2026-08-24T13:18:05Z</time>
      </trkpt>
      <trkpt lat="49.12174" lon="4.13881">
        <ele>230.2</ele>
        <time>2026-08-24T13:18:06Z</time>
      </trkpt>
      <trkpt lat="49.12177" lon="4.13884">
        <ele>230.4</ele>
        <time>2026-08-24T13:18:07Z</time>
      </trkpt>
      <trkpt lat="49.12179" lon="4.13887">
        <ele>230.4</ele>
        <time>2026-08-24T13:18:08Z</time>
      </trkpt>
      <trkpt lat="49.12182" lon="4.1389">
        <ele>230.6</ele>
        <time>2026-08-24T13:18:09Z</time>
      </trkpt>
      <trkpt lat="49.12185" lon="4.13892">
        <ele>230.8</ele>
        <time>2026-08-24T13:18:10Z</time>
      </trkpt>
      <trkpt lat="49.12188" lon="4.13895">
        <ele>231</ele>
        <time>2026-08-24T13:18:11Z</time>
      </trkpt>
      <trkpt lat="49.12191" lon="4.13898">
        <ele>231.2</ele>
        <time>2026-08-24T13:18:12Z</time>
      </trkpt>
      <trkpt lat="49.12193" lon="4.13901">
        <ele>231.6</ele>
        <time>2026-08-24T13:18:13Z</time>
      </trkpt>
      <trkpt lat="49.12196" lon="4.13903">
        <ele>231.8</ele>
        <time>2026-08-24T13:18:14Z</time>
      </trkpt>
      <trkpt lat="49.12199" lon="4.13906">
        <ele>232</ele>
        <time>2026-08-24T13:18:15Z</time>
      </trkpt>
      <trkpt lat="49.12201" lon="4.13909">
        <ele>232.2</ele>
        <time>2026-08-24T13:18:16Z</time>
      </trkpt>
      <trkpt lat="49.12204" lon="4.13912">
        <ele>232.4</ele>
        <time>2026-08-24T13:18:17Z</time>
      </trkpt>
      <trkpt lat="49.12207" lon="4.13915">
        <ele>232.6</ele>
        <time>2026-08-24T13:18:18Z</time>
      </trkpt>
      <trkpt lat="49.1221" lon="4.13918">
        <ele>232.8</ele>
        <time>2026-08-24T13:18:19Z</time>
      </trkpt>
      <trkpt lat="49.12212" lon="4.1392">
        <ele>233</ele>
        <time>2026-08-24T13:18:20Z</time>
      </trkpt>
      <trkpt lat="49.12215" lon="4.13923">
        <ele>233.2</ele>
        <time>2026-08-24T13:18:21Z</time>
      </trkpt>
      <trkpt lat="49.12217" lon="4.13925">
        <ele>233.6</ele>
        <time>2026-08-24T13:18:22Z</time>
      </trkpt>
      <trkpt lat="49.1222" lon="4.13929">
        <ele>233.8</ele>
        <time>2026-08-24T13:18:23Z</time>
      </trkpt>
      <trkpt lat="49.12223" lon="4.13932">
        <ele>234</ele>
        <time>2026-08-24T13:18:24Z</time>
      </trkpt>
      <trkpt lat="49.12225" lon="4.13934">
        <ele>234.2</ele>
        <time>2026-08-24T13:18:25Z</time>
      </trkpt>
      <trkpt lat="49.12228" lon="4.13937">
        <ele>234.4</ele>
        <time>2026-08-24T13:18:26Z</time>
      </trkpt>
      <trkpt lat="49.12231" lon="4.13939">
        <ele>234.6</ele>
        <time>2026-08-24T13:18:27Z</time>
      </trkpt>
      <trkpt lat="49.12234" lon="4.13942">
        <ele>234.8</ele>
        <time>2026-08-24T13:18:28Z</time>
      </trkpt>
      <trkpt lat="49.12237" lon="4.13945">
        <ele>235</ele>
        <time>2026-08-24T13:18:29Z</time>
      </trkpt>
      <trkpt lat="49.12239" lon="4.13948">
        <ele>235.2</ele>
        <time>2026-08-24T13:18:30Z</time>
      </trkpt>
      <trkpt lat="49.12242" lon="4.13951">
        <ele>235.6</ele>
        <time>2026-08-24T13:18:31Z</time>
      </trkpt>
      <trkpt lat="49.12244" lon="4.13954">
        <ele>235.8</ele>
        <time>2026-08-24T13:18:32Z</time>
      </trkpt>
      <trkpt lat="49.12247" lon="4.13956">
        <ele>236</ele>
        <time>2026-08-24T13:18:33Z</time>
      </trkpt>
      <trkpt lat="49.1225" lon="4.13959">
        <ele>236.2</ele>
        <time>2026-08-24T13:18:34Z</time>
      </trkpt>
      <trkpt lat="49.12252" lon="4.13962">
        <ele>236.4</ele>
        <time>2026-08-24T13:18:35Z</time>
      </trkpt>
      <trkpt lat="49.12255" lon="4.13964">
        <ele>236.8</ele>
        <time>2026-08-24T13:18:36Z</time>
      </trkpt>
      <trkpt lat="49.12257" lon="4.13966">
        <ele>237</ele>
        <time>2026-08-24T13:18:37Z</time>
      </trkpt>
      <trkpt lat="49.1226" lon="4.13968">
        <ele>237.2</ele>
        <time>2026-08-24T13:18:38Z</time>
      </trkpt>
      <trkpt lat="49.12262" lon="4.1397">
        <ele>237.4</ele>
        <time>2026-08-24T13:18:39Z</time>
      </trkpt>
      <trkpt lat="49.12265" lon="4.13972">
        <ele>237.8</ele>
        <time>2026-08-24T13:18:40Z</time>
      </trkpt>
      <trkpt lat="49.12268" lon="4.13975">
        <ele>238</ele>
        <time>2026-08-24T13:18:41Z</time>
      </trkpt>
      <trkpt lat="49.12271" lon="4.13977">
        <ele>238.2</ele>
        <time>2026-08-24T13:18:42Z</time>
      </trkpt>
      <trkpt lat="49.12274" lon="4.13979">
        <ele>238.4</ele>
        <time>2026-08-24T13:18:43Z</time>
      </trkpt>
      <trkpt lat="49.12277" lon="4.13982">
        <ele>238.4</ele>
        <time>2026-08-24T13:18:44Z</time>
      </trkpt>
      <trkpt lat="49.12279" lon="4.13985">
        <ele>238.6</ele>
        <time>2026-08-24T13:18:45Z</time>
      </trkpt>
      <trkpt lat="49.12282" lon="4.13988">
        <ele>238.8</ele>
        <time>2026-08-24T13:18:46Z</time>
      </trkpt>
      <trkpt lat="49.12285" lon="4.13992">
        <ele>239</ele>
        <time>2026-08-24T13:18:47Z</time>
      </trkpt>
      <trkpt lat="49.12288" lon="4.13996">
        <ele>239.2</ele>
        <time>2026-08-24T13:18:48Z</time>
      </trkpt>
      <trkpt lat="49.12291" lon="4.14">
        <ele>239.4</ele>
        <time>2026-08-24T13:18:49Z</time>
      </trkpt>
      <trkpt lat="49.12293" lon="4.14003">
        <ele>239.6</ele>
        <time>2026-08-24T13:18:50Z</time>
      </trkpt>
      <trkpt lat="49.12296" lon="4.14006">
        <ele>239.8</ele>
        <time>2026-08-24T13:18:51Z</time>
      </trkpt>
      <trkpt lat="49.12299" lon="4.1401">
        <ele>240</ele>
        <time>2026-08-24T13:18:52Z</time>
      </trkpt>
      <trkpt lat="49.12302" lon="4.14013">
        <ele>240.4</ele>
        <time>2026-08-24T13:18:53Z</time>
      </trkpt>
      <trkpt lat="49.12305" lon="4.14016">
        <ele>240.4</ele>
        <time>2026-08-24T13:18:54Z</time>
      </trkpt>
      <trkpt lat="49.12308" lon="4.14019">
        <ele>240.6</ele>
        <time>2026-08-24T13:18:55Z</time>
      </trkpt>
      <trkpt lat="49.1231" lon="4.14022">
        <ele>240.8</ele>
        <time>2026-08-24T13:18:56Z</time>
      </trkpt>
      <trkpt lat="49.12313" lon="4.14025">
        <ele>241</ele>
        <time>2026-08-24T13:18:57Z</time>
      </trkpt>
      <trkpt lat="49.12315" lon="4.14027">
        <ele>241</ele>
        <time>2026-08-24T13:18:58Z</time>
      </trkpt>
      <trkpt lat="49.12318" lon="4.1403">
        <ele>241.4</ele>
        <time>2026-08-24T13:18:59Z</time>
      </trkpt>
      <trkpt lat="49.12321" lon="4.14032">
        <ele>241.6</ele>
        <time>2026-08-24T13:19:00Z</time>
      </trkpt>
      <trkpt lat="49.12323" lon="4.14034">
        <ele>241.8</ele>
        <time>2026-08-24T13:19:01Z</time>
      </trkpt>
      <trkpt lat="49.12326" lon="4.14037">
        <ele>242</ele>
        <time>2026-08-24T13:19:02Z</time>
      </trkpt>
      <trkpt lat="49.12328" lon="4.14038">
        <ele>242.2</ele>
        <time>2026-08-24T13:19:03Z</time>
      </trkpt>
      <trkpt lat="49.1233" lon="4.1404">
        <ele>242.4</ele>
        <time>2026-08-24T13:19:04Z</time>
      </trkpt>
      <trkpt lat="49.12332" lon="4.14042">
        <ele>242.6</ele>
        <time>2026-08-24T13:19:05Z</time>
      </trkpt>
      <trkpt lat="49.12334" lon="4.14044">
        <ele>242.8</ele>
        <time>2026-08-24T13:19:06Z</time>
      </trkpt>
      <trkpt lat="49.12337" lon="4.14047">
        <ele>243.2</ele>
        <time>2026-08-24T13:19:07Z</time>
      </trkpt>
      <trkpt lat="49.12339" lon="4.14049">
        <ele>243.2</ele>
        <time>2026-08-24T13:19:08Z</time>
      </trkpt>
      <trkpt lat="49.12341" lon="4.14052">
        <ele>243.4</ele>
        <time>2026-08-24T13:19:09Z</time>
      </trkpt>
      <trkpt lat="49.12343" lon="4.14054">
        <ele>243.6</ele>
        <time>2026-08-24T13:19:10Z</time>
      </trkpt>
      <trkpt lat="49.12346" lon="4.14057">
        <ele>243.8</ele>
        <time>2026-08-24T13:19:11Z</time>
      </trkpt>
      <trkpt lat="49.12348" lon="4.14059">
        <ele>244</ele>
        <time>2026-08-24T13:19:12Z</time>
      </trkpt>
      <trkpt lat="49.1235" lon="4.14062">
        <ele>244.2</ele>
        <time>2026-08-24T13:19:13Z</time>
      </trkpt>
      <trkpt lat="49.12353" lon="4.14064">
        <ele>244.2</ele>
        <time>2026-08-24T13:19:14Z</time>
      </trkpt>
      <trkpt lat="49.12355" lon="4.14066">
        <ele>244.4</ele>
        <time>2026-08-24T13:19:15Z</time>
      </trkpt>
      <trkpt lat="49.12358" lon="4.14069">
        <ele>244.6</ele>
        <time>2026-08-24T13:19:16Z</time>
      </trkpt>
      <trkpt lat="49.1236" lon="4.14071">
        <ele>244.8</ele>
        <time>2026-08-24T13:19:17Z</time>
      </trkpt>
      <trkpt lat="49.12362" lon="4.14074">
        <ele>245</ele>
        <time>2026-08-24T13:19:18Z</time>
      </trkpt>
      <trkpt lat="49.12365" lon="4.14076">
        <ele>245.2</ele>
        <time>2026-08-24T13:19:19Z</time>
      </trkpt>
      <trkpt lat="49.12367" lon="4.14078">
        <ele>245.4</ele>
        <time>2026-08-24T13:19:20Z</time>
      </trkpt>
      <trkpt lat="49.1237" lon="4.14081">
        <ele>245.6</ele>
        <time>2026-08-24T13:19:21Z</time>
      </trkpt>
      <trkpt lat="49.12372" lon="4.14084">
        <ele>245.8</ele>
        <time>2026-08-24T13:19:22Z</time>
      </trkpt>
      <trkpt lat="49.12375" lon="4.14087">
        <ele>246</ele>
        <time>2026-08-24T13:19:23Z</time>
      </trkpt>
      <trkpt lat="49.12377" lon="4.14089">
        <ele>246.2</ele>
        <time>2026-08-24T13:19:24Z</time>
      </trkpt>
      <trkpt lat="49.12379" lon="4.14092">
        <ele>246.4</ele>
        <time>2026-08-24T13:19:25Z</time>
      </trkpt>
      <trkpt lat="49.12381" lon="4.14095">
        <ele>246.6</ele>
        <time>2026-08-24T13:19:26Z</time>
      </trkpt>
      <trkpt lat="49.12383" lon="4.14097">
        <ele>247</ele>
        <time>2026-08-24T13:19:27Z</time>
      </trkpt>
      <trkpt lat="49.12386" lon="4.14099">
        <ele>247.2</ele>
        <time>2026-08-24T13:19:28Z</time>
      </trkpt>
      <trkpt lat="49.12389" lon="4.14101">
        <ele>247.4</ele>
        <time>2026-08-24T13:19:29Z</time>
      </trkpt>
      <trkpt lat="49.12391" lon="4.14103">
        <ele>247.6</ele>
        <time>2026-08-24T13:19:30Z</time>
      </trkpt>
      <trkpt lat="49.12393" lon="4.14105">
        <ele>247.8</ele>
        <time>2026-08-24T13:19:31Z</time>
      </trkpt>
      <trkpt lat="49.12395" lon="4.14107">
        <ele>248</ele>
        <time>2026-08-24T13:19:32Z</time>
      </trkpt>
      <trkpt lat="49.12397" lon="4.14108">
        <ele>248.2</ele>
        <time>2026-08-24T13:19:33Z</time>
      </trkpt>
      <trkpt lat="49.12399" lon="4.1411">
        <ele>248.4</ele>
        <time>2026-08-24T13:19:34Z</time>
      </trkpt>
      <trkpt lat="49.12401" lon="4.14112">
        <ele>248.4</ele>
        <time>2026-08-24T13:19:35Z</time>
      </trkpt>
      <trkpt lat="49.12404" lon="4.14115">
        <ele>248.6</ele>
        <time>2026-08-24T13:19:36Z</time>
      </trkpt>
      <trkpt lat="49.12406" lon="4.14117">
        <ele>249</ele>
        <time>2026-08-24T13:19:37Z</time>
      </trkpt>
      <trkpt lat="49.12408" lon="4.1412">
        <ele>249.2</ele>
        <time>2026-08-24T13:19:38Z</time>
      </trkpt>
      <trkpt lat="49.12411" lon="4.14123">
        <ele>249.4</ele>
        <time>2026-08-24T13:19:39Z</time>
      </trkpt>
      <trkpt lat="49.12413" lon="4.14126">
        <ele>249.8</ele>
        <time>2026-08-24T13:19:40Z</time>
      </trkpt>
      <trkpt lat="49.12415" lon="4.14128">
        <ele>250</ele>
        <time>2026-08-24T13:19:41Z</time>
      </trkpt>
      <trkpt lat="49.12417" lon="4.14131">
        <ele>250.2</ele>
        <time>2026-08-24T13:19:42Z</time>
      </trkpt>
      <trkpt lat="49.12419" lon="4.14133">
        <ele>250.4</ele>
        <time>2026-08-24T13:19:43Z</time>
      </trkpt>
      <trkpt lat="49.12421" lon="4.14135">
        <ele>250.6</ele>
        <time>2026-08-24T13:19:44Z</time>
      </trkpt>
      <trkpt lat="49.12423" lon="4.14138">
        <ele>250.6</ele>
        <time>2026-08-24T13:19:45Z</time>
      </trkpt>
      <trkpt lat="49.12426" lon="4.14141">
        <ele>250.8</ele>
        <time>2026-08-24T13:19:46Z</time>
      </trkpt>
      <trkpt lat="49.12429" lon="4.14144">
        <ele>251.2</ele>
        <time>2026-08-24T13:19:47Z</time>
      </trkpt>
      <trkpt lat="49.12432" lon="4.14147">
        <ele>251.4</ele>
        <time>2026-08-24T13:19:48Z</time>
      </trkpt>
      <trkpt lat="49.12435" lon="4.14149">
        <ele>251.4</ele>
        <time>2026-08-24T13:19:49Z</time>
      </trkpt>
      <trkpt lat="49.12437" lon="4.14152">
        <ele>251.6</ele>
        <time>2026-08-24T13:19:50Z</time>
      </trkpt>
      <trkpt lat="49.1244" lon="4.14155">
        <ele>251.8</ele>
        <time>2026-08-24T13:19:51Z</time>
      </trkpt>
      <trkpt lat="49.12443" lon="4.14158">
        <ele>251.8</ele>
        <time>2026-08-24T13:19:52Z</time>
      </trkpt>
      <trkpt lat="49.12445" lon="4.1416">
        <ele>252</ele>
        <time>2026-08-24T13:19:53Z</time>
      </trkpt>
      <trkpt lat="49.12447" lon="4.14162">
        <ele>252.2</ele>
        <time>2026-08-24T13:19:54Z</time>
      </trkpt>
      <trkpt lat="49.12449" lon="4.14164">
        <ele>252.4</ele>
        <time>2026-08-24T13:19:55Z</time>
      </trkpt>
      <trkpt lat="49.12451" lon="4.14167">
        <ele>252.6</ele>
        <time>2026-08-24T13:19:56Z</time>
      </trkpt>
      <trkpt lat="49.12454" lon="4.1417">
        <ele>252.8</ele>
        <time>2026-08-24T13:19:57Z</time>
      </trkpt>
      <trkpt lat="49.12456" lon="4.14173">
        <ele>253</ele>
        <time>2026-08-24T13:19:58Z</time>
      </trkpt>
      <trkpt lat="49.12459" lon="4.14176">
        <ele>253.2</ele>
        <time>2026-08-24T13:19:59Z</time>
      </trkpt>
      <trkpt lat="49.12463" lon="4.14179">
        <ele>253.4</ele>
        <time>2026-08-24T13:20:00Z</time>
      </trkpt>
      <trkpt lat="49.12466" lon="4.14182">
        <ele>253.6</ele>
        <time>2026-08-24T13:20:01Z</time>
      </trkpt>
      <trkpt lat="49.12468" lon="4.14184">
        <ele>253.8</ele>
        <time>2026-08-24T13:20:02Z</time>
      </trkpt>
      <trkpt lat="49.1247" lon="4.14186">
        <ele>254</ele>
        <time>2026-08-24T13:20:03Z</time>
      </trkpt>
      <trkpt lat="49.12472" lon="4.14189">
        <ele>254.2</ele>
        <time>2026-08-24T13:20:04Z</time>
      </trkpt>
      <trkpt lat="49.12475" lon="4.14192">
        <ele>254.6</ele>
        <time>2026-08-24T13:20:05Z</time>
      </trkpt>
      <trkpt lat="49.12477" lon="4.14195">
        <ele>254.8</ele>
        <time>2026-08-24T13:20:06Z</time>
      </trkpt>
      <trkpt lat="49.12479" lon="4.14197">
        <ele>254.8</ele>
        <time>2026-08-24T13:20:07Z</time>
      </trkpt>
      <trkpt lat="49.12481" lon="4.14199">
        <ele>255.2</ele>
        <time>2026-08-24T13:20:08Z</time>
      </trkpt>
      <trkpt lat="49.12483" lon="4.14201">
        <ele>255.4</ele>
        <time>2026-08-24T13:20:09Z</time>
      </trkpt>
      <trkpt lat="49.12485" lon="4.14202">
        <ele>255.6</ele>
        <time>2026-08-24T13:20:10Z</time>
      </trkpt>
      <trkpt lat="49.12487" lon="4.14204">
        <ele>255.6</ele>
        <time>2026-08-24T13:20:11Z</time>
      </trkpt>
      <trkpt lat="49.1249" lon="4.14206">
        <ele>256</ele>
        <time>2026-08-24T13:20:12Z</time>
      </trkpt>
      <trkpt lat="49.12492" lon="4.14207">
        <ele>256.2</ele>
        <time>2026-08-24T13:20:13Z</time>
      </trkpt>
      <trkpt lat="49.12494" lon="4.14209">
        <ele>256.4</ele>
        <time>2026-08-24T13:20:14Z</time>
      </trkpt>
      <trkpt lat="49.12496" lon="4.14211">
        <ele>256.6</ele>
        <time>2026-08-24T13:20:15Z</time>
      </trkpt>
      <trkpt lat="49.12498" lon="4.14213">
        <ele>256.8</ele>
        <time>2026-08-24T13:20:16Z</time>
      </trkpt>
      <trkpt lat="49.125" lon="4.14215">
        <ele>257</ele>
        <time>2026-08-24T13:20:17Z</time>
      </trkpt>
      <trkpt lat="49.12502" lon="4.14217">
        <ele>257.2</ele>
        <time>2026-08-24T13:20:18Z</time>
      </trkpt>
      <trkpt lat="49.12505" lon="4.14219">
        <ele>257.4</ele>
        <time>2026-08-24T13:20:19Z</time>
      </trkpt>
      <trkpt lat="49.12507" lon="4.14221">
        <ele>257.8</ele>
        <time>2026-08-24T13:20:20Z</time>
      </trkpt>
      <trkpt lat="49.12509" lon="4.14223">
        <ele>258</ele>
        <time>2026-08-24T13:20:21Z</time>
      </trkpt>
      <trkpt lat="49.12511" lon="4.14226">
        <ele>258.2</ele>
        <time>2026-08-24T13:20:22Z</time>
      </trkpt>
      <trkpt lat="49.12513" lon="4.14228">
        <ele>258.6</ele>
        <time>2026-08-24T13:20:23Z</time>
      </trkpt>
      <trkpt lat="49.12516" lon="4.14231">
        <ele>258.8</ele>
        <time>2026-08-24T13:20:24Z</time>
      </trkpt>
      <trkpt lat="49.12519" lon="4.14234">
        <ele>259</ele>
        <time>2026-08-24T13:20:25Z</time>
      </trkpt>
      <trkpt lat="49.12521" lon="4.14236">
        <ele>259.2</ele>
        <time>2026-08-24T13:20:26Z</time>
      </trkpt>
      <trkpt lat="49.12524" lon="4.14239">
        <ele>259.4</ele>
        <time>2026-08-24T13:20:27Z</time>
      </trkpt>
      <trkpt lat="49.12527" lon="4.14242">
        <ele>259.6</ele>
        <time>2026-08-24T13:20:28Z</time>
      </trkpt>
      <trkpt lat="49.1253" lon="4.14245">
        <ele>259.8</ele>
        <time>2026-08-24T13:20:29Z</time>
      </trkpt>
      <trkpt lat="49.12533" lon="4.14249">
        <ele>259.8</ele>
        <time>2026-08-24T13:20:30Z</time>
      </trkpt>
      <trkpt lat="49.12536" lon="4.14253">
        <ele>260</ele>
        <time>2026-08-24T13:20:31Z</time>
      </trkpt>
      <trkpt lat="49.12539" lon="4.14256">
        <ele>260.2</ele>
        <time>2026-08-24T13:20:32Z</time>
      </trkpt>
      <trkpt lat="49.12541" lon="4.14259">
        <ele>260.2</ele>
        <time>2026-08-24T13:20:33Z</time>
      </trkpt>
      <trkpt lat="49.12544" lon="4.14262">
        <ele>260.4</ele>
        <time>2026-08-24T13:20:34Z</time>
      </trkpt>
      <trkpt lat="49.12547" lon="4.14265">
        <ele>260.6</ele>
        <time>2026-08-24T13:20:35Z</time>
      </trkpt>
      <trkpt lat="49.12549" lon="4.14267">
        <ele>261</ele>
        <time>2026-08-24T13:20:36Z</time>
      </trkpt>
      <trkpt lat="49.12551" lon="4.14269">
        <ele>261.2</ele>
        <time>2026-08-24T13:20:37Z</time>
      </trkpt>
      <trkpt lat="49.12554" lon="4.14271">
        <ele>261.6</ele>
        <time>2026-08-24T13:20:38Z</time>
      </trkpt>
      <trkpt lat="49.12556" lon="4.14274">
        <ele>261.8</ele>
        <time>2026-08-24T13:20:39Z</time>
      </trkpt>
      <trkpt lat="49.12558" lon="4.14276">
        <ele>262</ele>
        <time>2026-08-24T13:20:40Z</time>
      </trkpt>
      <trkpt lat="49.12561" lon="4.14279">
        <ele>262.2</ele>
        <time>2026-08-24T13:20:41Z</time>
      </trkpt>
      <trkpt lat="49.12563" lon="4.14281">
        <ele>262.4</ele>
        <time>2026-08-24T13:20:42Z</time>
      </trkpt>
      <trkpt lat="49.12566" lon="4.14284">
        <ele>262.6</ele>
        <time>2026-08-24T13:20:43Z</time>
      </trkpt>
      <trkpt lat="49.12568" lon="4.14287">
        <ele>262.8</ele>
        <time>2026-08-24T13:20:44Z</time>
      </trkpt>
      <trkpt lat="49.12571" lon="4.14289">
        <ele>263</ele>
        <time>2026-08-24T13:20:45Z</time>
      </trkpt>
      <trkpt lat="49.12573" lon="4.14292">
        <ele>263.4</ele>
        <time>2026-08-24T13:20:46Z</time>
      </trkpt>
      <trkpt lat="49.12575" lon="4.14294">
        <ele>263.6</ele>
        <time>2026-08-24T13:20:47Z</time>
      </trkpt>
      <trkpt lat="49.12578" lon="4.14297">
        <ele>264</ele>
        <time>2026-08-24T13:20:48Z</time>
      </trkpt>
      <trkpt lat="49.1258" lon="4.14299">
        <ele>264.2</ele>
        <time>2026-08-24T13:20:49Z</time>
      </trkpt>
      <trkpt lat="49.12582" lon="4.14301">
        <ele>264.4</ele>
        <time>2026-08-24T13:20:50Z</time>
      </trkpt>
      <trkpt lat="49.12585" lon="4.14304">
        <ele>264.6</ele>
        <time>2026-08-24T13:20:51Z</time>
      </trkpt>
      <trkpt lat="49.12587" lon="4.14306">
        <ele>264.6</ele>
        <time>2026-08-24T13:20:52Z</time>
      </trkpt>
      <trkpt lat="49.12589" lon="4.14309">
        <ele>264.8</ele>
        <time>2026-08-24T13:20:53Z</time>
      </trkpt>
      <trkpt lat="49.12592" lon="4.14311">
        <ele>265.2</ele>
        <time>2026-08-24T13:20:54Z</time>
      </trkpt>
      <trkpt lat="49.12595" lon="4.14314">
        <ele>265.4</ele>
        <time>2026-08-24T13:20:55Z</time>
      </trkpt>
      <trkpt lat="49.12597" lon="4.14316">
        <ele>265.6</ele>
        <time>2026-08-24T13:20:56Z</time>
      </trkpt>
      <trkpt lat="49.126" lon="4.14319">
        <ele>265.8</ele>
        <time>2026-08-24T13:20:57Z</time>
      </trkpt>
      <trkpt lat="49.12603" lon="4.14322">
        <ele>266.2</ele>
        <time>2026-08-24T13:20:58Z</time>
      </trkpt>
      <trkpt lat="49.12605" lon="4.14325">
        <ele>266.4</ele>
        <time>2026-08-24T13:20:59Z</time>
      </trkpt>
      <trkpt lat="49.12608" lon="4.14327">
        <ele>266.8</ele>
        <time>2026-08-24T13:21:00Z</time>
      </trkpt>
      <trkpt lat="49.12611" lon="4.1433">
        <ele>267</ele>
        <time>2026-08-24T13:21:01Z</time>
      </trkpt>
      <trkpt lat="49.12614" lon="4.14333">
        <ele>267.2</ele>
        <time>2026-08-24T13:21:02Z</time>
      </trkpt>
      <trkpt lat="49.12617" lon="4.14336">
        <ele>267.4</ele>
        <time>2026-08-24T13:21:03Z</time>
      </trkpt>
      <trkpt lat="49.12619" lon="4.1434">
        <ele>267.6</ele>
        <time>2026-08-24T13:21:04Z</time>
      </trkpt>
      <trkpt lat="49.12622" lon="4.14343">
        <ele>267.6</ele>
        <time>2026-08-24T13:21:05Z</time>
      </trkpt>
      <trkpt lat="49.12625" lon="4.14345">
        <ele>267.8</ele>
        <time>2026-08-24T13:21:06Z</time>
      </trkpt>
      <trkpt lat="49.12627" lon="4.14348">
        <ele>267.8</ele>
        <time>2026-08-24T13:21:07Z</time>
      </trkpt>
      <trkpt lat="49.1263" lon="4.14351">
        <ele>268</ele>
        <time>2026-08-24T13:21:08Z</time>
      </trkpt>
      <trkpt lat="49.12633" lon="4.14354">
        <ele>268</ele>
        <time>2026-08-24T13:21:09Z</time>
      </trkpt>
      <trkpt lat="49.12635" lon="4.14356">
        <ele>268</ele>
        <time>2026-08-24T13:21:10Z</time>
      </trkpt>
      <trkpt lat="49.12638" lon="4.14359">
        <ele>268.2</ele>
        <time>2026-08-24T13:21:11Z</time>
      </trkpt>
      <trkpt lat="49.12641" lon="4.14362">
        <ele>268.4</ele>
        <time>2026-08-24T13:21:12Z</time>
      </trkpt>
      <trkpt lat="49.12644" lon="4.14365">
        <ele>268.4</ele>
        <time>2026-08-24T13:21:13Z</time>
      </trkpt>
      <trkpt lat="49.12647" lon="4.14368">
        <ele>268.6</ele>
        <time>2026-08-24T13:21:14Z</time>
      </trkpt>
      <trkpt lat="49.1265" lon="4.14371">
        <ele>269</ele>
        <time>2026-08-24T13:21:15Z</time>
      </trkpt>
      <trkpt lat="49.12653" lon="4.14374">
        <ele>269</ele>
        <time>2026-08-24T13:21:16Z</time>
      </trkpt>
      <trkpt lat="49.12656" lon="4.14377">
        <ele>269.2</ele>
        <time>2026-08-24T13:21:17Z</time>
      </trkpt>
      <trkpt lat="49.12659" lon="4.1438">
        <ele>269.4</ele>
        <time>2026-08-24T13:21:18Z</time>
      </trkpt>
      <trkpt lat="49.12662" lon="4.14383">
        <ele>269.4</ele>
        <time>2026-08-24T13:21:19Z</time>
      </trkpt>
      <trkpt lat="49.12665" lon="4.14386">
        <ele>269.4</ele>
        <time>2026-08-24T13:21:20Z</time>
      </trkpt>
      <trkpt lat="49.12668" lon="4.14389">
        <ele>269.4</ele>
        <time>2026-08-24T13:21:21Z</time>
      </trkpt>
      <trkpt lat="49.12671" lon="4.14393">
        <ele>269.4</ele>
        <time>2026-08-24T13:21:22Z</time>
      </trkpt>
      <trkpt lat="49.12674" lon="4.14396">
        <ele>269.4</ele>
        <time>2026-08-24T13:21:23Z</time>
      </trkpt>
      <trkpt lat="49.12677" lon="4.14399">
        <ele>269.4</ele>
        <time>2026-08-24T13:21:24Z</time>
      </trkpt>
      <trkpt lat="49.1268" lon="4.14402">
        <ele>269.6</ele>
        <time>2026-08-24T13:21:25Z</time>
      </trkpt>
      <trkpt lat="49.12683" lon="4.14405">
        <ele>269.8</ele>
        <time>2026-08-24T13:21:26Z</time>
      </trkpt>
      <trkpt lat="49.12687" lon="4.14408">
        <ele>269.8</ele>
        <time>2026-08-24T13:21:27Z</time>
      </trkpt>
      <trkpt lat="49.1269" lon="4.14412">
        <ele>270</ele>
        <time>2026-08-24T13:21:28Z</time>
      </trkpt>
      <trkpt lat="49.12693" lon="4.14415">
        <ele>270</ele>
        <time>2026-08-24T13:21:29Z</time>
      </trkpt>
      <trkpt lat="49.12696" lon="4.14418">
        <ele>270</ele>
        <time>2026-08-24T13:21:30Z</time>
      </trkpt>
      <trkpt lat="49.127" lon="4.14422">
        <ele>270</ele>
        <time>2026-08-24T13:21:31Z</time>
      </trkpt>
      <trkpt lat="49.12703" lon="4.14425">
        <ele>270</ele>
        <time>2026-08-24T13:21:32Z</time>
      </trkpt>
      <trkpt lat="49.12707" lon="4.14429">
        <ele>269.8</ele>
        <time>2026-08-24T13:21:33Z</time>
      </trkpt>
      <trkpt lat="49.1271" lon="4.14433">
        <ele>269.8</ele>
        <time>2026-08-24T13:21:34Z</time>
      </trkpt>
      <trkpt lat="49.12714" lon="4.14437">
        <ele>269.8</ele>
        <time>2026-08-24T13:21:35Z</time>
      </trkpt>
      <trkpt lat="49.12718" lon="4.14441">
        <ele>269.6</ele>
        <time>2026-08-24T13:21:36Z</time>
      </trkpt>
      <trkpt lat="49.12722" lon="4.14445">
        <ele>269.6</ele>
        <time>2026-08-24T13:21:37Z</time>
      </trkpt>
      <trkpt lat="49.12726" lon="4.14449">
        <ele>269.4</ele>
        <time>2026-08-24T13:21:38Z</time>
      </trkpt>
      <trkpt lat="49.1273" lon="4.14452">
        <ele>269.6</ele>
        <time>2026-08-24T13:21:39Z</time>
      </trkpt>
      <trkpt lat="49.12734" lon="4.14457">
        <ele>269.6</ele>
        <time>2026-08-24T13:21:40Z</time>
      </trkpt>
      <trkpt lat="49.12738" lon="4.14461">
        <ele>269.8</ele>
        <time>2026-08-24T13:21:41Z</time>
      </trkpt>
      <trkpt lat="49.12742" lon="4.14466">
        <ele>269.8</ele>
        <time>2026-08-24T13:21:42Z</time>
      </trkpt>
      <trkpt lat="49.12746" lon="4.1447">
        <ele>269.8</ele>
        <time>2026-08-24T13:21:43Z</time>
      </trkpt>
      <trkpt lat="49.1275" lon="4.14475">
        <ele>269.8</ele>
        <time>2026-08-24T13:21:44Z</time>
      </trkpt>
      <trkpt lat="49.12755" lon="4.14479">
        <ele>269.8</ele>
        <time>2026-08-24T13:21:45Z</time>
      </trkpt>
      <trkpt lat="49.12759" lon="4.14483">
        <ele>269.6</ele>
        <time>2026-08-24T13:21:46Z</time>
      </trkpt>
      <trkpt lat="49.12763" lon="4.14487">
        <ele>269.6</ele>
        <time>2026-08-24T13:21:47Z</time>
      </trkpt>
      <trkpt lat="49.12767" lon="4.14492">
        <ele>269.8</ele>
        <time>2026-08-24T13:21:48Z</time>
      </trkpt>
      <trkpt lat="49.12771" lon="4.14496">
        <ele>269.8</ele>
        <time>2026-08-24T13:21:49Z</time>
      </trkpt>
      <trkpt lat="49.12775" lon="4.145">
        <ele>270</ele>
        <time>2026-08-24T13:21:50Z</time>
      </trkpt>
      <trkpt lat="49.12779" lon="4.14504">
        <ele>270</ele>
        <time>2026-08-24T13:21:51Z</time>
      </trkpt>
      <trkpt lat="49.12783" lon="4.14508">
        <ele>270.2</ele>
        <time>2026-08-24T13:21:52Z</time>
      </trkpt>
      <trkpt lat="49.12787" lon="4.14512">
        <ele>270.4</ele>
        <time>2026-08-24T13:21:53Z</time>
      </trkpt>
      <trkpt lat="49.12791" lon="4.14516">
        <ele>270.6</ele>
        <time>2026-08-24T13:21:54Z</time>
      </trkpt>
      <trkpt lat="49.12795" lon="4.14521">
        <ele>270.6</ele>
        <time>2026-08-24T13:21:55Z</time>
      </trkpt>
      <trkpt lat="49.12799" lon="4.14525">
        <ele>270.6</ele>
        <time>2026-08-24T13:21:56Z</time>
      </trkpt>
      <trkpt lat="49.12804" lon="4.1453">
        <ele>270.6</ele>
        <time>2026-08-24T13:21:57Z</time>
      </trkpt>
      <trkpt lat="49.12808" lon="4.14534">
        <ele>270.6</ele>
        <time>2026-08-24T13:21:58Z</time>
      </trkpt>
      <trkpt lat="49.12813" lon="4.14539">
        <ele>270.6</ele>
        <time>2026-08-24T13:21:59Z</time>
      </trkpt>
      <trkpt lat="49.12818" lon="4.14543">
        <ele>270.4</ele>
        <time>2026-08-24T13:22:00Z</time>
      </trkpt>
      <trkpt lat="49.12822" lon="4.14548">
        <ele>270.4</ele>
        <time>2026-08-24T13:22:01Z</time>
      </trkpt>
      <trkpt lat="49.12826" lon="4.14552">
        <ele>270.2</ele>
        <time>2026-08-24T13:22:02Z</time>
      </trkpt>
      <trkpt lat="49.12831" lon="4.14557">
        <ele>270.2</ele>
        <time>2026-08-24T13:22:03Z</time>
      </trkpt>
      <trkpt lat="49.12835" lon="4.14562">
        <ele>270.4</ele>
        <time>2026-08-24T13:22:04Z</time>
      </trkpt>
      <trkpt lat="49.12839" lon="4.14566">
        <ele>270.6</ele>
        <time>2026-08-24T13:22:05Z</time>
      </trkpt>
      <trkpt lat="49.12844" lon="4.14571">
        <ele>271</ele>
        <time>2026-08-24T13:22:06Z</time>
      </trkpt>
      <trkpt lat="49.12848" lon="4.14575">
        <ele>271.2</ele>
        <time>2026-08-24T13:22:07Z</time>
      </trkpt>
      <trkpt lat="49.12852" lon="4.14579">
        <ele>271.4</ele>
        <time>2026-08-24T13:22:08Z</time>
      </trkpt>
      <trkpt lat="49.12857" lon="4.14584">
        <ele>271.6</ele>
        <time>2026-08-24T13:22:09Z</time>
      </trkpt>
      <trkpt lat="49.12861" lon="4.14588">
        <ele>271.6</ele>
        <time>2026-08-24T13:22:10Z</time>
      </trkpt>
      <trkpt lat="49.12865" lon="4.14593">
        <ele>271.8</ele>
        <time>2026-08-24T13:22:11Z</time>
      </trkpt>
      <trkpt lat="49.12869" lon="4.14597">
        <ele>271.8</ele>
        <time>2026-08-24T13:22:12Z</time>
      </trkpt>
      <trkpt lat="49.12873" lon="4.14601">
        <ele>271.8</ele>
        <time>2026-08-24T13:22:13Z</time>
      </trkpt>
      <trkpt lat="49.12876" lon="4.14604">
        <ele>272</ele>
        <time>2026-08-24T13:22:14Z</time>
      </trkpt>
      <trkpt lat="49.12878" lon="4.14607">
        <ele>272.2</ele>
        <time>2026-08-24T13:22:15Z</time>
      </trkpt>
      <trkpt lat="49.1288" lon="4.14609">
        <ele>272.4</ele>
        <time>2026-08-24T13:22:16Z</time>
      </trkpt>
      <trkpt lat="49.12881" lon="4.1461">
        <ele>272.8</ele>
        <time>2026-08-24T13:22:17Z</time>
      </trkpt>
      <trkpt lat="49.12881" lon="4.14611">
        <ele>273</ele>
        <time>2026-08-24T13:22:18Z</time>
      </trkpt>
      <trkpt lat="49.12881" lon="4.14611">
        <ele>273.2</ele>
        <time>2026-08-24T13:22:19Z</time>
      </trkpt>
      <trkpt lat="49.12885" lon="4.14614">
        <ele>273.4</ele>
        <time>2026-08-24T13:22:35Z</time>
      </trkpt>
      <trkpt lat="49.12887" lon="4.14615">
        <ele>273.4</ele>
        <time>2026-08-24T13:22:36Z</time>
      </trkpt>
      <trkpt lat="49.12889" lon="4.14618">
        <ele>273.4</ele>
        <time>2026-08-24T13:22:37Z</time>
      </trkpt>
      <trkpt lat="49.12891" lon="4.1462">
        <ele>273.4</ele>
        <time>2026-08-24T13:22:38Z</time>
      </trkpt>
      <trkpt lat="49.12894" lon="4.14623">
        <ele>273.4</ele>
        <time>2026-08-24T13:22:39Z</time>
      </trkpt>
      <trkpt lat="49.12897" lon="4.14625">
        <ele>273.4</ele>
        <time>2026-08-24T13:22:40Z</time>
      </trkpt>
      <trkpt lat="49.12899" lon="4.14628">
        <ele>273.4</ele>
        <time>2026-08-24T13:22:41Z</time>
      </trkpt>
      <trkpt lat="49.12902" lon="4.14631">
        <ele>273.4</ele>
        <time>2026-08-24T13:22:42Z</time>
      </trkpt>
      <trkpt lat="49.12905" lon="4.14634">
        <ele>273.2</ele>
        <time>2026-08-24T13:22:43Z</time>
      </trkpt>
      <trkpt lat="49.12908" lon="4.14637">
        <ele>273.2</ele>
        <time>2026-08-24T13:22:44Z</time>
      </trkpt>
      <trkpt lat="49.12911" lon="4.1464">
        <ele>273.2</ele>
        <time>2026-08-24T13:22:45Z</time>
      </trkpt>
      <trkpt lat="49.12913" lon="4.14643">
        <ele>273</ele>
        <time>2026-08-24T13:22:46Z</time>
      </trkpt>
      <trkpt lat="49.12916" lon="4.14647">
        <ele>272.8</ele>
        <time>2026-08-24T13:22:47Z</time>
      </trkpt>
      <trkpt lat="49.12919" lon="4.1465">
        <ele>272.8</ele>
        <time>2026-08-24T13:22:48Z</time>
      </trkpt>
      <trkpt lat="49.12922" lon="4.14653">
        <ele>272.8</ele>
        <time>2026-08-24T13:22:49Z</time>
      </trkpt>
      <trkpt lat="49.12926" lon="4.14656">
        <ele>272.6</ele>
        <time>2026-08-24T13:22:50Z</time>
      </trkpt>
      <trkpt lat="49.12929" lon="4.14659">
        <ele>272.6</ele>
        <time>2026-08-24T13:22:51Z</time>
      </trkpt>
      <trkpt lat="49.12932" lon="4.14662">
        <ele>272.8</ele>
        <time>2026-08-24T13:22:52Z</time>
      </trkpt>
      <trkpt lat="49.12935" lon="4.14666">
        <ele>273</ele>
        <time>2026-08-24T13:22:53Z</time>
      </trkpt>
      <trkpt lat="49.12939" lon="4.1467">
        <ele>273.2</ele>
        <time>2026-08-24T13:22:54Z</time>
      </trkpt>
      <trkpt lat="49.12943" lon="4.14673">
        <ele>273.4</ele>
        <time>2026-08-24T13:22:55Z</time>
      </trkpt>
      <trkpt lat="49.12947" lon="4.14678">
        <ele>273.6</ele>
        <time>2026-08-24T13:22:56Z</time>
      </trkpt>
      <trkpt lat="49.1295" lon="4.14681">
        <ele>273.8</ele>
        <time>2026-08-24T13:22:57Z</time>
      </trkpt>
      <trkpt lat="49.12954" lon="4.14686">
        <ele>274</ele>
        <time>2026-08-24T13:22:58Z</time>
      </trkpt>
      <trkpt lat="49.12958" lon="4.1469">
        <ele>274</ele>
        <time>2026-08-24T13:22:59Z</time>
      </trkpt>
      <trkpt lat="49.12962" lon="4.14694">
        <ele>274</ele>
        <time>2026-08-24T13:23:00Z</time>
      </trkpt>
      <trkpt lat="49.12966" lon="4.14698">
        <ele>274</ele>
        <time>2026-08-24T13:23:01Z</time>
      </trkpt>
      <trkpt lat="49.1297" lon="4.14702">
        <ele>274</ele>
        <time>2026-08-24T13:23:02Z</time>
      </trkpt>
      <trkpt lat="49.12974" lon="4.14706">
        <ele>274</ele>
        <time>2026-08-24T13:23:03Z</time>
      </trkpt>
      <trkpt lat="49.12978" lon="4.1471">
        <ele>274.2</ele>
        <time>2026-08-24T13:23:04Z</time>
      </trkpt>
      <trkpt lat="49.12982" lon="4.14715">
        <ele>274.6</ele>
        <time>2026-08-24T13:23:05Z</time>
      </trkpt>
      <trkpt lat="49.12986" lon="4.14719">
        <ele>274.8</ele>
        <time>2026-08-24T13:23:06Z</time>
      </trkpt>
      <trkpt lat="49.1299" lon="4.14723">
        <ele>275</ele>
        <time>2026-08-24T13:23:07Z</time>
      </trkpt>
      <trkpt lat="49.12994" lon="4.14727">
        <ele>275.4</ele>
        <time>2026-08-24T13:23:08Z</time>
      </trkpt>
      <trkpt lat="49.12998" lon="4.14731">
        <ele>275.6</ele>
        <time>2026-08-24T13:23:09Z</time>
      </trkpt>
      <trkpt lat="49.13003" lon="4.14736">
        <ele>276</ele>
        <time>2026-08-24T13:23:10Z</time>
      </trkpt>
      <trkpt lat="49.13007" lon="4.1474">
        <ele>276</ele>
        <time>2026-08-24T13:23:11Z</time>
      </trkpt>
      <trkpt lat="49.13011" lon="4.14745">
        <ele>276.2</ele>
        <time>2026-08-24T13:23:12Z</time>
      </trkpt>
      <trkpt lat="49.13015" lon="4.14749">
        <ele>276.4</ele>
        <time>2026-08-24T13:23:13Z</time>
      </trkpt>
      <trkpt lat="49.1302" lon="4.14754">
        <ele>276.4</ele>
        <time>2026-08-24T13:23:14Z</time>
      </trkpt>
      <trkpt lat="49.13024" lon="4.14758">
        <ele>276.2</ele>
        <time>2026-08-24T13:23:15Z</time>
      </trkpt>
      <trkpt lat="49.13028" lon="4.14763">
        <ele>276.4</ele>
        <time>2026-08-24T13:23:16Z</time>
      </trkpt>
      <trkpt lat="49.13033" lon="4.14767">
        <ele>276.4</ele>
        <time>2026-08-24T13:23:17Z</time>
      </trkpt>
      <trkpt lat="49.13037" lon="4.14772">
        <ele>276.6</ele>
        <time>2026-08-24T13:23:18Z</time>
      </trkpt>
      <trkpt lat="49.13041" lon="4.14776">
        <ele>276.6</ele>
        <time>2026-08-24T13:23:19Z</time>
      </trkpt>
      <trkpt lat="49.13046" lon="4.14781">
        <ele>276.8</ele>
        <time>2026-08-24T13:23:20Z</time>
      </trkpt>
      <trkpt lat="49.1305" lon="4.14785">
        <ele>276.6</ele>
        <time>2026-08-24T13:23:21Z</time>
      </trkpt>
      <trkpt lat="49.13055" lon="4.1479">
        <ele>276.8</ele>
        <time>2026-08-24T13:23:22Z</time>
      </trkpt>
      <trkpt lat="49.13059" lon="4.14794">
        <ele>276.8</ele>
        <time>2026-08-24T13:23:23Z</time>
      </trkpt>
      <trkpt lat="49.13063" lon="4.14799">
        <ele>277</ele>
        <time>2026-08-24T13:23:24Z</time>
      </trkpt>
      <trkpt lat="49.13068" lon="4.14803">
        <ele>277.4</ele>
        <time>2026-08-24T13:23:25Z</time>
      </trkpt>
      <trkpt lat="49.13073" lon="4.14807">
        <ele>277.6</ele>
        <time>2026-08-24T13:23:26Z</time>
      </trkpt>
      <trkpt lat="49.13077" lon="4.14811">
        <ele>277.8</ele>
        <time>2026-08-24T13:23:27Z</time>
      </trkpt>
      <trkpt lat="49.13082" lon="4.14815">
        <ele>277.8</ele>
        <time>2026-08-24T13:23:28Z</time>
      </trkpt>
      <trkpt lat="49.13087" lon="4.14819">
        <ele>278</ele>
        <time>2026-08-24T13:23:29Z</time>
      </trkpt>
      <trkpt lat="49.13091" lon="4.14823">
        <ele>278</ele>
        <time>2026-08-24T13:23:30Z</time>
      </trkpt>
      <trkpt lat="49.13096" lon="4.14827">
        <ele>277.8</ele>
        <time>2026-08-24T13:23:31Z</time>
      </trkpt>
      <trkpt lat="49.13101" lon="4.1483">
        <ele>277.8</ele>
        <time>2026-08-24T13:23:32Z</time>
      </trkpt>
      <trkpt lat="49.13106" lon="4.14834">
        <ele>277.8</ele>
        <time>2026-08-24T13:23:33Z</time>
      </trkpt>
      <trkpt lat="49.13111" lon="4.14837">
        <ele>277.8</ele>
        <time>2026-08-24T13:23:34Z</time>
      </trkpt>
      <trkpt lat="49.13115" lon="4.14841">
        <ele>277.8</ele>
        <time>2026-08-24T13:23:35Z</time>
      </trkpt>
      <trkpt lat="49.1312" lon="4.14844">
        <ele>278</ele>
        <time>2026-08-24T13:23:36Z</time>
      </trkpt>
      <trkpt lat="49.13126" lon="4.14847">
        <ele>278.2</ele>
        <time>2026-08-24T13:23:37Z</time>
      </trkpt>
      <trkpt lat="49.1313" lon="4.14851">
        <ele>278.2</ele>
        <time>2026-08-24T13:23:38Z</time>
      </trkpt>
      <trkpt lat="49.13135" lon="4.14855">
        <ele>278.4</ele>
        <time>2026-08-24T13:23:39Z</time>
      </trkpt>
      <trkpt lat="49.13141" lon="4.14858">
        <ele>278.6</ele>
        <time>2026-08-24T13:23:40Z</time>
      </trkpt>
      <trkpt lat="49.13146" lon="4.14861">
        <ele>278.6</ele>
        <time>2026-08-24T13:23:41Z</time>
      </trkpt>
      <trkpt lat="49.13151" lon="4.14865">
        <ele>278.6</ele>
        <time>2026-08-24T13:23:42Z</time>
      </trkpt>
      <trkpt lat="49.13156" lon="4.14868">
        <ele>278.4</ele>
        <time>2026-08-24T13:23:43Z</time>
      </trkpt>
      <trkpt lat="49.13161" lon="4.14872">
        <ele>278.4</ele>
        <time>2026-08-24T13:23:44Z</time>
      </trkpt>
      <trkpt lat="49.13166" lon="4.14875">
        <ele>278.6</ele>
        <time>2026-08-24T13:23:45Z</time>
      </trkpt>
      <trkpt lat="49.13172" lon="4.14879">
        <ele>278.8</ele>
        <time>2026-08-24T13:23:46Z</time>
      </trkpt>
      <trkpt lat="49.13178" lon="4.14883">
        <ele>278.8</ele>
        <time>2026-08-24T13:23:47Z</time>
      </trkpt>
      <trkpt lat="49.13183" lon="4.14887">
        <ele>279</ele>
        <time>2026-08-24T13:23:48Z</time>
      </trkpt>
      <trkpt lat="49.13189" lon="4.14891">
        <ele>279</ele>
        <time>2026-08-24T13:23:49Z</time>
      </trkpt>
      <trkpt lat="49.13195" lon="4.14894">
        <ele>279</ele>
        <time>2026-08-24T13:23:50Z</time>
      </trkpt>
      <trkpt lat="49.132" lon="4.14898">
        <ele>278.8</ele>
        <time>2026-08-24T13:23:51Z</time>
      </trkpt>
      <trkpt lat="49.13206" lon="4.14902">
        <ele>278.6</ele>
        <time>2026-08-24T13:23:52Z</time>
      </trkpt>
      <trkpt lat="49.13212" lon="4.14906">
        <ele>278.6</ele>
        <time>2026-08-24T13:23:53Z</time>
      </trkpt>
      <trkpt lat="49.13218" lon="4.1491">
        <ele>278.4</ele>
        <time>2026-08-24T13:23:54Z</time>
      </trkpt>
      <trkpt lat="49.13224" lon="4.14914">
        <ele>278.4</ele>
        <time>2026-08-24T13:23:55Z</time>
      </trkpt>
      <trkpt lat="49.1323" lon="4.14919">
        <ele>278.2</ele>
        <time>2026-08-24T13:23:56Z</time>
      </trkpt>
      <trkpt lat="49.13237" lon="4.14923">
        <ele>278</ele>
        <time>2026-08-24T13:23:57Z</time>
      </trkpt>
      <trkpt lat="49.13243" lon="4.14927">
        <ele>277.8</ele>
        <time>2026-08-24T13:23:58Z</time>
      </trkpt>
      <trkpt lat="49.13249" lon="4.14931">
        <ele>277.4</ele>
        <time>2026-08-24T13:23:59Z</time>
      </trkpt>
      <trkpt lat="49.13256" lon="4.14936">
        <ele>277</ele>
        <time>2026-08-24T13:24:00Z</time>
      </trkpt>
      <trkpt lat="49.13262" lon="4.1494">
        <ele>277</ele>
        <time>2026-08-24T13:24:01Z</time>
      </trkpt>
      <trkpt lat="49.13268" lon="4.14944">
        <ele>276.8</ele>
        <time>2026-08-24T13:24:02Z</time>
      </trkpt>
      <trkpt lat="49.13274" lon="4.14949">
        <ele>276.6</ele>
        <time>2026-08-24T13:24:03Z</time>
      </trkpt>
      <trkpt lat="49.13281" lon="4.14953">
        <ele>276.8</ele>
        <time>2026-08-24T13:24:04Z</time>
      </trkpt>
      <trkpt lat="49.13287" lon="4.14957">
        <ele>276.8</ele>
        <time>2026-08-24T13:24:05Z</time>
      </trkpt>
      <trkpt lat="49.13294" lon="4.14961">
        <ele>276.8</ele>
        <time>2026-08-24T13:24:06Z</time>
      </trkpt>
      <trkpt lat="49.133" lon="4.14965">
        <ele>276.8</ele>
        <time>2026-08-24T13:24:07Z</time>
      </trkpt>
      <trkpt lat="49.13306" lon="4.14969">
        <ele>276.8</ele>
        <time>2026-08-24T13:24:08Z</time>
      </trkpt>
      <trkpt lat="49.13312" lon="4.14973">
        <ele>276.8</ele>
        <time>2026-08-24T13:24:09Z</time>
      </trkpt>
      <trkpt lat="49.13319" lon="4.14978">
        <ele>277</ele>
        <time>2026-08-24T13:24:10Z</time>
      </trkpt>
      <trkpt lat="49.13325" lon="4.14982">
        <ele>277</ele>
        <time>2026-08-24T13:24:11Z</time>
      </trkpt>
      <trkpt lat="49.13332" lon="4.14986">
        <ele>277</ele>
        <time>2026-08-24T13:24:12Z</time>
      </trkpt>
      <trkpt lat="49.13338" lon="4.1499">
        <ele>277</ele>
        <time>2026-08-24T13:24:13Z</time>
      </trkpt>
      <trkpt lat="49.13344" lon="4.14995">
        <ele>276.8</ele>
        <time>2026-08-24T13:24:14Z</time>
      </trkpt>
      <trkpt lat="49.13351" lon="4.14999">
        <ele>276.8</ele>
        <time>2026-08-24T13:24:15Z</time>
      </trkpt>
      <trkpt lat="49.13357" lon="4.15003">
        <ele>276.8</ele>
        <time>2026-08-24T13:24:16Z</time>
      </trkpt>
      <trkpt lat="49.13363" lon="4.15008">
        <ele>277</ele>
        <time>2026-08-24T13:24:17Z</time>
      </trkpt>
      <trkpt lat="49.1337" lon="4.15012">
        <ele>277.2</ele>
        <time>2026-08-24T13:24:18Z</time>
      </trkpt>
      <trkpt lat="49.13376" lon="4.15016">
        <ele>277.4</ele>
        <time>2026-08-24T13:24:19Z</time>
      </trkpt>
      <trkpt lat="49.13382" lon="4.1502">
        <ele>277.4</ele>
        <time>2026-08-24T13:24:20Z</time>
      </trkpt>
      <trkpt lat="49.13389" lon="4.15025">
        <ele>277.4</ele>
        <time>2026-08-24T13:24:21Z</time>
      </trkpt>
      <trkpt lat="49.13395" lon="4.15029">
        <ele>277.2</ele>
        <time>2026-08-24T13:24:22Z</time>
      </trkpt>
      <trkpt lat="49.13401" lon="4.15033">
        <ele>277.2</ele>
        <time>2026-08-24T13:24:23Z</time>
      </trkpt>
      <trkpt lat="49.13407" lon="4.15037">
        <ele>277</ele>
        <time>2026-08-24T13:24:24Z</time>
      </trkpt>
      <trkpt lat="49.13413" lon="4.15041">
        <ele>277</ele>
        <time>2026-08-24T13:24:25Z</time>
      </trkpt>
      <trkpt lat="49.13419" lon="4.15045">
        <ele>277.2</ele>
        <time>2026-08-24T13:24:26Z</time>
      </trkpt>
      <trkpt lat="49.13425" lon="4.15049">
        <ele>277.2</ele>
        <time>2026-08-24T13:24:27Z</time>
      </trkpt>
      <trkpt lat="49.13431" lon="4.15053">
        <ele>277.4</ele>
        <time>2026-08-24T13:24:28Z</time>
      </trkpt>
      <trkpt lat="49.13437" lon="4.15057">
        <ele>277.6</ele>
        <time>2026-08-24T13:24:29Z</time>
      </trkpt>
      <trkpt lat="49.13443" lon="4.15061">
        <ele>277.8</ele>
        <time>2026-08-24T13:24:30Z</time>
      </trkpt>
      <trkpt lat="49.13449" lon="4.15065">
        <ele>278</ele>
        <time>2026-08-24T13:24:31Z</time>
      </trkpt>
      <trkpt lat="49.13454" lon="4.15068">
        <ele>278.2</ele>
        <time>2026-08-24T13:24:32Z</time>
      </trkpt>
      <trkpt lat="49.1346" lon="4.15072">
        <ele>278.4</ele>
        <time>2026-08-24T13:24:33Z</time>
      </trkpt>
      <trkpt lat="49.13466" lon="4.15076">
        <ele>278.6</ele>
        <time>2026-08-24T13:24:34Z</time>
      </trkpt>
      <trkpt lat="49.13471" lon="4.1508">
        <ele>278.6</ele>
        <time>2026-08-24T13:24:35Z</time>
      </trkpt>
      <trkpt lat="49.13477" lon="4.15084">
        <ele>278.8</ele>
        <time>2026-08-24T13:24:36Z</time>
      </trkpt>
      <trkpt lat="49.13483" lon="4.15087">
        <ele>278.6</ele>
        <time>2026-08-24T13:24:37Z</time>
      </trkpt>
      <trkpt lat="49.13488" lon="4.15091">
        <ele>278.8</ele>
        <time>2026-08-24T13:24:38Z</time>
      </trkpt>
      <trkpt lat="49.13494" lon="4.15095">
        <ele>279</ele>
        <time>2026-08-24T13:24:39Z</time>
      </trkpt>
      <trkpt lat="49.13499" lon="4.15098">
        <ele>279.2</ele>
        <time>2026-08-24T13:24:40Z</time>
      </trkpt>
      <trkpt lat="49.13504" lon="4.15102">
        <ele>279.2</ele>
        <time>2026-08-24T13:24:41Z</time>
      </trkpt>
      <trkpt lat="49.13509" lon="4.15106">
        <ele>279.4</ele>
        <time>2026-08-24T13:24:42Z</time>
      </trkpt>
      <trkpt lat="49.13515" lon="4.1511">
        <ele>279.4</ele>
        <time>2026-08-24T13:24:43Z</time>
      </trkpt>
      <trkpt lat="49.1352" lon="4.15113">
        <ele>279.6</ele>
        <time>2026-08-24T13:24:44Z</time>
      </trkpt>
      <trkpt lat="49.13525" lon="4.15117">
        <ele>279.6</ele>
        <time>2026-08-24T13:24:45Z</time>
      </trkpt>
      <trkpt lat="49.1353" lon="4.15121">
        <ele>280</ele>
        <time>2026-08-24T13:24:46Z</time>
      </trkpt>
      <trkpt lat="49.13535" lon="4.15124">
        <ele>280.2</ele>
        <time>2026-08-24T13:24:47Z</time>
      </trkpt>
      <trkpt lat="49.1354" lon="4.15128">
        <ele>280.4</ele>
        <time>2026-08-24T13:24:48Z</time>
      </trkpt>
      <trkpt lat="49.13545" lon="4.15131">
        <ele>280.6</ele>
        <time>2026-08-24T13:24:49Z</time>
      </trkpt>
      <trkpt lat="49.13551" lon="4.15134">
        <ele>280.6</ele>
        <time>2026-08-24T13:24:50Z</time>
      </trkpt>
      <trkpt lat="49.13556" lon="4.15137">
        <ele>280.8</ele>
        <time>2026-08-24T13:24:51Z</time>
      </trkpt>
      <trkpt lat="49.1356" lon="4.1514">
        <ele>280.8</ele>
        <time>2026-08-24T13:24:52Z</time>
      </trkpt>
      <trkpt lat="49.13565" lon="4.15144">
        <ele>281</ele>
        <time>2026-08-24T13:24:53Z</time>
      </trkpt>
      <trkpt lat="49.1357" lon="4.15147">
        <ele>281</ele>
        <time>2026-08-24T13:24:54Z</time>
      </trkpt>
      <trkpt lat="49.13575" lon="4.15151">
        <ele>281.2</ele>
        <time>2026-08-24T13:24:55Z</time>
      </trkpt>
      <trkpt lat="49.1358" lon="4.15154">
        <ele>281.4</ele>
        <time>2026-08-24T13:24:56Z</time>
      </trkpt>
      <trkpt lat="49.13585" lon="4.15158">
        <ele>281.6</ele>
        <time>2026-08-24T13:24:57Z</time>
      </trkpt>
      <trkpt lat="49.1359" lon="4.15161">
        <ele>281.6</ele>
        <time>2026-08-24T13:24:58Z</time>
      </trkpt>
      <trkpt lat="49.13595" lon="4.15165">
        <ele>281.8</ele>
        <time>2026-08-24T13:24:59Z</time>
      </trkpt>
      <trkpt lat="49.13601" lon="4.15168">
        <ele>281.8</ele>
        <time>2026-08-24T13:25:00Z</time>
      </trkpt>
      <trkpt lat="49.13606" lon="4.15171">
        <ele>281.8</ele>
        <time>2026-08-24T13:25:01Z</time>
      </trkpt>
      <trkpt lat="49.1361" lon="4.15175">
        <ele>281.8</ele>
        <time>2026-08-24T13:25:02Z</time>
      </trkpt>
      <trkpt lat="49.13615" lon="4.15178">
        <ele>281.8</ele>
        <time>2026-08-24T13:25:03Z</time>
      </trkpt>
      <trkpt lat="49.13619" lon="4.15181">
        <ele>281.8</ele>
        <time>2026-08-24T13:25:04Z</time>
      </trkpt>
      <trkpt lat="49.13624" lon="4.15185">
        <ele>282</ele>
        <time>2026-08-24T13:25:05Z</time>
      </trkpt>
      <trkpt lat="49.13629" lon="4.15189">
        <ele>282</ele>
        <time>2026-08-24T13:25:06Z</time>
      </trkpt>
      <trkpt lat="49.13634" lon="4.15192">
        <ele>282.2</ele>
        <time>2026-08-24T13:25:07Z</time>
      </trkpt>
      <trkpt lat="49.13638" lon="4.15196">
        <ele>282.4</ele>
        <time>2026-08-24T13:25:08Z</time>
      </trkpt>
      <trkpt lat="49.13643" lon="4.15199">
        <ele>282.6</ele>
        <time>2026-08-24T13:25:09Z</time>
      </trkpt>
      <trkpt lat="49.13648" lon="4.15202">
        <ele>282.6</ele>
        <time>2026-08-24T13:25:10Z</time>
      </trkpt>
      <trkpt lat="49.13653" lon="4.15206">
        <ele>282.8</ele>
        <time>2026-08-24T13:25:11Z</time>
      </trkpt>
      <trkpt lat="49.13658" lon="4.15209">
        <ele>283</ele>
        <time>2026-08-24T13:25:12Z</time>
      </trkpt>
      <trkpt lat="49.13663" lon="4.15213">
        <ele>283.2</ele>
        <time>2026-08-24T13:25:13Z</time>
      </trkpt>
      <trkpt lat="49.13667" lon="4.15216">
        <ele>283.2</ele>
        <time>2026-08-24T13:25:14Z</time>
      </trkpt>
      <trkpt lat="49.13672" lon="4.1522">
        <ele>283.4</ele>
        <time>2026-08-24T13:25:15Z</time>
      </trkpt>
      <trkpt lat="49.13677" lon="4.15223">
        <ele>283.6</ele>
        <time>2026-08-24T13:25:16Z</time>
      </trkpt>
      <trkpt lat="49.13682" lon="4.15226">
        <ele>283.6</ele>
        <time>2026-08-24T13:25:17Z</time>
      </trkpt>
      <trkpt lat="49.13687" lon="4.1523">
        <ele>284</ele>
        <time>2026-08-24T13:25:18Z</time>
      </trkpt>
      <trkpt lat="49.13692" lon="4.15233">
        <ele>284.2</ele>
        <time>2026-08-24T13:25:19Z</time>
      </trkpt>
      <trkpt lat="49.13697" lon="4.15236">
        <ele>284.4</ele>
        <time>2026-08-24T13:25:20Z</time>
      </trkpt>
      <trkpt lat="49.13702" lon="4.15239">
        <ele>284.4</ele>
        <time>2026-08-24T13:25:21Z</time>
      </trkpt>
      <trkpt lat="49.13707" lon="4.15242">
        <ele>284.6</ele>
        <time>2026-08-24T13:25:22Z</time>
      </trkpt>
      <trkpt lat="49.13712" lon="4.15245">
        <ele>284.6</ele>
        <time>2026-08-24T13:25:23Z</time>
      </trkpt>
      <trkpt lat="49.13717" lon="4.15248">
        <ele>284.6</ele>
        <time>2026-08-24T13:25:24Z</time>
      </trkpt>
      <trkpt lat="49.13722" lon="4.15252">
        <ele>284.8</ele>
        <time>2026-08-24T13:25:25Z</time>
      </trkpt>
      <trkpt lat="49.13727" lon="4.15255">
        <ele>284.8</ele>
        <time>2026-08-24T13:25:26Z</time>
      </trkpt>
      <trkpt lat="49.13731" lon="4.15258">
        <ele>284.8</ele>
        <time>2026-08-24T13:25:27Z</time>
      </trkpt>
      <trkpt lat="49.13736" lon="4.15261">
        <ele>284.8</ele>
        <time>2026-08-24T13:25:28Z</time>
      </trkpt>
      <trkpt lat="49.13742" lon="4.15265">
        <ele>284.8</ele>
        <time>2026-08-24T13:25:29Z</time>
      </trkpt>
      <trkpt lat="49.13747" lon="4.15268">
        <ele>284.8</ele>
        <time>2026-08-24T13:25:30Z</time>
      </trkpt>
      <trkpt lat="49.13752" lon="4.15271">
        <ele>284.8</ele>
        <time>2026-08-24T13:25:31Z</time>
      </trkpt>
      <trkpt lat="49.13757" lon="4.15274">
        <ele>285</ele>
        <time>2026-08-24T13:25:32Z</time>
      </trkpt>
      <trkpt lat="49.13762" lon="4.15278">
        <ele>285</ele>
        <time>2026-08-24T13:25:33Z</time>
      </trkpt>
      <trkpt lat="49.13767" lon="4.15281">
        <ele>285</ele>
        <time>2026-08-24T13:25:34Z</time>
      </trkpt>
      <trkpt lat="49.13772" lon="4.15285">
        <ele>285.2</ele>
        <time>2026-08-24T13:25:35Z</time>
      </trkpt>
      <trkpt lat="49.13777" lon="4.15288">
        <ele>285.2</ele>
        <time>2026-08-24T13:25:36Z</time>
      </trkpt>
      <trkpt lat="49.13782" lon="4.15291">
        <ele>285.2</ele>
        <time>2026-08-24T13:25:37Z</time>
      </trkpt>
      <trkpt lat="49.13787" lon="4.15294">
        <ele>285.2</ele>
        <time>2026-08-24T13:25:38Z</time>
      </trkpt>
      <trkpt lat="49.13792" lon="4.15298">
        <ele>285.2</ele>
        <time>2026-08-24T13:25:39Z</time>
      </trkpt>
      <trkpt lat="49.13797" lon="4.15301">
        <ele>285.2</ele>
        <time>2026-08-24T13:25:40Z</time>
      </trkpt>
      <trkpt lat="49.13802" lon="4.15304">
        <ele>285.2</ele>
        <time>2026-08-24T13:25:41Z</time>
      </trkpt>
      <trkpt lat="49.13807" lon="4.15307">
        <ele>285.6</ele>
        <time>2026-08-24T13:25:42Z</time>
      </trkpt>
      <trkpt lat="49.13812" lon="4.1531">
        <ele>285.8</ele>
        <time>2026-08-24T13:25:43Z</time>
      </trkpt>
      <trkpt lat="49.13817" lon="4.15314">
        <ele>286</ele>
        <time>2026-08-24T13:25:44Z</time>
      </trkpt>
      <trkpt lat="49.13823" lon="4.15317">
        <ele>286.2</ele>
        <time>2026-08-24T13:25:45Z</time>
      </trkpt>
      <trkpt lat="49.13828" lon="4.15321">
        <ele>286.4</ele>
        <time>2026-08-24T13:25:46Z</time>
      </trkpt>
      <trkpt lat="49.13833" lon="4.15325">
        <ele>286.6</ele>
        <time>2026-08-24T13:25:47Z</time>
      </trkpt>
      <trkpt lat="49.13838" lon="4.15328">
        <ele>286.6</ele>
        <time>2026-08-24T13:25:48Z</time>
      </trkpt>
      <trkpt lat="49.13844" lon="4.15332">
        <ele>286.6</ele>
        <time>2026-08-24T13:25:49Z</time>
      </trkpt>
      <trkpt lat="49.13849" lon="4.15336">
        <ele>286.6</ele>
        <time>2026-08-24T13:25:50Z</time>
      </trkpt>
      <trkpt lat="49.13854" lon="4.1534">
        <ele>286.6</ele>
        <time>2026-08-24T13:25:51Z</time>
      </trkpt>
      <trkpt lat="49.1386" lon="4.15344">
        <ele>286.4</ele>
        <time>2026-08-24T13:25:52Z</time>
      </trkpt>
      <trkpt lat="49.13866" lon="4.15348">
        <ele>286.4</ele>
        <time>2026-08-24T13:25:53Z</time>
      </trkpt>
      <trkpt lat="49.13872" lon="4.15351">
        <ele>286.4</ele>
        <time>2026-08-24T13:25:54Z</time>
      </trkpt>
      <trkpt lat="49.13877" lon="4.15355">
        <ele>286.4</ele>
        <time>2026-08-24T13:25:55Z</time>
      </trkpt>
      <trkpt lat="49.13883" lon="4.15359">
        <ele>286.4</ele>
        <time>2026-08-24T13:25:56Z</time>
      </trkpt>
      <trkpt lat="49.13889" lon="4.15363">
        <ele>286.4</ele>
        <time>2026-08-24T13:25:57Z</time>
      </trkpt>
      <trkpt lat="49.13894" lon="4.15367">
        <ele>286.4</ele>
        <time>2026-08-24T13:25:58Z</time>
      </trkpt>
      <trkpt lat="49.139" lon="4.15371">
        <ele>286.4</ele>
        <time>2026-08-24T13:25:59Z</time>
      </trkpt>
      <trkpt lat="49.13906" lon="4.15375">
        <ele>286.4</ele>
        <time>2026-08-24T13:26:00Z</time>
      </trkpt>
      <trkpt lat="49.13912" lon="4.1538">
        <ele>286.6</ele>
        <time>2026-08-24T13:26:01Z</time>
      </trkpt>
      <trkpt lat="49.13918" lon="4.15384">
        <ele>286.6</ele>
        <time>2026-08-24T13:26:02Z</time>
      </trkpt>
      <trkpt lat="49.13925" lon="4.15389">
        <ele>286.6</ele>
        <time>2026-08-24T13:26:03Z</time>
      </trkpt>
      <trkpt lat="49.13931" lon="4.15393">
        <ele>286.4</ele>
        <time>2026-08-24T13:26:04Z</time>
      </trkpt>
      <trkpt lat="49.13937" lon="4.15397">
        <ele>286.4</ele>
        <time>2026-08-24T13:26:05Z</time>
      </trkpt>
      <trkpt lat="49.13943" lon="4.15401">
        <ele>286.4</ele>
        <time>2026-08-24T13:26:06Z</time>
      </trkpt>
      <trkpt lat="49.13949" lon="4.15406">
        <ele>286.2</ele>
        <time>2026-08-24T13:26:07Z</time>
      </trkpt>
      <trkpt lat="49.13956" lon="4.1541">
        <ele>286</ele>
        <time>2026-08-24T13:26:08Z</time>
      </trkpt>
      <trkpt lat="49.13962" lon="4.15415">
        <ele>285.8</ele>
        <time>2026-08-24T13:26:09Z</time>
      </trkpt>
      <trkpt lat="49.1397" lon="4.1542">
        <ele>285.6</ele>
        <time>2026-08-24T13:26:10Z</time>
      </trkpt>
      <trkpt lat="49.13977" lon="4.15425">
        <ele>285.4</ele>
        <time>2026-08-24T13:26:11Z</time>
      </trkpt>
      <trkpt lat="49.13984" lon="4.1543">
        <ele>285.2</ele>
        <time>2026-08-24T13:26:12Z</time>
      </trkpt>
      <trkpt lat="49.13991" lon="4.15434">
        <ele>285</ele>
        <time>2026-08-24T13:26:13Z</time>
      </trkpt>
      <trkpt lat="49.13998" lon="4.15439">
        <ele>284.8</ele>
        <time>2026-08-24T13:26:14Z</time>
      </trkpt>
      <trkpt lat="49.14005" lon="4.15444">
        <ele>284.4</ele>
        <time>2026-08-24T13:26:15Z</time>
      </trkpt>
      <trkpt lat="49.14013" lon="4.15448">
        <ele>284</ele>
        <time>2026-08-24T13:26:16Z</time>
      </trkpt>
      <trkpt lat="49.1402" lon="4.15453">
        <ele>283.6</ele>
        <time>2026-08-24T13:26:17Z</time>
      </trkpt>
      <trkpt lat="49.14027" lon="4.15457">
        <ele>283.4</ele>
        <time>2026-08-24T13:26:18Z</time>
      </trkpt>
      <trkpt lat="49.14034" lon="4.1546">
        <ele>283.2</ele>
        <time>2026-08-24T13:26:19Z</time>
      </trkpt>
      <trkpt lat="49.14041" lon="4.15464">
        <ele>282.8</ele>
        <time>2026-08-24T13:26:20Z</time>
      </trkpt>
      <trkpt lat="49.14048" lon="4.15468">
        <ele>282.8</ele>
        <time>2026-08-24T13:26:21Z</time>
      </trkpt>
      <trkpt lat="49.14056" lon="4.15471">
        <ele>282.8</ele>
        <time>2026-08-24T13:26:22Z</time>
      </trkpt>
      <trkpt lat="49.14063" lon="4.15474">
        <ele>282.8</ele>
        <time>2026-08-24T13:26:23Z</time>
      </trkpt>
      <trkpt lat="49.14071" lon="4.15477">
        <ele>282.6</ele>
        <time>2026-08-24T13:26:24Z</time>
      </trkpt>
      <trkpt lat="49.14078" lon="4.1548">
        <ele>282.6</ele>
        <time>2026-08-24T13:26:25Z</time>
      </trkpt>
      <trkpt lat="49.14086" lon="4.15483">
        <ele>282.4</ele>
        <time>2026-08-24T13:26:26Z</time>
      </trkpt>
      <trkpt lat="49.14094" lon="4.15486">
        <ele>282.2</ele>
        <time>2026-08-24T13:26:27Z</time>
      </trkpt>
      <trkpt lat="49.14102" lon="4.15489">
        <ele>282</ele>
        <time>2026-08-24T13:26:28Z</time>
      </trkpt>
      <trkpt lat="49.1411" lon="4.15492">
        <ele>282</ele>
        <time>2026-08-24T13:26:29Z</time>
      </trkpt>
      <trkpt lat="49.14118" lon="4.15495">
        <ele>282</ele>
        <time>2026-08-24T13:26:30Z</time>
      </trkpt>
      <trkpt lat="49.14126" lon="4.15499">
        <ele>282</ele>
        <time>2026-08-24T13:26:31Z</time>
      </trkpt>
      <trkpt lat="49.14134" lon="4.15502">
        <ele>281.8</ele>
        <time>2026-08-24T13:26:32Z</time>
      </trkpt>
      <trkpt lat="49.14141" lon="4.15505">
        <ele>281.8</ele>
        <time>2026-08-24T13:26:33Z</time>
      </trkpt>
      <trkpt lat="49.14149" lon="4.15508">
        <ele>281.6</ele>
        <time>2026-08-24T13:26:34Z</time>
      </trkpt>
      <trkpt lat="49.14157" lon="4.15511">
        <ele>281.4</ele>
        <time>2026-08-24T13:26:35Z</time>
      </trkpt>
      <trkpt lat="49.14165" lon="4.15514">
        <ele>281.2</ele>
        <time>2026-08-24T13:26:36Z</time>
      </trkpt>
      <trkpt lat="49.14173" lon="4.15518">
        <ele>281</ele>
        <time>2026-08-24T13:26:37Z</time>
      </trkpt>
      <trkpt lat="49.14181" lon="4.15521">
        <ele>280.8</ele>
        <time>2026-08-24T13:26:38Z</time>
      </trkpt>
      <trkpt lat="49.14189" lon="4.15525">
        <ele>280.4</ele>
        <time>2026-08-24T13:26:39Z</time>
      </trkpt>
      <trkpt lat="49.14197" lon="4.15528">
        <ele>280.2</ele>
        <time>2026-08-24T13:26:40Z</time>
      </trkpt>
      <trkpt lat="49.14205" lon="4.15531">
        <ele>280.2</ele>
        <time>2026-08-24T13:26:41Z</time>
      </trkpt>
      <trkpt lat="49.14213" lon="4.15534">
        <ele>280</ele>
        <time>2026-08-24T13:26:42Z</time>
      </trkpt>
      <trkpt lat="49.14221" lon="4.15537">
        <ele>279.8</ele>
        <time>2026-08-24T13:26:43Z</time>
      </trkpt>
      <trkpt lat="49.14229" lon="4.1554">
        <ele>279.6</ele>
        <time>2026-08-24T13:26:44Z</time>
      </trkpt>
      <trkpt lat="49.14237" lon="4.15544">
        <ele>279.2</ele>
        <time>2026-08-24T13:26:45Z</time>
      </trkpt>
      <trkpt lat="49.14245" lon="4.15547">
        <ele>278.8</ele>
        <time>2026-08-24T13:26:46Z</time>
      </trkpt>
      <trkpt lat="49.14253" lon="4.1555">
        <ele>278.6</ele>
        <time>2026-08-24T13:26:47Z</time>
      </trkpt>
      <trkpt lat="49.14261" lon="4.15554">
        <ele>278.2</ele>
        <time>2026-08-24T13:26:48Z</time>
      </trkpt>
      <trkpt lat="49.14269" lon="4.15557">
        <ele>278</ele>
        <time>2026-08-24T13:26:49Z</time>
      </trkpt>
      <trkpt lat="49.14278" lon="4.1556">
        <ele>277.6</ele>
        <time>2026-08-24T13:26:50Z</time>
      </trkpt>
      <trkpt lat="49.14286" lon="4.15565">
        <ele>277</ele>
        <time>2026-08-24T13:26:51Z</time>
      </trkpt>
      <trkpt lat="49.14294" lon="4.15571">
        <ele>276.8</ele>
        <time>2026-08-24T13:26:52Z</time>
      </trkpt>
      <trkpt lat="49.14302" lon="4.15578">
        <ele>275.8</ele>
        <time>2026-08-24T13:26:53Z</time>
      </trkpt>
      <trkpt lat="49.14309" lon="4.15587">
        <ele>274.4</ele>
        <time>2026-08-24T13:26:54Z</time>
      </trkpt>
      <trkpt lat="49.14316" lon="4.15599">
        <ele>273.2</ele>
        <time>2026-08-24T13:26:55Z</time>
      </trkpt>
      <trkpt lat="49.14322" lon="4.15611">
        <ele>272.8</ele>
        <time>2026-08-24T13:26:56Z</time>
      </trkpt>
      <trkpt lat="49.14329" lon="4.15625">
        <ele>271.4</ele>
        <time>2026-08-24T13:26:57Z</time>
      </trkpt>
      <trkpt lat="49.14336" lon="4.15639">
        <ele>270</ele>
        <time>2026-08-24T13:26:58Z</time>
      </trkpt>
      <trkpt lat="49.14344" lon="4.15654">
        <ele>268.8</ele>
        <time>2026-08-24T13:26:59Z</time>
      </trkpt>
      <trkpt lat="49.1435" lon="4.15669">
        <ele>268</ele>
        <time>2026-08-24T13:27:00Z</time>
      </trkpt>
      <trkpt lat="49.14357" lon="4.15684">
        <ele>267</ele>
        <time>2026-08-24T13:27:01Z</time>
      </trkpt>
      <trkpt lat="49.14364" lon="4.15698">
        <ele>266</ele>
        <time>2026-08-24T13:27:02Z</time>
      </trkpt>
      <trkpt lat="49.14372" lon="4.15711">
        <ele>265</ele>
        <time>2026-08-24T13:27:03Z</time>
      </trkpt>
      <trkpt lat="49.1438" lon="4.15724">
        <ele>264.2</ele>
        <time>2026-08-24T13:27:04Z</time>
      </trkpt>
      <trkpt lat="49.14389" lon="4.15734">
        <ele>263.2</ele>
        <time>2026-08-24T13:27:05Z</time>
      </trkpt>
      <trkpt lat="49.14398" lon="4.15743">
        <ele>262.2</ele>
        <time>2026-08-24T13:27:06Z</time>
      </trkpt>
      <trkpt lat="49.14408" lon="4.1575">
        <ele>261</ele>
        <time>2026-08-24T13:27:07Z</time>
      </trkpt>
      <trkpt lat="49.14419" lon="4.15754">
        <ele>260</ele>
        <time>2026-08-24T13:27:08Z</time>
      </trkpt>
      <trkpt lat="49.14431" lon="4.15756">
        <ele>259</ele>
        <time>2026-08-24T13:27:09Z</time>
      </trkpt>
      <trkpt lat="49.14443" lon="4.15758">
        <ele>257.8</ele>
        <time>2026-08-24T13:27:10Z</time>
      </trkpt>
      <trkpt lat="49.14455" lon="4.15759">
        <ele>256.6</ele>
        <time>2026-08-24T13:27:11Z</time>
      </trkpt>
      <trkpt lat="49.14468" lon="4.15762">
        <ele>255.8</ele>
        <time>2026-08-24T13:27:12Z</time>
      </trkpt>
      <trkpt lat="49.1448" lon="4.15764">
        <ele>254.6</ele>
        <time>2026-08-24T13:27:13Z</time>
      </trkpt>
      <trkpt lat="49.14493" lon="4.15768">
        <ele>253.2</ele>
        <time>2026-08-24T13:27:14Z</time>
      </trkpt>
      <trkpt lat="49.14506" lon="4.15771">
        <ele>251.8</ele>
        <time>2026-08-24T13:27:15Z</time>
      </trkpt>
      <trkpt lat="49.14519" lon="4.15772">
        <ele>250.6</ele>
        <time>2026-08-24T13:27:16Z</time>
      </trkpt>
      <trkpt lat="49.14532" lon="4.15774">
        <ele>249.6</ele>
        <time>2026-08-24T13:27:17Z</time>
      </trkpt>
      <trkpt lat="49.14545" lon="4.15776">
        <ele>248.4</ele>
        <time>2026-08-24T13:27:18Z</time>
      </trkpt>
      <trkpt lat="49.14558" lon="4.15778">
        <ele>247.4</ele>
        <time>2026-08-24T13:27:19Z</time>
      </trkpt>
      <trkpt lat="49.14571" lon="4.15778">
        <ele>246.4</ele>
        <time>2026-08-24T13:27:20Z</time>
      </trkpt>
      <trkpt lat="49.14584" lon="4.15776">
        <ele>245.6</ele>
        <time>2026-08-24T13:27:21Z</time>
      </trkpt>
      <trkpt lat="49.14596" lon="4.15773">
        <ele>244.6</ele>
        <time>2026-08-24T13:27:22Z</time>
      </trkpt>
      <trkpt lat="49.14609" lon="4.15771">
        <ele>243.8</ele>
        <time>2026-08-24T13:27:23Z</time>
      </trkpt>
      <trkpt lat="49.14621" lon="4.15771">
        <ele>243</ele>
        <time>2026-08-24T13:27:24Z</time>
      </trkpt>
      <trkpt lat="49.14633" lon="4.15772">
        <ele>242</ele>
        <time>2026-08-24T13:27:25Z</time>
      </trkpt>
      <trkpt lat="49.14646" lon="4.15775">
        <ele>241</ele>
        <time>2026-08-24T13:27:26Z</time>
      </trkpt>
      <trkpt lat="49.14658" lon="4.15779">
        <ele>240</ele>
        <time>2026-08-24T13:27:27Z</time>
      </trkpt>
      <trkpt lat="49.1467" lon="4.15784">
        <ele>239</ele>
        <time>2026-08-24T13:27:28Z</time>
      </trkpt>
      <trkpt lat="49.14682" lon="4.15789">
        <ele>237.8</ele>
        <time>2026-08-24T13:27:29Z</time>
      </trkpt>
      <trkpt lat="49.14693" lon="4.15795">
        <ele>237</ele>
        <time>2026-08-24T13:27:30Z</time>
      </trkpt>
      <trkpt lat="49.14704" lon="4.15803">
        <ele>236</ele>
        <time>2026-08-24T13:27:31Z</time>
      </trkpt>
      <trkpt lat="49.14713" lon="4.15811">
        <ele>235</ele>
        <time>2026-08-24T13:27:32Z</time>
      </trkpt>
      <trkpt lat="49.14722" lon="4.15821">
        <ele>234.2</ele>
        <time>2026-08-24T13:27:33Z</time>
      </trkpt>
      <trkpt lat="49.14731" lon="4.15833">
        <ele>233.4</ele>
        <time>2026-08-24T13:27:34Z</time>
      </trkpt>
      <trkpt lat="49.1474" lon="4.15846">
        <ele>232.4</ele>
        <time>2026-08-24T13:27:35Z</time>
      </trkpt>
      <trkpt lat="49.14748" lon="4.15858">
        <ele>231.6</ele>
        <time>2026-08-24T13:27:36Z</time>
      </trkpt>
      <trkpt lat="49.14756" lon="4.15869">
        <ele>230.4</ele>
        <time>2026-08-24T13:27:37Z</time>
      </trkpt>
      <trkpt lat="49.14767" lon="4.15877">
        <ele>229.4</ele>
        <time>2026-08-24T13:27:38Z</time>
      </trkpt>
      <trkpt lat="49.14779" lon="4.15883">
        <ele>228.8</ele>
        <time>2026-08-24T13:27:39Z</time>
      </trkpt>
      <trkpt lat="49.14792" lon="4.15886">
        <ele>228</ele>
        <time>2026-08-24T13:27:40Z</time>
      </trkpt>
      <trkpt lat="49.14802" lon="4.15885">
        <ele>227.2</ele>
        <time>2026-08-24T13:27:41Z</time>
      </trkpt>
      <trkpt lat="49.14813" lon="4.15882">
        <ele>226.4</ele>
        <time>2026-08-24T13:27:42Z</time>
      </trkpt>
      <trkpt lat="49.14822" lon="4.15879">
        <ele>225.6</ele>
        <time>2026-08-24T13:27:43Z</time>
      </trkpt>
      <trkpt lat="49.14831" lon="4.15875">
        <ele>224.6</ele>
        <time>2026-08-24T13:27:44Z</time>
      </trkpt>
      <trkpt lat="49.1484" lon="4.15872">
        <ele>223.6</ele>
        <time>2026-08-24T13:27:45Z</time>
      </trkpt>
      <trkpt lat="49.14849" lon="4.15869">
        <ele>222.8</ele>
        <time>2026-08-24T13:27:46Z</time>
      </trkpt>
      <trkpt lat="49.14858" lon="4.15867">
        <ele>222</ele>
        <time>2026-08-24T13:27:47Z</time>
      </trkpt>
      <trkpt lat="49.14868" lon="4.15867">
        <ele>221.4</ele>
        <time>2026-08-24T13:27:48Z</time>
      </trkpt>
      <trkpt lat="49.14877" lon="4.15869">
        <ele>220.4</ele>
        <time>2026-08-24T13:27:49Z</time>
      </trkpt>
      <trkpt lat="49.14887" lon="4.15873">
        <ele>219.4</ele>
        <time>2026-08-24T13:27:50Z</time>
      </trkpt>
      <trkpt lat="49.14896" lon="4.15878">
        <ele>218.4</ele>
        <time>2026-08-24T13:27:51Z</time>
      </trkpt>
      <trkpt lat="49.14905" lon="4.15885">
        <ele>217.4</ele>
        <time>2026-08-24T13:27:52Z</time>
      </trkpt>
      <trkpt lat="49.14913" lon="4.15892">
        <ele>216.6</ele>
        <time>2026-08-24T13:27:53Z</time>
      </trkpt>
      <trkpt lat="49.14921" lon="4.15899">
        <ele>216.2</ele>
        <time>2026-08-24T13:27:54Z</time>
      </trkpt>
      <trkpt lat="49.14929" lon="4.15907">
        <ele>215.6</ele>
        <time>2026-08-24T13:27:55Z</time>
      </trkpt>
      <trkpt lat="49.14936" lon="4.15915">
        <ele>215</ele>
        <time>2026-08-24T13:27:56Z</time>
      </trkpt>
      <trkpt lat="49.14942" lon="4.15924">
        <ele>214.4</ele>
        <time>2026-08-24T13:27:57Z</time>
      </trkpt>
      <trkpt lat="49.14948" lon="4.15933">
        <ele>213.6</ele>
        <time>2026-08-24T13:27:58Z</time>
      </trkpt>
      <trkpt lat="49.14952" lon="4.15942">
        <ele>213</ele>
        <time>2026-08-24T13:27:59Z</time>
      </trkpt>
      <trkpt lat="49.14955" lon="4.15953">
        <ele>212.2</ele>
        <time>2026-08-24T13:28:00Z</time>
      </trkpt>
      <trkpt lat="49.14955" lon="4.15965">
        <ele>211.2</ele>
        <time>2026-08-24T13:28:01Z</time>
      </trkpt>
      <trkpt lat="49.14955" lon="4.15976">
        <ele>210.2</ele>
        <time>2026-08-24T13:28:02Z</time>
      </trkpt>
      <trkpt lat="49.14953" lon="4.15987">
        <ele>209.2</ele>
        <time>2026-08-24T13:28:03Z</time>
      </trkpt>
      <trkpt lat="49.14951" lon="4.15998">
        <ele>208</ele>
        <time>2026-08-24T13:28:04Z</time>
      </trkpt>
      <trkpt lat="49.14949" lon="4.16008">
        <ele>206.8</ele>
        <time>2026-08-24T13:28:05Z</time>
      </trkpt>
      <trkpt lat="49.14947" lon="4.16018">
        <ele>205.8</ele>
        <time>2026-08-24T13:28:06Z</time>
      </trkpt>
      <trkpt lat="49.14945" lon="4.16029">
        <ele>204.8</ele>
        <time>2026-08-24T13:28:07Z</time>
      </trkpt>
      <trkpt lat="49.14944" lon="4.16041">
        <ele>204</ele>
        <time>2026-08-24T13:28:08Z</time>
      </trkpt>
      <trkpt lat="49.14943" lon="4.16054">
        <ele>203.2</ele>
        <time>2026-08-24T13:28:09Z</time>
      </trkpt>
      <trkpt lat="49.14942" lon="4.16067">
        <ele>202.4</ele>
        <time>2026-08-24T13:28:10Z</time>
      </trkpt>
      <trkpt lat="49.14941" lon="4.16081">
        <ele>201.8</ele>
        <time>2026-08-24T13:28:11Z</time>
      </trkpt>
      <trkpt lat="49.1494" lon="4.16096">
        <ele>200.8</ele>
        <time>2026-08-24T13:28:12Z</time>
      </trkpt>
      <trkpt lat="49.14939" lon="4.16111">
        <ele>199.8</ele>
        <time>2026-08-24T13:28:13Z</time>
      </trkpt>
      <trkpt lat="49.14938" lon="4.16125">
        <ele>199</ele>
        <time>2026-08-24T13:28:14Z</time>
      </trkpt>
      <trkpt lat="49.14938" lon="4.16138">
        <ele>198.2</ele>
        <time>2026-08-24T13:28:15Z</time>
      </trkpt>
      <trkpt lat="49.14937" lon="4.16151">
        <ele>197.4</ele>
        <time>2026-08-24T13:28:16Z</time>
      </trkpt>
      <trkpt lat="49.14937" lon="4.16163">
        <ele>197</ele>
        <time>2026-08-24T13:28:17Z</time>
      </trkpt>
      <trkpt lat="49.14937" lon="4.16175">
        <ele>196.6</ele>
        <time>2026-08-24T13:28:18Z</time>
      </trkpt>
      <trkpt lat="49.14937" lon="4.16186">
        <ele>196.4</ele>
        <time>2026-08-24T13:28:19Z</time>
      </trkpt>
      <trkpt lat="49.14937" lon="4.16196">
        <ele>195.8</ele>
        <time>2026-08-24T13:28:20Z</time>
      </trkpt>
      <trkpt lat="49.14938" lon="4.16206">
        <ele>195.2</ele>
        <time>2026-08-24T13:28:21Z</time>
      </trkpt>
      <trkpt lat="49.14938" lon="4.16216">
        <ele>194.8</ele>
        <time>2026-08-24T13:28:22Z</time>
      </trkpt>
      <trkpt lat="49.14938" lon="4.16224">
        <ele>194.2</ele>
        <time>2026-08-24T13:28:23Z</time>
      </trkpt>
      <trkpt lat="49.14939" lon="4.16232">
        <ele>193.8</ele>
        <time>2026-08-24T13:28:24Z</time>
      </trkpt>
      <trkpt lat="49.1494" lon="4.16239">
        <ele>193.4</ele>
        <time>2026-08-24T13:28:25Z</time>
      </trkpt>
      <trkpt lat="49.1494" lon="4.16245">
        <ele>193</ele>
        <time>2026-08-24T13:28:26Z</time>
      </trkpt>
      <trkpt lat="49.14941" lon="4.1625">
        <ele>192.6</ele>
        <time>2026-08-24T13:28:27Z</time>
      </trkpt>
      <trkpt lat="49.14941" lon="4.16254">
        <ele>192.2</ele>
        <time>2026-08-24T13:28:28Z</time>
      </trkpt>
      <trkpt lat="49.14942" lon="4.16257">
        <ele>191.8</ele>
        <time>2026-08-24T13:28:29Z</time>
      </trkpt>
      <trkpt lat="49.14943" lon="4.16259">
        <ele>191.6</ele>
        <time>2026-08-24T13:28:30Z</time>
      </trkpt>
      <trkpt lat="49.14944" lon="4.16262">
        <ele>191.4</ele>
        <time>2026-08-24T13:28:31Z</time>
      </trkpt>
      <trkpt lat="49.14945" lon="4.16264">
        <ele>191.2</ele>
        <time>2026-08-24T13:28:32Z</time>
      </trkpt>
      <trkpt lat="49.14948" lon="4.16265">
        <ele>191</ele>
        <time>2026-08-24T13:28:33Z</time>
      </trkpt>
      <trkpt lat="49.1495" lon="4.16264">
        <ele>191</ele>
        <time>2026-08-24T13:28:34Z</time>
      </trkpt>
      <trkpt lat="49.14953" lon="4.16262">
        <ele>190.8</ele>
        <time>2026-08-24T13:28:35Z</time>
      </trkpt>
      <trkpt lat="49.14955" lon="4.1626">
        <ele>191</ele>
        <time>2026-08-24T13:28:36Z</time>
      </trkpt>
      <trkpt lat="49.14958" lon="4.16257">
        <ele>191</ele>
        <time>2026-08-24T13:28:37Z</time>
      </trkpt>
      <trkpt lat="49.14961" lon="4.16254">
        <ele>191</ele>
        <time>2026-08-24T13:28:38Z</time>
      </trkpt>
      <trkpt lat="49.14963" lon="4.1625">
        <ele>191</ele>
        <time>2026-08-24T13:28:39Z</time>
      </trkpt>
      <trkpt lat="49.14966" lon="4.16246">
        <ele>191</ele>
        <time>2026-08-24T13:28:40Z</time>
      </trkpt>
      <trkpt lat="49.14969" lon="4.16242">
        <ele>191</ele>
        <time>2026-08-24T13:28:41Z</time>
      </trkpt>
      <trkpt lat="49.14972" lon="4.16237">
        <ele>190.8</ele>
        <time>2026-08-24T13:28:42Z</time>
      </trkpt>
      <trkpt lat="49.14976" lon="4.16233">
        <ele>190.8</ele>
        <time>2026-08-24T13:28:43Z</time>
      </trkpt>
      <trkpt lat="49.1498" lon="4.16229">
        <ele>190.8</ele>
        <time>2026-08-24T13:28:44Z</time>
      </trkpt>
      <trkpt lat="49.14984" lon="4.16225">
        <ele>190.6</ele>
        <time>2026-08-24T13:28:45Z</time>
      </trkpt>
      <trkpt lat="49.14989" lon="4.1622">
        <ele>190.6</ele>
        <time>2026-08-24T13:28:46Z</time>
      </trkpt>
      <trkpt lat="49.14993" lon="4.16214">
        <ele>190.4</ele>
        <time>2026-08-24T13:28:47Z</time>
      </trkpt>
      <trkpt lat="49.14997" lon="4.16209">
        <ele>190.6</ele>
        <time>2026-08-24T13:28:48Z</time>
      </trkpt>
      <trkpt lat="49.15001" lon="4.16204">
        <ele>190.2</ele>
        <time>2026-08-24T13:28:49Z</time>
      </trkpt>
      <trkpt lat="49.15006" lon="4.16199">
        <ele>190.2</ele>
        <time>2026-08-24T13:28:50Z</time>
      </trkpt>
      <trkpt lat="49.1501" lon="4.16194">
        <ele>190</ele>
        <time>2026-08-24T13:28:51Z</time>
      </trkpt>
      <trkpt lat="49.15014" lon="4.16189">
        <ele>189.6</ele>
        <time>2026-08-24T13:28:52Z</time>
      </trkpt>
      <trkpt lat="49.15018" lon="4.16184">
        <ele>189.4</ele>
        <time>2026-08-24T13:28:53Z</time>
      </trkpt>
      <trkpt lat="49.15023" lon="4.16178">
        <ele>189.4</ele>
        <time>2026-08-24T13:28:54Z</time>
      </trkpt>
      <trkpt lat="49.15027" lon="4.16173">
        <ele>189.2</ele>
        <time>2026-08-24T13:28:55Z</time>
      </trkpt>
      <trkpt lat="49.15032" lon="4.16167">
        <ele>189.2</ele>
        <time>2026-08-24T13:28:56Z</time>
      </trkpt>
      <trkpt lat="49.15037" lon="4.1616">
        <ele>189</ele>
        <time>2026-08-24T13:28:57Z</time>
      </trkpt>
      <trkpt lat="49.15043" lon="4.16154">
        <ele>189</ele>
        <time>2026-08-24T13:28:58Z</time>
      </trkpt>
      <trkpt lat="49.15048" lon="4.16148">
        <ele>188.8</ele>
        <time>2026-08-24T13:28:59Z</time>
      </trkpt>
      <trkpt lat="49.15053" lon="4.16141">
        <ele>188.6</ele>
        <time>2026-08-24T13:29:00Z</time>
      </trkpt>
      <trkpt lat="49.15058" lon="4.16135">
        <ele>188.6</ele>
        <time>2026-08-24T13:29:01Z</time>
      </trkpt>
      <trkpt lat="49.15064" lon="4.16128">
        <ele>188.6</ele>
        <time>2026-08-24T13:29:02Z</time>
      </trkpt>
      <trkpt lat="49.1507" lon="4.16122">
        <ele>188.6</ele>
        <time>2026-08-24T13:29:03Z</time>
      </trkpt>
      <trkpt lat="49.15076" lon="4.16116">
        <ele>188.6</ele>
        <time>2026-08-24T13:29:04Z</time>
      </trkpt>
      <trkpt lat="49.15082" lon="4.1611">
        <ele>188.4</ele>
        <time>2026-08-24T13:29:05Z</time>
      </trkpt>
      <trkpt lat="49.15089" lon="4.16104">
        <ele>188.4</ele>
        <time>2026-08-24T13:29:06Z</time>
      </trkpt>
      <trkpt lat="49.15096" lon="4.16098">
        <ele>188.4</ele>
        <time>2026-08-24T13:29:07Z</time>
      </trkpt>
      <trkpt lat="49.15103" lon="4.16092">
        <ele>188.4</ele>
        <time>2026-08-24T13:29:08Z</time>
      </trkpt>
      <trkpt lat="49.15109" lon="4.16087">
        <ele>188.2</ele>
        <time>2026-08-24T13:29:09Z</time>
      </trkpt>
      <trkpt lat="49.15116" lon="4.16081">
        <ele>188.2</ele>
        <time>2026-08-24T13:29:10Z</time>
      </trkpt>
      <trkpt lat="49.15123" lon="4.16076">
        <ele>188.2</ele>
        <time>2026-08-24T13:29:11Z</time>
      </trkpt>
      <trkpt lat="49.1513" lon="4.1607">
        <ele>188</ele>
        <time>2026-08-24T13:29:12Z</time>
      </trkpt>
      <trkpt lat="49.15136" lon="4.16063">
        <ele>188</ele>
        <time>2026-08-24T13:29:13Z</time>
      </trkpt>
      <trkpt lat="49.15142" lon="4.16056">
        <ele>188</ele>
        <time>2026-08-24T13:29:14Z</time>
      </trkpt>
      <trkpt lat="49.15148" lon="4.16048">
        <ele>188</ele>
        <time>2026-08-24T13:29:15Z</time>
      </trkpt>
      <trkpt lat="49.15154" lon="4.16039">
        <ele>187.8</ele>
        <time>2026-08-24T13:29:16Z</time>
      </trkpt>
      <trkpt lat="49.1516" lon="4.1603">
        <ele>187.6</ele>
        <time>2026-08-24T13:29:17Z</time>
      </trkpt>
      <trkpt lat="49.15165" lon="4.16019">
        <ele>187.4</ele>
        <time>2026-08-24T13:29:18Z</time>
      </trkpt>
      <trkpt lat="49.1517" lon="4.16007">
        <ele>187</ele>
        <time>2026-08-24T13:29:19Z</time>
      </trkpt>
      <trkpt lat="49.15173" lon="4.15995">
        <ele>186.6</ele>
        <time>2026-08-24T13:29:20Z</time>
      </trkpt>
      <trkpt lat="49.15174" lon="4.1598">
        <ele>186</ele>
        <time>2026-08-24T13:29:21Z</time>
      </trkpt>
      <trkpt lat="49.15173" lon="4.15966">
        <ele>185</ele>
        <time>2026-08-24T13:29:22Z</time>
      </trkpt>
      <trkpt lat="49.15169" lon="4.15951">
        <ele>184</ele>
        <time>2026-08-24T13:29:23Z</time>
      </trkpt>
      <trkpt lat="49.15165" lon="4.15936">
        <ele>183.2</ele>
        <time>2026-08-24T13:29:24Z</time>
      </trkpt>
      <trkpt lat="49.1516" lon="4.15921">
        <ele>182.8</ele>
        <time>2026-08-24T13:29:25Z</time>
      </trkpt>
      <trkpt lat="49.15155" lon="4.15906">
        <ele>181.8</ele>
        <time>2026-08-24T13:29:26Z</time>
      </trkpt>
      <trkpt lat="49.1515" lon="4.15891">
        <ele>181.4</ele>
        <time>2026-08-24T13:29:27Z</time>
      </trkpt>
      <trkpt lat="49.15144" lon="4.15876">
        <ele>180.2</ele>
        <time>2026-08-24T13:29:28Z</time>
      </trkpt>
      <trkpt lat="49.15139" lon="4.1586">
        <ele>179.2</ele>
        <time>2026-08-24T13:29:29Z</time>
      </trkpt>
      <trkpt lat="49.15132" lon="4.15845">
        <ele>178.6</ele>
        <time>2026-08-24T13:29:30Z</time>
      </trkpt>
      <trkpt lat="49.15126" lon="4.15829">
        <ele>178</ele>
        <time>2026-08-24T13:29:31Z</time>
      </trkpt>
      <trkpt lat="49.15121" lon="4.15813">
        <ele>177.4</ele>
        <time>2026-08-24T13:29:32Z</time>
      </trkpt>
      <trkpt lat="49.15117" lon="4.15798">
        <ele>177</ele>
        <time>2026-08-24T13:29:33Z</time>
      </trkpt>
      <trkpt lat="49.15115" lon="4.15782">
        <ele>176.6</ele>
        <time>2026-08-24T13:29:34Z</time>
      </trkpt>
      <trkpt lat="49.15116" lon="4.15766">
        <ele>176.4</ele>
        <time>2026-08-24T13:29:35Z</time>
      </trkpt>
      <trkpt lat="49.15119" lon="4.15751">
        <ele>176</ele>
        <time>2026-08-24T13:29:36Z</time>
      </trkpt>
      <trkpt lat="49.15124" lon="4.15738">
        <ele>176</ele>
        <time>2026-08-24T13:29:37Z</time>
      </trkpt>
      <trkpt lat="49.1513" lon="4.15728">
        <ele>176</ele>
        <time>2026-08-24T13:29:38Z</time>
      </trkpt>
      <trkpt lat="49.15137" lon="4.15718">
        <ele>176.4</ele>
        <time>2026-08-24T13:29:39Z</time>
      </trkpt>
      <trkpt lat="49.15143" lon="4.1571">
        <ele>176.6</ele>
        <time>2026-08-24T13:29:40Z</time>
      </trkpt>
      <trkpt lat="49.15149" lon="4.15702">
        <ele>176.8</ele>
        <time>2026-08-24T13:29:41Z</time>
      </trkpt>
      <trkpt lat="49.15155" lon="4.15694">
        <ele>177.2</ele>
        <time>2026-08-24T13:29:42Z</time>
      </trkpt>
      <trkpt lat="49.1516" lon="4.15687">
        <ele>177.6</ele>
        <time>2026-08-24T13:29:43Z</time>
      </trkpt>
      <trkpt lat="49.15165" lon="4.1568">
        <ele>178</ele>
        <time>2026-08-24T13:29:44Z</time>
      </trkpt>
      <trkpt lat="49.1517" lon="4.15674">
        <ele>178.4</ele>
        <time>2026-08-24T13:29:45Z</time>
      </trkpt>
      <trkpt lat="49.15174" lon="4.15668">
        <ele>179</ele>
        <time>2026-08-24T13:29:46Z</time>
      </trkpt>
      <trkpt lat="49.15178" lon="4.15663">
        <ele>179.4</ele>
        <time>2026-08-24T13:29:47Z</time>
      </trkpt>
      <trkpt lat="49.15182" lon="4.15658">
        <ele>180</ele>
        <time>2026-08-24T13:29:48Z</time>
      </trkpt>
      <trkpt lat="49.15185" lon="4.15654">
        <ele>180.6</ele>
        <time>2026-08-24T13:29:49Z</time>
      </trkpt>
      <trkpt lat="49.15188" lon="4.1565">
        <ele>181</ele>
        <time>2026-08-24T13:29:50Z</time>
      </trkpt>
      <trkpt lat="49.15191" lon="4.15647">
        <ele>181.4</ele>
        <time>2026-08-24T13:29:51Z</time>
      </trkpt>
      <trkpt lat="49.15194" lon="4.15643">
        <ele>182</ele>
        <time>2026-08-24T13:29:52Z</time>
      </trkpt>
      <trkpt lat="49.15197" lon="4.15641">
        <ele>182.4</ele>
        <time>2026-08-24T13:29:53Z</time>
      </trkpt>
      <trkpt lat="49.152" lon="4.15638">
        <ele>182.6</ele>
        <time>2026-08-24T13:29:54Z</time>
      </trkpt>
      <trkpt lat="49.15203" lon="4.15636">
        <ele>183</ele>
        <time>2026-08-24T13:29:55Z</time>
      </trkpt>
      <trkpt lat="49.15206" lon="4.15634">
        <ele>183.2</ele>
        <time>2026-08-24T13:29:56Z</time>
      </trkpt>
      <trkpt lat="49.15209" lon="4.15632">
        <ele>183.6</ele>
        <time>2026-08-24T13:29:57Z</time>
      </trkpt>
      <trkpt lat="49.15213" lon="4.15631">
        <ele>183.8</ele>
        <time>2026-08-24T13:29:58Z</time>
      </trkpt>
      <trkpt lat="49.15216" lon="4.15629">
        <ele>184.2</ele>
        <time>2026-08-24T13:29:59Z</time>
      </trkpt>
      <trkpt lat="49.15219" lon="4.15628">
        <ele>184.6</ele>
        <time>2026-08-24T13:30:00Z</time>
      </trkpt>
      <trkpt lat="49.15221" lon="4.15627">
        <ele>184.8</ele>
        <time>2026-08-24T13:30:01Z</time>
      </trkpt>
      <trkpt lat="49.15224" lon="4.15627">
        <ele>185.2</ele>
        <time>2026-08-24T13:30:02Z</time>
      </trkpt>
      <trkpt lat="49.15226" lon="4.15626">
        <ele>185.6</ele>
        <time>2026-08-24T13:30:03Z</time>
      </trkpt>
      <trkpt lat="49.15229" lon="4.15625">
        <ele>186</ele>
        <time>2026-08-24T13:30:04Z</time>
      </trkpt>
      <trkpt lat="49.15231" lon="4.15624">
        <ele>186.2</ele>
        <time>2026-08-24T13:30:05Z</time>
      </trkpt>
      <trkpt lat="49.15234" lon="4.15623">
        <ele>186.6</ele>
        <time>2026-08-24T13:30:06Z</time>
      </trkpt>
      <trkpt lat="49.15236" lon="4.15622">
        <ele>186.8</ele>
        <time>2026-08-24T13:30:07Z</time>
      </trkpt>
      <trkpt lat="49.15239" lon="4.15621">
        <ele>187</ele>
        <time>2026-08-24T13:30:08Z</time>
      </trkpt>
      <trkpt lat="49.15242" lon="4.1562">
        <ele>187.2</ele>
        <time>2026-08-24T13:30:09Z</time>
      </trkpt>
      <trkpt lat="49.15244" lon="4.15618">
        <ele>187.4</ele>
        <time>2026-08-24T13:30:10Z</time>
      </trkpt>
      <trkpt lat="49.15247" lon="4.15617">
        <ele>187.6</ele>
        <time>2026-08-24T13:30:11Z</time>
      </trkpt>
      <trkpt lat="49.1525" lon="4.15615">
        <ele>187.8</ele>
        <time>2026-08-24T13:30:12Z</time>
      </trkpt>
      <trkpt lat="49.15252" lon="4.15613">
        <ele>188</ele>
        <time>2026-08-24T13:30:13Z</time>
      </trkpt>
      <trkpt lat="49.15255" lon="4.15611">
        <ele>188.4</ele>
        <time>2026-08-24T13:30:14Z</time>
      </trkpt>
      <trkpt lat="49.15257" lon="4.15608">
        <ele>188.4</ele>
        <time>2026-08-24T13:30:15Z</time>
      </trkpt>
      <trkpt lat="49.1526" lon="4.15606">
        <ele>188.6</ele>
        <time>2026-08-24T13:30:16Z</time>
      </trkpt>
      <trkpt lat="49.15263" lon="4.15603">
        <ele>188.8</ele>
        <time>2026-08-24T13:30:17Z</time>
      </trkpt>
      <trkpt lat="49.15265" lon="4.15601">
        <ele>188.8</ele>
        <time>2026-08-24T13:30:18Z</time>
      </trkpt>
      <trkpt lat="49.15268" lon="4.15598">
        <ele>189</ele>
        <time>2026-08-24T13:30:19Z</time>
      </trkpt>
      <trkpt lat="49.1527" lon="4.15596">
        <ele>189.2</ele>
        <time>2026-08-24T13:30:20Z</time>
      </trkpt>
      <trkpt lat="49.15273" lon="4.15593">
        <ele>189.4</ele>
        <time>2026-08-24T13:30:21Z</time>
      </trkpt>
      <trkpt lat="49.15276" lon="4.1559">
        <ele>189.6</ele>
        <time>2026-08-24T13:30:22Z</time>
      </trkpt>
      <trkpt lat="49.15278" lon="4.15588">
        <ele>189.8</ele>
        <time>2026-08-24T13:30:23Z</time>
      </trkpt>
      <trkpt lat="49.15281" lon="4.15585">
        <ele>189.8</ele>
        <time>2026-08-24T13:30:24Z</time>
      </trkpt>
      <trkpt lat="49.15284" lon="4.15583">
        <ele>190</ele>
        <time>2026-08-24T13:30:25Z</time>
      </trkpt>
      <trkpt lat="49.15286" lon="4.1558">
        <ele>190.2</ele>
        <time>2026-08-24T13:30:26Z</time>
      </trkpt>
      <trkpt lat="49.15288" lon="4.15578">
        <ele>190.4</ele>
        <time>2026-08-24T13:30:27Z</time>
      </trkpt>
      <trkpt lat="49.1529" lon="4.15575">
        <ele>190.6</ele>
        <time>2026-08-24T13:30:28Z</time>
      </trkpt>
      <trkpt lat="49.15293" lon="4.15573">
        <ele>190.8</ele>
        <time>2026-08-24T13:30:29Z</time>
      </trkpt>
      <trkpt lat="49.15295" lon="4.1557">
        <ele>190.8</ele>
        <time>2026-08-24T13:30:30Z</time>
      </trkpt>
      <trkpt lat="49.15297" lon="4.15568">
        <ele>191</ele>
        <time>2026-08-24T13:30:31Z</time>
      </trkpt>
      <trkpt lat="49.153" lon="4.15565">
        <ele>191.2</ele>
        <time>2026-08-24T13:30:32Z</time>
      </trkpt>
      <trkpt lat="49.15303" lon="4.15563">
        <ele>191.4</ele>
        <time>2026-08-24T13:30:33Z</time>
      </trkpt>
      <trkpt lat="49.15305" lon="4.15561">
        <ele>191.6</ele>
        <time>2026-08-24T13:30:34Z</time>
      </trkpt>
      <trkpt lat="49.15308" lon="4.15558">
        <ele>191.8</ele>
        <time>2026-08-24T13:30:35Z</time>
      </trkpt>
      <trkpt lat="49.1531" lon="4.15556">
        <ele>192</ele>
        <time>2026-08-24T13:30:36Z</time>
      </trkpt>
      <trkpt lat="49.15313" lon="4.15553">
        <ele>192.2</ele>
        <time>2026-08-24T13:30:37Z</time>
      </trkpt>
      <trkpt lat="49.15315" lon="4.15551">
        <ele>192.4</ele>
        <time>2026-08-24T13:30:38Z</time>
      </trkpt>
      <trkpt lat="49.15317" lon="4.15548">
        <ele>192.6</ele>
        <time>2026-08-24T13:30:39Z</time>
      </trkpt>
      <trkpt lat="49.1532" lon="4.15545">
        <ele>192.8</ele>
        <time>2026-08-24T13:30:40Z</time>
      </trkpt>
      <trkpt lat="49.15323" lon="4.15543">
        <ele>193</ele>
        <time>2026-08-24T13:30:41Z</time>
      </trkpt>
      <trkpt lat="49.15325" lon="4.1554">
        <ele>193.2</ele>
        <time>2026-08-24T13:30:42Z</time>
      </trkpt>
      <trkpt lat="49.15328" lon="4.15537">
        <ele>193.4</ele>
        <time>2026-08-24T13:30:43Z</time>
      </trkpt>
      <trkpt lat="49.1533" lon="4.15535">
        <ele>193.4</ele>
        <time>2026-08-24T13:30:44Z</time>
      </trkpt>
      <trkpt lat="49.15332" lon="4.15532">
        <ele>193.6</ele>
        <time>2026-08-24T13:30:45Z</time>
      </trkpt>
      <trkpt lat="49.15335" lon="4.15529">
        <ele>193.6</ele>
        <time>2026-08-24T13:30:46Z</time>
      </trkpt>
      <trkpt lat="49.15337" lon="4.15527">
        <ele>193.8</ele>
        <time>2026-08-24T13:30:47Z</time>
      </trkpt>
      <trkpt lat="49.15339" lon="4.15524">
        <ele>193.8</ele>
        <time>2026-08-24T13:30:48Z</time>
      </trkpt>
      <trkpt lat="49.15342" lon="4.15521">
        <ele>194</ele>
        <time>2026-08-24T13:30:49Z</time>
      </trkpt>
      <trkpt lat="49.15344" lon="4.15519">
        <ele>194.2</ele>
        <time>2026-08-24T13:30:50Z</time>
      </trkpt>
      <trkpt lat="49.15346" lon="4.15516">
        <ele>194.4</ele>
        <time>2026-08-24T13:30:51Z</time>
      </trkpt>
      <trkpt lat="49.15348" lon="4.15513">
        <ele>194.6</ele>
        <time>2026-08-24T13:30:52Z</time>
      </trkpt>
      <trkpt lat="49.15351" lon="4.1551">
        <ele>194.8</ele>
        <time>2026-08-24T13:30:53Z</time>
      </trkpt>
      <trkpt lat="49.15353" lon="4.15507">
        <ele>194.8</ele>
        <time>2026-08-24T13:30:54Z</time>
      </trkpt>
      <trkpt lat="49.15356" lon="4.15505">
        <ele>195</ele>
        <time>2026-08-24T13:30:55Z</time>
      </trkpt>
      <trkpt lat="49.15358" lon="4.15502">
        <ele>195.2</ele>
        <time>2026-08-24T13:30:56Z</time>
      </trkpt>
      <trkpt lat="49.1536" lon="4.15499">
        <ele>195.4</ele>
        <time>2026-08-24T13:30:57Z</time>
      </trkpt>
      <trkpt lat="49.15362" lon="4.15497">
        <ele>195.6</ele>
        <time>2026-08-24T13:30:58Z</time>
      </trkpt>
      <trkpt lat="49.15364" lon="4.15494">
        <ele>195.8</ele>
        <time>2026-08-24T13:30:59Z</time>
      </trkpt>
      <trkpt lat="49.15366" lon="4.15491">
        <ele>195.8</ele>
        <time>2026-08-24T13:31:00Z</time>
      </trkpt>
      <trkpt lat="49.15369" lon="4.15488">
        <ele>196</ele>
        <time>2026-08-24T13:31:01Z</time>
      </trkpt>
      <trkpt lat="49.15371" lon="4.15485">
        <ele>196.2</ele>
        <time>2026-08-24T13:31:02Z</time>
      </trkpt>
      <trkpt lat="49.15373" lon="4.15482">
        <ele>196.4</ele>
        <time>2026-08-24T13:31:03Z</time>
      </trkpt>
      <trkpt lat="49.15375" lon="4.15478">
        <ele>196.6</ele>
        <time>2026-08-24T13:31:04Z</time>
      </trkpt>
      <trkpt lat="49.15378" lon="4.15475">
        <ele>196.8</ele>
        <time>2026-08-24T13:31:05Z</time>
      </trkpt>
      <trkpt lat="49.1538" lon="4.15472">
        <ele>197</ele>
        <time>2026-08-24T13:31:06Z</time>
      </trkpt>
      <trkpt lat="49.15382" lon="4.15469">
        <ele>197.2</ele>
        <time>2026-08-24T13:31:07Z</time>
      </trkpt>
      <trkpt lat="49.15385" lon="4.15466">
        <ele>197.4</ele>
        <time>2026-08-24T13:31:08Z</time>
      </trkpt>
      <trkpt lat="49.15387" lon="4.15462">
        <ele>197.6</ele>
        <time>2026-08-24T13:31:09Z</time>
      </trkpt>
      <trkpt lat="49.15389" lon="4.15459">
        <ele>197.6</ele>
        <time>2026-08-24T13:31:10Z</time>
      </trkpt>
      <trkpt lat="49.15392" lon="4.15456">
        <ele>197.8</ele>
        <time>2026-08-24T13:31:11Z</time>
      </trkpt>
      <trkpt lat="49.15394" lon="4.15452">
        <ele>198</ele>
        <time>2026-08-24T13:31:12Z</time>
      </trkpt>
      <trkpt lat="49.15396" lon="4.15449">
        <ele>198.2</ele>
        <time>2026-08-24T13:31:13Z</time>
      </trkpt>
      <trkpt lat="49.15398" lon="4.15445">
        <ele>198.2</ele>
        <time>2026-08-24T13:31:14Z</time>
      </trkpt>
      <trkpt lat="49.15401" lon="4.15442">
        <ele>198.4</ele>
        <time>2026-08-24T13:31:15Z</time>
      </trkpt>
      <trkpt lat="49.15403" lon="4.15438">
        <ele>198.6</ele>
        <time>2026-08-24T13:31:16Z</time>
      </trkpt>
      <trkpt lat="49.15406" lon="4.15435">
        <ele>199</ele>
        <time>2026-08-24T13:31:17Z</time>
      </trkpt>
      <trkpt lat="49.15408" lon="4.15432">
        <ele>199</ele>
        <time>2026-08-24T13:31:18Z</time>
      </trkpt>
      <trkpt lat="49.15411" lon="4.15428">
        <ele>199</ele>
        <time>2026-08-24T13:31:19Z</time>
      </trkpt>
      <trkpt lat="49.15414" lon="4.15425">
        <ele>199.2</ele>
        <time>2026-08-24T13:31:20Z</time>
      </trkpt>
      <trkpt lat="49.15417" lon="4.15422">
        <ele>199.4</ele>
        <time>2026-08-24T13:31:21Z</time>
      </trkpt>
      <trkpt lat="49.1542" lon="4.15418">
        <ele>199.4</ele>
        <time>2026-08-24T13:31:22Z</time>
      </trkpt>
      <trkpt lat="49.15423" lon="4.15415">
        <ele>199.8</ele>
        <time>2026-08-24T13:31:23Z</time>
      </trkpt>
      <trkpt lat="49.15426" lon="4.15412">
        <ele>200</ele>
        <time>2026-08-24T13:31:24Z</time>
      </trkpt>
      <trkpt lat="49.15429" lon="4.15409">
        <ele>200.2</ele>
        <time>2026-08-24T13:31:25Z</time>
      </trkpt>
      <trkpt lat="49.15432" lon="4.15406">
        <ele>200.2</ele>
        <time>2026-08-24T13:31:26Z</time>
      </trkpt>
      <trkpt lat="49.15435" lon="4.15404">
        <ele>200.4</ele>
        <time>2026-08-24T13:31:27Z</time>
      </trkpt>
      <trkpt lat="49.15438" lon="4.15402">
        <ele>200.6</ele>
        <time>2026-08-24T13:31:28Z</time>
      </trkpt>
      <trkpt lat="49.15441" lon="4.154">
        <ele>200.8</ele>
        <time>2026-08-24T13:31:29Z</time>
      </trkpt>
      <trkpt lat="49.15444" lon="4.15398">
        <ele>201</ele>
        <time>2026-08-24T13:31:30Z</time>
      </trkpt>
      <trkpt lat="49.15448" lon="4.15396">
        <ele>201.2</ele>
        <time>2026-08-24T13:31:31Z</time>
      </trkpt>
      <trkpt lat="49.15451" lon="4.15394">
        <ele>201.4</ele>
        <time>2026-08-24T13:31:32Z</time>
      </trkpt>
      <trkpt lat="49.15454" lon="4.15393">
        <ele>201.4</ele>
        <time>2026-08-24T13:31:33Z</time>
      </trkpt>
      <trkpt lat="49.15458" lon="4.15393">
        <ele>201.6</ele>
        <time>2026-08-24T13:31:34Z</time>
      </trkpt>
      <trkpt lat="49.15461" lon="4.15392">
        <ele>201.8</ele>
        <time>2026-08-24T13:31:35Z</time>
      </trkpt>
      <trkpt lat="49.15465" lon="4.15391">
        <ele>201.8</ele>
        <time>2026-08-24T13:31:36Z</time>
      </trkpt>
      <trkpt lat="49.15468" lon="4.15391">
        <ele>201.8</ele>
        <time>2026-08-24T13:31:37Z</time>
      </trkpt>
      <trkpt lat="49.15472" lon="4.15391">
        <ele>202</ele>
        <time>2026-08-24T13:31:38Z</time>
      </trkpt>
      <trkpt lat="49.15475" lon="4.15391">
        <ele>202.2</ele>
        <time>2026-08-24T13:31:39Z</time>
      </trkpt>
      <trkpt lat="49.15479" lon="4.15392">
        <ele>202.2</ele>
        <time>2026-08-24T13:31:40Z</time>
      </trkpt>
      <trkpt lat="49.15482" lon="4.15392">
        <ele>202.4</ele>
        <time>2026-08-24T13:31:41Z</time>
      </trkpt>
      <trkpt lat="49.15485" lon="4.15393">
        <ele>202.6</ele>
        <time>2026-08-24T13:31:42Z</time>
      </trkpt>
      <trkpt lat="49.15489" lon="4.15393">
        <ele>202.8</ele>
        <time>2026-08-24T13:31:43Z</time>
      </trkpt>
      <trkpt lat="49.15492" lon="4.15394">
        <ele>203</ele>
        <time>2026-08-24T13:31:44Z</time>
      </trkpt>
      <trkpt lat="49.15495" lon="4.15395">
        <ele>203.2</ele>
        <time>2026-08-24T13:31:45Z</time>
      </trkpt>
      <trkpt lat="49.15498" lon="4.15396">
        <ele>203.4</ele>
        <time>2026-08-24T13:31:46Z</time>
      </trkpt>
      <trkpt lat="49.15502" lon="4.15397">
        <ele>203.6</ele>
        <time>2026-08-24T13:31:47Z</time>
      </trkpt>
      <trkpt lat="49.15505" lon="4.15398">
        <ele>204</ele>
        <time>2026-08-24T13:31:48Z</time>
      </trkpt>
      <trkpt lat="49.15508" lon="4.15399">
        <ele>204.2</ele>
        <time>2026-08-24T13:31:49Z</time>
      </trkpt>
      <trkpt lat="49.15511" lon="4.154">
        <ele>204.6</ele>
        <time>2026-08-24T13:31:50Z</time>
      </trkpt>
      <trkpt lat="49.15514" lon="4.154">
        <ele>205</ele>
        <time>2026-08-24T13:31:51Z</time>
      </trkpt>
      <trkpt lat="49.15517" lon="4.15401">
        <ele>205.2</ele>
        <time>2026-08-24T13:31:52Z</time>
      </trkpt>
      <trkpt lat="49.1552" lon="4.15402">
        <ele>205.4</ele>
        <time>2026-08-24T13:31:53Z</time>
      </trkpt>
      <trkpt lat="49.15523" lon="4.15402">
        <ele>205.8</ele>
        <time>2026-08-24T13:31:54Z</time>
      </trkpt>
      <trkpt lat="49.15526" lon="4.15402">
        <ele>206</ele>
        <time>2026-08-24T13:31:55Z</time>
      </trkpt>
      <trkpt lat="49.15529" lon="4.15402">
        <ele>206.2</ele>
        <time>2026-08-24T13:31:56Z</time>
      </trkpt>
      <trkpt lat="49.15532" lon="4.15402">
        <ele>206.4</ele>
        <time>2026-08-24T13:31:57Z</time>
      </trkpt>
      <trkpt lat="49.15536" lon="4.15402">
        <ele>206.4</ele>
        <time>2026-08-24T13:31:58Z</time>
      </trkpt>
      <trkpt lat="49.15539" lon="4.15402">
        <ele>206.6</ele>
        <time>2026-08-24T13:31:59Z</time>
      </trkpt>
      <trkpt lat="49.15543" lon="4.15401">
        <ele>206.6</ele>
        <time>2026-08-24T13:32:00Z</time>
      </trkpt>
      <trkpt lat="49.15546" lon="4.154">
        <ele>206.8</ele>
        <time>2026-08-24T13:32:01Z</time>
      </trkpt>
      <trkpt lat="49.1555" lon="4.15399">
        <ele>206.8</ele>
        <time>2026-08-24T13:32:02Z</time>
      </trkpt>
      <trkpt lat="49.15553" lon="4.15397">
        <ele>207</ele>
        <time>2026-08-24T13:32:03Z</time>
      </trkpt>
      <trkpt lat="49.15556" lon="4.15395">
        <ele>207.2</ele>
        <time>2026-08-24T13:32:04Z</time>
      </trkpt>
      <trkpt lat="49.15559" lon="4.15393">
        <ele>207.4</ele>
        <time>2026-08-24T13:32:05Z</time>
      </trkpt>
      <trkpt lat="49.15562" lon="4.1539">
        <ele>207.6</ele>
        <time>2026-08-24T13:32:06Z</time>
      </trkpt>
      <trkpt lat="49.15564" lon="4.15387">
        <ele>207.8</ele>
        <time>2026-08-24T13:32:07Z</time>
      </trkpt>
      <trkpt lat="49.15567" lon="4.15383">
        <ele>207.8</ele>
        <time>2026-08-24T13:32:08Z</time>
      </trkpt>
      <trkpt lat="49.1557" lon="4.15379">
        <ele>208</ele>
        <time>2026-08-24T13:32:09Z</time>
      </trkpt>
      <trkpt lat="49.15572" lon="4.15375">
        <ele>208.2</ele>
        <time>2026-08-24T13:32:10Z</time>
      </trkpt>
      <trkpt lat="49.15574" lon="4.15371">
        <ele>208.4</ele>
        <time>2026-08-24T13:32:11Z</time>
      </trkpt>
      <trkpt lat="49.15576" lon="4.15366">
        <ele>208.6</ele>
        <time>2026-08-24T13:32:12Z</time>
      </trkpt>
      <trkpt lat="49.15578" lon="4.15362">
        <ele>208.8</ele>
        <time>2026-08-24T13:32:13Z</time>
      </trkpt>
      <trkpt lat="49.15581" lon="4.15357">
        <ele>209</ele>
        <time>2026-08-24T13:32:14Z</time>
      </trkpt>
      <trkpt lat="49.15583" lon="4.15353">
        <ele>209</ele>
        <time>2026-08-24T13:32:15Z</time>
      </trkpt>
      <trkpt lat="49.15584" lon="4.15348">
        <ele>209.2</ele>
        <time>2026-08-24T13:32:16Z</time>
      </trkpt>
      <trkpt lat="49.15586" lon="4.15343">
        <ele>209.2</ele>
        <time>2026-08-24T13:32:17Z</time>
      </trkpt>
      <trkpt lat="49.15588" lon="4.15338">
        <ele>209.4</ele>
        <time>2026-08-24T13:32:18Z</time>
      </trkpt>
      <trkpt lat="49.1559" lon="4.15333">
        <ele>209.6</ele>
        <time>2026-08-24T13:32:19Z</time>
      </trkpt>
      <trkpt lat="49.15592" lon="4.15328">
        <ele>209.8</ele>
        <time>2026-08-24T13:32:20Z</time>
      </trkpt>
      <trkpt lat="49.15593" lon="4.15323">
        <ele>210</ele>
        <time>2026-08-24T13:32:21Z</time>
      </trkpt>
      <trkpt lat="49.15595" lon="4.15318">
        <ele>210.2</ele>
        <time>2026-08-24T13:32:22Z</time>
      </trkpt>
      <trkpt lat="49.15596" lon="4.15312">
        <ele>210.2</ele>
        <time>2026-08-24T13:32:23Z</time>
      </trkpt>
      <trkpt lat="49.15598" lon="4.15306">
        <ele>210.4</ele>
        <time>2026-08-24T13:32:24Z</time>
      </trkpt>
      <trkpt lat="49.15599" lon="4.15301">
        <ele>210.6</ele>
        <time>2026-08-24T13:32:25Z</time>
      </trkpt>
      <trkpt lat="49.156" lon="4.15295">
        <ele>210.8</ele>
        <time>2026-08-24T13:32:26Z</time>
      </trkpt>
      <trkpt lat="49.15601" lon="4.15289">
        <ele>211</ele>
        <time>2026-08-24T13:32:27Z</time>
      </trkpt>
      <trkpt lat="49.15602" lon="4.15283">
        <ele>211.2</ele>
        <time>2026-08-24T13:32:28Z</time>
      </trkpt>
      <trkpt lat="49.15603" lon="4.15278">
        <ele>211.2</ele>
        <time>2026-08-24T13:32:29Z</time>
      </trkpt>
      <trkpt lat="49.15604" lon="4.15272">
        <ele>211.4</ele>
        <time>2026-08-24T13:32:30Z</time>
      </trkpt>
      <trkpt lat="49.15604" lon="4.15265">
        <ele>211.6</ele>
        <time>2026-08-24T13:32:31Z</time>
      </trkpt>
      <trkpt lat="49.15604" lon="4.15259">
        <ele>212</ele>
        <time>2026-08-24T13:32:32Z</time>
      </trkpt>
      <trkpt lat="49.15604" lon="4.15253">
        <ele>212.2</ele>
        <time>2026-08-24T13:32:33Z</time>
      </trkpt>
      <trkpt lat="49.15604" lon="4.15247">
        <ele>212.4</ele>
        <time>2026-08-24T13:32:34Z</time>
      </trkpt>
      <trkpt lat="49.15604" lon="4.15241">
        <ele>212.6</ele>
        <time>2026-08-24T13:32:35Z</time>
      </trkpt>
      <trkpt lat="49.15604" lon="4.15235">
        <ele>212.8</ele>
        <time>2026-08-24T13:32:36Z</time>
      </trkpt>
      <trkpt lat="49.15603" lon="4.15229">
        <ele>212.8</ele>
        <time>2026-08-24T13:32:37Z</time>
      </trkpt>
      <trkpt lat="49.15603" lon="4.15223">
        <ele>213.2</ele>
        <time>2026-08-24T13:32:38Z</time>
      </trkpt>
      <trkpt lat="49.15602" lon="4.15218">
        <ele>213.4</ele>
        <time>2026-08-24T13:32:39Z</time>
      </trkpt>
      <trkpt lat="49.15602" lon="4.15212">
        <ele>213.6</ele>
        <time>2026-08-24T13:32:40Z</time>
      </trkpt>
      <trkpt lat="49.15601" lon="4.15206">
        <ele>213.8</ele>
        <time>2026-08-24T13:32:41Z</time>
      </trkpt>
      <trkpt lat="49.156" lon="4.152">
        <ele>214</ele>
        <time>2026-08-24T13:32:42Z</time>
      </trkpt>
      <trkpt lat="49.15599" lon="4.15194">
        <ele>214.2</ele>
        <time>2026-08-24T13:32:43Z</time>
      </trkpt>
      <trkpt lat="49.15598" lon="4.15188">
        <ele>214.6</ele>
        <time>2026-08-24T13:32:44Z</time>
      </trkpt>
      <trkpt lat="49.15597" lon="4.15182">
        <ele>214.8</ele>
        <time>2026-08-24T13:32:45Z</time>
      </trkpt>
      <trkpt lat="49.15596" lon="4.15177">
        <ele>215</ele>
        <time>2026-08-24T13:32:46Z</time>
      </trkpt>
      <trkpt lat="49.15595" lon="4.15171">
        <ele>215.2</ele>
        <time>2026-08-24T13:32:47Z</time>
      </trkpt>
      <trkpt lat="49.15595" lon="4.15165">
        <ele>215.4</ele>
        <time>2026-08-24T13:32:48Z</time>
      </trkpt>
      <trkpt lat="49.15594" lon="4.15159">
        <ele>215.6</ele>
        <time>2026-08-24T13:32:49Z</time>
      </trkpt>
      <trkpt lat="49.15593" lon="4.15151">
        <ele>215.6</ele>
        <time>2026-08-24T13:32:50Z</time>
      </trkpt>
      <trkpt lat="49.15592" lon="4.15144">
        <ele>215.6</ele>
        <time>2026-08-24T13:32:51Z</time>
      </trkpt>
      <trkpt lat="49.15593" lon="4.15135">
        <ele>215.6</ele>
        <time>2026-08-24T13:32:52Z</time>
      </trkpt>
      <trkpt lat="49.15594" lon="4.15126">
        <ele>215.2</ele>
        <time>2026-08-24T13:32:53Z</time>
      </trkpt>
      <trkpt lat="49.15596" lon="4.15116">
        <ele>215</ele>
        <time>2026-08-24T13:32:54Z</time>
      </trkpt>
      <trkpt lat="49.15598" lon="4.15106">
        <ele>214.8</ele>
        <time>2026-08-24T13:32:55Z</time>
      </trkpt>
      <trkpt lat="49.15601" lon="4.15096">
        <ele>214.2</ele>
        <time>2026-08-24T13:32:56Z</time>
      </trkpt>
      <trkpt lat="49.15606" lon="4.15086">
        <ele>213.6</ele>
        <time>2026-08-24T13:32:57Z</time>
      </trkpt>
      <trkpt lat="49.15611" lon="4.15077">
        <ele>213</ele>
        <time>2026-08-24T13:32:58Z</time>
      </trkpt>
      <trkpt lat="49.15617" lon="4.15068">
        <ele>212.2</ele>
        <time>2026-08-24T13:32:59Z</time>
      </trkpt>
      <trkpt lat="49.15621" lon="4.1506">
        <ele>211.2</ele>
        <time>2026-08-24T13:33:00Z</time>
      </trkpt>
      <trkpt lat="49.15627" lon="4.15052">
        <ele>210.6</ele>
        <time>2026-08-24T13:33:01Z</time>
      </trkpt>
      <trkpt lat="49.15632" lon="4.15044">
        <ele>209.8</ele>
        <time>2026-08-24T13:33:02Z</time>
      </trkpt>
      <trkpt lat="49.15638" lon="4.15038">
        <ele>209</ele>
        <time>2026-08-24T13:33:03Z</time>
      </trkpt>
      <trkpt lat="49.15645" lon="4.15035">
        <ele>208</ele>
        <time>2026-08-24T13:33:04Z</time>
      </trkpt>
      <trkpt lat="49.15652" lon="4.15033">
        <ele>207.2</ele>
        <time>2026-08-24T13:33:05Z</time>
      </trkpt>
      <trkpt lat="49.15661" lon="4.15034">
        <ele>206.2</ele>
        <time>2026-08-24T13:33:06Z</time>
      </trkpt>
      <trkpt lat="49.15669" lon="4.15035">
        <ele>205.4</ele>
        <time>2026-08-24T13:33:07Z</time>
      </trkpt>
      <trkpt lat="49.15678" lon="4.15037">
        <ele>204.6</ele>
        <time>2026-08-24T13:33:08Z</time>
      </trkpt>
      <trkpt lat="49.15687" lon="4.15039">
        <ele>203.8</ele>
        <time>2026-08-24T13:33:09Z</time>
      </trkpt>
      <trkpt lat="49.15696" lon="4.15042">
        <ele>203.2</ele>
        <time>2026-08-24T13:33:10Z</time>
      </trkpt>
      <trkpt lat="49.15705" lon="4.15044">
        <ele>202.8</ele>
        <time>2026-08-24T13:33:11Z</time>
      </trkpt>
      <trkpt lat="49.15713" lon="4.15047">
        <ele>202.2</ele>
        <time>2026-08-24T13:33:12Z</time>
      </trkpt>
      <trkpt lat="49.15721" lon="4.1505">
        <ele>201.8</ele>
        <time>2026-08-24T13:33:13Z</time>
      </trkpt>
      <trkpt lat="49.15729" lon="4.15052">
        <ele>201.2</ele>
        <time>2026-08-24T13:33:14Z</time>
      </trkpt>
      <trkpt lat="49.15737" lon="4.15054">
        <ele>200.6</ele>
        <time>2026-08-24T13:33:15Z</time>
      </trkpt>
      <trkpt lat="49.15745" lon="4.15055">
        <ele>200</ele>
        <time>2026-08-24T13:33:16Z</time>
      </trkpt>
      <trkpt lat="49.15752" lon="4.15055">
        <ele>199.4</ele>
        <time>2026-08-24T13:33:17Z</time>
      </trkpt>
      <trkpt lat="49.1576" lon="4.15054">
        <ele>198.4</ele>
        <time>2026-08-24T13:33:18Z</time>
      </trkpt>
      <trkpt lat="49.15767" lon="4.15051">
        <ele>197.8</ele>
        <time>2026-08-24T13:33:19Z</time>
      </trkpt>
      <trkpt lat="49.15774" lon="4.15045">
        <ele>197</ele>
        <time>2026-08-24T13:33:20Z</time>
      </trkpt>
      <trkpt lat="49.15781" lon="4.15037">
        <ele>196</ele>
        <time>2026-08-24T13:33:21Z</time>
      </trkpt>
      <trkpt lat="49.15785" lon="4.15026">
        <ele>195.2</ele>
        <time>2026-08-24T13:33:22Z</time>
      </trkpt>
      <trkpt lat="49.15789" lon="4.15015">
        <ele>194.2</ele>
        <time>2026-08-24T13:33:23Z</time>
      </trkpt>
      <trkpt lat="49.15791" lon="4.15002">
        <ele>193.4</ele>
        <time>2026-08-24T13:33:24Z</time>
      </trkpt>
      <trkpt lat="49.15791" lon="4.1499">
        <ele>192.4</ele>
        <time>2026-08-24T13:33:25Z</time>
      </trkpt>
      <trkpt lat="49.1579" lon="4.14978">
        <ele>191.4</ele>
        <time>2026-08-24T13:33:26Z</time>
      </trkpt>
      <trkpt lat="49.15788" lon="4.14966">
        <ele>190.8</ele>
        <time>2026-08-24T13:33:27Z</time>
      </trkpt>
      <trkpt lat="49.15785" lon="4.14954">
        <ele>190</ele>
        <time>2026-08-24T13:33:28Z</time>
      </trkpt>
      <trkpt lat="49.15783" lon="4.14944">
        <ele>189.2</ele>
        <time>2026-08-24T13:33:29Z</time>
      </trkpt>
      <trkpt lat="49.1578" lon="4.14934">
        <ele>188.6</ele>
        <time>2026-08-24T13:33:30Z</time>
      </trkpt>
      <trkpt lat="49.15778" lon="4.14925">
        <ele>188.2</ele>
        <time>2026-08-24T13:33:31Z</time>
      </trkpt>
      <trkpt lat="49.15776" lon="4.14916">
        <ele>187.8</ele>
        <time>2026-08-24T13:33:32Z</time>
      </trkpt>
      <trkpt lat="49.15775" lon="4.14907">
        <ele>187.2</ele>
        <time>2026-08-24T13:33:33Z</time>
      </trkpt>
      <trkpt lat="49.15775" lon="4.14897">
        <ele>186.8</ele>
        <time>2026-08-24T13:33:34Z</time>
      </trkpt>
      <trkpt lat="49.15777" lon="4.14887">
        <ele>186.4</ele>
        <time>2026-08-24T13:33:35Z</time>
      </trkpt>
      <trkpt lat="49.15779" lon="4.14878">
        <ele>185.8</ele>
        <time>2026-08-24T13:33:36Z</time>
      </trkpt>
      <trkpt lat="49.15782" lon="4.14868">
        <ele>185.2</ele>
        <time>2026-08-24T13:33:37Z</time>
      </trkpt>
      <trkpt lat="49.15784" lon="4.14859">
        <ele>184.8</ele>
        <time>2026-08-24T13:33:38Z</time>
      </trkpt>
      <trkpt lat="49.15787" lon="4.14849">
        <ele>184</ele>
        <time>2026-08-24T13:33:39Z</time>
      </trkpt>
      <trkpt lat="49.15791" lon="4.1484">
        <ele>183.6</ele>
        <time>2026-08-24T13:33:40Z</time>
      </trkpt>
      <trkpt lat="49.15795" lon="4.1483">
        <ele>183.2</ele>
        <time>2026-08-24T13:33:41Z</time>
      </trkpt>
      <trkpt lat="49.15798" lon="4.14821">
        <ele>182.8</ele>
        <time>2026-08-24T13:33:42Z</time>
      </trkpt>
      <trkpt lat="49.15802" lon="4.14811">
        <ele>182.4</ele>
        <time>2026-08-24T13:33:43Z</time>
      </trkpt>
      <trkpt lat="49.15806" lon="4.14801">
        <ele>182.2</ele>
        <time>2026-08-24T13:33:44Z</time>
      </trkpt>
      <trkpt lat="49.15809" lon="4.14791">
        <ele>181.8</ele>
        <time>2026-08-24T13:33:45Z</time>
      </trkpt>
      <trkpt lat="49.15812" lon="4.14782">
        <ele>181.6</ele>
        <time>2026-08-24T13:33:46Z</time>
      </trkpt>
      <trkpt lat="49.15815" lon="4.14773">
        <ele>181.4</ele>
        <time>2026-08-24T13:33:47Z</time>
      </trkpt>
      <trkpt lat="49.15818" lon="4.14765">
        <ele>181.2</ele>
        <time>2026-08-24T13:33:48Z</time>
      </trkpt>
      <trkpt lat="49.15821" lon="4.14758">
        <ele>180.8</ele>
        <time>2026-08-24T13:33:49Z</time>
      </trkpt>
      <trkpt lat="49.15822" lon="4.14752">
        <ele>180.8</ele>
        <time>2026-08-24T13:33:50Z</time>
      </trkpt>
      <trkpt lat="49.15823" lon="4.14747">
        <ele>180.6</ele>
        <time>2026-08-24T13:33:51Z</time>
      </trkpt>
      <trkpt lat="49.15825" lon="4.14742">
        <ele>180.6</ele>
        <time>2026-08-24T13:33:52Z</time>
      </trkpt>
      <trkpt lat="49.15828" lon="4.14738">
        <ele>180.4</ele>
        <time>2026-08-24T13:33:53Z</time>
      </trkpt>
      <trkpt lat="49.1583" lon="4.14732">
        <ele>180.2</ele>
        <time>2026-08-24T13:33:54Z</time>
      </trkpt>
      <trkpt lat="49.15833" lon="4.14725">
        <ele>180.2</ele>
        <time>2026-08-24T13:33:55Z</time>
      </trkpt>
      <trkpt lat="49.15837" lon="4.14719">
        <ele>179.8</ele>
        <time>2026-08-24T13:33:56Z</time>
      </trkpt>
      <trkpt lat="49.15841" lon="4.14712">
        <ele>179.8</ele>
        <time>2026-08-24T13:33:57Z</time>
      </trkpt>
      <trkpt lat="49.15845" lon="4.14704">
        <ele>179.4</ele>
        <time>2026-08-24T13:33:58Z</time>
      </trkpt>
      <trkpt lat="49.15849" lon="4.14697">
        <ele>178.8</ele>
        <time>2026-08-24T13:33:59Z</time>
      </trkpt>
      <trkpt lat="49.15854" lon="4.14689">
        <ele>178.6</ele>
        <time>2026-08-24T13:34:00Z</time>
      </trkpt>
      <trkpt lat="49.15858" lon="4.14681">
        <ele>177.8</ele>
        <time>2026-08-24T13:34:01Z</time>
      </trkpt>
      <trkpt lat="49.15862" lon="4.14673">
        <ele>177.4</ele>
        <time>2026-08-24T13:34:02Z</time>
      </trkpt>
      <trkpt lat="49.15866" lon="4.14665">
        <ele>177.2</ele>
        <time>2026-08-24T13:34:03Z</time>
      </trkpt>
      <trkpt lat="49.15869" lon="4.14657">
        <ele>177.2</ele>
        <time>2026-08-24T13:34:04Z</time>
      </trkpt>
      <trkpt lat="49.15873" lon="4.1465">
        <ele>177.4</ele>
        <time>2026-08-24T13:34:05Z</time>
      </trkpt>
      <trkpt lat="49.15877" lon="4.14643">
        <ele>177.8</ele>
        <time>2026-08-24T13:34:06Z</time>
      </trkpt>
      <trkpt lat="49.15881" lon="4.14636">
        <ele>178</ele>
        <time>2026-08-24T13:34:07Z</time>
      </trkpt>
      <trkpt lat="49.15884" lon="4.14629">
        <ele>178.4</ele>
        <time>2026-08-24T13:34:08Z</time>
      </trkpt>
      <trkpt lat="49.15886" lon="4.14622">
        <ele>178.6</ele>
        <time>2026-08-24T13:34:09Z</time>
      </trkpt>
      <trkpt lat="49.15886" lon="4.14615">
        <ele>178.6</ele>
        <time>2026-08-24T13:34:10Z</time>
      </trkpt>
      <trkpt lat="49.15886" lon="4.14609">
        <ele>178.4</ele>
        <time>2026-08-24T13:34:11Z</time>
      </trkpt>
      <trkpt lat="49.15883" lon="4.14603">
        <ele>178.4</ele>
        <time>2026-08-24T13:34:12Z</time>
      </trkpt>
      <trkpt lat="49.1588" lon="4.14598">
        <ele>178.4</ele>
        <time>2026-08-24T13:34:13Z</time>
      </trkpt>
      <trkpt lat="49.15877" lon="4.14593">
        <ele>178.4</ele>
        <time>2026-08-24T13:34:14Z</time>
      </trkpt>
      <trkpt lat="49.15873" lon="4.14588">
        <ele>178.8</ele>
        <time>2026-08-24T13:34:15Z</time>
      </trkpt>
      <trkpt lat="49.1587" lon="4.14584">
        <ele>179</ele>
        <time>2026-08-24T13:34:16Z</time>
      </trkpt>
      <trkpt lat="49.15867" lon="4.1458">
        <ele>179.4</ele>
        <time>2026-08-24T13:34:17Z</time>
      </trkpt>
      <trkpt lat="49.15864" lon="4.14575">
        <ele>179.6</ele>
        <time>2026-08-24T13:34:18Z</time>
      </trkpt>
      <trkpt lat="49.15862" lon="4.1457">
        <ele>180</ele>
        <time>2026-08-24T13:34:19Z</time>
      </trkpt>
      <trkpt lat="49.15861" lon="4.14565">
        <ele>180.2</ele>
        <time>2026-08-24T13:34:20Z</time>
      </trkpt>
      <trkpt lat="49.15859" lon="4.14561">
        <ele>180.6</ele>
        <time>2026-08-24T13:34:21Z</time>
      </trkpt>
      <trkpt lat="49.15858" lon="4.14557">
        <ele>181</ele>
        <time>2026-08-24T13:34:22Z</time>
      </trkpt>
      <trkpt lat="49.15856" lon="4.14553">
        <ele>181.4</ele>
        <time>2026-08-24T13:34:23Z</time>
      </trkpt>
      <trkpt lat="49.15854" lon="4.14549">
        <ele>181.8</ele>
        <time>2026-08-24T13:34:24Z</time>
      </trkpt>
      <trkpt lat="49.15852" lon="4.14546">
        <ele>182.2</ele>
        <time>2026-08-24T13:34:25Z</time>
      </trkpt>
      <trkpt lat="49.1585" lon="4.14542">
        <ele>182.6</ele>
        <time>2026-08-24T13:34:26Z</time>
      </trkpt>
      <trkpt lat="49.15847" lon="4.14539">
        <ele>183</ele>
        <time>2026-08-24T13:34:27Z</time>
      </trkpt>
      <trkpt lat="49.15845" lon="4.14535">
        <ele>183.4</ele>
        <time>2026-08-24T13:34:28Z</time>
      </trkpt>
      <trkpt lat="49.15843" lon="4.14532">
        <ele>183.6</ele>
        <time>2026-08-24T13:34:29Z</time>
      </trkpt>
      <trkpt lat="49.1584" lon="4.14529">
        <ele>184</ele>
        <time>2026-08-24T13:34:30Z</time>
      </trkpt>
      <trkpt lat="49.15839" lon="4.14526">
        <ele>184.4</ele>
        <time>2026-08-24T13:34:31Z</time>
      </trkpt>
      <trkpt lat="49.15837" lon="4.14522">
        <ele>184.6</ele>
        <time>2026-08-24T13:34:32Z</time>
      </trkpt>
      <trkpt lat="49.15836" lon="4.14517">
        <ele>185</ele>
        <time>2026-08-24T13:34:33Z</time>
      </trkpt>
      <trkpt lat="49.15836" lon="4.14513">
        <ele>185.4</ele>
        <time>2026-08-24T13:34:34Z</time>
      </trkpt>
      <trkpt lat="49.15835" lon="4.14508">
        <ele>185.8</ele>
        <time>2026-08-24T13:34:35Z</time>
      </trkpt>
      <trkpt lat="49.15835" lon="4.14503">
        <ele>186</ele>
        <time>2026-08-24T13:34:36Z</time>
      </trkpt>
      <trkpt lat="49.15836" lon="4.14498">
        <ele>186.4</ele>
        <time>2026-08-24T13:34:37Z</time>
      </trkpt>
      <trkpt lat="49.15836" lon="4.14493">
        <ele>186.6</ele>
        <time>2026-08-24T13:34:38Z</time>
      </trkpt>
      <trkpt lat="49.15836" lon="4.14489">
        <ele>186.8</ele>
        <time>2026-08-24T13:34:39Z</time>
      </trkpt>
      <trkpt lat="49.15836" lon="4.14484">
        <ele>187</ele>
        <time>2026-08-24T13:34:40Z</time>
      </trkpt>
      <trkpt lat="49.15836" lon="4.14479">
        <ele>187.2</ele>
        <time>2026-08-24T13:34:41Z</time>
      </trkpt>
      <trkpt lat="49.15836" lon="4.14474">
        <ele>187.4</ele>
        <time>2026-08-24T13:34:42Z</time>
      </trkpt>
      <trkpt lat="49.15836" lon="4.14469">
        <ele>187.8</ele>
        <time>2026-08-24T13:34:43Z</time>
      </trkpt>
      <trkpt lat="49.15837" lon="4.14464">
        <ele>188</ele>
        <time>2026-08-24T13:34:44Z</time>
      </trkpt>
      <trkpt lat="49.15837" lon="4.14459">
        <ele>188</ele>
        <time>2026-08-24T13:34:45Z</time>
      </trkpt>
      <trkpt lat="49.15837" lon="4.14455">
        <ele>188.2</ele>
        <time>2026-08-24T13:34:46Z</time>
      </trkpt>
      <trkpt lat="49.15837" lon="4.1445">
        <ele>188.6</ele>
        <time>2026-08-24T13:34:47Z</time>
      </trkpt>
      <trkpt lat="49.15838" lon="4.14445">
        <ele>188.8</ele>
        <time>2026-08-24T13:34:48Z</time>
      </trkpt>
      <trkpt lat="49.15838" lon="4.14441">
        <ele>189</ele>
        <time>2026-08-24T13:34:49Z</time>
      </trkpt>
      <trkpt lat="49.15838" lon="4.14436">
        <ele>189.2</ele>
        <time>2026-08-24T13:34:50Z</time>
      </trkpt>
      <trkpt lat="49.15838" lon="4.14431">
        <ele>189.2</ele>
        <time>2026-08-24T13:34:51Z</time>
      </trkpt>
      <trkpt lat="49.15838" lon="4.14426">
        <ele>189.4</ele>
        <time>2026-08-24T13:34:52Z</time>
      </trkpt>
      <trkpt lat="49.15838" lon="4.14421">
        <ele>189.6</ele>
        <time>2026-08-24T13:34:53Z</time>
      </trkpt>
      <trkpt lat="49.15838" lon="4.14416">
        <ele>189.6</ele>
        <time>2026-08-24T13:34:54Z</time>
      </trkpt>
      <trkpt lat="49.15838" lon="4.1441">
        <ele>189.8</ele>
        <time>2026-08-24T13:34:55Z</time>
      </trkpt>
      <trkpt lat="49.15838" lon="4.14405">
        <ele>190</ele>
        <time>2026-08-24T13:34:56Z</time>
      </trkpt>
      <trkpt lat="49.15838" lon="4.144">
        <ele>190</ele>
        <time>2026-08-24T13:34:57Z</time>
      </trkpt>
      <trkpt lat="49.15837" lon="4.14393">
        <ele>190</ele>
        <time>2026-08-24T13:34:58Z</time>
      </trkpt>
      <trkpt lat="49.15837" lon="4.14387">
        <ele>189.8</ele>
        <time>2026-08-24T13:34:59Z</time>
      </trkpt>
      <trkpt lat="49.15836" lon="4.1438">
        <ele>189.6</ele>
        <time>2026-08-24T13:35:00Z</time>
      </trkpt>
      <trkpt lat="49.15835" lon="4.14372">
        <ele>189.6</ele>
        <time>2026-08-24T13:35:01Z</time>
      </trkpt>
      <trkpt lat="49.15833" lon="4.14365">
        <ele>189.4</ele>
        <time>2026-08-24T13:35:02Z</time>
      </trkpt>
      <trkpt lat="49.15831" lon="4.14357">
        <ele>189.2</ele>
        <time>2026-08-24T13:35:03Z</time>
      </trkpt>
      <trkpt lat="49.15829" lon="4.14349">
        <ele>189</ele>
        <time>2026-08-24T13:35:04Z</time>
      </trkpt>
      <trkpt lat="49.15827" lon="4.14341">
        <ele>189</ele>
        <time>2026-08-24T13:35:05Z</time>
      </trkpt>
      <trkpt lat="49.15825" lon="4.14333">
        <ele>188.8</ele>
        <time>2026-08-24T13:35:06Z</time>
      </trkpt>
      <trkpt lat="49.15824" lon="4.14326">
        <ele>188.8</ele>
        <time>2026-08-24T13:35:07Z</time>
      </trkpt>
      <trkpt lat="49.15822" lon="4.14319">
        <ele>188.8</ele>
        <time>2026-08-24T13:35:08Z</time>
      </trkpt>
      <trkpt lat="49.15821" lon="4.14312">
        <ele>189</ele>
        <time>2026-08-24T13:35:09Z</time>
      </trkpt>
      <trkpt lat="49.1582" lon="4.14305">
        <ele>189</ele>
        <time>2026-08-24T13:35:10Z</time>
      </trkpt>
      <trkpt lat="49.15819" lon="4.14299">
        <ele>189</ele>
        <time>2026-08-24T13:35:11Z</time>
      </trkpt>
      <trkpt lat="49.15819" lon="4.14292">
        <ele>189.2</ele>
        <time>2026-08-24T13:35:12Z</time>
      </trkpt>
      <trkpt lat="49.15819" lon="4.14286">
        <ele>189.4</ele>
        <time>2026-08-24T13:35:13Z</time>
      </trkpt>
      <trkpt lat="49.15819" lon="4.14279">
        <ele>189.6</ele>
        <time>2026-08-24T13:35:14Z</time>
      </trkpt>
      <trkpt lat="49.15819" lon="4.14273">
        <ele>189.8</ele>
        <time>2026-08-24T13:35:15Z</time>
      </trkpt>
      <trkpt lat="49.15819" lon="4.14267">
        <ele>190</ele>
        <time>2026-08-24T13:35:16Z</time>
      </trkpt>
      <trkpt lat="49.15819" lon="4.1426">
        <ele>190.2</ele>
        <time>2026-08-24T13:35:17Z</time>
      </trkpt>
      <trkpt lat="49.15818" lon="4.14254">
        <ele>190.6</ele>
        <time>2026-08-24T13:35:18Z</time>
      </trkpt>
      <trkpt lat="49.15819" lon="4.14247">
        <ele>190.6</ele>
        <time>2026-08-24T13:35:19Z</time>
      </trkpt>
      <trkpt lat="49.15819" lon="4.14241">
        <ele>190.8</ele>
        <time>2026-08-24T13:35:20Z</time>
      </trkpt>
      <trkpt lat="49.15819" lon="4.14234">
        <ele>191</ele>
        <time>2026-08-24T13:35:21Z</time>
      </trkpt>
      <trkpt lat="49.1582" lon="4.14228">
        <ele>191.2</ele>
        <time>2026-08-24T13:35:22Z</time>
      </trkpt>
      <trkpt lat="49.15821" lon="4.14221">
        <ele>191.2</ele>
        <time>2026-08-24T13:35:23Z</time>
      </trkpt>
      <trkpt lat="49.15823" lon="4.14214">
        <ele>191.4</ele>
        <time>2026-08-24T13:35:24Z</time>
      </trkpt>
      <trkpt lat="49.15824" lon="4.14207">
        <ele>191.6</ele>
        <time>2026-08-24T13:35:25Z</time>
      </trkpt>
      <trkpt lat="49.15826" lon="4.14201">
        <ele>191.6</ele>
        <time>2026-08-24T13:35:26Z</time>
      </trkpt>
      <trkpt lat="49.15827" lon="4.14194">
        <ele>191.6</ele>
        <time>2026-08-24T13:35:27Z</time>
      </trkpt>
      <trkpt lat="49.15829" lon="4.14188">
        <ele>191.8</ele>
        <time>2026-08-24T13:35:28Z</time>
      </trkpt>
      <trkpt lat="49.15831" lon="4.1418">
        <ele>191.8</ele>
        <time>2026-08-24T13:35:29Z</time>
      </trkpt>
      <trkpt lat="49.15833" lon="4.14174">
        <ele>192</ele>
        <time>2026-08-24T13:35:30Z</time>
      </trkpt>
      <trkpt lat="49.15835" lon="4.14167">
        <ele>192</ele>
        <time>2026-08-24T13:35:31Z</time>
      </trkpt>
      <trkpt lat="49.15837" lon="4.1416">
        <ele>192.2</ele>
        <time>2026-08-24T13:35:32Z</time>
      </trkpt>
      <trkpt lat="49.15839" lon="4.14153">
        <ele>192.2</ele>
        <time>2026-08-24T13:35:33Z</time>
      </trkpt>
      <trkpt lat="49.15841" lon="4.14145">
        <ele>192.2</ele>
        <time>2026-08-24T13:35:34Z</time>
      </trkpt>
      <trkpt lat="49.15843" lon="4.14138">
        <ele>192</ele>
        <time>2026-08-24T13:35:35Z</time>
      </trkpt>
      <trkpt lat="49.15845" lon="4.1413">
        <ele>192</ele>
        <time>2026-08-24T13:35:36Z</time>
      </trkpt>
      <trkpt lat="49.15846" lon="4.14122">
        <ele>192</ele>
        <time>2026-08-24T13:35:37Z</time>
      </trkpt>
      <trkpt lat="49.15847" lon="4.14114">
        <ele>192</ele>
        <time>2026-08-24T13:35:38Z</time>
      </trkpt>
      <trkpt lat="49.15848" lon="4.14106">
        <ele>192.2</ele>
        <time>2026-08-24T13:35:39Z</time>
      </trkpt>
      <trkpt lat="49.15849" lon="4.14097">
        <ele>192.2</ele>
        <time>2026-08-24T13:35:40Z</time>
      </trkpt>
      <trkpt lat="49.1585" lon="4.14089">
        <ele>192.4</ele>
        <time>2026-08-24T13:35:41Z</time>
      </trkpt>
      <trkpt lat="49.1585" lon="4.1408">
        <ele>192.6</ele>
        <time>2026-08-24T13:35:42Z</time>
      </trkpt>
      <trkpt lat="49.15851" lon="4.14071">
        <ele>192.8</ele>
        <time>2026-08-24T13:35:43Z</time>
      </trkpt>
      <trkpt lat="49.15851" lon="4.14063">
        <ele>192.8</ele>
        <time>2026-08-24T13:35:44Z</time>
      </trkpt>
      <trkpt lat="49.15852" lon="4.14053">
        <ele>192.8</ele>
        <time>2026-08-24T13:35:45Z</time>
      </trkpt>
      <trkpt lat="49.15852" lon="4.14044">
        <ele>193</ele>
        <time>2026-08-24T13:35:46Z</time>
      </trkpt>
      <trkpt lat="49.15852" lon="4.14035">
        <ele>193</ele>
        <time>2026-08-24T13:35:47Z</time>
      </trkpt>
      <trkpt lat="49.15853" lon="4.14026">
        <ele>193.2</ele>
        <time>2026-08-24T13:35:48Z</time>
      </trkpt>
      <trkpt lat="49.15854" lon="4.14017">
        <ele>193.2</ele>
        <time>2026-08-24T13:35:49Z</time>
      </trkpt>
      <trkpt lat="49.15855" lon="4.14008">
        <ele>193.4</ele>
        <time>2026-08-24T13:35:50Z</time>
      </trkpt>
      <trkpt lat="49.15855" lon="4.14">
        <ele>193.6</ele>
        <time>2026-08-24T13:35:51Z</time>
      </trkpt>
      <trkpt lat="49.15855" lon="4.13991">
        <ele>193.8</ele>
        <time>2026-08-24T13:35:52Z</time>
      </trkpt>
      <trkpt lat="49.15856" lon="4.13983">
        <ele>194</ele>
        <time>2026-08-24T13:35:53Z</time>
      </trkpt>
      <trkpt lat="49.15857" lon="4.13974">
        <ele>194.2</ele>
        <time>2026-08-24T13:35:54Z</time>
      </trkpt>
      <trkpt lat="49.15859" lon="4.13966">
        <ele>194.2</ele>
        <time>2026-08-24T13:35:55Z</time>
      </trkpt>
      <trkpt lat="49.15861" lon="4.13959">
        <ele>194.4</ele>
        <time>2026-08-24T13:35:56Z</time>
      </trkpt>
      <trkpt lat="49.15863" lon="4.13951">
        <ele>194.4</ele>
        <time>2026-08-24T13:35:57Z</time>
      </trkpt>
      <trkpt lat="49.15864" lon="4.13943">
        <ele>194.4</ele>
        <time>2026-08-24T13:35:58Z</time>
      </trkpt>
      <trkpt lat="49.15866" lon="4.13935">
        <ele>194.6</ele>
        <time>2026-08-24T13:35:59Z</time>
      </trkpt>
      <trkpt lat="49.15867" lon="4.13927">
        <ele>194.6</ele>
        <time>2026-08-24T13:36:00Z</time>
      </trkpt>
      <trkpt lat="49.15868" lon="4.13919">
        <ele>194.8</ele>
        <time>2026-08-24T13:36:01Z</time>
      </trkpt>
      <trkpt lat="49.15869" lon="4.13911">
        <ele>195</ele>
        <time>2026-08-24T13:36:02Z</time>
      </trkpt>
      <trkpt lat="49.1587" lon="4.13904">
        <ele>195.2</ele>
        <time>2026-08-24T13:36:03Z</time>
      </trkpt>
      <trkpt lat="49.15872" lon="4.13896">
        <ele>195.4</ele>
        <time>2026-08-24T13:36:04Z</time>
      </trkpt>
      <trkpt lat="49.15873" lon="4.13889">
        <ele>195.6</ele>
        <time>2026-08-24T13:36:05Z</time>
      </trkpt>
      <trkpt lat="49.15874" lon="4.13882">
        <ele>196</ele>
        <time>2026-08-24T13:36:06Z</time>
      </trkpt>
      <trkpt lat="49.15876" lon="4.13876">
        <ele>196</ele>
        <time>2026-08-24T13:36:07Z</time>
      </trkpt>
      <trkpt lat="49.15877" lon="4.1387">
        <ele>196.2</ele>
        <time>2026-08-24T13:36:08Z</time>
      </trkpt>
      <trkpt lat="49.15879" lon="4.13866">
        <ele>196.4</ele>
        <time>2026-08-24T13:36:09Z</time>
      </trkpt>
      <trkpt lat="49.1588" lon="4.13863">
        <ele>196.4</ele>
        <time>2026-08-24T13:36:10Z</time>
      </trkpt>
      <trkpt lat="49.15881" lon="4.13862">
        <ele>196.6</ele>
        <time>2026-08-24T13:36:11Z</time>
      </trkpt>
      <trkpt lat="49.15881" lon="4.13862">
        <ele>196.6</ele>
        <time>2026-08-24T13:36:12Z</time>
      </trkpt>
      <trkpt lat="49.15881" lon="4.13862">
        <ele>196.6</ele>
        <time>2026-08-24T13:36:13Z</time>
      </trkpt>
      <trkpt lat="49.15885" lon="4.13855">
        <ele>196.6</ele>
        <time>2026-08-24T13:36:16Z</time>
      </trkpt>
      <trkpt lat="49.15885" lon="4.13852">
        <ele>196.6</ele>
        <time>2026-08-24T13:36:17Z</time>
      </trkpt>
      <trkpt lat="49.15886" lon="4.13847">
        <ele>196.6</ele>
        <time>2026-08-24T13:36:18Z</time>
      </trkpt>
      <trkpt lat="49.15886" lon="4.13842">
        <ele>196.6</ele>
        <time>2026-08-24T13:36:19Z</time>
      </trkpt>
      <trkpt lat="49.15886" lon="4.13838">
        <ele>196.8</ele>
        <time>2026-08-24T13:36:20Z</time>
      </trkpt>
      <trkpt lat="49.15886" lon="4.13833">
        <ele>196.8</ele>
        <time>2026-08-24T13:36:21Z</time>
      </trkpt>
      <trkpt lat="49.15885" lon="4.13829">
        <ele>197</ele>
        <time>2026-08-24T13:36:22Z</time>
      </trkpt>
      <trkpt lat="49.15885" lon="4.13825">
        <ele>197.2</ele>
        <time>2026-08-24T13:36:23Z</time>
      </trkpt>
      <trkpt lat="49.15885" lon="4.1382">
        <ele>197.4</ele>
        <time>2026-08-24T13:36:24Z</time>
      </trkpt>
      <trkpt lat="49.15885" lon="4.13815">
        <ele>197.4</ele>
        <time>2026-08-24T13:36:25Z</time>
      </trkpt>
      <trkpt lat="49.15885" lon="4.1381">
        <ele>197.6</ele>
        <time>2026-08-24T13:36:26Z</time>
      </trkpt>
      <trkpt lat="49.15885" lon="4.13805">
        <ele>197.8</ele>
        <time>2026-08-24T13:36:27Z</time>
      </trkpt>
      <trkpt lat="49.15886" lon="4.13799">
        <ele>198</ele>
        <time>2026-08-24T13:36:28Z</time>
      </trkpt>
      <trkpt lat="49.15886" lon="4.13794">
        <ele>198.2</ele>
        <time>2026-08-24T13:36:29Z</time>
      </trkpt>
      <trkpt lat="49.15887" lon="4.13789">
        <ele>198.4</ele>
        <time>2026-08-24T13:36:30Z</time>
      </trkpt>
      <trkpt lat="49.15887" lon="4.13783">
        <ele>198.6</ele>
        <time>2026-08-24T13:36:31Z</time>
      </trkpt>
      <trkpt lat="49.15888" lon="4.13777">
        <ele>198.8</ele>
        <time>2026-08-24T13:36:32Z</time>
      </trkpt>
      <trkpt lat="49.15889" lon="4.13772">
        <ele>199</ele>
        <time>2026-08-24T13:36:33Z</time>
      </trkpt>
      <trkpt lat="49.15889" lon="4.13766">
        <ele>199.2</ele>
        <time>2026-08-24T13:36:34Z</time>
      </trkpt>
      <trkpt lat="49.1589" lon="4.1376">
        <ele>199.6</ele>
        <time>2026-08-24T13:36:35Z</time>
      </trkpt>
      <trkpt lat="49.15891" lon="4.13754">
        <ele>199.8</ele>
        <time>2026-08-24T13:36:36Z</time>
      </trkpt>
      <trkpt lat="49.15891" lon="4.13748">
        <ele>200.2</ele>
        <time>2026-08-24T13:36:37Z</time>
      </trkpt>
      <trkpt lat="49.15892" lon="4.13742">
        <ele>200.4</ele>
        <time>2026-08-24T13:36:38Z</time>
      </trkpt>
      <trkpt lat="49.15893" lon="4.13736">
        <ele>200.8</ele>
        <time>2026-08-24T13:36:39Z</time>
      </trkpt>
      <trkpt lat="49.15893" lon="4.1373">
        <ele>201</ele>
        <time>2026-08-24T13:36:40Z</time>
      </trkpt>
      <trkpt lat="49.15894" lon="4.13724">
        <ele>201.2</ele>
        <time>2026-08-24T13:36:41Z</time>
      </trkpt>
      <trkpt lat="49.15895" lon="4.13718">
        <ele>201.4</ele>
        <time>2026-08-24T13:36:42Z</time>
      </trkpt>
      <trkpt lat="49.15896" lon="4.13712">
        <ele>201.6</ele>
        <time>2026-08-24T13:36:43Z</time>
      </trkpt>
      <trkpt lat="49.15897" lon="4.13705">
        <ele>202</ele>
        <time>2026-08-24T13:36:44Z</time>
      </trkpt>
      <trkpt lat="49.15898" lon="4.13699">
        <ele>202.2</ele>
        <time>2026-08-24T13:36:45Z</time>
      </trkpt>
      <trkpt lat="49.15899" lon="4.13693">
        <ele>202.4</ele>
        <time>2026-08-24T13:36:46Z</time>
      </trkpt>
      <trkpt lat="49.15899" lon="4.13687">
        <ele>202.6</ele>
        <time>2026-08-24T13:36:47Z</time>
      </trkpt>
      <trkpt lat="49.159" lon="4.1368">
        <ele>202.8</ele>
        <time>2026-08-24T13:36:48Z</time>
      </trkpt>
      <trkpt lat="49.15901" lon="4.13674">
        <ele>203</ele>
        <time>2026-08-24T13:36:49Z</time>
      </trkpt>
      <trkpt lat="49.15902" lon="4.13668">
        <ele>203.2</ele>
        <time>2026-08-24T13:36:50Z</time>
      </trkpt>
      <trkpt lat="49.15903" lon="4.13661">
        <ele>203.4</ele>
        <time>2026-08-24T13:36:51Z</time>
      </trkpt>
      <trkpt lat="49.15904" lon="4.13655">
        <ele>203.6</ele>
        <time>2026-08-24T13:36:52Z</time>
      </trkpt>
      <trkpt lat="49.15904" lon="4.13649">
        <ele>203.8</ele>
        <time>2026-08-24T13:36:53Z</time>
      </trkpt>
      <trkpt lat="49.15905" lon="4.13643">
        <ele>204</ele>
        <time>2026-08-24T13:36:54Z</time>
      </trkpt>
      <trkpt lat="49.15906" lon="4.13638">
        <ele>204.2</ele>
        <time>2026-08-24T13:36:55Z</time>
      </trkpt>
      <trkpt lat="49.15907" lon="4.13632">
        <ele>204.4</ele>
        <time>2026-08-24T13:36:56Z</time>
      </trkpt>
      <trkpt lat="49.15908" lon="4.13626">
        <ele>204.6</ele>
        <time>2026-08-24T13:36:57Z</time>
      </trkpt>
      <trkpt lat="49.15908" lon="4.1362">
        <ele>205</ele>
        <time>2026-08-24T13:36:58Z</time>
      </trkpt>
      <trkpt lat="49.1591" lon="4.13615">
        <ele>205.2</ele>
        <time>2026-08-24T13:36:59Z</time>
      </trkpt>
      <trkpt lat="49.15911" lon="4.13609">
        <ele>205.4</ele>
        <time>2026-08-24T13:37:00Z</time>
      </trkpt>
      <trkpt lat="49.15913" lon="4.13604">
        <ele>205.6</ele>
        <time>2026-08-24T13:37:01Z</time>
      </trkpt>
      <trkpt lat="49.15916" lon="4.13599">
        <ele>205.8</ele>
        <time>2026-08-24T13:37:02Z</time>
      </trkpt>
      <trkpt lat="49.15918" lon="4.13595">
        <ele>206</ele>
        <time>2026-08-24T13:37:03Z</time>
      </trkpt>
      <trkpt lat="49.15921" lon="4.1359">
        <ele>206.4</ele>
        <time>2026-08-24T13:37:04Z</time>
      </trkpt>
      <trkpt lat="49.15924" lon="4.13586">
        <ele>206.6</ele>
        <time>2026-08-24T13:37:05Z</time>
      </trkpt>
      <trkpt lat="49.15927" lon="4.13583">
        <ele>206.6</ele>
        <time>2026-08-24T13:37:06Z</time>
      </trkpt>
      <trkpt lat="49.1593" lon="4.13581">
        <ele>207</ele>
        <time>2026-08-24T13:37:07Z</time>
      </trkpt>
      <trkpt lat="49.15933" lon="4.13578">
        <ele>207.2</ele>
        <time>2026-08-24T13:37:08Z</time>
      </trkpt>
      <trkpt lat="49.15935" lon="4.13577">
        <ele>207.4</ele>
        <time>2026-08-24T13:37:09Z</time>
      </trkpt>
      <trkpt lat="49.15938" lon="4.13575">
        <ele>207.6</ele>
        <time>2026-08-24T13:37:10Z</time>
      </trkpt>
      <trkpt lat="49.15941" lon="4.13575">
        <ele>208</ele>
        <time>2026-08-24T13:37:11Z</time>
      </trkpt>
      <trkpt lat="49.15945" lon="4.13574">
        <ele>208</ele>
        <time>2026-08-24T13:37:12Z</time>
      </trkpt>
      <trkpt lat="49.15948" lon="4.13573">
        <ele>208.2</ele>
        <time>2026-08-24T13:37:13Z</time>
      </trkpt>
      <trkpt lat="49.15951" lon="4.13573">
        <ele>208.4</ele>
        <time>2026-08-24T13:37:14Z</time>
      </trkpt>
      <trkpt lat="49.15954" lon="4.13573">
        <ele>208.4</ele>
        <time>2026-08-24T13:37:15Z</time>
      </trkpt>
      <trkpt lat="49.15957" lon="4.13573">
        <ele>208.6</ele>
        <time>2026-08-24T13:37:16Z</time>
      </trkpt>
      <trkpt lat="49.15961" lon="4.13573">
        <ele>208.8</ele>
        <time>2026-08-24T13:37:17Z</time>
      </trkpt>
      <trkpt lat="49.15964" lon="4.13572">
        <ele>209</ele>
        <time>2026-08-24T13:37:18Z</time>
      </trkpt>
      <trkpt lat="49.15968" lon="4.13572">
        <ele>209</ele>
        <time>2026-08-24T13:37:19Z</time>
      </trkpt>
      <trkpt lat="49.15972" lon="4.13572">
        <ele>209.2</ele>
        <time>2026-08-24T13:37:20Z</time>
      </trkpt>
      <trkpt lat="49.15975" lon="4.13572">
        <ele>209.4</ele>
        <time>2026-08-24T13:37:21Z</time>
      </trkpt>
      <trkpt lat="49.15979" lon="4.13572">
        <ele>209.8</ele>
        <time>2026-08-24T13:37:22Z</time>
      </trkpt>
      <trkpt lat="49.15982" lon="4.13572">
        <ele>210.2</ele>
        <time>2026-08-24T13:37:23Z</time>
      </trkpt>
      <trkpt lat="49.15986" lon="4.13571">
        <ele>210.4</ele>
        <time>2026-08-24T13:37:24Z</time>
      </trkpt>
      <trkpt lat="49.15989" lon="4.13571">
        <ele>210.8</ele>
        <time>2026-08-24T13:37:25Z</time>
      </trkpt>
      <trkpt lat="49.15993" lon="4.13571">
        <ele>211</ele>
        <time>2026-08-24T13:37:26Z</time>
      </trkpt>
      <trkpt lat="49.15997" lon="4.13571">
        <ele>211.2</ele>
        <time>2026-08-24T13:37:27Z</time>
      </trkpt>
      <trkpt lat="49.16" lon="4.1357">
        <ele>211.4</ele>
        <time>2026-08-24T13:37:28Z</time>
      </trkpt>
      <trkpt lat="49.16004" lon="4.1357">
        <ele>211.6</ele>
        <time>2026-08-24T13:37:29Z</time>
      </trkpt>
      <trkpt lat="49.16008" lon="4.1357">
        <ele>211.8</ele>
        <time>2026-08-24T13:37:30Z</time>
      </trkpt>
      <trkpt lat="49.16012" lon="4.13569">
        <ele>211.8</ele>
        <time>2026-08-24T13:37:31Z</time>
      </trkpt>
      <trkpt lat="49.16016" lon="4.13569">
        <ele>212</ele>
        <time>2026-08-24T13:37:32Z</time>
      </trkpt>
      <trkpt lat="49.16019" lon="4.13569">
        <ele>212.2</ele>
        <time>2026-08-24T13:37:33Z</time>
      </trkpt>
      <trkpt lat="49.16023" lon="4.13569">
        <ele>212.4</ele>
        <time>2026-08-24T13:37:34Z</time>
      </trkpt>
      <trkpt lat="49.16027" lon="4.13569">
        <ele>212.4</ele>
        <time>2026-08-24T13:37:35Z</time>
      </trkpt>
      <trkpt lat="49.1603" lon="4.13569">
        <ele>212.6</ele>
        <time>2026-08-24T13:37:36Z</time>
      </trkpt>
      <trkpt lat="49.16034" lon="4.13568">
        <ele>212.6</ele>
        <time>2026-08-24T13:37:37Z</time>
      </trkpt>
      <trkpt lat="49.16037" lon="4.13568">
        <ele>212.8</ele>
        <time>2026-08-24T13:37:38Z</time>
      </trkpt>
      <trkpt lat="49.16041" lon="4.13568">
        <ele>213.2</ele>
        <time>2026-08-24T13:37:39Z</time>
      </trkpt>
      <trkpt lat="49.16044" lon="4.13568">
        <ele>213.6</ele>
        <time>2026-08-24T13:37:40Z</time>
      </trkpt>
      <trkpt lat="49.16047" lon="4.13568">
        <ele>213.8</ele>
        <time>2026-08-24T13:37:41Z</time>
      </trkpt>
      <trkpt lat="49.16051" lon="4.13568">
        <ele>214.2</ele>
        <time>2026-08-24T13:37:42Z</time>
      </trkpt>
      <trkpt lat="49.16054" lon="4.13568">
        <ele>214.6</ele>
        <time>2026-08-24T13:37:43Z</time>
      </trkpt>
      <trkpt lat="49.16057" lon="4.13567">
        <ele>214.8</ele>
        <time>2026-08-24T13:37:44Z</time>
      </trkpt>
      <trkpt lat="49.16061" lon="4.13567">
        <ele>214.8</ele>
        <time>2026-08-24T13:37:45Z</time>
      </trkpt>
      <trkpt lat="49.16064" lon="4.13566">
        <ele>214.8</ele>
        <time>2026-08-24T13:37:46Z</time>
      </trkpt>
      <trkpt lat="49.16067" lon="4.13565">
        <ele>214.8</ele>
        <time>2026-08-24T13:37:47Z</time>
      </trkpt>
      <trkpt lat="49.16071" lon="4.13564">
        <ele>215</ele>
        <time>2026-08-24T13:37:48Z</time>
      </trkpt>
      <trkpt lat="49.16075" lon="4.13562">
        <ele>215</ele>
        <time>2026-08-24T13:37:49Z</time>
      </trkpt>
      <trkpt lat="49.16079" lon="4.1356">
        <ele>215.2</ele>
        <time>2026-08-24T13:37:50Z</time>
      </trkpt>
      <trkpt lat="49.16083" lon="4.13558">
        <ele>215.2</ele>
        <time>2026-08-24T13:37:51Z</time>
      </trkpt>
      <trkpt lat="49.16087" lon="4.13555">
        <ele>215.2</ele>
        <time>2026-08-24T13:37:52Z</time>
      </trkpt>
      <trkpt lat="49.16092" lon="4.13551">
        <ele>215</ele>
        <time>2026-08-24T13:37:53Z</time>
      </trkpt>
      <trkpt lat="49.16096" lon="4.13546">
        <ele>214.8</ele>
        <time>2026-08-24T13:37:54Z</time>
      </trkpt>
      <trkpt lat="49.161" lon="4.13541">
        <ele>214.6</ele>
        <time>2026-08-24T13:37:55Z</time>
      </trkpt>
      <trkpt lat="49.16105" lon="4.13535">
        <ele>214.2</ele>
        <time>2026-08-24T13:37:56Z</time>
      </trkpt>
      <trkpt lat="49.16109" lon="4.13528">
        <ele>214</ele>
        <time>2026-08-24T13:37:57Z</time>
      </trkpt>
      <trkpt lat="49.16113" lon="4.1352">
        <ele>213.8</ele>
        <time>2026-08-24T13:37:58Z</time>
      </trkpt>
      <trkpt lat="49.16116" lon="4.1351">
        <ele>213.6</ele>
        <time>2026-08-24T13:37:59Z</time>
      </trkpt>
      <trkpt lat="49.16119" lon="4.135">
        <ele>213.2</ele>
        <time>2026-08-24T13:38:00Z</time>
      </trkpt>
      <trkpt lat="49.16121" lon="4.13488">
        <ele>212.8</ele>
        <time>2026-08-24T13:38:01Z</time>
      </trkpt>
      <trkpt lat="49.16123" lon="4.13476">
        <ele>212.4</ele>
        <time>2026-08-24T13:38:02Z</time>
      </trkpt>
      <trkpt lat="49.16123" lon="4.13463">
        <ele>211.6</ele>
        <time>2026-08-24T13:38:03Z</time>
      </trkpt>
      <trkpt lat="49.16123" lon="4.13449">
        <ele>211</ele>
        <time>2026-08-24T13:38:04Z</time>
      </trkpt>
      <trkpt lat="49.16122" lon="4.13435">
        <ele>210.4</ele>
        <time>2026-08-24T13:38:05Z</time>
      </trkpt>
      <trkpt lat="49.16122" lon="4.1342">
        <ele>210</ele>
        <time>2026-08-24T13:38:06Z</time>
      </trkpt>
      <trkpt lat="49.1612" lon="4.13405">
        <ele>209.2</ele>
        <time>2026-08-24T13:38:07Z</time>
      </trkpt>
      <trkpt lat="49.16118" lon="4.13389">
        <ele>208.4</ele>
        <time>2026-08-24T13:38:08Z</time>
      </trkpt>
      <trkpt lat="49.16116" lon="4.13374">
        <ele>208</ele>
        <time>2026-08-24T13:38:09Z</time>
      </trkpt>
      <trkpt lat="49.16114" lon="4.13357">
        <ele>207.4</ele>
        <time>2026-08-24T13:38:10Z</time>
      </trkpt>
      <trkpt lat="49.16112" lon="4.13341">
        <ele>207</ele>
        <time>2026-08-24T13:38:11Z</time>
      </trkpt>
      <trkpt lat="49.1611" lon="4.13323">
        <ele>206.6</ele>
        <time>2026-08-24T13:38:12Z</time>
      </trkpt>
      <trkpt lat="49.16108" lon="4.13306">
        <ele>205.8</ele>
        <time>2026-08-24T13:38:13Z</time>
      </trkpt>
      <trkpt lat="49.16107" lon="4.13288">
        <ele>205</ele>
        <time>2026-08-24T13:38:14Z</time>
      </trkpt>
      <trkpt lat="49.16105" lon="4.13271">
        <ele>204.4</ele>
        <time>2026-08-24T13:38:15Z</time>
      </trkpt>
      <trkpt lat="49.16104" lon="4.13252">
        <ele>203.4</ele>
        <time>2026-08-24T13:38:16Z</time>
      </trkpt>
      <trkpt lat="49.16104" lon="4.13234">
        <ele>202.8</ele>
        <time>2026-08-24T13:38:17Z</time>
      </trkpt>
      <trkpt lat="49.16104" lon="4.13216">
        <ele>202</ele>
        <time>2026-08-24T13:38:18Z</time>
      </trkpt>
      <trkpt lat="49.16103" lon="4.13198">
        <ele>201.6</ele>
        <time>2026-08-24T13:38:19Z</time>
      </trkpt>
      <trkpt lat="49.16104" lon="4.13181">
        <ele>201</ele>
        <time>2026-08-24T13:38:20Z</time>
      </trkpt>
      <trkpt lat="49.16104" lon="4.13164">
        <ele>200.8</ele>
        <time>2026-08-24T13:38:21Z</time>
      </trkpt>
      <trkpt lat="49.16103" lon="4.13148">
        <ele>200.6</ele>
        <time>2026-08-24T13:38:22Z</time>
      </trkpt>
      <trkpt lat="49.16103" lon="4.13131">
        <ele>200.6</ele>
        <time>2026-08-24T13:38:23Z</time>
      </trkpt>
      <trkpt lat="49.16103" lon="4.13115">
        <ele>200.4</ele>
        <time>2026-08-24T13:38:24Z</time>
      </trkpt>
      <trkpt lat="49.16103" lon="4.131">
        <ele>200.4</ele>
        <time>2026-08-24T13:38:25Z</time>
      </trkpt>
      <trkpt lat="49.16101" lon="4.13084">
        <ele>200.4</ele>
        <time>2026-08-24T13:38:26Z</time>
      </trkpt>
      <trkpt lat="49.16098" lon="4.1307">
        <ele>200.6</ele>
        <time>2026-08-24T13:38:27Z</time>
      </trkpt>
      <trkpt lat="49.16093" lon="4.13057">
        <ele>200.6</ele>
        <time>2026-08-24T13:38:28Z</time>
      </trkpt>
      <trkpt lat="49.16086" lon="4.13046">
        <ele>200.6</ele>
        <time>2026-08-24T13:38:29Z</time>
      </trkpt>
      <trkpt lat="49.16078" lon="4.13037">
        <ele>200.4</ele>
        <time>2026-08-24T13:38:30Z</time>
      </trkpt>
      <trkpt lat="49.1607" lon="4.1303">
        <ele>200</ele>
        <time>2026-08-24T13:38:31Z</time>
      </trkpt>
      <trkpt lat="49.16061" lon="4.13024">
        <ele>199.6</ele>
        <time>2026-08-24T13:38:32Z</time>
      </trkpt>
      <trkpt lat="49.16051" lon="4.1302">
        <ele>199.4</ele>
        <time>2026-08-24T13:38:33Z</time>
      </trkpt>
      <trkpt lat="49.16042" lon="4.13016">
        <ele>199.2</ele>
        <time>2026-08-24T13:38:34Z</time>
      </trkpt>
      <trkpt lat="49.16033" lon="4.13011">
        <ele>199</ele>
        <time>2026-08-24T13:38:35Z</time>
      </trkpt>
      <trkpt lat="49.16024" lon="4.13006">
        <ele>198.6</ele>
        <time>2026-08-24T13:38:36Z</time>
      </trkpt>
      <trkpt lat="49.16016" lon="4.13">
        <ele>198.2</ele>
        <time>2026-08-24T13:38:37Z</time>
      </trkpt>
      <trkpt lat="49.16007" lon="4.12993">
        <ele>197.8</ele>
        <time>2026-08-24T13:38:38Z</time>
      </trkpt>
      <trkpt lat="49.16" lon="4.12984">
        <ele>197.6</ele>
        <time>2026-08-24T13:38:39Z</time>
      </trkpt>
      <trkpt lat="49.15994" lon="4.12973">
        <ele>197.2</ele>
        <time>2026-08-24T13:38:40Z</time>
      </trkpt>
      <trkpt lat="49.15989" lon="4.12961">
        <ele>197</ele>
        <time>2026-08-24T13:38:41Z</time>
      </trkpt>
      <trkpt lat="49.15986" lon="4.12949">
        <ele>196.8</ele>
        <time>2026-08-24T13:38:42Z</time>
      </trkpt>
      <trkpt lat="49.15984" lon="4.12936">
        <ele>197</ele>
        <time>2026-08-24T13:38:43Z</time>
      </trkpt>
      <trkpt lat="49.15982" lon="4.12923">
        <ele>196.8</ele>
        <time>2026-08-24T13:38:44Z</time>
      </trkpt>
      <trkpt lat="49.15979" lon="4.12909">
        <ele>196.6</ele>
        <time>2026-08-24T13:38:45Z</time>
      </trkpt>
      <trkpt lat="49.15977" lon="4.12896">
        <ele>196.6</ele>
        <time>2026-08-24T13:38:46Z</time>
      </trkpt>
      <trkpt lat="49.15974" lon="4.12882">
        <ele>196.6</ele>
        <time>2026-08-24T13:38:47Z</time>
      </trkpt>
      <trkpt lat="49.15971" lon="4.12868">
        <ele>196.2</ele>
        <time>2026-08-24T13:38:48Z</time>
      </trkpt>
      <trkpt lat="49.15968" lon="4.12853">
        <ele>196</ele>
        <time>2026-08-24T13:38:49Z</time>
      </trkpt>
      <trkpt lat="49.15965" lon="4.12838">
        <ele>195.2</ele>
        <time>2026-08-24T13:38:50Z</time>
      </trkpt>
      <trkpt lat="49.15962" lon="4.12823">
        <ele>194.6</ele>
        <time>2026-08-24T13:38:51Z</time>
      </trkpt>
      <trkpt lat="49.15959" lon="4.12808">
        <ele>194</ele>
        <time>2026-08-24T13:38:52Z</time>
      </trkpt>
      <trkpt lat="49.15956" lon="4.12792">
        <ele>193.4</ele>
        <time>2026-08-24T13:38:53Z</time>
      </trkpt>
      <trkpt lat="49.15953" lon="4.12776">
        <ele>193.2</ele>
        <time>2026-08-24T13:38:54Z</time>
      </trkpt>
      <trkpt lat="49.15951" lon="4.1276">
        <ele>192.6</ele>
        <time>2026-08-24T13:38:55Z</time>
      </trkpt>
      <trkpt lat="49.15948" lon="4.12742">
        <ele>192</ele>
        <time>2026-08-24T13:38:56Z</time>
      </trkpt>
      <trkpt lat="49.15945" lon="4.12725">
        <ele>191.6</ele>
        <time>2026-08-24T13:38:57Z</time>
      </trkpt>
      <trkpt lat="49.15943" lon="4.12708">
        <ele>190.6</ele>
        <time>2026-08-24T13:38:58Z</time>
      </trkpt>
      <trkpt lat="49.1594" lon="4.12691">
        <ele>190</ele>
        <time>2026-08-24T13:38:59Z</time>
      </trkpt>
      <trkpt lat="49.15937" lon="4.12675">
        <ele>189.6</ele>
        <time>2026-08-24T13:39:00Z</time>
      </trkpt>
      <trkpt lat="49.15934" lon="4.12658">
        <ele>188.8</ele>
        <time>2026-08-24T13:39:01Z</time>
      </trkpt>
      <trkpt lat="49.15932" lon="4.12641">
        <ele>188.2</ele>
        <time>2026-08-24T13:39:02Z</time>
      </trkpt>
      <trkpt lat="49.15929" lon="4.12623">
        <ele>188</ele>
        <time>2026-08-24T13:39:03Z</time>
      </trkpt>
      <trkpt lat="49.15926" lon="4.12606">
        <ele>188</ele>
        <time>2026-08-24T13:39:04Z</time>
      </trkpt>
      <trkpt lat="49.15922" lon="4.12589">
        <ele>187.6</ele>
        <time>2026-08-24T13:39:05Z</time>
      </trkpt>
      <trkpt lat="49.15919" lon="4.12571">
        <ele>187</ele>
        <time>2026-08-24T13:39:06Z</time>
      </trkpt>
      <trkpt lat="49.15916" lon="4.12554">
        <ele>186.4</ele>
        <time>2026-08-24T13:39:07Z</time>
      </trkpt>
      <trkpt lat="49.15912" lon="4.12536">
        <ele>185.8</ele>
        <time>2026-08-24T13:39:08Z</time>
      </trkpt>
      <trkpt lat="49.15909" lon="4.12517">
        <ele>185.4</ele>
        <time>2026-08-24T13:39:09Z</time>
      </trkpt>
      <trkpt lat="49.15905" lon="4.12499">
        <ele>184.4</ele>
        <time>2026-08-24T13:39:10Z</time>
      </trkpt>
      <trkpt lat="49.15902" lon="4.1248">
        <ele>183.4</ele>
        <time>2026-08-24T13:39:11Z</time>
      </trkpt>
      <trkpt lat="49.15899" lon="4.12462">
        <ele>182.4</ele>
        <time>2026-08-24T13:39:12Z</time>
      </trkpt>
      <trkpt lat="49.15896" lon="4.12443">
        <ele>181</ele>
        <time>2026-08-24T13:39:13Z</time>
      </trkpt>
      <trkpt lat="49.15893" lon="4.12424">
        <ele>180.2</ele>
        <time>2026-08-24T13:39:14Z</time>
      </trkpt>
      <trkpt lat="49.15889" lon="4.12406">
        <ele>179.8</ele>
        <time>2026-08-24T13:39:15Z</time>
      </trkpt>
      <trkpt lat="49.15887" lon="4.12387">
        <ele>179.6</ele>
        <time>2026-08-24T13:39:16Z</time>
      </trkpt>
      <trkpt lat="49.15885" lon="4.12369">
        <ele>179</ele>
        <time>2026-08-24T13:39:17Z</time>
      </trkpt>
      <trkpt lat="49.15883" lon="4.1235">
        <ele>179</ele>
        <time>2026-08-24T13:39:18Z</time>
      </trkpt>
      <trkpt lat="49.15882" lon="4.12331">
        <ele>178.8</ele>
        <time>2026-08-24T13:39:19Z</time>
      </trkpt>
      <trkpt lat="49.15881" lon="4.12312">
        <ele>178.6</ele>
        <time>2026-08-24T13:39:20Z</time>
      </trkpt>
      <trkpt lat="49.1588" lon="4.12293">
        <ele>178.4</ele>
        <time>2026-08-24T13:39:21Z</time>
      </trkpt>
      <trkpt lat="49.15879" lon="4.12274">
        <ele>178.2</ele>
        <time>2026-08-24T13:39:22Z</time>
      </trkpt>
      <trkpt lat="49.15878" lon="4.12255">
        <ele>177.8</ele>
        <time>2026-08-24T13:39:23Z</time>
      </trkpt>
      <trkpt lat="49.15878" lon="4.12237">
        <ele>177.4</ele>
        <time>2026-08-24T13:39:24Z</time>
      </trkpt>
      <trkpt lat="49.15877" lon="4.12218">
        <ele>177.4</ele>
        <time>2026-08-24T13:39:25Z</time>
      </trkpt>
      <trkpt lat="49.15877" lon="4.122">
        <ele>177</ele>
        <time>2026-08-24T13:39:26Z</time>
      </trkpt>
      <trkpt lat="49.15877" lon="4.12181">
        <ele>176.8</ele>
        <time>2026-08-24T13:39:27Z</time>
      </trkpt>
      <trkpt lat="49.15876" lon="4.12163">
        <ele>176.6</ele>
        <time>2026-08-24T13:39:28Z</time>
      </trkpt>
      <trkpt lat="49.15876" lon="4.12144">
        <ele>176.4</ele>
        <time>2026-08-24T13:39:29Z</time>
      </trkpt>
      <trkpt lat="49.15875" lon="4.12126">
        <ele>176</ele>
        <time>2026-08-24T13:39:30Z</time>
      </trkpt>
      <trkpt lat="49.15875" lon="4.12107">
        <ele>175.8</ele>
        <time>2026-08-24T13:39:31Z</time>
      </trkpt>
      <trkpt lat="49.15875" lon="4.12089">
        <ele>175.6</ele>
        <time>2026-08-24T13:39:32Z</time>
      </trkpt>
      <trkpt lat="49.15874" lon="4.12071">
        <ele>175.4</ele>
        <time>2026-08-24T13:39:33Z</time>
      </trkpt>
      <trkpt lat="49.15873" lon="4.12053">
        <ele>175.2</ele>
        <time>2026-08-24T13:39:34Z</time>
      </trkpt>
      <trkpt lat="49.15871" lon="4.12035">
        <ele>174.8</ele>
        <time>2026-08-24T13:39:35Z</time>
      </trkpt>
      <trkpt lat="49.15868" lon="4.12017">
        <ele>174.2</ele>
        <time>2026-08-24T13:39:36Z</time>
      </trkpt>
      <trkpt lat="49.15863" lon="4.12">
        <ele>173.4</ele>
        <time>2026-08-24T13:39:37Z</time>
      </trkpt>
      <trkpt lat="49.15858" lon="4.11982">
        <ele>172.6</ele>
        <time>2026-08-24T13:39:38Z</time>
      </trkpt>
      <trkpt lat="49.15853" lon="4.11964">
        <ele>171.8</ele>
        <time>2026-08-24T13:39:39Z</time>
      </trkpt>
      <trkpt lat="49.15847" lon="4.11946">
        <ele>170.8</ele>
        <time>2026-08-24T13:39:40Z</time>
      </trkpt>
      <trkpt lat="49.15841" lon="4.11927">
        <ele>169.8</ele>
        <time>2026-08-24T13:39:41Z</time>
      </trkpt>
      <trkpt lat="49.15835" lon="4.11909">
        <ele>169</ele>
        <time>2026-08-24T13:39:42Z</time>
      </trkpt>
      <trkpt lat="49.1583" lon="4.1189">
        <ele>168</ele>
        <time>2026-08-24T13:39:43Z</time>
      </trkpt>
      <trkpt lat="49.15824" lon="4.11872">
        <ele>167</ele>
        <time>2026-08-24T13:39:44Z</time>
      </trkpt>
      <trkpt lat="49.15818" lon="4.11853">
        <ele>166</ele>
        <time>2026-08-24T13:39:45Z</time>
      </trkpt>
      <trkpt lat="49.15812" lon="4.11834">
        <ele>165.2</ele>
        <time>2026-08-24T13:39:46Z</time>
      </trkpt>
      <trkpt lat="49.15807" lon="4.11815">
        <ele>164.4</ele>
        <time>2026-08-24T13:39:47Z</time>
      </trkpt>
      <trkpt lat="49.15803" lon="4.11795">
        <ele>163.8</ele>
        <time>2026-08-24T13:39:48Z</time>
      </trkpt>
      <trkpt lat="49.158" lon="4.11775">
        <ele>163.2</ele>
        <time>2026-08-24T13:39:49Z</time>
      </trkpt>
      <trkpt lat="49.15798" lon="4.11756">
        <ele>162.8</ele>
        <time>2026-08-24T13:39:50Z</time>
      </trkpt>
      <trkpt lat="49.15796" lon="4.11736">
        <ele>162.4</ele>
        <time>2026-08-24T13:39:51Z</time>
      </trkpt>
      <trkpt lat="49.15794" lon="4.11717">
        <ele>162.2</ele>
        <time>2026-08-24T13:39:52Z</time>
      </trkpt>
      <trkpt lat="49.15793" lon="4.11698">
        <ele>162</ele>
        <time>2026-08-24T13:39:53Z</time>
      </trkpt>
      <trkpt lat="49.15791" lon="4.1168">
        <ele>162</ele>
        <time>2026-08-24T13:39:54Z</time>
      </trkpt>
      <trkpt lat="49.1579" lon="4.11662">
        <ele>162</ele>
        <time>2026-08-24T13:39:55Z</time>
      </trkpt>
      <trkpt lat="49.1579" lon="4.11645">
        <ele>162</ele>
        <time>2026-08-24T13:39:56Z</time>
      </trkpt>
      <trkpt lat="49.1579" lon="4.11628">
        <ele>161.8</ele>
        <time>2026-08-24T13:39:57Z</time>
      </trkpt>
      <trkpt lat="49.1579" lon="4.11611">
        <ele>161.8</ele>
        <time>2026-08-24T13:39:58Z</time>
      </trkpt>
      <trkpt lat="49.15791" lon="4.11594">
        <ele>161.6</ele>
        <time>2026-08-24T13:39:59Z</time>
      </trkpt>
      <trkpt lat="49.15793" lon="4.11577">
        <ele>161.4</ele>
        <time>2026-08-24T13:40:00Z</time>
      </trkpt>
      <trkpt lat="49.15794" lon="4.11561">
        <ele>161.4</ele>
        <time>2026-08-24T13:40:01Z</time>
      </trkpt>
      <trkpt lat="49.15795" lon="4.11545">
        <ele>161.4</ele>
        <time>2026-08-24T13:40:02Z</time>
      </trkpt>
      <trkpt lat="49.15796" lon="4.11529">
        <ele>161.4</ele>
        <time>2026-08-24T13:40:03Z</time>
      </trkpt>
      <trkpt lat="49.15797" lon="4.11513">
        <ele>161.2</ele>
        <time>2026-08-24T13:40:04Z</time>
      </trkpt>
      <trkpt lat="49.15798" lon="4.11497">
        <ele>161.4</ele>
        <time>2026-08-24T13:40:05Z</time>
      </trkpt>
      <trkpt lat="49.15797" lon="4.11482">
        <ele>161.4</ele>
        <time>2026-08-24T13:40:06Z</time>
      </trkpt>
      <trkpt lat="49.15796" lon="4.11467">
        <ele>161.2</ele>
        <time>2026-08-24T13:40:07Z</time>
      </trkpt>
      <trkpt lat="49.15795" lon="4.11452">
        <ele>161.2</ele>
        <time>2026-08-24T13:40:08Z</time>
      </trkpt>
      <trkpt lat="49.15793" lon="4.11437">
        <ele>161.2</ele>
        <time>2026-08-24T13:40:09Z</time>
      </trkpt>
      <trkpt lat="49.15791" lon="4.11424">
        <ele>161.2</ele>
        <time>2026-08-24T13:40:10Z</time>
      </trkpt>
      <trkpt lat="49.15789" lon="4.1141">
        <ele>161.4</ele>
        <time>2026-08-24T13:40:11Z</time>
      </trkpt>
      <trkpt lat="49.15788" lon="4.11397">
        <ele>161.6</ele>
        <time>2026-08-24T13:40:12Z</time>
      </trkpt>
      <trkpt lat="49.15786" lon="4.11384">
        <ele>161.8</ele>
        <time>2026-08-24T13:40:13Z</time>
      </trkpt>
      <trkpt lat="49.15784" lon="4.11372">
        <ele>162</ele>
        <time>2026-08-24T13:40:14Z</time>
      </trkpt>
      <trkpt lat="49.15782" lon="4.11359">
        <ele>162.2</ele>
        <time>2026-08-24T13:40:15Z</time>
      </trkpt>
      <trkpt lat="49.1578" lon="4.11347">
        <ele>162.4</ele>
        <time>2026-08-24T13:40:16Z</time>
      </trkpt>
      <trkpt lat="49.15779" lon="4.11336">
        <ele>162.6</ele>
        <time>2026-08-24T13:40:17Z</time>
      </trkpt>
      <trkpt lat="49.15777" lon="4.11324">
        <ele>162.8</ele>
        <time>2026-08-24T13:40:18Z</time>
      </trkpt>
      <trkpt lat="49.15775" lon="4.11313">
        <ele>163</ele>
        <time>2026-08-24T13:40:19Z</time>
      </trkpt>
      <trkpt lat="49.15773" lon="4.11302">
        <ele>163.2</ele>
        <time>2026-08-24T13:40:20Z</time>
      </trkpt>
      <trkpt lat="49.15772" lon="4.11292">
        <ele>163.4</ele>
        <time>2026-08-24T13:40:21Z</time>
      </trkpt>
      <trkpt lat="49.1577" lon="4.1128">
        <ele>163.4</ele>
        <time>2026-08-24T13:40:22Z</time>
      </trkpt>
      <trkpt lat="49.15769" lon="4.11269">
        <ele>163.6</ele>
        <time>2026-08-24T13:40:23Z</time>
      </trkpt>
      <trkpt lat="49.15768" lon="4.11259">
        <ele>163.6</ele>
        <time>2026-08-24T13:40:24Z</time>
      </trkpt>
      <trkpt lat="49.15767" lon="4.11248">
        <ele>163.8</ele>
        <time>2026-08-24T13:40:25Z</time>
      </trkpt>
      <trkpt lat="49.15766" lon="4.11238">
        <ele>163.8</ele>
        <time>2026-08-24T13:40:26Z</time>
      </trkpt>
      <trkpt lat="49.15765" lon="4.11227">
        <ele>163.8</ele>
        <time>2026-08-24T13:40:27Z</time>
      </trkpt>
      <trkpt lat="49.15764" lon="4.11217">
        <ele>164</ele>
        <time>2026-08-24T13:40:28Z</time>
      </trkpt>
      <trkpt lat="49.15764" lon="4.11206">
        <ele>164.2</ele>
        <time>2026-08-24T13:40:29Z</time>
      </trkpt>
      <trkpt lat="49.15763" lon="4.11197">
        <ele>164.6</ele>
        <time>2026-08-24T13:40:30Z</time>
      </trkpt>
      <trkpt lat="49.15762" lon="4.11187">
        <ele>164.8</ele>
        <time>2026-08-24T13:40:31Z</time>
      </trkpt>
      <trkpt lat="49.15763" lon="4.11179">
        <ele>165</ele>
        <time>2026-08-24T13:40:32Z</time>
      </trkpt>
      <trkpt lat="49.15765" lon="4.11172">
        <ele>165.2</ele>
        <time>2026-08-24T13:40:33Z</time>
      </trkpt>
      <trkpt lat="49.15769" lon="4.11167">
        <ele>165.2</ele>
        <time>2026-08-24T13:40:34Z</time>
      </trkpt>
      <trkpt lat="49.15773" lon="4.11165">
        <ele>165.2</ele>
        <time>2026-08-24T13:40:35Z</time>
      </trkpt>
      <trkpt lat="49.15778" lon="4.11163">
        <ele>165.2</ele>
        <time>2026-08-24T13:40:36Z</time>
      </trkpt>
      <trkpt lat="49.15783" lon="4.11162">
        <ele>165.2</ele>
        <time>2026-08-24T13:40:37Z</time>
      </trkpt>
      <trkpt lat="49.15788" lon="4.11161">
        <ele>165.2</ele>
        <time>2026-08-24T13:40:38Z</time>
      </trkpt>
      <trkpt lat="49.15793" lon="4.11159">
        <ele>165.2</ele>
        <time>2026-08-24T13:40:39Z</time>
      </trkpt>
      <trkpt lat="49.15798" lon="4.11158">
        <ele>165.4</ele>
        <time>2026-08-24T13:40:40Z</time>
      </trkpt>
      <trkpt lat="49.15802" lon="4.11155">
        <ele>165.6</ele>
        <time>2026-08-24T13:40:41Z</time>
      </trkpt>
      <trkpt lat="49.15807" lon="4.11151">
        <ele>165.8</ele>
        <time>2026-08-24T13:40:42Z</time>
      </trkpt>
      <trkpt lat="49.15809" lon="4.11146">
        <ele>165.8</ele>
        <time>2026-08-24T13:40:43Z</time>
      </trkpt>
      <trkpt lat="49.1581" lon="4.11139">
        <ele>166.2</ele>
        <time>2026-08-24T13:40:44Z</time>
      </trkpt>
      <trkpt lat="49.15811" lon="4.11132">
        <ele>166.4</ele>
        <time>2026-08-24T13:40:45Z</time>
      </trkpt>
      <trkpt lat="49.1581" lon="4.11125">
        <ele>166.4</ele>
        <time>2026-08-24T13:40:46Z</time>
      </trkpt>
      <trkpt lat="49.1581" lon="4.11117">
        <ele>166.6</ele>
        <time>2026-08-24T13:40:47Z</time>
      </trkpt>
      <trkpt lat="49.15809" lon="4.1111">
        <ele>166.8</ele>
        <time>2026-08-24T13:40:48Z</time>
      </trkpt>
      <trkpt lat="49.15809" lon="4.11102">
        <ele>167</ele>
        <time>2026-08-24T13:40:49Z</time>
      </trkpt>
      <trkpt lat="49.15808" lon="4.11095">
        <ele>167.2</ele>
        <time>2026-08-24T13:40:50Z</time>
      </trkpt>
      <trkpt lat="49.15808" lon="4.11088">
        <ele>167.4</ele>
        <time>2026-08-24T13:40:51Z</time>
      </trkpt>
      <trkpt lat="49.15808" lon="4.11081">
        <ele>167.6</ele>
        <time>2026-08-24T13:40:52Z</time>
      </trkpt>
      <trkpt lat="49.15808" lon="4.11075">
        <ele>168</ele>
        <time>2026-08-24T13:40:53Z</time>
      </trkpt>
      <trkpt lat="49.15808" lon="4.11068">
        <ele>168.2</ele>
        <time>2026-08-24T13:40:54Z</time>
      </trkpt>
      <trkpt lat="49.15808" lon="4.11062">
        <ele>168.4</ele>
        <time>2026-08-24T13:40:55Z</time>
      </trkpt>
      <trkpt lat="49.15808" lon="4.11056">
        <ele>168.6</ele>
        <time>2026-08-24T13:40:56Z</time>
      </trkpt>
      <trkpt lat="49.15808" lon="4.1105">
        <ele>168.8</ele>
        <time>2026-08-24T13:40:57Z</time>
      </trkpt>
      <trkpt lat="49.15807" lon="4.11043">
        <ele>169</ele>
        <time>2026-08-24T13:40:58Z</time>
      </trkpt>
      <trkpt lat="49.15807" lon="4.11036">
        <ele>169.2</ele>
        <time>2026-08-24T13:40:59Z</time>
      </trkpt>
      <trkpt lat="49.15807" lon="4.11029">
        <ele>169.4</ele>
        <time>2026-08-24T13:41:00Z</time>
      </trkpt>
      <trkpt lat="49.15806" lon="4.11021">
        <ele>169.6</ele>
        <time>2026-08-24T13:41:01Z</time>
      </trkpt>
      <trkpt lat="49.15806" lon="4.11013">
        <ele>169.8</ele>
        <time>2026-08-24T13:41:02Z</time>
      </trkpt>
      <trkpt lat="49.15805" lon="4.11005">
        <ele>170</ele>
        <time>2026-08-24T13:41:03Z</time>
      </trkpt>
      <trkpt lat="49.15805" lon="4.10996">
        <ele>170</ele>
        <time>2026-08-24T13:41:04Z</time>
      </trkpt>
      <trkpt lat="49.15805" lon="4.10988">
        <ele>170</ele>
        <time>2026-08-24T13:41:05Z</time>
      </trkpt>
      <trkpt lat="49.15804" lon="4.10979">
        <ele>170</ele>
        <time>2026-08-24T13:41:06Z</time>
      </trkpt>
      <trkpt lat="49.15804" lon="4.10971">
        <ele>170</ele>
        <time>2026-08-24T13:41:07Z</time>
      </trkpt>
      <trkpt lat="49.15804" lon="4.10962">
        <ele>170</ele>
        <time>2026-08-24T13:41:08Z</time>
      </trkpt>
      <trkpt lat="49.15804" lon="4.10953">
        <ele>170</ele>
        <time>2026-08-24T13:41:09Z</time>
      </trkpt>
      <trkpt lat="49.15804" lon="4.10944">
        <ele>170.2</ele>
        <time>2026-08-24T13:41:10Z</time>
      </trkpt>
      <trkpt lat="49.15804" lon="4.10935">
        <ele>170</ele>
        <time>2026-08-24T13:41:11Z</time>
      </trkpt>
      <trkpt lat="49.15803" lon="4.10926">
        <ele>170</ele>
        <time>2026-08-24T13:41:12Z</time>
      </trkpt>
      <trkpt lat="49.15802" lon="4.10917">
        <ele>170</ele>
        <time>2026-08-24T13:41:13Z</time>
      </trkpt>
      <trkpt lat="49.15802" lon="4.10908">
        <ele>170</ele>
        <time>2026-08-24T13:41:14Z</time>
      </trkpt>
      <trkpt lat="49.15802" lon="4.10899">
        <ele>170</ele>
        <time>2026-08-24T13:41:15Z</time>
      </trkpt>
      <trkpt lat="49.15801" lon="4.1089">
        <ele>170</ele>
        <time>2026-08-24T13:41:16Z</time>
      </trkpt>
      <trkpt lat="49.158" lon="4.10881">
        <ele>170.2</ele>
        <time>2026-08-24T13:41:17Z</time>
      </trkpt>
      <trkpt lat="49.158" lon="4.10871">
        <ele>170.2</ele>
        <time>2026-08-24T13:41:18Z</time>
      </trkpt>
      <trkpt lat="49.158" lon="4.10862">
        <ele>170.2</ele>
        <time>2026-08-24T13:41:19Z</time>
      </trkpt>
      <trkpt lat="49.158" lon="4.10852">
        <ele>170.2</ele>
        <time>2026-08-24T13:41:20Z</time>
      </trkpt>
      <trkpt lat="49.158" lon="4.10842">
        <ele>170.2</ele>
        <time>2026-08-24T13:41:21Z</time>
      </trkpt>
      <trkpt lat="49.15799" lon="4.10832">
        <ele>170.4</ele>
        <time>2026-08-24T13:41:22Z</time>
      </trkpt>
      <trkpt lat="49.15799" lon="4.10821">
        <ele>170.4</ele>
        <time>2026-08-24T13:41:23Z</time>
      </trkpt>
      <trkpt lat="49.15799" lon="4.10812">
        <ele>170.2</ele>
        <time>2026-08-24T13:41:24Z</time>
      </trkpt>
      <trkpt lat="49.15798" lon="4.10801">
        <ele>170.2</ele>
        <time>2026-08-24T13:41:25Z</time>
      </trkpt>
      <trkpt lat="49.15798" lon="4.10791">
        <ele>170</ele>
        <time>2026-08-24T13:41:26Z</time>
      </trkpt>
      <trkpt lat="49.15798" lon="4.10781">
        <ele>170</ele>
        <time>2026-08-24T13:41:27Z</time>
      </trkpt>
      <trkpt lat="49.15797" lon="4.10772">
        <ele>170</ele>
        <time>2026-08-24T13:41:28Z</time>
      </trkpt>
      <trkpt lat="49.15796" lon="4.10761">
        <ele>169.8</ele>
        <time>2026-08-24T13:41:29Z</time>
      </trkpt>
      <trkpt lat="49.15796" lon="4.10751">
        <ele>169.8</ele>
        <time>2026-08-24T13:41:30Z</time>
      </trkpt>
      <trkpt lat="49.15795" lon="4.10741">
        <ele>169.8</ele>
        <time>2026-08-24T13:41:31Z</time>
      </trkpt>
      <trkpt lat="49.15794" lon="4.10731">
        <ele>169.6</ele>
        <time>2026-08-24T13:41:32Z</time>
      </trkpt>
      <trkpt lat="49.15794" lon="4.1072">
        <ele>169.6</ele>
        <time>2026-08-24T13:41:33Z</time>
      </trkpt>
      <trkpt lat="49.15793" lon="4.10709">
        <ele>169.4</ele>
        <time>2026-08-24T13:41:34Z</time>
      </trkpt>
      <trkpt lat="49.15793" lon="4.10698">
        <ele>169.4</ele>
        <time>2026-08-24T13:41:35Z</time>
      </trkpt>
      <trkpt lat="49.15793" lon="4.10687">
        <ele>169.4</ele>
        <time>2026-08-24T13:41:36Z</time>
      </trkpt>
      <trkpt lat="49.15793" lon="4.10676">
        <ele>169.4</ele>
        <time>2026-08-24T13:41:37Z</time>
      </trkpt>
      <trkpt lat="49.15793" lon="4.10665">
        <ele>169.2</ele>
        <time>2026-08-24T13:41:38Z</time>
      </trkpt>
      <trkpt lat="49.15793" lon="4.10654">
        <ele>169.4</ele>
        <time>2026-08-24T13:41:39Z</time>
      </trkpt>
      <trkpt lat="49.15793" lon="4.10643">
        <ele>169.4</ele>
        <time>2026-08-24T13:41:40Z</time>
      </trkpt>
      <trkpt lat="49.15794" lon="4.10632">
        <ele>169.4</ele>
        <time>2026-08-24T13:41:41Z</time>
      </trkpt>
      <trkpt lat="49.15794" lon="4.10621">
        <ele>169.2</ele>
        <time>2026-08-24T13:41:42Z</time>
      </trkpt>
      <trkpt lat="49.15795" lon="4.1061">
        <ele>169.4</ele>
        <time>2026-08-24T13:41:43Z</time>
      </trkpt>
      <trkpt lat="49.15795" lon="4.10599">
        <ele>169.4</ele>
        <time>2026-08-24T13:41:44Z</time>
      </trkpt>
      <trkpt lat="49.15795" lon="4.10588">
        <ele>169.6</ele>
        <time>2026-08-24T13:41:45Z</time>
      </trkpt>
      <trkpt lat="49.15796" lon="4.10578">
        <ele>169.4</ele>
        <time>2026-08-24T13:41:46Z</time>
      </trkpt>
      <trkpt lat="49.15796" lon="4.10568">
        <ele>169.8</ele>
        <time>2026-08-24T13:41:47Z</time>
      </trkpt>
      <trkpt lat="49.15797" lon="4.10557">
        <ele>169.8</ele>
        <time>2026-08-24T13:41:48Z</time>
      </trkpt>
      <trkpt lat="49.15797" lon="4.10548">
        <ele>170.2</ele>
        <time>2026-08-24T13:41:49Z</time>
      </trkpt>
      <trkpt lat="49.15798" lon="4.10538">
        <ele>170.4</ele>
        <time>2026-08-24T13:41:50Z</time>
      </trkpt>
      <trkpt lat="49.15798" lon="4.10529">
        <ele>170.6</ele>
        <time>2026-08-24T13:41:51Z</time>
      </trkpt>
      <trkpt lat="49.15798" lon="4.10519">
        <ele>170.8</ele>
        <time>2026-08-24T13:41:52Z</time>
      </trkpt>
      <trkpt lat="49.15798" lon="4.10509">
        <ele>171</ele>
        <time>2026-08-24T13:41:53Z</time>
      </trkpt>
      <trkpt lat="49.15799" lon="4.10499">
        <ele>171</ele>
        <time>2026-08-24T13:41:54Z</time>
      </trkpt>
      <trkpt lat="49.15799" lon="4.10489">
        <ele>171.2</ele>
        <time>2026-08-24T13:41:55Z</time>
      </trkpt>
      <trkpt lat="49.15799" lon="4.10479">
        <ele>171.2</ele>
        <time>2026-08-24T13:41:56Z</time>
      </trkpt>
      <trkpt lat="49.158" lon="4.10469">
        <ele>171.4</ele>
        <time>2026-08-24T13:41:57Z</time>
      </trkpt>
      <trkpt lat="49.158" lon="4.10459">
        <ele>171.2</ele>
        <time>2026-08-24T13:41:58Z</time>
      </trkpt>
      <trkpt lat="49.158" lon="4.10448">
        <ele>171.4</ele>
        <time>2026-08-24T13:41:59Z</time>
      </trkpt>
      <trkpt lat="49.15801" lon="4.10438">
        <ele>171.2</ele>
        <time>2026-08-24T13:42:00Z</time>
      </trkpt>
      <trkpt lat="49.15801" lon="4.10427">
        <ele>171</ele>
        <time>2026-08-24T13:42:01Z</time>
      </trkpt>
      <trkpt lat="49.15801" lon="4.10416">
        <ele>170.8</ele>
        <time>2026-08-24T13:42:02Z</time>
      </trkpt>
      <trkpt lat="49.15801" lon="4.10404">
        <ele>170.6</ele>
        <time>2026-08-24T13:42:03Z</time>
      </trkpt>
      <trkpt lat="49.158" lon="4.10392">
        <ele>170.2</ele>
        <time>2026-08-24T13:42:04Z</time>
      </trkpt>
      <trkpt lat="49.158" lon="4.10381">
        <ele>170</ele>
        <time>2026-08-24T13:42:05Z</time>
      </trkpt>
      <trkpt lat="49.15798" lon="4.10368">
        <ele>169.6</ele>
        <time>2026-08-24T13:42:06Z</time>
      </trkpt>
      <trkpt lat="49.15796" lon="4.10356">
        <ele>169.2</ele>
        <time>2026-08-24T13:42:07Z</time>
      </trkpt>
      <trkpt lat="49.15793" lon="4.10343">
        <ele>168.8</ele>
        <time>2026-08-24T13:42:08Z</time>
      </trkpt>
      <trkpt lat="49.15789" lon="4.1033">
        <ele>168.4</ele>
        <time>2026-08-24T13:42:09Z</time>
      </trkpt>
      <trkpt lat="49.15783" lon="4.10318">
        <ele>167.6</ele>
        <time>2026-08-24T13:42:10Z</time>
      </trkpt>
      <trkpt lat="49.15776" lon="4.10306">
        <ele>166.8</ele>
        <time>2026-08-24T13:42:11Z</time>
      </trkpt>
      <trkpt lat="49.15768" lon="4.10296">
        <ele>166.2</ele>
        <time>2026-08-24T13:42:12Z</time>
      </trkpt>
      <trkpt lat="49.15758" lon="4.10288">
        <ele>165.4</ele>
        <time>2026-08-24T13:42:13Z</time>
      </trkpt>
      <trkpt lat="49.15748" lon="4.10282">
        <ele>164.4</ele>
        <time>2026-08-24T13:42:14Z</time>
      </trkpt>
      <trkpt lat="49.15738" lon="4.10279">
        <ele>163.6</ele>
        <time>2026-08-24T13:42:15Z</time>
      </trkpt>
      <trkpt lat="49.15729" lon="4.10277">
        <ele>162.8</ele>
        <time>2026-08-24T13:42:16Z</time>
      </trkpt>
      <trkpt lat="49.1572" lon="4.10275">
        <ele>162.2</ele>
        <time>2026-08-24T13:42:17Z</time>
      </trkpt>
      <trkpt lat="49.15712" lon="4.10274">
        <ele>161.6</ele>
        <time>2026-08-24T13:42:18Z</time>
      </trkpt>
      <trkpt lat="49.15704" lon="4.10272">
        <ele>161.4</ele>
        <time>2026-08-24T13:42:19Z</time>
      </trkpt>
      <trkpt lat="49.15697" lon="4.10271">
        <ele>160.8</ele>
        <time>2026-08-24T13:42:20Z</time>
      </trkpt>
      <trkpt lat="49.15691" lon="4.1027">
        <ele>160.6</ele>
        <time>2026-08-24T13:42:21Z</time>
      </trkpt>
      <trkpt lat="49.15684" lon="4.10269">
        <ele>160.4</ele>
        <time>2026-08-24T13:42:22Z</time>
      </trkpt>
      <trkpt lat="49.15679" lon="4.10267">
        <ele>160.2</ele>
        <time>2026-08-24T13:42:23Z</time>
      </trkpt>
      <trkpt lat="49.15673" lon="4.10264">
        <ele>160</ele>
        <time>2026-08-24T13:42:24Z</time>
      </trkpt>
      <trkpt lat="49.15667" lon="4.1026">
        <ele>159.6</ele>
        <time>2026-08-24T13:42:25Z</time>
      </trkpt>
      <trkpt lat="49.15662" lon="4.10254">
        <ele>159.2</ele>
        <time>2026-08-24T13:42:26Z</time>
      </trkpt>
      <trkpt lat="49.15657" lon="4.10247">
        <ele>158.8</ele>
        <time>2026-08-24T13:42:27Z</time>
      </trkpt>
      <trkpt lat="49.15652" lon="4.10238">
        <ele>158.6</ele>
        <time>2026-08-24T13:42:28Z</time>
      </trkpt>
      <trkpt lat="49.15649" lon="4.10229">
        <ele>158</ele>
        <time>2026-08-24T13:42:29Z</time>
      </trkpt>
      <trkpt lat="49.15647" lon="4.10218">
        <ele>157.8</ele>
        <time>2026-08-24T13:42:30Z</time>
      </trkpt>
      <trkpt lat="49.15647" lon="4.10207">
        <ele>157.4</ele>
        <time>2026-08-24T13:42:31Z</time>
      </trkpt>
      <trkpt lat="49.15646" lon="4.10196">
        <ele>157.2</ele>
        <time>2026-08-24T13:42:32Z</time>
      </trkpt>
      <trkpt lat="49.15646" lon="4.10185">
        <ele>157</ele>
        <time>2026-08-24T13:42:33Z</time>
      </trkpt>
      <trkpt lat="49.15646" lon="4.10174">
        <ele>157</ele>
        <time>2026-08-24T13:42:34Z</time>
      </trkpt>
      <trkpt lat="49.15646" lon="4.10164">
        <ele>157</ele>
        <time>2026-08-24T13:42:35Z</time>
      </trkpt>
      <trkpt lat="49.15646" lon="4.10153">
        <ele>157</ele>
        <time>2026-08-24T13:42:36Z</time>
      </trkpt>
      <trkpt lat="49.15645" lon="4.10142">
        <ele>157</ele>
        <time>2026-08-24T13:42:37Z</time>
      </trkpt>
      <trkpt lat="49.15645" lon="4.10132">
        <ele>157</ele>
        <time>2026-08-24T13:42:38Z</time>
      </trkpt>
      <trkpt lat="49.15645" lon="4.10122">
        <ele>157.2</ele>
        <time>2026-08-24T13:42:39Z</time>
      </trkpt>
      <trkpt lat="49.15644" lon="4.10112">
        <ele>157.4</ele>
        <time>2026-08-24T13:42:40Z</time>
      </trkpt>
      <trkpt lat="49.15644" lon="4.10102">
        <ele>157.6</ele>
        <time>2026-08-24T13:42:41Z</time>
      </trkpt>
      <trkpt lat="49.15644" lon="4.10092">
        <ele>157.6</ele>
        <time>2026-08-24T13:42:42Z</time>
      </trkpt>
      <trkpt lat="49.15643" lon="4.10082">
        <ele>158</ele>
        <time>2026-08-24T13:42:43Z</time>
      </trkpt>
      <trkpt lat="49.15643" lon="4.10072">
        <ele>158</ele>
        <time>2026-08-24T13:42:44Z</time>
      </trkpt>
      <trkpt lat="49.15643" lon="4.10061">
        <ele>158.2</ele>
        <time>2026-08-24T13:42:45Z</time>
      </trkpt>
      <trkpt lat="49.15643" lon="4.10051">
        <ele>158.2</ele>
        <time>2026-08-24T13:42:46Z</time>
      </trkpt>
      <trkpt lat="49.15642" lon="4.1004">
        <ele>158.2</ele>
        <time>2026-08-24T13:42:47Z</time>
      </trkpt>
      <trkpt lat="49.15642" lon="4.1003">
        <ele>158.2</ele>
        <time>2026-08-24T13:42:48Z</time>
      </trkpt>
      <trkpt lat="49.15642" lon="4.10019">
        <ele>158.2</ele>
        <time>2026-08-24T13:42:49Z</time>
      </trkpt>
      <trkpt lat="49.15642" lon="4.10009">
        <ele>158.4</ele>
        <time>2026-08-24T13:42:50Z</time>
      </trkpt>
      <trkpt lat="49.15641" lon="4.09998">
        <ele>158.4</ele>
        <time>2026-08-24T13:42:51Z</time>
      </trkpt>
      <trkpt lat="49.15641" lon="4.09988">
        <ele>158.6</ele>
        <time>2026-08-24T13:42:52Z</time>
      </trkpt>
      <trkpt lat="49.1564" lon="4.09978">
        <ele>158.8</ele>
        <time>2026-08-24T13:42:53Z</time>
      </trkpt>
      <trkpt lat="49.1564" lon="4.09968">
        <ele>158.8</ele>
        <time>2026-08-24T13:42:54Z</time>
      </trkpt>
      <trkpt lat="49.1564" lon="4.09959">
        <ele>159</ele>
        <time>2026-08-24T13:42:55Z</time>
      </trkpt>
      <trkpt lat="49.15639" lon="4.09949">
        <ele>159.4</ele>
        <time>2026-08-24T13:42:56Z</time>
      </trkpt>
      <trkpt lat="49.15639" lon="4.09941">
        <ele>159.8</ele>
        <time>2026-08-24T13:42:57Z</time>
      </trkpt>
      <trkpt lat="49.15638" lon="4.09933">
        <ele>160.2</ele>
        <time>2026-08-24T13:42:58Z</time>
      </trkpt>
      <trkpt lat="49.15638" lon="4.09925">
        <ele>160.4</ele>
        <time>2026-08-24T13:42:59Z</time>
      </trkpt>
      <trkpt lat="49.15637" lon="4.09917">
        <ele>160.8</ele>
        <time>2026-08-24T13:43:00Z</time>
      </trkpt>
      <trkpt lat="49.15637" lon="4.09909">
        <ele>161.2</ele>
        <time>2026-08-24T13:43:01Z</time>
      </trkpt>
      <trkpt lat="49.15638" lon="4.09902">
        <ele>161.4</ele>
        <time>2026-08-24T13:43:02Z</time>
      </trkpt>
      <trkpt lat="49.15638" lon="4.09894">
        <ele>161.6</ele>
        <time>2026-08-24T13:43:03Z</time>
      </trkpt>
      <trkpt lat="49.15637" lon="4.09887">
        <ele>161.8</ele>
        <time>2026-08-24T13:43:04Z</time>
      </trkpt>
      <trkpt lat="49.15637" lon="4.09879">
        <ele>162</ele>
        <time>2026-08-24T13:43:05Z</time>
      </trkpt>
      <trkpt lat="49.15637" lon="4.09872">
        <ele>162.2</ele>
        <time>2026-08-24T13:43:06Z</time>
      </trkpt>
      <trkpt lat="49.15636" lon="4.09864">
        <ele>162.6</ele>
        <time>2026-08-24T13:43:07Z</time>
      </trkpt>
      <trkpt lat="49.15636" lon="4.09857">
        <ele>162.6</ele>
        <time>2026-08-24T13:43:08Z</time>
      </trkpt>
      <trkpt lat="49.15636" lon="4.09849">
        <ele>162.8</ele>
        <time>2026-08-24T13:43:09Z</time>
      </trkpt>
      <trkpt lat="49.15636" lon="4.09842">
        <ele>163</ele>
        <time>2026-08-24T13:43:10Z</time>
      </trkpt>
      <trkpt lat="49.15635" lon="4.09834">
        <ele>163.2</ele>
        <time>2026-08-24T13:43:11Z</time>
      </trkpt>
      <trkpt lat="49.15635" lon="4.09826">
        <ele>163.4</ele>
        <time>2026-08-24T13:43:12Z</time>
      </trkpt>
      <trkpt lat="49.15635" lon="4.09818">
        <ele>163.6</ele>
        <time>2026-08-24T13:43:13Z</time>
      </trkpt>
      <trkpt lat="49.15634" lon="4.0981">
        <ele>163.8</ele>
        <time>2026-08-24T13:43:14Z</time>
      </trkpt>
      <trkpt lat="49.15634" lon="4.09801">
        <ele>163.8</ele>
        <time>2026-08-24T13:43:15Z</time>
      </trkpt>
      <trkpt lat="49.15634" lon="4.09793">
        <ele>163.8</ele>
        <time>2026-08-24T13:43:16Z</time>
      </trkpt>
      <trkpt lat="49.15633" lon="4.09783">
        <ele>163.8</ele>
        <time>2026-08-24T13:43:17Z</time>
      </trkpt>
      <trkpt lat="49.15633" lon="4.09774">
        <ele>163.8</ele>
        <time>2026-08-24T13:43:18Z</time>
      </trkpt>
      <trkpt lat="49.15633" lon="4.09763">
        <ele>163.6</ele>
        <time>2026-08-24T13:43:19Z</time>
      </trkpt>
      <trkpt lat="49.15632" lon="4.09753">
        <ele>163.2</ele>
        <time>2026-08-24T13:43:20Z</time>
      </trkpt>
      <trkpt lat="49.15632" lon="4.09742">
        <ele>163</ele>
        <time>2026-08-24T13:43:21Z</time>
      </trkpt>
      <trkpt lat="49.15631" lon="4.0973">
        <ele>162.6</ele>
        <time>2026-08-24T13:43:22Z</time>
      </trkpt>
      <trkpt lat="49.15631" lon="4.09717">
        <ele>162.2</ele>
        <time>2026-08-24T13:43:23Z</time>
      </trkpt>
      <trkpt lat="49.15631" lon="4.09705">
        <ele>161.8</ele>
        <time>2026-08-24T13:43:24Z</time>
      </trkpt>
      <trkpt lat="49.1563" lon="4.09692">
        <ele>161.6</ele>
        <time>2026-08-24T13:43:25Z</time>
      </trkpt>
      <trkpt lat="49.1563" lon="4.0968">
        <ele>161.4</ele>
        <time>2026-08-24T13:43:26Z</time>
      </trkpt>
      <trkpt lat="49.15631" lon="4.09667">
        <ele>161</ele>
        <time>2026-08-24T13:43:27Z</time>
      </trkpt>
      <trkpt lat="49.15631" lon="4.09654">
        <ele>160.6</ele>
        <time>2026-08-24T13:43:28Z</time>
      </trkpt>
      <trkpt lat="49.15631" lon="4.0964">
        <ele>160.4</ele>
        <time>2026-08-24T13:43:29Z</time>
      </trkpt>
      <trkpt lat="49.15631" lon="4.09627">
        <ele>160</ele>
        <time>2026-08-24T13:43:30Z</time>
      </trkpt>
      <trkpt lat="49.15632" lon="4.09614">
        <ele>159.8</ele>
        <time>2026-08-24T13:43:31Z</time>
      </trkpt>
      <trkpt lat="49.15632" lon="4.09601">
        <ele>159.6</ele>
        <time>2026-08-24T13:43:32Z</time>
      </trkpt>
      <trkpt lat="49.15633" lon="4.09588">
        <ele>159.2</ele>
        <time>2026-08-24T13:43:33Z</time>
      </trkpt>
      <trkpt lat="49.15634" lon="4.09575">
        <ele>159.2</ele>
        <time>2026-08-24T13:43:34Z</time>
      </trkpt>
      <trkpt lat="49.15635" lon="4.09562">
        <ele>159</ele>
        <time>2026-08-24T13:43:35Z</time>
      </trkpt>
      <trkpt lat="49.15635" lon="4.09549">
        <ele>158.8</ele>
        <time>2026-08-24T13:43:36Z</time>
      </trkpt>
      <trkpt lat="49.15636" lon="4.09536">
        <ele>159</ele>
        <time>2026-08-24T13:43:37Z</time>
      </trkpt>
      <trkpt lat="49.15637" lon="4.09524">
        <ele>159</ele>
        <time>2026-08-24T13:43:38Z</time>
      </trkpt>
      <trkpt lat="49.15637" lon="4.09512">
        <ele>159.2</ele>
        <time>2026-08-24T13:43:39Z</time>
      </trkpt>
      <trkpt lat="49.15638" lon="4.095">
        <ele>159.4</ele>
        <time>2026-08-24T13:43:40Z</time>
      </trkpt>
      <trkpt lat="49.15639" lon="4.09489">
        <ele>159.6</ele>
        <time>2026-08-24T13:43:41Z</time>
      </trkpt>
      <trkpt lat="49.1564" lon="4.09477">
        <ele>159.6</ele>
        <time>2026-08-24T13:43:42Z</time>
      </trkpt>
      <trkpt lat="49.15641" lon="4.09466">
        <ele>160</ele>
        <time>2026-08-24T13:43:43Z</time>
      </trkpt>
      <trkpt lat="49.15641" lon="4.09455">
        <ele>160.2</ele>
        <time>2026-08-24T13:43:44Z</time>
      </trkpt>
      <trkpt lat="49.15641" lon="4.09445">
        <ele>160.4</ele>
        <time>2026-08-24T13:43:45Z</time>
      </trkpt>
      <trkpt lat="49.15642" lon="4.09434">
        <ele>160.6</ele>
        <time>2026-08-24T13:43:46Z</time>
      </trkpt>
      <trkpt lat="49.15642" lon="4.09424">
        <ele>161</ele>
        <time>2026-08-24T13:43:47Z</time>
      </trkpt>
      <trkpt lat="49.15643" lon="4.09414">
        <ele>161.2</ele>
        <time>2026-08-24T13:43:48Z</time>
      </trkpt>
      <trkpt lat="49.15644" lon="4.09404">
        <ele>161.4</ele>
        <time>2026-08-24T13:43:49Z</time>
      </trkpt>
      <trkpt lat="49.15644" lon="4.09394">
        <ele>161.6</ele>
        <time>2026-08-24T13:43:50Z</time>
      </trkpt>
      <trkpt lat="49.15644" lon="4.09384">
        <ele>161.8</ele>
        <time>2026-08-24T13:43:51Z</time>
      </trkpt>
      <trkpt lat="49.15644" lon="4.09375">
        <ele>162</ele>
        <time>2026-08-24T13:43:52Z</time>
      </trkpt>
      <trkpt lat="49.15645" lon="4.09365">
        <ele>162.2</ele>
        <time>2026-08-24T13:43:53Z</time>
      </trkpt>
      <trkpt lat="49.15646" lon="4.09355">
        <ele>162.4</ele>
        <time>2026-08-24T13:43:54Z</time>
      </trkpt>
      <trkpt lat="49.15646" lon="4.09345">
        <ele>162.4</ele>
        <time>2026-08-24T13:43:55Z</time>
      </trkpt>
      <trkpt lat="49.15647" lon="4.09336">
        <ele>162.6</ele>
        <time>2026-08-24T13:43:56Z</time>
      </trkpt>
      <trkpt lat="49.15647" lon="4.09328">
        <ele>162.8</ele>
        <time>2026-08-24T13:43:57Z</time>
      </trkpt>
      <trkpt lat="49.15648" lon="4.0932">
        <ele>162.8</ele>
        <time>2026-08-24T13:43:58Z</time>
      </trkpt>
      <trkpt lat="49.15649" lon="4.09313">
        <ele>163</ele>
        <time>2026-08-24T13:43:59Z</time>
      </trkpt>
      <trkpt lat="49.1565" lon="4.09306">
        <ele>163.2</ele>
        <time>2026-08-24T13:44:00Z</time>
      </trkpt>
      <trkpt lat="49.15651" lon="4.09301">
        <ele>163.2</ele>
        <time>2026-08-24T13:44:01Z</time>
      </trkpt>
      <trkpt lat="49.15651" lon="4.09297">
        <ele>163.4</ele>
        <time>2026-08-24T13:44:02Z</time>
      </trkpt>
      <trkpt lat="49.15652" lon="4.09292">
        <ele>163.4</ele>
        <time>2026-08-24T13:44:03Z</time>
      </trkpt>
      <trkpt lat="49.15653" lon="4.09287">
        <ele>163.4</ele>
        <time>2026-08-24T13:44:04Z</time>
      </trkpt>
      <trkpt lat="49.15653" lon="4.09281">
        <ele>163.4</ele>
        <time>2026-08-24T13:44:05Z</time>
      </trkpt>
      <trkpt lat="49.15652" lon="4.09274">
        <ele>163.4</ele>
        <time>2026-08-24T13:44:06Z</time>
      </trkpt>
      <trkpt lat="49.15651" lon="4.09266">
        <ele>163.4</ele>
        <time>2026-08-24T13:44:07Z</time>
      </trkpt>
      <trkpt lat="49.1565" lon="4.09259">
        <ele>163.4</ele>
        <time>2026-08-24T13:44:08Z</time>
      </trkpt>
      <trkpt lat="49.15648" lon="4.09252">
        <ele>163.6</ele>
        <time>2026-08-24T13:44:09Z</time>
      </trkpt>
      <trkpt lat="49.15647" lon="4.09244">
        <ele>163.4</ele>
        <time>2026-08-24T13:44:10Z</time>
      </trkpt>
      <trkpt lat="49.15647" lon="4.09236">
        <ele>163.4</ele>
        <time>2026-08-24T13:44:11Z</time>
      </trkpt>
      <trkpt lat="49.15647" lon="4.09227">
        <ele>163.4</ele>
        <time>2026-08-24T13:44:12Z</time>
      </trkpt>
      <trkpt lat="49.15646" lon="4.09219">
        <ele>163.6</ele>
        <time>2026-08-24T13:44:13Z</time>
      </trkpt>
      <trkpt lat="49.15646" lon="4.0921">
        <ele>163.6</ele>
        <time>2026-08-24T13:44:14Z</time>
      </trkpt>
      <trkpt lat="49.15646" lon="4.09201">
        <ele>163.6</ele>
        <time>2026-08-24T13:44:15Z</time>
      </trkpt>
      <trkpt lat="49.15646" lon="4.09191">
        <ele>163.6</ele>
        <time>2026-08-24T13:44:16Z</time>
      </trkpt>
      <trkpt lat="49.15645" lon="4.09181">
        <ele>163.4</ele>
        <time>2026-08-24T13:44:17Z</time>
      </trkpt>
      <trkpt lat="49.15645" lon="4.0917">
        <ele>163.2</ele>
        <time>2026-08-24T13:44:18Z</time>
      </trkpt>
      <trkpt lat="49.15645" lon="4.0916">
        <ele>163</ele>
        <time>2026-08-24T13:44:19Z</time>
      </trkpt>
      <trkpt lat="49.15645" lon="4.09149">
        <ele>162.6</ele>
        <time>2026-08-24T13:44:20Z</time>
      </trkpt>
      <trkpt lat="49.15644" lon="4.09138">
        <ele>162.4</ele>
        <time>2026-08-24T13:44:21Z</time>
      </trkpt>
      <trkpt lat="49.15644" lon="4.09126">
        <ele>162.2</ele>
        <time>2026-08-24T13:44:22Z</time>
      </trkpt>
      <trkpt lat="49.15643" lon="4.09114">
        <ele>161.8</ele>
        <time>2026-08-24T13:44:23Z</time>
      </trkpt>
      <trkpt lat="49.15642" lon="4.09101">
        <ele>161.6</ele>
        <time>2026-08-24T13:44:24Z</time>
      </trkpt>
      <trkpt lat="49.15641" lon="4.09087">
        <ele>161</ele>
        <time>2026-08-24T13:44:25Z</time>
      </trkpt>
      <trkpt lat="49.1564" lon="4.09074">
        <ele>160.6</ele>
        <time>2026-08-24T13:44:26Z</time>
      </trkpt>
      <trkpt lat="49.15638" lon="4.0906">
        <ele>160</ele>
        <time>2026-08-24T13:44:27Z</time>
      </trkpt>
      <trkpt lat="49.15636" lon="4.09045">
        <ele>159.6</ele>
        <time>2026-08-24T13:44:28Z</time>
      </trkpt>
      <trkpt lat="49.15633" lon="4.09031">
        <ele>159</ele>
        <time>2026-08-24T13:44:29Z</time>
      </trkpt>
      <trkpt lat="49.1563" lon="4.09016">
        <ele>158.4</ele>
        <time>2026-08-24T13:44:30Z</time>
      </trkpt>
      <trkpt lat="49.15626" lon="4.09001">
        <ele>157.6</ele>
        <time>2026-08-24T13:44:31Z</time>
      </trkpt>
      <trkpt lat="49.15622" lon="4.08985">
        <ele>157</ele>
        <time>2026-08-24T13:44:32Z</time>
      </trkpt>
      <trkpt lat="49.15618" lon="4.08968">
        <ele>156.2</ele>
        <time>2026-08-24T13:44:33Z</time>
      </trkpt>
      <trkpt lat="49.15614" lon="4.08952">
        <ele>155.6</ele>
        <time>2026-08-24T13:44:34Z</time>
      </trkpt>
      <trkpt lat="49.1561" lon="4.08935">
        <ele>154.8</ele>
        <time>2026-08-24T13:44:35Z</time>
      </trkpt>
      <trkpt lat="49.15606" lon="4.08917">
        <ele>154</ele>
        <time>2026-08-24T13:44:36Z</time>
      </trkpt>
      <trkpt lat="49.15602" lon="4.089">
        <ele>153</ele>
        <time>2026-08-24T13:44:37Z</time>
      </trkpt>
      <trkpt lat="49.15598" lon="4.08883">
        <ele>152.2</ele>
        <time>2026-08-24T13:44:38Z</time>
      </trkpt>
      <trkpt lat="49.15594" lon="4.08865">
        <ele>151.4</ele>
        <time>2026-08-24T13:44:39Z</time>
      </trkpt>
      <trkpt lat="49.15589" lon="4.08847">
        <ele>150.8</ele>
        <time>2026-08-24T13:44:40Z</time>
      </trkpt>
      <trkpt lat="49.15585" lon="4.08829">
        <ele>150</ele>
        <time>2026-08-24T13:44:41Z</time>
      </trkpt>
      <trkpt lat="49.15581" lon="4.08812">
        <ele>149.2</ele>
        <time>2026-08-24T13:44:42Z</time>
      </trkpt>
      <trkpt lat="49.15577" lon="4.08794">
        <ele>148.4</ele>
        <time>2026-08-24T13:44:43Z</time>
      </trkpt>
      <trkpt lat="49.15573" lon="4.08777">
        <ele>147.8</ele>
        <time>2026-08-24T13:44:44Z</time>
      </trkpt>
      <trkpt lat="49.15568" lon="4.08759">
        <ele>147</ele>
        <time>2026-08-24T13:44:45Z</time>
      </trkpt>
      <trkpt lat="49.15564" lon="4.08742">
        <ele>146.4</ele>
        <time>2026-08-24T13:44:46Z</time>
      </trkpt>
      <trkpt lat="49.15559" lon="4.08725">
        <ele>146</ele>
        <time>2026-08-24T13:44:47Z</time>
      </trkpt>
      <trkpt lat="49.15555" lon="4.08709">
        <ele>145.4</ele>
        <time>2026-08-24T13:44:48Z</time>
      </trkpt>
      <trkpt lat="49.1555" lon="4.08692">
        <ele>145.2</ele>
        <time>2026-08-24T13:44:49Z</time>
      </trkpt>
      <trkpt lat="49.15546" lon="4.08676">
        <ele>145.2</ele>
        <time>2026-08-24T13:44:50Z</time>
      </trkpt>
      <trkpt lat="49.15542" lon="4.0866">
        <ele>145.2</ele>
        <time>2026-08-24T13:44:51Z</time>
      </trkpt>
      <trkpt lat="49.15538" lon="4.08645">
        <ele>145.2</ele>
        <time>2026-08-24T13:44:52Z</time>
      </trkpt>
      <trkpt lat="49.15534" lon="4.08629">
        <ele>145.4</ele>
        <time>2026-08-24T13:44:53Z</time>
      </trkpt>
      <trkpt lat="49.15529" lon="4.08614">
        <ele>145.4</ele>
        <time>2026-08-24T13:44:54Z</time>
      </trkpt>
      <trkpt lat="49.15525" lon="4.08599">
        <ele>145.2</ele>
        <time>2026-08-24T13:44:55Z</time>
      </trkpt>
      <trkpt lat="49.15521" lon="4.08585">
        <ele>145</ele>
        <time>2026-08-24T13:44:56Z</time>
      </trkpt>
      <trkpt lat="49.15517" lon="4.0857">
        <ele>144.6</ele>
        <time>2026-08-24T13:44:57Z</time>
      </trkpt>
      <trkpt lat="49.15513" lon="4.08556">
        <ele>144.4</ele>
        <time>2026-08-24T13:44:58Z</time>
      </trkpt>
      <trkpt lat="49.15509" lon="4.08541">
        <ele>144.4</ele>
        <time>2026-08-24T13:44:59Z</time>
      </trkpt>
      <trkpt lat="49.15505" lon="4.08527">
        <ele>144.2</ele>
        <time>2026-08-24T13:45:00Z</time>
      </trkpt>
      <trkpt lat="49.15502" lon="4.08513">
        <ele>144.2</ele>
        <time>2026-08-24T13:45:01Z</time>
      </trkpt>
      <trkpt lat="49.15499" lon="4.085">
        <ele>144.4</ele>
        <time>2026-08-24T13:45:02Z</time>
      </trkpt>
      <trkpt lat="49.15496" lon="4.08486">
        <ele>144.4</ele>
        <time>2026-08-24T13:45:03Z</time>
      </trkpt>
      <trkpt lat="49.15493" lon="4.08473">
        <ele>144.4</ele>
        <time>2026-08-24T13:45:04Z</time>
      </trkpt>
      <trkpt lat="49.15491" lon="4.0846">
        <ele>144.4</ele>
        <time>2026-08-24T13:45:05Z</time>
      </trkpt>
      <trkpt lat="49.15489" lon="4.08448">
        <ele>144.6</ele>
        <time>2026-08-24T13:45:06Z</time>
      </trkpt>
      <trkpt lat="49.15487" lon="4.08435">
        <ele>144.4</ele>
        <time>2026-08-24T13:45:07Z</time>
      </trkpt>
      <trkpt lat="49.15485" lon="4.08424">
        <ele>144.2</ele>
        <time>2026-08-24T13:45:08Z</time>
      </trkpt>
      <trkpt lat="49.15483" lon="4.08412">
        <ele>144.6</ele>
        <time>2026-08-24T13:45:09Z</time>
      </trkpt>
      <trkpt lat="49.15481" lon="4.08401">
        <ele>144.8</ele>
        <time>2026-08-24T13:45:10Z</time>
      </trkpt>
      <trkpt lat="49.15479" lon="4.0839">
        <ele>145.4</ele>
        <time>2026-08-24T13:45:11Z</time>
      </trkpt>
      <trkpt lat="49.15478" lon="4.0838">
        <ele>146.2</ele>
        <time>2026-08-24T13:45:12Z</time>
      </trkpt>
      <trkpt lat="49.15476" lon="4.08369">
        <ele>146.6</ele>
        <time>2026-08-24T13:45:13Z</time>
      </trkpt>
      <trkpt lat="49.15474" lon="4.0836">
        <ele>147</ele>
        <time>2026-08-24T13:45:14Z</time>
      </trkpt>
      <trkpt lat="49.15473" lon="4.0835">
        <ele>147.4</ele>
        <time>2026-08-24T13:45:15Z</time>
      </trkpt>
      <trkpt lat="49.15471" lon="4.08342">
        <ele>147.8</ele>
        <time>2026-08-24T13:45:16Z</time>
      </trkpt>
      <trkpt lat="49.1547" lon="4.08333">
        <ele>148.2</ele>
        <time>2026-08-24T13:45:17Z</time>
      </trkpt>
      <trkpt lat="49.15469" lon="4.08324">
        <ele>148.4</ele>
        <time>2026-08-24T13:45:18Z</time>
      </trkpt>
      <trkpt lat="49.15468" lon="4.08316">
        <ele>149</ele>
        <time>2026-08-24T13:45:19Z</time>
      </trkpt>
      <trkpt lat="49.15467" lon="4.08308">
        <ele>149.2</ele>
        <time>2026-08-24T13:45:20Z</time>
      </trkpt>
      <trkpt lat="49.15466" lon="4.083">
        <ele>149.4</ele>
        <time>2026-08-24T13:45:21Z</time>
      </trkpt>
      <trkpt lat="49.15466" lon="4.08292">
        <ele>149.8</ele>
        <time>2026-08-24T13:45:22Z</time>
      </trkpt>
      <trkpt lat="49.15466" lon="4.08284">
        <ele>150.2</ele>
        <time>2026-08-24T13:45:23Z</time>
      </trkpt>
      <trkpt lat="49.15467" lon="4.08276">
        <ele>150.4</ele>
        <time>2026-08-24T13:45:24Z</time>
      </trkpt>
      <trkpt lat="49.15468" lon="4.08268">
        <ele>150.8</ele>
        <time>2026-08-24T13:45:25Z</time>
      </trkpt>
      <trkpt lat="49.15469" lon="4.08261">
        <ele>151.2</ele>
        <time>2026-08-24T13:45:26Z</time>
      </trkpt>
      <trkpt lat="49.1547" lon="4.08253">
        <ele>151.4</ele>
        <time>2026-08-24T13:45:27Z</time>
      </trkpt>
      <trkpt lat="49.15472" lon="4.08245">
        <ele>151.8</ele>
        <time>2026-08-24T13:45:28Z</time>
      </trkpt>
      <trkpt lat="49.15473" lon="4.08236">
        <ele>152</ele>
        <time>2026-08-24T13:45:29Z</time>
      </trkpt>
      <trkpt lat="49.15474" lon="4.08228">
        <ele>152.2</ele>
        <time>2026-08-24T13:45:30Z</time>
      </trkpt>
      <trkpt lat="49.15475" lon="4.08219">
        <ele>152.4</ele>
        <time>2026-08-24T13:45:31Z</time>
      </trkpt>
      <trkpt lat="49.15477" lon="4.08209">
        <ele>152.4</ele>
        <time>2026-08-24T13:45:32Z</time>
      </trkpt>
      <trkpt lat="49.15478" lon="4.082">
        <ele>152.4</ele>
        <time>2026-08-24T13:45:33Z</time>
      </trkpt>
      <trkpt lat="49.1548" lon="4.0819">
        <ele>152.2</ele>
        <time>2026-08-24T13:45:34Z</time>
      </trkpt>
      <trkpt lat="49.15481" lon="4.0818">
        <ele>152</ele>
        <time>2026-08-24T13:45:35Z</time>
      </trkpt>
      <trkpt lat="49.15483" lon="4.0817">
        <ele>151.8</ele>
        <time>2026-08-24T13:45:36Z</time>
      </trkpt>
      <trkpt lat="49.15484" lon="4.08159">
        <ele>151.4</ele>
        <time>2026-08-24T13:45:37Z</time>
      </trkpt>
      <trkpt lat="49.15486" lon="4.08149">
        <ele>151</ele>
        <time>2026-08-24T13:45:38Z</time>
      </trkpt>
      <trkpt lat="49.15487" lon="4.08138">
        <ele>150.6</ele>
        <time>2026-08-24T13:45:39Z</time>
      </trkpt>
      <trkpt lat="49.15489" lon="4.08127">
        <ele>150</ele>
        <time>2026-08-24T13:45:40Z</time>
      </trkpt>
      <trkpt lat="49.15491" lon="4.08116">
        <ele>149.2</ele>
        <time>2026-08-24T13:45:41Z</time>
      </trkpt>
      <trkpt lat="49.15492" lon="4.08105">
        <ele>148.6</ele>
        <time>2026-08-24T13:45:42Z</time>
      </trkpt>
      <trkpt lat="49.15494" lon="4.08095">
        <ele>148.2</ele>
        <time>2026-08-24T13:45:43Z</time>
      </trkpt>
      <trkpt lat="49.15495" lon="4.08084">
        <ele>147.6</ele>
        <time>2026-08-24T13:45:44Z</time>
      </trkpt>
      <trkpt lat="49.15497" lon="4.08073">
        <ele>147.2</ele>
        <time>2026-08-24T13:45:45Z</time>
      </trkpt>
      <trkpt lat="49.15498" lon="4.08063">
        <ele>146.8</ele>
        <time>2026-08-24T13:45:46Z</time>
      </trkpt>
      <trkpt lat="49.15498" lon="4.08052">
        <ele>146.6</ele>
        <time>2026-08-24T13:45:47Z</time>
      </trkpt>
      <trkpt lat="49.15499" lon="4.08041">
        <ele>146.2</ele>
        <time>2026-08-24T13:45:48Z</time>
      </trkpt>
      <trkpt lat="49.155" lon="4.08031">
        <ele>145.8</ele>
        <time>2026-08-24T13:45:49Z</time>
      </trkpt>
      <trkpt lat="49.15501" lon="4.08022">
        <ele>145.4</ele>
        <time>2026-08-24T13:45:50Z</time>
      </trkpt>
      <trkpt lat="49.15502" lon="4.08014">
        <ele>145</ele>
        <time>2026-08-24T13:45:51Z</time>
      </trkpt>
      <trkpt lat="49.15503" lon="4.08008">
        <ele>144.8</ele>
        <time>2026-08-24T13:45:52Z</time>
      </trkpt>
      <trkpt lat="49.15507" lon="4.08005">
        <ele>144.6</ele>
        <time>2026-08-24T13:45:53Z</time>
      </trkpt>
      <trkpt lat="49.1551" lon="4.08001">
        <ele>144.2</ele>
        <time>2026-08-24T13:45:54Z</time>
      </trkpt>
      <trkpt lat="49.15514" lon="4.07998">
        <ele>144</ele>
        <time>2026-08-24T13:45:55Z</time>
      </trkpt>
      <trkpt lat="49.15516" lon="4.07992">
        <ele>143.8</ele>
        <time>2026-08-24T13:45:56Z</time>
      </trkpt>
      <trkpt lat="49.15518" lon="4.07985">
        <ele>143.6</ele>
        <time>2026-08-24T13:45:57Z</time>
      </trkpt>
      <trkpt lat="49.15519" lon="4.07978">
        <ele>143.6</ele>
        <time>2026-08-24T13:45:58Z</time>
      </trkpt>
      <trkpt lat="49.1552" lon="4.0797">
        <ele>143.4</ele>
        <time>2026-08-24T13:45:59Z</time>
      </trkpt>
      <trkpt lat="49.15522" lon="4.07963">
        <ele>143.4</ele>
        <time>2026-08-24T13:46:00Z</time>
      </trkpt>
      <trkpt lat="49.15523" lon="4.07955">
        <ele>143.6</ele>
        <time>2026-08-24T13:46:01Z</time>
      </trkpt>
      <trkpt lat="49.15524" lon="4.07947">
        <ele>143.6</ele>
        <time>2026-08-24T13:46:02Z</time>
      </trkpt>
      <trkpt lat="49.15526" lon="4.07938">
        <ele>143.8</ele>
        <time>2026-08-24T13:46:03Z</time>
      </trkpt>
      <trkpt lat="49.15527" lon="4.0793">
        <ele>143.8</ele>
        <time>2026-08-24T13:46:04Z</time>
      </trkpt>
      <trkpt lat="49.15528" lon="4.07922">
        <ele>144</ele>
        <time>2026-08-24T13:46:05Z</time>
      </trkpt>
      <trkpt lat="49.1553" lon="4.07913">
        <ele>144</ele>
        <time>2026-08-24T13:46:06Z</time>
      </trkpt>
      <trkpt lat="49.15531" lon="4.07905">
        <ele>144</ele>
        <time>2026-08-24T13:46:07Z</time>
      </trkpt>
      <trkpt lat="49.15532" lon="4.07896">
        <ele>144</ele>
        <time>2026-08-24T13:46:08Z</time>
      </trkpt>
      <trkpt lat="49.15534" lon="4.07887">
        <ele>144</ele>
        <time>2026-08-24T13:46:09Z</time>
      </trkpt>
      <trkpt lat="49.15535" lon="4.07878">
        <ele>144</ele>
        <time>2026-08-24T13:46:10Z</time>
      </trkpt>
      <trkpt lat="49.15537" lon="4.0787">
        <ele>144</ele>
        <time>2026-08-24T13:46:11Z</time>
      </trkpt>
      <trkpt lat="49.15539" lon="4.07861">
        <ele>144</ele>
        <time>2026-08-24T13:46:12Z</time>
      </trkpt>
      <trkpt lat="49.1554" lon="4.07852">
        <ele>144</ele>
        <time>2026-08-24T13:46:13Z</time>
      </trkpt>
      <trkpt lat="49.15541" lon="4.07843">
        <ele>144</ele>
        <time>2026-08-24T13:46:14Z</time>
      </trkpt>
      <trkpt lat="49.15542" lon="4.07834">
        <ele>144</ele>
        <time>2026-08-24T13:46:15Z</time>
      </trkpt>
      <trkpt lat="49.15545" lon="4.07824">
        <ele>144</ele>
        <time>2026-08-24T13:46:16Z</time>
      </trkpt>
      <trkpt lat="49.15547" lon="4.07815">
        <ele>144.2</ele>
        <time>2026-08-24T13:46:17Z</time>
      </trkpt>
      <trkpt lat="49.15549" lon="4.07805">
        <ele>144.2</ele>
        <time>2026-08-24T13:46:18Z</time>
      </trkpt>
      <trkpt lat="49.15551" lon="4.07795">
        <ele>144</ele>
        <time>2026-08-24T13:46:19Z</time>
      </trkpt>
      <trkpt lat="49.15554" lon="4.07786">
        <ele>144.2</ele>
        <time>2026-08-24T13:46:20Z</time>
      </trkpt>
      <trkpt lat="49.15555" lon="4.07777">
        <ele>144.2</ele>
        <time>2026-08-24T13:46:21Z</time>
      </trkpt>
      <trkpt lat="49.15557" lon="4.07767">
        <ele>144.2</ele>
        <time>2026-08-24T13:46:22Z</time>
      </trkpt>
      <trkpt lat="49.15559" lon="4.07758">
        <ele>144.4</ele>
        <time>2026-08-24T13:46:23Z</time>
      </trkpt>
      <trkpt lat="49.15561" lon="4.07749">
        <ele>144.8</ele>
        <time>2026-08-24T13:46:24Z</time>
      </trkpt>
      <trkpt lat="49.15563" lon="4.0774">
        <ele>145</ele>
        <time>2026-08-24T13:46:25Z</time>
      </trkpt>
      <trkpt lat="49.15565" lon="4.07731">
        <ele>145.2</ele>
        <time>2026-08-24T13:46:26Z</time>
      </trkpt>
      <trkpt lat="49.15566" lon="4.07721">
        <ele>145.2</ele>
        <time>2026-08-24T13:46:27Z</time>
      </trkpt>
      <trkpt lat="49.15568" lon="4.07712">
        <ele>145.2</ele>
        <time>2026-08-24T13:46:28Z</time>
      </trkpt>
      <trkpt lat="49.1557" lon="4.07703">
        <ele>145.4</ele>
        <time>2026-08-24T13:46:29Z</time>
      </trkpt>
      <trkpt lat="49.15572" lon="4.07694">
        <ele>145.4</ele>
        <time>2026-08-24T13:46:30Z</time>
      </trkpt>
      <trkpt lat="49.15574" lon="4.07684">
        <ele>145.4</ele>
        <time>2026-08-24T13:46:31Z</time>
      </trkpt>
      <trkpt lat="49.15576" lon="4.07675">
        <ele>145.4</ele>
        <time>2026-08-24T13:46:32Z</time>
      </trkpt>
      <trkpt lat="49.15578" lon="4.07665">
        <ele>145.4</ele>
        <time>2026-08-24T13:46:33Z</time>
      </trkpt>
      <trkpt lat="49.1558" lon="4.07655">
        <ele>145.4</ele>
        <time>2026-08-24T13:46:34Z</time>
      </trkpt>
      <trkpt lat="49.15582" lon="4.07646">
        <ele>145.6</ele>
        <time>2026-08-24T13:46:35Z</time>
      </trkpt>
      <trkpt lat="49.15584" lon="4.07636">
        <ele>145.6</ele>
        <time>2026-08-24T13:46:36Z</time>
      </trkpt>
      <trkpt lat="49.15586" lon="4.07627">
        <ele>145.8</ele>
        <time>2026-08-24T13:46:37Z</time>
      </trkpt>
      <trkpt lat="49.15588" lon="4.07617">
        <ele>146</ele>
        <time>2026-08-24T13:46:38Z</time>
      </trkpt>
      <trkpt lat="49.1559" lon="4.07607">
        <ele>146.2</ele>
        <time>2026-08-24T13:46:39Z</time>
      </trkpt>
      <trkpt lat="49.15592" lon="4.07597">
        <ele>146.2</ele>
        <time>2026-08-24T13:46:40Z</time>
      </trkpt>
      <trkpt lat="49.15594" lon="4.07588">
        <ele>146.4</ele>
        <time>2026-08-24T13:46:41Z</time>
      </trkpt>
      <trkpt lat="49.15596" lon="4.07578">
        <ele>146.6</ele>
        <time>2026-08-24T13:46:42Z</time>
      </trkpt>
      <trkpt lat="49.15598" lon="4.07568">
        <ele>146.6</ele>
        <time>2026-08-24T13:46:43Z</time>
      </trkpt>
      <trkpt lat="49.156" lon="4.07558">
        <ele>146.6</ele>
        <time>2026-08-24T13:46:44Z</time>
      </trkpt>
      <trkpt lat="49.15602" lon="4.07548">
        <ele>146.6</ele>
        <time>2026-08-24T13:46:45Z</time>
      </trkpt>
      <trkpt lat="49.15604" lon="4.07538">
        <ele>146.8</ele>
        <time>2026-08-24T13:46:46Z</time>
      </trkpt>
      <trkpt lat="49.15607" lon="4.07528">
        <ele>146.6</ele>
        <time>2026-08-24T13:46:47Z</time>
      </trkpt>
      <trkpt lat="49.15609" lon="4.07517">
        <ele>146.6</ele>
        <time>2026-08-24T13:46:48Z</time>
      </trkpt>
      <trkpt lat="49.1561" lon="4.07506">
        <ele>146.6</ele>
        <time>2026-08-24T13:46:49Z</time>
      </trkpt>
      <trkpt lat="49.15612" lon="4.07495">
        <ele>146.4</ele>
        <time>2026-08-24T13:46:50Z</time>
      </trkpt>
      <trkpt lat="49.15613" lon="4.07483">
        <ele>146.2</ele>
        <time>2026-08-24T13:46:51Z</time>
      </trkpt>
      <trkpt lat="49.15615" lon="4.07471">
        <ele>146.2</ele>
        <time>2026-08-24T13:46:52Z</time>
      </trkpt>
      <trkpt lat="49.15616" lon="4.07458">
        <ele>145.8</ele>
        <time>2026-08-24T13:46:53Z</time>
      </trkpt>
      <trkpt lat="49.15618" lon="4.07446">
        <ele>145.6</ele>
        <time>2026-08-24T13:46:54Z</time>
      </trkpt>
      <trkpt lat="49.1562" lon="4.07434">
        <ele>145.6</ele>
        <time>2026-08-24T13:46:55Z</time>
      </trkpt>
      <trkpt lat="49.15621" lon="4.07422">
        <ele>145.4</ele>
        <time>2026-08-24T13:46:56Z</time>
      </trkpt>
      <trkpt lat="49.15623" lon="4.0741">
        <ele>145.2</ele>
        <time>2026-08-24T13:46:57Z</time>
      </trkpt>
      <trkpt lat="49.15625" lon="4.07398">
        <ele>145.2</ele>
        <time>2026-08-24T13:46:58Z</time>
      </trkpt>
      <trkpt lat="49.15627" lon="4.07385">
        <ele>144.8</ele>
        <time>2026-08-24T13:46:59Z</time>
      </trkpt>
      <trkpt lat="49.15628" lon="4.07373">
        <ele>144.6</ele>
        <time>2026-08-24T13:47:00Z</time>
      </trkpt>
      <trkpt lat="49.1563" lon="4.07361">
        <ele>144.2</ele>
        <time>2026-08-24T13:47:01Z</time>
      </trkpt>
      <trkpt lat="49.15632" lon="4.07349">
        <ele>144.2</ele>
        <time>2026-08-24T13:47:02Z</time>
      </trkpt>
      <trkpt lat="49.15634" lon="4.07337">
        <ele>144.2</ele>
        <time>2026-08-24T13:47:03Z</time>
      </trkpt>
      <trkpt lat="49.15636" lon="4.07325">
        <ele>144.2</ele>
        <time>2026-08-24T13:47:04Z</time>
      </trkpt>
      <trkpt lat="49.15638" lon="4.07313">
        <ele>144.4</ele>
        <time>2026-08-24T13:47:05Z</time>
      </trkpt>
      <trkpt lat="49.1564" lon="4.07302">
        <ele>144.6</ele>
        <time>2026-08-24T13:47:06Z</time>
      </trkpt>
      <trkpt lat="49.15642" lon="4.0729">
        <ele>144.6</ele>
        <time>2026-08-24T13:47:07Z</time>
      </trkpt>
      <trkpt lat="49.15644" lon="4.07279">
        <ele>144.8</ele>
        <time>2026-08-24T13:47:08Z</time>
      </trkpt>
      <trkpt lat="49.15646" lon="4.07268">
        <ele>145</ele>
        <time>2026-08-24T13:47:09Z</time>
      </trkpt>
      <trkpt lat="49.15647" lon="4.07257">
        <ele>145.2</ele>
        <time>2026-08-24T13:47:10Z</time>
      </trkpt>
      <trkpt lat="49.15649" lon="4.07247">
        <ele>145.4</ele>
        <time>2026-08-24T13:47:11Z</time>
      </trkpt>
      <trkpt lat="49.15651" lon="4.07236">
        <ele>145.6</ele>
        <time>2026-08-24T13:47:12Z</time>
      </trkpt>
      <trkpt lat="49.15652" lon="4.07226">
        <ele>146</ele>
        <time>2026-08-24T13:47:13Z</time>
      </trkpt>
      <trkpt lat="49.15654" lon="4.07217">
        <ele>146.2</ele>
        <time>2026-08-24T13:47:14Z</time>
      </trkpt>
      <trkpt lat="49.15655" lon="4.07207">
        <ele>146.6</ele>
        <time>2026-08-24T13:47:15Z</time>
      </trkpt>
      <trkpt lat="49.15657" lon="4.07198">
        <ele>147</ele>
        <time>2026-08-24T13:47:16Z</time>
      </trkpt>
      <trkpt lat="49.15658" lon="4.07189">
        <ele>147.2</ele>
        <time>2026-08-24T13:47:17Z</time>
      </trkpt>
      <trkpt lat="49.15659" lon="4.0718">
        <ele>147.4</ele>
        <time>2026-08-24T13:47:18Z</time>
      </trkpt>
      <trkpt lat="49.15661" lon="4.07172">
        <ele>147.8</ele>
        <time>2026-08-24T13:47:19Z</time>
      </trkpt>
      <trkpt lat="49.15662" lon="4.07164">
        <ele>148</ele>
        <time>2026-08-24T13:47:20Z</time>
      </trkpt>
      <trkpt lat="49.15663" lon="4.07156">
        <ele>148.4</ele>
        <time>2026-08-24T13:47:21Z</time>
      </trkpt>
      <trkpt lat="49.15664" lon="4.07148">
        <ele>148.6</ele>
        <time>2026-08-24T13:47:22Z</time>
      </trkpt>
      <trkpt lat="49.15666" lon="4.0714">
        <ele>148.8</ele>
        <time>2026-08-24T13:47:23Z</time>
      </trkpt>
      <trkpt lat="49.15667" lon="4.07132">
        <ele>149</ele>
        <time>2026-08-24T13:47:24Z</time>
      </trkpt>
      <trkpt lat="49.15668" lon="4.07125">
        <ele>149.2</ele>
        <time>2026-08-24T13:47:25Z</time>
      </trkpt>
      <trkpt lat="49.15669" lon="4.07117">
        <ele>149.4</ele>
        <time>2026-08-24T13:47:26Z</time>
      </trkpt>
      <trkpt lat="49.15671" lon="4.07109">
        <ele>149.6</ele>
        <time>2026-08-24T13:47:27Z</time>
      </trkpt>
      <trkpt lat="49.15672" lon="4.07101">
        <ele>149.8</ele>
        <time>2026-08-24T13:47:28Z</time>
      </trkpt>
      <trkpt lat="49.15673" lon="4.07094">
        <ele>150.2</ele>
        <time>2026-08-24T13:47:29Z</time>
      </trkpt>
      <trkpt lat="49.15674" lon="4.07086">
        <ele>150.2</ele>
        <time>2026-08-24T13:47:30Z</time>
      </trkpt>
      <trkpt lat="49.15675" lon="4.07078">
        <ele>150.6</ele>
        <time>2026-08-24T13:47:31Z</time>
      </trkpt>
      <trkpt lat="49.15677" lon="4.07071">
        <ele>150.8</ele>
        <time>2026-08-24T13:47:32Z</time>
      </trkpt>
      <trkpt lat="49.15678" lon="4.07063">
        <ele>151</ele>
        <time>2026-08-24T13:47:33Z</time>
      </trkpt>
      <trkpt lat="49.15679" lon="4.07056">
        <ele>151.2</ele>
        <time>2026-08-24T13:47:34Z</time>
      </trkpt>
      <trkpt lat="49.1568" lon="4.07049">
        <ele>151.4</ele>
        <time>2026-08-24T13:47:35Z</time>
      </trkpt>
      <trkpt lat="49.15681" lon="4.07042">
        <ele>151.6</ele>
        <time>2026-08-24T13:47:36Z</time>
      </trkpt>
      <trkpt lat="49.15682" lon="4.07035">
        <ele>151.8</ele>
        <time>2026-08-24T13:47:37Z</time>
      </trkpt>
      <trkpt lat="49.15683" lon="4.07028">
        <ele>152.2</ele>
        <time>2026-08-24T13:47:38Z</time>
      </trkpt>
      <trkpt lat="49.15684" lon="4.07021">
        <ele>152.4</ele>
        <time>2026-08-24T13:47:39Z</time>
      </trkpt>
      <trkpt lat="49.15685" lon="4.07014">
        <ele>152.6</ele>
        <time>2026-08-24T13:47:40Z</time>
      </trkpt>
      <trkpt lat="49.15687" lon="4.07008">
        <ele>152.8</ele>
        <time>2026-08-24T13:47:41Z</time>
      </trkpt>
      <trkpt lat="49.15688" lon="4.07001">
        <ele>153.2</ele>
        <time>2026-08-24T13:47:42Z</time>
      </trkpt>
      <trkpt lat="49.15689" lon="4.06995">
        <ele>153.2</ele>
        <time>2026-08-24T13:47:43Z</time>
      </trkpt>
      <trkpt lat="49.1569" lon="4.06988">
        <ele>153.4</ele>
        <time>2026-08-24T13:47:44Z</time>
      </trkpt>
      <trkpt lat="49.15691" lon="4.06982">
        <ele>153.6</ele>
        <time>2026-08-24T13:47:45Z</time>
      </trkpt>
      <trkpt lat="49.15692" lon="4.06976">
        <ele>153.8</ele>
        <time>2026-08-24T13:47:46Z</time>
      </trkpt>
      <trkpt lat="49.15693" lon="4.0697">
        <ele>154</ele>
        <time>2026-08-24T13:47:47Z</time>
      </trkpt>
      <trkpt lat="49.15693" lon="4.06964">
        <ele>154.4</ele>
        <time>2026-08-24T13:47:48Z</time>
      </trkpt>
      <trkpt lat="49.15694" lon="4.06958">
        <ele>154.6</ele>
        <time>2026-08-24T13:47:49Z</time>
      </trkpt>
      <trkpt lat="49.15695" lon="4.06952">
        <ele>154.8</ele>
        <time>2026-08-24T13:47:50Z</time>
      </trkpt>
      <trkpt lat="49.15696" lon="4.06946">
        <ele>155</ele>
        <time>2026-08-24T13:47:51Z</time>
      </trkpt>
      <trkpt lat="49.15697" lon="4.06941">
        <ele>155.4</ele>
        <time>2026-08-24T13:47:52Z</time>
      </trkpt>
      <trkpt lat="49.15698" lon="4.06935">
        <ele>155.8</ele>
        <time>2026-08-24T13:47:53Z</time>
      </trkpt>
      <trkpt lat="49.15699" lon="4.06929">
        <ele>156</ele>
        <time>2026-08-24T13:47:54Z</time>
      </trkpt>
      <trkpt lat="49.157" lon="4.06923">
        <ele>156.4</ele>
        <time>2026-08-24T13:47:55Z</time>
      </trkpt>
      <trkpt lat="49.15701" lon="4.06918">
        <ele>156.6</ele>
        <time>2026-08-24T13:47:56Z</time>
      </trkpt>
      <trkpt lat="49.15702" lon="4.06912">
        <ele>156.8</ele>
        <time>2026-08-24T13:47:57Z</time>
      </trkpt>
      <trkpt lat="49.15703" lon="4.06907">
        <ele>157</ele>
        <time>2026-08-24T13:47:58Z</time>
      </trkpt>
      <trkpt lat="49.15704" lon="4.06901">
        <ele>157.2</ele>
        <time>2026-08-24T13:47:59Z</time>
      </trkpt>
      <trkpt lat="49.15705" lon="4.06896">
        <ele>157.4</ele>
        <time>2026-08-24T13:48:00Z</time>
      </trkpt>
      <trkpt lat="49.15706" lon="4.0689">
        <ele>157.6</ele>
        <time>2026-08-24T13:48:01Z</time>
      </trkpt>
      <trkpt lat="49.15706" lon="4.06885">
        <ele>158</ele>
        <time>2026-08-24T13:48:02Z</time>
      </trkpt>
      <trkpt lat="49.15707" lon="4.06879">
        <ele>158.4</ele>
        <time>2026-08-24T13:48:03Z</time>
      </trkpt>
      <trkpt lat="49.15708" lon="4.06874">
        <ele>158.6</ele>
        <time>2026-08-24T13:48:04Z</time>
      </trkpt>
      <trkpt lat="49.15709" lon="4.06868">
        <ele>158.8</ele>
        <time>2026-08-24T13:48:05Z</time>
      </trkpt>
      <trkpt lat="49.1571" lon="4.06863">
        <ele>159</ele>
        <time>2026-08-24T13:48:06Z</time>
      </trkpt>
      <trkpt lat="49.15711" lon="4.06858">
        <ele>159.2</ele>
        <time>2026-08-24T13:48:07Z</time>
      </trkpt>
      <trkpt lat="49.15711" lon="4.06852">
        <ele>159.4</ele>
        <time>2026-08-24T13:48:08Z</time>
      </trkpt>
      <trkpt lat="49.15712" lon="4.06847">
        <ele>159.6</ele>
        <time>2026-08-24T13:48:09Z</time>
      </trkpt>
      <trkpt lat="49.15713" lon="4.06842">
        <ele>159.8</ele>
        <time>2026-08-24T13:48:10Z</time>
      </trkpt>
      <trkpt lat="49.15714" lon="4.06837">
        <ele>160.2</ele>
        <time>2026-08-24T13:48:11Z</time>
      </trkpt>
      <trkpt lat="49.15714" lon="4.06831">
        <ele>160.4</ele>
        <time>2026-08-24T13:48:12Z</time>
      </trkpt>
      <trkpt lat="49.15715" lon="4.06826">
        <ele>160.6</ele>
        <time>2026-08-24T13:48:13Z</time>
      </trkpt>
      <trkpt lat="49.15716" lon="4.06821">
        <ele>160.8</ele>
        <time>2026-08-24T13:48:14Z</time>
      </trkpt>
      <trkpt lat="49.15717" lon="4.06816">
        <ele>161</ele>
        <time>2026-08-24T13:48:15Z</time>
      </trkpt>
      <trkpt lat="49.15718" lon="4.06811">
        <ele>161.2</ele>
        <time>2026-08-24T13:48:16Z</time>
      </trkpt>
      <trkpt lat="49.15718" lon="4.06806">
        <ele>161.6</ele>
        <time>2026-08-24T13:48:17Z</time>
      </trkpt>
      <trkpt lat="49.15719" lon="4.06801">
        <ele>161.8</ele>
        <time>2026-08-24T13:48:18Z</time>
      </trkpt>
      <trkpt lat="49.1572" lon="4.06795">
        <ele>162.2</ele>
        <time>2026-08-24T13:48:19Z</time>
      </trkpt>
      <trkpt lat="49.1572" lon="4.0679">
        <ele>162.4</ele>
        <time>2026-08-24T13:48:20Z</time>
      </trkpt>
      <trkpt lat="49.15721" lon="4.06785">
        <ele>162.6</ele>
        <time>2026-08-24T13:48:21Z</time>
      </trkpt>
      <trkpt lat="49.15722" lon="4.0678">
        <ele>162.8</ele>
        <time>2026-08-24T13:48:22Z</time>
      </trkpt>
      <trkpt lat="49.15723" lon="4.06775">
        <ele>163</ele>
        <time>2026-08-24T13:48:23Z</time>
      </trkpt>
      <trkpt lat="49.15724" lon="4.0677">
        <ele>163.2</ele>
        <time>2026-08-24T13:48:24Z</time>
      </trkpt>
      <trkpt lat="49.15724" lon="4.06764">
        <ele>163.2</ele>
        <time>2026-08-24T13:48:25Z</time>
      </trkpt>
      <trkpt lat="49.15725" lon="4.06759">
        <ele>163.4</ele>
        <time>2026-08-24T13:48:26Z</time>
      </trkpt>
      <trkpt lat="49.15726" lon="4.06753">
        <ele>163.6</ele>
        <time>2026-08-24T13:48:27Z</time>
      </trkpt>
      <trkpt lat="49.15726" lon="4.06747">
        <ele>163.8</ele>
        <time>2026-08-24T13:48:28Z</time>
      </trkpt>
      <trkpt lat="49.15727" lon="4.06742">
        <ele>163.8</ele>
        <time>2026-08-24T13:48:29Z</time>
      </trkpt>
      <trkpt lat="49.15728" lon="4.06736">
        <ele>164</ele>
        <time>2026-08-24T13:48:30Z</time>
      </trkpt>
      <trkpt lat="49.15728" lon="4.0673">
        <ele>164.2</ele>
        <time>2026-08-24T13:48:31Z</time>
      </trkpt>
      <trkpt lat="49.15729" lon="4.06724">
        <ele>164.2</ele>
        <time>2026-08-24T13:48:32Z</time>
      </trkpt>
      <trkpt lat="49.1573" lon="4.06718">
        <ele>164.4</ele>
        <time>2026-08-24T13:48:33Z</time>
      </trkpt>
      <trkpt lat="49.15731" lon="4.06712">
        <ele>164.6</ele>
        <time>2026-08-24T13:48:34Z</time>
      </trkpt>
      <trkpt lat="49.15732" lon="4.06706">
        <ele>164.6</ele>
        <time>2026-08-24T13:48:35Z</time>
      </trkpt>
      <trkpt lat="49.15733" lon="4.06699">
        <ele>164.6</ele>
        <time>2026-08-24T13:48:36Z</time>
      </trkpt>
      <trkpt lat="49.15734" lon="4.06692">
        <ele>164.8</ele>
        <time>2026-08-24T13:48:37Z</time>
      </trkpt>
      <trkpt lat="49.15735" lon="4.06685">
        <ele>164.8</ele>
        <time>2026-08-24T13:48:38Z</time>
      </trkpt>
      <trkpt lat="49.15736" lon="4.06677">
        <ele>164.8</ele>
        <time>2026-08-24T13:48:39Z</time>
      </trkpt>
      <trkpt lat="49.15737" lon="4.0667">
        <ele>164.6</ele>
        <time>2026-08-24T13:48:40Z</time>
      </trkpt>
      <trkpt lat="49.15738" lon="4.06662">
        <ele>164.4</ele>
        <time>2026-08-24T13:48:41Z</time>
      </trkpt>
      <trkpt lat="49.15739" lon="4.06654">
        <ele>164.2</ele>
        <time>2026-08-24T13:48:42Z</time>
      </trkpt>
      <trkpt lat="49.1574" lon="4.06645">
        <ele>164</ele>
        <time>2026-08-24T13:48:43Z</time>
      </trkpt>
      <trkpt lat="49.15741" lon="4.06636">
        <ele>163.8</ele>
        <time>2026-08-24T13:48:44Z</time>
      </trkpt>
      <trkpt lat="49.15743" lon="4.06626">
        <ele>163.4</ele>
        <time>2026-08-24T13:48:45Z</time>
      </trkpt>
      <trkpt lat="49.15745" lon="4.06616">
        <ele>163</ele>
        <time>2026-08-24T13:48:46Z</time>
      </trkpt>
      <trkpt lat="49.15747" lon="4.06605">
        <ele>162.6</ele>
        <time>2026-08-24T13:48:47Z</time>
      </trkpt>
      <trkpt lat="49.15749" lon="4.06594">
        <ele>162.2</ele>
        <time>2026-08-24T13:48:48Z</time>
      </trkpt>
      <trkpt lat="49.1575" lon="4.06582">
        <ele>161.6</ele>
        <time>2026-08-24T13:48:49Z</time>
      </trkpt>
      <trkpt lat="49.15751" lon="4.0657">
        <ele>161.2</ele>
        <time>2026-08-24T13:48:50Z</time>
      </trkpt>
      <trkpt lat="49.15751" lon="4.06558">
        <ele>160.6</ele>
        <time>2026-08-24T13:48:51Z</time>
      </trkpt>
      <trkpt lat="49.15751" lon="4.06545">
        <ele>160</ele>
        <time>2026-08-24T13:48:52Z</time>
      </trkpt>
      <trkpt lat="49.15752" lon="4.06532">
        <ele>159.4</ele>
        <time>2026-08-24T13:48:53Z</time>
      </trkpt>
      <trkpt lat="49.15751" lon="4.0652">
        <ele>158.6</ele>
        <time>2026-08-24T13:48:54Z</time>
      </trkpt>
      <trkpt lat="49.15751" lon="4.06507">
        <ele>157.6</ele>
        <time>2026-08-24T13:48:55Z</time>
      </trkpt>
      <trkpt lat="49.15752" lon="4.06496">
        <ele>156.8</ele>
        <time>2026-08-24T13:48:56Z</time>
      </trkpt>
      <trkpt lat="49.15752" lon="4.06484">
        <ele>156.2</ele>
        <time>2026-08-24T13:48:57Z</time>
      </trkpt>
      <trkpt lat="49.15751" lon="4.06473">
        <ele>155.6</ele>
        <time>2026-08-24T13:48:58Z</time>
      </trkpt>
      <trkpt lat="49.15751" lon="4.06463">
        <ele>155.2</ele>
        <time>2026-08-24T13:48:59Z</time>
      </trkpt>
      <trkpt lat="49.15752" lon="4.06454">
        <ele>154.6</ele>
        <time>2026-08-24T13:49:00Z</time>
      </trkpt>
      <trkpt lat="49.15752" lon="4.06445">
        <ele>154.2</ele>
        <time>2026-08-24T13:49:01Z</time>
      </trkpt>
      <trkpt lat="49.15753" lon="4.06437">
        <ele>153.6</ele>
        <time>2026-08-24T13:49:02Z</time>
      </trkpt>
      <trkpt lat="49.15754" lon="4.0643">
        <ele>153</ele>
        <time>2026-08-24T13:49:03Z</time>
      </trkpt>
      <trkpt lat="49.15756" lon="4.06424">
        <ele>152.6</ele>
        <time>2026-08-24T13:49:04Z</time>
      </trkpt>
      <trkpt lat="49.15756" lon="4.06419">
        <ele>152.4</ele>
        <time>2026-08-24T13:49:05Z</time>
      </trkpt>
      <trkpt lat="49.15756" lon="4.06414">
        <ele>152</ele>
        <time>2026-08-24T13:49:06Z</time>
      </trkpt>
      <trkpt lat="49.15753" lon="4.0641">
        <ele>152</ele>
        <time>2026-08-24T13:49:07Z</time>
      </trkpt>
      <trkpt lat="49.1575" lon="4.06407">
        <ele>151.6</ele>
        <time>2026-08-24T13:49:08Z</time>
      </trkpt>
      <trkpt lat="49.15746" lon="4.06404">
        <ele>151.4</ele>
        <time>2026-08-24T13:49:09Z</time>
      </trkpt>
      <trkpt lat="49.15742" lon="4.06401">
        <ele>151.2</ele>
        <time>2026-08-24T13:49:10Z</time>
      </trkpt>
      <trkpt lat="49.15737" lon="4.06397">
        <ele>151</ele>
        <time>2026-08-24T13:49:11Z</time>
      </trkpt>
      <trkpt lat="49.15732" lon="4.06391">
        <ele>150.8</ele>
        <time>2026-08-24T13:49:12Z</time>
      </trkpt>
      <trkpt lat="49.15727" lon="4.06386">
        <ele>150.8</ele>
        <time>2026-08-24T13:49:13Z</time>
      </trkpt>
      <trkpt lat="49.15722" lon="4.06381">
        <ele>150.8</ele>
        <time>2026-08-24T13:49:14Z</time>
      </trkpt>
      <trkpt lat="49.15717" lon="4.06377">
        <ele>150.8</ele>
        <time>2026-08-24T13:49:15Z</time>
      </trkpt>
      <trkpt lat="49.15712" lon="4.06372">
        <ele>150.8</ele>
        <time>2026-08-24T13:49:16Z</time>
      </trkpt>
      <trkpt lat="49.15707" lon="4.06366">
        <ele>151</ele>
        <time>2026-08-24T13:49:17Z</time>
      </trkpt>
      <trkpt lat="49.15702" lon="4.0636">
        <ele>151</ele>
        <time>2026-08-24T13:49:18Z</time>
      </trkpt>
      <trkpt lat="49.15697" lon="4.06355">
        <ele>151</ele>
        <time>2026-08-24T13:49:19Z</time>
      </trkpt>
      <trkpt lat="49.15692" lon="4.06349">
        <ele>151</ele>
        <time>2026-08-24T13:49:20Z</time>
      </trkpt>
      <trkpt lat="49.15688" lon="4.06344">
        <ele>151</ele>
        <time>2026-08-24T13:49:21Z</time>
      </trkpt>
      <trkpt lat="49.15683" lon="4.06339">
        <ele>151.2</ele>
        <time>2026-08-24T13:49:22Z</time>
      </trkpt>
      <trkpt lat="49.15678" lon="4.06335">
        <ele>151.2</ele>
        <time>2026-08-24T13:49:23Z</time>
      </trkpt>
      <trkpt lat="49.15674" lon="4.0633">
        <ele>151.6</ele>
        <time>2026-08-24T13:49:24Z</time>
      </trkpt>
      <trkpt lat="49.15671" lon="4.06324">
        <ele>152</ele>
        <time>2026-08-24T13:49:25Z</time>
      </trkpt>
      <trkpt lat="49.1567" lon="4.06317">
        <ele>152.2</ele>
        <time>2026-08-24T13:49:26Z</time>
      </trkpt>
      <trkpt lat="49.1567" lon="4.0631">
        <ele>152.4</ele>
        <time>2026-08-24T13:49:27Z</time>
      </trkpt>
      <trkpt lat="49.15671" lon="4.06303">
        <ele>152.8</ele>
        <time>2026-08-24T13:49:28Z</time>
      </trkpt>
      <trkpt lat="49.15672" lon="4.06297">
        <ele>153.2</ele>
        <time>2026-08-24T13:49:29Z</time>
      </trkpt>
      <trkpt lat="49.15674" lon="4.06291">
        <ele>153.4</ele>
        <time>2026-08-24T13:49:30Z</time>
      </trkpt>
      <trkpt lat="49.15677" lon="4.06286">
        <ele>153.6</ele>
        <time>2026-08-24T13:49:31Z</time>
      </trkpt>
      <trkpt lat="49.15681" lon="4.06282">
        <ele>154</ele>
        <time>2026-08-24T13:49:32Z</time>
      </trkpt>
      <trkpt lat="49.15686" lon="4.06278">
        <ele>153.8</ele>
        <time>2026-08-24T13:49:33Z</time>
      </trkpt>
      <trkpt lat="49.15691" lon="4.06273">
        <ele>153.6</ele>
        <time>2026-08-24T13:49:34Z</time>
      </trkpt>
      <trkpt lat="49.15697" lon="4.06269">
        <ele>153.2</ele>
        <time>2026-08-24T13:49:35Z</time>
      </trkpt>
      <trkpt lat="49.15703" lon="4.06265">
        <ele>153</ele>
        <time>2026-08-24T13:49:36Z</time>
      </trkpt>
      <trkpt lat="49.15708" lon="4.06259">
        <ele>152.4</ele>
        <time>2026-08-24T13:49:37Z</time>
      </trkpt>
      <trkpt lat="49.15714" lon="4.06253">
        <ele>152</ele>
        <time>2026-08-24T13:49:38Z</time>
      </trkpt>
      <trkpt lat="49.15719" lon="4.06247">
        <ele>151.6</ele>
        <time>2026-08-24T13:49:39Z</time>
      </trkpt>
      <trkpt lat="49.15724" lon="4.0624">
        <ele>151.4</ele>
        <time>2026-08-24T13:49:40Z</time>
      </trkpt>
      <trkpt lat="49.15729" lon="4.06233">
        <ele>151.2</ele>
        <time>2026-08-24T13:49:41Z</time>
      </trkpt>
      <trkpt lat="49.15734" lon="4.06225">
        <ele>151</ele>
        <time>2026-08-24T13:49:42Z</time>
      </trkpt>
      <trkpt lat="49.15739" lon="4.06218">
        <ele>151</ele>
        <time>2026-08-24T13:49:43Z</time>
      </trkpt>
      <trkpt lat="49.15744" lon="4.0621">
        <ele>150.6</ele>
        <time>2026-08-24T13:49:44Z</time>
      </trkpt>
      <trkpt lat="49.1575" lon="4.06202">
        <ele>150.4</ele>
        <time>2026-08-24T13:49:45Z</time>
      </trkpt>
      <trkpt lat="49.15755" lon="4.06194">
        <ele>150</ele>
        <time>2026-08-24T13:49:46Z</time>
      </trkpt>
      <trkpt lat="49.1576" lon="4.06185">
        <ele>149.8</ele>
        <time>2026-08-24T13:49:47Z</time>
      </trkpt>
      <trkpt lat="49.15766" lon="4.06176">
        <ele>149.2</ele>
        <time>2026-08-24T13:49:48Z</time>
      </trkpt>
      <trkpt lat="49.15772" lon="4.06167">
        <ele>148.6</ele>
        <time>2026-08-24T13:49:49Z</time>
      </trkpt>
      <trkpt lat="49.15778" lon="4.06158">
        <ele>148.2</ele>
        <time>2026-08-24T13:49:50Z</time>
      </trkpt>
      <trkpt lat="49.15783" lon="4.06148">
        <ele>147.8</ele>
        <time>2026-08-24T13:49:51Z</time>
      </trkpt>
      <trkpt lat="49.15788" lon="4.06138">
        <ele>147.4</ele>
        <time>2026-08-24T13:49:52Z</time>
      </trkpt>
      <trkpt lat="49.15793" lon="4.06127">
        <ele>147.2</ele>
        <time>2026-08-24T13:49:53Z</time>
      </trkpt>
      <trkpt lat="49.15798" lon="4.06117">
        <ele>147.2</ele>
        <time>2026-08-24T13:49:54Z</time>
      </trkpt>
      <trkpt lat="49.15803" lon="4.06107">
        <ele>147</ele>
        <time>2026-08-24T13:49:55Z</time>
      </trkpt>
      <trkpt lat="49.15808" lon="4.06097">
        <ele>146.8</ele>
        <time>2026-08-24T13:49:56Z</time>
      </trkpt>
      <trkpt lat="49.15813" lon="4.06087">
        <ele>146.6</ele>
        <time>2026-08-24T13:49:57Z</time>
      </trkpt>
      <trkpt lat="49.15818" lon="4.06077">
        <ele>146.2</ele>
        <time>2026-08-24T13:49:58Z</time>
      </trkpt>
      <trkpt lat="49.15823" lon="4.06067">
        <ele>146</ele>
        <time>2026-08-24T13:49:59Z</time>
      </trkpt>
      <trkpt lat="49.15828" lon="4.06057">
        <ele>146</ele>
        <time>2026-08-24T13:50:00Z</time>
      </trkpt>
      <trkpt lat="49.15832" lon="4.06047">
        <ele>145.8</ele>
        <time>2026-08-24T13:50:01Z</time>
      </trkpt>
      <trkpt lat="49.15837" lon="4.06038">
        <ele>145.8</ele>
        <time>2026-08-24T13:50:02Z</time>
      </trkpt>
      <trkpt lat="49.15842" lon="4.06028">
        <ele>145.6</ele>
        <time>2026-08-24T13:50:03Z</time>
      </trkpt>
      <trkpt lat="49.15846" lon="4.06019">
        <ele>145.6</ele>
        <time>2026-08-24T13:50:04Z</time>
      </trkpt>
      <trkpt lat="49.15851" lon="4.0601">
        <ele>145.6</ele>
        <time>2026-08-24T13:50:05Z</time>
      </trkpt>
      <trkpt lat="49.15855" lon="4.06001">
        <ele>145.6</ele>
        <time>2026-08-24T13:50:06Z</time>
      </trkpt>
      <trkpt lat="49.1586" lon="4.05992">
        <ele>145.8</ele>
        <time>2026-08-24T13:50:07Z</time>
      </trkpt>
      <trkpt lat="49.15865" lon="4.05983">
        <ele>146</ele>
        <time>2026-08-24T13:50:08Z</time>
      </trkpt>
      <trkpt lat="49.15869" lon="4.05974">
        <ele>146.2</ele>
        <time>2026-08-24T13:50:09Z</time>
      </trkpt>
      <trkpt lat="49.15873" lon="4.05966">
        <ele>146</ele>
        <time>2026-08-24T13:50:10Z</time>
      </trkpt>
      <trkpt lat="49.15877" lon="4.05957">
        <ele>146</ele>
        <time>2026-08-24T13:50:11Z</time>
      </trkpt>
      <trkpt lat="49.15882" lon="4.05948">
        <ele>146</ele>
        <time>2026-08-24T13:50:12Z</time>
      </trkpt>
      <trkpt lat="49.15886" lon="4.0594">
        <ele>146.2</ele>
        <time>2026-08-24T13:50:13Z</time>
      </trkpt>
      <trkpt lat="49.1589" lon="4.05932">
        <ele>146.6</ele>
        <time>2026-08-24T13:50:14Z</time>
      </trkpt>
      <trkpt lat="49.15894" lon="4.05924">
        <ele>147</ele>
        <time>2026-08-24T13:50:15Z</time>
      </trkpt>
      <trkpt lat="49.15898" lon="4.05916">
        <ele>147.2</ele>
        <time>2026-08-24T13:50:16Z</time>
      </trkpt>
      <trkpt lat="49.15901" lon="4.05907">
        <ele>147.6</ele>
        <time>2026-08-24T13:50:17Z</time>
      </trkpt>
      <trkpt lat="49.15905" lon="4.05899">
        <ele>147.8</ele>
        <time>2026-08-24T13:50:18Z</time>
      </trkpt>
      <trkpt lat="49.15909" lon="4.0589">
        <ele>148</ele>
        <time>2026-08-24T13:50:19Z</time>
      </trkpt>
      <trkpt lat="49.15912" lon="4.05882">
        <ele>148.2</ele>
        <time>2026-08-24T13:50:20Z</time>
      </trkpt>
      <trkpt lat="49.15915" lon="4.05873">
        <ele>148.4</ele>
        <time>2026-08-24T13:50:21Z</time>
      </trkpt>
      <trkpt lat="49.15918" lon="4.05865">
        <ele>148.6</ele>
        <time>2026-08-24T13:50:22Z</time>
      </trkpt>
      <trkpt lat="49.15922" lon="4.05856">
        <ele>148.8</ele>
        <time>2026-08-24T13:50:23Z</time>
      </trkpt>
      <trkpt lat="49.15925" lon="4.05848">
        <ele>149</ele>
        <time>2026-08-24T13:50:24Z</time>
      </trkpt>
      <trkpt lat="49.15927" lon="4.0584">
        <ele>149.2</ele>
        <time>2026-08-24T13:50:25Z</time>
      </trkpt>
      <trkpt lat="49.1593" lon="4.05831">
        <ele>149.6</ele>
        <time>2026-08-24T13:50:26Z</time>
      </trkpt>
      <trkpt lat="49.15932" lon="4.05823">
        <ele>149.8</ele>
        <time>2026-08-24T13:50:27Z</time>
      </trkpt>
      <trkpt lat="49.15935" lon="4.05816">
        <ele>150</ele>
        <time>2026-08-24T13:50:28Z</time>
      </trkpt>
      <trkpt lat="49.15937" lon="4.05808">
        <ele>150.4</ele>
        <time>2026-08-24T13:50:29Z</time>
      </trkpt>
      <trkpt lat="49.1594" lon="4.058">
        <ele>150.6</ele>
        <time>2026-08-24T13:50:30Z</time>
      </trkpt>
      <trkpt lat="49.15942" lon="4.05792">
        <ele>151</ele>
        <time>2026-08-24T13:50:31Z</time>
      </trkpt>
      <trkpt lat="49.15944" lon="4.05784">
        <ele>151.2</ele>
        <time>2026-08-24T13:50:32Z</time>
      </trkpt>
      <trkpt lat="49.15947" lon="4.05775">
        <ele>151.2</ele>
        <time>2026-08-24T13:50:33Z</time>
      </trkpt>
      <trkpt lat="49.1595" lon="4.05767">
        <ele>151.4</ele>
        <time>2026-08-24T13:50:34Z</time>
      </trkpt>
      <trkpt lat="49.15952" lon="4.05759">
        <ele>151.6</ele>
        <time>2026-08-24T13:50:35Z</time>
      </trkpt>
      <trkpt lat="49.15955" lon="4.05751">
        <ele>151.8</ele>
        <time>2026-08-24T13:50:36Z</time>
      </trkpt>
      <trkpt lat="49.15958" lon="4.05742">
        <ele>152</ele>
        <time>2026-08-24T13:50:37Z</time>
      </trkpt>
      <trkpt lat="49.15961" lon="4.05734">
        <ele>152</ele>
        <time>2026-08-24T13:50:38Z</time>
      </trkpt>
      <trkpt lat="49.15964" lon="4.05726">
        <ele>152.2</ele>
        <time>2026-08-24T13:50:39Z</time>
      </trkpt>
      <trkpt lat="49.15967" lon="4.05718">
        <ele>152.2</ele>
        <time>2026-08-24T13:50:40Z</time>
      </trkpt>
      <trkpt lat="49.1597" lon="4.05709">
        <ele>152.4</ele>
        <time>2026-08-24T13:50:41Z</time>
      </trkpt>
      <trkpt lat="49.15973" lon="4.05701">
        <ele>152.4</ele>
        <time>2026-08-24T13:50:42Z</time>
      </trkpt>
      <trkpt lat="49.15977" lon="4.05693">
        <ele>152.4</ele>
        <time>2026-08-24T13:50:43Z</time>
      </trkpt>
      <trkpt lat="49.15981" lon="4.05684">
        <ele>152.4</ele>
        <time>2026-08-24T13:50:44Z</time>
      </trkpt>
      <trkpt lat="49.15985" lon="4.05675">
        <ele>152.2</ele>
        <time>2026-08-24T13:50:45Z</time>
      </trkpt>
      <trkpt lat="49.1599" lon="4.05666">
        <ele>152</ele>
        <time>2026-08-24T13:50:46Z</time>
      </trkpt>
      <trkpt lat="49.15994" lon="4.05657">
        <ele>151.8</ele>
        <time>2026-08-24T13:50:47Z</time>
      </trkpt>
      <trkpt lat="49.15999" lon="4.05648">
        <ele>151.6</ele>
        <time>2026-08-24T13:50:48Z</time>
      </trkpt>
      <trkpt lat="49.16004" lon="4.05638">
        <ele>151.2</ele>
        <time>2026-08-24T13:50:49Z</time>
      </trkpt>
      <trkpt lat="49.16009" lon="4.05629">
        <ele>151</ele>
        <time>2026-08-24T13:50:50Z</time>
      </trkpt>
      <trkpt lat="49.16014" lon="4.05619">
        <ele>150.8</ele>
        <time>2026-08-24T13:50:51Z</time>
      </trkpt>
      <trkpt lat="49.16019" lon="4.05609">
        <ele>150.4</ele>
        <time>2026-08-24T13:50:52Z</time>
      </trkpt>
      <trkpt lat="49.16025" lon="4.05599">
        <ele>150.2</ele>
        <time>2026-08-24T13:50:53Z</time>
      </trkpt>
      <trkpt lat="49.1603" lon="4.05589">
        <ele>150</ele>
        <time>2026-08-24T13:50:54Z</time>
      </trkpt>
      <trkpt lat="49.16035" lon="4.05579">
        <ele>149.8</ele>
        <time>2026-08-24T13:50:55Z</time>
      </trkpt>
      <trkpt lat="49.1604" lon="4.05569">
        <ele>149.4</ele>
        <time>2026-08-24T13:50:56Z</time>
      </trkpt>
      <trkpt lat="49.16045" lon="4.0556">
        <ele>149.4</ele>
        <time>2026-08-24T13:50:57Z</time>
      </trkpt>
      <trkpt lat="49.1605" lon="4.0555">
        <ele>149.4</ele>
        <time>2026-08-24T13:50:58Z</time>
      </trkpt>
      <trkpt lat="49.16055" lon="4.05541">
        <ele>149.4</ele>
        <time>2026-08-24T13:50:59Z</time>
      </trkpt>
      <trkpt lat="49.1606" lon="4.05532">
        <ele>149.4</ele>
        <time>2026-08-24T13:51:00Z</time>
      </trkpt>
      <trkpt lat="49.16065" lon="4.05523">
        <ele>149.6</ele>
        <time>2026-08-24T13:51:01Z</time>
      </trkpt>
      <trkpt lat="49.1607" lon="4.05514">
        <ele>149.8</ele>
        <time>2026-08-24T13:51:02Z</time>
      </trkpt>
      <trkpt lat="49.16074" lon="4.05506">
        <ele>150</ele>
        <time>2026-08-24T13:51:03Z</time>
      </trkpt>
      <trkpt lat="49.16079" lon="4.05498">
        <ele>150.2</ele>
        <time>2026-08-24T13:51:04Z</time>
      </trkpt>
      <trkpt lat="49.16083" lon="4.05489">
        <ele>150.4</ele>
        <time>2026-08-24T13:51:05Z</time>
      </trkpt>
      <trkpt lat="49.16088" lon="4.05481">
        <ele>150.6</ele>
        <time>2026-08-24T13:51:06Z</time>
      </trkpt>
      <trkpt lat="49.16092" lon="4.05473">
        <ele>150.8</ele>
        <time>2026-08-24T13:51:07Z</time>
      </trkpt>
      <trkpt lat="49.16096" lon="4.05465">
        <ele>151</ele>
        <time>2026-08-24T13:51:08Z</time>
      </trkpt>
      <trkpt lat="49.161" lon="4.05457">
        <ele>151.4</ele>
        <time>2026-08-24T13:51:09Z</time>
      </trkpt>
      <trkpt lat="49.16104" lon="4.05449">
        <ele>151.6</ele>
        <time>2026-08-24T13:51:10Z</time>
      </trkpt>
      <trkpt lat="49.16109" lon="4.05441">
        <ele>151.8</ele>
        <time>2026-08-24T13:51:11Z</time>
      </trkpt>
      <trkpt lat="49.16113" lon="4.05433">
        <ele>152.2</ele>
        <time>2026-08-24T13:51:12Z</time>
      </trkpt>
      <trkpt lat="49.16117" lon="4.05426">
        <ele>152.4</ele>
        <time>2026-08-24T13:51:13Z</time>
      </trkpt>
      <trkpt lat="49.1612" lon="4.05419">
        <ele>152.6</ele>
        <time>2026-08-24T13:51:14Z</time>
      </trkpt>
      <trkpt lat="49.16124" lon="4.05412">
        <ele>153</ele>
        <time>2026-08-24T13:51:15Z</time>
      </trkpt>
      <trkpt lat="49.16127" lon="4.05405">
        <ele>153.2</ele>
        <time>2026-08-24T13:51:16Z</time>
      </trkpt>
      <trkpt lat="49.16131" lon="4.05399">
        <ele>153.4</ele>
        <time>2026-08-24T13:51:17Z</time>
      </trkpt>
      <trkpt lat="49.16134" lon="4.05392">
        <ele>153.8</ele>
        <time>2026-08-24T13:51:18Z</time>
      </trkpt>
      <trkpt lat="49.16137" lon="4.05386">
        <ele>154</ele>
        <time>2026-08-24T13:51:19Z</time>
      </trkpt>
      <trkpt lat="49.1614" lon="4.0538">
        <ele>154.4</ele>
        <time>2026-08-24T13:51:20Z</time>
      </trkpt>
      <trkpt lat="49.16144" lon="4.05374">
        <ele>154.6</ele>
        <time>2026-08-24T13:51:21Z</time>
      </trkpt>
      <trkpt lat="49.16147" lon="4.05368">
        <ele>154.8</ele>
        <time>2026-08-24T13:51:22Z</time>
      </trkpt>
      <trkpt lat="49.1615" lon="4.05363">
        <ele>155.2</ele>
        <time>2026-08-24T13:51:23Z</time>
      </trkpt>
      <trkpt lat="49.16153" lon="4.05357">
        <ele>155.4</ele>
        <time>2026-08-24T13:51:24Z</time>
      </trkpt>
      <trkpt lat="49.16156" lon="4.05351">
        <ele>155.6</ele>
        <time>2026-08-24T13:51:25Z</time>
      </trkpt>
      <trkpt lat="49.16159" lon="4.05346">
        <ele>155.8</ele>
        <time>2026-08-24T13:51:26Z</time>
      </trkpt>
      <trkpt lat="49.16162" lon="4.0534">
        <ele>156.2</ele>
        <time>2026-08-24T13:51:27Z</time>
      </trkpt>
      <trkpt lat="49.16165" lon="4.05335">
        <ele>156.4</ele>
        <time>2026-08-24T13:51:28Z</time>
      </trkpt>
      <trkpt lat="49.16168" lon="4.05329">
        <ele>156.6</ele>
        <time>2026-08-24T13:51:29Z</time>
      </trkpt>
      <trkpt lat="49.1617" lon="4.05324">
        <ele>156.8</ele>
        <time>2026-08-24T13:51:30Z</time>
      </trkpt>
      <trkpt lat="49.16173" lon="4.05319">
        <ele>157</ele>
        <time>2026-08-24T13:51:31Z</time>
      </trkpt>
      <trkpt lat="49.16176" lon="4.05314">
        <ele>157.2</ele>
        <time>2026-08-24T13:51:32Z</time>
      </trkpt>
      <trkpt lat="49.16179" lon="4.05309">
        <ele>157.6</ele>
        <time>2026-08-24T13:51:33Z</time>
      </trkpt>
      <trkpt lat="49.16181" lon="4.05303">
        <ele>157.8</ele>
        <time>2026-08-24T13:51:34Z</time>
      </trkpt>
      <trkpt lat="49.16184" lon="4.05298">
        <ele>158</ele>
        <time>2026-08-24T13:51:35Z</time>
      </trkpt>
      <trkpt lat="49.16187" lon="4.05293">
        <ele>158.4</ele>
        <time>2026-08-24T13:51:36Z</time>
      </trkpt>
      <trkpt lat="49.1619" lon="4.05288">
        <ele>158.6</ele>
        <time>2026-08-24T13:51:37Z</time>
      </trkpt>
      <trkpt lat="49.16192" lon="4.05282">
        <ele>158.8</ele>
        <time>2026-08-24T13:51:38Z</time>
      </trkpt>
      <trkpt lat="49.16195" lon="4.05277">
        <ele>158.8</ele>
        <time>2026-08-24T13:51:39Z</time>
      </trkpt>
      <trkpt lat="49.16197" lon="4.05272">
        <ele>159</ele>
        <time>2026-08-24T13:51:40Z</time>
      </trkpt>
      <trkpt lat="49.162" lon="4.05267">
        <ele>159.2</ele>
        <time>2026-08-24T13:51:41Z</time>
      </trkpt>
      <trkpt lat="49.16203" lon="4.05262">
        <ele>159.6</ele>
        <time>2026-08-24T13:51:42Z</time>
      </trkpt>
      <trkpt lat="49.16205" lon="4.05257">
        <ele>159.8</ele>
        <time>2026-08-24T13:51:43Z</time>
      </trkpt>
      <trkpt lat="49.16208" lon="4.05252">
        <ele>160</ele>
        <time>2026-08-24T13:51:44Z</time>
      </trkpt>
      <trkpt lat="49.1621" lon="4.05247">
        <ele>160.2</ele>
        <time>2026-08-24T13:51:45Z</time>
      </trkpt>
      <trkpt lat="49.16213" lon="4.05242">
        <ele>160.4</ele>
        <time>2026-08-24T13:51:46Z</time>
      </trkpt>
      <trkpt lat="49.16216" lon="4.05237">
        <ele>160.6</ele>
        <time>2026-08-24T13:51:47Z</time>
      </trkpt>
      <trkpt lat="49.16218" lon="4.05232">
        <ele>160.8</ele>
        <time>2026-08-24T13:51:48Z</time>
      </trkpt>
      <trkpt lat="49.16221" lon="4.05227">
        <ele>161</ele>
        <time>2026-08-24T13:51:49Z</time>
      </trkpt>
      <trkpt lat="49.16223" lon="4.05222">
        <ele>161</ele>
        <time>2026-08-24T13:51:50Z</time>
      </trkpt>
      <trkpt lat="49.16226" lon="4.05218">
        <ele>161.2</ele>
        <time>2026-08-24T13:51:51Z</time>
      </trkpt>
      <trkpt lat="49.16228" lon="4.05213">
        <ele>161.4</ele>
        <time>2026-08-24T13:51:52Z</time>
      </trkpt>
      <trkpt lat="49.16231" lon="4.05208">
        <ele>161.6</ele>
        <time>2026-08-24T13:51:53Z</time>
      </trkpt>
      <trkpt lat="49.16234" lon="4.05204">
        <ele>161.8</ele>
        <time>2026-08-24T13:51:54Z</time>
      </trkpt>
      <trkpt lat="49.16236" lon="4.05199">
        <ele>162</ele>
        <time>2026-08-24T13:51:55Z</time>
      </trkpt>
      <trkpt lat="49.16238" lon="4.05194">
        <ele>162.4</ele>
        <time>2026-08-24T13:51:56Z</time>
      </trkpt>
      <trkpt lat="49.1624" lon="4.0519">
        <ele>162.6</ele>
        <time>2026-08-24T13:51:57Z</time>
      </trkpt>
      <trkpt lat="49.16243" lon="4.05186">
        <ele>162.8</ele>
        <time>2026-08-24T13:51:58Z</time>
      </trkpt>
      <trkpt lat="49.16245" lon="4.05182">
        <ele>163</ele>
        <time>2026-08-24T13:51:59Z</time>
      </trkpt>
      <trkpt lat="49.16247" lon="4.05178">
        <ele>163.2</ele>
        <time>2026-08-24T13:52:00Z</time>
      </trkpt>
      <trkpt lat="49.16249" lon="4.05174">
        <ele>163.4</ele>
        <time>2026-08-24T13:52:01Z</time>
      </trkpt>
      <trkpt lat="49.16251" lon="4.0517">
        <ele>163.6</ele>
        <time>2026-08-24T13:52:02Z</time>
      </trkpt>
      <trkpt lat="49.16253" lon="4.05165">
        <ele>163.8</ele>
        <time>2026-08-24T13:52:03Z</time>
      </trkpt>
      <trkpt lat="49.16255" lon="4.05161">
        <ele>164</ele>
        <time>2026-08-24T13:52:04Z</time>
      </trkpt>
      <trkpt lat="49.16258" lon="4.05157">
        <ele>164.4</ele>
        <time>2026-08-24T13:52:05Z</time>
      </trkpt>
      <trkpt lat="49.1626" lon="4.05153">
        <ele>164.6</ele>
        <time>2026-08-24T13:52:06Z</time>
      </trkpt>
      <trkpt lat="49.16262" lon="4.05149">
        <ele>164.8</ele>
        <time>2026-08-24T13:52:07Z</time>
      </trkpt>
      <trkpt lat="49.16264" lon="4.05145">
        <ele>165</ele>
        <time>2026-08-24T13:52:08Z</time>
      </trkpt>
      <trkpt lat="49.16266" lon="4.05142">
        <ele>165</ele>
        <time>2026-08-24T13:52:09Z</time>
      </trkpt>
      <trkpt lat="49.16268" lon="4.05138">
        <ele>165.2</ele>
        <time>2026-08-24T13:52:10Z</time>
      </trkpt>
      <trkpt lat="49.1627" lon="4.05134">
        <ele>165.4</ele>
        <time>2026-08-24T13:52:11Z</time>
      </trkpt>
      <trkpt lat="49.16272" lon="4.0513">
        <ele>165.6</ele>
        <time>2026-08-24T13:52:12Z</time>
      </trkpt>
      <trkpt lat="49.16274" lon="4.05125">
        <ele>166</ele>
        <time>2026-08-24T13:52:13Z</time>
      </trkpt>
      <trkpt lat="49.16276" lon="4.05121">
        <ele>166</ele>
        <time>2026-08-24T13:52:14Z</time>
      </trkpt>
      <trkpt lat="49.16278" lon="4.05118">
        <ele>166.2</ele>
        <time>2026-08-24T13:52:15Z</time>
      </trkpt>
      <trkpt lat="49.1628" lon="4.05114">
        <ele>166.4</ele>
        <time>2026-08-24T13:52:16Z</time>
      </trkpt>
      <trkpt lat="49.16282" lon="4.0511">
        <ele>166.8</ele>
        <time>2026-08-24T13:52:17Z</time>
      </trkpt>
      <trkpt lat="49.16284" lon="4.05106">
        <ele>167</ele>
        <time>2026-08-24T13:52:18Z</time>
      </trkpt>
      <trkpt lat="49.16286" lon="4.05102">
        <ele>167.2</ele>
        <time>2026-08-24T13:52:19Z</time>
      </trkpt>
      <trkpt lat="49.16288" lon="4.05098">
        <ele>167.6</ele>
        <time>2026-08-24T13:52:20Z</time>
      </trkpt>
      <trkpt lat="49.1629" lon="4.05094">
        <ele>167.8</ele>
        <time>2026-08-24T13:52:21Z</time>
      </trkpt>
      <trkpt lat="49.16292" lon="4.05091">
        <ele>168</ele>
        <time>2026-08-24T13:52:22Z</time>
      </trkpt>
      <trkpt lat="49.16293" lon="4.05087">
        <ele>168.2</ele>
        <time>2026-08-24T13:52:23Z</time>
      </trkpt>
      <trkpt lat="49.16295" lon="4.05083">
        <ele>168.4</ele>
        <time>2026-08-24T13:52:24Z</time>
      </trkpt>
      <trkpt lat="49.16298" lon="4.0508">
        <ele>168.6</ele>
        <time>2026-08-24T13:52:25Z</time>
      </trkpt>
      <trkpt lat="49.163" lon="4.05076">
        <ele>168.8</ele>
        <time>2026-08-24T13:52:26Z</time>
      </trkpt>
      <trkpt lat="49.16302" lon="4.05072">
        <ele>169</ele>
        <time>2026-08-24T13:52:27Z</time>
      </trkpt>
      <trkpt lat="49.16304" lon="4.05068">
        <ele>169</ele>
        <time>2026-08-24T13:52:28Z</time>
      </trkpt>
      <trkpt lat="49.16306" lon="4.05064">
        <ele>169.2</ele>
        <time>2026-08-24T13:52:29Z</time>
      </trkpt>
      <trkpt lat="49.16308" lon="4.0506">
        <ele>169.4</ele>
        <time>2026-08-24T13:52:30Z</time>
      </trkpt>
      <trkpt lat="49.1631" lon="4.05056">
        <ele>169.4</ele>
        <time>2026-08-24T13:52:31Z</time>
      </trkpt>
      <trkpt lat="49.16313" lon="4.05052">
        <ele>169.6</ele>
        <time>2026-08-24T13:52:32Z</time>
      </trkpt>
      <trkpt lat="49.16315" lon="4.05047">
        <ele>169.6</ele>
        <time>2026-08-24T13:52:33Z</time>
      </trkpt>
      <trkpt lat="49.16317" lon="4.05043">
        <ele>169.6</ele>
        <time>2026-08-24T13:52:34Z</time>
      </trkpt>
      <trkpt lat="49.1632" lon="4.05038">
        <ele>169.8</ele>
        <time>2026-08-24T13:52:35Z</time>
      </trkpt>
      <trkpt lat="49.16322" lon="4.05033">
        <ele>169.8</ele>
        <time>2026-08-24T13:52:36Z</time>
      </trkpt>
      <trkpt lat="49.16324" lon="4.05028">
        <ele>169.8</ele>
        <time>2026-08-24T13:52:37Z</time>
      </trkpt>
      <trkpt lat="49.16326" lon="4.05022">
        <ele>169.8</ele>
        <time>2026-08-24T13:52:38Z</time>
      </trkpt>
      <trkpt lat="49.16329" lon="4.05017">
        <ele>170</ele>
        <time>2026-08-24T13:52:39Z</time>
      </trkpt>
      <trkpt lat="49.16331" lon="4.05011">
        <ele>170</ele>
        <time>2026-08-24T13:52:40Z</time>
      </trkpt>
      <trkpt lat="49.16333" lon="4.05005">
        <ele>170</ele>
        <time>2026-08-24T13:52:41Z</time>
      </trkpt>
      <trkpt lat="49.16336" lon="4.04999">
        <ele>170</ele>
        <time>2026-08-24T13:52:42Z</time>
      </trkpt>
      <trkpt lat="49.16338" lon="4.04993">
        <ele>170.2</ele>
        <time>2026-08-24T13:52:43Z</time>
      </trkpt>
      <trkpt lat="49.1634" lon="4.04986">
        <ele>170.2</ele>
        <time>2026-08-24T13:52:44Z</time>
      </trkpt>
      <trkpt lat="49.16342" lon="4.04979">
        <ele>170.2</ele>
        <time>2026-08-24T13:52:45Z</time>
      </trkpt>
      <trkpt lat="49.16344" lon="4.04972">
        <ele>170.2</ele>
        <time>2026-08-24T13:52:46Z</time>
      </trkpt>
      <trkpt lat="49.16345" lon="4.04964">
        <ele>170.2</ele>
        <time>2026-08-24T13:52:47Z</time>
      </trkpt>
      <trkpt lat="49.16347" lon="4.04955">
        <ele>170</ele>
        <time>2026-08-24T13:52:48Z</time>
      </trkpt>
      <trkpt lat="49.16348" lon="4.04947">
        <ele>170</ele>
        <time>2026-08-24T13:52:49Z</time>
      </trkpt>
      <trkpt lat="49.16349" lon="4.04937">
        <ele>170</ele>
        <time>2026-08-24T13:52:50Z</time>
      </trkpt>
      <trkpt lat="49.16351" lon="4.04927">
        <ele>170</ele>
        <time>2026-08-24T13:52:51Z</time>
      </trkpt>
      <trkpt lat="49.16352" lon="4.04917">
        <ele>169.8</ele>
        <time>2026-08-24T13:52:52Z</time>
      </trkpt>
      <trkpt lat="49.16353" lon="4.04906">
        <ele>169.6</ele>
        <time>2026-08-24T13:52:53Z</time>
      </trkpt>
      <trkpt lat="49.16354" lon="4.04894">
        <ele>169.2</ele>
        <time>2026-08-24T13:52:54Z</time>
      </trkpt>
      <trkpt lat="49.16355" lon="4.04882">
        <ele>168.8</ele>
        <time>2026-08-24T13:52:55Z</time>
      </trkpt>
      <trkpt lat="49.16356" lon="4.0487">
        <ele>168.2</ele>
        <time>2026-08-24T13:52:56Z</time>
      </trkpt>
      <trkpt lat="49.16358" lon="4.04857">
        <ele>167.6</ele>
        <time>2026-08-24T13:52:57Z</time>
      </trkpt>
      <trkpt lat="49.16359" lon="4.04844">
        <ele>167</ele>
        <time>2026-08-24T13:52:58Z</time>
      </trkpt>
      <trkpt lat="49.1636" lon="4.04831">
        <ele>166.4</ele>
        <time>2026-08-24T13:52:59Z</time>
      </trkpt>
      <trkpt lat="49.16362" lon="4.04818">
        <ele>166</ele>
        <time>2026-08-24T13:53:00Z</time>
      </trkpt>
      <trkpt lat="49.16362" lon="4.04805">
        <ele>165.6</ele>
        <time>2026-08-24T13:53:01Z</time>
      </trkpt>
      <trkpt lat="49.16363" lon="4.04792">
        <ele>165.2</ele>
        <time>2026-08-24T13:53:02Z</time>
      </trkpt>
      <trkpt lat="49.16363" lon="4.04779">
        <ele>165</ele>
        <time>2026-08-24T13:53:03Z</time>
      </trkpt>
      <trkpt lat="49.16362" lon="4.04766">
        <ele>164.8</ele>
        <time>2026-08-24T13:53:04Z</time>
      </trkpt>
      <trkpt lat="49.16361" lon="4.04754">
        <ele>164.8</ele>
        <time>2026-08-24T13:53:05Z</time>
      </trkpt>
      <trkpt lat="49.1636" lon="4.04743">
        <ele>164.6</ele>
        <time>2026-08-24T13:53:06Z</time>
      </trkpt>
      <trkpt lat="49.16359" lon="4.04731">
        <ele>164.8</ele>
        <time>2026-08-24T13:53:07Z</time>
      </trkpt>
      <trkpt lat="49.16358" lon="4.04721">
        <ele>165.2</ele>
        <time>2026-08-24T13:53:08Z</time>
      </trkpt>
      <trkpt lat="49.16357" lon="4.04711">
        <ele>165.4</ele>
        <time>2026-08-24T13:53:09Z</time>
      </trkpt>
      <trkpt lat="49.16356" lon="4.04701">
        <ele>165.6</ele>
        <time>2026-08-24T13:53:10Z</time>
      </trkpt>
      <trkpt lat="49.16355" lon="4.04692">
        <ele>166.2</ele>
        <time>2026-08-24T13:53:11Z</time>
      </trkpt>
      <trkpt lat="49.16354" lon="4.04683">
        <ele>166.6</ele>
        <time>2026-08-24T13:53:12Z</time>
      </trkpt>
      <trkpt lat="49.16354" lon="4.04675">
        <ele>167</ele>
        <time>2026-08-24T13:53:13Z</time>
      </trkpt>
      <trkpt lat="49.16353" lon="4.04667">
        <ele>167.2</ele>
        <time>2026-08-24T13:53:14Z</time>
      </trkpt>
      <trkpt lat="49.16353" lon="4.04659">
        <ele>167.6</ele>
        <time>2026-08-24T13:53:15Z</time>
      </trkpt>
      <trkpt lat="49.16353" lon="4.04651">
        <ele>167.8</ele>
        <time>2026-08-24T13:53:16Z</time>
      </trkpt>
      <trkpt lat="49.16353" lon="4.04642">
        <ele>168</ele>
        <time>2026-08-24T13:53:17Z</time>
      </trkpt>
      <trkpt lat="49.16354" lon="4.04635">
        <ele>168.2</ele>
        <time>2026-08-24T13:53:18Z</time>
      </trkpt>
      <trkpt lat="49.16354" lon="4.04627">
        <ele>168.6</ele>
        <time>2026-08-24T13:53:19Z</time>
      </trkpt>
      <trkpt lat="49.16354" lon="4.04619">
        <ele>168.6</ele>
        <time>2026-08-24T13:53:20Z</time>
      </trkpt>
      <trkpt lat="49.16355" lon="4.04613">
        <ele>168.8</ele>
        <time>2026-08-24T13:53:21Z</time>
      </trkpt>
      <trkpt lat="49.16355" lon="4.04607">
        <ele>168.8</ele>
        <time>2026-08-24T13:53:22Z</time>
      </trkpt>
      <trkpt lat="49.16355" lon="4.04601">
        <ele>169</ele>
        <time>2026-08-24T13:53:23Z</time>
      </trkpt>
      <trkpt lat="49.16355" lon="4.04596">
        <ele>169.2</ele>
        <time>2026-08-24T13:53:24Z</time>
      </trkpt>
      <trkpt lat="49.16355" lon="4.0459">
        <ele>169.4</ele>
        <time>2026-08-24T13:53:25Z</time>
      </trkpt>
      <trkpt lat="49.16355" lon="4.04585">
        <ele>169.6</ele>
        <time>2026-08-24T13:53:26Z</time>
      </trkpt>
      <trkpt lat="49.16356" lon="4.04579">
        <ele>169.6</ele>
        <time>2026-08-24T13:53:27Z</time>
      </trkpt>
      <trkpt lat="49.16356" lon="4.04573">
        <ele>169.8</ele>
        <time>2026-08-24T13:53:28Z</time>
      </trkpt>
      <trkpt lat="49.16356" lon="4.04566">
        <ele>169.8</ele>
        <time>2026-08-24T13:53:29Z</time>
      </trkpt>
      <trkpt lat="49.16357" lon="4.0456">
        <ele>169.8</ele>
        <time>2026-08-24T13:53:30Z</time>
      </trkpt>
      <trkpt lat="49.16357" lon="4.04553">
        <ele>169.8</ele>
        <time>2026-08-24T13:53:31Z</time>
      </trkpt>
      <trkpt lat="49.16357" lon="4.04546">
        <ele>170</ele>
        <time>2026-08-24T13:53:32Z</time>
      </trkpt>
      <trkpt lat="49.16357" lon="4.0454">
        <ele>170</ele>
        <time>2026-08-24T13:53:33Z</time>
      </trkpt>
      <trkpt lat="49.16358" lon="4.04534">
        <ele>170.2</ele>
        <time>2026-08-24T13:53:34Z</time>
      </trkpt>
      <trkpt lat="49.16358" lon="4.04528">
        <ele>170.4</ele>
        <time>2026-08-24T13:53:35Z</time>
      </trkpt>
      <trkpt lat="49.16358" lon="4.04523">
        <ele>170.4</ele>
        <time>2026-08-24T13:53:36Z</time>
      </trkpt>
      <trkpt lat="49.16359" lon="4.04518">
        <ele>170.4</ele>
        <time>2026-08-24T13:53:37Z</time>
      </trkpt>
      <trkpt lat="49.16359" lon="4.04512">
        <ele>170.6</ele>
        <time>2026-08-24T13:53:38Z</time>
      </trkpt>
      <trkpt lat="49.16359" lon="4.04506">
        <ele>170.6</ele>
        <time>2026-08-24T13:53:39Z</time>
      </trkpt>
      <trkpt lat="49.16359" lon="4.045">
        <ele>170.6</ele>
        <time>2026-08-24T13:53:40Z</time>
      </trkpt>
      <trkpt lat="49.16358" lon="4.04493">
        <ele>170.6</ele>
        <time>2026-08-24T13:53:41Z</time>
      </trkpt>
      <trkpt lat="49.16358" lon="4.04485">
        <ele>170.4</ele>
        <time>2026-08-24T13:53:42Z</time>
      </trkpt>
      <trkpt lat="49.16358" lon="4.04477">
        <ele>170.2</ele>
        <time>2026-08-24T13:53:43Z</time>
      </trkpt>
      <trkpt lat="49.16358" lon="4.04469">
        <ele>170</ele>
        <time>2026-08-24T13:53:44Z</time>
      </trkpt>
      <trkpt lat="49.16358" lon="4.04461">
        <ele>169.8</ele>
        <time>2026-08-24T13:53:45Z</time>
      </trkpt>
      <trkpt lat="49.16358" lon="4.04453">
        <ele>169.6</ele>
        <time>2026-08-24T13:53:46Z</time>
      </trkpt>
      <trkpt lat="49.16357" lon="4.04446">
        <ele>169.4</ele>
        <time>2026-08-24T13:53:47Z</time>
      </trkpt>
      <trkpt lat="49.16357" lon="4.0444">
        <ele>169.2</ele>
        <time>2026-08-24T13:53:48Z</time>
      </trkpt>
      <trkpt lat="49.16357" lon="4.04434">
        <ele>169</ele>
        <time>2026-08-24T13:53:49Z</time>
      </trkpt>
      <trkpt lat="49.16357" lon="4.04428">
        <ele>169</ele>
        <time>2026-08-24T13:53:50Z</time>
      </trkpt>
      <trkpt lat="49.16358" lon="4.04423">
        <ele>169</ele>
        <time>2026-08-24T13:53:51Z</time>
      </trkpt>
      <trkpt lat="49.16358" lon="4.04418">
        <ele>169</ele>
        <time>2026-08-24T13:53:52Z</time>
      </trkpt>
      <trkpt lat="49.16359" lon="4.04412">
        <ele>168.8</ele>
        <time>2026-08-24T13:53:53Z</time>
      </trkpt>
      <trkpt lat="49.16359" lon="4.04405">
        <ele>168.8</ele>
        <time>2026-08-24T13:53:54Z</time>
      </trkpt>
      <trkpt lat="49.16359" lon="4.04398">
        <ele>168.8</ele>
        <time>2026-08-24T13:53:55Z</time>
      </trkpt>
      <trkpt lat="49.16359" lon="4.04391">
        <ele>168.6</ele>
        <time>2026-08-24T13:53:56Z</time>
      </trkpt>
      <trkpt lat="49.16359" lon="4.04383">
        <ele>168.6</ele>
        <time>2026-08-24T13:53:57Z</time>
      </trkpt>
      <trkpt lat="49.16359" lon="4.04375">
        <ele>168.6</ele>
        <time>2026-08-24T13:53:58Z</time>
      </trkpt>
      <trkpt lat="49.16359" lon="4.04367">
        <ele>168.4</ele>
        <time>2026-08-24T13:53:59Z</time>
      </trkpt>
      <trkpt lat="49.16358" lon="4.04359">
        <ele>168.4</ele>
        <time>2026-08-24T13:54:00Z</time>
      </trkpt>
      <trkpt lat="49.16358" lon="4.04351">
        <ele>168.4</ele>
        <time>2026-08-24T13:54:01Z</time>
      </trkpt>
      <trkpt lat="49.16357" lon="4.04343">
        <ele>168.6</ele>
        <time>2026-08-24T13:54:02Z</time>
      </trkpt>
      <trkpt lat="49.16355" lon="4.04335">
        <ele>168.6</ele>
        <time>2026-08-24T13:54:03Z</time>
      </trkpt>
      <trkpt lat="49.16354" lon="4.04327">
        <ele>168.8</ele>
        <time>2026-08-24T13:54:04Z</time>
      </trkpt>
      <trkpt lat="49.16351" lon="4.04319">
        <ele>168.8</ele>
        <time>2026-08-24T13:54:05Z</time>
      </trkpt>
      <trkpt lat="49.16349" lon="4.04312">
        <ele>169</ele>
        <time>2026-08-24T13:54:06Z</time>
      </trkpt>
      <trkpt lat="49.16346" lon="4.04306">
        <ele>169.2</ele>
        <time>2026-08-24T13:54:07Z</time>
      </trkpt>
      <trkpt lat="49.16343" lon="4.04299">
        <ele>169.4</ele>
        <time>2026-08-24T13:54:08Z</time>
      </trkpt>
      <trkpt lat="49.1634" lon="4.04293">
        <ele>169.6</ele>
        <time>2026-08-24T13:54:09Z</time>
      </trkpt>
      <trkpt lat="49.16336" lon="4.04287">
        <ele>169.8</ele>
        <time>2026-08-24T13:54:10Z</time>
      </trkpt>
      <trkpt lat="49.16333" lon="4.04282">
        <ele>170.2</ele>
        <time>2026-08-24T13:54:11Z</time>
      </trkpt>
      <trkpt lat="49.1633" lon="4.04276">
        <ele>170.6</ele>
        <time>2026-08-24T13:54:12Z</time>
      </trkpt>
      <trkpt lat="49.16327" lon="4.04271">
        <ele>170.8</ele>
        <time>2026-08-24T13:54:13Z</time>
      </trkpt>
      <trkpt lat="49.16323" lon="4.04265">
        <ele>171</ele>
        <time>2026-08-24T13:54:14Z</time>
      </trkpt>
      <trkpt lat="49.1632" lon="4.0426">
        <ele>171</ele>
        <time>2026-08-24T13:54:15Z</time>
      </trkpt>
      <trkpt lat="49.16317" lon="4.04254">
        <ele>171.4</ele>
        <time>2026-08-24T13:54:16Z</time>
      </trkpt>
      <trkpt lat="49.16314" lon="4.04249">
        <ele>171.8</ele>
        <time>2026-08-24T13:54:17Z</time>
      </trkpt>
      <trkpt lat="49.16311" lon="4.04243">
        <ele>172.2</ele>
        <time>2026-08-24T13:54:18Z</time>
      </trkpt>
      <trkpt lat="49.16309" lon="4.04238">
        <ele>172.6</ele>
        <time>2026-08-24T13:54:19Z</time>
      </trkpt>
      <trkpt lat="49.16306" lon="4.04233">
        <ele>172.6</ele>
        <time>2026-08-24T13:54:20Z</time>
      </trkpt>
      <trkpt lat="49.16304" lon="4.04228">
        <ele>172.6</ele>
        <time>2026-08-24T13:54:21Z</time>
      </trkpt>
      <trkpt lat="49.16301" lon="4.04223">
        <ele>172.8</ele>
        <time>2026-08-24T13:54:22Z</time>
      </trkpt>
      <trkpt lat="49.16299" lon="4.04218">
        <ele>173</ele>
        <time>2026-08-24T13:54:23Z</time>
      </trkpt>
      <trkpt lat="49.16297" lon="4.04213">
        <ele>173.2</ele>
        <time>2026-08-24T13:54:24Z</time>
      </trkpt>
      <trkpt lat="49.16295" lon="4.04208">
        <ele>173.6</ele>
        <time>2026-08-24T13:54:25Z</time>
      </trkpt>
      <trkpt lat="49.16293" lon="4.04203">
        <ele>174</ele>
        <time>2026-08-24T13:54:26Z</time>
      </trkpt>
      <trkpt lat="49.16291" lon="4.04198">
        <ele>174.4</ele>
        <time>2026-08-24T13:54:27Z</time>
      </trkpt>
      <trkpt lat="49.16289" lon="4.04192">
        <ele>174.6</ele>
        <time>2026-08-24T13:54:28Z</time>
      </trkpt>
      <trkpt lat="49.16287" lon="4.04187">
        <ele>174.8</ele>
        <time>2026-08-24T13:54:29Z</time>
      </trkpt>
      <trkpt lat="49.16286" lon="4.04181">
        <ele>174.8</ele>
        <time>2026-08-24T13:54:30Z</time>
      </trkpt>
      <trkpt lat="49.16284" lon="4.04176">
        <ele>175.2</ele>
        <time>2026-08-24T13:54:31Z</time>
      </trkpt>
      <trkpt lat="49.16282" lon="4.0417">
        <ele>175.2</ele>
        <time>2026-08-24T13:54:32Z</time>
      </trkpt>
      <trkpt lat="49.16281" lon="4.04164">
        <ele>175.4</ele>
        <time>2026-08-24T13:54:33Z</time>
      </trkpt>
      <trkpt lat="49.1628" lon="4.04158">
        <ele>175.6</ele>
        <time>2026-08-24T13:54:34Z</time>
      </trkpt>
      <trkpt lat="49.16279" lon="4.04151">
        <ele>176</ele>
        <time>2026-08-24T13:54:35Z</time>
      </trkpt>
      <trkpt lat="49.16278" lon="4.04146">
        <ele>176</ele>
        <time>2026-08-24T13:54:36Z</time>
      </trkpt>
      <trkpt lat="49.16277" lon="4.0414">
        <ele>176</ele>
        <time>2026-08-24T13:54:37Z</time>
      </trkpt>
      <trkpt lat="49.16276" lon="4.04134">
        <ele>176</ele>
        <time>2026-08-24T13:54:38Z</time>
      </trkpt>
      <trkpt lat="49.16275" lon="4.04128">
        <ele>176.4</ele>
        <time>2026-08-24T13:54:39Z</time>
      </trkpt>
      <trkpt lat="49.16274" lon="4.04122">
        <ele>176.6</ele>
        <time>2026-08-24T13:54:40Z</time>
      </trkpt>
      <trkpt lat="49.16273" lon="4.04116">
        <ele>176.8</ele>
        <time>2026-08-24T13:54:41Z</time>
      </trkpt>
      <trkpt lat="49.16273" lon="4.04111">
        <ele>177</ele>
        <time>2026-08-24T13:54:42Z</time>
      </trkpt>
      <trkpt lat="49.16273" lon="4.04105">
        <ele>177.2</ele>
        <time>2026-08-24T13:54:43Z</time>
      </trkpt>
      <trkpt lat="49.16272" lon="4.041">
        <ele>177.4</ele>
        <time>2026-08-24T13:54:44Z</time>
      </trkpt>
      <trkpt lat="49.16272" lon="4.04095">
        <ele>177.6</ele>
        <time>2026-08-24T13:54:45Z</time>
      </trkpt>
      <trkpt lat="49.16272" lon="4.0409">
        <ele>178</ele>
        <time>2026-08-24T13:54:46Z</time>
      </trkpt>
      <trkpt lat="49.16272" lon="4.04085">
        <ele>178.2</ele>
        <time>2026-08-24T13:54:47Z</time>
      </trkpt>
      <trkpt lat="49.16272" lon="4.0408">
        <ele>178.4</ele>
        <time>2026-08-24T13:54:48Z</time>
      </trkpt>
      <trkpt lat="49.16272" lon="4.04077">
        <ele>178.6</ele>
        <time>2026-08-24T13:54:49Z</time>
      </trkpt>
      <trkpt lat="49.16272" lon="4.04071">
        <ele>179</ele>
        <time>2026-08-24T13:54:50Z</time>
      </trkpt>
      <trkpt lat="49.16273" lon="4.04066">
        <ele>179.2</ele>
        <time>2026-08-24T13:54:51Z</time>
      </trkpt>
      <trkpt lat="49.16273" lon="4.04062">
        <ele>179.4</ele>
        <time>2026-08-24T13:54:52Z</time>
      </trkpt>
      <trkpt lat="49.16273" lon="4.04057">
        <ele>179.6</ele>
        <time>2026-08-24T13:54:53Z</time>
      </trkpt>
      <trkpt lat="49.16273" lon="4.04052">
        <ele>179.8</ele>
        <time>2026-08-24T13:54:54Z</time>
      </trkpt>
      <trkpt lat="49.16274" lon="4.04047">
        <ele>180</ele>
        <time>2026-08-24T13:54:55Z</time>
      </trkpt>
      <trkpt lat="49.16274" lon="4.04042">
        <ele>180.2</ele>
        <time>2026-08-24T13:54:56Z</time>
      </trkpt>
      <trkpt lat="49.16275" lon="4.04038">
        <ele>180.4</ele>
        <time>2026-08-24T13:54:57Z</time>
      </trkpt>
      <trkpt lat="49.16275" lon="4.04033">
        <ele>180.6</ele>
        <time>2026-08-24T13:54:58Z</time>
      </trkpt>
      <trkpt lat="49.16276" lon="4.04029">
        <ele>180.8</ele>
        <time>2026-08-24T13:54:59Z</time>
      </trkpt>
      <trkpt lat="49.16276" lon="4.04024">
        <ele>180.8</ele>
        <time>2026-08-24T13:55:00Z</time>
      </trkpt>
      <trkpt lat="49.16277" lon="4.0402">
        <ele>180.8</ele>
        <time>2026-08-24T13:55:01Z</time>
      </trkpt>
      <trkpt lat="49.16278" lon="4.04015">
        <ele>181</ele>
        <time>2026-08-24T13:55:02Z</time>
      </trkpt>
      <trkpt lat="49.16279" lon="4.04011">
        <ele>181.4</ele>
        <time>2026-08-24T13:55:03Z</time>
      </trkpt>
      <trkpt lat="49.1628" lon="4.04007">
        <ele>181.4</ele>
        <time>2026-08-24T13:55:04Z</time>
      </trkpt>
      <trkpt lat="49.16281" lon="4.04002">
        <ele>181.6</ele>
        <time>2026-08-24T13:55:05Z</time>
      </trkpt>
      <trkpt lat="49.16282" lon="4.03998">
        <ele>182</ele>
        <time>2026-08-24T13:55:06Z</time>
      </trkpt>
      <trkpt lat="49.16283" lon="4.03993">
        <ele>182.2</ele>
        <time>2026-08-24T13:55:07Z</time>
      </trkpt>
      <trkpt lat="49.16284" lon="4.03989">
        <ele>182.4</ele>
        <time>2026-08-24T13:55:08Z</time>
      </trkpt>
      <trkpt lat="49.16285" lon="4.03985">
        <ele>182.6</ele>
        <time>2026-08-24T13:55:09Z</time>
      </trkpt>
      <trkpt lat="49.16286" lon="4.03981">
        <ele>183</ele>
        <time>2026-08-24T13:55:10Z</time>
      </trkpt>
      <trkpt lat="49.16287" lon="4.03977">
        <ele>183.4</ele>
        <time>2026-08-24T13:55:11Z</time>
      </trkpt>
      <trkpt lat="49.16288" lon="4.03972">
        <ele>183.8</ele>
        <time>2026-08-24T13:55:12Z</time>
      </trkpt>
      <trkpt lat="49.16289" lon="4.03968">
        <ele>183.8</ele>
        <time>2026-08-24T13:55:13Z</time>
      </trkpt>
      <trkpt lat="49.1629" lon="4.03964">
        <ele>184</ele>
        <time>2026-08-24T13:55:14Z</time>
      </trkpt>
      <trkpt lat="49.16291" lon="4.0396">
        <ele>184.2</ele>
        <time>2026-08-24T13:55:15Z</time>
      </trkpt>
      <trkpt lat="49.16293" lon="4.03956">
        <ele>184.4</ele>
        <time>2026-08-24T13:55:16Z</time>
      </trkpt>
      <trkpt lat="49.16294" lon="4.03952">
        <ele>184.6</ele>
        <time>2026-08-24T13:55:17Z</time>
      </trkpt>
      <trkpt lat="49.16295" lon="4.03948">
        <ele>185</ele>
        <time>2026-08-24T13:55:18Z</time>
      </trkpt>
      <trkpt lat="49.16297" lon="4.03944">
        <ele>185.2</ele>
        <time>2026-08-24T13:55:19Z</time>
      </trkpt>
      <trkpt lat="49.16298" lon="4.03941">
        <ele>185.4</ele>
        <time>2026-08-24T13:55:20Z</time>
      </trkpt>
      <trkpt lat="49.163" lon="4.03937">
        <ele>185.6</ele>
        <time>2026-08-24T13:55:21Z</time>
      </trkpt>
      <trkpt lat="49.16302" lon="4.03933">
        <ele>185.8</ele>
        <time>2026-08-24T13:55:22Z</time>
      </trkpt>
      <trkpt lat="49.16303" lon="4.03929">
        <ele>186</ele>
        <time>2026-08-24T13:55:23Z</time>
      </trkpt>
      <trkpt lat="49.16305" lon="4.03925">
        <ele>186</ele>
        <time>2026-08-24T13:55:24Z</time>
      </trkpt>
      <trkpt lat="49.16307" lon="4.03921">
        <ele>186.2</ele>
        <time>2026-08-24T13:55:25Z</time>
      </trkpt>
      <trkpt lat="49.16308" lon="4.03917">
        <ele>186.2</ele>
        <time>2026-08-24T13:55:26Z</time>
      </trkpt>
      <trkpt lat="49.1631" lon="4.03914">
        <ele>186.4</ele>
        <time>2026-08-24T13:55:27Z</time>
      </trkpt>
      <trkpt lat="49.16312" lon="4.0391">
        <ele>186.6</ele>
        <time>2026-08-24T13:55:28Z</time>
      </trkpt>
      <trkpt lat="49.16314" lon="4.03907">
        <ele>186.6</ele>
        <time>2026-08-24T13:55:29Z</time>
      </trkpt>
      <trkpt lat="49.16316" lon="4.03903">
        <ele>186.8</ele>
        <time>2026-08-24T13:55:30Z</time>
      </trkpt>
      <trkpt lat="49.16318" lon="4.03899">
        <ele>187</ele>
        <time>2026-08-24T13:55:31Z</time>
      </trkpt>
      <trkpt lat="49.1632" lon="4.03895">
        <ele>187</ele>
        <time>2026-08-24T13:55:32Z</time>
      </trkpt>
      <trkpt lat="49.16322" lon="4.03892">
        <ele>187.2</ele>
        <time>2026-08-24T13:55:33Z</time>
      </trkpt>
      <trkpt lat="49.16324" lon="4.03889">
        <ele>187.2</ele>
        <time>2026-08-24T13:55:34Z</time>
      </trkpt>
      <trkpt lat="49.16326" lon="4.03885">
        <ele>187.4</ele>
        <time>2026-08-24T13:55:35Z</time>
      </trkpt>
      <trkpt lat="49.16328" lon="4.03882">
        <ele>187.6</ele>
        <time>2026-08-24T13:55:36Z</time>
      </trkpt>
      <trkpt lat="49.1633" lon="4.03878">
        <ele>187.8</ele>
        <time>2026-08-24T13:55:37Z</time>
      </trkpt>
      <trkpt lat="49.16332" lon="4.03875">
        <ele>188</ele>
        <time>2026-08-24T13:55:38Z</time>
      </trkpt>
      <trkpt lat="49.16334" lon="4.03872">
        <ele>188</ele>
        <time>2026-08-24T13:55:39Z</time>
      </trkpt>
      <trkpt lat="49.16337" lon="4.03868">
        <ele>188.2</ele>
        <time>2026-08-24T13:55:40Z</time>
      </trkpt>
      <trkpt lat="49.16339" lon="4.03864">
        <ele>188.2</ele>
        <time>2026-08-24T13:55:41Z</time>
      </trkpt>
      <trkpt lat="49.16341" lon="4.0386">
        <ele>188.4</ele>
        <time>2026-08-24T13:55:42Z</time>
      </trkpt>
      <trkpt lat="49.16343" lon="4.03856">
        <ele>188.6</ele>
        <time>2026-08-24T13:55:43Z</time>
      </trkpt>
      <trkpt lat="49.16346" lon="4.03852">
        <ele>188.6</ele>
        <time>2026-08-24T13:55:44Z</time>
      </trkpt>
      <trkpt lat="49.16348" lon="4.03849">
        <ele>188.8</ele>
        <time>2026-08-24T13:55:45Z</time>
      </trkpt>
      <trkpt lat="49.16351" lon="4.03845">
        <ele>188.8</ele>
        <time>2026-08-24T13:55:46Z</time>
      </trkpt>
      <trkpt lat="49.16354" lon="4.03842">
        <ele>188.8</ele>
        <time>2026-08-24T13:55:47Z</time>
      </trkpt>
      <trkpt lat="49.16356" lon="4.03838">
        <ele>188.8</ele>
        <time>2026-08-24T13:55:48Z</time>
      </trkpt>
      <trkpt lat="49.16359" lon="4.03834">
        <ele>189</ele>
        <time>2026-08-24T13:55:49Z</time>
      </trkpt>
      <trkpt lat="49.16361" lon="4.0383">
        <ele>189.2</ele>
        <time>2026-08-24T13:55:50Z</time>
      </trkpt>
      <trkpt lat="49.16364" lon="4.03825">
        <ele>189.2</ele>
        <time>2026-08-24T13:55:51Z</time>
      </trkpt>
      <trkpt lat="49.16367" lon="4.03821">
        <ele>189.4</ele>
        <time>2026-08-24T13:55:52Z</time>
      </trkpt>
      <trkpt lat="49.1637" lon="4.03816">
        <ele>189.6</ele>
        <time>2026-08-24T13:55:53Z</time>
      </trkpt>
      <trkpt lat="49.16372" lon="4.03811">
        <ele>189.8</ele>
        <time>2026-08-24T13:55:54Z</time>
      </trkpt>
      <trkpt lat="49.16375" lon="4.03806">
        <ele>189.8</ele>
        <time>2026-08-24T13:55:55Z</time>
      </trkpt>
      <trkpt lat="49.16378" lon="4.03801">
        <ele>190</ele>
        <time>2026-08-24T13:55:56Z</time>
      </trkpt>
      <trkpt lat="49.16382" lon="4.03796">
        <ele>190.2</ele>
        <time>2026-08-24T13:55:57Z</time>
      </trkpt>
      <trkpt lat="49.16385" lon="4.0379">
        <ele>190.2</ele>
        <time>2026-08-24T13:55:58Z</time>
      </trkpt>
      <trkpt lat="49.16388" lon="4.03784">
        <ele>190.4</ele>
        <time>2026-08-24T13:55:59Z</time>
      </trkpt>
      <trkpt lat="49.1639" lon="4.03778">
        <ele>190.4</ele>
        <time>2026-08-24T13:56:00Z</time>
      </trkpt>
      <trkpt lat="49.16393" lon="4.03772">
        <ele>190.4</ele>
        <time>2026-08-24T13:56:01Z</time>
      </trkpt>
      <trkpt lat="49.16396" lon="4.03766">
        <ele>190.4</ele>
        <time>2026-08-24T13:56:02Z</time>
      </trkpt>
      <trkpt lat="49.16399" lon="4.03759">
        <ele>190.6</ele>
        <time>2026-08-24T13:56:03Z</time>
      </trkpt>
      <trkpt lat="49.16402" lon="4.03752">
        <ele>190.6</ele>
        <time>2026-08-24T13:56:04Z</time>
      </trkpt>
      <trkpt lat="49.16404" lon="4.03744">
        <ele>190.6</ele>
        <time>2026-08-24T13:56:05Z</time>
      </trkpt>
      <trkpt lat="49.16407" lon="4.03737">
        <ele>190.8</ele>
        <time>2026-08-24T13:56:06Z</time>
      </trkpt>
      <trkpt lat="49.16409" lon="4.03729">
        <ele>190.8</ele>
        <time>2026-08-24T13:56:07Z</time>
      </trkpt>
      <trkpt lat="49.16412" lon="4.0372">
        <ele>191</ele>
        <time>2026-08-24T13:56:08Z</time>
      </trkpt>
      <trkpt lat="49.16414" lon="4.03712">
        <ele>191</ele>
        <time>2026-08-24T13:56:09Z</time>
      </trkpt>
      <trkpt lat="49.16416" lon="4.03703">
        <ele>191.2</ele>
        <time>2026-08-24T13:56:10Z</time>
      </trkpt>
      <trkpt lat="49.16418" lon="4.03694">
        <ele>191.2</ele>
        <time>2026-08-24T13:56:11Z</time>
      </trkpt>
      <trkpt lat="49.1642" lon="4.03685">
        <ele>191.2</ele>
        <time>2026-08-24T13:56:12Z</time>
      </trkpt>
      <trkpt lat="49.16422" lon="4.03675">
        <ele>191.2</ele>
        <time>2026-08-24T13:56:13Z</time>
      </trkpt>
      <trkpt lat="49.16423" lon="4.03666">
        <ele>191.2</ele>
        <time>2026-08-24T13:56:14Z</time>
      </trkpt>
      <trkpt lat="49.16425" lon="4.03656">
        <ele>191.2</ele>
        <time>2026-08-24T13:56:15Z</time>
      </trkpt>
      <trkpt lat="49.16426" lon="4.03645">
        <ele>191.2</ele>
        <time>2026-08-24T13:56:16Z</time>
      </trkpt>
      <trkpt lat="49.16428" lon="4.03635">
        <ele>191</ele>
        <time>2026-08-24T13:56:17Z</time>
      </trkpt>
      <trkpt lat="49.16429" lon="4.03624">
        <ele>191</ele>
        <time>2026-08-24T13:56:18Z</time>
      </trkpt>
      <trkpt lat="49.16431" lon="4.03614">
        <ele>191</ele>
        <time>2026-08-24T13:56:19Z</time>
      </trkpt>
      <trkpt lat="49.16433" lon="4.03603">
        <ele>191</ele>
        <time>2026-08-24T13:56:20Z</time>
      </trkpt>
      <trkpt lat="49.16435" lon="4.03592">
        <ele>190.8</ele>
        <time>2026-08-24T13:56:21Z</time>
      </trkpt>
      <trkpt lat="49.16436" lon="4.0358">
        <ele>190.8</ele>
        <time>2026-08-24T13:56:22Z</time>
      </trkpt>
      <trkpt lat="49.16438" lon="4.03569">
        <ele>190.8</ele>
        <time>2026-08-24T13:56:23Z</time>
      </trkpt>
      <trkpt lat="49.1644" lon="4.03557">
        <ele>190.6</ele>
        <time>2026-08-24T13:56:24Z</time>
      </trkpt>
      <trkpt lat="49.16442" lon="4.03545">
        <ele>190.4</ele>
        <time>2026-08-24T13:56:25Z</time>
      </trkpt>
      <trkpt lat="49.16444" lon="4.03533">
        <ele>190.2</ele>
        <time>2026-08-24T13:56:26Z</time>
      </trkpt>
      <trkpt lat="49.16447" lon="4.0352">
        <ele>189.8</ele>
        <time>2026-08-24T13:56:27Z</time>
      </trkpt>
      <trkpt lat="49.1645" lon="4.03507">
        <ele>189.4</ele>
        <time>2026-08-24T13:56:28Z</time>
      </trkpt>
      <trkpt lat="49.16454" lon="4.03494">
        <ele>188.8</ele>
        <time>2026-08-24T13:56:29Z</time>
      </trkpt>
      <trkpt lat="49.16458" lon="4.03482">
        <ele>188.4</ele>
        <time>2026-08-24T13:56:30Z</time>
      </trkpt>
      <trkpt lat="49.16462" lon="4.03469">
        <ele>188</ele>
        <time>2026-08-24T13:56:31Z</time>
      </trkpt>
      <trkpt lat="49.16466" lon="4.03458">
        <ele>187.6</ele>
        <time>2026-08-24T13:56:32Z</time>
      </trkpt>
      <trkpt lat="49.1647" lon="4.03446">
        <ele>187.6</ele>
        <time>2026-08-24T13:56:33Z</time>
      </trkpt>
      <trkpt lat="49.16474" lon="4.03435">
        <ele>187.4</ele>
        <time>2026-08-24T13:56:34Z</time>
      </trkpt>
      <trkpt lat="49.16478" lon="4.03425">
        <ele>187.4</ele>
        <time>2026-08-24T13:56:35Z</time>
      </trkpt>
      <trkpt lat="49.16482" lon="4.03415">
        <ele>187.4</ele>
        <time>2026-08-24T13:56:36Z</time>
      </trkpt>
      <trkpt lat="49.16486" lon="4.03406">
        <ele>187.4</ele>
        <time>2026-08-24T13:56:37Z</time>
      </trkpt>
      <trkpt lat="49.1649" lon="4.03397">
        <ele>187.6</ele>
        <time>2026-08-24T13:56:38Z</time>
      </trkpt>
      <trkpt lat="49.16494" lon="4.03389">
        <ele>188</ele>
        <time>2026-08-24T13:56:39Z</time>
      </trkpt>
      <trkpt lat="49.16498" lon="4.03382">
        <ele>188.2</ele>
        <time>2026-08-24T13:56:40Z</time>
      </trkpt>
      <trkpt lat="49.16502" lon="4.03374">
        <ele>188.6</ele>
        <time>2026-08-24T13:56:41Z</time>
      </trkpt>
      <trkpt lat="49.16506" lon="4.03367">
        <ele>188.8</ele>
        <time>2026-08-24T13:56:42Z</time>
      </trkpt>
      <trkpt lat="49.16509" lon="4.03361">
        <ele>189</ele>
        <time>2026-08-24T13:56:43Z</time>
      </trkpt>
      <trkpt lat="49.16513" lon="4.03355">
        <ele>189.2</ele>
        <time>2026-08-24T13:56:44Z</time>
      </trkpt>
      <trkpt lat="49.16516" lon="4.03349">
        <ele>189.4</ele>
        <time>2026-08-24T13:56:45Z</time>
      </trkpt>
      <trkpt lat="49.1652" lon="4.03343">
        <ele>189.6</ele>
        <time>2026-08-24T13:56:46Z</time>
      </trkpt>
      <trkpt lat="49.16523" lon="4.03337">
        <ele>190</ele>
        <time>2026-08-24T13:56:47Z</time>
      </trkpt>
      <trkpt lat="49.16526" lon="4.03331">
        <ele>190.2</ele>
        <time>2026-08-24T13:56:48Z</time>
      </trkpt>
      <trkpt lat="49.1653" lon="4.03324">
        <ele>190.6</ele>
        <time>2026-08-24T13:56:49Z</time>
      </trkpt>
      <trkpt lat="49.16532" lon="4.03318">
        <ele>191</ele>
        <time>2026-08-24T13:56:50Z</time>
      </trkpt>
      <trkpt lat="49.16535" lon="4.03312">
        <ele>191.2</ele>
        <time>2026-08-24T13:56:51Z</time>
      </trkpt>
      <trkpt lat="49.16538" lon="4.03305">
        <ele>191.4</ele>
        <time>2026-08-24T13:56:52Z</time>
      </trkpt>
      <trkpt lat="49.16541" lon="4.03299">
        <ele>191.6</ele>
        <time>2026-08-24T13:56:53Z</time>
      </trkpt>
      <trkpt lat="49.16544" lon="4.03292">
        <ele>191.6</ele>
        <time>2026-08-24T13:56:54Z</time>
      </trkpt>
      <trkpt lat="49.16547" lon="4.03285">
        <ele>191.8</ele>
        <time>2026-08-24T13:56:55Z</time>
      </trkpt>
      <trkpt lat="49.1655" lon="4.03278">
        <ele>191.8</ele>
        <time>2026-08-24T13:56:56Z</time>
      </trkpt>
      <trkpt lat="49.16553" lon="4.03271">
        <ele>192</ele>
        <time>2026-08-24T13:56:57Z</time>
      </trkpt>
      <trkpt lat="49.16555" lon="4.03265">
        <ele>192.2</ele>
        <time>2026-08-24T13:56:58Z</time>
      </trkpt>
      <trkpt lat="49.16558" lon="4.03258">
        <ele>192.4</ele>
        <time>2026-08-24T13:56:59Z</time>
      </trkpt>
      <trkpt lat="49.16561" lon="4.03251">
        <ele>192.4</ele>
        <time>2026-08-24T13:57:00Z</time>
      </trkpt>
      <trkpt lat="49.16563" lon="4.03244">
        <ele>192.6</ele>
        <time>2026-08-24T13:57:01Z</time>
      </trkpt>
      <trkpt lat="49.16566" lon="4.03237">
        <ele>192.8</ele>
        <time>2026-08-24T13:57:02Z</time>
      </trkpt>
      <trkpt lat="49.16568" lon="4.0323">
        <ele>192.8</ele>
        <time>2026-08-24T13:57:03Z</time>
      </trkpt>
      <trkpt lat="49.16571" lon="4.03223">
        <ele>192.8</ele>
        <time>2026-08-24T13:57:04Z</time>
      </trkpt>
      <trkpt lat="49.16573" lon="4.03216">
        <ele>193</ele>
        <time>2026-08-24T13:57:05Z</time>
      </trkpt>
      <trkpt lat="49.16575" lon="4.0321">
        <ele>193.4</ele>
        <time>2026-08-24T13:57:06Z</time>
      </trkpt>
      <trkpt lat="49.16578" lon="4.03203">
        <ele>193.6</ele>
        <time>2026-08-24T13:57:07Z</time>
      </trkpt>
      <trkpt lat="49.1658" lon="4.03197">
        <ele>194.2</ele>
        <time>2026-08-24T13:57:08Z</time>
      </trkpt>
      <trkpt lat="49.16582" lon="4.03191">
        <ele>194.6</ele>
        <time>2026-08-24T13:57:09Z</time>
      </trkpt>
      <trkpt lat="49.16584" lon="4.03185">
        <ele>195.2</ele>
        <time>2026-08-24T13:57:10Z</time>
      </trkpt>
      <trkpt lat="49.16587" lon="4.03179">
        <ele>195.6</ele>
        <time>2026-08-24T13:57:11Z</time>
      </trkpt>
      <trkpt lat="49.16588" lon="4.03173">
        <ele>196</ele>
        <time>2026-08-24T13:57:12Z</time>
      </trkpt>
      <trkpt lat="49.1659" lon="4.03167">
        <ele>196.4</ele>
        <time>2026-08-24T13:57:13Z</time>
      </trkpt>
      <trkpt lat="49.16592" lon="4.03161">
        <ele>196.8</ele>
        <time>2026-08-24T13:57:14Z</time>
      </trkpt>
      <trkpt lat="49.16594" lon="4.03155">
        <ele>197.2</ele>
        <time>2026-08-24T13:57:15Z</time>
      </trkpt>
      <trkpt lat="49.16595" lon="4.03149">
        <ele>197.6</ele>
        <time>2026-08-24T13:57:16Z</time>
      </trkpt>
      <trkpt lat="49.16597" lon="4.03143">
        <ele>197.8</ele>
        <time>2026-08-24T13:57:17Z</time>
      </trkpt>
      <trkpt lat="49.16599" lon="4.03137">
        <ele>198.2</ele>
        <time>2026-08-24T13:57:18Z</time>
      </trkpt>
      <trkpt lat="49.166" lon="4.03131">
        <ele>198.4</ele>
        <time>2026-08-24T13:57:19Z</time>
      </trkpt>
      <trkpt lat="49.16601" lon="4.03124">
        <ele>198.6</ele>
        <time>2026-08-24T13:57:20Z</time>
      </trkpt>
      <trkpt lat="49.16602" lon="4.03117">
        <ele>199</ele>
        <time>2026-08-24T13:57:21Z</time>
      </trkpt>
      <trkpt lat="49.16603" lon="4.0311">
        <ele>199.2</ele>
        <time>2026-08-24T13:57:22Z</time>
      </trkpt>
      <trkpt lat="49.16604" lon="4.03104">
        <ele>199.6</ele>
        <time>2026-08-24T13:57:23Z</time>
      </trkpt>
      <trkpt lat="49.16605" lon="4.03097">
        <ele>199.8</ele>
        <time>2026-08-24T13:57:24Z</time>
      </trkpt>
      <trkpt lat="49.16605" lon="4.0309">
        <ele>200</ele>
        <time>2026-08-24T13:57:25Z</time>
      </trkpt>
      <trkpt lat="49.16606" lon="4.03082">
        <ele>200.2</ele>
        <time>2026-08-24T13:57:26Z</time>
      </trkpt>
      <trkpt lat="49.16606" lon="4.03075">
        <ele>200.4</ele>
        <time>2026-08-24T13:57:27Z</time>
      </trkpt>
      <trkpt lat="49.16606" lon="4.03067">
        <ele>200.4</ele>
        <time>2026-08-24T13:57:28Z</time>
      </trkpt>
      <trkpt lat="49.16607" lon="4.03059">
        <ele>200.4</ele>
        <time>2026-08-24T13:57:29Z</time>
      </trkpt>
      <trkpt lat="49.16607" lon="4.0305">
        <ele>200.4</ele>
        <time>2026-08-24T13:57:30Z</time>
      </trkpt>
      <trkpt lat="49.16607" lon="4.03042">
        <ele>200.4</ele>
        <time>2026-08-24T13:57:31Z</time>
      </trkpt>
      <trkpt lat="49.16607" lon="4.03033">
        <ele>200.2</ele>
        <time>2026-08-24T13:57:32Z</time>
      </trkpt>
      <trkpt lat="49.16607" lon="4.03023">
        <ele>200</ele>
        <time>2026-08-24T13:57:33Z</time>
      </trkpt>
      <trkpt lat="49.16607" lon="4.03013">
        <ele>199.6</ele>
        <time>2026-08-24T13:57:34Z</time>
      </trkpt>
      <trkpt lat="49.16607" lon="4.03003">
        <ele>199.4</ele>
        <time>2026-08-24T13:57:35Z</time>
      </trkpt>
      <trkpt lat="49.16607" lon="4.02992">
        <ele>199</ele>
        <time>2026-08-24T13:57:36Z</time>
      </trkpt>
      <trkpt lat="49.16607" lon="4.02981">
        <ele>198.6</ele>
        <time>2026-08-24T13:57:37Z</time>
      </trkpt>
      <trkpt lat="49.16607" lon="4.02969">
        <ele>198.4</ele>
        <time>2026-08-24T13:57:38Z</time>
      </trkpt>
      <trkpt lat="49.16607" lon="4.02958">
        <ele>198</ele>
        <time>2026-08-24T13:57:39Z</time>
      </trkpt>
      <trkpt lat="49.16608" lon="4.02945">
        <ele>197.6</ele>
        <time>2026-08-24T13:57:40Z</time>
      </trkpt>
      <trkpt lat="49.16608" lon="4.02933">
        <ele>197.2</ele>
        <time>2026-08-24T13:57:41Z</time>
      </trkpt>
      <trkpt lat="49.16608" lon="4.02919">
        <ele>196.6</ele>
        <time>2026-08-24T13:57:42Z</time>
      </trkpt>
      <trkpt lat="49.16608" lon="4.02906">
        <ele>196</ele>
        <time>2026-08-24T13:57:43Z</time>
      </trkpt>
      <trkpt lat="49.16607" lon="4.02893">
        <ele>195.4</ele>
        <time>2026-08-24T13:57:44Z</time>
      </trkpt>
      <trkpt lat="49.16607" lon="4.02879">
        <ele>194.8</ele>
        <time>2026-08-24T13:57:45Z</time>
      </trkpt>
      <trkpt lat="49.16606" lon="4.02865">
        <ele>194.2</ele>
        <time>2026-08-24T13:57:46Z</time>
      </trkpt>
      <trkpt lat="49.16606" lon="4.02851">
        <ele>193.6</ele>
        <time>2026-08-24T13:57:47Z</time>
      </trkpt>
      <trkpt lat="49.16607" lon="4.02837">
        <ele>193</ele>
        <time>2026-08-24T13:57:48Z</time>
      </trkpt>
      <trkpt lat="49.16607" lon="4.02822">
        <ele>192.4</ele>
        <time>2026-08-24T13:57:49Z</time>
      </trkpt>
      <trkpt lat="49.16607" lon="4.02808">
        <ele>191.8</ele>
        <time>2026-08-24T13:57:50Z</time>
      </trkpt>
      <trkpt lat="49.16608" lon="4.02794">
        <ele>191.2</ele>
        <time>2026-08-24T13:57:51Z</time>
      </trkpt>
      <trkpt lat="49.16609" lon="4.0278">
        <ele>190.8</ele>
        <time>2026-08-24T13:57:52Z</time>
      </trkpt>
      <trkpt lat="49.1661" lon="4.02767">
        <ele>190.6</ele>
        <time>2026-08-24T13:57:53Z</time>
      </trkpt>
      <trkpt lat="49.16611" lon="4.02754">
        <ele>190</ele>
        <time>2026-08-24T13:57:54Z</time>
      </trkpt>
      <trkpt lat="49.16613" lon="4.02741">
        <ele>189.6</ele>
        <time>2026-08-24T13:57:55Z</time>
      </trkpt>
      <trkpt lat="49.16614" lon="4.02727">
        <ele>188.8</ele>
        <time>2026-08-24T13:57:56Z</time>
      </trkpt>
      <trkpt lat="49.16616" lon="4.02713">
        <ele>188.2</ele>
        <time>2026-08-24T13:57:57Z</time>
      </trkpt>
      <trkpt lat="49.16617" lon="4.02699">
        <ele>187.2</ele>
        <time>2026-08-24T13:57:58Z</time>
      </trkpt>
      <trkpt lat="49.16618" lon="4.02684">
        <ele>186.8</ele>
        <time>2026-08-24T13:57:59Z</time>
      </trkpt>
      <trkpt lat="49.16618" lon="4.02668">
        <ele>185.8</ele>
        <time>2026-08-24T13:58:00Z</time>
      </trkpt>
      <trkpt lat="49.16617" lon="4.02653">
        <ele>185</ele>
        <time>2026-08-24T13:58:01Z</time>
      </trkpt>
      <trkpt lat="49.16616" lon="4.02638">
        <ele>184</ele>
        <time>2026-08-24T13:58:02Z</time>
      </trkpt>
      <trkpt lat="49.16614" lon="4.02623">
        <ele>183.2</ele>
        <time>2026-08-24T13:58:03Z</time>
      </trkpt>
      <trkpt lat="49.16611" lon="4.02608">
        <ele>182.8</ele>
        <time>2026-08-24T13:58:04Z</time>
      </trkpt>
      <trkpt lat="49.16609" lon="4.02593">
        <ele>182.4</ele>
        <time>2026-08-24T13:58:05Z</time>
      </trkpt>
      <trkpt lat="49.16606" lon="4.02579">
        <ele>182.2</ele>
        <time>2026-08-24T13:58:06Z</time>
      </trkpt>
      <trkpt lat="49.16603" lon="4.02566">
        <ele>182.2</ele>
        <time>2026-08-24T13:58:07Z</time>
      </trkpt>
      <trkpt lat="49.16599" lon="4.02554">
        <ele>182.4</ele>
        <time>2026-08-24T13:58:08Z</time>
      </trkpt>
      <trkpt lat="49.16596" lon="4.02542">
        <ele>182.6</ele>
        <time>2026-08-24T13:58:09Z</time>
      </trkpt>
      <trkpt lat="49.16593" lon="4.02531">
        <ele>182.6</ele>
        <time>2026-08-24T13:58:10Z</time>
      </trkpt>
      <trkpt lat="49.16591" lon="4.02521">
        <ele>183</ele>
        <time>2026-08-24T13:58:11Z</time>
      </trkpt>
      <trkpt lat="49.16588" lon="4.02513">
        <ele>183.4</ele>
        <time>2026-08-24T13:58:12Z</time>
      </trkpt>
      <trkpt lat="49.16586" lon="4.02506">
        <ele>183.6</ele>
        <time>2026-08-24T13:58:13Z</time>
      </trkpt>
      <trkpt lat="49.16585" lon="4.02499">
        <ele>183.8</ele>
        <time>2026-08-24T13:58:14Z</time>
      </trkpt>
      <trkpt lat="49.16585" lon="4.02493">
        <ele>183.8</ele>
        <time>2026-08-24T13:58:15Z</time>
      </trkpt>
      <trkpt lat="49.16586" lon="4.02488">
        <ele>184</ele>
        <time>2026-08-24T13:58:16Z</time>
      </trkpt>
      <trkpt lat="49.16588" lon="4.02485">
        <ele>184</ele>
        <time>2026-08-24T13:58:17Z</time>
      </trkpt>
      <trkpt lat="49.16591" lon="4.02482">
        <ele>183.8</ele>
        <time>2026-08-24T13:58:18Z</time>
      </trkpt>
      <trkpt lat="49.16594" lon="4.02479">
        <ele>183.8</ele>
        <time>2026-08-24T13:58:19Z</time>
      </trkpt>
      <trkpt lat="49.16597" lon="4.02475">
        <ele>183.6</ele>
        <time>2026-08-24T13:58:20Z</time>
      </trkpt>
      <trkpt lat="49.16599" lon="4.02469">
        <ele>183.6</ele>
        <time>2026-08-24T13:58:21Z</time>
      </trkpt>
      <trkpt lat="49.166" lon="4.02463">
        <ele>183.4</ele>
        <time>2026-08-24T13:58:22Z</time>
      </trkpt>
      <trkpt lat="49.16599" lon="4.02456">
        <ele>183.2</ele>
        <time>2026-08-24T13:58:23Z</time>
      </trkpt>
      <trkpt lat="49.16596" lon="4.02449">
        <ele>183.2</ele>
        <time>2026-08-24T13:58:24Z</time>
      </trkpt>
      <trkpt lat="49.16593" lon="4.02442">
        <ele>183.2</ele>
        <time>2026-08-24T13:58:25Z</time>
      </trkpt>
      <trkpt lat="49.1659" lon="4.02435">
        <ele>183</ele>
        <time>2026-08-24T13:58:26Z</time>
      </trkpt>
      <trkpt lat="49.16586" lon="4.02428">
        <ele>182.8</ele>
        <time>2026-08-24T13:58:27Z</time>
      </trkpt>
      <trkpt lat="49.16582" lon="4.02421">
        <ele>182.6</ele>
        <time>2026-08-24T13:58:28Z</time>
      </trkpt>
      <trkpt lat="49.16578" lon="4.02413">
        <ele>182.4</ele>
        <time>2026-08-24T13:58:29Z</time>
      </trkpt>
      <trkpt lat="49.16574" lon="4.02405">
        <ele>182.2</ele>
        <time>2026-08-24T13:58:30Z</time>
      </trkpt>
      <trkpt lat="49.1657" lon="4.02396">
        <ele>182</ele>
        <time>2026-08-24T13:58:31Z</time>
      </trkpt>
      <trkpt lat="49.16566" lon="4.02387">
        <ele>181.8</ele>
        <time>2026-08-24T13:58:32Z</time>
      </trkpt>
      <trkpt lat="49.16561" lon="4.02378">
        <ele>181.6</ele>
        <time>2026-08-24T13:58:33Z</time>
      </trkpt>
      <trkpt lat="49.16557" lon="4.0237">
        <ele>181.6</ele>
        <time>2026-08-24T13:58:34Z</time>
      </trkpt>
      <trkpt lat="49.16553" lon="4.02362">
        <ele>181.6</ele>
        <time>2026-08-24T13:58:35Z</time>
      </trkpt>
      <trkpt lat="49.16549" lon="4.02355">
        <ele>181.8</ele>
        <time>2026-08-24T13:58:36Z</time>
      </trkpt>
      <trkpt lat="49.16545" lon="4.02347">
        <ele>181.8</ele>
        <time>2026-08-24T13:58:37Z</time>
      </trkpt>
      <trkpt lat="49.16542" lon="4.02339">
        <ele>182</ele>
        <time>2026-08-24T13:58:38Z</time>
      </trkpt>
      <trkpt lat="49.16539" lon="4.0233">
        <ele>182.2</ele>
        <time>2026-08-24T13:58:39Z</time>
      </trkpt>
      <trkpt lat="49.16537" lon="4.02321">
        <ele>182.4</ele>
        <time>2026-08-24T13:58:40Z</time>
      </trkpt>
      <trkpt lat="49.16536" lon="4.02312">
        <ele>182.6</ele>
        <time>2026-08-24T13:58:41Z</time>
      </trkpt>
      <trkpt lat="49.16535" lon="4.02303">
        <ele>182.8</ele>
        <time>2026-08-24T13:58:42Z</time>
      </trkpt>
      <trkpt lat="49.16534" lon="4.02294">
        <ele>182.8</ele>
        <time>2026-08-24T13:58:43Z</time>
      </trkpt>
      <trkpt lat="49.16534" lon="4.02285">
        <ele>183</ele>
        <time>2026-08-24T13:58:44Z</time>
      </trkpt>
      <trkpt lat="49.16534" lon="4.02276">
        <ele>183</ele>
        <time>2026-08-24T13:58:45Z</time>
      </trkpt>
      <trkpt lat="49.16533" lon="4.02267">
        <ele>183</ele>
        <time>2026-08-24T13:58:46Z</time>
      </trkpt>
      <trkpt lat="49.16533" lon="4.02257">
        <ele>183.2</ele>
        <time>2026-08-24T13:58:47Z</time>
      </trkpt>
      <trkpt lat="49.16532" lon="4.02248">
        <ele>183.2</ele>
        <time>2026-08-24T13:58:48Z</time>
      </trkpt>
      <trkpt lat="49.16531" lon="4.02239">
        <ele>183.2</ele>
        <time>2026-08-24T13:58:49Z</time>
      </trkpt>
      <trkpt lat="49.1653" lon="4.02229">
        <ele>183.2</ele>
        <time>2026-08-24T13:58:50Z</time>
      </trkpt>
      <trkpt lat="49.1653" lon="4.02219">
        <ele>183.2</ele>
        <time>2026-08-24T13:58:51Z</time>
      </trkpt>
      <trkpt lat="49.1653" lon="4.0221">
        <ele>183</ele>
        <time>2026-08-24T13:58:52Z</time>
      </trkpt>
      <trkpt lat="49.16531" lon="4.022">
        <ele>183</ele>
        <time>2026-08-24T13:58:53Z</time>
      </trkpt>
      <trkpt lat="49.16531" lon="4.0219">
        <ele>182.8</ele>
        <time>2026-08-24T13:58:54Z</time>
      </trkpt>
      <trkpt lat="49.16531" lon="4.02181">
        <ele>182.8</ele>
        <time>2026-08-24T13:58:55Z</time>
      </trkpt>
      <trkpt lat="49.1653" lon="4.02171">
        <ele>182.8</ele>
        <time>2026-08-24T13:58:56Z</time>
      </trkpt>
      <trkpt lat="49.16529" lon="4.02161">
        <ele>182.8</ele>
        <time>2026-08-24T13:58:57Z</time>
      </trkpt>
      <trkpt lat="49.16529" lon="4.02151">
        <ele>183</ele>
        <time>2026-08-24T13:58:58Z</time>
      </trkpt>
      <trkpt lat="49.16528" lon="4.02141">
        <ele>183</ele>
        <time>2026-08-24T13:58:59Z</time>
      </trkpt>
      <trkpt lat="49.16527" lon="4.02131">
        <ele>183.2</ele>
        <time>2026-08-24T13:59:00Z</time>
      </trkpt>
      <trkpt lat="49.16525" lon="4.0212">
        <ele>183</ele>
        <time>2026-08-24T13:59:01Z</time>
      </trkpt>
      <trkpt lat="49.16524" lon="4.02109">
        <ele>183</ele>
        <time>2026-08-24T13:59:02Z</time>
      </trkpt>
      <trkpt lat="49.16522" lon="4.02098">
        <ele>182.8</ele>
        <time>2026-08-24T13:59:03Z</time>
      </trkpt>
      <trkpt lat="49.16521" lon="4.02087">
        <ele>182.6</ele>
        <time>2026-08-24T13:59:04Z</time>
      </trkpt>
      <trkpt lat="49.16518" lon="4.02075">
        <ele>182.4</ele>
        <time>2026-08-24T13:59:05Z</time>
      </trkpt>
      <trkpt lat="49.16515" lon="4.02064">
        <ele>182</ele>
        <time>2026-08-24T13:59:06Z</time>
      </trkpt>
      <trkpt lat="49.16512" lon="4.02052">
        <ele>181.6</ele>
        <time>2026-08-24T13:59:07Z</time>
      </trkpt>
      <trkpt lat="49.16507" lon="4.02041">
        <ele>181.2</ele>
        <time>2026-08-24T13:59:08Z</time>
      </trkpt>
      <trkpt lat="49.16502" lon="4.02031">
        <ele>180.8</ele>
        <time>2026-08-24T13:59:09Z</time>
      </trkpt>
      <trkpt lat="49.16496" lon="4.02023">
        <ele>180.4</ele>
        <time>2026-08-24T13:59:10Z</time>
      </trkpt>
      <trkpt lat="49.16489" lon="4.02015">
        <ele>180</ele>
        <time>2026-08-24T13:59:11Z</time>
      </trkpt>
      <trkpt lat="49.16482" lon="4.02008">
        <ele>179.6</ele>
        <time>2026-08-24T13:59:12Z</time>
      </trkpt>
      <trkpt lat="49.16474" lon="4.02001">
        <ele>179.4</ele>
        <time>2026-08-24T13:59:13Z</time>
      </trkpt>
      <trkpt lat="49.16466" lon="4.01995">
        <ele>179.2</ele>
        <time>2026-08-24T13:59:14Z</time>
      </trkpt>
      <trkpt lat="49.16458" lon="4.01988">
        <ele>179.2</ele>
        <time>2026-08-24T13:59:15Z</time>
      </trkpt>
      <trkpt lat="49.1645" lon="4.01982">
        <ele>179</ele>
        <time>2026-08-24T13:59:16Z</time>
      </trkpt>
      <trkpt lat="49.16443" lon="4.01975">
        <ele>178.8</ele>
        <time>2026-08-24T13:59:17Z</time>
      </trkpt>
      <trkpt lat="49.16436" lon="4.01968">
        <ele>178.6</ele>
        <time>2026-08-24T13:59:18Z</time>
      </trkpt>
      <trkpt lat="49.1643" lon="4.0196">
        <ele>178.2</ele>
        <time>2026-08-24T13:59:19Z</time>
      </trkpt>
      <trkpt lat="49.16426" lon="4.0195">
        <ele>177.8</ele>
        <time>2026-08-24T13:59:20Z</time>
      </trkpt>
      <trkpt lat="49.16422" lon="4.01941">
        <ele>177.2</ele>
        <time>2026-08-24T13:59:21Z</time>
      </trkpt>
      <trkpt lat="49.16419" lon="4.0193">
        <ele>177</ele>
        <time>2026-08-24T13:59:22Z</time>
      </trkpt>
      <trkpt lat="49.16417" lon="4.01919">
        <ele>176.6</ele>
        <time>2026-08-24T13:59:23Z</time>
      </trkpt>
      <trkpt lat="49.16415" lon="4.01908">
        <ele>176.4</ele>
        <time>2026-08-24T13:59:24Z</time>
      </trkpt>
      <trkpt lat="49.16414" lon="4.01896">
        <ele>176.2</ele>
        <time>2026-08-24T13:59:25Z</time>
      </trkpt>
      <trkpt lat="49.16414" lon="4.01884">
        <ele>176</ele>
        <time>2026-08-24T13:59:26Z</time>
      </trkpt>
      <trkpt lat="49.16413" lon="4.01872">
        <ele>175.8</ele>
        <time>2026-08-24T13:59:27Z</time>
      </trkpt>
      <trkpt lat="49.16413" lon="4.0186">
        <ele>175.4</ele>
        <time>2026-08-24T13:59:28Z</time>
      </trkpt>
      <trkpt lat="49.16412" lon="4.01849">
        <ele>175.2</ele>
        <time>2026-08-24T13:59:29Z</time>
      </trkpt>
      <trkpt lat="49.16411" lon="4.01838">
        <ele>175.2</ele>
        <time>2026-08-24T13:59:30Z</time>
      </trkpt>
      <trkpt lat="49.16411" lon="4.01828">
        <ele>175.4</ele>
        <time>2026-08-24T13:59:31Z</time>
      </trkpt>
      <trkpt lat="49.1641" lon="4.01818">
        <ele>175.4</ele>
        <time>2026-08-24T13:59:32Z</time>
      </trkpt>
      <trkpt lat="49.1641" lon="4.01807">
        <ele>175.6</ele>
        <time>2026-08-24T13:59:33Z</time>
      </trkpt>
      <trkpt lat="49.16409" lon="4.01796">
        <ele>175.8</ele>
        <time>2026-08-24T13:59:34Z</time>
      </trkpt>
      <trkpt lat="49.16409" lon="4.01785">
        <ele>176</ele>
        <time>2026-08-24T13:59:35Z</time>
      </trkpt>
      <trkpt lat="49.16409" lon="4.01774">
        <ele>176.4</ele>
        <time>2026-08-24T13:59:36Z</time>
      </trkpt>
      <trkpt lat="49.16409" lon="4.01763">
        <ele>176.6</ele>
        <time>2026-08-24T13:59:37Z</time>
      </trkpt>
      <trkpt lat="49.16409" lon="4.01753">
        <ele>176.8</ele>
        <time>2026-08-24T13:59:38Z</time>
      </trkpt>
      <trkpt lat="49.16409" lon="4.01743">
        <ele>177</ele>
        <time>2026-08-24T13:59:39Z</time>
      </trkpt>
      <trkpt lat="49.16411" lon="4.01734">
        <ele>177.4</ele>
        <time>2026-08-24T13:59:40Z</time>
      </trkpt>
      <trkpt lat="49.16412" lon="4.01724">
        <ele>177.8</ele>
        <time>2026-08-24T13:59:41Z</time>
      </trkpt>
      <trkpt lat="49.16413" lon="4.01715">
        <ele>178</ele>
        <time>2026-08-24T13:59:42Z</time>
      </trkpt>
      <trkpt lat="49.16415" lon="4.01707">
        <ele>178.4</ele>
        <time>2026-08-24T13:59:43Z</time>
      </trkpt>
      <trkpt lat="49.16416" lon="4.01699">
        <ele>178.8</ele>
        <time>2026-08-24T13:59:44Z</time>
      </trkpt>
      <trkpt lat="49.16418" lon="4.01691">
        <ele>179.2</ele>
        <time>2026-08-24T13:59:45Z</time>
      </trkpt>
      <trkpt lat="49.16419" lon="4.01684">
        <ele>179.4</ele>
        <time>2026-08-24T13:59:46Z</time>
      </trkpt>
      <trkpt lat="49.16421" lon="4.01677">
        <ele>179.8</ele>
        <time>2026-08-24T13:59:47Z</time>
      </trkpt>
      <trkpt lat="49.16422" lon="4.01669">
        <ele>180</ele>
        <time>2026-08-24T13:59:48Z</time>
      </trkpt>
      <trkpt lat="49.16424" lon="4.01662">
        <ele>180.2</ele>
        <time>2026-08-24T13:59:49Z</time>
      </trkpt>
      <trkpt lat="49.16427" lon="4.01655">
        <ele>180.4</ele>
        <time>2026-08-24T13:59:50Z</time>
      </trkpt>
      <trkpt lat="49.16428" lon="4.01648">
        <ele>180.6</ele>
        <time>2026-08-24T13:59:51Z</time>
      </trkpt>
      <trkpt lat="49.1643" lon="4.01641">
        <ele>180.8</ele>
        <time>2026-08-24T13:59:52Z</time>
      </trkpt>
      <trkpt lat="49.16431" lon="4.01633">
        <ele>181</ele>
        <time>2026-08-24T13:59:53Z</time>
      </trkpt>
      <trkpt lat="49.16433" lon="4.01626">
        <ele>181.2</ele>
        <time>2026-08-24T13:59:54Z</time>
      </trkpt>
      <trkpt lat="49.16435" lon="4.01619">
        <ele>181.4</ele>
        <time>2026-08-24T13:59:55Z</time>
      </trkpt>
      <trkpt lat="49.16437" lon="4.01611">
        <ele>181.6</ele>
        <time>2026-08-24T13:59:56Z</time>
      </trkpt>
      <trkpt lat="49.16439" lon="4.01604">
        <ele>181.6</ele>
        <time>2026-08-24T13:59:57Z</time>
      </trkpt>
      <trkpt lat="49.1644" lon="4.01596">
        <ele>181.8</ele>
        <time>2026-08-24T13:59:58Z</time>
      </trkpt>
      <trkpt lat="49.16442" lon="4.01589">
        <ele>181.8</ele>
        <time>2026-08-24T13:59:59Z</time>
      </trkpt>
      <trkpt lat="49.16444" lon="4.01581">
        <ele>182</ele>
        <time>2026-08-24T14:00:00Z</time>
      </trkpt>
      <trkpt lat="49.16446" lon="4.01573">
        <ele>182</ele>
        <time>2026-08-24T14:00:01Z</time>
      </trkpt>
      <trkpt lat="49.16448" lon="4.01566">
        <ele>182.2</ele>
        <time>2026-08-24T14:00:02Z</time>
      </trkpt>
      <trkpt lat="49.1645" lon="4.01558">
        <ele>182.2</ele>
        <time>2026-08-24T14:00:03Z</time>
      </trkpt>
      <trkpt lat="49.16452" lon="4.01551">
        <ele>182.2</ele>
        <time>2026-08-24T14:00:04Z</time>
      </trkpt>
      <trkpt lat="49.16454" lon="4.01543">
        <ele>182.4</ele>
        <time>2026-08-24T14:00:05Z</time>
      </trkpt>
      <trkpt lat="49.16455" lon="4.01535">
        <ele>182.6</ele>
        <time>2026-08-24T14:00:06Z</time>
      </trkpt>
      <trkpt lat="49.16457" lon="4.01528">
        <ele>182.6</ele>
        <time>2026-08-24T14:00:07Z</time>
      </trkpt>
      <trkpt lat="49.16459" lon="4.0152">
        <ele>182.8</ele>
        <time>2026-08-24T14:00:08Z</time>
      </trkpt>
      <trkpt lat="49.1646" lon="4.01512">
        <ele>182.8</ele>
        <time>2026-08-24T14:00:09Z</time>
      </trkpt>
      <trkpt lat="49.16462" lon="4.01503">
        <ele>183</ele>
        <time>2026-08-24T14:00:10Z</time>
      </trkpt>
      <trkpt lat="49.16463" lon="4.01495">
        <ele>183</ele>
        <time>2026-08-24T14:00:11Z</time>
      </trkpt>
      <trkpt lat="49.16464" lon="4.01488">
        <ele>183.2</ele>
        <time>2026-08-24T14:00:12Z</time>
      </trkpt>
      <trkpt lat="49.16464" lon="4.0148">
        <ele>183.2</ele>
        <time>2026-08-24T14:00:13Z</time>
      </trkpt>
      <trkpt lat="49.16464" lon="4.01471">
        <ele>183.6</ele>
        <time>2026-08-24T14:00:14Z</time>
      </trkpt>
      <trkpt lat="49.16464" lon="4.01463">
        <ele>183.8</ele>
        <time>2026-08-24T14:00:15Z</time>
      </trkpt>
      <trkpt lat="49.16464" lon="4.01455">
        <ele>183.8</ele>
        <time>2026-08-24T14:00:16Z</time>
      </trkpt>
      <trkpt lat="49.16463" lon="4.01448">
        <ele>184.2</ele>
        <time>2026-08-24T14:00:17Z</time>
      </trkpt>
      <trkpt lat="49.16462" lon="4.0144">
        <ele>184.4</ele>
        <time>2026-08-24T14:00:18Z</time>
      </trkpt>
      <trkpt lat="49.16461" lon="4.01432">
        <ele>184.6</ele>
        <time>2026-08-24T14:00:19Z</time>
      </trkpt>
      <trkpt lat="49.1646" lon="4.01425">
        <ele>184.8</ele>
        <time>2026-08-24T14:00:20Z</time>
      </trkpt>
      <trkpt lat="49.16458" lon="4.01418">
        <ele>185</ele>
        <time>2026-08-24T14:00:21Z</time>
      </trkpt>
      <trkpt lat="49.16457" lon="4.0141">
        <ele>185</ele>
        <time>2026-08-24T14:00:22Z</time>
      </trkpt>
      <trkpt lat="49.16456" lon="4.01403">
        <ele>185.2</ele>
        <time>2026-08-24T14:00:23Z</time>
      </trkpt>
      <trkpt lat="49.16455" lon="4.01397">
        <ele>185.4</ele>
        <time>2026-08-24T14:00:24Z</time>
      </trkpt>
      <trkpt lat="49.16453" lon="4.0139">
        <ele>185.6</ele>
        <time>2026-08-24T14:00:25Z</time>
      </trkpt>
      <trkpt lat="49.16452" lon="4.01383">
        <ele>185.8</ele>
        <time>2026-08-24T14:00:26Z</time>
      </trkpt>
      <trkpt lat="49.16451" lon="4.01377">
        <ele>186.2</ele>
        <time>2026-08-24T14:00:27Z</time>
      </trkpt>
      <trkpt lat="49.1645" lon="4.01372">
        <ele>186.4</ele>
        <time>2026-08-24T14:00:28Z</time>
      </trkpt>
      <trkpt lat="49.16449" lon="4.01367">
        <ele>186.6</ele>
        <time>2026-08-24T14:00:29Z</time>
      </trkpt>
      <trkpt lat="49.16448" lon="4.01362">
        <ele>187</ele>
        <time>2026-08-24T14:00:30Z</time>
      </trkpt>
      <trkpt lat="49.16447" lon="4.01357">
        <ele>187.2</ele>
        <time>2026-08-24T14:00:31Z</time>
      </trkpt>
      <trkpt lat="49.16446" lon="4.01353">
        <ele>187.4</ele>
        <time>2026-08-24T14:00:32Z</time>
      </trkpt>
      <trkpt lat="49.16446" lon="4.01348">
        <ele>187.6</ele>
        <time>2026-08-24T14:00:33Z</time>
      </trkpt>
      <trkpt lat="49.16445" lon="4.01343">
        <ele>187.8</ele>
        <time>2026-08-24T14:00:34Z</time>
      </trkpt>
      <trkpt lat="49.16444" lon="4.01338">
        <ele>188</ele>
        <time>2026-08-24T14:00:35Z</time>
      </trkpt>
      <trkpt lat="49.16444" lon="4.01334">
        <ele>188.2</ele>
        <time>2026-08-24T14:00:36Z</time>
      </trkpt>
      <trkpt lat="49.16443" lon="4.01329">
        <ele>188.4</ele>
        <time>2026-08-24T14:00:37Z</time>
      </trkpt>
      <trkpt lat="49.16442" lon="4.01324">
        <ele>188.6</ele>
        <time>2026-08-24T14:00:38Z</time>
      </trkpt>
      <trkpt lat="49.16442" lon="4.01319">
        <ele>188.8</ele>
        <time>2026-08-24T14:00:39Z</time>
      </trkpt>
      <trkpt lat="49.16441" lon="4.01315">
        <ele>189</ele>
        <time>2026-08-24T14:00:40Z</time>
      </trkpt>
      <trkpt lat="49.16441" lon="4.0131">
        <ele>189</ele>
        <time>2026-08-24T14:00:41Z</time>
      </trkpt>
      <trkpt lat="49.1644" lon="4.01306">
        <ele>189.2</ele>
        <time>2026-08-24T14:00:42Z</time>
      </trkpt>
      <trkpt lat="49.1644" lon="4.01301">
        <ele>189.4</ele>
        <time>2026-08-24T14:00:43Z</time>
      </trkpt>
      <trkpt lat="49.1644" lon="4.01297">
        <ele>189.8</ele>
        <time>2026-08-24T14:00:44Z</time>
      </trkpt>
      <trkpt lat="49.16439" lon="4.01292">
        <ele>190</ele>
        <time>2026-08-24T14:00:45Z</time>
      </trkpt>
      <trkpt lat="49.16439" lon="4.01288">
        <ele>190.2</ele>
        <time>2026-08-24T14:00:46Z</time>
      </trkpt>
      <trkpt lat="49.16439" lon="4.01283">
        <ele>190.6</ele>
        <time>2026-08-24T14:00:47Z</time>
      </trkpt>
      <trkpt lat="49.16439" lon="4.01279">
        <ele>190.8</ele>
        <time>2026-08-24T14:00:48Z</time>
      </trkpt>
      <trkpt lat="49.16439" lon="4.01275">
        <ele>191</ele>
        <time>2026-08-24T14:00:49Z</time>
      </trkpt>
      <trkpt lat="49.16439" lon="4.0127">
        <ele>191.2</ele>
        <time>2026-08-24T14:00:50Z</time>
      </trkpt>
      <trkpt lat="49.16439" lon="4.01266">
        <ele>191.4</ele>
        <time>2026-08-24T14:00:51Z</time>
      </trkpt>
      <trkpt lat="49.16439" lon="4.01262">
        <ele>191.6</ele>
        <time>2026-08-24T14:00:52Z</time>
      </trkpt>
      <trkpt lat="49.16439" lon="4.01257">
        <ele>191.8</ele>
        <time>2026-08-24T14:00:53Z</time>
      </trkpt>
      <trkpt lat="49.16439" lon="4.01253">
        <ele>192.2</ele>
        <time>2026-08-24T14:00:54Z</time>
      </trkpt>
      <trkpt lat="49.16439" lon="4.01248">
        <ele>192.4</ele>
        <time>2026-08-24T14:00:55Z</time>
      </trkpt>
      <trkpt lat="49.16439" lon="4.01244">
        <ele>192.6</ele>
        <time>2026-08-24T14:00:56Z</time>
      </trkpt>
      <trkpt lat="49.1644" lon="4.0124">
        <ele>192.8</ele>
        <time>2026-08-24T14:00:57Z</time>
      </trkpt>
      <trkpt lat="49.1644" lon="4.01235">
        <ele>193</ele>
        <time>2026-08-24T14:00:58Z</time>
      </trkpt>
      <trkpt lat="49.1644" lon="4.01231">
        <ele>193.2</ele>
        <time>2026-08-24T14:00:59Z</time>
      </trkpt>
      <trkpt lat="49.1644" lon="4.01227">
        <ele>193.4</ele>
        <time>2026-08-24T14:01:00Z</time>
      </trkpt>
      <trkpt lat="49.1644" lon="4.01222">
        <ele>193.6</ele>
        <time>2026-08-24T14:01:01Z</time>
      </trkpt>
      <trkpt lat="49.1644" lon="4.01218">
        <ele>194</ele>
        <time>2026-08-24T14:01:02Z</time>
      </trkpt>
      <trkpt lat="49.1644" lon="4.01214">
        <ele>194.2</ele>
        <time>2026-08-24T14:01:03Z</time>
      </trkpt>
      <trkpt lat="49.1644" lon="4.0121">
        <ele>194.4</ele>
        <time>2026-08-24T14:01:04Z</time>
      </trkpt>
      <trkpt lat="49.1644" lon="4.01206">
        <ele>194.6</ele>
        <time>2026-08-24T14:01:05Z</time>
      </trkpt>
      <trkpt lat="49.1644" lon="4.01202">
        <ele>194.8</ele>
        <time>2026-08-24T14:01:06Z</time>
      </trkpt>
      <trkpt lat="49.16439" lon="4.01198">
        <ele>195</ele>
        <time>2026-08-24T14:01:07Z</time>
      </trkpt>
      <trkpt lat="49.16439" lon="4.01194">
        <ele>195.2</ele>
        <time>2026-08-24T14:01:08Z</time>
      </trkpt>
      <trkpt lat="49.16439" lon="4.01191">
        <ele>195.4</ele>
        <time>2026-08-24T14:01:09Z</time>
      </trkpt>
      <trkpt lat="49.16439" lon="4.01187">
        <ele>195.6</ele>
        <time>2026-08-24T14:01:10Z</time>
      </trkpt>
      <trkpt lat="49.16439" lon="4.01183">
        <ele>196</ele>
        <time>2026-08-24T14:01:11Z</time>
      </trkpt>
      <trkpt lat="49.16438" lon="4.0118">
        <ele>196.2</ele>
        <time>2026-08-24T14:01:12Z</time>
      </trkpt>
      <trkpt lat="49.16439" lon="4.01177">
        <ele>196.4</ele>
        <time>2026-08-24T14:01:13Z</time>
      </trkpt>
      <trkpt lat="49.16438" lon="4.01174">
        <ele>196.4</ele>
        <time>2026-08-24T14:01:14Z</time>
      </trkpt>
      <trkpt lat="49.16438" lon="4.01172">
        <ele>196.6</ele>
        <time>2026-08-24T14:01:15Z</time>
      </trkpt>
      <trkpt lat="49.16438" lon="4.01169">
        <ele>196.6</ele>
        <time>2026-08-24T14:01:16Z</time>
      </trkpt>
      <trkpt lat="49.16438" lon="4.01167">
        <ele>196.8</ele>
        <time>2026-08-24T14:01:17Z</time>
      </trkpt>
      <trkpt lat="49.16438" lon="4.01165">
        <ele>196.8</ele>
        <time>2026-08-24T14:01:18Z</time>
      </trkpt>
      <trkpt lat="49.16438" lon="4.01164">
        <ele>197</ele>
        <time>2026-08-24T14:01:19Z</time>
      </trkpt>
      <trkpt lat="49.16438" lon="4.01164">
        <ele>197</ele>
        <time>2026-08-24T14:01:20Z</time>
      </trkpt>
      <trkpt lat="49.16438" lon="4.01164">
        <ele>197.2</ele>
        <time>2026-08-24T14:01:21Z</time>
      </trkpt>
      <trkpt lat="49.16439" lon="4.01158">
        <ele>197.4</ele>
        <time>2026-08-24T14:01:48Z</time>
      </trkpt>
      <trkpt lat="49.16439" lon="4.01155">
        <ele>197.4</ele>
        <time>2026-08-24T14:01:49Z</time>
      </trkpt>
      <trkpt lat="49.16438" lon="4.01152">
        <ele>197.2</ele>
        <time>2026-08-24T14:01:50Z</time>
      </trkpt>
      <trkpt lat="49.16436" lon="4.01149">
        <ele>197.2</ele>
        <time>2026-08-24T14:01:51Z</time>
      </trkpt>
      <trkpt lat="49.16434" lon="4.01148">
        <ele>197.2</ele>
        <time>2026-08-24T14:01:52Z</time>
      </trkpt>
      <trkpt lat="49.16432" lon="4.01147">
        <ele>197</ele>
        <time>2026-08-24T14:01:53Z</time>
      </trkpt>
      <trkpt lat="49.16429" lon="4.01147">
        <ele>197</ele>
        <time>2026-08-24T14:01:54Z</time>
      </trkpt>
      <trkpt lat="49.16427" lon="4.01147">
        <ele>197</ele>
        <time>2026-08-24T14:01:55Z</time>
      </trkpt>
      <trkpt lat="49.16424" lon="4.01147">
        <ele>197</ele>
        <time>2026-08-24T14:01:56Z</time>
      </trkpt>
      <trkpt lat="49.16421" lon="4.01147">
        <ele>197.2</ele>
        <time>2026-08-24T14:01:57Z</time>
      </trkpt>
      <trkpt lat="49.16417" lon="4.01147">
        <ele>197.4</ele>
        <time>2026-08-24T14:01:58Z</time>
      </trkpt>
      <trkpt lat="49.16414" lon="4.01146">
        <ele>197.6</ele>
        <time>2026-08-24T14:01:59Z</time>
      </trkpt>
      <trkpt lat="49.1641" lon="4.01146">
        <ele>197.8</ele>
        <time>2026-08-24T14:02:00Z</time>
      </trkpt>
      <trkpt lat="49.16407" lon="4.01146">
        <ele>197.8</ele>
        <time>2026-08-24T14:02:01Z</time>
      </trkpt>
      <trkpt lat="49.16403" lon="4.01146">
        <ele>198</ele>
        <time>2026-08-24T14:02:02Z</time>
      </trkpt>
      <trkpt lat="49.164" lon="4.01146">
        <ele>198.2</ele>
        <time>2026-08-24T14:02:03Z</time>
      </trkpt>
      <trkpt lat="49.16396" lon="4.01146">
        <ele>198.4</ele>
        <time>2026-08-24T14:02:04Z</time>
      </trkpt>
      <trkpt lat="49.16393" lon="4.01146">
        <ele>198.6</ele>
        <time>2026-08-24T14:02:05Z</time>
      </trkpt>
      <trkpt lat="49.16389" lon="4.01146">
        <ele>198.8</ele>
        <time>2026-08-24T14:02:06Z</time>
      </trkpt>
      <trkpt lat="49.16386" lon="4.01146">
        <ele>199.2</ele>
        <time>2026-08-24T14:02:07Z</time>
      </trkpt>
      <trkpt lat="49.16382" lon="4.01146">
        <ele>199.4</ele>
        <time>2026-08-24T14:02:08Z</time>
      </trkpt>
      <trkpt lat="49.16379" lon="4.01146">
        <ele>199.6</ele>
        <time>2026-08-24T14:02:09Z</time>
      </trkpt>
      <trkpt lat="49.16375" lon="4.01146">
        <ele>199.6</ele>
        <time>2026-08-24T14:02:10Z</time>
      </trkpt>
      <trkpt lat="49.16372" lon="4.01146">
        <ele>199.8</ele>
        <time>2026-08-24T14:02:11Z</time>
      </trkpt>
      <trkpt lat="49.16369" lon="4.01146">
        <ele>200</ele>
        <time>2026-08-24T14:02:12Z</time>
      </trkpt>
      <trkpt lat="49.16366" lon="4.01146">
        <ele>200.2</ele>
        <time>2026-08-24T14:02:13Z</time>
      </trkpt>
      <trkpt lat="49.16363" lon="4.01146">
        <ele>200.6</ele>
        <time>2026-08-24T14:02:14Z</time>
      </trkpt>
      <trkpt lat="49.16359" lon="4.01145">
        <ele>200.8</ele>
        <time>2026-08-24T14:02:15Z</time>
      </trkpt>
      <trkpt lat="49.16356" lon="4.01145">
        <ele>201</ele>
        <time>2026-08-24T14:02:16Z</time>
      </trkpt>
      <trkpt lat="49.16353" lon="4.01145">
        <ele>201.4</ele>
        <time>2026-08-24T14:02:17Z</time>
      </trkpt>
      <trkpt lat="49.1635" lon="4.01145">
        <ele>201.4</ele>
        <time>2026-08-24T14:02:18Z</time>
      </trkpt>
      <trkpt lat="49.16346" lon="4.01145">
        <ele>201.8</ele>
        <time>2026-08-24T14:02:19Z</time>
      </trkpt>
      <trkpt lat="49.16343" lon="4.01145">
        <ele>202</ele>
        <time>2026-08-24T14:02:20Z</time>
      </trkpt>
      <trkpt lat="49.1634" lon="4.01145">
        <ele>202.2</ele>
        <time>2026-08-24T14:02:21Z</time>
      </trkpt>
      <trkpt lat="49.16337" lon="4.01145">
        <ele>202.4</ele>
        <time>2026-08-24T14:02:22Z</time>
      </trkpt>
      <trkpt lat="49.16334" lon="4.01145">
        <ele>202.8</ele>
        <time>2026-08-24T14:02:23Z</time>
      </trkpt>
      <trkpt lat="49.16331" lon="4.01145">
        <ele>203</ele>
        <time>2026-08-24T14:02:24Z</time>
      </trkpt>
      <trkpt lat="49.16328" lon="4.01145">
        <ele>203.4</ele>
        <time>2026-08-24T14:02:25Z</time>
      </trkpt>
      <trkpt lat="49.16325" lon="4.01145">
        <ele>203.6</ele>
        <time>2026-08-24T14:02:26Z</time>
      </trkpt>
      <trkpt lat="49.16322" lon="4.01145">
        <ele>204</ele>
        <time>2026-08-24T14:02:27Z</time>
      </trkpt>
      <trkpt lat="49.16319" lon="4.01145">
        <ele>204.2</ele>
        <time>2026-08-24T14:02:28Z</time>
      </trkpt>
      <trkpt lat="49.16316" lon="4.01145">
        <ele>204.6</ele>
        <time>2026-08-24T14:02:29Z</time>
      </trkpt>
      <trkpt lat="49.16313" lon="4.01145">
        <ele>204.8</ele>
        <time>2026-08-24T14:02:30Z</time>
      </trkpt>
      <trkpt lat="49.1631" lon="4.01144">
        <ele>205</ele>
        <time>2026-08-24T14:02:31Z</time>
      </trkpt>
      <trkpt lat="49.16307" lon="4.01144">
        <ele>205.2</ele>
        <time>2026-08-24T14:02:32Z</time>
      </trkpt>
      <trkpt lat="49.16304" lon="4.01144">
        <ele>205.4</ele>
        <time>2026-08-24T14:02:33Z</time>
      </trkpt>
      <trkpt lat="49.16302" lon="4.01144">
        <ele>205.6</ele>
        <time>2026-08-24T14:02:34Z</time>
      </trkpt>
      <trkpt lat="49.16299" lon="4.01144">
        <ele>205.8</ele>
        <time>2026-08-24T14:02:35Z</time>
      </trkpt>
      <trkpt lat="49.16296" lon="4.01144">
        <ele>206</ele>
        <time>2026-08-24T14:02:36Z</time>
      </trkpt>
      <trkpt lat="49.16293" lon="4.01144">
        <ele>206.2</ele>
        <time>2026-08-24T14:02:37Z</time>
      </trkpt>
      <trkpt lat="49.1629" lon="4.01143">
        <ele>206.4</ele>
        <time>2026-08-24T14:02:38Z</time>
      </trkpt>
      <trkpt lat="49.16287" lon="4.01143">
        <ele>206.6</ele>
        <time>2026-08-24T14:02:39Z</time>
      </trkpt>
      <trkpt lat="49.16285" lon="4.01143">
        <ele>206.8</ele>
        <time>2026-08-24T14:02:40Z</time>
      </trkpt>
      <trkpt lat="49.16282" lon="4.01143">
        <ele>207</ele>
        <time>2026-08-24T14:02:41Z</time>
      </trkpt>
      <trkpt lat="49.16279" lon="4.01142">
        <ele>207.2</ele>
        <time>2026-08-24T14:02:42Z</time>
      </trkpt>
      <trkpt lat="49.16277" lon="4.01142">
        <ele>207.4</ele>
        <time>2026-08-24T14:02:43Z</time>
      </trkpt>
      <trkpt lat="49.16274" lon="4.01142">
        <ele>207.6</ele>
        <time>2026-08-24T14:02:44Z</time>
      </trkpt>
      <trkpt lat="49.16271" lon="4.01141">
        <ele>207.8</ele>
        <time>2026-08-24T14:02:45Z</time>
      </trkpt>
      <trkpt lat="49.16268" lon="4.01141">
        <ele>207.8</ele>
        <time>2026-08-24T14:02:46Z</time>
      </trkpt>
      <trkpt lat="49.16266" lon="4.01141">
        <ele>208</ele>
        <time>2026-08-24T14:02:47Z</time>
      </trkpt>
      <trkpt lat="49.16263" lon="4.01141">
        <ele>208.2</ele>
        <time>2026-08-24T14:02:48Z</time>
      </trkpt>
      <trkpt lat="49.16261" lon="4.0114">
        <ele>208.6</ele>
        <time>2026-08-24T14:02:49Z</time>
      </trkpt>
      <trkpt lat="49.16258" lon="4.0114">
        <ele>208.8</ele>
        <time>2026-08-24T14:02:50Z</time>
      </trkpt>
      <trkpt lat="49.16255" lon="4.01139">
        <ele>209</ele>
        <time>2026-08-24T14:02:51Z</time>
      </trkpt>
      <trkpt lat="49.16253" lon="4.01139">
        <ele>209.2</ele>
        <time>2026-08-24T14:02:52Z</time>
      </trkpt>
      <trkpt lat="49.1625" lon="4.01138">
        <ele>209.6</ele>
        <time>2026-08-24T14:02:53Z</time>
      </trkpt>
      <trkpt lat="49.16247" lon="4.01138">
        <ele>209.8</ele>
        <time>2026-08-24T14:02:54Z</time>
      </trkpt>
      <trkpt lat="49.16244" lon="4.01137">
        <ele>209.8</ele>
        <time>2026-08-24T14:02:55Z</time>
      </trkpt>
      <trkpt lat="49.16241" lon="4.01136">
        <ele>210</ele>
        <time>2026-08-24T14:02:56Z</time>
      </trkpt>
      <trkpt lat="49.16239" lon="4.01136">
        <ele>210.2</ele>
        <time>2026-08-24T14:02:57Z</time>
      </trkpt>
      <trkpt lat="49.16236" lon="4.01135">
        <ele>210.4</ele>
        <time>2026-08-24T14:02:58Z</time>
      </trkpt>
      <trkpt lat="49.16233" lon="4.01135">
        <ele>210.6</ele>
        <time>2026-08-24T14:02:59Z</time>
      </trkpt>
      <trkpt lat="49.1623" lon="4.01134">
        <ele>210.6</ele>
        <time>2026-08-24T14:03:00Z</time>
      </trkpt>
      <trkpt lat="49.16227" lon="4.01133">
        <ele>210.8</ele>
        <time>2026-08-24T14:03:01Z</time>
      </trkpt>
      <trkpt lat="49.16224" lon="4.01133">
        <ele>211</ele>
        <time>2026-08-24T14:03:02Z</time>
      </trkpt>
      <trkpt lat="49.16221" lon="4.01132">
        <ele>211.4</ele>
        <time>2026-08-24T14:03:03Z</time>
      </trkpt>
      <trkpt lat="49.16218" lon="4.01132">
        <ele>211.6</ele>
        <time>2026-08-24T14:03:04Z</time>
      </trkpt>
      <trkpt lat="49.16215" lon="4.01131">
        <ele>211.8</ele>
        <time>2026-08-24T14:03:05Z</time>
      </trkpt>
      <trkpt lat="49.16212" lon="4.01131">
        <ele>212.2</ele>
        <time>2026-08-24T14:03:06Z</time>
      </trkpt>
      <trkpt lat="49.1621" lon="4.0113">
        <ele>212.4</ele>
        <time>2026-08-24T14:03:07Z</time>
      </trkpt>
      <trkpt lat="49.16207" lon="4.0113">
        <ele>212.8</ele>
        <time>2026-08-24T14:03:08Z</time>
      </trkpt>
      <trkpt lat="49.16204" lon="4.01129">
        <ele>213</ele>
        <time>2026-08-24T14:03:09Z</time>
      </trkpt>
      <trkpt lat="49.16201" lon="4.01129">
        <ele>213.2</ele>
        <time>2026-08-24T14:03:10Z</time>
      </trkpt>
      <trkpt lat="49.16199" lon="4.01129">
        <ele>213.6</ele>
        <time>2026-08-24T14:03:11Z</time>
      </trkpt>
      <trkpt lat="49.16196" lon="4.01128">
        <ele>213.8</ele>
        <time>2026-08-24T14:03:12Z</time>
      </trkpt>
      <trkpt lat="49.16193" lon="4.01128">
        <ele>213.8</ele>
        <time>2026-08-24T14:03:13Z</time>
      </trkpt>
      <trkpt lat="49.1619" lon="4.01127">
        <ele>214</ele>
        <time>2026-08-24T14:03:14Z</time>
      </trkpt>
      <trkpt lat="49.16187" lon="4.01126">
        <ele>214.2</ele>
        <time>2026-08-24T14:03:15Z</time>
      </trkpt>
      <trkpt lat="49.16184" lon="4.01125">
        <ele>214.4</ele>
        <time>2026-08-24T14:03:16Z</time>
      </trkpt>
      <trkpt lat="49.16181" lon="4.01123">
        <ele>214.4</ele>
        <time>2026-08-24T14:03:17Z</time>
      </trkpt>
      <trkpt lat="49.16178" lon="4.01122">
        <ele>214.8</ele>
        <time>2026-08-24T14:03:18Z</time>
      </trkpt>
      <trkpt lat="49.16175" lon="4.0112">
        <ele>215</ele>
        <time>2026-08-24T14:03:19Z</time>
      </trkpt>
      <trkpt lat="49.16172" lon="4.01118">
        <ele>215.2</ele>
        <time>2026-08-24T14:03:20Z</time>
      </trkpt>
      <trkpt lat="49.1617" lon="4.01117">
        <ele>215.4</ele>
        <time>2026-08-24T14:03:21Z</time>
      </trkpt>
      <trkpt lat="49.16167" lon="4.01115">
        <ele>215.8</ele>
        <time>2026-08-24T14:03:22Z</time>
      </trkpt>
      <trkpt lat="49.16164" lon="4.01112">
        <ele>216</ele>
        <time>2026-08-24T14:03:23Z</time>
      </trkpt>
      <trkpt lat="49.16161" lon="4.0111">
        <ele>216.2</ele>
        <time>2026-08-24T14:03:24Z</time>
      </trkpt>
      <trkpt lat="49.16158" lon="4.01108">
        <ele>216.4</ele>
        <time>2026-08-24T14:03:25Z</time>
      </trkpt>
      <trkpt lat="49.16155" lon="4.01105">
        <ele>216.6</ele>
        <time>2026-08-24T14:03:26Z</time>
      </trkpt>
      <trkpt lat="49.16152" lon="4.01103">
        <ele>216.6</ele>
        <time>2026-08-24T14:03:27Z</time>
      </trkpt>
      <trkpt lat="49.1615" lon="4.011">
        <ele>216.8</ele>
        <time>2026-08-24T14:03:28Z</time>
      </trkpt>
      <trkpt lat="49.16147" lon="4.01097">
        <ele>217</ele>
        <time>2026-08-24T14:03:29Z</time>
      </trkpt>
      <trkpt lat="49.16144" lon="4.01094">
        <ele>217.2</ele>
        <time>2026-08-24T14:03:30Z</time>
      </trkpt>
      <trkpt lat="49.16141" lon="4.01091">
        <ele>217.4</ele>
        <time>2026-08-24T14:03:31Z</time>
      </trkpt>
      <trkpt lat="49.16138" lon="4.01088">
        <ele>217.6</ele>
        <time>2026-08-24T14:03:32Z</time>
      </trkpt>
      <trkpt lat="49.16136" lon="4.01085">
        <ele>217.8</ele>
        <time>2026-08-24T14:03:33Z</time>
      </trkpt>
      <trkpt lat="49.16133" lon="4.01082">
        <ele>218</ele>
        <time>2026-08-24T14:03:34Z</time>
      </trkpt>
      <trkpt lat="49.16131" lon="4.01079">
        <ele>218.2</ele>
        <time>2026-08-24T14:03:35Z</time>
      </trkpt>
      <trkpt lat="49.16129" lon="4.01075">
        <ele>218.4</ele>
        <time>2026-08-24T14:03:36Z</time>
      </trkpt>
      <trkpt lat="49.16127" lon="4.01072">
        <ele>218.6</ele>
        <time>2026-08-24T14:03:37Z</time>
      </trkpt>
      <trkpt lat="49.16125" lon="4.01069">
        <ele>218.8</ele>
        <time>2026-08-24T14:03:38Z</time>
      </trkpt>
      <trkpt lat="49.16122" lon="4.01065">
        <ele>219</ele>
        <time>2026-08-24T14:03:39Z</time>
      </trkpt>
      <trkpt lat="49.1612" lon="4.01062">
        <ele>219.2</ele>
        <time>2026-08-24T14:03:40Z</time>
      </trkpt>
      <trkpt lat="49.16118" lon="4.01058">
        <ele>219.4</ele>
        <time>2026-08-24T14:03:41Z</time>
      </trkpt>
      <trkpt lat="49.16116" lon="4.01054">
        <ele>219.4</ele>
        <time>2026-08-24T14:03:42Z</time>
      </trkpt>
      <trkpt lat="49.16114" lon="4.01051">
        <ele>219.6</ele>
        <time>2026-08-24T14:03:43Z</time>
      </trkpt>
      <trkpt lat="49.16112" lon="4.01047">
        <ele>219.8</ele>
        <time>2026-08-24T14:03:44Z</time>
      </trkpt>
      <trkpt lat="49.16111" lon="4.01043">
        <ele>220</ele>
        <time>2026-08-24T14:03:45Z</time>
      </trkpt>
      <trkpt lat="49.16109" lon="4.01039">
        <ele>220.2</ele>
        <time>2026-08-24T14:03:46Z</time>
      </trkpt>
      <trkpt lat="49.16107" lon="4.01035">
        <ele>220.4</ele>
        <time>2026-08-24T14:03:47Z</time>
      </trkpt>
      <trkpt lat="49.16105" lon="4.01031">
        <ele>220.6</ele>
        <time>2026-08-24T14:03:48Z</time>
      </trkpt>
      <trkpt lat="49.16104" lon="4.01026">
        <ele>220.8</ele>
        <time>2026-08-24T14:03:49Z</time>
      </trkpt>
      <trkpt lat="49.16102" lon="4.01022">
        <ele>221</ele>
        <time>2026-08-24T14:03:50Z</time>
      </trkpt>
      <trkpt lat="49.16101" lon="4.01018">
        <ele>221.2</ele>
        <time>2026-08-24T14:03:51Z</time>
      </trkpt>
      <trkpt lat="49.16099" lon="4.01013">
        <ele>221.4</ele>
        <time>2026-08-24T14:03:52Z</time>
      </trkpt>
      <trkpt lat="49.16098" lon="4.01008">
        <ele>221.6</ele>
        <time>2026-08-24T14:03:53Z</time>
      </trkpt>
      <trkpt lat="49.16097" lon="4.01003">
        <ele>221.8</ele>
        <time>2026-08-24T14:03:54Z</time>
      </trkpt>
      <trkpt lat="49.16096" lon="4.00998">
        <ele>222</ele>
        <time>2026-08-24T14:03:55Z</time>
      </trkpt>
      <trkpt lat="49.16096" lon="4.00993">
        <ele>222.2</ele>
        <time>2026-08-24T14:03:56Z</time>
      </trkpt>
      <trkpt lat="49.16096" lon="4.00988">
        <ele>222.4</ele>
        <time>2026-08-24T14:03:57Z</time>
      </trkpt>
      <trkpt lat="49.16096" lon="4.00983">
        <ele>222.4</ele>
        <time>2026-08-24T14:03:58Z</time>
      </trkpt>
      <trkpt lat="49.16096" lon="4.00978">
        <ele>222.6</ele>
        <time>2026-08-24T14:03:59Z</time>
      </trkpt>
      <trkpt lat="49.16096" lon="4.00972">
        <ele>222.8</ele>
        <time>2026-08-24T14:04:00Z</time>
      </trkpt>
      <trkpt lat="49.16097" lon="4.00967">
        <ele>222.8</ele>
        <time>2026-08-24T14:04:01Z</time>
      </trkpt>
      <trkpt lat="49.16097" lon="4.00961">
        <ele>223</ele>
        <time>2026-08-24T14:04:02Z</time>
      </trkpt>
      <trkpt lat="49.16097" lon="4.00955">
        <ele>223.2</ele>
        <time>2026-08-24T14:04:03Z</time>
      </trkpt>
      <trkpt lat="49.16096" lon="4.0095">
        <ele>223.2</ele>
        <time>2026-08-24T14:04:04Z</time>
      </trkpt>
      <trkpt lat="49.16096" lon="4.00944">
        <ele>223.4</ele>
        <time>2026-08-24T14:04:05Z</time>
      </trkpt>
      <trkpt lat="49.16095" lon="4.00938">
        <ele>223.6</ele>
        <time>2026-08-24T14:04:06Z</time>
      </trkpt>
      <trkpt lat="49.16095" lon="4.00933">
        <ele>223.6</ele>
        <time>2026-08-24T14:04:07Z</time>
      </trkpt>
      <trkpt lat="49.16095" lon="4.00928">
        <ele>223.6</ele>
        <time>2026-08-24T14:04:08Z</time>
      </trkpt>
      <trkpt lat="49.16095" lon="4.00922">
        <ele>223.8</ele>
        <time>2026-08-24T14:04:09Z</time>
      </trkpt>
      <trkpt lat="49.16094" lon="4.00916">
        <ele>223.8</ele>
        <time>2026-08-24T14:04:10Z</time>
      </trkpt>
      <trkpt lat="49.16094" lon="4.0091">
        <ele>223.8</ele>
        <time>2026-08-24T14:04:11Z</time>
      </trkpt>
      <trkpt lat="49.16093" lon="4.00903">
        <ele>223.8</ele>
        <time>2026-08-24T14:04:12Z</time>
      </trkpt>
      <trkpt lat="49.16093" lon="4.00896">
        <ele>223.8</ele>
        <time>2026-08-24T14:04:13Z</time>
      </trkpt>
      <trkpt lat="49.16092" lon="4.00889">
        <ele>223.8</ele>
        <time>2026-08-24T14:04:14Z</time>
      </trkpt>
      <trkpt lat="49.16092" lon="4.00882">
        <ele>223.8</ele>
        <time>2026-08-24T14:04:15Z</time>
      </trkpt>
      <trkpt lat="49.16091" lon="4.00874">
        <ele>223.8</ele>
        <time>2026-08-24T14:04:16Z</time>
      </trkpt>
      <trkpt lat="49.1609" lon="4.00866">
        <ele>223.6</ele>
        <time>2026-08-24T14:04:17Z</time>
      </trkpt>
      <trkpt lat="49.1609" lon="4.00857">
        <ele>223.4</ele>
        <time>2026-08-24T14:04:18Z</time>
      </trkpt>
      <trkpt lat="49.16089" lon="4.00847">
        <ele>223.4</ele>
        <time>2026-08-24T14:04:19Z</time>
      </trkpt>
      <trkpt lat="49.16088" lon="4.00837">
        <ele>223.2</ele>
        <time>2026-08-24T14:04:20Z</time>
      </trkpt>
      <trkpt lat="49.16087" lon="4.00827">
        <ele>223</ele>
        <time>2026-08-24T14:04:21Z</time>
      </trkpt>
      <trkpt lat="49.16086" lon="4.00816">
        <ele>222.6</ele>
        <time>2026-08-24T14:04:22Z</time>
      </trkpt>
      <trkpt lat="49.16085" lon="4.00805">
        <ele>222.4</ele>
        <time>2026-08-24T14:04:23Z</time>
      </trkpt>
      <trkpt lat="49.16083" lon="4.00794">
        <ele>222.2</ele>
        <time>2026-08-24T14:04:24Z</time>
      </trkpt>
      <trkpt lat="49.16081" lon="4.00782">
        <ele>221.8</ele>
        <time>2026-08-24T14:04:25Z</time>
      </trkpt>
      <trkpt lat="49.16079" lon="4.00771">
        <ele>221.6</ele>
        <time>2026-08-24T14:04:26Z</time>
      </trkpt>
      <trkpt lat="49.16076" lon="4.00759">
        <ele>221.2</ele>
        <time>2026-08-24T14:04:27Z</time>
      </trkpt>
      <trkpt lat="49.16073" lon="4.00746">
        <ele>220.4</ele>
        <time>2026-08-24T14:04:28Z</time>
      </trkpt>
      <trkpt lat="49.16069" lon="4.00734">
        <ele>219.8</ele>
        <time>2026-08-24T14:04:29Z</time>
      </trkpt>
      <trkpt lat="49.16065" lon="4.00722">
        <ele>219.4</ele>
        <time>2026-08-24T14:04:30Z</time>
      </trkpt>
      <trkpt lat="49.1606" lon="4.0071">
        <ele>218.6</ele>
        <time>2026-08-24T14:04:31Z</time>
      </trkpt>
      <trkpt lat="49.16055" lon="4.00698">
        <ele>218</ele>
        <time>2026-08-24T14:04:32Z</time>
      </trkpt>
      <trkpt lat="49.1605" lon="4.00686">
        <ele>217.6</ele>
        <time>2026-08-24T14:04:33Z</time>
      </trkpt>
      <trkpt lat="49.16045" lon="4.00673">
        <ele>217.2</ele>
        <time>2026-08-24T14:04:34Z</time>
      </trkpt>
      <trkpt lat="49.16039" lon="4.00661">
        <ele>216.6</ele>
        <time>2026-08-24T14:04:35Z</time>
      </trkpt>
      <trkpt lat="49.16034" lon="4.00648">
        <ele>216.2</ele>
        <time>2026-08-24T14:04:36Z</time>
      </trkpt>
      <trkpt lat="49.16029" lon="4.00635">
        <ele>215.6</ele>
        <time>2026-08-24T14:04:37Z</time>
      </trkpt>
      <trkpt lat="49.16023" lon="4.00622">
        <ele>215.2</ele>
        <time>2026-08-24T14:04:38Z</time>
      </trkpt>
      <trkpt lat="49.16017" lon="4.00609">
        <ele>214.4</ele>
        <time>2026-08-24T14:04:39Z</time>
      </trkpt>
      <trkpt lat="49.16012" lon="4.00595">
        <ele>213.6</ele>
        <time>2026-08-24T14:04:40Z</time>
      </trkpt>
      <trkpt lat="49.16005" lon="4.00581">
        <ele>212.6</ele>
        <time>2026-08-24T14:04:41Z</time>
      </trkpt>
      <trkpt lat="49.15999" lon="4.00567">
        <ele>211.4</ele>
        <time>2026-08-24T14:04:42Z</time>
      </trkpt>
      <trkpt lat="49.15993" lon="4.00552">
        <ele>210.2</ele>
        <time>2026-08-24T14:04:43Z</time>
      </trkpt>
      <trkpt lat="49.15986" lon="4.00537">
        <ele>209.4</ele>
        <time>2026-08-24T14:04:44Z</time>
      </trkpt>
      <trkpt lat="49.1598" lon="4.00521">
        <ele>208.2</ele>
        <time>2026-08-24T14:04:45Z</time>
      </trkpt>
      <trkpt lat="49.15973" lon="4.00505">
        <ele>207.4</ele>
        <time>2026-08-24T14:04:46Z</time>
      </trkpt>
      <trkpt lat="49.15967" lon="4.00489">
        <ele>206.4</ele>
        <time>2026-08-24T14:04:47Z</time>
      </trkpt>
      <trkpt lat="49.1596" lon="4.00472">
        <ele>205.4</ele>
        <time>2026-08-24T14:04:48Z</time>
      </trkpt>
      <trkpt lat="49.15954" lon="4.00454">
        <ele>204.2</ele>
        <time>2026-08-24T14:04:49Z</time>
      </trkpt>
      <trkpt lat="49.15947" lon="4.00436">
        <ele>202.8</ele>
        <time>2026-08-24T14:04:50Z</time>
      </trkpt>
      <trkpt lat="49.15941" lon="4.00417">
        <ele>201.6</ele>
        <time>2026-08-24T14:04:51Z</time>
      </trkpt>
      <trkpt lat="49.15935" lon="4.00398">
        <ele>200.2</ele>
        <time>2026-08-24T14:04:52Z</time>
      </trkpt>
      <trkpt lat="49.15929" lon="4.00379">
        <ele>199</ele>
        <time>2026-08-24T14:04:53Z</time>
      </trkpt>
      <trkpt lat="49.15923" lon="4.0036">
        <ele>197.8</ele>
        <time>2026-08-24T14:04:54Z</time>
      </trkpt>
      <trkpt lat="49.15917" lon="4.0034">
        <ele>196.8</ele>
        <time>2026-08-24T14:04:55Z</time>
      </trkpt>
      <trkpt lat="49.15911" lon="4.00319">
        <ele>195.4</ele>
        <time>2026-08-24T14:04:56Z</time>
      </trkpt>
      <trkpt lat="49.15905" lon="4.00299">
        <ele>194.2</ele>
        <time>2026-08-24T14:04:57Z</time>
      </trkpt>
      <trkpt lat="49.15899" lon="4.00278">
        <ele>192.8</ele>
        <time>2026-08-24T14:04:58Z</time>
      </trkpt>
      <trkpt lat="49.15893" lon="4.00256">
        <ele>191.4</ele>
        <time>2026-08-24T14:04:59Z</time>
      </trkpt>
      <trkpt lat="49.15887" lon="4.00235">
        <ele>189.8</ele>
        <time>2026-08-24T14:05:00Z</time>
      </trkpt>
      <trkpt lat="49.15881" lon="4.00214">
        <ele>188</ele>
        <time>2026-08-24T14:05:01Z</time>
      </trkpt>
      <trkpt lat="49.15875" lon="4.00193">
        <ele>186.4</ele>
        <time>2026-08-24T14:05:02Z</time>
      </trkpt>
      <trkpt lat="49.15869" lon="4.00172">
        <ele>184.8</ele>
        <time>2026-08-24T14:05:03Z</time>
      </trkpt>
      <trkpt lat="49.15864" lon="4.0015">
        <ele>183</ele>
        <time>2026-08-24T14:05:04Z</time>
      </trkpt>
      <trkpt lat="49.15858" lon="4.00129">
        <ele>181.8</ele>
        <time>2026-08-24T14:05:05Z</time>
      </trkpt>
      <trkpt lat="49.15852" lon="4.00107">
        <ele>179.8</ele>
        <time>2026-08-24T14:05:06Z</time>
      </trkpt>
      <trkpt lat="49.15846" lon="4.00086">
        <ele>178.8</ele>
        <time>2026-08-24T14:05:07Z</time>
      </trkpt>
      <trkpt lat="49.1584" lon="4.00064">
        <ele>177.4</ele>
        <time>2026-08-24T14:05:08Z</time>
      </trkpt>
      <trkpt lat="49.15834" lon="4.00043">
        <ele>176.2</ele>
        <time>2026-08-24T14:05:09Z</time>
      </trkpt>
      <trkpt lat="49.15828" lon="4.00021">
        <ele>175.4</ele>
        <time>2026-08-24T14:05:10Z</time>
      </trkpt>
      <trkpt lat="49.15822" lon="3.99999">
        <ele>174.4</ele>
        <time>2026-08-24T14:05:11Z</time>
      </trkpt>
      <trkpt lat="49.15815" lon="3.99978">
        <ele>173</ele>
        <time>2026-08-24T14:05:12Z</time>
      </trkpt>
      <trkpt lat="49.15809" lon="3.99956">
        <ele>171.8</ele>
        <time>2026-08-24T14:05:13Z</time>
      </trkpt>
      <trkpt lat="49.15803" lon="3.99934">
        <ele>170.4</ele>
        <time>2026-08-24T14:05:14Z</time>
      </trkpt>
      <trkpt lat="49.15797" lon="3.99913">
        <ele>168.6</ele>
        <time>2026-08-24T14:05:15Z</time>
      </trkpt>
      <trkpt lat="49.15791" lon="3.99891">
        <ele>167.2</ele>
        <time>2026-08-24T14:05:16Z</time>
      </trkpt>
      <trkpt lat="49.15785" lon="3.9987">
        <ele>165.8</ele>
        <time>2026-08-24T14:05:17Z</time>
      </trkpt>
      <trkpt lat="49.15779" lon="3.99849">
        <ele>164.4</ele>
        <time>2026-08-24T14:05:18Z</time>
      </trkpt>
      <trkpt lat="49.15773" lon="3.99829">
        <ele>163.6</ele>
        <time>2026-08-24T14:05:19Z</time>
      </trkpt>
      <trkpt lat="49.15768" lon="3.9981">
        <ele>163.4</ele>
        <time>2026-08-24T14:05:20Z</time>
      </trkpt>
      <trkpt lat="49.15762" lon="3.99791">
        <ele>163.4</ele>
        <time>2026-08-24T14:05:21Z</time>
      </trkpt>
      <trkpt lat="49.15758" lon="3.99774">
        <ele>163.8</ele>
        <time>2026-08-24T14:05:22Z</time>
      </trkpt>
      <trkpt lat="49.15753" lon="3.99758">
        <ele>164.6</ele>
        <time>2026-08-24T14:05:23Z</time>
      </trkpt>
      <trkpt lat="49.15749" lon="3.99743">
        <ele>165.6</ele>
        <time>2026-08-24T14:05:24Z</time>
      </trkpt>
      <trkpt lat="49.15745" lon="3.9973">
        <ele>166.4</ele>
        <time>2026-08-24T14:05:25Z</time>
      </trkpt>
      <trkpt lat="49.15741" lon="3.99717">
        <ele>167.4</ele>
        <time>2026-08-24T14:05:26Z</time>
      </trkpt>
      <trkpt lat="49.15738" lon="3.99705">
        <ele>168.4</ele>
        <time>2026-08-24T14:05:27Z</time>
      </trkpt>
      <trkpt lat="49.15735" lon="3.99694">
        <ele>169.4</ele>
        <time>2026-08-24T14:05:28Z</time>
      </trkpt>
      <trkpt lat="49.15732" lon="3.99683">
        <ele>170.4</ele>
        <time>2026-08-24T14:05:29Z</time>
      </trkpt>
      <trkpt lat="49.15729" lon="3.99673">
        <ele>171.2</ele>
        <time>2026-08-24T14:05:30Z</time>
      </trkpt>
      <trkpt lat="49.15726" lon="3.99663">
        <ele>172.2</ele>
        <time>2026-08-24T14:05:31Z</time>
      </trkpt>
      <trkpt lat="49.15724" lon="3.99654">
        <ele>172.8</ele>
        <time>2026-08-24T14:05:32Z</time>
      </trkpt>
      <trkpt lat="49.15721" lon="3.99646">
        <ele>173.6</ele>
        <time>2026-08-24T14:05:33Z</time>
      </trkpt>
      <trkpt lat="49.15719" lon="3.99637">
        <ele>174.4</ele>
        <time>2026-08-24T14:05:34Z</time>
      </trkpt>
      <trkpt lat="49.15717" lon="3.99631">
        <ele>174.8</ele>
        <time>2026-08-24T14:05:35Z</time>
      </trkpt>
      <trkpt lat="49.15715" lon="3.99622">
        <ele>175.4</ele>
        <time>2026-08-24T14:05:36Z</time>
      </trkpt>
      <trkpt lat="49.15713" lon="3.99615">
        <ele>176</ele>
        <time>2026-08-24T14:05:37Z</time>
      </trkpt>
      <trkpt lat="49.15711" lon="3.99607">
        <ele>176.4</ele>
        <time>2026-08-24T14:05:38Z</time>
      </trkpt>
      <trkpt lat="49.15709" lon="3.996">
        <ele>176.6</ele>
        <time>2026-08-24T14:05:39Z</time>
      </trkpt>
      <trkpt lat="49.15707" lon="3.99592">
        <ele>176.8</ele>
        <time>2026-08-24T14:05:40Z</time>
      </trkpt>
      <trkpt lat="49.15705" lon="3.99583">
        <ele>177</ele>
        <time>2026-08-24T14:05:41Z</time>
      </trkpt>
      <trkpt lat="49.15703" lon="3.99574">
        <ele>176.8</ele>
        <time>2026-08-24T14:05:42Z</time>
      </trkpt>
      <trkpt lat="49.157" lon="3.99563">
        <ele>176.6</ele>
        <time>2026-08-24T14:05:43Z</time>
      </trkpt>
      <trkpt lat="49.15698" lon="3.99552">
        <ele>176.2</ele>
        <time>2026-08-24T14:05:44Z</time>
      </trkpt>
      <trkpt lat="49.15695" lon="3.9954">
        <ele>175.6</ele>
        <time>2026-08-24T14:05:45Z</time>
      </trkpt>
      <trkpt lat="49.15693" lon="3.99528">
        <ele>175</ele>
        <time>2026-08-24T14:05:46Z</time>
      </trkpt>
      <trkpt lat="49.15691" lon="3.99514">
        <ele>174</ele>
        <time>2026-08-24T14:05:47Z</time>
      </trkpt>
      <trkpt lat="49.15689" lon="3.995">
        <ele>173.2</ele>
        <time>2026-08-24T14:05:48Z</time>
      </trkpt>
      <trkpt lat="49.15688" lon="3.99485">
        <ele>172.2</ele>
        <time>2026-08-24T14:05:49Z</time>
      </trkpt>
      <trkpt lat="49.15687" lon="3.99472">
        <ele>171</ele>
        <time>2026-08-24T14:05:50Z</time>
      </trkpt>
      <trkpt lat="49.15686" lon="3.99452">
        <ele>169.8</ele>
        <time>2026-08-24T14:05:51Z</time>
      </trkpt>
      <trkpt lat="49.15686" lon="3.99435">
        <ele>168.8</ele>
        <time>2026-08-24T14:05:52Z</time>
      </trkpt>
      <trkpt lat="49.15687" lon="3.99417">
        <ele>167.8</ele>
        <time>2026-08-24T14:05:53Z</time>
      </trkpt>
      <trkpt lat="49.15689" lon="3.99399">
        <ele>167</ele>
        <time>2026-08-24T14:05:54Z</time>
      </trkpt>
      <trkpt lat="49.15691" lon="3.99381">
        <ele>166</ele>
        <time>2026-08-24T14:05:55Z</time>
      </trkpt>
      <trkpt lat="49.15693" lon="3.99364">
        <ele>165.4</ele>
        <time>2026-08-24T14:05:56Z</time>
      </trkpt>
      <trkpt lat="49.15695" lon="3.99346">
        <ele>164.8</ele>
        <time>2026-08-24T14:05:57Z</time>
      </trkpt>
      <trkpt lat="49.15698" lon="3.9933">
        <ele>164.4</ele>
        <time>2026-08-24T14:05:58Z</time>
      </trkpt>
      <trkpt lat="49.15701" lon="3.99314">
        <ele>164</ele>
        <time>2026-08-24T14:05:59Z</time>
      </trkpt>
      <trkpt lat="49.15704" lon="3.99298">
        <ele>163.8</ele>
        <time>2026-08-24T14:06:00Z</time>
      </trkpt>
      <trkpt lat="49.15706" lon="3.99283">
        <ele>163.6</ele>
        <time>2026-08-24T14:06:01Z</time>
      </trkpt>
      <trkpt lat="49.15709" lon="3.99268">
        <ele>163.6</ele>
        <time>2026-08-24T14:06:02Z</time>
      </trkpt>
      <trkpt lat="49.15712" lon="3.99253">
        <ele>163.6</ele>
        <time>2026-08-24T14:06:03Z</time>
      </trkpt>
      <trkpt lat="49.15714" lon="3.99239">
        <ele>163.8</ele>
        <time>2026-08-24T14:06:04Z</time>
      </trkpt>
      <trkpt lat="49.15717" lon="3.99225">
        <ele>163.8</ele>
        <time>2026-08-24T14:06:05Z</time>
      </trkpt>
      <trkpt lat="49.15719" lon="3.99211">
        <ele>164</ele>
        <time>2026-08-24T14:06:06Z</time>
      </trkpt>
      <trkpt lat="49.15722" lon="3.99198">
        <ele>164.4</ele>
        <time>2026-08-24T14:06:07Z</time>
      </trkpt>
      <trkpt lat="49.15724" lon="3.99185">
        <ele>164.8</ele>
        <time>2026-08-24T14:06:08Z</time>
      </trkpt>
      <trkpt lat="49.15727" lon="3.99173">
        <ele>165.2</ele>
        <time>2026-08-24T14:06:09Z</time>
      </trkpt>
      <trkpt lat="49.15729" lon="3.99161">
        <ele>165.6</ele>
        <time>2026-08-24T14:06:10Z</time>
      </trkpt>
      <trkpt lat="49.15732" lon="3.99149">
        <ele>166</ele>
        <time>2026-08-24T14:06:11Z</time>
      </trkpt>
      <trkpt lat="49.15734" lon="3.99138">
        <ele>166.6</ele>
        <time>2026-08-24T14:06:12Z</time>
      </trkpt>
      <trkpt lat="49.15736" lon="3.99127">
        <ele>167</ele>
        <time>2026-08-24T14:06:13Z</time>
      </trkpt>
      <trkpt lat="49.15738" lon="3.99118">
        <ele>167.6</ele>
        <time>2026-08-24T14:06:14Z</time>
      </trkpt>
      <trkpt lat="49.1574" lon="3.99108">
        <ele>168</ele>
        <time>2026-08-24T14:06:15Z</time>
      </trkpt>
      <trkpt lat="49.15741" lon="3.991">
        <ele>168.6</ele>
        <time>2026-08-24T14:06:16Z</time>
      </trkpt>
      <trkpt lat="49.15743" lon="3.99091">
        <ele>169.2</ele>
        <time>2026-08-24T14:06:17Z</time>
      </trkpt>
      <trkpt lat="49.15744" lon="3.99084">
        <ele>169.6</ele>
        <time>2026-08-24T14:06:18Z</time>
      </trkpt>
      <trkpt lat="49.15746" lon="3.99076">
        <ele>170.2</ele>
        <time>2026-08-24T14:06:19Z</time>
      </trkpt>
      <trkpt lat="49.15747" lon="3.99069">
        <ele>170.6</ele>
        <time>2026-08-24T14:06:20Z</time>
      </trkpt>
      <trkpt lat="49.15748" lon="3.99062">
        <ele>171</ele>
        <time>2026-08-24T14:06:21Z</time>
      </trkpt>
      <trkpt lat="49.15749" lon="3.99055">
        <ele>171.4</ele>
        <time>2026-08-24T14:06:22Z</time>
      </trkpt>
      <trkpt lat="49.15751" lon="3.99049">
        <ele>172</ele>
        <time>2026-08-24T14:06:23Z</time>
      </trkpt>
      <trkpt lat="49.15752" lon="3.99042">
        <ele>172.4</ele>
        <time>2026-08-24T14:06:24Z</time>
      </trkpt>
      <trkpt lat="49.15753" lon="3.99035">
        <ele>172.6</ele>
        <time>2026-08-24T14:06:25Z</time>
      </trkpt>
      <trkpt lat="49.15754" lon="3.99029">
        <ele>173</ele>
        <time>2026-08-24T14:06:26Z</time>
      </trkpt>
      <trkpt lat="49.15756" lon="3.99023">
        <ele>173.4</ele>
        <time>2026-08-24T14:06:27Z</time>
      </trkpt>
      <trkpt lat="49.15757" lon="3.99016">
        <ele>173.8</ele>
        <time>2026-08-24T14:06:28Z</time>
      </trkpt>
      <trkpt lat="49.15758" lon="3.9901">
        <ele>174</ele>
        <time>2026-08-24T14:06:29Z</time>
      </trkpt>
      <trkpt lat="49.15759" lon="3.99004">
        <ele>174.2</ele>
        <time>2026-08-24T14:06:30Z</time>
      </trkpt>
      <trkpt lat="49.1576" lon="3.98998">
        <ele>174.6</ele>
        <time>2026-08-24T14:06:31Z</time>
      </trkpt>
      <trkpt lat="49.15761" lon="3.98991">
        <ele>174.8</ele>
        <time>2026-08-24T14:06:32Z</time>
      </trkpt>
      <trkpt lat="49.15762" lon="3.98985">
        <ele>175</ele>
        <time>2026-08-24T14:06:33Z</time>
      </trkpt>
      <trkpt lat="49.15763" lon="3.98979">
        <ele>175.4</ele>
        <time>2026-08-24T14:06:34Z</time>
      </trkpt>
      <trkpt lat="49.15764" lon="3.98973">
        <ele>175.8</ele>
        <time>2026-08-24T14:06:35Z</time>
      </trkpt>
      <trkpt lat="49.15765" lon="3.98967">
        <ele>176</ele>
        <time>2026-08-24T14:06:36Z</time>
      </trkpt>
      <trkpt lat="49.15765" lon="3.9896">
        <ele>176.4</ele>
        <time>2026-08-24T14:06:37Z</time>
      </trkpt>
      <trkpt lat="49.15766" lon="3.98954">
        <ele>176.6</ele>
        <time>2026-08-24T14:06:38Z</time>
      </trkpt>
      <trkpt lat="49.15766" lon="3.98948">
        <ele>176.8</ele>
        <time>2026-08-24T14:06:39Z</time>
      </trkpt>
      <trkpt lat="49.15767" lon="3.98942">
        <ele>177.2</ele>
        <time>2026-08-24T14:06:40Z</time>
      </trkpt>
      <trkpt lat="49.15767" lon="3.98935">
        <ele>177.4</ele>
        <time>2026-08-24T14:06:41Z</time>
      </trkpt>
      <trkpt lat="49.15767" lon="3.98929">
        <ele>177.4</ele>
        <time>2026-08-24T14:06:42Z</time>
      </trkpt>
      <trkpt lat="49.15767" lon="3.98922">
        <ele>177.6</ele>
        <time>2026-08-24T14:06:43Z</time>
      </trkpt>
      <trkpt lat="49.15767" lon="3.98915">
        <ele>177.8</ele>
        <time>2026-08-24T14:06:44Z</time>
      </trkpt>
      <trkpt lat="49.15767" lon="3.98908">
        <ele>177.6</ele>
        <time>2026-08-24T14:06:45Z</time>
      </trkpt>
      <trkpt lat="49.15766" lon="3.989">
        <ele>177.6</ele>
        <time>2026-08-24T14:06:46Z</time>
      </trkpt>
      <trkpt lat="49.15765" lon="3.98892">
        <ele>177.6</ele>
        <time>2026-08-24T14:06:47Z</time>
      </trkpt>
      <trkpt lat="49.15764" lon="3.98883">
        <ele>177.4</ele>
        <time>2026-08-24T14:06:48Z</time>
      </trkpt>
      <trkpt lat="49.15763" lon="3.98874">
        <ele>177.2</ele>
        <time>2026-08-24T14:06:49Z</time>
      </trkpt>
      <trkpt lat="49.15762" lon="3.98864">
        <ele>177</ele>
        <time>2026-08-24T14:06:50Z</time>
      </trkpt>
      <trkpt lat="49.15761" lon="3.98854">
        <ele>176.6</ele>
        <time>2026-08-24T14:06:51Z</time>
      </trkpt>
      <trkpt lat="49.15759" lon="3.98843">
        <ele>176.2</ele>
        <time>2026-08-24T14:06:52Z</time>
      </trkpt>
      <trkpt lat="49.15758" lon="3.98831">
        <ele>175.6</ele>
        <time>2026-08-24T14:06:53Z</time>
      </trkpt>
      <trkpt lat="49.15756" lon="3.98819">
        <ele>175</ele>
        <time>2026-08-24T14:06:54Z</time>
      </trkpt>
      <trkpt lat="49.15754" lon="3.98807">
        <ele>174.4</ele>
        <time>2026-08-24T14:06:55Z</time>
      </trkpt>
      <trkpt lat="49.15753" lon="3.98794">
        <ele>174</ele>
        <time>2026-08-24T14:06:56Z</time>
      </trkpt>
      <trkpt lat="49.15751" lon="3.98781">
        <ele>173.4</ele>
        <time>2026-08-24T14:06:57Z</time>
      </trkpt>
      <trkpt lat="49.15749" lon="3.98767">
        <ele>172.8</ele>
        <time>2026-08-24T14:06:58Z</time>
      </trkpt>
      <trkpt lat="49.15748" lon="3.98752">
        <ele>172.4</ele>
        <time>2026-08-24T14:06:59Z</time>
      </trkpt>
      <trkpt lat="49.15747" lon="3.98738">
        <ele>172</ele>
        <time>2026-08-24T14:07:00Z</time>
      </trkpt>
      <trkpt lat="49.15747" lon="3.98722">
        <ele>171</ele>
        <time>2026-08-24T14:07:01Z</time>
      </trkpt>
      <trkpt lat="49.15748" lon="3.98707">
        <ele>170.2</ele>
        <time>2026-08-24T14:07:02Z</time>
      </trkpt>
      <trkpt lat="49.15749" lon="3.98692">
        <ele>169.4</ele>
        <time>2026-08-24T14:07:03Z</time>
      </trkpt>
      <trkpt lat="49.15751" lon="3.98677">
        <ele>168.8</ele>
        <time>2026-08-24T14:07:04Z</time>
      </trkpt>
      <trkpt lat="49.15753" lon="3.98663">
        <ele>168.6</ele>
        <time>2026-08-24T14:07:05Z</time>
      </trkpt>
      <trkpt lat="49.15756" lon="3.9865">
        <ele>168.2</ele>
        <time>2026-08-24T14:07:06Z</time>
      </trkpt>
      <trkpt lat="49.15759" lon="3.98638">
        <ele>167.6</ele>
        <time>2026-08-24T14:07:07Z</time>
      </trkpt>
      <trkpt lat="49.15763" lon="3.98625">
        <ele>167.2</ele>
        <time>2026-08-24T14:07:08Z</time>
      </trkpt>
      <trkpt lat="49.15767" lon="3.98614">
        <ele>167</ele>
        <time>2026-08-24T14:07:09Z</time>
      </trkpt>
      <trkpt lat="49.15771" lon="3.98603">
        <ele>166.2</ele>
        <time>2026-08-24T14:07:10Z</time>
      </trkpt>
      <trkpt lat="49.15776" lon="3.98593">
        <ele>165.8</ele>
        <time>2026-08-24T14:07:11Z</time>
      </trkpt>
      <trkpt lat="49.15782" lon="3.98582">
        <ele>165.6</ele>
        <time>2026-08-24T14:07:12Z</time>
      </trkpt>
      <trkpt lat="49.15788" lon="3.98572">
        <ele>165.2</ele>
        <time>2026-08-24T14:07:13Z</time>
      </trkpt>
      <trkpt lat="49.15794" lon="3.98561">
        <ele>164.6</ele>
        <time>2026-08-24T14:07:14Z</time>
      </trkpt>
      <trkpt lat="49.15799" lon="3.9855">
        <ele>164.2</ele>
        <time>2026-08-24T14:07:15Z</time>
      </trkpt>
      <trkpt lat="49.15805" lon="3.98539">
        <ele>163.6</ele>
        <time>2026-08-24T14:07:16Z</time>
      </trkpt>
      <trkpt lat="49.15811" lon="3.98529">
        <ele>163</ele>
        <time>2026-08-24T14:07:17Z</time>
      </trkpt>
      <trkpt lat="49.15816" lon="3.98518">
        <ele>162.8</ele>
        <time>2026-08-24T14:07:18Z</time>
      </trkpt>
      <trkpt lat="49.15821" lon="3.98508">
        <ele>162.8</ele>
        <time>2026-08-24T14:07:19Z</time>
      </trkpt>
      <trkpt lat="49.15826" lon="3.98498">
        <ele>162.8</ele>
        <time>2026-08-24T14:07:20Z</time>
      </trkpt>
      <trkpt lat="49.1583" lon="3.98488">
        <ele>163</ele>
        <time>2026-08-24T14:07:21Z</time>
      </trkpt>
      <trkpt lat="49.15833" lon="3.98479">
        <ele>163.4</ele>
        <time>2026-08-24T14:07:22Z</time>
      </trkpt>
      <trkpt lat="49.15836" lon="3.98471">
        <ele>164</ele>
        <time>2026-08-24T14:07:23Z</time>
      </trkpt>
      <trkpt lat="49.1584" lon="3.98465">
        <ele>164.4</ele>
        <time>2026-08-24T14:07:24Z</time>
      </trkpt>
      <trkpt lat="49.15844" lon="3.98461">
        <ele>164.6</ele>
        <time>2026-08-24T14:07:25Z</time>
      </trkpt>
      <trkpt lat="49.15848" lon="3.9846">
        <ele>165</ele>
        <time>2026-08-24T14:07:26Z</time>
      </trkpt>
      <trkpt lat="49.15852" lon="3.98461">
        <ele>165.2</ele>
        <time>2026-08-24T14:07:27Z</time>
      </trkpt>
      <trkpt lat="49.15857" lon="3.98464">
        <ele>165.2</ele>
        <time>2026-08-24T14:07:28Z</time>
      </trkpt>
      <trkpt lat="49.15862" lon="3.98467">
        <ele>165.2</ele>
        <time>2026-08-24T14:07:29Z</time>
      </trkpt>
      <trkpt lat="49.15867" lon="3.98469">
        <ele>165</ele>
        <time>2026-08-24T14:07:30Z</time>
      </trkpt>
      <trkpt lat="49.15872" lon="3.98472">
        <ele>164.8</ele>
        <time>2026-08-24T14:07:31Z</time>
      </trkpt>
      <trkpt lat="49.15878" lon="3.98475">
        <ele>164.6</ele>
        <time>2026-08-24T14:07:32Z</time>
      </trkpt>
      <trkpt lat="49.15884" lon="3.98479">
        <ele>164.4</ele>
        <time>2026-08-24T14:07:33Z</time>
      </trkpt>
      <trkpt lat="49.1589" lon="3.98482">
        <ele>164.2</ele>
        <time>2026-08-24T14:07:34Z</time>
      </trkpt>
      <trkpt lat="49.15896" lon="3.98485">
        <ele>164</ele>
        <time>2026-08-24T14:07:35Z</time>
      </trkpt>
      <trkpt lat="49.15902" lon="3.98488">
        <ele>163.8</ele>
        <time>2026-08-24T14:07:36Z</time>
      </trkpt>
      <trkpt lat="49.15908" lon="3.9849">
        <ele>163.4</ele>
        <time>2026-08-24T14:07:37Z</time>
      </trkpt>
      <trkpt lat="49.15915" lon="3.9849">
        <ele>163.2</ele>
        <time>2026-08-24T14:07:38Z</time>
      </trkpt>
      <trkpt lat="49.15921" lon="3.9849">
        <ele>162.8</ele>
        <time>2026-08-24T14:07:39Z</time>
      </trkpt>
      <trkpt lat="49.15927" lon="3.98488">
        <ele>162.4</ele>
        <time>2026-08-24T14:07:40Z</time>
      </trkpt>
      <trkpt lat="49.15933" lon="3.98486">
        <ele>162.6</ele>
        <time>2026-08-24T14:07:41Z</time>
      </trkpt>
      <trkpt lat="49.15939" lon="3.98483">
        <ele>162.8</ele>
        <time>2026-08-24T14:07:42Z</time>
      </trkpt>
      <trkpt lat="49.15945" lon="3.98479">
        <ele>163.2</ele>
        <time>2026-08-24T14:07:43Z</time>
      </trkpt>
      <trkpt lat="49.1595" lon="3.98475">
        <ele>163.4</ele>
        <time>2026-08-24T14:07:44Z</time>
      </trkpt>
      <trkpt lat="49.15955" lon="3.98469">
        <ele>163.8</ele>
        <time>2026-08-24T14:07:45Z</time>
      </trkpt>
      <trkpt lat="49.15958" lon="3.98461">
        <ele>164</ele>
        <time>2026-08-24T14:07:46Z</time>
      </trkpt>
      <trkpt lat="49.1596" lon="3.98453">
        <ele>164</ele>
        <time>2026-08-24T14:07:47Z</time>
      </trkpt>
      <trkpt lat="49.1596" lon="3.98444">
        <ele>163.8</ele>
        <time>2026-08-24T14:07:48Z</time>
      </trkpt>
      <trkpt lat="49.1596" lon="3.98436">
        <ele>164</ele>
        <time>2026-08-24T14:07:49Z</time>
      </trkpt>
      <trkpt lat="49.15959" lon="3.98428">
        <ele>164.2</ele>
        <time>2026-08-24T14:07:50Z</time>
      </trkpt>
      <trkpt lat="49.15958" lon="3.98419">
        <ele>164</ele>
        <time>2026-08-24T14:07:51Z</time>
      </trkpt>
      <trkpt lat="49.15958" lon="3.98411">
        <ele>164.2</ele>
        <time>2026-08-24T14:07:52Z</time>
      </trkpt>
      <trkpt lat="49.15957" lon="3.98402">
        <ele>164.4</ele>
        <time>2026-08-24T14:07:53Z</time>
      </trkpt>
      <trkpt lat="49.15958" lon="3.98393">
        <ele>164.2</ele>
        <time>2026-08-24T14:07:54Z</time>
      </trkpt>
      <trkpt lat="49.15959" lon="3.98383">
        <ele>164</ele>
        <time>2026-08-24T14:07:55Z</time>
      </trkpt>
      <trkpt lat="49.15961" lon="3.98374">
        <ele>163.8</ele>
        <time>2026-08-24T14:07:56Z</time>
      </trkpt>
      <trkpt lat="49.15964" lon="3.98364">
        <ele>163.6</ele>
        <time>2026-08-24T14:07:57Z</time>
      </trkpt>
      <trkpt lat="49.15968" lon="3.98354">
        <ele>163.2</ele>
        <time>2026-08-24T14:07:58Z</time>
      </trkpt>
      <trkpt lat="49.15973" lon="3.98345">
        <ele>163.2</ele>
        <time>2026-08-24T14:07:59Z</time>
      </trkpt>
      <trkpt lat="49.15978" lon="3.98335">
        <ele>163</ele>
        <time>2026-08-24T14:08:00Z</time>
      </trkpt>
      <trkpt lat="49.15983" lon="3.98325">
        <ele>162.6</ele>
        <time>2026-08-24T14:08:01Z</time>
      </trkpt>
      <trkpt lat="49.15988" lon="3.98315">
        <ele>162</ele>
        <time>2026-08-24T14:08:02Z</time>
      </trkpt>
      <trkpt lat="49.15993" lon="3.98304">
        <ele>161.8</ele>
        <time>2026-08-24T14:08:03Z</time>
      </trkpt>
      <trkpt lat="49.15999" lon="3.98294">
        <ele>161.4</ele>
        <time>2026-08-24T14:08:04Z</time>
      </trkpt>
      <trkpt lat="49.16005" lon="3.98283">
        <ele>161.2</ele>
        <time>2026-08-24T14:08:05Z</time>
      </trkpt>
      <trkpt lat="49.16011" lon="3.98272">
        <ele>160.4</ele>
        <time>2026-08-24T14:08:06Z</time>
      </trkpt>
      <trkpt lat="49.16017" lon="3.9826">
        <ele>159.8</ele>
        <time>2026-08-24T14:08:07Z</time>
      </trkpt>
      <trkpt lat="49.16023" lon="3.98249">
        <ele>159.6</ele>
        <time>2026-08-24T14:08:08Z</time>
      </trkpt>
      <trkpt lat="49.16029" lon="3.98238">
        <ele>159</ele>
        <time>2026-08-24T14:08:09Z</time>
      </trkpt>
      <trkpt lat="49.16035" lon="3.98226">
        <ele>158.2</ele>
        <time>2026-08-24T14:08:10Z</time>
      </trkpt>
      <trkpt lat="49.16041" lon="3.98214">
        <ele>157.8</ele>
        <time>2026-08-24T14:08:11Z</time>
      </trkpt>
      <trkpt lat="49.16047" lon="3.98202">
        <ele>157.2</ele>
        <time>2026-08-24T14:08:12Z</time>
      </trkpt>
      <trkpt lat="49.16054" lon="3.98189">
        <ele>156.6</ele>
        <time>2026-08-24T14:08:13Z</time>
      </trkpt>
      <trkpt lat="49.1606" lon="3.98177">
        <ele>156</ele>
        <time>2026-08-24T14:08:14Z</time>
      </trkpt>
      <trkpt lat="49.16067" lon="3.98165">
        <ele>155.6</ele>
        <time>2026-08-24T14:08:15Z</time>
      </trkpt>
      <trkpt lat="49.16073" lon="3.98152">
        <ele>155</ele>
        <time>2026-08-24T14:08:16Z</time>
      </trkpt>
      <trkpt lat="49.16079" lon="3.98139">
        <ele>154.4</ele>
        <time>2026-08-24T14:08:17Z</time>
      </trkpt>
      <trkpt lat="49.16084" lon="3.98126">
        <ele>154</ele>
        <time>2026-08-24T14:08:18Z</time>
      </trkpt>
      <trkpt lat="49.1609" lon="3.98114">
        <ele>153.6</ele>
        <time>2026-08-24T14:08:19Z</time>
      </trkpt>
      <trkpt lat="49.16096" lon="3.98101">
        <ele>153.6</ele>
        <time>2026-08-24T14:08:20Z</time>
      </trkpt>
      <trkpt lat="49.16102" lon="3.98089">
        <ele>153.6</ele>
        <time>2026-08-24T14:08:21Z</time>
      </trkpt>
      <trkpt lat="49.16108" lon="3.98077">
        <ele>153.6</ele>
        <time>2026-08-24T14:08:22Z</time>
      </trkpt>
      <trkpt lat="49.16113" lon="3.98066">
        <ele>153.6</ele>
        <time>2026-08-24T14:08:23Z</time>
      </trkpt>
      <trkpt lat="49.16118" lon="3.98054">
        <ele>153.6</ele>
        <time>2026-08-24T14:08:24Z</time>
      </trkpt>
      <trkpt lat="49.16123" lon="3.98043">
        <ele>153.4</ele>
        <time>2026-08-24T14:08:25Z</time>
      </trkpt>
      <trkpt lat="49.16129" lon="3.98033">
        <ele>153.4</ele>
        <time>2026-08-24T14:08:26Z</time>
      </trkpt>
      <trkpt lat="49.16134" lon="3.98023">
        <ele>153.4</ele>
        <time>2026-08-24T14:08:27Z</time>
      </trkpt>
      <trkpt lat="49.16138" lon="3.98012">
        <ele>153.8</ele>
        <time>2026-08-24T14:08:28Z</time>
      </trkpt>
      <trkpt lat="49.16143" lon="3.98002">
        <ele>153.8</ele>
        <time>2026-08-24T14:08:29Z</time>
      </trkpt>
      <trkpt lat="49.16147" lon="3.97992">
        <ele>154.2</ele>
        <time>2026-08-24T14:08:30Z</time>
      </trkpt>
      <trkpt lat="49.1615" lon="3.97982">
        <ele>154.4</ele>
        <time>2026-08-24T14:08:31Z</time>
      </trkpt>
      <trkpt lat="49.16154" lon="3.97972">
        <ele>154.4</ele>
        <time>2026-08-24T14:08:32Z</time>
      </trkpt>
      <trkpt lat="49.16157" lon="3.97962">
        <ele>154.6</ele>
        <time>2026-08-24T14:08:33Z</time>
      </trkpt>
      <trkpt lat="49.1616" lon="3.97953">
        <ele>154.8</ele>
        <time>2026-08-24T14:08:34Z</time>
      </trkpt>
      <trkpt lat="49.16162" lon="3.97943">
        <ele>155</ele>
        <time>2026-08-24T14:08:35Z</time>
      </trkpt>
      <trkpt lat="49.16165" lon="3.97933">
        <ele>155.4</ele>
        <time>2026-08-24T14:08:36Z</time>
      </trkpt>
      <trkpt lat="49.16167" lon="3.97923">
        <ele>155.8</ele>
        <time>2026-08-24T14:08:37Z</time>
      </trkpt>
      <trkpt lat="49.16168" lon="3.97914">
        <ele>156</ele>
        <time>2026-08-24T14:08:38Z</time>
      </trkpt>
      <trkpt lat="49.16169" lon="3.97905">
        <ele>156.4</ele>
        <time>2026-08-24T14:08:39Z</time>
      </trkpt>
      <trkpt lat="49.1617" lon="3.97896">
        <ele>156.8</ele>
        <time>2026-08-24T14:08:40Z</time>
      </trkpt>
      <trkpt lat="49.16171" lon="3.97888">
        <ele>157.2</ele>
        <time>2026-08-24T14:08:41Z</time>
      </trkpt>
      <trkpt lat="49.16172" lon="3.97879">
        <ele>157.4</ele>
        <time>2026-08-24T14:08:42Z</time>
      </trkpt>
      <trkpt lat="49.16173" lon="3.97871">
        <ele>157.8</ele>
        <time>2026-08-24T14:08:43Z</time>
      </trkpt>
      <trkpt lat="49.16174" lon="3.97863">
        <ele>158</ele>
        <time>2026-08-24T14:08:44Z</time>
      </trkpt>
      <trkpt lat="49.16174" lon="3.97856">
        <ele>158.4</ele>
        <time>2026-08-24T14:08:45Z</time>
      </trkpt>
      <trkpt lat="49.16175" lon="3.97848">
        <ele>158.6</ele>
        <time>2026-08-24T14:08:46Z</time>
      </trkpt>
      <trkpt lat="49.16175" lon="3.97841">
        <ele>158.8</ele>
        <time>2026-08-24T14:08:47Z</time>
      </trkpt>
      <trkpt lat="49.16176" lon="3.97834">
        <ele>159</ele>
        <time>2026-08-24T14:08:48Z</time>
      </trkpt>
      <trkpt lat="49.16176" lon="3.97827">
        <ele>159.4</ele>
        <time>2026-08-24T14:08:49Z</time>
      </trkpt>
      <trkpt lat="49.16177" lon="3.9782">
        <ele>159.6</ele>
        <time>2026-08-24T14:08:50Z</time>
      </trkpt>
      <trkpt lat="49.16177" lon="3.97814">
        <ele>159.8</ele>
        <time>2026-08-24T14:08:51Z</time>
      </trkpt>
      <trkpt lat="49.16177" lon="3.97807">
        <ele>160.2</ele>
        <time>2026-08-24T14:08:52Z</time>
      </trkpt>
      <trkpt lat="49.16178" lon="3.978">
        <ele>160.6</ele>
        <time>2026-08-24T14:08:53Z</time>
      </trkpt>
      <trkpt lat="49.16178" lon="3.97794">
        <ele>160.8</ele>
        <time>2026-08-24T14:08:54Z</time>
      </trkpt>
      <trkpt lat="49.16179" lon="3.97787">
        <ele>161</ele>
        <time>2026-08-24T14:08:55Z</time>
      </trkpt>
      <trkpt lat="49.16179" lon="3.97781">
        <ele>161.2</ele>
        <time>2026-08-24T14:08:56Z</time>
      </trkpt>
      <trkpt lat="49.1618" lon="3.97775">
        <ele>161.4</ele>
        <time>2026-08-24T14:08:57Z</time>
      </trkpt>
      <trkpt lat="49.16181" lon="3.97768">
        <ele>161.6</ele>
        <time>2026-08-24T14:08:58Z</time>
      </trkpt>
      <trkpt lat="49.16181" lon="3.97762">
        <ele>162</ele>
        <time>2026-08-24T14:08:59Z</time>
      </trkpt>
      <trkpt lat="49.16181" lon="3.97756">
        <ele>162.2</ele>
        <time>2026-08-24T14:09:00Z</time>
      </trkpt>
      <trkpt lat="49.16182" lon="3.9775">
        <ele>162.6</ele>
        <time>2026-08-24T14:09:01Z</time>
      </trkpt>
      <trkpt lat="49.16182" lon="3.97744">
        <ele>162.8</ele>
        <time>2026-08-24T14:09:02Z</time>
      </trkpt>
      <trkpt lat="49.16183" lon="3.97738">
        <ele>163.2</ele>
        <time>2026-08-24T14:09:03Z</time>
      </trkpt>
      <trkpt lat="49.16183" lon="3.97732">
        <ele>163.4</ele>
        <time>2026-08-24T14:09:04Z</time>
      </trkpt>
      <trkpt lat="49.16183" lon="3.97726">
        <ele>163.6</ele>
        <time>2026-08-24T14:09:05Z</time>
      </trkpt>
      <trkpt lat="49.16184" lon="3.97721">
        <ele>164</ele>
        <time>2026-08-24T14:09:06Z</time>
      </trkpt>
      <trkpt lat="49.16184" lon="3.97715">
        <ele>164.2</ele>
        <time>2026-08-24T14:09:07Z</time>
      </trkpt>
      <trkpt lat="49.16184" lon="3.9771">
        <ele>164.4</ele>
        <time>2026-08-24T14:09:08Z</time>
      </trkpt>
      <trkpt lat="49.16184" lon="3.97704">
        <ele>164.6</ele>
        <time>2026-08-24T14:09:09Z</time>
      </trkpt>
      <trkpt lat="49.16185" lon="3.97698">
        <ele>164.6</ele>
        <time>2026-08-24T14:09:10Z</time>
      </trkpt>
      <trkpt lat="49.16185" lon="3.97693">
        <ele>164.8</ele>
        <time>2026-08-24T14:09:11Z</time>
      </trkpt>
      <trkpt lat="49.16185" lon="3.97688">
        <ele>165</ele>
        <time>2026-08-24T14:09:12Z</time>
      </trkpt>
      <trkpt lat="49.16185" lon="3.97682">
        <ele>165.2</ele>
        <time>2026-08-24T14:09:13Z</time>
      </trkpt>
      <trkpt lat="49.16186" lon="3.97677">
        <ele>165.2</ele>
        <time>2026-08-24T14:09:14Z</time>
      </trkpt>
      <trkpt lat="49.16186" lon="3.97672">
        <ele>165.4</ele>
        <time>2026-08-24T14:09:15Z</time>
      </trkpt>
      <trkpt lat="49.16187" lon="3.97667">
        <ele>165.8</ele>
        <time>2026-08-24T14:09:16Z</time>
      </trkpt>
      <trkpt lat="49.16188" lon="3.97662">
        <ele>165.8</ele>
        <time>2026-08-24T14:09:17Z</time>
      </trkpt>
      <trkpt lat="49.16189" lon="3.97658">
        <ele>166</ele>
        <time>2026-08-24T14:09:18Z</time>
      </trkpt>
      <trkpt lat="49.16191" lon="3.97654">
        <ele>166.2</ele>
        <time>2026-08-24T14:09:19Z</time>
      </trkpt>
      <trkpt lat="49.16193" lon="3.97649">
        <ele>166.4</ele>
        <time>2026-08-24T14:09:20Z</time>
      </trkpt>
      <trkpt lat="49.16196" lon="3.97645">
        <ele>166.6</ele>
        <time>2026-08-24T14:09:21Z</time>
      </trkpt>
      <trkpt lat="49.16198" lon="3.97641">
        <ele>166.8</ele>
        <time>2026-08-24T14:09:22Z</time>
      </trkpt>
      <trkpt lat="49.16201" lon="3.97637">
        <ele>167</ele>
        <time>2026-08-24T14:09:23Z</time>
      </trkpt>
      <trkpt lat="49.16205" lon="3.97634">
        <ele>167.2</ele>
        <time>2026-08-24T14:09:24Z</time>
      </trkpt>
      <trkpt lat="49.16209" lon="3.97631">
        <ele>167.2</ele>
        <time>2026-08-24T14:09:25Z</time>
      </trkpt>
      <trkpt lat="49.16213" lon="3.97627">
        <ele>167</ele>
        <time>2026-08-24T14:09:26Z</time>
      </trkpt>
      <trkpt lat="49.16217" lon="3.97622">
        <ele>167.2</ele>
        <time>2026-08-24T14:09:27Z</time>
      </trkpt>
      <trkpt lat="49.16221" lon="3.97617">
        <ele>166.8</ele>
        <time>2026-08-24T14:09:28Z</time>
      </trkpt>
      <trkpt lat="49.16226" lon="3.97612">
        <ele>166.6</ele>
        <time>2026-08-24T14:09:29Z</time>
      </trkpt>
      <trkpt lat="49.1623" lon="3.97607">
        <ele>166.2</ele>
        <time>2026-08-24T14:09:30Z</time>
      </trkpt>
      <trkpt lat="49.16234" lon="3.97602">
        <ele>166</ele>
        <time>2026-08-24T14:09:31Z</time>
      </trkpt>
      <trkpt lat="49.16238" lon="3.97596">
        <ele>165.8</ele>
        <time>2026-08-24T14:09:32Z</time>
      </trkpt>
      <trkpt lat="49.16242" lon="3.97589">
        <ele>165.8</ele>
        <time>2026-08-24T14:09:33Z</time>
      </trkpt>
      <trkpt lat="49.16246" lon="3.97582">
        <ele>165.4</ele>
        <time>2026-08-24T14:09:34Z</time>
      </trkpt>
      <trkpt lat="49.1625" lon="3.97575">
        <ele>165.2</ele>
        <time>2026-08-24T14:09:35Z</time>
      </trkpt>
      <trkpt lat="49.16255" lon="3.97568">
        <ele>164.8</ele>
        <time>2026-08-24T14:09:36Z</time>
      </trkpt>
      <trkpt lat="49.1626" lon="3.9756">
        <ele>164.4</ele>
        <time>2026-08-24T14:09:37Z</time>
      </trkpt>
      <trkpt lat="49.16264" lon="3.97552">
        <ele>164</ele>
        <time>2026-08-24T14:09:38Z</time>
      </trkpt>
      <trkpt lat="49.1627" lon="3.97543">
        <ele>163.8</ele>
        <time>2026-08-24T14:09:39Z</time>
      </trkpt>
      <trkpt lat="49.16275" lon="3.97534">
        <ele>163.2</ele>
        <time>2026-08-24T14:09:40Z</time>
      </trkpt>
      <trkpt lat="49.16281" lon="3.97525">
        <ele>162.8</ele>
        <time>2026-08-24T14:09:41Z</time>
      </trkpt>
      <trkpt lat="49.16286" lon="3.97516">
        <ele>162.2</ele>
        <time>2026-08-24T14:09:42Z</time>
      </trkpt>
      <trkpt lat="49.16292" lon="3.97506">
        <ele>161.6</ele>
        <time>2026-08-24T14:09:43Z</time>
      </trkpt>
      <trkpt lat="49.16298" lon="3.97496">
        <ele>161</ele>
        <time>2026-08-24T14:09:44Z</time>
      </trkpt>
      <trkpt lat="49.16304" lon="3.97486">
        <ele>160.6</ele>
        <time>2026-08-24T14:09:45Z</time>
      </trkpt>
      <trkpt lat="49.1631" lon="3.97476">
        <ele>160.2</ele>
        <time>2026-08-24T14:09:46Z</time>
      </trkpt>
      <trkpt lat="49.16317" lon="3.97465">
        <ele>160</ele>
        <time>2026-08-24T14:09:47Z</time>
      </trkpt>
      <trkpt lat="49.16323" lon="3.97455">
        <ele>159.6</ele>
        <time>2026-08-24T14:09:48Z</time>
      </trkpt>
      <trkpt lat="49.1633" lon="3.97444">
        <ele>159</ele>
        <time>2026-08-24T14:09:49Z</time>
      </trkpt>
      <trkpt lat="49.16336" lon="3.97433">
        <ele>158.4</ele>
        <time>2026-08-24T14:09:50Z</time>
      </trkpt>
      <trkpt lat="49.16343" lon="3.97421">
        <ele>157.6</ele>
        <time>2026-08-24T14:09:51Z</time>
      </trkpt>
      <trkpt lat="49.1635" lon="3.97409">
        <ele>157</ele>
        <time>2026-08-24T14:09:52Z</time>
      </trkpt>
      <trkpt lat="49.16357" lon="3.97398">
        <ele>156.4</ele>
        <time>2026-08-24T14:09:53Z</time>
      </trkpt>
      <trkpt lat="49.16364" lon="3.97386">
        <ele>155.6</ele>
        <time>2026-08-24T14:09:54Z</time>
      </trkpt>
      <trkpt lat="49.16371" lon="3.97375">
        <ele>154.8</ele>
        <time>2026-08-24T14:09:55Z</time>
      </trkpt>
      <trkpt lat="49.16378" lon="3.97364">
        <ele>154.4</ele>
        <time>2026-08-24T14:09:56Z</time>
      </trkpt>
      <trkpt lat="49.16384" lon="3.97352">
        <ele>153.8</ele>
        <time>2026-08-24T14:09:57Z</time>
      </trkpt>
      <trkpt lat="49.16392" lon="3.9734">
        <ele>152.8</ele>
        <time>2026-08-24T14:09:58Z</time>
      </trkpt>
      <trkpt lat="49.16399" lon="3.97328">
        <ele>152.2</ele>
        <time>2026-08-24T14:09:59Z</time>
      </trkpt>
      <trkpt lat="49.16406" lon="3.97316">
        <ele>151.4</ele>
        <time>2026-08-24T14:10:00Z</time>
      </trkpt>
      <trkpt lat="49.16413" lon="3.97303">
        <ele>150.6</ele>
        <time>2026-08-24T14:10:01Z</time>
      </trkpt>
      <trkpt lat="49.16421" lon="3.97291">
        <ele>150</ele>
        <time>2026-08-24T14:10:02Z</time>
      </trkpt>
      <trkpt lat="49.16429" lon="3.97279">
        <ele>149.2</ele>
        <time>2026-08-24T14:10:03Z</time>
      </trkpt>
      <trkpt lat="49.16437" lon="3.97267">
        <ele>148.4</ele>
        <time>2026-08-24T14:10:04Z</time>
      </trkpt>
      <trkpt lat="49.16446" lon="3.97256">
        <ele>147.6</ele>
        <time>2026-08-24T14:10:05Z</time>
      </trkpt>
      <trkpt lat="49.16456" lon="3.97247">
        <ele>146.6</ele>
        <time>2026-08-24T14:10:06Z</time>
      </trkpt>
      <trkpt lat="49.16466" lon="3.9724">
        <ele>145.6</ele>
        <time>2026-08-24T14:10:07Z</time>
      </trkpt>
      <trkpt lat="49.16477" lon="3.97234">
        <ele>144.8</ele>
        <time>2026-08-24T14:10:08Z</time>
      </trkpt>
      <trkpt lat="49.16488" lon="3.9723">
        <ele>144.2</ele>
        <time>2026-08-24T14:10:09Z</time>
      </trkpt>
      <trkpt lat="49.16499" lon="3.97227">
        <ele>143.8</ele>
        <time>2026-08-24T14:10:10Z</time>
      </trkpt>
      <trkpt lat="49.16509" lon="3.97226">
        <ele>143.4</ele>
        <time>2026-08-24T14:10:11Z</time>
      </trkpt>
      <trkpt lat="49.1652" lon="3.97226">
        <ele>143.2</ele>
        <time>2026-08-24T14:10:12Z</time>
      </trkpt>
      <trkpt lat="49.16531" lon="3.97227">
        <ele>142.8</ele>
        <time>2026-08-24T14:10:13Z</time>
      </trkpt>
      <trkpt lat="49.16541" lon="3.97227">
        <ele>142.8</ele>
        <time>2026-08-24T14:10:14Z</time>
      </trkpt>
      <trkpt lat="49.16551" lon="3.97228">
        <ele>142.4</ele>
        <time>2026-08-24T14:10:15Z</time>
      </trkpt>
      <trkpt lat="49.1656" lon="3.97228">
        <ele>142.4</ele>
        <time>2026-08-24T14:10:16Z</time>
      </trkpt>
      <trkpt lat="49.1657" lon="3.97229">
        <ele>142.4</ele>
        <time>2026-08-24T14:10:17Z</time>
      </trkpt>
      <trkpt lat="49.16579" lon="3.97229">
        <ele>142.4</ele>
        <time>2026-08-24T14:10:18Z</time>
      </trkpt>
      <trkpt lat="49.16588" lon="3.9723">
        <ele>142.4</ele>
        <time>2026-08-24T14:10:19Z</time>
      </trkpt>
      <trkpt lat="49.16597" lon="3.97231">
        <ele>142.6</ele>
        <time>2026-08-24T14:10:20Z</time>
      </trkpt>
      <trkpt lat="49.16605" lon="3.97231">
        <ele>142.6</ele>
        <time>2026-08-24T14:10:21Z</time>
      </trkpt>
      <trkpt lat="49.16614" lon="3.97231">
        <ele>142.6</ele>
        <time>2026-08-24T14:10:22Z</time>
      </trkpt>
      <trkpt lat="49.16622" lon="3.97232">
        <ele>142.8</ele>
        <time>2026-08-24T14:10:23Z</time>
      </trkpt>
      <trkpt lat="49.1663" lon="3.97233">
        <ele>143</ele>
        <time>2026-08-24T14:10:24Z</time>
      </trkpt>
      <trkpt lat="49.16638" lon="3.97233">
        <ele>143.4</ele>
        <time>2026-08-24T14:10:25Z</time>
      </trkpt>
      <trkpt lat="49.16645" lon="3.97233">
        <ele>143.6</ele>
        <time>2026-08-24T14:10:26Z</time>
      </trkpt>
      <trkpt lat="49.16653" lon="3.97234">
        <ele>143.8</ele>
        <time>2026-08-24T14:10:27Z</time>
      </trkpt>
      <trkpt lat="49.1666" lon="3.97234">
        <ele>144.2</ele>
        <time>2026-08-24T14:10:28Z</time>
      </trkpt>
      <trkpt lat="49.16667" lon="3.97235">
        <ele>144.4</ele>
        <time>2026-08-24T14:10:29Z</time>
      </trkpt>
      <trkpt lat="49.16673" lon="3.97235">
        <ele>144.8</ele>
        <time>2026-08-24T14:10:30Z</time>
      </trkpt>
      <trkpt lat="49.16679" lon="3.97235">
        <ele>145.2</ele>
        <time>2026-08-24T14:10:31Z</time>
      </trkpt>
      <trkpt lat="49.16684" lon="3.97235">
        <ele>145.4</ele>
        <time>2026-08-24T14:10:32Z</time>
      </trkpt>
      <trkpt lat="49.1669" lon="3.97236">
        <ele>145.6</ele>
        <time>2026-08-24T14:10:33Z</time>
      </trkpt>
      <trkpt lat="49.16695" lon="3.97236">
        <ele>146</ele>
        <time>2026-08-24T14:10:34Z</time>
      </trkpt>
      <trkpt lat="49.167" lon="3.97236">
        <ele>146.2</ele>
        <time>2026-08-24T14:10:35Z</time>
      </trkpt>
      <trkpt lat="49.16705" lon="3.97237">
        <ele>146.6</ele>
        <time>2026-08-24T14:10:36Z</time>
      </trkpt>
      <trkpt lat="49.1671" lon="3.97237">
        <ele>147</ele>
        <time>2026-08-24T14:10:37Z</time>
      </trkpt>
      <trkpt lat="49.16715" lon="3.97237">
        <ele>147.2</ele>
        <time>2026-08-24T14:10:38Z</time>
      </trkpt>
      <trkpt lat="49.1672" lon="3.97237">
        <ele>147.4</ele>
        <time>2026-08-24T14:10:39Z</time>
      </trkpt>
      <trkpt lat="49.16725" lon="3.97237">
        <ele>147.8</ele>
        <time>2026-08-24T14:10:40Z</time>
      </trkpt>
      <trkpt lat="49.16729" lon="3.97237">
        <ele>148</ele>
        <time>2026-08-24T14:10:41Z</time>
      </trkpt>
      <trkpt lat="49.16734" lon="3.97238">
        <ele>148.4</ele>
        <time>2026-08-24T14:10:42Z</time>
      </trkpt>
      <trkpt lat="49.16739" lon="3.97238">
        <ele>148.8</ele>
        <time>2026-08-24T14:10:43Z</time>
      </trkpt>
      <trkpt lat="49.16744" lon="3.97238">
        <ele>149.2</ele>
        <time>2026-08-24T14:10:44Z</time>
      </trkpt>
      <trkpt lat="49.16748" lon="3.97239">
        <ele>149.6</ele>
        <time>2026-08-24T14:10:45Z</time>
      </trkpt>
      <trkpt lat="49.16753" lon="3.97239">
        <ele>149.8</ele>
        <time>2026-08-24T14:10:46Z</time>
      </trkpt>
      <trkpt lat="49.16758" lon="3.97239">
        <ele>149.8</ele>
        <time>2026-08-24T14:10:47Z</time>
      </trkpt>
      <trkpt lat="49.16763" lon="3.9724">
        <ele>149.8</ele>
        <time>2026-08-24T14:10:48Z</time>
      </trkpt>
      <trkpt lat="49.16767" lon="3.9724">
        <ele>150</ele>
        <time>2026-08-24T14:10:49Z</time>
      </trkpt>
      <trkpt lat="49.16772" lon="3.97239">
        <ele>150</ele>
        <time>2026-08-24T14:10:50Z</time>
      </trkpt>
      <trkpt lat="49.16777" lon="3.97239">
        <ele>150</ele>
        <time>2026-08-24T14:10:51Z</time>
      </trkpt>
      <trkpt lat="49.16781" lon="3.97239">
        <ele>150.4</ele>
        <time>2026-08-24T14:10:52Z</time>
      </trkpt>
      <trkpt lat="49.16786" lon="3.97238">
        <ele>150.6</ele>
        <time>2026-08-24T14:10:53Z</time>
      </trkpt>
      <trkpt lat="49.16791" lon="3.97237">
        <ele>150.8</ele>
        <time>2026-08-24T14:10:54Z</time>
      </trkpt>
      <trkpt lat="49.16796" lon="3.97236">
        <ele>151</ele>
        <time>2026-08-24T14:10:55Z</time>
      </trkpt>
      <trkpt lat="49.168" lon="3.97236">
        <ele>151.2</ele>
        <time>2026-08-24T14:10:56Z</time>
      </trkpt>
      <trkpt lat="49.16805" lon="3.97236">
        <ele>151.4</ele>
        <time>2026-08-24T14:10:57Z</time>
      </trkpt>
      <trkpt lat="49.16809" lon="3.97236">
        <ele>151.6</ele>
        <time>2026-08-24T14:10:58Z</time>
      </trkpt>
      <trkpt lat="49.16813" lon="3.97235">
        <ele>152</ele>
        <time>2026-08-24T14:10:59Z</time>
      </trkpt>
      <trkpt lat="49.16816" lon="3.97232">
        <ele>152.2</ele>
        <time>2026-08-24T14:11:00Z</time>
      </trkpt>
      <trkpt lat="49.16818" lon="3.97227">
        <ele>152.4</ele>
        <time>2026-08-24T14:11:01Z</time>
      </trkpt>
      <trkpt lat="49.16818" lon="3.97222">
        <ele>152.6</ele>
        <time>2026-08-24T14:11:02Z</time>
      </trkpt>
      <trkpt lat="49.16818" lon="3.97215">
        <ele>152.6</ele>
        <time>2026-08-24T14:11:03Z</time>
      </trkpt>
      <trkpt lat="49.16817" lon="3.97208">
        <ele>152.6</ele>
        <time>2026-08-24T14:11:04Z</time>
      </trkpt>
      <trkpt lat="49.16816" lon="3.97201">
        <ele>152.6</ele>
        <time>2026-08-24T14:11:05Z</time>
      </trkpt>
      <trkpt lat="49.16816" lon="3.97193">
        <ele>152.6</ele>
        <time>2026-08-24T14:11:06Z</time>
      </trkpt>
      <trkpt lat="49.16817" lon="3.97186">
        <ele>152.4</ele>
        <time>2026-08-24T14:11:07Z</time>
      </trkpt>
      <trkpt lat="49.16819" lon="3.97178">
        <ele>152.4</ele>
        <time>2026-08-24T14:11:08Z</time>
      </trkpt>
      <trkpt lat="49.16821" lon="3.9717">
        <ele>152.4</ele>
        <time>2026-08-24T14:11:09Z</time>
      </trkpt>
      <trkpt lat="49.16823" lon="3.97162">
        <ele>152.4</ele>
        <time>2026-08-24T14:11:10Z</time>
      </trkpt>
      <trkpt lat="49.16825" lon="3.97153">
        <ele>152.4</ele>
        <time>2026-08-24T14:11:11Z</time>
      </trkpt>
      <trkpt lat="49.16828" lon="3.97144">
        <ele>152.2</ele>
        <time>2026-08-24T14:11:12Z</time>
      </trkpt>
      <trkpt lat="49.16831" lon="3.97135">
        <ele>152.2</ele>
        <time>2026-08-24T14:11:13Z</time>
      </trkpt>
      <trkpt lat="49.16834" lon="3.97126">
        <ele>152.2</ele>
        <time>2026-08-24T14:11:14Z</time>
      </trkpt>
      <trkpt lat="49.16836" lon="3.97116">
        <ele>152.2</ele>
        <time>2026-08-24T14:11:15Z</time>
      </trkpt>
      <trkpt lat="49.16839" lon="3.97107">
        <ele>152</ele>
        <time>2026-08-24T14:11:16Z</time>
      </trkpt>
      <trkpt lat="49.16842" lon="3.97097">
        <ele>151.4</ele>
        <time>2026-08-24T14:11:17Z</time>
      </trkpt>
      <trkpt lat="49.16845" lon="3.97086">
        <ele>151</ele>
        <time>2026-08-24T14:11:18Z</time>
      </trkpt>
      <trkpt lat="49.16849" lon="3.97076">
        <ele>150.6</ele>
        <time>2026-08-24T14:11:19Z</time>
      </trkpt>
      <trkpt lat="49.16852" lon="3.97065">
        <ele>150.2</ele>
        <time>2026-08-24T14:11:20Z</time>
      </trkpt>
      <trkpt lat="49.16856" lon="3.97053">
        <ele>149.8</ele>
        <time>2026-08-24T14:11:21Z</time>
      </trkpt>
      <trkpt lat="49.1686" lon="3.97042">
        <ele>149.8</ele>
        <time>2026-08-24T14:11:22Z</time>
      </trkpt>
      <trkpt lat="49.16864" lon="3.9703">
        <ele>149.6</ele>
        <time>2026-08-24T14:11:23Z</time>
      </trkpt>
      <trkpt lat="49.16868" lon="3.97017">
        <ele>149.4</ele>
        <time>2026-08-24T14:11:24Z</time>
      </trkpt>
      <trkpt lat="49.16872" lon="3.97004">
        <ele>148.8</ele>
        <time>2026-08-24T14:11:25Z</time>
      </trkpt>
      <trkpt lat="49.16876" lon="3.96991">
        <ele>148.4</ele>
        <time>2026-08-24T14:11:26Z</time>
      </trkpt>
      <trkpt lat="49.1688" lon="3.96978">
        <ele>148.2</ele>
        <time>2026-08-24T14:11:27Z</time>
      </trkpt>
      <trkpt lat="49.16884" lon="3.96965">
        <ele>147.6</ele>
        <time>2026-08-24T14:11:28Z</time>
      </trkpt>
      <trkpt lat="49.16889" lon="3.96951">
        <ele>146.8</ele>
        <time>2026-08-24T14:11:29Z</time>
      </trkpt>
      <trkpt lat="49.16893" lon="3.96937">
        <ele>146.6</ele>
        <time>2026-08-24T14:11:30Z</time>
      </trkpt>
      <trkpt lat="49.16897" lon="3.96922">
        <ele>146.4</ele>
        <time>2026-08-24T14:11:31Z</time>
      </trkpt>
      <trkpt lat="49.16902" lon="3.96908">
        <ele>145.8</ele>
        <time>2026-08-24T14:11:32Z</time>
      </trkpt>
      <trkpt lat="49.16907" lon="3.96893">
        <ele>145.4</ele>
        <time>2026-08-24T14:11:33Z</time>
      </trkpt>
      <trkpt lat="49.16911" lon="3.96878">
        <ele>145</ele>
        <time>2026-08-24T14:11:34Z</time>
      </trkpt>
      <trkpt lat="49.16916" lon="3.96863">
        <ele>144.4</ele>
        <time>2026-08-24T14:11:35Z</time>
      </trkpt>
      <trkpt lat="49.16921" lon="3.96848">
        <ele>144</ele>
        <time>2026-08-24T14:11:36Z</time>
      </trkpt>
      <trkpt lat="49.16926" lon="3.96833">
        <ele>143.4</ele>
        <time>2026-08-24T14:11:37Z</time>
      </trkpt>
      <trkpt lat="49.1693" lon="3.96817">
        <ele>143</ele>
        <time>2026-08-24T14:11:38Z</time>
      </trkpt>
      <trkpt lat="49.16935" lon="3.96802">
        <ele>142.4</ele>
        <time>2026-08-24T14:11:39Z</time>
      </trkpt>
      <trkpt lat="49.1694" lon="3.96786">
        <ele>141.4</ele>
        <time>2026-08-24T14:11:40Z</time>
      </trkpt>
      <trkpt lat="49.16945" lon="3.96771">
        <ele>141</ele>
        <time>2026-08-24T14:11:41Z</time>
      </trkpt>
      <trkpt lat="49.1695" lon="3.96756">
        <ele>140.6</ele>
        <time>2026-08-24T14:11:42Z</time>
      </trkpt>
      <trkpt lat="49.16955" lon="3.96741">
        <ele>139.8</ele>
        <time>2026-08-24T14:11:43Z</time>
      </trkpt>
      <trkpt lat="49.1696" lon="3.96726">
        <ele>139.4</ele>
        <time>2026-08-24T14:11:44Z</time>
      </trkpt>
      <trkpt lat="49.16964" lon="3.96712">
        <ele>139.2</ele>
        <time>2026-08-24T14:11:45Z</time>
      </trkpt>
      <trkpt lat="49.16969" lon="3.96698">
        <ele>138.8</ele>
        <time>2026-08-24T14:11:46Z</time>
      </trkpt>
      <trkpt lat="49.16974" lon="3.96684">
        <ele>138.6</ele>
        <time>2026-08-24T14:11:47Z</time>
      </trkpt>
      <trkpt lat="49.16978" lon="3.96671">
        <ele>138.6</ele>
        <time>2026-08-24T14:11:48Z</time>
      </trkpt>
      <trkpt lat="49.16983" lon="3.96658">
        <ele>138.4</ele>
        <time>2026-08-24T14:11:49Z</time>
      </trkpt>
      <trkpt lat="49.16987" lon="3.96645">
        <ele>138.4</ele>
        <time>2026-08-24T14:11:50Z</time>
      </trkpt>
      <trkpt lat="49.16991" lon="3.96633">
        <ele>138.6</ele>
        <time>2026-08-24T14:11:51Z</time>
      </trkpt>
      <trkpt lat="49.16996" lon="3.9662">
        <ele>138.8</ele>
        <time>2026-08-24T14:11:52Z</time>
      </trkpt>
      <trkpt lat="49.17" lon="3.96607">
        <ele>138.8</ele>
        <time>2026-08-24T14:11:53Z</time>
      </trkpt>
      <trkpt lat="49.17004" lon="3.96595">
        <ele>139.2</ele>
        <time>2026-08-24T14:11:54Z</time>
      </trkpt>
      <trkpt lat="49.17008" lon="3.96583">
        <ele>139.4</ele>
        <time>2026-08-24T14:11:55Z</time>
      </trkpt>
      <trkpt lat="49.17013" lon="3.9657">
        <ele>139.4</ele>
        <time>2026-08-24T14:11:56Z</time>
      </trkpt>
      <trkpt lat="49.17017" lon="3.96558">
        <ele>139.2</ele>
        <time>2026-08-24T14:11:57Z</time>
      </trkpt>
      <trkpt lat="49.17021" lon="3.96545">
        <ele>139.4</ele>
        <time>2026-08-24T14:11:58Z</time>
      </trkpt>
      <trkpt lat="49.17026" lon="3.96532">
        <ele>139.4</ele>
        <time>2026-08-24T14:11:59Z</time>
      </trkpt>
      <trkpt lat="49.1703" lon="3.96519">
        <ele>139</ele>
        <time>2026-08-24T14:12:00Z</time>
      </trkpt>
      <trkpt lat="49.17035" lon="3.96506">
        <ele>138.8</ele>
        <time>2026-08-24T14:12:01Z</time>
      </trkpt>
      <trkpt lat="49.17039" lon="3.96492">
        <ele>138.4</ele>
        <time>2026-08-24T14:12:02Z</time>
      </trkpt>
      <trkpt lat="49.17044" lon="3.96478">
        <ele>137.8</ele>
        <time>2026-08-24T14:12:03Z</time>
      </trkpt>
      <trkpt lat="49.17049" lon="3.96463">
        <ele>137.2</ele>
        <time>2026-08-24T14:12:04Z</time>
      </trkpt>
      <trkpt lat="49.17054" lon="3.96448">
        <ele>136.4</ele>
        <time>2026-08-24T14:12:05Z</time>
      </trkpt>
      <trkpt lat="49.17059" lon="3.96433">
        <ele>135.8</ele>
        <time>2026-08-24T14:12:06Z</time>
      </trkpt>
      <trkpt lat="49.17064" lon="3.96418">
        <ele>135.4</ele>
        <time>2026-08-24T14:12:07Z</time>
      </trkpt>
      <trkpt lat="49.1707" lon="3.96403">
        <ele>135</ele>
        <time>2026-08-24T14:12:08Z</time>
      </trkpt>
      <trkpt lat="49.17075" lon="3.96388">
        <ele>134.8</ele>
        <time>2026-08-24T14:12:09Z</time>
      </trkpt>
      <trkpt lat="49.1708" lon="3.96373">
        <ele>134.6</ele>
        <time>2026-08-24T14:12:10Z</time>
      </trkpt>
      <trkpt lat="49.17085" lon="3.96358">
        <ele>134.8</ele>
        <time>2026-08-24T14:12:11Z</time>
      </trkpt>
      <trkpt lat="49.1709" lon="3.96344">
        <ele>134.6</ele>
        <time>2026-08-24T14:12:12Z</time>
      </trkpt>
      <trkpt lat="49.17094" lon="3.96331">
        <ele>134.6</ele>
        <time>2026-08-24T14:12:13Z</time>
      </trkpt>
      <trkpt lat="49.17099" lon="3.96317">
        <ele>134.4</ele>
        <time>2026-08-24T14:12:14Z</time>
      </trkpt>
      <trkpt lat="49.17103" lon="3.96304">
        <ele>134.6</ele>
        <time>2026-08-24T14:12:15Z</time>
      </trkpt>
      <trkpt lat="49.17108" lon="3.96292">
        <ele>134.2</ele>
        <time>2026-08-24T14:12:16Z</time>
      </trkpt>
      <trkpt lat="49.17112" lon="3.96279">
        <ele>134.4</ele>
        <time>2026-08-24T14:12:17Z</time>
      </trkpt>
      <trkpt lat="49.17116" lon="3.96268">
        <ele>134.6</ele>
        <time>2026-08-24T14:12:18Z</time>
      </trkpt>
      <trkpt lat="49.1712" lon="3.96256">
        <ele>134.6</ele>
        <time>2026-08-24T14:12:19Z</time>
      </trkpt>
      <trkpt lat="49.17124" lon="3.96245">
        <ele>134.8</ele>
        <time>2026-08-24T14:12:20Z</time>
      </trkpt>
      <trkpt lat="49.17128" lon="3.96234">
        <ele>135</ele>
        <time>2026-08-24T14:12:21Z</time>
      </trkpt>
      <trkpt lat="49.17131" lon="3.96223">
        <ele>135.4</ele>
        <time>2026-08-24T14:12:22Z</time>
      </trkpt>
      <trkpt lat="49.17135" lon="3.96213">
        <ele>135.8</ele>
        <time>2026-08-24T14:12:23Z</time>
      </trkpt>
      <trkpt lat="49.17139" lon="3.96204">
        <ele>136.2</ele>
        <time>2026-08-24T14:12:24Z</time>
      </trkpt>
      <trkpt lat="49.17142" lon="3.96195">
        <ele>136.8</ele>
        <time>2026-08-24T14:12:25Z</time>
      </trkpt>
      <trkpt lat="49.17146" lon="3.96186">
        <ele>137.2</ele>
        <time>2026-08-24T14:12:26Z</time>
      </trkpt>
      <trkpt lat="49.17149" lon="3.96178">
        <ele>137.4</ele>
        <time>2026-08-24T14:12:27Z</time>
      </trkpt>
      <trkpt lat="49.17152" lon="3.9617">
        <ele>137.8</ele>
        <time>2026-08-24T14:12:28Z</time>
      </trkpt>
      <trkpt lat="49.17156" lon="3.96163">
        <ele>138.2</ele>
        <time>2026-08-24T14:12:29Z</time>
      </trkpt>
      <trkpt lat="49.17159" lon="3.96156">
        <ele>138.6</ele>
        <time>2026-08-24T14:12:30Z</time>
      </trkpt>
      <trkpt lat="49.17163" lon="3.96149">
        <ele>139</ele>
        <time>2026-08-24T14:12:31Z</time>
      </trkpt>
      <trkpt lat="49.17166" lon="3.96142">
        <ele>139.4</ele>
        <time>2026-08-24T14:12:32Z</time>
      </trkpt>
      <trkpt lat="49.17169" lon="3.96135">
        <ele>139.8</ele>
        <time>2026-08-24T14:12:33Z</time>
      </trkpt>
      <trkpt lat="49.17173" lon="3.96129">
        <ele>140</ele>
        <time>2026-08-24T14:12:34Z</time>
      </trkpt>
      <trkpt lat="49.17176" lon="3.96122">
        <ele>140.2</ele>
        <time>2026-08-24T14:12:35Z</time>
      </trkpt>
      <trkpt lat="49.1718" lon="3.96115">
        <ele>140.2</ele>
        <time>2026-08-24T14:12:36Z</time>
      </trkpt>
      <trkpt lat="49.17184" lon="3.96108">
        <ele>140.2</ele>
        <time>2026-08-24T14:12:37Z</time>
      </trkpt>
      <trkpt lat="49.17188" lon="3.96101">
        <ele>140</ele>
        <time>2026-08-24T14:12:38Z</time>
      </trkpt>
      <trkpt lat="49.17192" lon="3.96094">
        <ele>139.8</ele>
        <time>2026-08-24T14:12:39Z</time>
      </trkpt>
      <trkpt lat="49.17197" lon="3.96086">
        <ele>139.6</ele>
        <time>2026-08-24T14:12:40Z</time>
      </trkpt>
      <trkpt lat="49.17201" lon="3.96078">
        <ele>139.4</ele>
        <time>2026-08-24T14:12:41Z</time>
      </trkpt>
      <trkpt lat="49.17205" lon="3.96071">
        <ele>139.4</ele>
        <time>2026-08-24T14:12:42Z</time>
      </trkpt>
      <trkpt lat="49.17209" lon="3.96063">
        <ele>139.2</ele>
        <time>2026-08-24T14:12:43Z</time>
      </trkpt>
      <trkpt lat="49.17213" lon="3.96055">
        <ele>139.2</ele>
        <time>2026-08-24T14:12:44Z</time>
      </trkpt>
      <trkpt lat="49.17217" lon="3.96048">
        <ele>139.2</ele>
        <time>2026-08-24T14:12:45Z</time>
      </trkpt>
      <trkpt lat="49.17222" lon="3.9604">
        <ele>139.2</ele>
        <time>2026-08-24T14:12:46Z</time>
      </trkpt>
      <trkpt lat="49.17226" lon="3.96032">
        <ele>139</ele>
        <time>2026-08-24T14:12:47Z</time>
      </trkpt>
      <trkpt lat="49.17231" lon="3.96024">
        <ele>139</ele>
        <time>2026-08-24T14:12:48Z</time>
      </trkpt>
      <trkpt lat="49.17235" lon="3.96016">
        <ele>139</ele>
        <time>2026-08-24T14:12:49Z</time>
      </trkpt>
      <trkpt lat="49.1724" lon="3.96008">
        <ele>139</ele>
        <time>2026-08-24T14:12:50Z</time>
      </trkpt>
      <trkpt lat="49.17244" lon="3.96001">
        <ele>139</ele>
        <time>2026-08-24T14:12:51Z</time>
      </trkpt>
      <trkpt lat="49.17249" lon="3.95993">
        <ele>139</ele>
        <time>2026-08-24T14:12:52Z</time>
      </trkpt>
      <trkpt lat="49.17253" lon="3.95986">
        <ele>139</ele>
        <time>2026-08-24T14:12:53Z</time>
      </trkpt>
      <trkpt lat="49.17257" lon="3.95979">
        <ele>139</ele>
        <time>2026-08-24T14:12:54Z</time>
      </trkpt>
      <trkpt lat="49.1726" lon="3.95972">
        <ele>139</ele>
        <time>2026-08-24T14:12:55Z</time>
      </trkpt>
      <trkpt lat="49.17264" lon="3.95966">
        <ele>139</ele>
        <time>2026-08-24T14:12:56Z</time>
      </trkpt>
      <trkpt lat="49.17268" lon="3.9596">
        <ele>139</ele>
        <time>2026-08-24T14:12:57Z</time>
      </trkpt>
      <trkpt lat="49.17272" lon="3.95953">
        <ele>139.2</ele>
        <time>2026-08-24T14:12:58Z</time>
      </trkpt>
      <trkpt lat="49.17275" lon="3.95946">
        <ele>139.4</ele>
        <time>2026-08-24T14:12:59Z</time>
      </trkpt>
      <trkpt lat="49.17279" lon="3.9594">
        <ele>139.6</ele>
        <time>2026-08-24T14:13:00Z</time>
      </trkpt>
      <trkpt lat="49.17282" lon="3.95933">
        <ele>139.8</ele>
        <time>2026-08-24T14:13:01Z</time>
      </trkpt>
      <trkpt lat="49.17286" lon="3.95926">
        <ele>140</ele>
        <time>2026-08-24T14:13:02Z</time>
      </trkpt>
      <trkpt lat="49.1729" lon="3.9592">
        <ele>140</ele>
        <time>2026-08-24T14:13:03Z</time>
      </trkpt>
      <trkpt lat="49.17293" lon="3.95913">
        <ele>140.2</ele>
        <time>2026-08-24T14:13:04Z</time>
      </trkpt>
      <trkpt lat="49.17296" lon="3.95907">
        <ele>140.2</ele>
        <time>2026-08-24T14:13:05Z</time>
      </trkpt>
      <trkpt lat="49.173" lon="3.95901">
        <ele>140.4</ele>
        <time>2026-08-24T14:13:06Z</time>
      </trkpt>
      <trkpt lat="49.17303" lon="3.95895">
        <ele>140.4</ele>
        <time>2026-08-24T14:13:07Z</time>
      </trkpt>
      <trkpt lat="49.17306" lon="3.95888">
        <ele>140.6</ele>
        <time>2026-08-24T14:13:08Z</time>
      </trkpt>
      <trkpt lat="49.17309" lon="3.95883">
        <ele>140.8</ele>
        <time>2026-08-24T14:13:09Z</time>
      </trkpt>
      <trkpt lat="49.17312" lon="3.95877">
        <ele>141</ele>
        <time>2026-08-24T14:13:10Z</time>
      </trkpt>
      <trkpt lat="49.17315" lon="3.95872">
        <ele>141.2</ele>
        <time>2026-08-24T14:13:11Z</time>
      </trkpt>
      <trkpt lat="49.17317" lon="3.95867">
        <ele>141.2</ele>
        <time>2026-08-24T14:13:12Z</time>
      </trkpt>
      <trkpt lat="49.17319" lon="3.95863">
        <ele>141.4</ele>
        <time>2026-08-24T14:13:13Z</time>
      </trkpt>
      <trkpt lat="49.17321" lon="3.95858">
        <ele>141.4</ele>
        <time>2026-08-24T14:13:14Z</time>
      </trkpt>
      <trkpt lat="49.17323" lon="3.95853">
        <ele>141.4</ele>
        <time>2026-08-24T14:13:15Z</time>
      </trkpt>
      <trkpt lat="49.17325" lon="3.95848">
        <ele>141.6</ele>
        <time>2026-08-24T14:13:16Z</time>
      </trkpt>
      <trkpt lat="49.17328" lon="3.95842">
        <ele>141.8</ele>
        <time>2026-08-24T14:13:17Z</time>
      </trkpt>
      <trkpt lat="49.1733" lon="3.95837">
        <ele>141.8</ele>
        <time>2026-08-24T14:13:18Z</time>
      </trkpt>
      <trkpt lat="49.17333" lon="3.95831">
        <ele>141.8</ele>
        <time>2026-08-24T14:13:19Z</time>
      </trkpt>
      <trkpt lat="49.17336" lon="3.95825">
        <ele>142</ele>
        <time>2026-08-24T14:13:20Z</time>
      </trkpt>
      <trkpt lat="49.17339" lon="3.95818">
        <ele>142</ele>
        <time>2026-08-24T14:13:21Z</time>
      </trkpt>
      <trkpt lat="49.17342" lon="3.95811">
        <ele>142</ele>
        <time>2026-08-24T14:13:22Z</time>
      </trkpt>
      <trkpt lat="49.17345" lon="3.95804">
        <ele>142</ele>
        <time>2026-08-24T14:13:23Z</time>
      </trkpt>
      <trkpt lat="49.17348" lon="3.95797">
        <ele>142</ele>
        <time>2026-08-24T14:13:24Z</time>
      </trkpt>
      <trkpt lat="49.17351" lon="3.95789">
        <ele>142</ele>
        <time>2026-08-24T14:13:25Z</time>
      </trkpt>
      <trkpt lat="49.17354" lon="3.95782">
        <ele>142</ele>
        <time>2026-08-24T14:13:26Z</time>
      </trkpt>
      <trkpt lat="49.17358" lon="3.95774">
        <ele>142</ele>
        <time>2026-08-24T14:13:27Z</time>
      </trkpt>
      <trkpt lat="49.17361" lon="3.95766">
        <ele>142</ele>
        <time>2026-08-24T14:13:28Z</time>
      </trkpt>
      <trkpt lat="49.17364" lon="3.95758">
        <ele>142</ele>
        <time>2026-08-24T14:13:29Z</time>
      </trkpt>
      <trkpt lat="49.17368" lon="3.9575">
        <ele>142</ele>
        <time>2026-08-24T14:13:30Z</time>
      </trkpt>
      <trkpt lat="49.17372" lon="3.95742">
        <ele>141.8</ele>
        <time>2026-08-24T14:13:31Z</time>
      </trkpt>
      <trkpt lat="49.17375" lon="3.95734">
        <ele>141.8</ele>
        <time>2026-08-24T14:13:32Z</time>
      </trkpt>
      <trkpt lat="49.17379" lon="3.95726">
        <ele>141.8</ele>
        <time>2026-08-24T14:13:33Z</time>
      </trkpt>
      <trkpt lat="49.17383" lon="3.95717">
        <ele>141.6</ele>
        <time>2026-08-24T14:13:34Z</time>
      </trkpt>
      <trkpt lat="49.17386" lon="3.95708">
        <ele>141.8</ele>
        <time>2026-08-24T14:13:35Z</time>
      </trkpt>
      <trkpt lat="49.1739" lon="3.957">
        <ele>141.6</ele>
        <time>2026-08-24T14:13:36Z</time>
      </trkpt>
      <trkpt lat="49.17393" lon="3.95691">
        <ele>141.6</ele>
        <time>2026-08-24T14:13:37Z</time>
      </trkpt>
      <trkpt lat="49.17397" lon="3.95682">
        <ele>141.8</ele>
        <time>2026-08-24T14:13:38Z</time>
      </trkpt>
      <trkpt lat="49.17401" lon="3.95673">
        <ele>141.8</ele>
        <time>2026-08-24T14:13:39Z</time>
      </trkpt>
      <trkpt lat="49.17405" lon="3.95664">
        <ele>141.6</ele>
        <time>2026-08-24T14:13:40Z</time>
      </trkpt>
      <trkpt lat="49.17409" lon="3.95656">
        <ele>141.8</ele>
        <time>2026-08-24T14:13:41Z</time>
      </trkpt>
      <trkpt lat="49.17413" lon="3.95647">
        <ele>141.8</ele>
        <time>2026-08-24T14:13:42Z</time>
      </trkpt>
      <trkpt lat="49.17417" lon="3.95638">
        <ele>141.8</ele>
        <time>2026-08-24T14:13:43Z</time>
      </trkpt>
      <trkpt lat="49.17421" lon="3.9563">
        <ele>142</ele>
        <time>2026-08-24T14:13:44Z</time>
      </trkpt>
      <trkpt lat="49.17424" lon="3.95622">
        <ele>142.2</ele>
        <time>2026-08-24T14:13:45Z</time>
      </trkpt>
      <trkpt lat="49.17428" lon="3.95613">
        <ele>142.4</ele>
        <time>2026-08-24T14:13:46Z</time>
      </trkpt>
      <trkpt lat="49.17431" lon="3.95605">
        <ele>142.4</ele>
        <time>2026-08-24T14:13:47Z</time>
      </trkpt>
      <trkpt lat="49.17435" lon="3.95597">
        <ele>142.4</ele>
        <time>2026-08-24T14:13:48Z</time>
      </trkpt>
      <trkpt lat="49.17439" lon="3.95588">
        <ele>142.4</ele>
        <time>2026-08-24T14:13:49Z</time>
      </trkpt>
      <trkpt lat="49.17443" lon="3.9558">
        <ele>142.4</ele>
        <time>2026-08-24T14:13:50Z</time>
      </trkpt>
      <trkpt lat="49.17447" lon="3.95571">
        <ele>142.4</ele>
        <time>2026-08-24T14:13:51Z</time>
      </trkpt>
      <trkpt lat="49.17451" lon="3.95562">
        <ele>142.4</ele>
        <time>2026-08-24T14:13:52Z</time>
      </trkpt>
      <trkpt lat="49.17455" lon="3.95553">
        <ele>142.4</ele>
        <time>2026-08-24T14:13:53Z</time>
      </trkpt>
      <trkpt lat="49.17459" lon="3.95544">
        <ele>142.4</ele>
        <time>2026-08-24T14:13:54Z</time>
      </trkpt>
      <trkpt lat="49.17463" lon="3.95534">
        <ele>142.4</ele>
        <time>2026-08-24T14:13:55Z</time>
      </trkpt>
      <trkpt lat="49.17467" lon="3.95525">
        <ele>142.4</ele>
        <time>2026-08-24T14:13:56Z</time>
      </trkpt>
      <trkpt lat="49.17472" lon="3.95515">
        <ele>142.4</ele>
        <time>2026-08-24T14:13:57Z</time>
      </trkpt>
      <trkpt lat="49.17476" lon="3.95506">
        <ele>142.4</ele>
        <time>2026-08-24T14:13:58Z</time>
      </trkpt>
      <trkpt lat="49.1748" lon="3.95496">
        <ele>142.4</ele>
        <time>2026-08-24T14:13:59Z</time>
      </trkpt>
      <trkpt lat="49.17485" lon="3.95486">
        <ele>142.2</ele>
        <time>2026-08-24T14:14:00Z</time>
      </trkpt>
      <trkpt lat="49.17489" lon="3.95477">
        <ele>142</ele>
        <time>2026-08-24T14:14:01Z</time>
      </trkpt>
      <trkpt lat="49.17494" lon="3.95467">
        <ele>142</ele>
        <time>2026-08-24T14:14:02Z</time>
      </trkpt>
      <trkpt lat="49.17498" lon="3.95458">
        <ele>142</ele>
        <time>2026-08-24T14:14:03Z</time>
      </trkpt>
      <trkpt lat="49.17503" lon="3.95448">
        <ele>141.8</ele>
        <time>2026-08-24T14:14:04Z</time>
      </trkpt>
      <trkpt lat="49.17507" lon="3.95438">
        <ele>141.8</ele>
        <time>2026-08-24T14:14:05Z</time>
      </trkpt>
      <trkpt lat="49.17512" lon="3.95428">
        <ele>141.8</ele>
        <time>2026-08-24T14:14:06Z</time>
      </trkpt>
      <trkpt lat="49.17516" lon="3.95418">
        <ele>141.6</ele>
        <time>2026-08-24T14:14:07Z</time>
      </trkpt>
      <trkpt lat="49.17521" lon="3.95408">
        <ele>141.6</ele>
        <time>2026-08-24T14:14:08Z</time>
      </trkpt>
      <trkpt lat="49.17526" lon="3.95399">
        <ele>141.6</ele>
        <time>2026-08-24T14:14:09Z</time>
      </trkpt>
      <trkpt lat="49.17531" lon="3.9539">
        <ele>141.6</ele>
        <time>2026-08-24T14:14:10Z</time>
      </trkpt>
      <trkpt lat="49.17536" lon="3.95382">
        <ele>141.6</ele>
        <time>2026-08-24T14:14:11Z</time>
      </trkpt>
      <trkpt lat="49.17542" lon="3.95374">
        <ele>141.6</ele>
        <time>2026-08-24T14:14:12Z</time>
      </trkpt>
      <trkpt lat="49.17548" lon="3.95368">
        <ele>141.6</ele>
        <time>2026-08-24T14:14:13Z</time>
      </trkpt>
      <trkpt lat="49.17554" lon="3.95363">
        <ele>141.6</ele>
        <time>2026-08-24T14:14:14Z</time>
      </trkpt>
      <trkpt lat="49.1756" lon="3.95358">
        <ele>141.6</ele>
        <time>2026-08-24T14:14:15Z</time>
      </trkpt>
      <trkpt lat="49.17567" lon="3.95354">
        <ele>142</ele>
        <time>2026-08-24T14:14:16Z</time>
      </trkpt>
      <trkpt lat="49.17573" lon="3.95352">
        <ele>142.2</ele>
        <time>2026-08-24T14:14:17Z</time>
      </trkpt>
      <trkpt lat="49.1758" lon="3.9535">
        <ele>142.4</ele>
        <time>2026-08-24T14:14:18Z</time>
      </trkpt>
      <trkpt lat="49.17586" lon="3.9535">
        <ele>142.8</ele>
        <time>2026-08-24T14:14:19Z</time>
      </trkpt>
      <trkpt lat="49.17593" lon="3.9535">
        <ele>143</ele>
        <time>2026-08-24T14:14:20Z</time>
      </trkpt>
      <trkpt lat="49.17599" lon="3.95351">
        <ele>143.2</ele>
        <time>2026-08-24T14:14:21Z</time>
      </trkpt>
      <trkpt lat="49.17604" lon="3.95352">
        <ele>143.4</ele>
        <time>2026-08-24T14:14:22Z</time>
      </trkpt>
      <trkpt lat="49.1761" lon="3.95353">
        <ele>143.4</ele>
        <time>2026-08-24T14:14:23Z</time>
      </trkpt>
      <trkpt lat="49.17616" lon="3.95354">
        <ele>143.6</ele>
        <time>2026-08-24T14:14:24Z</time>
      </trkpt>
      <trkpt lat="49.17622" lon="3.95356">
        <ele>143.6</ele>
        <time>2026-08-24T14:14:25Z</time>
      </trkpt>
      <trkpt lat="49.17628" lon="3.95358">
        <ele>143.8</ele>
        <time>2026-08-24T14:14:26Z</time>
      </trkpt>
      <trkpt lat="49.17634" lon="3.95359">
        <ele>143.8</ele>
        <time>2026-08-24T14:14:27Z</time>
      </trkpt>
      <trkpt lat="49.1764" lon="3.9536">
        <ele>144</ele>
        <time>2026-08-24T14:14:28Z</time>
      </trkpt>
      <trkpt lat="49.17646" lon="3.95362">
        <ele>144</ele>
        <time>2026-08-24T14:14:29Z</time>
      </trkpt>
      <trkpt lat="49.17651" lon="3.95363">
        <ele>144</ele>
        <time>2026-08-24T14:14:30Z</time>
      </trkpt>
      <trkpt lat="49.17657" lon="3.95365">
        <ele>144</ele>
        <time>2026-08-24T14:14:31Z</time>
      </trkpt>
      <trkpt lat="49.17663" lon="3.95366">
        <ele>144.2</ele>
        <time>2026-08-24T14:14:32Z</time>
      </trkpt>
      <trkpt lat="49.17668" lon="3.95368">
        <ele>144.4</ele>
        <time>2026-08-24T14:14:33Z</time>
      </trkpt>
      <trkpt lat="49.17674" lon="3.95369">
        <ele>144.6</ele>
        <time>2026-08-24T14:14:34Z</time>
      </trkpt>
      <trkpt lat="49.17679" lon="3.9537">
        <ele>144.8</ele>
        <time>2026-08-24T14:14:35Z</time>
      </trkpt>
      <trkpt lat="49.17685" lon="3.95371">
        <ele>145</ele>
        <time>2026-08-24T14:14:36Z</time>
      </trkpt>
      <trkpt lat="49.1769" lon="3.95373">
        <ele>145.4</ele>
        <time>2026-08-24T14:14:37Z</time>
      </trkpt>
      <trkpt lat="49.17696" lon="3.95374">
        <ele>145.6</ele>
        <time>2026-08-24T14:14:38Z</time>
      </trkpt>
      <trkpt lat="49.17701" lon="3.95376">
        <ele>145.8</ele>
        <time>2026-08-24T14:14:39Z</time>
      </trkpt>
      <trkpt lat="49.17706" lon="3.95377">
        <ele>146</ele>
        <time>2026-08-24T14:14:40Z</time>
      </trkpt>
      <trkpt lat="49.17712" lon="3.95378">
        <ele>146</ele>
        <time>2026-08-24T14:14:41Z</time>
      </trkpt>
      <trkpt lat="49.17718" lon="3.95379">
        <ele>146.2</ele>
        <time>2026-08-24T14:14:42Z</time>
      </trkpt>
      <trkpt lat="49.17723" lon="3.9538">
        <ele>146.4</ele>
        <time>2026-08-24T14:14:43Z</time>
      </trkpt>
      <trkpt lat="49.17729" lon="3.95382">
        <ele>146.6</ele>
        <time>2026-08-24T14:14:44Z</time>
      </trkpt>
      <trkpt lat="49.17735" lon="3.95383">
        <ele>146.8</ele>
        <time>2026-08-24T14:14:45Z</time>
      </trkpt>
      <trkpt lat="49.17741" lon="3.95385">
        <ele>146.8</ele>
        <time>2026-08-24T14:14:46Z</time>
      </trkpt>
      <trkpt lat="49.17746" lon="3.95386">
        <ele>147</ele>
        <time>2026-08-24T14:14:47Z</time>
      </trkpt>
      <trkpt lat="49.17752" lon="3.95388">
        <ele>147.2</ele>
        <time>2026-08-24T14:14:48Z</time>
      </trkpt>
      <trkpt lat="49.17758" lon="3.95389">
        <ele>147.2</ele>
        <time>2026-08-24T14:14:49Z</time>
      </trkpt>
      <trkpt lat="49.17764" lon="3.95391">
        <ele>147.2</ele>
        <time>2026-08-24T14:14:50Z</time>
      </trkpt>
      <trkpt lat="49.17769" lon="3.95392">
        <ele>147.4</ele>
        <time>2026-08-24T14:14:51Z</time>
      </trkpt>
      <trkpt lat="49.17775" lon="3.95394">
        <ele>147.4</ele>
        <time>2026-08-24T14:14:52Z</time>
      </trkpt>
      <trkpt lat="49.1778" lon="3.95395">
        <ele>147.6</ele>
        <time>2026-08-24T14:14:53Z</time>
      </trkpt>
      <trkpt lat="49.17786" lon="3.95396">
        <ele>147.6</ele>
        <time>2026-08-24T14:14:54Z</time>
      </trkpt>
      <trkpt lat="49.17791" lon="3.95397">
        <ele>147.6</ele>
        <time>2026-08-24T14:14:55Z</time>
      </trkpt>
      <trkpt lat="49.17796" lon="3.95398">
        <ele>147.6</ele>
        <time>2026-08-24T14:14:56Z</time>
      </trkpt>
      <trkpt lat="49.17801" lon="3.95399">
        <ele>147.6</ele>
        <time>2026-08-24T14:14:57Z</time>
      </trkpt>
      <trkpt lat="49.17807" lon="3.95401">
        <ele>147.6</ele>
        <time>2026-08-24T14:14:58Z</time>
      </trkpt>
      <trkpt lat="49.17812" lon="3.95402">
        <ele>147.8</ele>
        <time>2026-08-24T14:14:59Z</time>
      </trkpt>
      <trkpt lat="49.17817" lon="3.95403">
        <ele>148</ele>
        <time>2026-08-24T14:15:00Z</time>
      </trkpt>
      <trkpt lat="49.17822" lon="3.95404">
        <ele>148.2</ele>
        <time>2026-08-24T14:15:01Z</time>
      </trkpt>
      <trkpt lat="49.17827" lon="3.95406">
        <ele>148.2</ele>
        <time>2026-08-24T14:15:02Z</time>
      </trkpt>
      <trkpt lat="49.17833" lon="3.95407">
        <ele>148.4</ele>
        <time>2026-08-24T14:15:03Z</time>
      </trkpt>
      <trkpt lat="49.17838" lon="3.95408">
        <ele>148.4</ele>
        <time>2026-08-24T14:15:04Z</time>
      </trkpt>
      <trkpt lat="49.17843" lon="3.95409">
        <ele>148.4</ele>
        <time>2026-08-24T14:15:05Z</time>
      </trkpt>
      <trkpt lat="49.17848" lon="3.9541">
        <ele>148.4</ele>
        <time>2026-08-24T14:15:06Z</time>
      </trkpt>
      <trkpt lat="49.17853" lon="3.95412">
        <ele>148.6</ele>
        <time>2026-08-24T14:15:07Z</time>
      </trkpt>
      <trkpt lat="49.17858" lon="3.95413">
        <ele>148.8</ele>
        <time>2026-08-24T14:15:08Z</time>
      </trkpt>
      <trkpt lat="49.17864" lon="3.95414">
        <ele>149</ele>
        <time>2026-08-24T14:15:09Z</time>
      </trkpt>
      <trkpt lat="49.17869" lon="3.95416">
        <ele>149</ele>
        <time>2026-08-24T14:15:10Z</time>
      </trkpt>
      <trkpt lat="49.17874" lon="3.95417">
        <ele>149.2</ele>
        <time>2026-08-24T14:15:11Z</time>
      </trkpt>
      <trkpt lat="49.17879" lon="3.95418">
        <ele>149.4</ele>
        <time>2026-08-24T14:15:12Z</time>
      </trkpt>
      <trkpt lat="49.17885" lon="3.95419">
        <ele>149.4</ele>
        <time>2026-08-24T14:15:13Z</time>
      </trkpt>
      <trkpt lat="49.17889" lon="3.9542">
        <ele>149.4</ele>
        <time>2026-08-24T14:15:14Z</time>
      </trkpt>
      <trkpt lat="49.17894" lon="3.95422">
        <ele>149.8</ele>
        <time>2026-08-24T14:15:15Z</time>
      </trkpt>
      <trkpt lat="49.179" lon="3.95423">
        <ele>149.8</ele>
        <time>2026-08-24T14:15:16Z</time>
      </trkpt>
      <trkpt lat="49.17905" lon="3.95424">
        <ele>150</ele>
        <time>2026-08-24T14:15:17Z</time>
      </trkpt>
      <trkpt lat="49.1791" lon="3.95425">
        <ele>150.2</ele>
        <time>2026-08-24T14:15:18Z</time>
      </trkpt>
      <trkpt lat="49.17915" lon="3.95426">
        <ele>150.2</ele>
        <time>2026-08-24T14:15:19Z</time>
      </trkpt>
      <trkpt lat="49.1792" lon="3.95427">
        <ele>150.4</ele>
        <time>2026-08-24T14:15:20Z</time>
      </trkpt>
      <trkpt lat="49.17925" lon="3.95428">
        <ele>150.2</ele>
        <time>2026-08-24T14:15:21Z</time>
      </trkpt>
      <trkpt lat="49.17931" lon="3.95429">
        <ele>150</ele>
        <time>2026-08-24T14:15:22Z</time>
      </trkpt>
      <trkpt lat="49.17936" lon="3.9543">
        <ele>150</ele>
        <time>2026-08-24T14:15:23Z</time>
      </trkpt>
      <trkpt lat="49.17941" lon="3.95432">
        <ele>150</ele>
        <time>2026-08-24T14:15:24Z</time>
      </trkpt>
      <trkpt lat="49.17947" lon="3.95433">
        <ele>150</ele>
        <time>2026-08-24T14:15:25Z</time>
      </trkpt>
      <trkpt lat="49.17953" lon="3.95435">
        <ele>150</ele>
        <time>2026-08-24T14:15:26Z</time>
      </trkpt>
      <trkpt lat="49.17958" lon="3.95436">
        <ele>150</ele>
        <time>2026-08-24T14:15:27Z</time>
      </trkpt>
      <trkpt lat="49.17964" lon="3.95437">
        <ele>150</ele>
        <time>2026-08-24T14:15:28Z</time>
      </trkpt>
      <trkpt lat="49.1797" lon="3.95439">
        <ele>150</ele>
        <time>2026-08-24T14:15:29Z</time>
      </trkpt>
      <trkpt lat="49.17976" lon="3.9544">
        <ele>150</ele>
        <time>2026-08-24T14:15:30Z</time>
      </trkpt>
      <trkpt lat="49.17982" lon="3.95442">
        <ele>150.2</ele>
        <time>2026-08-24T14:15:31Z</time>
      </trkpt>
      <trkpt lat="49.17988" lon="3.95443">
        <ele>150.4</ele>
        <time>2026-08-24T14:15:32Z</time>
      </trkpt>
      <trkpt lat="49.17994" lon="3.95445">
        <ele>150.6</ele>
        <time>2026-08-24T14:15:33Z</time>
      </trkpt>
      <trkpt lat="49.18" lon="3.95447">
        <ele>150.6</ele>
        <time>2026-08-24T14:15:34Z</time>
      </trkpt>
      <trkpt lat="49.18007" lon="3.95448">
        <ele>150.8</ele>
        <time>2026-08-24T14:15:35Z</time>
      </trkpt>
      <trkpt lat="49.18013" lon="3.9545">
        <ele>150.8</ele>
        <time>2026-08-24T14:15:36Z</time>
      </trkpt>
      <trkpt lat="49.18019" lon="3.95451">
        <ele>150.8</ele>
        <time>2026-08-24T14:15:37Z</time>
      </trkpt>
      <trkpt lat="49.18025" lon="3.95452">
        <ele>151</ele>
        <time>2026-08-24T14:15:38Z</time>
      </trkpt>
      <trkpt lat="49.18031" lon="3.95454">
        <ele>150.8</ele>
        <time>2026-08-24T14:15:39Z</time>
      </trkpt>
      <trkpt lat="49.18038" lon="3.95456">
        <ele>150.6</ele>
        <time>2026-08-24T14:15:40Z</time>
      </trkpt>
      <trkpt lat="49.18044" lon="3.95457">
        <ele>150.6</ele>
        <time>2026-08-24T14:15:41Z</time>
      </trkpt>
      <trkpt lat="49.1805" lon="3.95458">
        <ele>150.8</ele>
        <time>2026-08-24T14:15:42Z</time>
      </trkpt>
      <trkpt lat="49.18056" lon="3.9546">
        <ele>150.6</ele>
        <time>2026-08-24T14:15:43Z</time>
      </trkpt>
      <trkpt lat="49.18063" lon="3.95461">
        <ele>150.8</ele>
        <time>2026-08-24T14:15:44Z</time>
      </trkpt>
      <trkpt lat="49.18069" lon="3.95462">
        <ele>151</ele>
        <time>2026-08-24T14:15:45Z</time>
      </trkpt>
      <trkpt lat="49.18075" lon="3.95463">
        <ele>151</ele>
        <time>2026-08-24T14:15:46Z</time>
      </trkpt>
      <trkpt lat="49.18081" lon="3.95463">
        <ele>150.8</ele>
        <time>2026-08-24T14:15:47Z</time>
      </trkpt>
      <trkpt lat="49.18087" lon="3.95464">
        <ele>151</ele>
        <time>2026-08-24T14:15:48Z</time>
      </trkpt>
      <trkpt lat="49.18093" lon="3.95464">
        <ele>151.2</ele>
        <time>2026-08-24T14:15:49Z</time>
      </trkpt>
      <trkpt lat="49.181" lon="3.95464">
        <ele>151.4</ele>
        <time>2026-08-24T14:15:50Z</time>
      </trkpt>
      <trkpt lat="49.18106" lon="3.95463">
        <ele>151.4</ele>
        <time>2026-08-24T14:15:51Z</time>
      </trkpt>
      <trkpt lat="49.18113" lon="3.95463">
        <ele>151.6</ele>
        <time>2026-08-24T14:15:52Z</time>
      </trkpt>
      <trkpt lat="49.18119" lon="3.95462">
        <ele>151.4</ele>
        <time>2026-08-24T14:15:53Z</time>
      </trkpt>
      <trkpt lat="49.18126" lon="3.95461">
        <ele>151.2</ele>
        <time>2026-08-24T14:15:54Z</time>
      </trkpt>
      <trkpt lat="49.18133" lon="3.9546">
        <ele>151</ele>
        <time>2026-08-24T14:15:55Z</time>
      </trkpt>
      <trkpt lat="49.1814" lon="3.95458">
        <ele>150.8</ele>
        <time>2026-08-24T14:15:56Z</time>
      </trkpt>
      <trkpt lat="49.18147" lon="3.95456">
        <ele>150.6</ele>
        <time>2026-08-24T14:15:57Z</time>
      </trkpt>
      <trkpt lat="49.18155" lon="3.95454">
        <ele>150.4</ele>
        <time>2026-08-24T14:15:58Z</time>
      </trkpt>
      <trkpt lat="49.18163" lon="3.95452">
        <ele>150</ele>
        <time>2026-08-24T14:15:59Z</time>
      </trkpt>
      <trkpt lat="49.18171" lon="3.9545">
        <ele>150</ele>
        <time>2026-08-24T14:16:00Z</time>
      </trkpt>
      <trkpt lat="49.18179" lon="3.95447">
        <ele>149.6</ele>
        <time>2026-08-24T14:16:01Z</time>
      </trkpt>
      <trkpt lat="49.18187" lon="3.95445">
        <ele>149.2</ele>
        <time>2026-08-24T14:16:02Z</time>
      </trkpt>
      <trkpt lat="49.18196" lon="3.95442">
        <ele>148.8</ele>
        <time>2026-08-24T14:16:03Z</time>
      </trkpt>
      <trkpt lat="49.18205" lon="3.9544">
        <ele>148.6</ele>
        <time>2026-08-24T14:16:04Z</time>
      </trkpt>
      <trkpt lat="49.18213" lon="3.95437">
        <ele>148.4</ele>
        <time>2026-08-24T14:16:05Z</time>
      </trkpt>
      <trkpt lat="49.18223" lon="3.95434">
        <ele>148.2</ele>
        <time>2026-08-24T14:16:06Z</time>
      </trkpt>
      <trkpt lat="49.18231" lon="3.95432">
        <ele>147.8</ele>
        <time>2026-08-24T14:16:07Z</time>
      </trkpt>
      <trkpt lat="49.1824" lon="3.95429">
        <ele>147.4</ele>
        <time>2026-08-24T14:16:08Z</time>
      </trkpt>
      <trkpt lat="49.18249" lon="3.95426">
        <ele>147.2</ele>
        <time>2026-08-24T14:16:09Z</time>
      </trkpt>
      <trkpt lat="49.18258" lon="3.95423">
        <ele>147</ele>
        <time>2026-08-24T14:16:10Z</time>
      </trkpt>
      <trkpt lat="49.18267" lon="3.95421">
        <ele>147</ele>
        <time>2026-08-24T14:16:11Z</time>
      </trkpt>
      <trkpt lat="49.18276" lon="3.95418">
        <ele>146.8</ele>
        <time>2026-08-24T14:16:12Z</time>
      </trkpt>
      <trkpt lat="49.18285" lon="3.95415">
        <ele>146.4</ele>
        <time>2026-08-24T14:16:13Z</time>
      </trkpt>
      <trkpt lat="49.18294" lon="3.95412">
        <ele>145.8</ele>
        <time>2026-08-24T14:16:14Z</time>
      </trkpt>
      <trkpt lat="49.18304" lon="3.9541">
        <ele>145.2</ele>
        <time>2026-08-24T14:16:15Z</time>
      </trkpt>
      <trkpt lat="49.18313" lon="3.95407">
        <ele>145</ele>
        <time>2026-08-24T14:16:16Z</time>
      </trkpt>
      <trkpt lat="49.18321" lon="3.95404">
        <ele>144.4</ele>
        <time>2026-08-24T14:16:17Z</time>
      </trkpt>
      <trkpt lat="49.1833" lon="3.95401">
        <ele>144.4</ele>
        <time>2026-08-24T14:16:18Z</time>
      </trkpt>
      <trkpt lat="49.18339" lon="3.95398">
        <ele>144.2</ele>
        <time>2026-08-24T14:16:19Z</time>
      </trkpt>
      <trkpt lat="49.18347" lon="3.95394">
        <ele>144.2</ele>
        <time>2026-08-24T14:16:20Z</time>
      </trkpt>
      <trkpt lat="49.18356" lon="3.95391">
        <ele>144</ele>
        <time>2026-08-24T14:16:21Z</time>
      </trkpt>
      <trkpt lat="49.18364" lon="3.95387">
        <ele>144</ele>
        <time>2026-08-24T14:16:22Z</time>
      </trkpt>
      <trkpt lat="49.18373" lon="3.95383">
        <ele>144</ele>
        <time>2026-08-24T14:16:23Z</time>
      </trkpt>
      <trkpt lat="49.18381" lon="3.95379">
        <ele>143.8</ele>
        <time>2026-08-24T14:16:24Z</time>
      </trkpt>
      <trkpt lat="49.18389" lon="3.95375">
        <ele>143.8</ele>
        <time>2026-08-24T14:16:25Z</time>
      </trkpt>
      <trkpt lat="49.18397" lon="3.95371">
        <ele>143.8</ele>
        <time>2026-08-24T14:16:26Z</time>
      </trkpt>
      <trkpt lat="49.18405" lon="3.95366">
        <ele>144</ele>
        <time>2026-08-24T14:16:27Z</time>
      </trkpt>
      <trkpt lat="49.18413" lon="3.95361">
        <ele>143.8</ele>
        <time>2026-08-24T14:16:28Z</time>
      </trkpt>
      <trkpt lat="49.1842" lon="3.95356">
        <ele>143.8</ele>
        <time>2026-08-24T14:16:29Z</time>
      </trkpt>
      <trkpt lat="49.18428" lon="3.9535">
        <ele>144</ele>
        <time>2026-08-24T14:16:30Z</time>
      </trkpt>
      <trkpt lat="49.18434" lon="3.95345">
        <ele>144</ele>
        <time>2026-08-24T14:16:31Z</time>
      </trkpt>
      <trkpt lat="49.18441" lon="3.9534">
        <ele>144</ele>
        <time>2026-08-24T14:16:32Z</time>
      </trkpt>
      <trkpt lat="49.18448" lon="3.95336">
        <ele>144.2</ele>
        <time>2026-08-24T14:16:33Z</time>
      </trkpt>
      <trkpt lat="49.18455" lon="3.95332">
        <ele>144.4</ele>
        <time>2026-08-24T14:16:34Z</time>
      </trkpt>
      <trkpt lat="49.18462" lon="3.95327">
        <ele>144.6</ele>
        <time>2026-08-24T14:16:35Z</time>
      </trkpt>
      <trkpt lat="49.18469" lon="3.95322">
        <ele>144.8</ele>
        <time>2026-08-24T14:16:36Z</time>
      </trkpt>
      <trkpt lat="49.18475" lon="3.95318">
        <ele>144.6</ele>
        <time>2026-08-24T14:16:37Z</time>
      </trkpt>
      <trkpt lat="49.18481" lon="3.95313">
        <ele>144.8</ele>
        <time>2026-08-24T14:16:38Z</time>
      </trkpt>
      <trkpt lat="49.18488" lon="3.9531">
        <ele>144.8</ele>
        <time>2026-08-24T14:16:39Z</time>
      </trkpt>
      <trkpt lat="49.18494" lon="3.95305">
        <ele>145</ele>
        <time>2026-08-24T14:16:40Z</time>
      </trkpt>
      <trkpt lat="49.185" lon="3.95301">
        <ele>145.2</ele>
        <time>2026-08-24T14:16:41Z</time>
      </trkpt>
      <trkpt lat="49.18505" lon="3.95296">
        <ele>145.6</ele>
        <time>2026-08-24T14:16:42Z</time>
      </trkpt>
      <trkpt lat="49.18511" lon="3.95291">
        <ele>146</ele>
        <time>2026-08-24T14:16:43Z</time>
      </trkpt>
      <trkpt lat="49.18516" lon="3.95287">
        <ele>146.2</ele>
        <time>2026-08-24T14:16:44Z</time>
      </trkpt>
      <trkpt lat="49.18521" lon="3.95283">
        <ele>146.4</ele>
        <time>2026-08-24T14:16:45Z</time>
      </trkpt>
      <trkpt lat="49.18526" lon="3.95279">
        <ele>146.6</ele>
        <time>2026-08-24T14:16:46Z</time>
      </trkpt>
      <trkpt lat="49.18532" lon="3.95274">
        <ele>146.8</ele>
        <time>2026-08-24T14:16:47Z</time>
      </trkpt>
      <trkpt lat="49.18537" lon="3.95271">
        <ele>146.8</ele>
        <time>2026-08-24T14:16:48Z</time>
      </trkpt>
      <trkpt lat="49.18542" lon="3.95267">
        <ele>147</ele>
        <time>2026-08-24T14:16:49Z</time>
      </trkpt>
      <trkpt lat="49.18547" lon="3.95264">
        <ele>147</ele>
        <time>2026-08-24T14:16:50Z</time>
      </trkpt>
      <trkpt lat="49.18551" lon="3.95262">
        <ele>147</ele>
        <time>2026-08-24T14:16:51Z</time>
      </trkpt>
      <trkpt lat="49.18555" lon="3.9526">
        <ele>147</ele>
        <time>2026-08-24T14:16:52Z</time>
      </trkpt>
      <trkpt lat="49.18558" lon="3.95259">
        <ele>146.8</ele>
        <time>2026-08-24T14:16:53Z</time>
      </trkpt>
      <trkpt lat="49.1856" lon="3.95258">
        <ele>146.8</ele>
        <time>2026-08-24T14:16:54Z</time>
      </trkpt>
      <trkpt lat="49.18562" lon="3.95256">
        <ele>146.8</ele>
        <time>2026-08-24T14:16:55Z</time>
      </trkpt>
      <trkpt lat="49.18563" lon="3.95254">
        <ele>146.6</ele>
        <time>2026-08-24T14:16:56Z</time>
      </trkpt>
      <trkpt lat="49.18565" lon="3.95253">
        <ele>146.6</ele>
        <time>2026-08-24T14:16:57Z</time>
      </trkpt>
      <trkpt lat="49.18567" lon="3.95252">
        <ele>146.4</ele>
        <time>2026-08-24T14:16:58Z</time>
      </trkpt>
      <trkpt lat="49.18571" lon="3.95251">
        <ele>146.2</ele>
        <time>2026-08-24T14:16:59Z</time>
      </trkpt>
      <trkpt lat="49.18574" lon="3.95251">
        <ele>145.8</ele>
        <time>2026-08-24T14:17:00Z</time>
      </trkpt>
      <trkpt lat="49.18579" lon="3.95251">
        <ele>145.6</ele>
        <time>2026-08-24T14:17:01Z</time>
      </trkpt>
      <trkpt lat="49.18584" lon="3.95251">
        <ele>145.2</ele>
        <time>2026-08-24T14:17:02Z</time>
      </trkpt>
      <trkpt lat="49.18589" lon="3.95251">
        <ele>144.6</ele>
        <time>2026-08-24T14:17:03Z</time>
      </trkpt>
      <trkpt lat="49.18596" lon="3.95251">
        <ele>144.4</ele>
        <time>2026-08-24T14:17:04Z</time>
      </trkpt>
      <trkpt lat="49.18602" lon="3.9525">
        <ele>144</ele>
        <time>2026-08-24T14:17:05Z</time>
      </trkpt>
      <trkpt lat="49.18609" lon="3.95249">
        <ele>143.6</ele>
        <time>2026-08-24T14:17:06Z</time>
      </trkpt>
      <trkpt lat="49.18616" lon="3.95248">
        <ele>143.4</ele>
        <time>2026-08-24T14:17:07Z</time>
      </trkpt>
      <trkpt lat="49.18623" lon="3.95247">
        <ele>142.8</ele>
        <time>2026-08-24T14:17:08Z</time>
      </trkpt>
      <trkpt lat="49.1863" lon="3.95246">
        <ele>142.6</ele>
        <time>2026-08-24T14:17:09Z</time>
      </trkpt>
      <trkpt lat="49.18637" lon="3.95243">
        <ele>142.2</ele>
        <time>2026-08-24T14:17:10Z</time>
      </trkpt>
      <trkpt lat="49.18644" lon="3.95241">
        <ele>142</ele>
        <time>2026-08-24T14:17:11Z</time>
      </trkpt>
      <trkpt lat="49.18651" lon="3.95238">
        <ele>141.8</ele>
        <time>2026-08-24T14:17:12Z</time>
      </trkpt>
      <trkpt lat="49.18658" lon="3.95236">
        <ele>142</ele>
        <time>2026-08-24T14:17:13Z</time>
      </trkpt>
      <trkpt lat="49.18664" lon="3.95235">
        <ele>142</ele>
        <time>2026-08-24T14:17:14Z</time>
      </trkpt>
      <trkpt lat="49.18669" lon="3.95235">
        <ele>142.2</ele>
        <time>2026-08-24T14:17:15Z</time>
      </trkpt>
      <trkpt lat="49.18673" lon="3.95237">
        <ele>142.2</ele>
        <time>2026-08-24T14:17:16Z</time>
      </trkpt>
      <trkpt lat="49.18676" lon="3.95241">
        <ele>142.4</ele>
        <time>2026-08-24T14:17:17Z</time>
      </trkpt>
      <trkpt lat="49.18678" lon="3.95247">
        <ele>142.4</ele>
        <time>2026-08-24T14:17:18Z</time>
      </trkpt>
      <trkpt lat="49.18679" lon="3.95254">
        <ele>142.4</ele>
        <time>2026-08-24T14:17:19Z</time>
      </trkpt>
      <trkpt lat="49.18681" lon="3.95262">
        <ele>142.4</ele>
        <time>2026-08-24T14:17:20Z</time>
      </trkpt>
      <trkpt lat="49.18682" lon="3.9527">
        <ele>142.2</ele>
        <time>2026-08-24T14:17:21Z</time>
      </trkpt>
      <trkpt lat="49.18684" lon="3.95279">
        <ele>142</ele>
        <time>2026-08-24T14:17:22Z</time>
      </trkpt>
      <trkpt lat="49.18686" lon="3.95288">
        <ele>141.6</ele>
        <time>2026-08-24T14:17:23Z</time>
      </trkpt>
      <trkpt lat="49.18687" lon="3.95298">
        <ele>141.2</ele>
        <time>2026-08-24T14:17:24Z</time>
      </trkpt>
      <trkpt lat="49.18688" lon="3.95308">
        <ele>140.8</ele>
        <time>2026-08-24T14:17:25Z</time>
      </trkpt>
      <trkpt lat="49.18691" lon="3.95318">
        <ele>140.4</ele>
        <time>2026-08-24T14:17:26Z</time>
      </trkpt>
      <trkpt lat="49.18693" lon="3.95327">
        <ele>140.2</ele>
        <time>2026-08-24T14:17:27Z</time>
      </trkpt>
      <trkpt lat="49.18696" lon="3.95337">
        <ele>140</ele>
        <time>2026-08-24T14:17:28Z</time>
      </trkpt>
      <trkpt lat="49.187" lon="3.95346">
        <ele>139.8</ele>
        <time>2026-08-24T14:17:29Z</time>
      </trkpt>
      <trkpt lat="49.18704" lon="3.95355">
        <ele>139.6</ele>
        <time>2026-08-24T14:17:30Z</time>
      </trkpt>
      <trkpt lat="49.18708" lon="3.95365">
        <ele>139.4</ele>
        <time>2026-08-24T14:17:31Z</time>
      </trkpt>
      <trkpt lat="49.18712" lon="3.95374">
        <ele>139.2</ele>
        <time>2026-08-24T14:17:32Z</time>
      </trkpt>
      <trkpt lat="49.18715" lon="3.95383">
        <ele>139</ele>
        <time>2026-08-24T14:17:33Z</time>
      </trkpt>
      <trkpt lat="49.18719" lon="3.95393">
        <ele>138.8</ele>
        <time>2026-08-24T14:17:34Z</time>
      </trkpt>
      <trkpt lat="49.18723" lon="3.95403">
        <ele>138.6</ele>
        <time>2026-08-24T14:17:35Z</time>
      </trkpt>
      <trkpt lat="49.18727" lon="3.95412">
        <ele>138.4</ele>
        <time>2026-08-24T14:17:36Z</time>
      </trkpt>
      <trkpt lat="49.18731" lon="3.95422">
        <ele>138.4</ele>
        <time>2026-08-24T14:17:37Z</time>
      </trkpt>
      <trkpt lat="49.18735" lon="3.95431">
        <ele>138.4</ele>
        <time>2026-08-24T14:17:38Z</time>
      </trkpt>
      <trkpt lat="49.18739" lon="3.95441">
        <ele>138.2</ele>
        <time>2026-08-24T14:17:39Z</time>
      </trkpt>
      <trkpt lat="49.18743" lon="3.9545">
        <ele>138.2</ele>
        <time>2026-08-24T14:17:40Z</time>
      </trkpt>
      <trkpt lat="49.18747" lon="3.9546">
        <ele>138</ele>
        <time>2026-08-24T14:17:41Z</time>
      </trkpt>
      <trkpt lat="49.18751" lon="3.9547">
        <ele>137.8</ele>
        <time>2026-08-24T14:17:42Z</time>
      </trkpt>
      <trkpt lat="49.18755" lon="3.9548">
        <ele>138</ele>
        <time>2026-08-24T14:17:43Z</time>
      </trkpt>
      <trkpt lat="49.18759" lon="3.9549">
        <ele>137.8</ele>
        <time>2026-08-24T14:17:44Z</time>
      </trkpt>
      <trkpt lat="49.18763" lon="3.955">
        <ele>137.8</ele>
        <time>2026-08-24T14:17:45Z</time>
      </trkpt>
      <trkpt lat="49.18768" lon="3.9551">
        <ele>138</ele>
        <time>2026-08-24T14:17:46Z</time>
      </trkpt>
      <trkpt lat="49.18772" lon="3.95519">
        <ele>138</ele>
        <time>2026-08-24T14:17:47Z</time>
      </trkpt>
      <trkpt lat="49.18776" lon="3.95529">
        <ele>138</ele>
        <time>2026-08-24T14:17:48Z</time>
      </trkpt>
      <trkpt lat="49.18781" lon="3.95538">
        <ele>138.2</ele>
        <time>2026-08-24T14:17:49Z</time>
      </trkpt>
      <trkpt lat="49.18785" lon="3.95547">
        <ele>138.2</ele>
        <time>2026-08-24T14:17:50Z</time>
      </trkpt>
      <trkpt lat="49.18789" lon="3.95557">
        <ele>138.4</ele>
        <time>2026-08-24T14:17:51Z</time>
      </trkpt>
      <trkpt lat="49.18793" lon="3.95566">
        <ele>138.8</ele>
        <time>2026-08-24T14:17:52Z</time>
      </trkpt>
      <trkpt lat="49.18797" lon="3.95575">
        <ele>139</ele>
        <time>2026-08-24T14:17:53Z</time>
      </trkpt>
      <trkpt lat="49.18801" lon="3.95584">
        <ele>139.2</ele>
        <time>2026-08-24T14:17:54Z</time>
      </trkpt>
      <trkpt lat="49.18804" lon="3.95592">
        <ele>139.6</ele>
        <time>2026-08-24T14:17:55Z</time>
      </trkpt>
      <trkpt lat="49.18808" lon="3.956">
        <ele>139.8</ele>
        <time>2026-08-24T14:17:56Z</time>
      </trkpt>
      <trkpt lat="49.18812" lon="3.95607">
        <ele>140</ele>
        <time>2026-08-24T14:17:57Z</time>
      </trkpt>
      <trkpt lat="49.18816" lon="3.95615">
        <ele>140</ele>
        <time>2026-08-24T14:17:58Z</time>
      </trkpt>
      <trkpt lat="49.18819" lon="3.95622">
        <ele>140.2</ele>
        <time>2026-08-24T14:17:59Z</time>
      </trkpt>
      <trkpt lat="49.18823" lon="3.95629">
        <ele>140</ele>
        <time>2026-08-24T14:18:00Z</time>
      </trkpt>
      <trkpt lat="49.18828" lon="3.95636">
        <ele>140.2</ele>
        <time>2026-08-24T14:18:01Z</time>
      </trkpt>
      <trkpt lat="49.18832" lon="3.95642">
        <ele>140.4</ele>
        <time>2026-08-24T14:18:02Z</time>
      </trkpt>
      <trkpt lat="49.18837" lon="3.95648">
        <ele>140.6</ele>
        <time>2026-08-24T14:18:03Z</time>
      </trkpt>
      <trkpt lat="49.18842" lon="3.95654">
        <ele>140.6</ele>
        <time>2026-08-24T14:18:04Z</time>
      </trkpt>
      <trkpt lat="49.18847" lon="3.9566">
        <ele>141</ele>
        <time>2026-08-24T14:18:05Z</time>
      </trkpt>
      <trkpt lat="49.18852" lon="3.95665">
        <ele>141.2</ele>
        <time>2026-08-24T14:18:06Z</time>
      </trkpt>
      <trkpt lat="49.18857" lon="3.95671">
        <ele>141.4</ele>
        <time>2026-08-24T14:18:07Z</time>
      </trkpt>
      <trkpt lat="49.18862" lon="3.95676">
        <ele>141.4</ele>
        <time>2026-08-24T14:18:08Z</time>
      </trkpt>
      <trkpt lat="49.18868" lon="3.95682">
        <ele>141.8</ele>
        <time>2026-08-24T14:18:09Z</time>
      </trkpt>
      <trkpt lat="49.18873" lon="3.95687">
        <ele>142</ele>
        <time>2026-08-24T14:18:10Z</time>
      </trkpt>
      <trkpt lat="49.18878" lon="3.95693">
        <ele>142.2</ele>
        <time>2026-08-24T14:18:11Z</time>
      </trkpt>
      <trkpt lat="49.18882" lon="3.95698">
        <ele>142.4</ele>
        <time>2026-08-24T14:18:12Z</time>
      </trkpt>
      <trkpt lat="49.18887" lon="3.95704">
        <ele>142.6</ele>
        <time>2026-08-24T14:18:13Z</time>
      </trkpt>
      <trkpt lat="49.18892" lon="3.9571">
        <ele>142.8</ele>
        <time>2026-08-24T14:18:14Z</time>
      </trkpt>
      <trkpt lat="49.18897" lon="3.95715">
        <ele>142.8</ele>
        <time>2026-08-24T14:18:15Z</time>
      </trkpt>
      <trkpt lat="49.18902" lon="3.9572">
        <ele>143</ele>
        <time>2026-08-24T14:18:16Z</time>
      </trkpt>
      <trkpt lat="49.18907" lon="3.95725">
        <ele>143.4</ele>
        <time>2026-08-24T14:18:17Z</time>
      </trkpt>
      <trkpt lat="49.18912" lon="3.9573">
        <ele>143.4</ele>
        <time>2026-08-24T14:18:18Z</time>
      </trkpt>
      <trkpt lat="49.18917" lon="3.95736">
        <ele>143.4</ele>
        <time>2026-08-24T14:18:19Z</time>
      </trkpt>
      <trkpt lat="49.18922" lon="3.95741">
        <ele>143.4</ele>
        <time>2026-08-24T14:18:20Z</time>
      </trkpt>
      <trkpt lat="49.18927" lon="3.95746">
        <ele>143.4</ele>
        <time>2026-08-24T14:18:21Z</time>
      </trkpt>
      <trkpt lat="49.18932" lon="3.95751">
        <ele>143.6</ele>
        <time>2026-08-24T14:18:22Z</time>
      </trkpt>
      <trkpt lat="49.18936" lon="3.95756">
        <ele>143.6</ele>
        <time>2026-08-24T14:18:23Z</time>
      </trkpt>
      <trkpt lat="49.18941" lon="3.95761">
        <ele>143.8</ele>
        <time>2026-08-24T14:18:24Z</time>
      </trkpt>
      <trkpt lat="49.18946" lon="3.95765">
        <ele>144</ele>
        <time>2026-08-24T14:18:25Z</time>
      </trkpt>
      <trkpt lat="49.1895" lon="3.9577">
        <ele>144.2</ele>
        <time>2026-08-24T14:18:26Z</time>
      </trkpt>
      <trkpt lat="49.18955" lon="3.95775">
        <ele>144.4</ele>
        <time>2026-08-24T14:18:27Z</time>
      </trkpt>
      <trkpt lat="49.18959" lon="3.95779">
        <ele>144.6</ele>
        <time>2026-08-24T14:18:28Z</time>
      </trkpt>
      <trkpt lat="49.18963" lon="3.95784">
        <ele>144.6</ele>
        <time>2026-08-24T14:18:29Z</time>
      </trkpt>
      <trkpt lat="49.18968" lon="3.95788">
        <ele>144.8</ele>
        <time>2026-08-24T14:18:30Z</time>
      </trkpt>
      <trkpt lat="49.18972" lon="3.95792">
        <ele>145</ele>
        <time>2026-08-24T14:18:31Z</time>
      </trkpt>
      <trkpt lat="49.18976" lon="3.95796">
        <ele>145.2</ele>
        <time>2026-08-24T14:18:32Z</time>
      </trkpt>
      <trkpt lat="49.1898" lon="3.958">
        <ele>145.2</ele>
        <time>2026-08-24T14:18:33Z</time>
      </trkpt>
      <trkpt lat="49.18985" lon="3.95803">
        <ele>145.4</ele>
        <time>2026-08-24T14:18:34Z</time>
      </trkpt>
      <trkpt lat="49.18989" lon="3.95807">
        <ele>145.6</ele>
        <time>2026-08-24T14:18:35Z</time>
      </trkpt>
      <trkpt lat="49.18994" lon="3.95811">
        <ele>145.6</ele>
        <time>2026-08-24T14:18:36Z</time>
      </trkpt>
      <trkpt lat="49.18998" lon="3.95814">
        <ele>145.8</ele>
        <time>2026-08-24T14:18:37Z</time>
      </trkpt>
      <trkpt lat="49.19003" lon="3.95818">
        <ele>145.8</ele>
        <time>2026-08-24T14:18:38Z</time>
      </trkpt>
      <trkpt lat="49.19007" lon="3.95821">
        <ele>145.8</ele>
        <time>2026-08-24T14:18:39Z</time>
      </trkpt>
      <trkpt lat="49.19012" lon="3.95824">
        <ele>145.8</ele>
        <time>2026-08-24T14:18:40Z</time>
      </trkpt>
      <trkpt lat="49.19018" lon="3.95826">
        <ele>145.8</ele>
        <time>2026-08-24T14:18:41Z</time>
      </trkpt>
      <trkpt lat="49.19023" lon="3.95828">
        <ele>145.6</ele>
        <time>2026-08-24T14:18:42Z</time>
      </trkpt>
      <trkpt lat="49.19028" lon="3.9583">
        <ele>145.6</ele>
        <time>2026-08-24T14:18:43Z</time>
      </trkpt>
      <trkpt lat="49.19034" lon="3.95832">
        <ele>145.6</ele>
        <time>2026-08-24T14:18:44Z</time>
      </trkpt>
      <trkpt lat="49.1904" lon="3.95833">
        <ele>145.4</ele>
        <time>2026-08-24T14:18:45Z</time>
      </trkpt>
      <trkpt lat="49.19046" lon="3.95833">
        <ele>145.4</ele>
        <time>2026-08-24T14:18:46Z</time>
      </trkpt>
      <trkpt lat="49.19053" lon="3.95833">
        <ele>145.2</ele>
        <time>2026-08-24T14:18:47Z</time>
      </trkpt>
      <trkpt lat="49.19059" lon="3.95833">
        <ele>145.2</ele>
        <time>2026-08-24T14:18:48Z</time>
      </trkpt>
      <trkpt lat="49.19066" lon="3.95832">
        <ele>145</ele>
        <time>2026-08-24T14:18:49Z</time>
      </trkpt>
      <trkpt lat="49.19073" lon="3.9583">
        <ele>144.6</ele>
        <time>2026-08-24T14:18:50Z</time>
      </trkpt>
      <trkpt lat="49.19081" lon="3.95827">
        <ele>144.4</ele>
        <time>2026-08-24T14:18:51Z</time>
      </trkpt>
      <trkpt lat="49.19089" lon="3.95823">
        <ele>144</ele>
        <time>2026-08-24T14:18:52Z</time>
      </trkpt>
      <trkpt lat="49.19097" lon="3.95819">
        <ele>143.6</ele>
        <time>2026-08-24T14:18:53Z</time>
      </trkpt>
      <trkpt lat="49.19105" lon="3.95814">
        <ele>143</ele>
        <time>2026-08-24T14:18:54Z</time>
      </trkpt>
      <trkpt lat="49.19113" lon="3.95808">
        <ele>142.6</ele>
        <time>2026-08-24T14:18:55Z</time>
      </trkpt>
      <trkpt lat="49.1912" lon="3.95801">
        <ele>141.8</ele>
        <time>2026-08-24T14:18:56Z</time>
      </trkpt>
      <trkpt lat="49.19128" lon="3.95792">
        <ele>141</ele>
        <time>2026-08-24T14:18:57Z</time>
      </trkpt>
      <trkpt lat="49.19136" lon="3.95784">
        <ele>140.4</ele>
        <time>2026-08-24T14:18:58Z</time>
      </trkpt>
      <trkpt lat="49.19144" lon="3.95774">
        <ele>139.6</ele>
        <time>2026-08-24T14:18:59Z</time>
      </trkpt>
      <trkpt lat="49.19152" lon="3.95765">
        <ele>138.6</ele>
        <time>2026-08-24T14:19:00Z</time>
      </trkpt>
      <trkpt lat="49.1916" lon="3.95755">
        <ele>137.8</ele>
        <time>2026-08-24T14:19:01Z</time>
      </trkpt>
      <trkpt lat="49.19168" lon="3.95745">
        <ele>137.2</ele>
        <time>2026-08-24T14:19:02Z</time>
      </trkpt>
      <trkpt lat="49.19177" lon="3.95736">
        <ele>136.8</ele>
        <time>2026-08-24T14:19:03Z</time>
      </trkpt>
      <trkpt lat="49.19186" lon="3.95727">
        <ele>135.6</ele>
        <time>2026-08-24T14:19:04Z</time>
      </trkpt>
      <trkpt lat="49.19196" lon="3.95718">
        <ele>134.6</ele>
        <time>2026-08-24T14:19:05Z</time>
      </trkpt>
      <trkpt lat="49.19206" lon="3.9571">
        <ele>133.6</ele>
        <time>2026-08-24T14:19:06Z</time>
      </trkpt>
      <trkpt lat="49.19216" lon="3.95703">
        <ele>132.6</ele>
        <time>2026-08-24T14:19:07Z</time>
      </trkpt>
      <trkpt lat="49.19227" lon="3.95696">
        <ele>131.6</ele>
        <time>2026-08-24T14:19:08Z</time>
      </trkpt>
      <trkpt lat="49.19238" lon="3.95691">
        <ele>130.8</ele>
        <time>2026-08-24T14:19:09Z</time>
      </trkpt>
      <trkpt lat="49.19249" lon="3.95686">
        <ele>130.2</ele>
        <time>2026-08-24T14:19:10Z</time>
      </trkpt>
      <trkpt lat="49.1926" lon="3.95682">
        <ele>129.6</ele>
        <time>2026-08-24T14:19:11Z</time>
      </trkpt>
      <trkpt lat="49.19272" lon="3.95679">
        <ele>129.4</ele>
        <time>2026-08-24T14:19:12Z</time>
      </trkpt>
      <trkpt lat="49.19284" lon="3.95677">
        <ele>128.8</ele>
        <time>2026-08-24T14:19:13Z</time>
      </trkpt>
      <trkpt lat="49.19296" lon="3.95676">
        <ele>128.2</ele>
        <time>2026-08-24T14:19:14Z</time>
      </trkpt>
      <trkpt lat="49.19308" lon="3.95675">
        <ele>127.2</ele>
        <time>2026-08-24T14:19:15Z</time>
      </trkpt>
      <trkpt lat="49.1932" lon="3.95675">
        <ele>126.4</ele>
        <time>2026-08-24T14:19:16Z</time>
      </trkpt>
      <trkpt lat="49.19332" lon="3.95675">
        <ele>125.6</ele>
        <time>2026-08-24T14:19:17Z</time>
      </trkpt>
      <trkpt lat="49.19343" lon="3.95676">
        <ele>125</ele>
        <time>2026-08-24T14:19:18Z</time>
      </trkpt>
      <trkpt lat="49.19355" lon="3.95676">
        <ele>124.4</ele>
        <time>2026-08-24T14:19:19Z</time>
      </trkpt>
      <trkpt lat="49.19367" lon="3.95676">
        <ele>123.8</ele>
        <time>2026-08-24T14:19:20Z</time>
      </trkpt>
      <trkpt lat="49.19378" lon="3.95676">
        <ele>123.4</ele>
        <time>2026-08-24T14:19:21Z</time>
      </trkpt>
      <trkpt lat="49.1939" lon="3.95675">
        <ele>123</ele>
        <time>2026-08-24T14:19:22Z</time>
      </trkpt>
      <trkpt lat="49.19401" lon="3.95674">
        <ele>122.6</ele>
        <time>2026-08-24T14:19:23Z</time>
      </trkpt>
      <trkpt lat="49.19411" lon="3.95672">
        <ele>122.4</ele>
        <time>2026-08-24T14:19:24Z</time>
      </trkpt>
      <trkpt lat="49.19422" lon="3.95669">
        <ele>122.4</ele>
        <time>2026-08-24T14:19:25Z</time>
      </trkpt>
      <trkpt lat="49.19431" lon="3.95664">
        <ele>122.4</ele>
        <time>2026-08-24T14:19:26Z</time>
      </trkpt>
      <trkpt lat="49.19441" lon="3.95658">
        <ele>122.4</ele>
        <time>2026-08-24T14:19:27Z</time>
      </trkpt>
      <trkpt lat="49.1945" lon="3.95651">
        <ele>122.4</ele>
        <time>2026-08-24T14:19:28Z</time>
      </trkpt>
      <trkpt lat="49.19458" lon="3.95643">
        <ele>122.2</ele>
        <time>2026-08-24T14:19:29Z</time>
      </trkpt>
      <trkpt lat="49.19466" lon="3.95634">
        <ele>122</ele>
        <time>2026-08-24T14:19:30Z</time>
      </trkpt>
      <trkpt lat="49.19474" lon="3.95624">
        <ele>121.8</ele>
        <time>2026-08-24T14:19:31Z</time>
      </trkpt>
      <trkpt lat="49.19481" lon="3.95614">
        <ele>121.8</ele>
        <time>2026-08-24T14:19:32Z</time>
      </trkpt>
      <trkpt lat="49.19488" lon="3.95604">
        <ele>121.6</ele>
        <time>2026-08-24T14:19:33Z</time>
      </trkpt>
      <trkpt lat="49.19496" lon="3.95593">
        <ele>121.6</ele>
        <time>2026-08-24T14:19:34Z</time>
      </trkpt>
      <trkpt lat="49.19503" lon="3.95583">
        <ele>121.6</ele>
        <time>2026-08-24T14:19:35Z</time>
      </trkpt>
      <trkpt lat="49.1951" lon="3.95572">
        <ele>121.4</ele>
        <time>2026-08-24T14:19:36Z</time>
      </trkpt>
      <trkpt lat="49.19517" lon="3.95561">
        <ele>121.2</ele>
        <time>2026-08-24T14:19:37Z</time>
      </trkpt>
      <trkpt lat="49.19524" lon="3.9555">
        <ele>120.8</ele>
        <time>2026-08-24T14:19:38Z</time>
      </trkpt>
      <trkpt lat="49.19532" lon="3.95539">
        <ele>120.6</ele>
        <time>2026-08-24T14:19:39Z</time>
      </trkpt>
      <trkpt lat="49.19539" lon="3.95528">
        <ele>120.6</ele>
        <time>2026-08-24T14:19:40Z</time>
      </trkpt>
      <trkpt lat="49.19546" lon="3.95516">
        <ele>120.2</ele>
        <time>2026-08-24T14:19:41Z</time>
      </trkpt>
      <trkpt lat="49.19554" lon="3.95504">
        <ele>120</ele>
        <time>2026-08-24T14:19:42Z</time>
      </trkpt>
      <trkpt lat="49.19561" lon="3.95493">
        <ele>120</ele>
        <time>2026-08-24T14:19:43Z</time>
      </trkpt>
      <trkpt lat="49.19568" lon="3.95481">
        <ele>119.8</ele>
        <time>2026-08-24T14:19:44Z</time>
      </trkpt>
      <trkpt lat="49.19576" lon="3.95469">
        <ele>119.6</ele>
        <time>2026-08-24T14:19:45Z</time>
      </trkpt>
      <trkpt lat="49.19583" lon="3.95458">
        <ele>119.6</ele>
        <time>2026-08-24T14:19:46Z</time>
      </trkpt>
      <trkpt lat="49.1959" lon="3.95447">
        <ele>119.4</ele>
        <time>2026-08-24T14:19:47Z</time>
      </trkpt>
      <trkpt lat="49.19597" lon="3.95436">
        <ele>119.4</ele>
        <time>2026-08-24T14:19:48Z</time>
      </trkpt>
      <trkpt lat="49.19604" lon="3.95425">
        <ele>119.2</ele>
        <time>2026-08-24T14:19:49Z</time>
      </trkpt>
      <trkpt lat="49.19611" lon="3.95414">
        <ele>118.8</ele>
        <time>2026-08-24T14:19:50Z</time>
      </trkpt>
      <trkpt lat="49.19618" lon="3.95403">
        <ele>118.8</ele>
        <time>2026-08-24T14:19:51Z</time>
      </trkpt>
      <trkpt lat="49.19624" lon="3.95393">
        <ele>119</ele>
        <time>2026-08-24T14:19:52Z</time>
      </trkpt>
      <trkpt lat="49.19631" lon="3.95383">
        <ele>119.4</ele>
        <time>2026-08-24T14:19:53Z</time>
      </trkpt>
      <trkpt lat="49.19637" lon="3.95373">
        <ele>119.6</ele>
        <time>2026-08-24T14:19:54Z</time>
      </trkpt>
      <trkpt lat="49.19643" lon="3.95364">
        <ele>120</ele>
        <time>2026-08-24T14:19:55Z</time>
      </trkpt>
      <trkpt lat="49.19649" lon="3.95355">
        <ele>120.4</ele>
        <time>2026-08-24T14:19:56Z</time>
      </trkpt>
      <trkpt lat="49.19654" lon="3.95346">
        <ele>120.6</ele>
        <time>2026-08-24T14:19:57Z</time>
      </trkpt>
      <trkpt lat="49.1966" lon="3.95338">
        <ele>121</ele>
        <time>2026-08-24T14:19:58Z</time>
      </trkpt>
      <trkpt lat="49.19665" lon="3.9533">
        <ele>121.4</ele>
        <time>2026-08-24T14:19:59Z</time>
      </trkpt>
      <trkpt lat="49.19671" lon="3.95322">
        <ele>121.8</ele>
        <time>2026-08-24T14:20:00Z</time>
      </trkpt>
      <trkpt lat="49.19677" lon="3.95316">
        <ele>122</ele>
        <time>2026-08-24T14:20:01Z</time>
      </trkpt>
      <trkpt lat="49.19683" lon="3.9531">
        <ele>122.4</ele>
        <time>2026-08-24T14:20:02Z</time>
      </trkpt>
      <trkpt lat="49.19689" lon="3.95305">
        <ele>122.6</ele>
        <time>2026-08-24T14:20:03Z</time>
      </trkpt>
      <trkpt lat="49.19695" lon="3.953">
        <ele>123</ele>
        <time>2026-08-24T14:20:04Z</time>
      </trkpt>
      <trkpt lat="49.19701" lon="3.95295">
        <ele>123.4</ele>
        <time>2026-08-24T14:20:05Z</time>
      </trkpt>
      <trkpt lat="49.19707" lon="3.95291">
        <ele>123.6</ele>
        <time>2026-08-24T14:20:06Z</time>
      </trkpt>
      <trkpt lat="49.19713" lon="3.95286">
        <ele>124</ele>
        <time>2026-08-24T14:20:07Z</time>
      </trkpt>
      <trkpt lat="49.19719" lon="3.95282">
        <ele>124.2</ele>
        <time>2026-08-24T14:20:08Z</time>
      </trkpt>
      <trkpt lat="49.19725" lon="3.95279">
        <ele>124.4</ele>
        <time>2026-08-24T14:20:09Z</time>
      </trkpt>
      <trkpt lat="49.19731" lon="3.95275">
        <ele>124.6</ele>
        <time>2026-08-24T14:20:10Z</time>
      </trkpt>
      <trkpt lat="49.19737" lon="3.95271">
        <ele>125</ele>
        <time>2026-08-24T14:20:11Z</time>
      </trkpt>
      <trkpt lat="49.19742" lon="3.95266">
        <ele>125.2</ele>
        <time>2026-08-24T14:20:12Z</time>
      </trkpt>
      <trkpt lat="49.19748" lon="3.95262">
        <ele>125.4</ele>
        <time>2026-08-24T14:20:13Z</time>
      </trkpt>
      <trkpt lat="49.19754" lon="3.95257">
        <ele>125.4</ele>
        <time>2026-08-24T14:20:14Z</time>
      </trkpt>
      <trkpt lat="49.1976" lon="3.95252">
        <ele>125.4</ele>
        <time>2026-08-24T14:20:15Z</time>
      </trkpt>
      <trkpt lat="49.19766" lon="3.95246">
        <ele>125.2</ele>
        <time>2026-08-24T14:20:16Z</time>
      </trkpt>
      <trkpt lat="49.19772" lon="3.95239">
        <ele>125</ele>
        <time>2026-08-24T14:20:17Z</time>
      </trkpt>
      <trkpt lat="49.19778" lon="3.95233">
        <ele>124.6</ele>
        <time>2026-08-24T14:20:18Z</time>
      </trkpt>
      <trkpt lat="49.19783" lon="3.95227">
        <ele>124.4</ele>
        <time>2026-08-24T14:20:19Z</time>
      </trkpt>
      <trkpt lat="49.19787" lon="3.95222">
        <ele>124</ele>
        <time>2026-08-24T14:20:20Z</time>
      </trkpt>
      <trkpt lat="49.19791" lon="3.95218">
        <ele>123.8</ele>
        <time>2026-08-24T14:20:21Z</time>
      </trkpt>
      <trkpt lat="49.19794" lon="3.95214">
        <ele>123.4</ele>
        <time>2026-08-24T14:20:22Z</time>
      </trkpt>
      <trkpt lat="49.19797" lon="3.95211">
        <ele>123.2</ele>
        <time>2026-08-24T14:20:23Z</time>
      </trkpt>
      <trkpt lat="49.198" lon="3.9521">
        <ele>123</ele>
        <time>2026-08-24T14:20:24Z</time>
      </trkpt>
      <trkpt lat="49.19801" lon="3.95209">
        <ele>123</ele>
        <time>2026-08-24T14:20:25Z</time>
      </trkpt>
      <trkpt lat="49.19802" lon="3.95209">
        <ele>123</ele>
        <time>2026-08-24T14:20:26Z</time>
      </trkpt>
      <trkpt lat="49.19804" lon="3.95208">
        <ele>122.8</ele>
        <time>2026-08-24T14:20:27Z</time>
      </trkpt>
      <trkpt lat="49.19806" lon="3.95206">
        <ele>122.8</ele>
        <time>2026-08-24T14:20:28Z</time>
      </trkpt>
      <trkpt lat="49.19808" lon="3.95205">
        <ele>122.8</ele>
        <time>2026-08-24T14:20:29Z</time>
      </trkpt>
      <trkpt lat="49.19811" lon="3.95203">
        <ele>122.6</ele>
        <time>2026-08-24T14:20:30Z</time>
      </trkpt>
      <trkpt lat="49.19814" lon="3.95201">
        <ele>122.6</ele>
        <time>2026-08-24T14:20:31Z</time>
      </trkpt>
      <trkpt lat="49.19819" lon="3.95199">
        <ele>122.4</ele>
        <time>2026-08-24T14:20:32Z</time>
      </trkpt>
      <trkpt lat="49.19823" lon="3.95197">
        <ele>122.4</ele>
        <time>2026-08-24T14:20:33Z</time>
      </trkpt>
      <trkpt lat="49.19827" lon="3.95193">
        <ele>122.2</ele>
        <time>2026-08-24T14:20:34Z</time>
      </trkpt>
      <trkpt lat="49.19832" lon="3.9519">
        <ele>122.2</ele>
        <time>2026-08-24T14:20:35Z</time>
      </trkpt>
      <trkpt lat="49.19837" lon="3.95188">
        <ele>122</ele>
        <time>2026-08-24T14:20:36Z</time>
      </trkpt>
      <trkpt lat="49.19843" lon="3.95185">
        <ele>122</ele>
        <time>2026-08-24T14:20:37Z</time>
      </trkpt>
      <trkpt lat="49.19848" lon="3.95182">
        <ele>121.8</ele>
        <time>2026-08-24T14:20:38Z</time>
      </trkpt>
      <trkpt lat="49.19853" lon="3.95178">
        <ele>121.8</ele>
        <time>2026-08-24T14:20:39Z</time>
      </trkpt>
      <trkpt lat="49.19859" lon="3.95174">
        <ele>121.6</ele>
        <time>2026-08-24T14:20:40Z</time>
      </trkpt>
      <trkpt lat="49.19864" lon="3.9517">
        <ele>121.4</ele>
        <time>2026-08-24T14:20:41Z</time>
      </trkpt>
      <trkpt lat="49.1987" lon="3.95166">
        <ele>121.4</ele>
        <time>2026-08-24T14:20:42Z</time>
      </trkpt>
      <trkpt lat="49.19876" lon="3.95162">
        <ele>121.2</ele>
        <time>2026-08-24T14:20:43Z</time>
      </trkpt>
      <trkpt lat="49.19883" lon="3.95158">
        <ele>121.2</ele>
        <time>2026-08-24T14:20:44Z</time>
      </trkpt>
      <trkpt lat="49.19889" lon="3.95154">
        <ele>121.4</ele>
        <time>2026-08-24T14:20:45Z</time>
      </trkpt>
      <trkpt lat="49.19895" lon="3.95151">
        <ele>121.4</ele>
        <time>2026-08-24T14:20:46Z</time>
      </trkpt>
      <trkpt lat="49.19901" lon="3.95147">
        <ele>121.4</ele>
        <time>2026-08-24T14:20:47Z</time>
      </trkpt>
      <trkpt lat="49.19908" lon="3.95143">
        <ele>121.6</ele>
        <time>2026-08-24T14:20:48Z</time>
      </trkpt>
      <trkpt lat="49.19914" lon="3.95139">
        <ele>121.6</ele>
        <time>2026-08-24T14:20:49Z</time>
      </trkpt>
      <trkpt lat="49.1992" lon="3.95136">
        <ele>121.6</ele>
        <time>2026-08-24T14:20:50Z</time>
      </trkpt>
      <trkpt lat="49.19927" lon="3.95132">
        <ele>121.6</ele>
        <time>2026-08-24T14:20:51Z</time>
      </trkpt>
      <trkpt lat="49.19933" lon="3.95129">
        <ele>121.4</ele>
        <time>2026-08-24T14:20:52Z</time>
      </trkpt>
      <trkpt lat="49.1994" lon="3.95125">
        <ele>121.2</ele>
        <time>2026-08-24T14:20:53Z</time>
      </trkpt>
      <trkpt lat="49.19946" lon="3.95121">
        <ele>121.2</ele>
        <time>2026-08-24T14:20:54Z</time>
      </trkpt>
      <trkpt lat="49.19953" lon="3.95117">
        <ele>121.2</ele>
        <time>2026-08-24T14:20:55Z</time>
      </trkpt>
      <trkpt lat="49.19959" lon="3.95113">
        <ele>121.2</ele>
        <time>2026-08-24T14:20:56Z</time>
      </trkpt>
      <trkpt lat="49.19966" lon="3.95109">
        <ele>121.2</ele>
        <time>2026-08-24T14:20:57Z</time>
      </trkpt>
      <trkpt lat="49.19972" lon="3.95105">
        <ele>121.4</ele>
        <time>2026-08-24T14:20:58Z</time>
      </trkpt>
      <trkpt lat="49.19979" lon="3.95101">
        <ele>121.4</ele>
        <time>2026-08-24T14:20:59Z</time>
      </trkpt>
      <trkpt lat="49.19985" lon="3.95097">
        <ele>121.4</ele>
        <time>2026-08-24T14:21:00Z</time>
      </trkpt>
      <trkpt lat="49.19992" lon="3.95093">
        <ele>121.4</ele>
        <time>2026-08-24T14:21:01Z</time>
      </trkpt>
      <trkpt lat="49.19999" lon="3.95089">
        <ele>121.2</ele>
        <time>2026-08-24T14:21:02Z</time>
      </trkpt>
      <trkpt lat="49.20006" lon="3.95084">
        <ele>121.4</ele>
        <time>2026-08-24T14:21:03Z</time>
      </trkpt>
      <trkpt lat="49.20012" lon="3.9508">
        <ele>121.4</ele>
        <time>2026-08-24T14:21:04Z</time>
      </trkpt>
      <trkpt lat="49.20019" lon="3.95076">
        <ele>121.4</ele>
        <time>2026-08-24T14:21:05Z</time>
      </trkpt>
      <trkpt lat="49.20026" lon="3.95072">
        <ele>121.6</ele>
        <time>2026-08-24T14:21:06Z</time>
      </trkpt>
      <trkpt lat="49.20032" lon="3.95068">
        <ele>121.8</ele>
        <time>2026-08-24T14:21:07Z</time>
      </trkpt>
      <trkpt lat="49.20038" lon="3.95063">
        <ele>121.8</ele>
        <time>2026-08-24T14:21:08Z</time>
      </trkpt>
      <trkpt lat="49.20045" lon="3.95059">
        <ele>122</ele>
        <time>2026-08-24T14:21:09Z</time>
      </trkpt>
      <trkpt lat="49.20051" lon="3.95055">
        <ele>122.2</ele>
        <time>2026-08-24T14:21:10Z</time>
      </trkpt>
      <trkpt lat="49.20058" lon="3.95052">
        <ele>122.4</ele>
        <time>2026-08-24T14:21:11Z</time>
      </trkpt>
      <trkpt lat="49.20064" lon="3.95048">
        <ele>122.6</ele>
        <time>2026-08-24T14:21:12Z</time>
      </trkpt>
      <trkpt lat="49.2007" lon="3.95044">
        <ele>122.8</ele>
        <time>2026-08-24T14:21:13Z</time>
      </trkpt>
      <trkpt lat="49.20077" lon="3.9504">
        <ele>123</ele>
        <time>2026-08-24T14:21:14Z</time>
      </trkpt>
      <trkpt lat="49.20083" lon="3.95037">
        <ele>123</ele>
        <time>2026-08-24T14:21:15Z</time>
      </trkpt>
      <trkpt lat="49.20089" lon="3.95033">
        <ele>123.2</ele>
        <time>2026-08-24T14:21:16Z</time>
      </trkpt>
      <trkpt lat="49.20095" lon="3.95029">
        <ele>123.4</ele>
        <time>2026-08-24T14:21:17Z</time>
      </trkpt>
      <trkpt lat="49.20101" lon="3.95025">
        <ele>123.6</ele>
        <time>2026-08-24T14:21:18Z</time>
      </trkpt>
      <trkpt lat="49.20107" lon="3.95022">
        <ele>123.8</ele>
        <time>2026-08-24T14:21:19Z</time>
      </trkpt>
      <trkpt lat="49.20113" lon="3.95018">
        <ele>124</ele>
        <time>2026-08-24T14:21:20Z</time>
      </trkpt>
      <trkpt lat="49.20119" lon="3.95014">
        <ele>124.2</ele>
        <time>2026-08-24T14:21:21Z</time>
      </trkpt>
      <trkpt lat="49.20125" lon="3.95011">
        <ele>124.6</ele>
        <time>2026-08-24T14:21:22Z</time>
      </trkpt>
      <trkpt lat="49.20131" lon="3.95008">
        <ele>124.8</ele>
        <time>2026-08-24T14:21:23Z</time>
      </trkpt>
      <trkpt lat="49.20137" lon="3.95005">
        <ele>125</ele>
        <time>2026-08-24T14:21:24Z</time>
      </trkpt>
      <trkpt lat="49.20142" lon="3.95001">
        <ele>125.2</ele>
        <time>2026-08-24T14:21:25Z</time>
      </trkpt>
      <trkpt lat="49.20148" lon="3.94998">
        <ele>125.2</ele>
        <time>2026-08-24T14:21:26Z</time>
      </trkpt>
      <trkpt lat="49.20154" lon="3.94996">
        <ele>125.4</ele>
        <time>2026-08-24T14:21:27Z</time>
      </trkpt>
      <trkpt lat="49.20159" lon="3.94993">
        <ele>125.8</ele>
        <time>2026-08-24T14:21:28Z</time>
      </trkpt>
      <trkpt lat="49.20165" lon="3.94991">
        <ele>125.8</ele>
        <time>2026-08-24T14:21:29Z</time>
      </trkpt>
      <trkpt lat="49.20171" lon="3.94988">
        <ele>126</ele>
        <time>2026-08-24T14:21:30Z</time>
      </trkpt>
      <trkpt lat="49.20176" lon="3.94986">
        <ele>126.2</ele>
        <time>2026-08-24T14:21:31Z</time>
      </trkpt>
      <trkpt lat="49.20182" lon="3.94984">
        <ele>126.4</ele>
        <time>2026-08-24T14:21:32Z</time>
      </trkpt>
      <trkpt lat="49.20187" lon="3.94982">
        <ele>126.2</ele>
        <time>2026-08-24T14:21:33Z</time>
      </trkpt>
      <trkpt lat="49.20193" lon="3.9498">
        <ele>126.4</ele>
        <time>2026-08-24T14:21:34Z</time>
      </trkpt>
      <trkpt lat="49.20198" lon="3.94977">
        <ele>126.6</ele>
        <time>2026-08-24T14:21:35Z</time>
      </trkpt>
      <trkpt lat="49.20203" lon="3.94975">
        <ele>126.8</ele>
        <time>2026-08-24T14:21:36Z</time>
      </trkpt>
      <trkpt lat="49.20209" lon="3.94973">
        <ele>126.8</ele>
        <time>2026-08-24T14:21:37Z</time>
      </trkpt>
      <trkpt lat="49.20214" lon="3.9497">
        <ele>127</ele>
        <time>2026-08-24T14:21:38Z</time>
      </trkpt>
      <trkpt lat="49.2022" lon="3.94968">
        <ele>127.2</ele>
        <time>2026-08-24T14:21:39Z</time>
      </trkpt>
      <trkpt lat="49.20225" lon="3.94966">
        <ele>127.2</ele>
        <time>2026-08-24T14:21:40Z</time>
      </trkpt>
      <trkpt lat="49.2023" lon="3.94964">
        <ele>127.2</ele>
        <time>2026-08-24T14:21:41Z</time>
      </trkpt>
      <trkpt lat="49.20236" lon="3.94961">
        <ele>127.6</ele>
        <time>2026-08-24T14:21:42Z</time>
      </trkpt>
      <trkpt lat="49.20241" lon="3.94959">
        <ele>127.8</ele>
        <time>2026-08-24T14:21:43Z</time>
      </trkpt>
      <trkpt lat="49.20247" lon="3.94956">
        <ele>127.8</ele>
        <time>2026-08-24T14:21:44Z</time>
      </trkpt>
      <trkpt lat="49.20252" lon="3.94953">
        <ele>128.2</ele>
        <time>2026-08-24T14:21:45Z</time>
      </trkpt>
      <trkpt lat="49.20258" lon="3.94949">
        <ele>128.4</ele>
        <time>2026-08-24T14:21:46Z</time>
      </trkpt>
      <trkpt lat="49.20263" lon="3.94946">
        <ele>128.4</ele>
        <time>2026-08-24T14:21:47Z</time>
      </trkpt>
      <trkpt lat="49.20269" lon="3.94942">
        <ele>128.6</ele>
        <time>2026-08-24T14:21:48Z</time>
      </trkpt>
      <trkpt lat="49.20274" lon="3.94938">
        <ele>128.4</ele>
        <time>2026-08-24T14:21:49Z</time>
      </trkpt>
      <trkpt lat="49.20279" lon="3.94934">
        <ele>128.4</ele>
        <time>2026-08-24T14:21:50Z</time>
      </trkpt>
      <trkpt lat="49.20285" lon="3.9493">
        <ele>128.6</ele>
        <time>2026-08-24T14:21:51Z</time>
      </trkpt>
      <trkpt lat="49.2029" lon="3.94926">
        <ele>128.8</ele>
        <time>2026-08-24T14:21:52Z</time>
      </trkpt>
      <trkpt lat="49.20295" lon="3.94922">
        <ele>128.8</ele>
        <time>2026-08-24T14:21:53Z</time>
      </trkpt>
      <trkpt lat="49.203" lon="3.94918">
        <ele>129</ele>
        <time>2026-08-24T14:21:54Z</time>
      </trkpt>
      <trkpt lat="49.20305" lon="3.94913">
        <ele>129</ele>
        <time>2026-08-24T14:21:55Z</time>
      </trkpt>
      <trkpt lat="49.20311" lon="3.94909">
        <ele>129</ele>
        <time>2026-08-24T14:21:56Z</time>
      </trkpt>
      <trkpt lat="49.20316" lon="3.94904">
        <ele>129</ele>
        <time>2026-08-24T14:21:57Z</time>
      </trkpt>
      <trkpt lat="49.20321" lon="3.94899">
        <ele>129.2</ele>
        <time>2026-08-24T14:21:58Z</time>
      </trkpt>
      <trkpt lat="49.20326" lon="3.94895">
        <ele>129.2</ele>
        <time>2026-08-24T14:21:59Z</time>
      </trkpt>
      <trkpt lat="49.20332" lon="3.9489">
        <ele>129.6</ele>
        <time>2026-08-24T14:22:00Z</time>
      </trkpt>
      <trkpt lat="49.20337" lon="3.94886">
        <ele>129.6</ele>
        <time>2026-08-24T14:22:01Z</time>
      </trkpt>
      <trkpt lat="49.20343" lon="3.94881">
        <ele>129.6</ele>
        <time>2026-08-24T14:22:02Z</time>
      </trkpt>
      <trkpt lat="49.20349" lon="3.94876">
        <ele>129.4</ele>
        <time>2026-08-24T14:22:03Z</time>
      </trkpt>
      <trkpt lat="49.20355" lon="3.94872">
        <ele>129.2</ele>
        <time>2026-08-24T14:22:04Z</time>
      </trkpt>
      <trkpt lat="49.20362" lon="3.94867">
        <ele>129</ele>
        <time>2026-08-24T14:22:05Z</time>
      </trkpt>
      <trkpt lat="49.20368" lon="3.94863">
        <ele>129</ele>
        <time>2026-08-24T14:22:06Z</time>
      </trkpt>
      <trkpt lat="49.20375" lon="3.94859">
        <ele>129</ele>
        <time>2026-08-24T14:22:07Z</time>
      </trkpt>
      <trkpt lat="49.20382" lon="3.94855">
        <ele>128.8</ele>
        <time>2026-08-24T14:22:08Z</time>
      </trkpt>
      <trkpt lat="49.20389" lon="3.94852">
        <ele>128.8</ele>
        <time>2026-08-24T14:22:09Z</time>
      </trkpt>
      <trkpt lat="49.20397" lon="3.94848">
        <ele>128.4</ele>
        <time>2026-08-24T14:22:10Z</time>
      </trkpt>
      <trkpt lat="49.20405" lon="3.94844">
        <ele>128.4</ele>
        <time>2026-08-24T14:22:11Z</time>
      </trkpt>
      <trkpt lat="49.20412" lon="3.9484">
        <ele>127.8</ele>
        <time>2026-08-24T14:22:12Z</time>
      </trkpt>
      <trkpt lat="49.20421" lon="3.94837">
        <ele>127.6</ele>
        <time>2026-08-24T14:22:13Z</time>
      </trkpt>
      <trkpt lat="49.20429" lon="3.94833">
        <ele>127.2</ele>
        <time>2026-08-24T14:22:14Z</time>
      </trkpt>
      <trkpt lat="49.20437" lon="3.94829">
        <ele>127</ele>
        <time>2026-08-24T14:22:15Z</time>
      </trkpt>
      <trkpt lat="49.20446" lon="3.94825">
        <ele>126.2</ele>
        <time>2026-08-24T14:22:16Z</time>
      </trkpt>
      <trkpt lat="49.20455" lon="3.94821">
        <ele>125.6</ele>
        <time>2026-08-24T14:22:17Z</time>
      </trkpt>
      <trkpt lat="49.20464" lon="3.94817">
        <ele>124.8</ele>
        <time>2026-08-24T14:22:18Z</time>
      </trkpt>
      <trkpt lat="49.20473" lon="3.94813">
        <ele>124.2</ele>
        <time>2026-08-24T14:22:19Z</time>
      </trkpt>
      <trkpt lat="49.20483" lon="3.94809">
        <ele>123.4</ele>
        <time>2026-08-24T14:22:20Z</time>
      </trkpt>
      <trkpt lat="49.20493" lon="3.94805">
        <ele>122.8</ele>
        <time>2026-08-24T14:22:21Z</time>
      </trkpt>
      <trkpt lat="49.20502" lon="3.94801">
        <ele>122.2</ele>
        <time>2026-08-24T14:22:22Z</time>
      </trkpt>
      <trkpt lat="49.20512" lon="3.94797">
        <ele>121.4</ele>
        <time>2026-08-24T14:22:23Z</time>
      </trkpt>
      <trkpt lat="49.20523" lon="3.94792">
        <ele>120.8</ele>
        <time>2026-08-24T14:22:24Z</time>
      </trkpt>
      <trkpt lat="49.20533" lon="3.94788">
        <ele>120</ele>
        <time>2026-08-24T14:22:25Z</time>
      </trkpt>
      <trkpt lat="49.20543" lon="3.94784">
        <ele>119.8</ele>
        <time>2026-08-24T14:22:26Z</time>
      </trkpt>
      <trkpt lat="49.20553" lon="3.94779">
        <ele>119.4</ele>
        <time>2026-08-24T14:22:27Z</time>
      </trkpt>
      <trkpt lat="49.20563" lon="3.94773">
        <ele>118.8</ele>
        <time>2026-08-24T14:22:28Z</time>
      </trkpt>
      <trkpt lat="49.20573" lon="3.94767">
        <ele>118.6</ele>
        <time>2026-08-24T14:22:29Z</time>
      </trkpt>
      <trkpt lat="49.20583" lon="3.9476">
        <ele>118</ele>
        <time>2026-08-24T14:22:30Z</time>
      </trkpt>
      <trkpt lat="49.20592" lon="3.94753">
        <ele>117.6</ele>
        <time>2026-08-24T14:22:31Z</time>
      </trkpt>
      <trkpt lat="49.20602" lon="3.94745">
        <ele>117</ele>
        <time>2026-08-24T14:22:32Z</time>
      </trkpt>
      <trkpt lat="49.20611" lon="3.94738">
        <ele>116.6</ele>
        <time>2026-08-24T14:22:33Z</time>
      </trkpt>
      <trkpt lat="49.20621" lon="3.9473">
        <ele>116.2</ele>
        <time>2026-08-24T14:22:34Z</time>
      </trkpt>
      <trkpt lat="49.2063" lon="3.94721">
        <ele>115.8</ele>
        <time>2026-08-24T14:22:35Z</time>
      </trkpt>
      <trkpt lat="49.20639" lon="3.94713">
        <ele>115.4</ele>
        <time>2026-08-24T14:22:36Z</time>
      </trkpt>
      <trkpt lat="49.20649" lon="3.94705">
        <ele>115</ele>
        <time>2026-08-24T14:22:37Z</time>
      </trkpt>
      <trkpt lat="49.20657" lon="3.94698">
        <ele>114.6</ele>
        <time>2026-08-24T14:22:38Z</time>
      </trkpt>
      <trkpt lat="49.20665" lon="3.94691">
        <ele>114.4</ele>
        <time>2026-08-24T14:22:39Z</time>
      </trkpt>
      <trkpt lat="49.20673" lon="3.94685">
        <ele>114.2</ele>
        <time>2026-08-24T14:22:40Z</time>
      </trkpt>
      <trkpt lat="49.20679" lon="3.9468">
        <ele>114.2</ele>
        <time>2026-08-24T14:22:41Z</time>
      </trkpt>
      <trkpt lat="49.20686" lon="3.94674">
        <ele>114</ele>
        <time>2026-08-24T14:22:42Z</time>
      </trkpt>
      <trkpt lat="49.20691" lon="3.9467">
        <ele>114</ele>
        <time>2026-08-24T14:22:43Z</time>
      </trkpt>
      <trkpt lat="49.20698" lon="3.94667">
        <ele>114</ele>
        <time>2026-08-24T14:22:44Z</time>
      </trkpt>
      <trkpt lat="49.20704" lon="3.94666">
        <ele>114</ele>
        <time>2026-08-24T14:22:45Z</time>
      </trkpt>
      <trkpt lat="49.20711" lon="3.94669">
        <ele>113.8</ele>
        <time>2026-08-24T14:22:46Z</time>
      </trkpt>
      <trkpt lat="49.20718" lon="3.94674">
        <ele>113.4</ele>
        <time>2026-08-24T14:22:47Z</time>
      </trkpt>
      <trkpt lat="49.20723" lon="3.94682">
        <ele>112.8</ele>
        <time>2026-08-24T14:22:48Z</time>
      </trkpt>
      <trkpt lat="49.20728" lon="3.9469">
        <ele>112.4</ele>
        <time>2026-08-24T14:22:49Z</time>
      </trkpt>
      <trkpt lat="49.20732" lon="3.947">
        <ele>112</ele>
        <time>2026-08-24T14:22:50Z</time>
      </trkpt>
      <trkpt lat="49.20737" lon="3.94709">
        <ele>111.6</ele>
        <time>2026-08-24T14:22:51Z</time>
      </trkpt>
      <trkpt lat="49.20742" lon="3.94718">
        <ele>111.6</ele>
        <time>2026-08-24T14:22:52Z</time>
      </trkpt>
      <trkpt lat="49.20747" lon="3.94727">
        <ele>111.6</ele>
        <time>2026-08-24T14:22:53Z</time>
      </trkpt>
      <trkpt lat="49.20752" lon="3.94736">
        <ele>111.4</ele>
        <time>2026-08-24T14:22:54Z</time>
      </trkpt>
      <trkpt lat="49.20757" lon="3.94745">
        <ele>111.4</ele>
        <time>2026-08-24T14:22:55Z</time>
      </trkpt>
      <trkpt lat="49.20762" lon="3.94754">
        <ele>111.2</ele>
        <time>2026-08-24T14:22:56Z</time>
      </trkpt>
      <trkpt lat="49.20768" lon="3.94763">
        <ele>111.2</ele>
        <time>2026-08-24T14:22:57Z</time>
      </trkpt>
      <trkpt lat="49.20773" lon="3.94772">
        <ele>111</ele>
        <time>2026-08-24T14:22:58Z</time>
      </trkpt>
      <trkpt lat="49.20779" lon="3.94781">
        <ele>110.8</ele>
        <time>2026-08-24T14:22:59Z</time>
      </trkpt>
      <trkpt lat="49.20784" lon="3.94789">
        <ele>110.6</ele>
        <time>2026-08-24T14:23:00Z</time>
      </trkpt>
      <trkpt lat="49.2079" lon="3.94798">
        <ele>110.4</ele>
        <time>2026-08-24T14:23:01Z</time>
      </trkpt>
      <trkpt lat="49.20796" lon="3.94806">
        <ele>110.6</ele>
        <time>2026-08-24T14:23:02Z</time>
      </trkpt>
      <trkpt lat="49.20801" lon="3.94814">
        <ele>110.6</ele>
        <time>2026-08-24T14:23:03Z</time>
      </trkpt>
      <trkpt lat="49.20807" lon="3.94823">
        <ele>110.6</ele>
        <time>2026-08-24T14:23:04Z</time>
      </trkpt>
      <trkpt lat="49.20813" lon="3.94831">
        <ele>110.6</ele>
        <time>2026-08-24T14:23:05Z</time>
      </trkpt>
      <trkpt lat="49.20819" lon="3.94839">
        <ele>110.6</ele>
        <time>2026-08-24T14:23:06Z</time>
      </trkpt>
      <trkpt lat="49.20825" lon="3.94848">
        <ele>110.6</ele>
        <time>2026-08-24T14:23:07Z</time>
      </trkpt>
      <trkpt lat="49.20831" lon="3.94856">
        <ele>110.6</ele>
        <time>2026-08-24T14:23:08Z</time>
      </trkpt>
      <trkpt lat="49.20836" lon="3.94864">
        <ele>110.6</ele>
        <time>2026-08-24T14:23:09Z</time>
      </trkpt>
      <trkpt lat="49.20842" lon="3.94872">
        <ele>110.6</ele>
        <time>2026-08-24T14:23:10Z</time>
      </trkpt>
      <trkpt lat="49.20848" lon="3.9488">
        <ele>110.6</ele>
        <time>2026-08-24T14:23:11Z</time>
      </trkpt>
      <trkpt lat="49.20854" lon="3.94888">
        <ele>110.4</ele>
        <time>2026-08-24T14:23:12Z</time>
      </trkpt>
      <trkpt lat="49.2086" lon="3.94896">
        <ele>110.2</ele>
        <time>2026-08-24T14:23:13Z</time>
      </trkpt>
      <trkpt lat="49.20866" lon="3.94904">
        <ele>110.2</ele>
        <time>2026-08-24T14:23:14Z</time>
      </trkpt>
      <trkpt lat="49.20872" lon="3.94912">
        <ele>110</ele>
        <time>2026-08-24T14:23:15Z</time>
      </trkpt>
      <trkpt lat="49.20877" lon="3.9492">
        <ele>109.8</ele>
        <time>2026-08-24T14:23:16Z</time>
      </trkpt>
      <trkpt lat="49.20883" lon="3.94928">
        <ele>109.6</ele>
        <time>2026-08-24T14:23:17Z</time>
      </trkpt>
      <trkpt lat="49.20889" lon="3.94937">
        <ele>109.4</ele>
        <time>2026-08-24T14:23:18Z</time>
      </trkpt>
      <trkpt lat="49.20894" lon="3.94945">
        <ele>109</ele>
        <time>2026-08-24T14:23:19Z</time>
      </trkpt>
      <trkpt lat="49.209" lon="3.94954">
        <ele>108.8</ele>
        <time>2026-08-24T14:23:20Z</time>
      </trkpt>
      <trkpt lat="49.20906" lon="3.94963">
        <ele>108.6</ele>
        <time>2026-08-24T14:23:21Z</time>
      </trkpt>
      <trkpt lat="49.20911" lon="3.94972">
        <ele>108.6</ele>
        <time>2026-08-24T14:23:22Z</time>
      </trkpt>
      <trkpt lat="49.20917" lon="3.94981">
        <ele>108.6</ele>
        <time>2026-08-24T14:23:23Z</time>
      </trkpt>
      <trkpt lat="49.20922" lon="3.9499">
        <ele>108.8</ele>
        <time>2026-08-24T14:23:24Z</time>
      </trkpt>
      <trkpt lat="49.20928" lon="3.94999">
        <ele>108.8</ele>
        <time>2026-08-24T14:23:25Z</time>
      </trkpt>
      <trkpt lat="49.20934" lon="3.95008">
        <ele>108.8</ele>
        <time>2026-08-24T14:23:26Z</time>
      </trkpt>
      <trkpt lat="49.2094" lon="3.95017">
        <ele>109</ele>
        <time>2026-08-24T14:23:27Z</time>
      </trkpt>
      <trkpt lat="49.20946" lon="3.95026">
        <ele>109.2</ele>
        <time>2026-08-24T14:23:28Z</time>
      </trkpt>
      <trkpt lat="49.20951" lon="3.95034">
        <ele>109.2</ele>
        <time>2026-08-24T14:23:29Z</time>
      </trkpt>
      <trkpt lat="49.20957" lon="3.95043">
        <ele>109</ele>
        <time>2026-08-24T14:23:30Z</time>
      </trkpt>
      <trkpt lat="49.20963" lon="3.95051">
        <ele>108.8</ele>
        <time>2026-08-24T14:23:31Z</time>
      </trkpt>
      <trkpt lat="49.20969" lon="3.95059">
        <ele>108.6</ele>
        <time>2026-08-24T14:23:32Z</time>
      </trkpt>
      <trkpt lat="49.20975" lon="3.95066">
        <ele>108.4</ele>
        <time>2026-08-24T14:23:33Z</time>
      </trkpt>
      <trkpt lat="49.20981" lon="3.95074">
        <ele>108.2</ele>
        <time>2026-08-24T14:23:34Z</time>
      </trkpt>
      <trkpt lat="49.20987" lon="3.95082">
        <ele>108.2</ele>
        <time>2026-08-24T14:23:35Z</time>
      </trkpt>
      <trkpt lat="49.20993" lon="3.9509">
        <ele>108.2</ele>
        <time>2026-08-24T14:23:36Z</time>
      </trkpt>
      <trkpt lat="49.20999" lon="3.95098">
        <ele>108.2</ele>
        <time>2026-08-24T14:23:37Z</time>
      </trkpt>
      <trkpt lat="49.21005" lon="3.95106">
        <ele>108.2</ele>
        <time>2026-08-24T14:23:38Z</time>
      </trkpt>
      <trkpt lat="49.21011" lon="3.95114">
        <ele>108.2</ele>
        <time>2026-08-24T14:23:39Z</time>
      </trkpt>
      <trkpt lat="49.21017" lon="3.95121">
        <ele>108.4</ele>
        <time>2026-08-24T14:23:40Z</time>
      </trkpt>
      <trkpt lat="49.21023" lon="3.95129">
        <ele>108.2</ele>
        <time>2026-08-24T14:23:41Z</time>
      </trkpt>
      <trkpt lat="49.21029" lon="3.95136">
        <ele>108</ele>
        <time>2026-08-24T14:23:42Z</time>
      </trkpt>
      <trkpt lat="49.21036" lon="3.95144">
        <ele>108</ele>
        <time>2026-08-24T14:23:43Z</time>
      </trkpt>
      <trkpt lat="49.21042" lon="3.95151">
        <ele>108</ele>
        <time>2026-08-24T14:23:44Z</time>
      </trkpt>
      <trkpt lat="49.21049" lon="3.95158">
        <ele>107.8</ele>
        <time>2026-08-24T14:23:45Z</time>
      </trkpt>
      <trkpt lat="49.21056" lon="3.95164">
        <ele>107.6</ele>
        <time>2026-08-24T14:23:46Z</time>
      </trkpt>
      <trkpt lat="49.21063" lon="3.95171">
        <ele>107.4</ele>
        <time>2026-08-24T14:23:47Z</time>
      </trkpt>
      <trkpt lat="49.2107" lon="3.95177">
        <ele>107.2</ele>
        <time>2026-08-24T14:23:48Z</time>
      </trkpt>
      <trkpt lat="49.21076" lon="3.95184">
        <ele>107</ele>
        <time>2026-08-24T14:23:49Z</time>
      </trkpt>
      <trkpt lat="49.21083" lon="3.9519">
        <ele>107</ele>
        <time>2026-08-24T14:23:50Z</time>
      </trkpt>
      <trkpt lat="49.2109" lon="3.95196">
        <ele>106.8</ele>
        <time>2026-08-24T14:23:51Z</time>
      </trkpt>
      <trkpt lat="49.21096" lon="3.95203">
        <ele>106.8</ele>
        <time>2026-08-24T14:23:52Z</time>
      </trkpt>
      <trkpt lat="49.21103" lon="3.95209">
        <ele>106.6</ele>
        <time>2026-08-24T14:23:53Z</time>
      </trkpt>
      <trkpt lat="49.21109" lon="3.95215">
        <ele>106.4</ele>
        <time>2026-08-24T14:23:54Z</time>
      </trkpt>
      <trkpt lat="49.21116" lon="3.9522">
        <ele>106.2</ele>
        <time>2026-08-24T14:23:55Z</time>
      </trkpt>
      <trkpt lat="49.21122" lon="3.95226">
        <ele>106.2</ele>
        <time>2026-08-24T14:23:56Z</time>
      </trkpt>
      <trkpt lat="49.21128" lon="3.95232">
        <ele>106</ele>
        <time>2026-08-24T14:23:57Z</time>
      </trkpt>
      <trkpt lat="49.21134" lon="3.95238">
        <ele>106.2</ele>
        <time>2026-08-24T14:23:58Z</time>
      </trkpt>
      <trkpt lat="49.2114" lon="3.95244">
        <ele>106</ele>
        <time>2026-08-24T14:23:59Z</time>
      </trkpt>
      <trkpt lat="49.21146" lon="3.9525">
        <ele>106</ele>
        <time>2026-08-24T14:24:00Z</time>
      </trkpt>
      <trkpt lat="49.21151" lon="3.95256">
        <ele>106</ele>
        <time>2026-08-24T14:24:01Z</time>
      </trkpt>
      <trkpt lat="49.21157" lon="3.95262">
        <ele>106.2</ele>
        <time>2026-08-24T14:24:02Z</time>
      </trkpt>
      <trkpt lat="49.21162" lon="3.95268">
        <ele>106.2</ele>
        <time>2026-08-24T14:24:03Z</time>
      </trkpt>
      <trkpt lat="49.21168" lon="3.95274">
        <ele>106.4</ele>
        <time>2026-08-24T14:24:04Z</time>
      </trkpt>
      <trkpt lat="49.21173" lon="3.95281">
        <ele>106.4</ele>
        <time>2026-08-24T14:24:05Z</time>
      </trkpt>
      <trkpt lat="49.21178" lon="3.95287">
        <ele>106.4</ele>
        <time>2026-08-24T14:24:06Z</time>
      </trkpt>
      <trkpt lat="49.21183" lon="3.95294">
        <ele>106.4</ele>
        <time>2026-08-24T14:24:07Z</time>
      </trkpt>
      <trkpt lat="49.21189" lon="3.953">
        <ele>106.4</ele>
        <time>2026-08-24T14:24:08Z</time>
      </trkpt>
      <trkpt lat="49.21194" lon="3.95307">
        <ele>106.4</ele>
        <time>2026-08-24T14:24:09Z</time>
      </trkpt>
      <trkpt lat="49.21199" lon="3.95314">
        <ele>106.2</ele>
        <time>2026-08-24T14:24:10Z</time>
      </trkpt>
      <trkpt lat="49.21205" lon="3.9532">
        <ele>106</ele>
        <time>2026-08-24T14:24:11Z</time>
      </trkpt>
      <trkpt lat="49.2121" lon="3.95327">
        <ele>106</ele>
        <time>2026-08-24T14:24:12Z</time>
      </trkpt>
      <trkpt lat="49.21215" lon="3.95334">
        <ele>106</ele>
        <time>2026-08-24T14:24:13Z</time>
      </trkpt>
      <trkpt lat="49.2122" lon="3.9534">
        <ele>105.8</ele>
        <time>2026-08-24T14:24:14Z</time>
      </trkpt>
      <trkpt lat="49.21225" lon="3.95347">
        <ele>105.8</ele>
        <time>2026-08-24T14:24:15Z</time>
      </trkpt>
      <trkpt lat="49.2123" lon="3.95353">
        <ele>105.8</ele>
        <time>2026-08-24T14:24:16Z</time>
      </trkpt>
      <trkpt lat="49.21235" lon="3.9536">
        <ele>105.6</ele>
        <time>2026-08-24T14:24:17Z</time>
      </trkpt>
      <trkpt lat="49.2124" lon="3.95367">
        <ele>105.4</ele>
        <time>2026-08-24T14:24:18Z</time>
      </trkpt>
      <trkpt lat="49.21246" lon="3.95373">
        <ele>105.6</ele>
        <time>2026-08-24T14:24:19Z</time>
      </trkpt>
      <trkpt lat="49.21251" lon="3.9538">
        <ele>105.8</ele>
        <time>2026-08-24T14:24:20Z</time>
      </trkpt>
      <trkpt lat="49.21256" lon="3.95387">
        <ele>105.8</ele>
        <time>2026-08-24T14:24:21Z</time>
      </trkpt>
      <trkpt lat="49.21262" lon="3.95394">
        <ele>105.8</ele>
        <time>2026-08-24T14:24:22Z</time>
      </trkpt>
      <trkpt lat="49.21267" lon="3.95401">
        <ele>105.8</ele>
        <time>2026-08-24T14:24:23Z</time>
      </trkpt>
      <trkpt lat="49.21272" lon="3.95408">
        <ele>105.6</ele>
        <time>2026-08-24T14:24:24Z</time>
      </trkpt>
      <trkpt lat="49.21278" lon="3.95415">
        <ele>105.4</ele>
        <time>2026-08-24T14:24:25Z</time>
      </trkpt>
      <trkpt lat="49.21283" lon="3.95422">
        <ele>105.2</ele>
        <time>2026-08-24T14:24:26Z</time>
      </trkpt>
      <trkpt lat="49.21289" lon="3.95429">
        <ele>105</ele>
        <time>2026-08-24T14:24:27Z</time>
      </trkpt>
      <trkpt lat="49.21294" lon="3.95436">
        <ele>105.2</ele>
        <time>2026-08-24T14:24:28Z</time>
      </trkpt>
      <trkpt lat="49.21299" lon="3.95442">
        <ele>105.4</ele>
        <time>2026-08-24T14:24:29Z</time>
      </trkpt>
      <trkpt lat="49.21304" lon="3.95449">
        <ele>105.2</ele>
        <time>2026-08-24T14:24:30Z</time>
      </trkpt>
      <trkpt lat="49.21309" lon="3.95456">
        <ele>105.4</ele>
        <time>2026-08-24T14:24:31Z</time>
      </trkpt>
      <trkpt lat="49.21315" lon="3.95463">
        <ele>105.2</ele>
        <time>2026-08-24T14:24:32Z</time>
      </trkpt>
      <trkpt lat="49.2132" lon="3.9547">
        <ele>105</ele>
        <time>2026-08-24T14:24:33Z</time>
      </trkpt>
      <trkpt lat="49.21325" lon="3.95477">
        <ele>104.8</ele>
        <time>2026-08-24T14:24:34Z</time>
      </trkpt>
      <trkpt lat="49.2133" lon="3.95484">
        <ele>104.4</ele>
        <time>2026-08-24T14:24:35Z</time>
      </trkpt>
      <trkpt lat="49.21336" lon="3.95491">
        <ele>104.2</ele>
        <time>2026-08-24T14:24:36Z</time>
      </trkpt>
      <trkpt lat="49.21341" lon="3.95498">
        <ele>104</ele>
        <time>2026-08-24T14:24:37Z</time>
      </trkpt>
      <trkpt lat="49.21346" lon="3.95505">
        <ele>103.8</ele>
        <time>2026-08-24T14:24:38Z</time>
      </trkpt>
      <trkpt lat="49.21352" lon="3.95512">
        <ele>103.6</ele>
        <time>2026-08-24T14:24:39Z</time>
      </trkpt>
      <trkpt lat="49.21357" lon="3.95519">
        <ele>103.6</ele>
        <time>2026-08-24T14:24:40Z</time>
      </trkpt>
      <trkpt lat="49.21362" lon="3.95526">
        <ele>103.6</ele>
        <time>2026-08-24T14:24:41Z</time>
      </trkpt>
      <trkpt lat="49.21368" lon="3.95533">
        <ele>103.6</ele>
        <time>2026-08-24T14:24:42Z</time>
      </trkpt>
      <trkpt lat="49.21374" lon="3.9554">
        <ele>103.4</ele>
        <time>2026-08-24T14:24:43Z</time>
      </trkpt>
      <trkpt lat="49.21379" lon="3.95548">
        <ele>103.2</ele>
        <time>2026-08-24T14:24:44Z</time>
      </trkpt>
      <trkpt lat="49.21385" lon="3.95555">
        <ele>103</ele>
        <time>2026-08-24T14:24:45Z</time>
      </trkpt>
      <trkpt lat="49.2139" lon="3.95563">
        <ele>102.8</ele>
        <time>2026-08-24T14:24:46Z</time>
      </trkpt>
      <trkpt lat="49.21396" lon="3.9557">
        <ele>102.6</ele>
        <time>2026-08-24T14:24:47Z</time>
      </trkpt>
      <trkpt lat="49.21402" lon="3.95578">
        <ele>102.6</ele>
        <time>2026-08-24T14:24:48Z</time>
      </trkpt>
      <trkpt lat="49.21407" lon="3.95585">
        <ele>102.4</ele>
        <time>2026-08-24T14:24:49Z</time>
      </trkpt>
      <trkpt lat="49.21413" lon="3.95592">
        <ele>102.4</ele>
        <time>2026-08-24T14:24:50Z</time>
      </trkpt>
      <trkpt lat="49.21418" lon="3.956">
        <ele>102.4</ele>
        <time>2026-08-24T14:24:51Z</time>
      </trkpt>
      <trkpt lat="49.21424" lon="3.95607">
        <ele>102.6</ele>
        <time>2026-08-24T14:24:52Z</time>
      </trkpt>
      <trkpt lat="49.2143" lon="3.95614">
        <ele>102.6</ele>
        <time>2026-08-24T14:24:53Z</time>
      </trkpt>
      <trkpt lat="49.21436" lon="3.9562">
        <ele>102.6</ele>
        <time>2026-08-24T14:24:54Z</time>
      </trkpt>
      <trkpt lat="49.21442" lon="3.95627">
        <ele>102.8</ele>
        <time>2026-08-24T14:24:55Z</time>
      </trkpt>
      <trkpt lat="49.21448" lon="3.95633">
        <ele>102.8</ele>
        <time>2026-08-24T14:24:56Z</time>
      </trkpt>
      <trkpt lat="49.21454" lon="3.9564">
        <ele>102.6</ele>
        <time>2026-08-24T14:24:57Z</time>
      </trkpt>
      <trkpt lat="49.2146" lon="3.95646">
        <ele>102.6</ele>
        <time>2026-08-24T14:24:58Z</time>
      </trkpt>
      <trkpt lat="49.21466" lon="3.95652">
        <ele>102.4</ele>
        <time>2026-08-24T14:24:59Z</time>
      </trkpt>
      <trkpt lat="49.21473" lon="3.95658">
        <ele>102.4</ele>
        <time>2026-08-24T14:25:00Z</time>
      </trkpt>
      <trkpt lat="49.21479" lon="3.95664">
        <ele>102.4</ele>
        <time>2026-08-24T14:25:01Z</time>
      </trkpt>
      <trkpt lat="49.21486" lon="3.9567">
        <ele>102.2</ele>
        <time>2026-08-24T14:25:02Z</time>
      </trkpt>
      <trkpt lat="49.21492" lon="3.95676">
        <ele>102.2</ele>
        <time>2026-08-24T14:25:03Z</time>
      </trkpt>
      <trkpt lat="49.21498" lon="3.95682">
        <ele>102.2</ele>
        <time>2026-08-24T14:25:04Z</time>
      </trkpt>
      <trkpt lat="49.21504" lon="3.95688">
        <ele>102</ele>
        <time>2026-08-24T14:25:05Z</time>
      </trkpt>
      <trkpt lat="49.21511" lon="3.95694">
        <ele>101.8</ele>
        <time>2026-08-24T14:25:06Z</time>
      </trkpt>
      <trkpt lat="49.21517" lon="3.957">
        <ele>101.8</ele>
        <time>2026-08-24T14:25:07Z</time>
      </trkpt>
      <trkpt lat="49.21523" lon="3.95705">
        <ele>101.4</ele>
        <time>2026-08-24T14:25:08Z</time>
      </trkpt>
      <trkpt lat="49.2153" lon="3.95712">
        <ele>101.2</ele>
        <time>2026-08-24T14:25:09Z</time>
      </trkpt>
      <trkpt lat="49.21537" lon="3.95718">
        <ele>101.4</ele>
        <time>2026-08-24T14:25:10Z</time>
      </trkpt>
      <trkpt lat="49.21543" lon="3.95724">
        <ele>101</ele>
        <time>2026-08-24T14:25:11Z</time>
      </trkpt>
      <trkpt lat="49.2155" lon="3.9573">
        <ele>100.8</ele>
        <time>2026-08-24T14:25:12Z</time>
      </trkpt>
      <trkpt lat="49.21557" lon="3.95737">
        <ele>100.6</ele>
        <time>2026-08-24T14:25:13Z</time>
      </trkpt>
      <trkpt lat="49.21564" lon="3.95743">
        <ele>100.4</ele>
        <time>2026-08-24T14:25:14Z</time>
      </trkpt>
      <trkpt lat="49.2157" lon="3.9575">
        <ele>100</ele>
        <time>2026-08-24T14:25:15Z</time>
      </trkpt>
      <trkpt lat="49.21577" lon="3.95756">
        <ele>99.8</ele>
        <time>2026-08-24T14:25:16Z</time>
      </trkpt>
      <trkpt lat="49.21584" lon="3.95762">
        <ele>99.4</ele>
        <time>2026-08-24T14:25:17Z</time>
      </trkpt>
      <trkpt lat="49.21591" lon="3.95769">
        <ele>99</ele>
        <time>2026-08-24T14:25:18Z</time>
      </trkpt>
      <trkpt lat="49.21597" lon="3.95775">
        <ele>98.8</ele>
        <time>2026-08-24T14:25:19Z</time>
      </trkpt>
      <trkpt lat="49.21604" lon="3.95781">
        <ele>98.8</ele>
        <time>2026-08-24T14:25:20Z</time>
      </trkpt>
      <trkpt lat="49.2161" lon="3.95787">
        <ele>98.6</ele>
        <time>2026-08-24T14:25:21Z</time>
      </trkpt>
      <trkpt lat="49.21616" lon="3.95792">
        <ele>98.6</ele>
        <time>2026-08-24T14:25:22Z</time>
      </trkpt>
      <trkpt lat="49.21622" lon="3.95798">
        <ele>98.6</ele>
        <time>2026-08-24T14:25:23Z</time>
      </trkpt>
      <trkpt lat="49.21629" lon="3.95804">
        <ele>98.6</ele>
        <time>2026-08-24T14:25:24Z</time>
      </trkpt>
      <trkpt lat="49.21635" lon="3.9581">
        <ele>98.4</ele>
        <time>2026-08-24T14:25:25Z</time>
      </trkpt>
      <trkpt lat="49.21641" lon="3.95815">
        <ele>98.4</ele>
        <time>2026-08-24T14:25:26Z</time>
      </trkpt>
      <trkpt lat="49.21648" lon="3.95821">
        <ele>98.2</ele>
        <time>2026-08-24T14:25:27Z</time>
      </trkpt>
      <trkpt lat="49.21654" lon="3.95827">
        <ele>98.2</ele>
        <time>2026-08-24T14:25:28Z</time>
      </trkpt>
      <trkpt lat="49.2166" lon="3.95833">
        <ele>98.2</ele>
        <time>2026-08-24T14:25:29Z</time>
      </trkpt>
      <trkpt lat="49.21665" lon="3.9584">
        <ele>98.2</ele>
        <time>2026-08-24T14:25:30Z</time>
      </trkpt>
      <trkpt lat="49.21671" lon="3.95847">
        <ele>98</ele>
        <time>2026-08-24T14:25:31Z</time>
      </trkpt>
      <trkpt lat="49.21676" lon="3.95855">
        <ele>97.8</ele>
        <time>2026-08-24T14:25:32Z</time>
      </trkpt>
      <trkpt lat="49.21681" lon="3.95863">
        <ele>97.4</ele>
        <time>2026-08-24T14:25:33Z</time>
      </trkpt>
      <trkpt lat="49.21686" lon="3.95872">
        <ele>97.2</ele>
        <time>2026-08-24T14:25:34Z</time>
      </trkpt>
      <trkpt lat="49.2169" lon="3.95881">
        <ele>97</ele>
        <time>2026-08-24T14:25:35Z</time>
      </trkpt>
      <trkpt lat="49.21693" lon="3.9589">
        <ele>97</ele>
        <time>2026-08-24T14:25:36Z</time>
      </trkpt>
      <trkpt lat="49.21697" lon="3.95899">
        <ele>97</ele>
        <time>2026-08-24T14:25:37Z</time>
      </trkpt>
      <trkpt lat="49.21699" lon="3.95909">
        <ele>97</ele>
        <time>2026-08-24T14:25:38Z</time>
      </trkpt>
      <trkpt lat="49.21701" lon="3.95918">
        <ele>97.2</ele>
        <time>2026-08-24T14:25:39Z</time>
      </trkpt>
      <trkpt lat="49.21702" lon="3.95928">
        <ele>97.2</ele>
        <time>2026-08-24T14:25:40Z</time>
      </trkpt>
      <trkpt lat="49.21704" lon="3.95936">
        <ele>97.2</ele>
        <time>2026-08-24T14:25:41Z</time>
      </trkpt>
      <trkpt lat="49.21707" lon="3.95945">
        <ele>97.2</ele>
        <time>2026-08-24T14:25:42Z</time>
      </trkpt>
      <trkpt lat="49.2171" lon="3.95952">
        <ele>97.2</ele>
        <time>2026-08-24T14:25:43Z</time>
      </trkpt>
      <trkpt lat="49.21714" lon="3.95959">
        <ele>97</ele>
        <time>2026-08-24T14:25:44Z</time>
      </trkpt>
      <trkpt lat="49.21719" lon="3.95965">
        <ele>97</ele>
        <time>2026-08-24T14:25:45Z</time>
      </trkpt>
      <trkpt lat="49.21724" lon="3.95971">
        <ele>97</ele>
        <time>2026-08-24T14:25:46Z</time>
      </trkpt>
      <trkpt lat="49.21728" lon="3.95978">
        <ele>97</ele>
        <time>2026-08-24T14:25:47Z</time>
      </trkpt>
      <trkpt lat="49.21733" lon="3.95984">
        <ele>96.8</ele>
        <time>2026-08-24T14:25:48Z</time>
      </trkpt>
      <trkpt lat="49.21737" lon="3.95991">
        <ele>96.8</ele>
        <time>2026-08-24T14:25:49Z</time>
      </trkpt>
      <trkpt lat="49.21742" lon="3.95998">
        <ele>96.6</ele>
        <time>2026-08-24T14:25:50Z</time>
      </trkpt>
      <trkpt lat="49.21746" lon="3.96005">
        <ele>96.4</ele>
        <time>2026-08-24T14:25:51Z</time>
      </trkpt>
      <trkpt lat="49.21751" lon="3.96011">
        <ele>96.2</ele>
        <time>2026-08-24T14:25:52Z</time>
      </trkpt>
      <trkpt lat="49.21756" lon="3.96016">
        <ele>95.8</ele>
        <time>2026-08-24T14:25:53Z</time>
      </trkpt>
      <trkpt lat="49.21761" lon="3.96021">
        <ele>96</ele>
        <time>2026-08-24T14:25:54Z</time>
      </trkpt>
      <trkpt lat="49.21766" lon="3.96026">
        <ele>96.2</ele>
        <time>2026-08-24T14:25:55Z</time>
      </trkpt>
      <trkpt lat="49.21772" lon="3.9603">
        <ele>96.2</ele>
        <time>2026-08-24T14:25:56Z</time>
      </trkpt>
      <trkpt lat="49.21777" lon="3.96033">
        <ele>96.2</ele>
        <time>2026-08-24T14:25:57Z</time>
      </trkpt>
      <trkpt lat="49.21783" lon="3.96036">
        <ele>96.4</ele>
        <time>2026-08-24T14:25:58Z</time>
      </trkpt>
      <trkpt lat="49.21788" lon="3.96037">
        <ele>96.2</ele>
        <time>2026-08-24T14:25:59Z</time>
      </trkpt>
      <trkpt lat="49.21793" lon="3.96037">
        <ele>96.2</ele>
        <time>2026-08-24T14:26:00Z</time>
      </trkpt>
      <trkpt lat="49.21799" lon="3.96035">
        <ele>96.2</ele>
        <time>2026-08-24T14:26:01Z</time>
      </trkpt>
      <trkpt lat="49.21805" lon="3.96033">
        <ele>96.2</ele>
        <time>2026-08-24T14:26:02Z</time>
      </trkpt>
      <trkpt lat="49.21811" lon="3.96031">
        <ele>96.4</ele>
        <time>2026-08-24T14:26:03Z</time>
      </trkpt>
      <trkpt lat="49.21817" lon="3.9603">
        <ele>96.4</ele>
        <time>2026-08-24T14:26:04Z</time>
      </trkpt>
      <trkpt lat="49.21822" lon="3.96028">
        <ele>96.6</ele>
        <time>2026-08-24T14:26:05Z</time>
      </trkpt>
      <trkpt lat="49.21828" lon="3.96027">
        <ele>96.8</ele>
        <time>2026-08-24T14:26:06Z</time>
      </trkpt>
      <trkpt lat="49.21833" lon="3.9603">
        <ele>97</ele>
        <time>2026-08-24T14:26:07Z</time>
      </trkpt>
      <trkpt lat="49.21838" lon="3.96034">
        <ele>97</ele>
        <time>2026-08-24T14:26:08Z</time>
      </trkpt>
      <trkpt lat="49.21843" lon="3.96041">
        <ele>97</ele>
        <time>2026-08-24T14:26:09Z</time>
      </trkpt>
      <trkpt lat="49.21847" lon="3.96047">
        <ele>96.6</ele>
        <time>2026-08-24T14:26:10Z</time>
      </trkpt>
      <trkpt lat="49.21851" lon="3.96054">
        <ele>96.2</ele>
        <time>2026-08-24T14:26:11Z</time>
      </trkpt>
      <trkpt lat="49.21855" lon="3.9606">
        <ele>96</ele>
        <time>2026-08-24T14:26:12Z</time>
      </trkpt>
      <trkpt lat="49.21859" lon="3.96067">
        <ele>95.8</ele>
        <time>2026-08-24T14:26:13Z</time>
      </trkpt>
      <trkpt lat="49.21863" lon="3.96073">
        <ele>95.6</ele>
        <time>2026-08-24T14:26:14Z</time>
      </trkpt>
      <trkpt lat="49.21867" lon="3.9608">
        <ele>95.6</ele>
        <time>2026-08-24T14:26:15Z</time>
      </trkpt>
      <trkpt lat="49.21871" lon="3.96087">
        <ele>95.6</ele>
        <time>2026-08-24T14:26:16Z</time>
      </trkpt>
      <trkpt lat="49.21875" lon="3.96093">
        <ele>95.6</ele>
        <time>2026-08-24T14:26:17Z</time>
      </trkpt>
      <trkpt lat="49.2188" lon="3.961">
        <ele>95.6</ele>
        <time>2026-08-24T14:26:18Z</time>
      </trkpt>
      <trkpt lat="49.21885" lon="3.96107">
        <ele>95.6</ele>
        <time>2026-08-24T14:26:19Z</time>
      </trkpt>
      <trkpt lat="49.21889" lon="3.96114">
        <ele>95.8</ele>
        <time>2026-08-24T14:26:20Z</time>
      </trkpt>
      <trkpt lat="49.21893" lon="3.9612">
        <ele>96</ele>
        <time>2026-08-24T14:26:21Z</time>
      </trkpt>
      <trkpt lat="49.21897" lon="3.96127">
        <ele>96.4</ele>
        <time>2026-08-24T14:26:22Z</time>
      </trkpt>
      <trkpt lat="49.21901" lon="3.96135">
        <ele>96.2</ele>
        <time>2026-08-24T14:26:23Z</time>
      </trkpt>
      <trkpt lat="49.21906" lon="3.96142">
        <ele>96.2</ele>
        <time>2026-08-24T14:26:24Z</time>
      </trkpt>
      <trkpt lat="49.2191" lon="3.96149">
        <ele>96</ele>
        <time>2026-08-24T14:26:25Z</time>
      </trkpt>
      <trkpt lat="49.21914" lon="3.96156">
        <ele>95.8</ele>
        <time>2026-08-24T14:26:26Z</time>
      </trkpt>
      <trkpt lat="49.21919" lon="3.96163">
        <ele>95.6</ele>
        <time>2026-08-24T14:26:27Z</time>
      </trkpt>
      <trkpt lat="49.21924" lon="3.9617">
        <ele>95.6</ele>
        <time>2026-08-24T14:26:28Z</time>
      </trkpt>
      <trkpt lat="49.21928" lon="3.96177">
        <ele>95.6</ele>
        <time>2026-08-24T14:26:29Z</time>
      </trkpt>
      <trkpt lat="49.21932" lon="3.96184">
        <ele>95.4</ele>
        <time>2026-08-24T14:26:30Z</time>
      </trkpt>
      <trkpt lat="49.21936" lon="3.96191">
        <ele>95.4</ele>
        <time>2026-08-24T14:26:31Z</time>
      </trkpt>
      <trkpt lat="49.21941" lon="3.96197">
        <ele>95.2</ele>
        <time>2026-08-24T14:26:32Z</time>
      </trkpt>
      <trkpt lat="49.21945" lon="3.96204">
        <ele>95.2</ele>
        <time>2026-08-24T14:26:33Z</time>
      </trkpt>
      <trkpt lat="49.2195" lon="3.96211">
        <ele>95</ele>
        <time>2026-08-24T14:26:34Z</time>
      </trkpt>
      <trkpt lat="49.21955" lon="3.96218">
        <ele>95</ele>
        <time>2026-08-24T14:26:35Z</time>
      </trkpt>
      <trkpt lat="49.2196" lon="3.96225">
        <ele>94.8</ele>
        <time>2026-08-24T14:26:36Z</time>
      </trkpt>
      <trkpt lat="49.21965" lon="3.96232">
        <ele>94.8</ele>
        <time>2026-08-24T14:26:37Z</time>
      </trkpt>
      <trkpt lat="49.2197" lon="3.96239">
        <ele>94.8</ele>
        <time>2026-08-24T14:26:38Z</time>
      </trkpt>
      <trkpt lat="49.21975" lon="3.96245">
        <ele>94.8</ele>
        <time>2026-08-24T14:26:39Z</time>
      </trkpt>
      <trkpt lat="49.2198" lon="3.96252">
        <ele>94.6</ele>
        <time>2026-08-24T14:26:40Z</time>
      </trkpt>
      <trkpt lat="49.21984" lon="3.96258">
        <ele>94.6</ele>
        <time>2026-08-24T14:26:41Z</time>
      </trkpt>
      <trkpt lat="49.21988" lon="3.96263">
        <ele>94.8</ele>
        <time>2026-08-24T14:26:42Z</time>
      </trkpt>
      <trkpt lat="49.21992" lon="3.96268">
        <ele>95</ele>
        <time>2026-08-24T14:26:43Z</time>
      </trkpt>
      <trkpt lat="49.21996" lon="3.96273">
        <ele>95</ele>
        <time>2026-08-24T14:26:44Z</time>
      </trkpt>
      <trkpt lat="49.22" lon="3.96278">
        <ele>95.2</ele>
        <time>2026-08-24T14:26:45Z</time>
      </trkpt>
      <trkpt lat="49.22005" lon="3.96283">
        <ele>95.2</ele>
        <time>2026-08-24T14:26:46Z</time>
      </trkpt>
      <trkpt lat="49.2201" lon="3.96287">
        <ele>95</ele>
        <time>2026-08-24T14:26:47Z</time>
      </trkpt>
      <trkpt lat="49.22015" lon="3.96292">
        <ele>94.6</ele>
        <time>2026-08-24T14:26:48Z</time>
      </trkpt>
      <trkpt lat="49.2202" lon="3.96296">
        <ele>94.6</ele>
        <time>2026-08-24T14:26:49Z</time>
      </trkpt>
      <trkpt lat="49.22025" lon="3.96301">
        <ele>94.6</ele>
        <time>2026-08-24T14:26:50Z</time>
      </trkpt>
      <trkpt lat="49.22031" lon="3.96305">
        <ele>94.6</ele>
        <time>2026-08-24T14:26:51Z</time>
      </trkpt>
      <trkpt lat="49.22036" lon="3.96309">
        <ele>94.6</ele>
        <time>2026-08-24T14:26:52Z</time>
      </trkpt>
      <trkpt lat="49.22041" lon="3.96314">
        <ele>94.8</ele>
        <time>2026-08-24T14:26:53Z</time>
      </trkpt>
      <trkpt lat="49.22047" lon="3.96318">
        <ele>94.8</ele>
        <time>2026-08-24T14:26:54Z</time>
      </trkpt>
      <trkpt lat="49.22052" lon="3.96323">
        <ele>94.8</ele>
        <time>2026-08-24T14:26:55Z</time>
      </trkpt>
      <trkpt lat="49.22057" lon="3.96327">
        <ele>94.6</ele>
        <time>2026-08-24T14:26:56Z</time>
      </trkpt>
      <trkpt lat="49.22061" lon="3.96331">
        <ele>94.6</ele>
        <time>2026-08-24T14:26:57Z</time>
      </trkpt>
      <trkpt lat="49.22065" lon="3.96335">
        <ele>94.6</ele>
        <time>2026-08-24T14:26:58Z</time>
      </trkpt>
      <trkpt lat="49.22069" lon="3.96339">
        <ele>94.6</ele>
        <time>2026-08-24T14:26:59Z</time>
      </trkpt>
      <trkpt lat="49.22071" lon="3.96344">
        <ele>94.6</ele>
        <time>2026-08-24T14:27:00Z</time>
      </trkpt>
      <trkpt lat="49.22074" lon="3.96348">
        <ele>94.6</ele>
        <time>2026-08-24T14:27:01Z</time>
      </trkpt>
      <trkpt lat="49.22077" lon="3.96349">
        <ele>94.8</ele>
        <time>2026-08-24T14:27:02Z</time>
      </trkpt>
      <trkpt lat="49.2208" lon="3.96346">
        <ele>94.8</ele>
        <time>2026-08-24T14:27:03Z</time>
      </trkpt>
      <trkpt lat="49.22082" lon="3.96342">
        <ele>95</ele>
        <time>2026-08-24T14:27:04Z</time>
      </trkpt>
      <trkpt lat="49.22083" lon="3.96336">
        <ele>95</ele>
        <time>2026-08-24T14:27:05Z</time>
      </trkpt>
      <trkpt lat="49.22085" lon="3.9633">
        <ele>95</ele>
        <time>2026-08-24T14:27:06Z</time>
      </trkpt>
      <trkpt lat="49.22087" lon="3.96324">
        <ele>95.2</ele>
        <time>2026-08-24T14:27:07Z</time>
      </trkpt>
      <trkpt lat="49.2209" lon="3.96317">
        <ele>95.2</ele>
        <time>2026-08-24T14:27:08Z</time>
      </trkpt>
      <trkpt lat="49.22093" lon="3.9631">
        <ele>95</ele>
        <time>2026-08-24T14:27:09Z</time>
      </trkpt>
      <trkpt lat="49.22096" lon="3.96303">
        <ele>95</ele>
        <time>2026-08-24T14:27:10Z</time>
      </trkpt>
      <trkpt lat="49.221" lon="3.96295">
        <ele>94.8</ele>
        <time>2026-08-24T14:27:11Z</time>
      </trkpt>
      <trkpt lat="49.22103" lon="3.96287">
        <ele>94.6</ele>
        <time>2026-08-24T14:27:12Z</time>
      </trkpt>
      <trkpt lat="49.22106" lon="3.9628">
        <ele>94.4</ele>
        <time>2026-08-24T14:27:13Z</time>
      </trkpt>
      <trkpt lat="49.2211" lon="3.96275">
        <ele>94</ele>
        <time>2026-08-24T14:27:14Z</time>
      </trkpt>
      <trkpt lat="49.22115" lon="3.96271">
        <ele>93.8</ele>
        <time>2026-08-24T14:27:15Z</time>
      </trkpt>
      <trkpt lat="49.2212" lon="3.96272">
        <ele>93.6</ele>
        <time>2026-08-24T14:27:16Z</time>
      </trkpt>
      <trkpt lat="49.22124" lon="3.96276">
        <ele>93.4</ele>
        <time>2026-08-24T14:27:17Z</time>
      </trkpt>
      <trkpt lat="49.22129" lon="3.96281">
        <ele>93.2</ele>
        <time>2026-08-24T14:27:18Z</time>
      </trkpt>
      <trkpt lat="49.22133" lon="3.96285">
        <ele>92.8</ele>
        <time>2026-08-24T14:27:19Z</time>
      </trkpt>
      <trkpt lat="49.22138" lon="3.9629">
        <ele>92.4</ele>
        <time>2026-08-24T14:27:20Z</time>
      </trkpt>
      <trkpt lat="49.22142" lon="3.96295">
        <ele>92</ele>
        <time>2026-08-24T14:27:21Z</time>
      </trkpt>
      <trkpt lat="49.22147" lon="3.963">
        <ele>91.8</ele>
        <time>2026-08-24T14:27:22Z</time>
      </trkpt>
      <trkpt lat="49.22152" lon="3.96305">
        <ele>91.6</ele>
        <time>2026-08-24T14:27:23Z</time>
      </trkpt>
      <trkpt lat="49.22158" lon="3.96311">
        <ele>91.4</ele>
        <time>2026-08-24T14:27:24Z</time>
      </trkpt>
      <trkpt lat="49.22163" lon="3.96316">
        <ele>91.4</ele>
        <time>2026-08-24T14:27:25Z</time>
      </trkpt>
      <trkpt lat="49.22168" lon="3.96321">
        <ele>91.4</ele>
        <time>2026-08-24T14:27:26Z</time>
      </trkpt>
      <trkpt lat="49.22174" lon="3.96327">
        <ele>91.6</ele>
        <time>2026-08-24T14:27:27Z</time>
      </trkpt>
      <trkpt lat="49.22179" lon="3.96332">
        <ele>91.6</ele>
        <time>2026-08-24T14:27:28Z</time>
      </trkpt>
      <trkpt lat="49.22185" lon="3.96337">
        <ele>91.8</ele>
        <time>2026-08-24T14:27:29Z</time>
      </trkpt>
      <trkpt lat="49.2219" lon="3.96342">
        <ele>91.8</ele>
        <time>2026-08-24T14:27:30Z</time>
      </trkpt>
      <trkpt lat="49.22196" lon="3.96346">
        <ele>92</ele>
        <time>2026-08-24T14:27:31Z</time>
      </trkpt>
      <trkpt lat="49.22202" lon="3.9635">
        <ele>92</ele>
        <time>2026-08-24T14:27:32Z</time>
      </trkpt>
      <trkpt lat="49.22208" lon="3.96352">
        <ele>92.2</ele>
        <time>2026-08-24T14:27:33Z</time>
      </trkpt>
      <trkpt lat="49.22214" lon="3.96352">
        <ele>92.2</ele>
        <time>2026-08-24T14:27:34Z</time>
      </trkpt>
      <trkpt lat="49.2222" lon="3.9635">
        <ele>92.2</ele>
        <time>2026-08-24T14:27:35Z</time>
      </trkpt>
      <trkpt lat="49.22226" lon="3.96347">
        <ele>92.2</ele>
        <time>2026-08-24T14:27:36Z</time>
      </trkpt>
      <trkpt lat="49.22232" lon="3.96345">
        <ele>92.2</ele>
        <time>2026-08-24T14:27:37Z</time>
      </trkpt>
      <trkpt lat="49.22238" lon="3.96343">
        <ele>92.2</ele>
        <time>2026-08-24T14:27:38Z</time>
      </trkpt>
      <trkpt lat="49.22244" lon="3.96341">
        <ele>92.4</ele>
        <time>2026-08-24T14:27:39Z</time>
      </trkpt>
      <trkpt lat="49.22251" lon="3.9634">
        <ele>92.2</ele>
        <time>2026-08-24T14:27:40Z</time>
      </trkpt>
      <trkpt lat="49.22257" lon="3.96338">
        <ele>92.2</ele>
        <time>2026-08-24T14:27:41Z</time>
      </trkpt>
      <trkpt lat="49.22264" lon="3.96336">
        <ele>92.2</ele>
        <time>2026-08-24T14:27:42Z</time>
      </trkpt>
      <trkpt lat="49.22271" lon="3.96335">
        <ele>92</ele>
        <time>2026-08-24T14:27:43Z</time>
      </trkpt>
      <trkpt lat="49.22278" lon="3.96333">
        <ele>92</ele>
        <time>2026-08-24T14:27:44Z</time>
      </trkpt>
      <trkpt lat="49.22285" lon="3.96331">
        <ele>92</ele>
        <time>2026-08-24T14:27:45Z</time>
      </trkpt>
      <trkpt lat="49.22292" lon="3.96329">
        <ele>92</ele>
        <time>2026-08-24T14:27:46Z</time>
      </trkpt>
      <trkpt lat="49.22299" lon="3.96328">
        <ele>92</ele>
        <time>2026-08-24T14:27:47Z</time>
      </trkpt>
      <trkpt lat="49.22306" lon="3.96326">
        <ele>91.8</ele>
        <time>2026-08-24T14:27:48Z</time>
      </trkpt>
      <trkpt lat="49.22313" lon="3.96324">
        <ele>91.8</ele>
        <time>2026-08-24T14:27:49Z</time>
      </trkpt>
      <trkpt lat="49.2232" lon="3.96323">
        <ele>91.8</ele>
        <time>2026-08-24T14:27:50Z</time>
      </trkpt>
      <trkpt lat="49.22327" lon="3.96321">
        <ele>91.8</ele>
        <time>2026-08-24T14:27:51Z</time>
      </trkpt>
      <trkpt lat="49.22335" lon="3.96319">
        <ele>91.8</ele>
        <time>2026-08-24T14:27:52Z</time>
      </trkpt>
      <trkpt lat="49.22342" lon="3.96317">
        <ele>91.8</ele>
        <time>2026-08-24T14:27:53Z</time>
      </trkpt>
      <trkpt lat="49.2235" lon="3.96315">
        <ele>91.8</ele>
        <time>2026-08-24T14:27:54Z</time>
      </trkpt>
      <trkpt lat="49.22357" lon="3.96313">
        <ele>91.4</ele>
        <time>2026-08-24T14:27:55Z</time>
      </trkpt>
      <trkpt lat="49.22365" lon="3.96311">
        <ele>91.4</ele>
        <time>2026-08-24T14:27:56Z</time>
      </trkpt>
      <trkpt lat="49.22372" lon="3.96309">
        <ele>91.4</ele>
        <time>2026-08-24T14:27:57Z</time>
      </trkpt>
      <trkpt lat="49.22379" lon="3.96307">
        <ele>91.4</ele>
        <time>2026-08-24T14:27:58Z</time>
      </trkpt>
      <trkpt lat="49.22387" lon="3.96305">
        <ele>91.4</ele>
        <time>2026-08-24T14:27:59Z</time>
      </trkpt>
      <trkpt lat="49.22394" lon="3.96303">
        <ele>91.4</ele>
        <time>2026-08-24T14:28:00Z</time>
      </trkpt>
      <trkpt lat="49.22402" lon="3.96301">
        <ele>91.6</ele>
        <time>2026-08-24T14:28:01Z</time>
      </trkpt>
      <trkpt lat="49.2241" lon="3.96299">
        <ele>91.6</ele>
        <time>2026-08-24T14:28:02Z</time>
      </trkpt>
      <trkpt lat="49.22417" lon="3.96297">
        <ele>91.6</ele>
        <time>2026-08-24T14:28:03Z</time>
      </trkpt>
      <trkpt lat="49.22425" lon="3.96295">
        <ele>91.6</ele>
        <time>2026-08-24T14:28:04Z</time>
      </trkpt>
      <trkpt lat="49.22432" lon="3.96294">
        <ele>91.4</ele>
        <time>2026-08-24T14:28:05Z</time>
      </trkpt>
      <trkpt lat="49.2244" lon="3.96292">
        <ele>91.2</ele>
        <time>2026-08-24T14:28:06Z</time>
      </trkpt>
      <trkpt lat="49.22448" lon="3.96291">
        <ele>91</ele>
        <time>2026-08-24T14:28:07Z</time>
      </trkpt>
      <trkpt lat="49.22455" lon="3.96289">
        <ele>91</ele>
        <time>2026-08-24T14:28:08Z</time>
      </trkpt>
      <trkpt lat="49.22463" lon="3.96287">
        <ele>91</ele>
        <time>2026-08-24T14:28:09Z</time>
      </trkpt>
      <trkpt lat="49.22471" lon="3.96285">
        <ele>91</ele>
        <time>2026-08-24T14:28:10Z</time>
      </trkpt>
      <trkpt lat="49.22479" lon="3.96283">
        <ele>91.2</ele>
        <time>2026-08-24T14:28:11Z</time>
      </trkpt>
      <trkpt lat="49.22487" lon="3.96282">
        <ele>91.2</ele>
        <time>2026-08-24T14:28:12Z</time>
      </trkpt>
      <trkpt lat="49.22495" lon="3.9628">
        <ele>91.2</ele>
        <time>2026-08-24T14:28:13Z</time>
      </trkpt>
      <trkpt lat="49.22503" lon="3.96278">
        <ele>91.2</ele>
        <time>2026-08-24T14:28:14Z</time>
      </trkpt>
      <trkpt lat="49.2251" lon="3.96276">
        <ele>91.4</ele>
        <time>2026-08-24T14:28:15Z</time>
      </trkpt>
      <trkpt lat="49.22518" lon="3.96274">
        <ele>91.4</ele>
        <time>2026-08-24T14:28:16Z</time>
      </trkpt>
      <trkpt lat="49.22526" lon="3.96271">
        <ele>91.4</ele>
        <time>2026-08-24T14:28:17Z</time>
      </trkpt>
      <trkpt lat="49.22534" lon="3.96269">
        <ele>91.2</ele>
        <time>2026-08-24T14:28:18Z</time>
      </trkpt>
      <trkpt lat="49.22541" lon="3.96268">
        <ele>91.2</ele>
        <time>2026-08-24T14:28:19Z</time>
      </trkpt>
      <trkpt lat="49.22548" lon="3.96266">
        <ele>91</ele>
        <time>2026-08-24T14:28:20Z</time>
      </trkpt>
      <trkpt lat="49.22556" lon="3.96264">
        <ele>91</ele>
        <time>2026-08-24T14:28:21Z</time>
      </trkpt>
      <trkpt lat="49.22563" lon="3.96262">
        <ele>90.8</ele>
        <time>2026-08-24T14:28:22Z</time>
      </trkpt>
      <trkpt lat="49.22571" lon="3.9626">
        <ele>90.8</ele>
        <time>2026-08-24T14:28:23Z</time>
      </trkpt>
      <trkpt lat="49.22578" lon="3.96258">
        <ele>90.6</ele>
        <time>2026-08-24T14:28:24Z</time>
      </trkpt>
      <trkpt lat="49.22586" lon="3.96256">
        <ele>90.4</ele>
        <time>2026-08-24T14:28:25Z</time>
      </trkpt>
      <trkpt lat="49.22594" lon="3.96254">
        <ele>90.2</ele>
        <time>2026-08-24T14:28:26Z</time>
      </trkpt>
      <trkpt lat="49.22603" lon="3.96252">
        <ele>90</ele>
        <time>2026-08-24T14:28:27Z</time>
      </trkpt>
      <trkpt lat="49.22611" lon="3.9625">
        <ele>90</ele>
        <time>2026-08-24T14:28:28Z</time>
      </trkpt>
      <trkpt lat="49.22619" lon="3.96248">
        <ele>89.8</ele>
        <time>2026-08-24T14:28:29Z</time>
      </trkpt>
      <trkpt lat="49.22628" lon="3.96246">
        <ele>89.8</ele>
        <time>2026-08-24T14:28:30Z</time>
      </trkpt>
      <trkpt lat="49.22636" lon="3.96244">
        <ele>89.8</ele>
        <time>2026-08-24T14:28:31Z</time>
      </trkpt>
      <trkpt lat="49.22645" lon="3.96242">
        <ele>89.6</ele>
        <time>2026-08-24T14:28:32Z</time>
      </trkpt>
      <trkpt lat="49.22654" lon="3.9624">
        <ele>89.6</ele>
        <time>2026-08-24T14:28:33Z</time>
      </trkpt>
      <trkpt lat="49.22663" lon="3.96238">
        <ele>89.6</ele>
        <time>2026-08-24T14:28:34Z</time>
      </trkpt>
      <trkpt lat="49.22672" lon="3.96235">
        <ele>89.4</ele>
        <time>2026-08-24T14:28:35Z</time>
      </trkpt>
      <trkpt lat="49.22681" lon="3.96233">
        <ele>89.2</ele>
        <time>2026-08-24T14:28:36Z</time>
      </trkpt>
      <trkpt lat="49.2269" lon="3.9623">
        <ele>89.2</ele>
        <time>2026-08-24T14:28:37Z</time>
      </trkpt>
      <trkpt lat="49.22699" lon="3.96228">
        <ele>88.8</ele>
        <time>2026-08-24T14:28:38Z</time>
      </trkpt>
      <trkpt lat="49.22708" lon="3.96226">
        <ele>88</ele>
        <time>2026-08-24T14:28:39Z</time>
      </trkpt>
      <trkpt lat="49.22716" lon="3.96224">
        <ele>87.4</ele>
        <time>2026-08-24T14:28:40Z</time>
      </trkpt>
      <trkpt lat="49.22724" lon="3.96223">
        <ele>86.4</ele>
        <time>2026-08-24T14:28:41Z</time>
      </trkpt>
      <trkpt lat="49.22732" lon="3.96222">
        <ele>86.2</ele>
        <time>2026-08-24T14:28:42Z</time>
      </trkpt>
      <trkpt lat="49.2274" lon="3.9622">
        <ele>86</ele>
        <time>2026-08-24T14:28:43Z</time>
      </trkpt>
      <trkpt lat="49.22748" lon="3.96217">
        <ele>85.8</ele>
        <time>2026-08-24T14:28:44Z</time>
      </trkpt>
      <trkpt lat="49.22756" lon="3.96215">
        <ele>86</ele>
        <time>2026-08-24T14:28:45Z</time>
      </trkpt>
      <trkpt lat="49.22763" lon="3.96213">
        <ele>86.4</ele>
        <time>2026-08-24T14:28:46Z</time>
      </trkpt>
      <trkpt lat="49.22771" lon="3.96212">
        <ele>86.4</ele>
        <time>2026-08-24T14:28:47Z</time>
      </trkpt>
      <trkpt lat="49.22779" lon="3.9621">
        <ele>86.6</ele>
        <time>2026-08-24T14:28:48Z</time>
      </trkpt>
      <trkpt lat="49.22787" lon="3.96208">
        <ele>86.6</ele>
        <time>2026-08-24T14:28:49Z</time>
      </trkpt>
      <trkpt lat="49.22795" lon="3.96207">
        <ele>86.8</ele>
        <time>2026-08-24T14:28:50Z</time>
      </trkpt>
      <trkpt lat="49.22803" lon="3.96205">
        <ele>86.8</ele>
        <time>2026-08-24T14:28:51Z</time>
      </trkpt>
      <trkpt lat="49.2281" lon="3.96204">
        <ele>86.8</ele>
        <time>2026-08-24T14:28:52Z</time>
      </trkpt>
      <trkpt lat="49.22818" lon="3.96203">
        <ele>86.8</ele>
        <time>2026-08-24T14:28:53Z</time>
      </trkpt>
      <trkpt lat="49.22826" lon="3.96203">
        <ele>87</ele>
        <time>2026-08-24T14:28:54Z</time>
      </trkpt>
      <trkpt lat="49.22833" lon="3.96202">
        <ele>87.2</ele>
        <time>2026-08-24T14:28:55Z</time>
      </trkpt>
      <trkpt lat="49.2284" lon="3.96201">
        <ele>87.4</ele>
        <time>2026-08-24T14:28:56Z</time>
      </trkpt>
      <trkpt lat="49.22848" lon="3.96199">
        <ele>87.6</ele>
        <time>2026-08-24T14:28:57Z</time>
      </trkpt>
      <trkpt lat="49.22855" lon="3.96198">
        <ele>87.8</ele>
        <time>2026-08-24T14:28:58Z</time>
      </trkpt>
      <trkpt lat="49.22862" lon="3.96197">
        <ele>88</ele>
        <time>2026-08-24T14:28:59Z</time>
      </trkpt>
      <trkpt lat="49.22868" lon="3.96195">
        <ele>88</ele>
        <time>2026-08-24T14:29:00Z</time>
      </trkpt>
      <trkpt lat="49.22875" lon="3.96194">
        <ele>87.8</ele>
        <time>2026-08-24T14:29:01Z</time>
      </trkpt>
      <trkpt lat="49.22882" lon="3.96192">
        <ele>87.8</ele>
        <time>2026-08-24T14:29:02Z</time>
      </trkpt>
      <trkpt lat="49.22888" lon="3.96191">
        <ele>87.8</ele>
        <time>2026-08-24T14:29:03Z</time>
      </trkpt>
      <trkpt lat="49.22895" lon="3.96189">
        <ele>87.8</ele>
        <time>2026-08-24T14:29:04Z</time>
      </trkpt>
      <trkpt lat="49.22901" lon="3.96187">
        <ele>87.8</ele>
        <time>2026-08-24T14:29:05Z</time>
      </trkpt>
      <trkpt lat="49.22908" lon="3.96186">
        <ele>88</ele>
        <time>2026-08-24T14:29:06Z</time>
      </trkpt>
      <trkpt lat="49.22914" lon="3.96184">
        <ele>88</ele>
        <time>2026-08-24T14:29:07Z</time>
      </trkpt>
      <trkpt lat="49.22921" lon="3.96183">
        <ele>88.2</ele>
        <time>2026-08-24T14:29:08Z</time>
      </trkpt>
      <trkpt lat="49.22927" lon="3.96181">
        <ele>88.4</ele>
        <time>2026-08-24T14:29:09Z</time>
      </trkpt>
      <trkpt lat="49.22934" lon="3.96179">
        <ele>88.6</ele>
        <time>2026-08-24T14:29:10Z</time>
      </trkpt>
      <trkpt lat="49.2294" lon="3.96177">
        <ele>88.6</ele>
        <time>2026-08-24T14:29:11Z</time>
      </trkpt>
      <trkpt lat="49.22947" lon="3.96176">
        <ele>88.6</ele>
        <time>2026-08-24T14:29:12Z</time>
      </trkpt>
      <trkpt lat="49.22953" lon="3.96174">
        <ele>88.8</ele>
        <time>2026-08-24T14:29:13Z</time>
      </trkpt>
      <trkpt lat="49.22959" lon="3.96173">
        <ele>89</ele>
        <time>2026-08-24T14:29:14Z</time>
      </trkpt>
      <trkpt lat="49.22966" lon="3.96171">
        <ele>89</ele>
        <time>2026-08-24T14:29:15Z</time>
      </trkpt>
      <trkpt lat="49.22972" lon="3.96169">
        <ele>89.2</ele>
        <time>2026-08-24T14:29:16Z</time>
      </trkpt>
      <trkpt lat="49.22978" lon="3.96167">
        <ele>89.4</ele>
        <time>2026-08-24T14:29:17Z</time>
      </trkpt>
      <trkpt lat="49.22985" lon="3.96165">
        <ele>89.4</ele>
        <time>2026-08-24T14:29:18Z</time>
      </trkpt>
      <trkpt lat="49.22991" lon="3.96164">
        <ele>89.6</ele>
        <time>2026-08-24T14:29:19Z</time>
      </trkpt>
      <trkpt lat="49.22998" lon="3.96162">
        <ele>89.6</ele>
        <time>2026-08-24T14:29:20Z</time>
      </trkpt>
      <trkpt lat="49.23004" lon="3.96161">
        <ele>89.8</ele>
        <time>2026-08-24T14:29:21Z</time>
      </trkpt>
      <trkpt lat="49.2301" lon="3.9616">
        <ele>89.8</ele>
        <time>2026-08-24T14:29:22Z</time>
      </trkpt>
      <trkpt lat="49.23017" lon="3.96159">
        <ele>90</ele>
        <time>2026-08-24T14:29:23Z</time>
      </trkpt>
      <trkpt lat="49.23023" lon="3.96158">
        <ele>90.2</ele>
        <time>2026-08-24T14:29:24Z</time>
      </trkpt>
      <trkpt lat="49.23029" lon="3.96157">
        <ele>90.2</ele>
        <time>2026-08-24T14:29:25Z</time>
      </trkpt>
      <trkpt lat="49.23035" lon="3.96158">
        <ele>90.2</ele>
        <time>2026-08-24T14:29:26Z</time>
      </trkpt>
      <trkpt lat="49.23041" lon="3.96158">
        <ele>90.4</ele>
        <time>2026-08-24T14:29:27Z</time>
      </trkpt>
      <trkpt lat="49.23046" lon="3.9616">
        <ele>90.4</ele>
        <time>2026-08-24T14:29:28Z</time>
      </trkpt>
      <trkpt lat="49.23052" lon="3.96161">
        <ele>90.2</ele>
        <time>2026-08-24T14:29:29Z</time>
      </trkpt>
      <trkpt lat="49.23057" lon="3.96164">
        <ele>90</ele>
        <time>2026-08-24T14:29:30Z</time>
      </trkpt>
      <trkpt lat="49.23063" lon="3.96165">
        <ele>90</ele>
        <time>2026-08-24T14:29:31Z</time>
      </trkpt>
      <trkpt lat="49.23069" lon="3.96165">
        <ele>89.8</ele>
        <time>2026-08-24T14:29:32Z</time>
      </trkpt>
      <trkpt lat="49.23074" lon="3.96161">
        <ele>89.8</ele>
        <time>2026-08-24T14:29:33Z</time>
      </trkpt>
      <trkpt lat="49.23079" lon="3.96156">
        <ele>89.8</ele>
        <time>2026-08-24T14:29:34Z</time>
      </trkpt>
      <trkpt lat="49.23084" lon="3.96149">
        <ele>90</ele>
        <time>2026-08-24T14:29:35Z</time>
      </trkpt>
      <trkpt lat="49.23089" lon="3.96142">
        <ele>90</ele>
        <time>2026-08-24T14:29:36Z</time>
      </trkpt>
      <trkpt lat="49.23094" lon="3.96136">
        <ele>90.2</ele>
        <time>2026-08-24T14:29:37Z</time>
      </trkpt>
      <trkpt lat="49.231" lon="3.96131">
        <ele>90.2</ele>
        <time>2026-08-24T14:29:38Z</time>
      </trkpt>
      <trkpt lat="49.23107" lon="3.96126">
        <ele>90.2</ele>
        <time>2026-08-24T14:29:39Z</time>
      </trkpt>
      <trkpt lat="49.23114" lon="3.96121">
        <ele>90</ele>
        <time>2026-08-24T14:29:40Z</time>
      </trkpt>
      <trkpt lat="49.23122" lon="3.96116">
        <ele>89.8</ele>
        <time>2026-08-24T14:29:41Z</time>
      </trkpt>
      <trkpt lat="49.2313" lon="3.96112">
        <ele>89.4</ele>
        <time>2026-08-24T14:29:42Z</time>
      </trkpt>
      <trkpt lat="49.23138" lon="3.96108">
        <ele>89.2</ele>
        <time>2026-08-24T14:29:43Z</time>
      </trkpt>
      <trkpt lat="49.23145" lon="3.96105">
        <ele>89</ele>
        <time>2026-08-24T14:29:44Z</time>
      </trkpt>
      <trkpt lat="49.23153" lon="3.96101">
        <ele>88.8</ele>
        <time>2026-08-24T14:29:45Z</time>
      </trkpt>
      <trkpt lat="49.2316" lon="3.96098">
        <ele>88.8</ele>
        <time>2026-08-24T14:29:46Z</time>
      </trkpt>
      <trkpt lat="49.23168" lon="3.96094">
        <ele>88.6</ele>
        <time>2026-08-24T14:29:47Z</time>
      </trkpt>
      <trkpt lat="49.23175" lon="3.96091">
        <ele>88.6</ele>
        <time>2026-08-24T14:29:48Z</time>
      </trkpt>
      <trkpt lat="49.23182" lon="3.96087">
        <ele>88.2</ele>
        <time>2026-08-24T14:29:49Z</time>
      </trkpt>
      <trkpt lat="49.23189" lon="3.96084">
        <ele>88</ele>
        <time>2026-08-24T14:29:50Z</time>
      </trkpt>
      <trkpt lat="49.23197" lon="3.96081">
        <ele>87.8</ele>
        <time>2026-08-24T14:29:51Z</time>
      </trkpt>
      <trkpt lat="49.23205" lon="3.96077">
        <ele>87.6</ele>
        <time>2026-08-24T14:29:52Z</time>
      </trkpt>
      <trkpt lat="49.23212" lon="3.96074">
        <ele>87.6</ele>
        <time>2026-08-24T14:29:53Z</time>
      </trkpt>
      <trkpt lat="49.23219" lon="3.9607">
        <ele>87.6</ele>
        <time>2026-08-24T14:29:54Z</time>
      </trkpt>
      <trkpt lat="49.23226" lon="3.96067">
        <ele>87.6</ele>
        <time>2026-08-24T14:29:55Z</time>
      </trkpt>
      <trkpt lat="49.23233" lon="3.96064">
        <ele>87.6</ele>
        <time>2026-08-24T14:29:56Z</time>
      </trkpt>
      <trkpt lat="49.2324" lon="3.96061">
        <ele>87.6</ele>
        <time>2026-08-24T14:29:57Z</time>
      </trkpt>
      <trkpt lat="49.23247" lon="3.96057">
        <ele>87.8</ele>
        <time>2026-08-24T14:29:58Z</time>
      </trkpt>
      <trkpt lat="49.23254" lon="3.96054">
        <ele>87.6</ele>
        <time>2026-08-24T14:29:59Z</time>
      </trkpt>
      <trkpt lat="49.23261" lon="3.96051">
        <ele>87.6</ele>
        <time>2026-08-24T14:30:00Z</time>
      </trkpt>
      <trkpt lat="49.23268" lon="3.96048">
        <ele>87.6</ele>
        <time>2026-08-24T14:30:01Z</time>
      </trkpt>
      <trkpt lat="49.23275" lon="3.96044">
        <ele>87.8</ele>
        <time>2026-08-24T14:30:02Z</time>
      </trkpt>
      <trkpt lat="49.23282" lon="3.96041">
        <ele>87.8</ele>
        <time>2026-08-24T14:30:03Z</time>
      </trkpt>
      <trkpt lat="49.23289" lon="3.96037">
        <ele>87.8</ele>
        <time>2026-08-24T14:30:04Z</time>
      </trkpt>
      <trkpt lat="49.23296" lon="3.96034">
        <ele>88</ele>
        <time>2026-08-24T14:30:05Z</time>
      </trkpt>
      <trkpt lat="49.23304" lon="3.96031">
        <ele>88</ele>
        <time>2026-08-24T14:30:06Z</time>
      </trkpt>
      <trkpt lat="49.23311" lon="3.96028">
        <ele>88.2</ele>
        <time>2026-08-24T14:30:07Z</time>
      </trkpt>
      <trkpt lat="49.23318" lon="3.96024">
        <ele>88.2</ele>
        <time>2026-08-24T14:30:08Z</time>
      </trkpt>
      <trkpt lat="49.23325" lon="3.96021">
        <ele>88.2</ele>
        <time>2026-08-24T14:30:09Z</time>
      </trkpt>
      <trkpt lat="49.23332" lon="3.96018">
        <ele>88.2</ele>
        <time>2026-08-24T14:30:10Z</time>
      </trkpt>
      <trkpt lat="49.23339" lon="3.96014">
        <ele>88.2</ele>
        <time>2026-08-24T14:30:11Z</time>
      </trkpt>
      <trkpt lat="49.23346" lon="3.96011">
        <ele>88.2</ele>
        <time>2026-08-24T14:30:12Z</time>
      </trkpt>
      <trkpt lat="49.23352" lon="3.96008">
        <ele>88.4</ele>
        <time>2026-08-24T14:30:13Z</time>
      </trkpt>
      <trkpt lat="49.23359" lon="3.96004">
        <ele>88.2</ele>
        <time>2026-08-24T14:30:14Z</time>
      </trkpt>
      <trkpt lat="49.23366" lon="3.96001">
        <ele>88.4</ele>
        <time>2026-08-24T14:30:15Z</time>
      </trkpt>
      <trkpt lat="49.23373" lon="3.95998">
        <ele>88.4</ele>
        <time>2026-08-24T14:30:16Z</time>
      </trkpt>
      <trkpt lat="49.2338" lon="3.95994">
        <ele>88.6</ele>
        <time>2026-08-24T14:30:17Z</time>
      </trkpt>
      <trkpt lat="49.23387" lon="3.95991">
        <ele>88.6</ele>
        <time>2026-08-24T14:30:18Z</time>
      </trkpt>
      <trkpt lat="49.23393" lon="3.95987">
        <ele>89</ele>
        <time>2026-08-24T14:30:19Z</time>
      </trkpt>
      <trkpt lat="49.234" lon="3.95984">
        <ele>89</ele>
        <time>2026-08-24T14:30:20Z</time>
      </trkpt>
      <trkpt lat="49.23406" lon="3.9598">
        <ele>89.2</ele>
        <time>2026-08-24T14:30:21Z</time>
      </trkpt>
      <trkpt lat="49.23413" lon="3.95976">
        <ele>89.2</ele>
        <time>2026-08-24T14:30:22Z</time>
      </trkpt>
      <trkpt lat="49.23419" lon="3.95973">
        <ele>89.2</ele>
        <time>2026-08-24T14:30:23Z</time>
      </trkpt>
      <trkpt lat="49.23426" lon="3.95969">
        <ele>89.2</ele>
        <time>2026-08-24T14:30:24Z</time>
      </trkpt>
      <trkpt lat="49.23433" lon="3.95965">
        <ele>89</ele>
        <time>2026-08-24T14:30:25Z</time>
      </trkpt>
      <trkpt lat="49.23439" lon="3.95961">
        <ele>89.2</ele>
        <time>2026-08-24T14:30:26Z</time>
      </trkpt>
      <trkpt lat="49.23446" lon="3.95957">
        <ele>89</ele>
        <time>2026-08-24T14:30:27Z</time>
      </trkpt>
      <trkpt lat="49.23452" lon="3.95953">
        <ele>89</ele>
        <time>2026-08-24T14:30:28Z</time>
      </trkpt>
      <trkpt lat="49.23458" lon="3.95949">
        <ele>89.2</ele>
        <time>2026-08-24T14:30:29Z</time>
      </trkpt>
      <trkpt lat="49.23465" lon="3.95945">
        <ele>89.4</ele>
        <time>2026-08-24T14:30:30Z</time>
      </trkpt>
      <trkpt lat="49.23471" lon="3.95941">
        <ele>89.2</ele>
        <time>2026-08-24T14:30:31Z</time>
      </trkpt>
      <trkpt lat="49.23478" lon="3.95937">
        <ele>89.4</ele>
        <time>2026-08-24T14:30:32Z</time>
      </trkpt>
      <trkpt lat="49.23485" lon="3.95933">
        <ele>89</ele>
        <time>2026-08-24T14:30:33Z</time>
      </trkpt>
      <trkpt lat="49.23492" lon="3.95928">
        <ele>88.6</ele>
        <time>2026-08-24T14:30:34Z</time>
      </trkpt>
      <trkpt lat="49.23499" lon="3.95924">
        <ele>88.4</ele>
        <time>2026-08-24T14:30:35Z</time>
      </trkpt>
      <trkpt lat="49.23506" lon="3.9592">
        <ele>88.2</ele>
        <time>2026-08-24T14:30:36Z</time>
      </trkpt>
      <trkpt lat="49.23513" lon="3.95915">
        <ele>88</ele>
        <time>2026-08-24T14:30:37Z</time>
      </trkpt>
      <trkpt lat="49.23519" lon="3.95911">
        <ele>88.2</ele>
        <time>2026-08-24T14:30:38Z</time>
      </trkpt>
      <trkpt lat="49.23526" lon="3.95907">
        <ele>88.2</ele>
        <time>2026-08-24T14:30:39Z</time>
      </trkpt>
      <trkpt lat="49.23532" lon="3.95903">
        <ele>88.2</ele>
        <time>2026-08-24T14:30:40Z</time>
      </trkpt>
      <trkpt lat="49.23539" lon="3.95898">
        <ele>88.2</ele>
        <time>2026-08-24T14:30:41Z</time>
      </trkpt>
      <trkpt lat="49.23545" lon="3.95894">
        <ele>88</ele>
        <time>2026-08-24T14:30:42Z</time>
      </trkpt>
      <trkpt lat="49.23551" lon="3.95891">
        <ele>88</ele>
        <time>2026-08-24T14:30:43Z</time>
      </trkpt>
      <trkpt lat="49.23556" lon="3.95888">
        <ele>87.8</ele>
        <time>2026-08-24T14:30:44Z</time>
      </trkpt>
      <trkpt lat="49.23562" lon="3.95889">
        <ele>87.8</ele>
        <time>2026-08-24T14:30:45Z</time>
      </trkpt>
      <trkpt lat="49.23568" lon="3.95893">
        <ele>87.8</ele>
        <time>2026-08-24T14:30:46Z</time>
      </trkpt>
      <trkpt lat="49.23572" lon="3.95899">
        <ele>87.8</ele>
        <time>2026-08-24T14:30:47Z</time>
      </trkpt>
      <trkpt lat="49.23577" lon="3.95905">
        <ele>87.8</ele>
        <time>2026-08-24T14:30:48Z</time>
      </trkpt>
      <trkpt lat="49.23581" lon="3.95913">
        <ele>88</ele>
        <time>2026-08-24T14:30:49Z</time>
      </trkpt>
      <trkpt lat="49.23585" lon="3.9592">
        <ele>88</ele>
        <time>2026-08-24T14:30:50Z</time>
      </trkpt>
      <trkpt lat="49.23589" lon="3.95928">
        <ele>88</ele>
        <time>2026-08-24T14:30:51Z</time>
      </trkpt>
      <trkpt lat="49.23593" lon="3.95936">
        <ele>87.8</ele>
        <time>2026-08-24T14:30:52Z</time>
      </trkpt>
      <trkpt lat="49.23597" lon="3.95944">
        <ele>87.8</ele>
        <time>2026-08-24T14:30:53Z</time>
      </trkpt>
      <trkpt lat="49.23602" lon="3.95952">
        <ele>87.4</ele>
        <time>2026-08-24T14:30:54Z</time>
      </trkpt>
      <trkpt lat="49.23606" lon="3.9596">
        <ele>87.2</ele>
        <time>2026-08-24T14:30:55Z</time>
      </trkpt>
      <trkpt lat="49.2361" lon="3.95968">
        <ele>86.8</ele>
        <time>2026-08-24T14:30:56Z</time>
      </trkpt>
      <trkpt lat="49.23614" lon="3.95977">
        <ele>86.6</ele>
        <time>2026-08-24T14:30:57Z</time>
      </trkpt>
      <trkpt lat="49.23617" lon="3.95985">
        <ele>86.4</ele>
        <time>2026-08-24T14:30:58Z</time>
      </trkpt>
      <trkpt lat="49.23622" lon="3.95993">
        <ele>86.4</ele>
        <time>2026-08-24T14:30:59Z</time>
      </trkpt>
      <trkpt lat="49.23626" lon="3.96001">
        <ele>86.4</ele>
        <time>2026-08-24T14:31:00Z</time>
      </trkpt>
      <trkpt lat="49.23631" lon="3.96008">
        <ele>86.4</ele>
        <time>2026-08-24T14:31:01Z</time>
      </trkpt>
      <trkpt lat="49.23636" lon="3.96016">
        <ele>86.4</ele>
        <time>2026-08-24T14:31:02Z</time>
      </trkpt>
      <trkpt lat="49.23641" lon="3.96023">
        <ele>86.4</ele>
        <time>2026-08-24T14:31:03Z</time>
      </trkpt>
      <trkpt lat="49.23645" lon="3.96031">
        <ele>86.6</ele>
        <time>2026-08-24T14:31:04Z</time>
      </trkpt>
      <trkpt lat="49.2365" lon="3.96039">
        <ele>86.8</ele>
        <time>2026-08-24T14:31:05Z</time>
      </trkpt>
      <trkpt lat="49.23654" lon="3.96046">
        <ele>86.8</ele>
        <time>2026-08-24T14:31:06Z</time>
      </trkpt>
      <trkpt lat="49.23659" lon="3.96053">
        <ele>86.8</ele>
        <time>2026-08-24T14:31:07Z</time>
      </trkpt>
      <trkpt lat="49.23663" lon="3.96061">
        <ele>87</ele>
        <time>2026-08-24T14:31:08Z</time>
      </trkpt>
      <trkpt lat="49.23667" lon="3.96068">
        <ele>87.4</ele>
        <time>2026-08-24T14:31:09Z</time>
      </trkpt>
      <trkpt lat="49.23671" lon="3.96075">
        <ele>87.6</ele>
        <time>2026-08-24T14:31:10Z</time>
      </trkpt>
      <trkpt lat="49.23675" lon="3.96082">
        <ele>88</ele>
        <time>2026-08-24T14:31:11Z</time>
      </trkpt>
      <trkpt lat="49.23679" lon="3.96089">
        <ele>88.2</ele>
        <time>2026-08-24T14:31:12Z</time>
      </trkpt>
      <trkpt lat="49.23683" lon="3.96096">
        <ele>88.2</ele>
        <time>2026-08-24T14:31:13Z</time>
      </trkpt>
      <trkpt lat="49.23687" lon="3.96103">
        <ele>88.2</ele>
        <time>2026-08-24T14:31:14Z</time>
      </trkpt>
      <trkpt lat="49.23691" lon="3.9611">
        <ele>88.2</ele>
        <time>2026-08-24T14:31:15Z</time>
      </trkpt>
      <trkpt lat="49.23695" lon="3.96117">
        <ele>88</ele>
        <time>2026-08-24T14:31:16Z</time>
      </trkpt>
      <trkpt lat="49.23699" lon="3.96124">
        <ele>88.2</ele>
        <time>2026-08-24T14:31:17Z</time>
      </trkpt>
      <trkpt lat="49.23704" lon="3.96132">
        <ele>88.2</ele>
        <time>2026-08-24T14:31:18Z</time>
      </trkpt>
      <trkpt lat="49.23708" lon="3.9614">
        <ele>88.4</ele>
        <time>2026-08-24T14:31:19Z</time>
      </trkpt>
      <trkpt lat="49.23712" lon="3.96148">
        <ele>88.4</ele>
        <time>2026-08-24T14:31:20Z</time>
      </trkpt>
      <trkpt lat="49.23717" lon="3.96157">
        <ele>88.4</ele>
        <time>2026-08-24T14:31:21Z</time>
      </trkpt>
      <trkpt lat="49.23721" lon="3.96165">
        <ele>88.4</ele>
        <time>2026-08-24T14:31:22Z</time>
      </trkpt>
      <trkpt lat="49.23726" lon="3.96174">
        <ele>88.4</ele>
        <time>2026-08-24T14:31:23Z</time>
      </trkpt>
      <trkpt lat="49.2373" lon="3.96182">
        <ele>88.4</ele>
        <time>2026-08-24T14:31:24Z</time>
      </trkpt>
      <trkpt lat="49.23734" lon="3.96189">
        <ele>88.4</ele>
        <time>2026-08-24T14:31:25Z</time>
      </trkpt>
      <trkpt lat="49.23739" lon="3.96197">
        <ele>88.4</ele>
        <time>2026-08-24T14:31:26Z</time>
      </trkpt>
      <trkpt lat="49.23743" lon="3.96204">
        <ele>88.4</ele>
        <time>2026-08-24T14:31:27Z</time>
      </trkpt>
      <trkpt lat="49.23747" lon="3.96212">
        <ele>88.4</ele>
        <time>2026-08-24T14:31:28Z</time>
      </trkpt>
      <trkpt lat="49.2375" lon="3.96219">
        <ele>88.4</ele>
        <time>2026-08-24T14:31:29Z</time>
      </trkpt>
      <trkpt lat="49.23753" lon="3.96227">
        <ele>88.4</ele>
        <time>2026-08-24T14:31:30Z</time>
      </trkpt>
      <trkpt lat="49.23757" lon="3.96235">
        <ele>88.6</ele>
        <time>2026-08-24T14:31:31Z</time>
      </trkpt>
      <trkpt lat="49.2376" lon="3.96243">
        <ele>88.6</ele>
        <time>2026-08-24T14:31:32Z</time>
      </trkpt>
      <trkpt lat="49.23764" lon="3.9625">
        <ele>88.4</ele>
        <time>2026-08-24T14:31:33Z</time>
      </trkpt>
      <trkpt lat="49.23767" lon="3.96258">
        <ele>88.4</ele>
        <time>2026-08-24T14:31:34Z</time>
      </trkpt>
      <trkpt lat="49.23771" lon="3.96266">
        <ele>88.4</ele>
        <time>2026-08-24T14:31:35Z</time>
      </trkpt>
      <trkpt lat="49.23775" lon="3.96274">
        <ele>88.4</ele>
        <time>2026-08-24T14:31:36Z</time>
      </trkpt>
      <trkpt lat="49.23779" lon="3.96281">
        <ele>88.4</ele>
        <time>2026-08-24T14:31:37Z</time>
      </trkpt>
      <trkpt lat="49.23782" lon="3.96289">
        <ele>88.4</ele>
        <time>2026-08-24T14:31:38Z</time>
      </trkpt>
      <trkpt lat="49.23786" lon="3.96297">
        <ele>88.6</ele>
        <time>2026-08-24T14:31:39Z</time>
      </trkpt>
      <trkpt lat="49.2379" lon="3.96305">
        <ele>88.6</ele>
        <time>2026-08-24T14:31:40Z</time>
      </trkpt>
      <trkpt lat="49.23793" lon="3.96312">
        <ele>88.6</ele>
        <time>2026-08-24T14:31:41Z</time>
      </trkpt>
      <trkpt lat="49.23797" lon="3.9632">
        <ele>88.6</ele>
        <time>2026-08-24T14:31:42Z</time>
      </trkpt>
      <trkpt lat="49.238" lon="3.96327">
        <ele>88.6</ele>
        <time>2026-08-24T14:31:43Z</time>
      </trkpt>
      <trkpt lat="49.23804" lon="3.96335">
        <ele>88.8</ele>
        <time>2026-08-24T14:31:44Z</time>
      </trkpt>
      <trkpt lat="49.23808" lon="3.96342">
        <ele>88.8</ele>
        <time>2026-08-24T14:31:45Z</time>
      </trkpt>
      <trkpt lat="49.23811" lon="3.96349">
        <ele>89</ele>
        <time>2026-08-24T14:31:46Z</time>
      </trkpt>
      <trkpt lat="49.23815" lon="3.96356">
        <ele>89</ele>
        <time>2026-08-24T14:31:47Z</time>
      </trkpt>
      <trkpt lat="49.23819" lon="3.96363">
        <ele>89.2</ele>
        <time>2026-08-24T14:31:48Z</time>
      </trkpt>
      <trkpt lat="49.23823" lon="3.9637">
        <ele>89.2</ele>
        <time>2026-08-24T14:31:49Z</time>
      </trkpt>
      <trkpt lat="49.23828" lon="3.96377">
        <ele>89.2</ele>
        <time>2026-08-24T14:31:50Z</time>
      </trkpt>
      <trkpt lat="49.23832" lon="3.96384">
        <ele>89.2</ele>
        <time>2026-08-24T14:31:51Z</time>
      </trkpt>
      <trkpt lat="49.23836" lon="3.96391">
        <ele>89</ele>
        <time>2026-08-24T14:31:52Z</time>
      </trkpt>
      <trkpt lat="49.2384" lon="3.96399">
        <ele>89</ele>
        <time>2026-08-24T14:31:53Z</time>
      </trkpt>
      <trkpt lat="49.23844" lon="3.96406">
        <ele>88.8</ele>
        <time>2026-08-24T14:31:54Z</time>
      </trkpt>
      <trkpt lat="49.23849" lon="3.96413">
        <ele>88.8</ele>
        <time>2026-08-24T14:31:55Z</time>
      </trkpt>
      <trkpt lat="49.23853" lon="3.9642">
        <ele>88.6</ele>
        <time>2026-08-24T14:31:56Z</time>
      </trkpt>
      <trkpt lat="49.23857" lon="3.96428">
        <ele>88.6</ele>
        <time>2026-08-24T14:31:57Z</time>
      </trkpt>
      <trkpt lat="49.23861" lon="3.96435">
        <ele>88.4</ele>
        <time>2026-08-24T14:31:58Z</time>
      </trkpt>
      <trkpt lat="49.23865" lon="3.96442">
        <ele>88.4</ele>
        <time>2026-08-24T14:31:59Z</time>
      </trkpt>
      <trkpt lat="49.2387" lon="3.96449">
        <ele>88.2</ele>
        <time>2026-08-24T14:32:00Z</time>
      </trkpt>
      <trkpt lat="49.23874" lon="3.96457">
        <ele>88.2</ele>
        <time>2026-08-24T14:32:01Z</time>
      </trkpt>
      <trkpt lat="49.23878" lon="3.96464">
        <ele>88</ele>
        <time>2026-08-24T14:32:02Z</time>
      </trkpt>
      <trkpt lat="49.23882" lon="3.96472">
        <ele>87.8</ele>
        <time>2026-08-24T14:32:03Z</time>
      </trkpt>
      <trkpt lat="49.23886" lon="3.96479">
        <ele>87.8</ele>
        <time>2026-08-24T14:32:04Z</time>
      </trkpt>
      <trkpt lat="49.23891" lon="3.96486">
        <ele>87.8</ele>
        <time>2026-08-24T14:32:05Z</time>
      </trkpt>
      <trkpt lat="49.23895" lon="3.96494">
        <ele>87.8</ele>
        <time>2026-08-24T14:32:06Z</time>
      </trkpt>
      <trkpt lat="49.239" lon="3.96501">
        <ele>87.8</ele>
        <time>2026-08-24T14:32:07Z</time>
      </trkpt>
      <trkpt lat="49.23904" lon="3.96509">
        <ele>87.8</ele>
        <time>2026-08-24T14:32:08Z</time>
      </trkpt>
      <trkpt lat="49.23908" lon="3.96516">
        <ele>87.8</ele>
        <time>2026-08-24T14:32:09Z</time>
      </trkpt>
      <trkpt lat="49.23913" lon="3.96524">
        <ele>87.8</ele>
        <time>2026-08-24T14:32:10Z</time>
      </trkpt>
      <trkpt lat="49.23917" lon="3.96531">
        <ele>87.8</ele>
        <time>2026-08-24T14:32:11Z</time>
      </trkpt>
      <trkpt lat="49.23922" lon="3.96539">
        <ele>87.8</ele>
        <time>2026-08-24T14:32:12Z</time>
      </trkpt>
      <trkpt lat="49.23927" lon="3.96547">
        <ele>87.6</ele>
        <time>2026-08-24T14:32:13Z</time>
      </trkpt>
      <trkpt lat="49.23931" lon="3.96554">
        <ele>87.6</ele>
        <time>2026-08-24T14:32:14Z</time>
      </trkpt>
      <trkpt lat="49.23935" lon="3.96562">
        <ele>87.4</ele>
        <time>2026-08-24T14:32:15Z</time>
      </trkpt>
      <trkpt lat="49.2394" lon="3.9657">
        <ele>87.4</ele>
        <time>2026-08-24T14:32:16Z</time>
      </trkpt>
      <trkpt lat="49.23944" lon="3.96578">
        <ele>87.4</ele>
        <time>2026-08-24T14:32:17Z</time>
      </trkpt>
      <trkpt lat="49.23948" lon="3.96585">
        <ele>87.4</ele>
        <time>2026-08-24T14:32:18Z</time>
      </trkpt>
      <trkpt lat="49.23953" lon="3.96592">
        <ele>87.6</ele>
        <time>2026-08-24T14:32:19Z</time>
      </trkpt>
      <trkpt lat="49.23957" lon="3.96599">
        <ele>87.6</ele>
        <time>2026-08-24T14:32:20Z</time>
      </trkpt>
      <trkpt lat="49.23961" lon="3.96606">
        <ele>87.8</ele>
        <time>2026-08-24T14:32:21Z</time>
      </trkpt>
      <trkpt lat="49.23965" lon="3.96613">
        <ele>88</ele>
        <time>2026-08-24T14:32:22Z</time>
      </trkpt>
      <trkpt lat="49.23969" lon="3.9662">
        <ele>88.2</ele>
        <time>2026-08-24T14:32:23Z</time>
      </trkpt>
      <trkpt lat="49.23973" lon="3.96626">
        <ele>88.4</ele>
        <time>2026-08-24T14:32:24Z</time>
      </trkpt>
      <trkpt lat="49.23976" lon="3.96632">
        <ele>88.6</ele>
        <time>2026-08-24T14:32:25Z</time>
      </trkpt>
      <trkpt lat="49.2398" lon="3.96638">
        <ele>89</ele>
        <time>2026-08-24T14:32:26Z</time>
      </trkpt>
      <trkpt lat="49.23983" lon="3.96644">
        <ele>89.2</ele>
        <time>2026-08-24T14:32:27Z</time>
      </trkpt>
      <trkpt lat="49.23986" lon="3.9665">
        <ele>89.4</ele>
        <time>2026-08-24T14:32:28Z</time>
      </trkpt>
      <trkpt lat="49.2399" lon="3.96656">
        <ele>89.6</ele>
        <time>2026-08-24T14:32:29Z</time>
      </trkpt>
      <trkpt lat="49.23993" lon="3.96662">
        <ele>89.8</ele>
        <time>2026-08-24T14:32:30Z</time>
      </trkpt>
      <trkpt lat="49.23995" lon="3.96667">
        <ele>90</ele>
        <time>2026-08-24T14:32:31Z</time>
      </trkpt>
      <trkpt lat="49.23998" lon="3.96673">
        <ele>90.4</ele>
        <time>2026-08-24T14:32:32Z</time>
      </trkpt>
      <trkpt lat="49.24" lon="3.96679">
        <ele>90.4</ele>
        <time>2026-08-24T14:32:33Z</time>
      </trkpt>
      <trkpt lat="49.24003" lon="3.96685">
        <ele>90.6</ele>
        <time>2026-08-24T14:32:34Z</time>
      </trkpt>
      <trkpt lat="49.24005" lon="3.96692">
        <ele>90.8</ele>
        <time>2026-08-24T14:32:35Z</time>
      </trkpt>
      <trkpt lat="49.24008" lon="3.96698">
        <ele>90.8</ele>
        <time>2026-08-24T14:32:36Z</time>
      </trkpt>
      <trkpt lat="49.2401" lon="3.96704">
        <ele>91</ele>
        <time>2026-08-24T14:32:37Z</time>
      </trkpt>
      <trkpt lat="49.24012" lon="3.9671">
        <ele>91.2</ele>
        <time>2026-08-24T14:32:38Z</time>
      </trkpt>
      <trkpt lat="49.24014" lon="3.96716">
        <ele>91.4</ele>
        <time>2026-08-24T14:32:39Z</time>
      </trkpt>
      <trkpt lat="49.24016" lon="3.96723">
        <ele>91.6</ele>
        <time>2026-08-24T14:32:40Z</time>
      </trkpt>
      <trkpt lat="49.24018" lon="3.9673">
        <ele>91.8</ele>
        <time>2026-08-24T14:32:41Z</time>
      </trkpt>
      <trkpt lat="49.24019" lon="3.96737">
        <ele>92</ele>
        <time>2026-08-24T14:32:42Z</time>
      </trkpt>
      <trkpt lat="49.24021" lon="3.96744">
        <ele>92.2</ele>
        <time>2026-08-24T14:32:43Z</time>
      </trkpt>
      <trkpt lat="49.24022" lon="3.96751">
        <ele>92.2</ele>
        <time>2026-08-24T14:32:44Z</time>
      </trkpt>
      <trkpt lat="49.24024" lon="3.96759">
        <ele>92.2</ele>
        <time>2026-08-24T14:32:45Z</time>
      </trkpt>
      <trkpt lat="49.24025" lon="3.96766">
        <ele>92.2</ele>
        <time>2026-08-24T14:32:46Z</time>
      </trkpt>
      <trkpt lat="49.24027" lon="3.96773">
        <ele>92.2</ele>
        <time>2026-08-24T14:32:47Z</time>
      </trkpt>
      <trkpt lat="49.24028" lon="3.96781">
        <ele>92.2</ele>
        <time>2026-08-24T14:32:48Z</time>
      </trkpt>
      <trkpt lat="49.2403" lon="3.96788">
        <ele>92.2</ele>
        <time>2026-08-24T14:32:49Z</time>
      </trkpt>
      <trkpt lat="49.24032" lon="3.96795">
        <ele>92.4</ele>
        <time>2026-08-24T14:32:50Z</time>
      </trkpt>
      <trkpt lat="49.24035" lon="3.96803">
        <ele>92.6</ele>
        <time>2026-08-24T14:32:51Z</time>
      </trkpt>
      <trkpt lat="49.24037" lon="3.9681">
        <ele>92.6</ele>
        <time>2026-08-24T14:32:52Z</time>
      </trkpt>
      <trkpt lat="49.2404" lon="3.96817">
        <ele>92.6</ele>
        <time>2026-08-24T14:32:53Z</time>
      </trkpt>
      <trkpt lat="49.24043" lon="3.96824">
        <ele>92.6</ele>
        <time>2026-08-24T14:32:54Z</time>
      </trkpt>
      <trkpt lat="49.24047" lon="3.96831">
        <ele>92.4</ele>
        <time>2026-08-24T14:32:55Z</time>
      </trkpt>
      <trkpt lat="49.2405" lon="3.96838">
        <ele>92.2</ele>
        <time>2026-08-24T14:32:56Z</time>
      </trkpt>
      <trkpt lat="49.24054" lon="3.96845">
        <ele>92.2</ele>
        <time>2026-08-24T14:32:57Z</time>
      </trkpt>
      <trkpt lat="49.24058" lon="3.96852">
        <ele>92.2</ele>
        <time>2026-08-24T14:32:58Z</time>
      </trkpt>
      <trkpt lat="49.24062" lon="3.96858">
        <ele>92.2</ele>
        <time>2026-08-24T14:32:59Z</time>
      </trkpt>
      <trkpt lat="49.24067" lon="3.96864">
        <ele>92</ele>
        <time>2026-08-24T14:33:00Z</time>
      </trkpt>
      <trkpt lat="49.24072" lon="3.96871">
        <ele>91.8</ele>
        <time>2026-08-24T14:33:01Z</time>
      </trkpt>
      <trkpt lat="49.24077" lon="3.96876">
        <ele>91.6</ele>
        <time>2026-08-24T14:33:02Z</time>
      </trkpt>
      <trkpt lat="49.24082" lon="3.96882">
        <ele>91.4</ele>
        <time>2026-08-24T14:33:03Z</time>
      </trkpt>
      <trkpt lat="49.24088" lon="3.96887">
        <ele>91.2</ele>
        <time>2026-08-24T14:33:04Z</time>
      </trkpt>
      <trkpt lat="49.24094" lon="3.96892">
        <ele>91</ele>
        <time>2026-08-24T14:33:05Z</time>
      </trkpt>
      <trkpt lat="49.24101" lon="3.96897">
        <ele>90.8</ele>
        <time>2026-08-24T14:33:06Z</time>
      </trkpt>
      <trkpt lat="49.24107" lon="3.96901">
        <ele>90.6</ele>
        <time>2026-08-24T14:33:07Z</time>
      </trkpt>
      <trkpt lat="49.24115" lon="3.96904">
        <ele>90.4</ele>
        <time>2026-08-24T14:33:08Z</time>
      </trkpt>
      <trkpt lat="49.24122" lon="3.96907">
        <ele>90</ele>
        <time>2026-08-24T14:33:09Z</time>
      </trkpt>
      <trkpt lat="49.2413" lon="3.96909">
        <ele>89.6</ele>
        <time>2026-08-24T14:33:10Z</time>
      </trkpt>
      <trkpt lat="49.24138" lon="3.96911">
        <ele>89.2</ele>
        <time>2026-08-24T14:33:11Z</time>
      </trkpt>
      <trkpt lat="49.24146" lon="3.96912">
        <ele>88.6</ele>
        <time>2026-08-24T14:33:12Z</time>
      </trkpt>
      <trkpt lat="49.24154" lon="3.96912">
        <ele>88.2</ele>
        <time>2026-08-24T14:33:13Z</time>
      </trkpt>
      <trkpt lat="49.24162" lon="3.96911">
        <ele>87.8</ele>
        <time>2026-08-24T14:33:14Z</time>
      </trkpt>
      <trkpt lat="49.2417" lon="3.9691">
        <ele>87.4</ele>
        <time>2026-08-24T14:33:15Z</time>
      </trkpt>
      <trkpt lat="49.24179" lon="3.96908">
        <ele>87</ele>
        <time>2026-08-24T14:33:16Z</time>
      </trkpt>
      <trkpt lat="49.24187" lon="3.96904">
        <ele>86.6</ele>
        <time>2026-08-24T14:33:17Z</time>
      </trkpt>
      <trkpt lat="49.24195" lon="3.96901">
        <ele>86.2</ele>
        <time>2026-08-24T14:33:18Z</time>
      </trkpt>
      <trkpt lat="49.24203" lon="3.96897">
        <ele>86</ele>
        <time>2026-08-24T14:33:19Z</time>
      </trkpt>
      <trkpt lat="49.2421" lon="3.96893">
        <ele>85.6</ele>
        <time>2026-08-24T14:33:20Z</time>
      </trkpt>
      <trkpt lat="49.24218" lon="3.96888">
        <ele>85.4</ele>
        <time>2026-08-24T14:33:21Z</time>
      </trkpt>
      <trkpt lat="49.24225" lon="3.96884">
        <ele>85.2</ele>
        <time>2026-08-24T14:33:22Z</time>
      </trkpt>
      <trkpt lat="49.24233" lon="3.96879">
        <ele>85</ele>
        <time>2026-08-24T14:33:23Z</time>
      </trkpt>
      <trkpt lat="49.24241" lon="3.96875">
        <ele>84.8</ele>
        <time>2026-08-24T14:33:24Z</time>
      </trkpt>
      <trkpt lat="49.24249" lon="3.96872">
        <ele>84.6</ele>
        <time>2026-08-24T14:33:25Z</time>
      </trkpt>
      <trkpt lat="49.24257" lon="3.96869">
        <ele>84.4</ele>
        <time>2026-08-24T14:33:26Z</time>
      </trkpt>
      <trkpt lat="49.24265" lon="3.96867">
        <ele>84.2</ele>
        <time>2026-08-24T14:33:27Z</time>
      </trkpt>
      <trkpt lat="49.24272" lon="3.96866">
        <ele>84</ele>
        <time>2026-08-24T14:33:28Z</time>
      </trkpt>
      <trkpt lat="49.24281" lon="3.96867">
        <ele>83.8</ele>
        <time>2026-08-24T14:33:29Z</time>
      </trkpt>
      <trkpt lat="49.24289" lon="3.96868">
        <ele>83.4</ele>
        <time>2026-08-24T14:33:30Z</time>
      </trkpt>
      <trkpt lat="49.24297" lon="3.96871">
        <ele>83.2</ele>
        <time>2026-08-24T14:33:31Z</time>
      </trkpt>
      <trkpt lat="49.24305" lon="3.96875">
        <ele>83</ele>
        <time>2026-08-24T14:33:32Z</time>
      </trkpt>
      <trkpt lat="49.24313" lon="3.96881">
        <ele>82.8</ele>
        <time>2026-08-24T14:33:33Z</time>
      </trkpt>
      <trkpt lat="49.2432" lon="3.96887">
        <ele>82.4</ele>
        <time>2026-08-24T14:33:34Z</time>
      </trkpt>
      <trkpt lat="49.24327" lon="3.96894">
        <ele>82.2</ele>
        <time>2026-08-24T14:33:35Z</time>
      </trkpt>
      <trkpt lat="49.24333" lon="3.96902">
        <ele>81.8</ele>
        <time>2026-08-24T14:33:36Z</time>
      </trkpt>
      <trkpt lat="49.24339" lon="3.96911">
        <ele>81.6</ele>
        <time>2026-08-24T14:33:37Z</time>
      </trkpt>
      <trkpt lat="49.24344" lon="3.96921">
        <ele>81.4</ele>
        <time>2026-08-24T14:33:38Z</time>
      </trkpt>
      <trkpt lat="49.24349" lon="3.9693">
        <ele>81</ele>
        <time>2026-08-24T14:33:39Z</time>
      </trkpt>
      <trkpt lat="49.24353" lon="3.9694">
        <ele>80.8</ele>
        <time>2026-08-24T14:33:40Z</time>
      </trkpt>
      <trkpt lat="49.24357" lon="3.9695">
        <ele>80.8</ele>
        <time>2026-08-24T14:33:41Z</time>
      </trkpt>
      <trkpt lat="49.24359" lon="3.96961">
        <ele>80.4</ele>
        <time>2026-08-24T14:33:42Z</time>
      </trkpt>
      <trkpt lat="49.24362" lon="3.96971">
        <ele>80.2</ele>
        <time>2026-08-24T14:33:43Z</time>
      </trkpt>
      <trkpt lat="49.24365" lon="3.96981">
        <ele>80.2</ele>
        <time>2026-08-24T14:33:44Z</time>
      </trkpt>
      <trkpt lat="49.24368" lon="3.96991">
        <ele>80.2</ele>
        <time>2026-08-24T14:33:45Z</time>
      </trkpt>
      <trkpt lat="49.2437" lon="3.97">
        <ele>80.2</ele>
        <time>2026-08-24T14:33:46Z</time>
      </trkpt>
      <trkpt lat="49.24373" lon="3.9701">
        <ele>80.4</ele>
        <time>2026-08-24T14:33:47Z</time>
      </trkpt>
      <trkpt lat="49.24376" lon="3.9702">
        <ele>80.6</ele>
        <time>2026-08-24T14:33:48Z</time>
      </trkpt>
      <trkpt lat="49.24379" lon="3.97029">
        <ele>80.6</ele>
        <time>2026-08-24T14:33:49Z</time>
      </trkpt>
      <trkpt lat="49.24382" lon="3.97038">
        <ele>80.8</ele>
        <time>2026-08-24T14:33:50Z</time>
      </trkpt>
      <trkpt lat="49.24384" lon="3.97048">
        <ele>81</ele>
        <time>2026-08-24T14:33:51Z</time>
      </trkpt>
      <trkpt lat="49.24387" lon="3.97057">
        <ele>81</ele>
        <time>2026-08-24T14:33:52Z</time>
      </trkpt>
      <trkpt lat="49.2439" lon="3.97066">
        <ele>81</ele>
        <time>2026-08-24T14:33:53Z</time>
      </trkpt>
      <trkpt lat="49.24393" lon="3.97075">
        <ele>81</ele>
        <time>2026-08-24T14:33:54Z</time>
      </trkpt>
      <trkpt lat="49.24396" lon="3.97083">
        <ele>81.2</ele>
        <time>2026-08-24T14:33:55Z</time>
      </trkpt>
      <trkpt lat="49.24399" lon="3.97092">
        <ele>81.2</ele>
        <time>2026-08-24T14:33:56Z</time>
      </trkpt>
      <trkpt lat="49.24402" lon="3.97101">
        <ele>81.2</ele>
        <time>2026-08-24T14:33:57Z</time>
      </trkpt>
      <trkpt lat="49.24405" lon="3.9711">
        <ele>81.4</ele>
        <time>2026-08-24T14:33:58Z</time>
      </trkpt>
      <trkpt lat="49.24408" lon="3.97118">
        <ele>81.4</ele>
        <time>2026-08-24T14:33:59Z</time>
      </trkpt>
      <trkpt lat="49.24411" lon="3.97127">
        <ele>81.4</ele>
        <time>2026-08-24T14:34:00Z</time>
      </trkpt>
      <trkpt lat="49.24414" lon="3.97135">
        <ele>81.6</ele>
        <time>2026-08-24T14:34:01Z</time>
      </trkpt>
      <trkpt lat="49.24417" lon="3.97143">
        <ele>81.6</ele>
        <time>2026-08-24T14:34:02Z</time>
      </trkpt>
      <trkpt lat="49.2442" lon="3.97151">
        <ele>81.6</ele>
        <time>2026-08-24T14:34:03Z</time>
      </trkpt>
      <trkpt lat="49.24424" lon="3.97159">
        <ele>81.6</ele>
        <time>2026-08-24T14:34:04Z</time>
      </trkpt>
      <trkpt lat="49.24427" lon="3.97167">
        <ele>81.6</ele>
        <time>2026-08-24T14:34:05Z</time>
      </trkpt>
      <trkpt lat="49.2443" lon="3.97175">
        <ele>81.6</ele>
        <time>2026-08-24T14:34:06Z</time>
      </trkpt>
      <trkpt lat="49.24433" lon="3.97182">
        <ele>81.8</ele>
        <time>2026-08-24T14:34:07Z</time>
      </trkpt>
      <trkpt lat="49.24436" lon="3.9719">
        <ele>81.8</ele>
        <time>2026-08-24T14:34:08Z</time>
      </trkpt>
      <trkpt lat="49.24439" lon="3.97197">
        <ele>82</ele>
        <time>2026-08-24T14:34:09Z</time>
      </trkpt>
      <trkpt lat="49.24443" lon="3.97205">
        <ele>82</ele>
        <time>2026-08-24T14:34:10Z</time>
      </trkpt>
      <trkpt lat="49.24446" lon="3.97212">
        <ele>82.2</ele>
        <time>2026-08-24T14:34:11Z</time>
      </trkpt>
      <trkpt lat="49.24449" lon="3.97219">
        <ele>82.4</ele>
        <time>2026-08-24T14:34:12Z</time>
      </trkpt>
      <trkpt lat="49.24452" lon="3.97226">
        <ele>82.4</ele>
        <time>2026-08-24T14:34:13Z</time>
      </trkpt>
      <trkpt lat="49.24455" lon="3.97233">
        <ele>82.6</ele>
        <time>2026-08-24T14:34:14Z</time>
      </trkpt>
      <trkpt lat="49.24457" lon="3.9724">
        <ele>82.6</ele>
        <time>2026-08-24T14:34:15Z</time>
      </trkpt>
      <trkpt lat="49.2446" lon="3.97247">
        <ele>82.6</ele>
        <time>2026-08-24T14:34:16Z</time>
      </trkpt>
      <trkpt lat="49.24462" lon="3.97254">
        <ele>82.6</ele>
        <time>2026-08-24T14:34:17Z</time>
      </trkpt>
      <trkpt lat="49.24465" lon="3.97261">
        <ele>82.8</ele>
        <time>2026-08-24T14:34:18Z</time>
      </trkpt>
      <trkpt lat="49.24467" lon="3.97267">
        <ele>82.8</ele>
        <time>2026-08-24T14:34:19Z</time>
      </trkpt>
      <trkpt lat="49.2447" lon="3.97274">
        <ele>83</ele>
        <time>2026-08-24T14:34:20Z</time>
      </trkpt>
      <trkpt lat="49.24472" lon="3.97281">
        <ele>83</ele>
        <time>2026-08-24T14:34:21Z</time>
      </trkpt>
      <trkpt lat="49.24474" lon="3.97288">
        <ele>83.2</ele>
        <time>2026-08-24T14:34:22Z</time>
      </trkpt>
      <trkpt lat="49.24476" lon="3.97295">
        <ele>83.2</ele>
        <time>2026-08-24T14:34:23Z</time>
      </trkpt>
      <trkpt lat="49.24478" lon="3.97302">
        <ele>83.4</ele>
        <time>2026-08-24T14:34:24Z</time>
      </trkpt>
      <trkpt lat="49.2448" lon="3.97309">
        <ele>83.6</ele>
        <time>2026-08-24T14:34:25Z</time>
      </trkpt>
      <trkpt lat="49.24482" lon="3.97316">
        <ele>83.8</ele>
        <time>2026-08-24T14:34:26Z</time>
      </trkpt>
      <trkpt lat="49.24484" lon="3.97323">
        <ele>83.8</ele>
        <time>2026-08-24T14:34:27Z</time>
      </trkpt>
      <trkpt lat="49.24486" lon="3.9733">
        <ele>83.8</ele>
        <time>2026-08-24T14:34:28Z</time>
      </trkpt>
      <trkpt lat="49.24488" lon="3.97337">
        <ele>84</ele>
        <time>2026-08-24T14:34:29Z</time>
      </trkpt>
      <trkpt lat="49.24489" lon="3.97344">
        <ele>84</ele>
        <time>2026-08-24T14:34:30Z</time>
      </trkpt>
      <trkpt lat="49.24491" lon="3.97352">
        <ele>84.2</ele>
        <time>2026-08-24T14:34:31Z</time>
      </trkpt>
      <trkpt lat="49.24493" lon="3.97359">
        <ele>84.4</ele>
        <time>2026-08-24T14:34:32Z</time>
      </trkpt>
      <trkpt lat="49.24494" lon="3.97366">
        <ele>84.4</ele>
        <time>2026-08-24T14:34:33Z</time>
      </trkpt>
      <trkpt lat="49.24496" lon="3.97374">
        <ele>84.6</ele>
        <time>2026-08-24T14:34:34Z</time>
      </trkpt>
      <trkpt lat="49.24498" lon="3.97381">
        <ele>84.6</ele>
        <time>2026-08-24T14:34:35Z</time>
      </trkpt>
      <trkpt lat="49.24499" lon="3.97389">
        <ele>84.4</ele>
        <time>2026-08-24T14:34:36Z</time>
      </trkpt>
      <trkpt lat="49.24501" lon="3.97396">
        <ele>84.4</ele>
        <time>2026-08-24T14:34:37Z</time>
      </trkpt>
      <trkpt lat="49.24502" lon="3.97403">
        <ele>84.2</ele>
        <time>2026-08-24T14:34:38Z</time>
      </trkpt>
      <trkpt lat="49.24504" lon="3.9741">
        <ele>83.8</ele>
        <time>2026-08-24T14:34:39Z</time>
      </trkpt>
      <trkpt lat="49.24506" lon="3.97417">
        <ele>83.8</ele>
        <time>2026-08-24T14:34:40Z</time>
      </trkpt>
      <trkpt lat="49.24507" lon="3.97424">
        <ele>83.6</ele>
        <time>2026-08-24T14:34:41Z</time>
      </trkpt>
      <trkpt lat="49.24509" lon="3.97431">
        <ele>83.8</ele>
        <time>2026-08-24T14:34:42Z</time>
      </trkpt>
      <trkpt lat="49.2451" lon="3.97437">
        <ele>83.8</ele>
        <time>2026-08-24T14:34:43Z</time>
      </trkpt>
      <trkpt lat="49.24511" lon="3.97443">
        <ele>84</ele>
        <time>2026-08-24T14:34:44Z</time>
      </trkpt>
      <trkpt lat="49.24513" lon="3.9745">
        <ele>84.2</ele>
        <time>2026-08-24T14:34:45Z</time>
      </trkpt>
      <trkpt lat="49.24514" lon="3.97456">
        <ele>84.4</ele>
        <time>2026-08-24T14:34:46Z</time>
      </trkpt>
      <trkpt lat="49.24515" lon="3.97462">
        <ele>84.6</ele>
        <time>2026-08-24T14:34:47Z</time>
      </trkpt>
      <trkpt lat="49.24517" lon="3.97468">
        <ele>84.8</ele>
        <time>2026-08-24T14:34:48Z</time>
      </trkpt>
      <trkpt lat="49.24518" lon="3.97474">
        <ele>85.2</ele>
        <time>2026-08-24T14:34:49Z</time>
      </trkpt>
      <trkpt lat="49.2452" lon="3.97481">
        <ele>85.6</ele>
        <time>2026-08-24T14:34:50Z</time>
      </trkpt>
      <trkpt lat="49.24521" lon="3.97488">
        <ele>85.8</ele>
        <time>2026-08-24T14:34:51Z</time>
      </trkpt>
      <trkpt lat="49.24523" lon="3.97494">
        <ele>86</ele>
        <time>2026-08-24T14:34:52Z</time>
      </trkpt>
      <trkpt lat="49.24524" lon="3.97501">
        <ele>86.2</ele>
        <time>2026-08-24T14:34:53Z</time>
      </trkpt>
      <trkpt lat="49.24526" lon="3.97508">
        <ele>86.2</ele>
        <time>2026-08-24T14:34:54Z</time>
      </trkpt>
      <trkpt lat="49.24527" lon="3.97515">
        <ele>86.4</ele>
        <time>2026-08-24T14:34:55Z</time>
      </trkpt>
      <trkpt lat="49.24529" lon="3.97521">
        <ele>86.4</ele>
        <time>2026-08-24T14:34:56Z</time>
      </trkpt>
      <trkpt lat="49.24531" lon="3.97528">
        <ele>86.6</ele>
        <time>2026-08-24T14:34:57Z</time>
      </trkpt>
      <trkpt lat="49.24532" lon="3.97535">
        <ele>86.6</ele>
        <time>2026-08-24T14:34:58Z</time>
      </trkpt>
      <trkpt lat="49.24534" lon="3.97542">
        <ele>86.6</ele>
        <time>2026-08-24T14:34:59Z</time>
      </trkpt>
      <trkpt lat="49.24535" lon="3.97548">
        <ele>86.8</ele>
        <time>2026-08-24T14:35:00Z</time>
      </trkpt>
      <trkpt lat="49.24537" lon="3.97555">
        <ele>86.8</ele>
        <time>2026-08-24T14:35:01Z</time>
      </trkpt>
      <trkpt lat="49.24538" lon="3.97562">
        <ele>86.8</ele>
        <time>2026-08-24T14:35:02Z</time>
      </trkpt>
      <trkpt lat="49.2454" lon="3.97569">
        <ele>87</ele>
        <time>2026-08-24T14:35:03Z</time>
      </trkpt>
      <trkpt lat="49.24542" lon="3.97575">
        <ele>87.2</ele>
        <time>2026-08-24T14:35:04Z</time>
      </trkpt>
      <trkpt lat="49.24543" lon="3.97582">
        <ele>87.2</ele>
        <time>2026-08-24T14:35:05Z</time>
      </trkpt>
      <trkpt lat="49.24545" lon="3.97589">
        <ele>87.4</ele>
        <time>2026-08-24T14:35:06Z</time>
      </trkpt>
      <trkpt lat="49.24546" lon="3.97596">
        <ele>87.4</ele>
        <time>2026-08-24T14:35:07Z</time>
      </trkpt>
      <trkpt lat="49.24548" lon="3.97603">
        <ele>87.6</ele>
        <time>2026-08-24T14:35:08Z</time>
      </trkpt>
      <trkpt lat="49.24549" lon="3.9761">
        <ele>87.6</ele>
        <time>2026-08-24T14:35:09Z</time>
      </trkpt>
      <trkpt lat="49.24551" lon="3.97617">
        <ele>87.6</ele>
        <time>2026-08-24T14:35:10Z</time>
      </trkpt>
      <trkpt lat="49.24553" lon="3.97625">
        <ele>87.6</ele>
        <time>2026-08-24T14:35:11Z</time>
      </trkpt>
      <trkpt lat="49.24554" lon="3.97632">
        <ele>87.8</ele>
        <time>2026-08-24T14:35:12Z</time>
      </trkpt>
      <trkpt lat="49.24556" lon="3.97639">
        <ele>87.8</ele>
        <time>2026-08-24T14:35:13Z</time>
      </trkpt>
      <trkpt lat="49.24557" lon="3.97646">
        <ele>87.8</ele>
        <time>2026-08-24T14:35:14Z</time>
      </trkpt>
      <trkpt lat="49.24559" lon="3.97654">
        <ele>87.8</ele>
        <time>2026-08-24T14:35:15Z</time>
      </trkpt>
      <trkpt lat="49.2456" lon="3.97661">
        <ele>88</ele>
        <time>2026-08-24T14:35:16Z</time>
      </trkpt>
      <trkpt lat="49.24561" lon="3.97669">
        <ele>88</ele>
        <time>2026-08-24T14:35:17Z</time>
      </trkpt>
      <trkpt lat="49.24562" lon="3.97676">
        <ele>88</ele>
        <time>2026-08-24T14:35:18Z</time>
      </trkpt>
      <trkpt lat="49.24563" lon="3.97684">
        <ele>88</ele>
        <time>2026-08-24T14:35:19Z</time>
      </trkpt>
      <trkpt lat="49.24563" lon="3.97691">
        <ele>88</ele>
        <time>2026-08-24T14:35:20Z</time>
      </trkpt>
      <trkpt lat="49.24563" lon="3.97699">
        <ele>87.8</ele>
        <time>2026-08-24T14:35:21Z</time>
      </trkpt>
      <trkpt lat="49.24564" lon="3.97707">
        <ele>87.8</ele>
        <time>2026-08-24T14:35:22Z</time>
      </trkpt>
      <trkpt lat="49.24564" lon="3.97714">
        <ele>87.8</ele>
        <time>2026-08-24T14:35:23Z</time>
      </trkpt>
      <trkpt lat="49.24564" lon="3.97722">
        <ele>87.8</ele>
        <time>2026-08-24T14:35:24Z</time>
      </trkpt>
      <trkpt lat="49.24564" lon="3.9773">
        <ele>87.6</ele>
        <time>2026-08-24T14:35:25Z</time>
      </trkpt>
      <trkpt lat="49.24564" lon="3.97738">
        <ele>87.6</ele>
        <time>2026-08-24T14:35:26Z</time>
      </trkpt>
      <trkpt lat="49.24563" lon="3.97745">
        <ele>87.6</ele>
        <time>2026-08-24T14:35:27Z</time>
      </trkpt>
      <trkpt lat="49.24563" lon="3.97753">
        <ele>87.6</ele>
        <time>2026-08-24T14:35:28Z</time>
      </trkpt>
      <trkpt lat="49.24563" lon="3.97761">
        <ele>87.6</ele>
        <time>2026-08-24T14:35:29Z</time>
      </trkpt>
      <trkpt lat="49.24563" lon="3.97769">
        <ele>87.4</ele>
        <time>2026-08-24T14:35:30Z</time>
      </trkpt>
      <trkpt lat="49.24563" lon="3.97777">
        <ele>87.4</ele>
        <time>2026-08-24T14:35:31Z</time>
      </trkpt>
      <trkpt lat="49.24563" lon="3.97784">
        <ele>87.4</ele>
        <time>2026-08-24T14:35:32Z</time>
      </trkpt>
      <trkpt lat="49.24563" lon="3.97792">
        <ele>87.4</ele>
        <time>2026-08-24T14:35:33Z</time>
      </trkpt>
      <trkpt lat="49.24563" lon="3.978">
        <ele>87.4</ele>
        <time>2026-08-24T14:35:34Z</time>
      </trkpt>
      <trkpt lat="49.24562" lon="3.97807">
        <ele>87.4</ele>
        <time>2026-08-24T14:35:35Z</time>
      </trkpt>
      <trkpt lat="49.24562" lon="3.97815">
        <ele>87.4</ele>
        <time>2026-08-24T14:35:36Z</time>
      </trkpt>
      <trkpt lat="49.24562" lon="3.97823">
        <ele>87.6</ele>
        <time>2026-08-24T14:35:37Z</time>
      </trkpt>
      <trkpt lat="49.24562" lon="3.9783">
        <ele>87.8</ele>
        <time>2026-08-24T14:35:38Z</time>
      </trkpt>
      <trkpt lat="49.24562" lon="3.97838">
        <ele>88</ele>
        <time>2026-08-24T14:35:39Z</time>
      </trkpt>
      <trkpt lat="49.24562" lon="3.97846">
        <ele>88.2</ele>
        <time>2026-08-24T14:35:40Z</time>
      </trkpt>
      <trkpt lat="49.24562" lon="3.97854">
        <ele>88.2</ele>
        <time>2026-08-24T14:35:41Z</time>
      </trkpt>
      <trkpt lat="49.24562" lon="3.97862">
        <ele>88.2</ele>
        <time>2026-08-24T14:35:42Z</time>
      </trkpt>
      <trkpt lat="49.24562" lon="3.9787">
        <ele>88.4</ele>
        <time>2026-08-24T14:35:43Z</time>
      </trkpt>
      <trkpt lat="49.24563" lon="3.97877">
        <ele>88.4</ele>
        <time>2026-08-24T14:35:44Z</time>
      </trkpt>
      <trkpt lat="49.24564" lon="3.97885">
        <ele>88.4</ele>
        <time>2026-08-24T14:35:45Z</time>
      </trkpt>
      <trkpt lat="49.24565" lon="3.97892">
        <ele>88.6</ele>
        <time>2026-08-24T14:35:46Z</time>
      </trkpt>
      <trkpt lat="49.24566" lon="3.97899">
        <ele>88.8</ele>
        <time>2026-08-24T14:35:47Z</time>
      </trkpt>
      <trkpt lat="49.24567" lon="3.97906">
        <ele>89.2</ele>
        <time>2026-08-24T14:35:48Z</time>
      </trkpt>
      <trkpt lat="49.24569" lon="3.97913">
        <ele>89.4</ele>
        <time>2026-08-24T14:35:49Z</time>
      </trkpt>
      <trkpt lat="49.2457" lon="3.97919">
        <ele>89.8</ele>
        <time>2026-08-24T14:35:50Z</time>
      </trkpt>
      <trkpt lat="49.24572" lon="3.97925">
        <ele>90</ele>
        <time>2026-08-24T14:35:51Z</time>
      </trkpt>
      <trkpt lat="49.24573" lon="3.97931">
        <ele>90.4</ele>
        <time>2026-08-24T14:35:52Z</time>
      </trkpt>
      <trkpt lat="49.24575" lon="3.97936">
        <ele>90.6</ele>
        <time>2026-08-24T14:35:53Z</time>
      </trkpt>
      <trkpt lat="49.24576" lon="3.97941">
        <ele>90.8</ele>
        <time>2026-08-24T14:35:54Z</time>
      </trkpt>
      <trkpt lat="49.24577" lon="3.97945">
        <ele>91</ele>
        <time>2026-08-24T14:35:55Z</time>
      </trkpt>
      <trkpt lat="49.24577" lon="3.97948">
        <ele>91.2</ele>
        <time>2026-08-24T14:35:56Z</time>
      </trkpt>
      <trkpt lat="49.24578" lon="3.9795">
        <ele>91.4</ele>
        <time>2026-08-24T14:35:57Z</time>
      </trkpt>
      <trkpt lat="49.24578" lon="3.97951">
        <ele>91.4</ele>
        <time>2026-08-24T14:35:58Z</time>
      </trkpt>
      <trkpt lat="49.24578" lon="3.97951">
        <ele>91.6</ele>
        <time>2026-08-24T14:35:59Z</time>
      </trkpt>
      <trkpt lat="49.24578" lon="3.9796">
        <ele>91.8</ele>
        <time>2026-08-24T14:36:15Z</time>
      </trkpt>
      <trkpt lat="49.24577" lon="3.97964">
        <ele>91.8</ele>
        <time>2026-08-24T14:36:16Z</time>
      </trkpt>
      <trkpt lat="49.24576" lon="3.9797">
        <ele>91.6</ele>
        <time>2026-08-24T14:36:17Z</time>
      </trkpt>
      <trkpt lat="49.24574" lon="3.97975">
        <ele>91.6</ele>
        <time>2026-08-24T14:36:18Z</time>
      </trkpt>
      <trkpt lat="49.24571" lon="3.9798">
        <ele>91.4</ele>
        <time>2026-08-24T14:36:19Z</time>
      </trkpt>
      <trkpt lat="49.24567" lon="3.97985">
        <ele>91.2</ele>
        <time>2026-08-24T14:36:20Z</time>
      </trkpt>
      <trkpt lat="49.24563" lon="3.9799">
        <ele>91</ele>
        <time>2026-08-24T14:36:21Z</time>
      </trkpt>
      <trkpt lat="49.24559" lon="3.97996">
        <ele>90.8</ele>
        <time>2026-08-24T14:36:22Z</time>
      </trkpt>
      <trkpt lat="49.24555" lon="3.98002">
        <ele>90.6</ele>
        <time>2026-08-24T14:36:23Z</time>
      </trkpt>
      <trkpt lat="49.24551" lon="3.98008">
        <ele>90.4</ele>
        <time>2026-08-24T14:36:24Z</time>
      </trkpt>
      <trkpt lat="49.24547" lon="3.98015">
        <ele>90.2</ele>
        <time>2026-08-24T14:36:25Z</time>
      </trkpt>
      <trkpt lat="49.24543" lon="3.98022">
        <ele>90.2</ele>
        <time>2026-08-24T14:36:26Z</time>
      </trkpt>
      <trkpt lat="49.24539" lon="3.98029">
        <ele>90</ele>
        <time>2026-08-24T14:36:27Z</time>
      </trkpt>
      <trkpt lat="49.24535" lon="3.98037">
        <ele>89.8</ele>
        <time>2026-08-24T14:36:28Z</time>
      </trkpt>
      <trkpt lat="49.24531" lon="3.98044">
        <ele>89.8</ele>
        <time>2026-08-24T14:36:29Z</time>
      </trkpt>
      <trkpt lat="49.24527" lon="3.98052">
        <ele>89.6</ele>
        <time>2026-08-24T14:36:30Z</time>
      </trkpt>
      <trkpt lat="49.24523" lon="3.9806">
        <ele>89.4</ele>
        <time>2026-08-24T14:36:31Z</time>
      </trkpt>
      <trkpt lat="49.24518" lon="3.98068">
        <ele>89.4</ele>
        <time>2026-08-24T14:36:32Z</time>
      </trkpt>
      <trkpt lat="49.24514" lon="3.98076">
        <ele>89.2</ele>
        <time>2026-08-24T14:36:33Z</time>
      </trkpt>
      <trkpt lat="49.2451" lon="3.98085">
        <ele>89.2</ele>
        <time>2026-08-24T14:36:34Z</time>
      </trkpt>
      <trkpt lat="49.24506" lon="3.98093">
        <ele>89</ele>
        <time>2026-08-24T14:36:35Z</time>
      </trkpt>
      <trkpt lat="49.24502" lon="3.98102">
        <ele>88.8</ele>
        <time>2026-08-24T14:36:36Z</time>
      </trkpt>
      <trkpt lat="49.24498" lon="3.98112">
        <ele>88.8</ele>
        <time>2026-08-24T14:36:37Z</time>
      </trkpt>
      <trkpt lat="49.24495" lon="3.98121">
        <ele>88.6</ele>
        <time>2026-08-24T14:36:38Z</time>
      </trkpt>
      <trkpt lat="49.24491" lon="3.98131">
        <ele>88.6</ele>
        <time>2026-08-24T14:36:39Z</time>
      </trkpt>
      <trkpt lat="49.24488" lon="3.9814">
        <ele>88.4</ele>
        <time>2026-08-24T14:36:40Z</time>
      </trkpt>
      <trkpt lat="49.24484" lon="3.98151">
        <ele>88.4</ele>
        <time>2026-08-24T14:36:41Z</time>
      </trkpt>
      <trkpt lat="49.24481" lon="3.98161">
        <ele>88.2</ele>
        <time>2026-08-24T14:36:42Z</time>
      </trkpt>
      <trkpt lat="49.24478" lon="3.98172">
        <ele>88</ele>
        <time>2026-08-24T14:36:43Z</time>
      </trkpt>
      <trkpt lat="49.24475" lon="3.98183">
        <ele>87.8</ele>
        <time>2026-08-24T14:36:44Z</time>
      </trkpt>
      <trkpt lat="49.24473" lon="3.98194">
        <ele>87.4</ele>
        <time>2026-08-24T14:36:45Z</time>
      </trkpt>
      <trkpt lat="49.2447" lon="3.98205">
        <ele>87.2</ele>
        <time>2026-08-24T14:36:46Z</time>
      </trkpt>
      <trkpt lat="49.24468" lon="3.98216">
        <ele>87</ele>
        <time>2026-08-24T14:36:47Z</time>
      </trkpt>
      <trkpt lat="49.24466" lon="3.98227">
        <ele>86.8</ele>
        <time>2026-08-24T14:36:48Z</time>
      </trkpt>
      <trkpt lat="49.24465" lon="3.98238">
        <ele>86.8</ele>
        <time>2026-08-24T14:36:49Z</time>
      </trkpt>
      <trkpt lat="49.24463" lon="3.98249">
        <ele>86.8</ele>
        <time>2026-08-24T14:36:50Z</time>
      </trkpt>
      <trkpt lat="49.24462" lon="3.9826">
        <ele>86.8</ele>
        <time>2026-08-24T14:36:51Z</time>
      </trkpt>
      <trkpt lat="49.24461" lon="3.98271">
        <ele>87</ele>
        <time>2026-08-24T14:36:52Z</time>
      </trkpt>
      <trkpt lat="49.2446" lon="3.98282">
        <ele>87.2</ele>
        <time>2026-08-24T14:36:53Z</time>
      </trkpt>
      <trkpt lat="49.24459" lon="3.98292">
        <ele>87.4</ele>
        <time>2026-08-24T14:36:54Z</time>
      </trkpt>
      <trkpt lat="49.24459" lon="3.98303">
        <ele>87.6</ele>
        <time>2026-08-24T14:36:55Z</time>
      </trkpt>
      <trkpt lat="49.24458" lon="3.98313">
        <ele>87.8</ele>
        <time>2026-08-24T14:36:56Z</time>
      </trkpt>
      <trkpt lat="49.24458" lon="3.98323">
        <ele>88</ele>
        <time>2026-08-24T14:36:57Z</time>
      </trkpt>
      <trkpt lat="49.24458" lon="3.98332">
        <ele>88.2</ele>
        <time>2026-08-24T14:36:58Z</time>
      </trkpt>
      <trkpt lat="49.24458" lon="3.98342">
        <ele>88.4</ele>
        <time>2026-08-24T14:36:59Z</time>
      </trkpt>
      <trkpt lat="49.24458" lon="3.98351">
        <ele>88.6</ele>
        <time>2026-08-24T14:37:00Z</time>
      </trkpt>
      <trkpt lat="49.24459" lon="3.98361">
        <ele>89</ele>
        <time>2026-08-24T14:37:01Z</time>
      </trkpt>
      <trkpt lat="49.24459" lon="3.9837">
        <ele>89.2</ele>
        <time>2026-08-24T14:37:02Z</time>
      </trkpt>
      <trkpt lat="49.2446" lon="3.9838">
        <ele>89.4</ele>
        <time>2026-08-24T14:37:03Z</time>
      </trkpt>
      <trkpt lat="49.2446" lon="3.98389">
        <ele>89.4</ele>
        <time>2026-08-24T14:37:04Z</time>
      </trkpt>
      <trkpt lat="49.24461" lon="3.98398">
        <ele>89.6</ele>
        <time>2026-08-24T14:37:05Z</time>
      </trkpt>
      <trkpt lat="49.24462" lon="3.98407">
        <ele>90</ele>
        <time>2026-08-24T14:37:06Z</time>
      </trkpt>
      <trkpt lat="49.24463" lon="3.98417">
        <ele>90.2</ele>
        <time>2026-08-24T14:37:07Z</time>
      </trkpt>
      <trkpt lat="49.24465" lon="3.98425">
        <ele>90.4</ele>
        <time>2026-08-24T14:37:08Z</time>
      </trkpt>
      <trkpt lat="49.24466" lon="3.98434">
        <ele>90.8</ele>
        <time>2026-08-24T14:37:09Z</time>
      </trkpt>
      <trkpt lat="49.24467" lon="3.98443">
        <ele>91</ele>
        <time>2026-08-24T14:37:10Z</time>
      </trkpt>
      <trkpt lat="49.24469" lon="3.98452">
        <ele>91.2</ele>
        <time>2026-08-24T14:37:11Z</time>
      </trkpt>
      <trkpt lat="49.24471" lon="3.98461">
        <ele>91.4</ele>
        <time>2026-08-24T14:37:12Z</time>
      </trkpt>
      <trkpt lat="49.24472" lon="3.98469">
        <ele>91.6</ele>
        <time>2026-08-24T14:37:13Z</time>
      </trkpt>
      <trkpt lat="49.24474" lon="3.98478">
        <ele>91.8</ele>
        <time>2026-08-24T14:37:14Z</time>
      </trkpt>
      <trkpt lat="49.24476" lon="3.98486">
        <ele>92</ele>
        <time>2026-08-24T14:37:15Z</time>
      </trkpt>
      <trkpt lat="49.24478" lon="3.98495">
        <ele>92.2</ele>
        <time>2026-08-24T14:37:16Z</time>
      </trkpt>
      <trkpt lat="49.2448" lon="3.98503">
        <ele>92.2</ele>
        <time>2026-08-24T14:37:17Z</time>
      </trkpt>
      <trkpt lat="49.24482" lon="3.98511">
        <ele>92.4</ele>
        <time>2026-08-24T14:37:18Z</time>
      </trkpt>
      <trkpt lat="49.24485" lon="3.98519">
        <ele>92.2</ele>
        <time>2026-08-24T14:37:19Z</time>
      </trkpt>
      <trkpt lat="49.24487" lon="3.98527">
        <ele>92.4</ele>
        <time>2026-08-24T14:37:20Z</time>
      </trkpt>
      <trkpt lat="49.24489" lon="3.98535">
        <ele>92.4</ele>
        <time>2026-08-24T14:37:21Z</time>
      </trkpt>
      <trkpt lat="49.24489" lon="3.98543">
        <ele>92.4</ele>
        <time>2026-08-24T14:37:22Z</time>
      </trkpt>
      <trkpt lat="49.24489" lon="3.98552">
        <ele>92.6</ele>
        <time>2026-08-24T14:37:23Z</time>
      </trkpt>
      <trkpt lat="49.24488" lon="3.9856">
        <ele>92.8</ele>
        <time>2026-08-24T14:37:24Z</time>
      </trkpt>
      <trkpt lat="49.24486" lon="3.98568">
        <ele>92.8</ele>
        <time>2026-08-24T14:37:25Z</time>
      </trkpt>
      <trkpt lat="49.24484" lon="3.98576">
        <ele>93</ele>
        <time>2026-08-24T14:37:26Z</time>
      </trkpt>
      <trkpt lat="49.2448" lon="3.98583">
        <ele>93</ele>
        <time>2026-08-24T14:37:27Z</time>
      </trkpt>
      <trkpt lat="49.24477" lon="3.9859">
        <ele>93.2</ele>
        <time>2026-08-24T14:37:28Z</time>
      </trkpt>
      <trkpt lat="49.24473" lon="3.98597">
        <ele>93.2</ele>
        <time>2026-08-24T14:37:29Z</time>
      </trkpt>
      <trkpt lat="49.24469" lon="3.98605">
        <ele>93.2</ele>
        <time>2026-08-24T14:37:30Z</time>
      </trkpt>
      <trkpt lat="49.24465" lon="3.98612">
        <ele>93.2</ele>
        <time>2026-08-24T14:37:31Z</time>
      </trkpt>
      <trkpt lat="49.24461" lon="3.98619">
        <ele>93.2</ele>
        <time>2026-08-24T14:37:32Z</time>
      </trkpt>
      <trkpt lat="49.24457" lon="3.98626">
        <ele>93.2</ele>
        <time>2026-08-24T14:37:33Z</time>
      </trkpt>
      <trkpt lat="49.24454" lon="3.98634">
        <ele>93.2</ele>
        <time>2026-08-24T14:37:34Z</time>
      </trkpt>
      <trkpt lat="49.2445" lon="3.98641">
        <ele>93</ele>
        <time>2026-08-24T14:37:35Z</time>
      </trkpt>
      <trkpt lat="49.24446" lon="3.98647">
        <ele>93</ele>
        <time>2026-08-24T14:37:36Z</time>
      </trkpt>
      <trkpt lat="49.24443" lon="3.98654">
        <ele>93</ele>
        <time>2026-08-24T14:37:37Z</time>
      </trkpt>
      <trkpt lat="49.24439" lon="3.98661">
        <ele>93</ele>
        <time>2026-08-24T14:37:38Z</time>
      </trkpt>
      <trkpt lat="49.24436" lon="3.98668">
        <ele>93.2</ele>
        <time>2026-08-24T14:37:39Z</time>
      </trkpt>
      <trkpt lat="49.24432" lon="3.98675">
        <ele>93.4</ele>
        <time>2026-08-24T14:37:40Z</time>
      </trkpt>
      <trkpt lat="49.24429" lon="3.98682">
        <ele>93.6</ele>
        <time>2026-08-24T14:37:41Z</time>
      </trkpt>
      <trkpt lat="49.24425" lon="3.98689">
        <ele>93.8</ele>
        <time>2026-08-24T14:37:42Z</time>
      </trkpt>
      <trkpt lat="49.24421" lon="3.98695">
        <ele>94</ele>
        <time>2026-08-24T14:37:43Z</time>
      </trkpt>
      <trkpt lat="49.24417" lon="3.98702">
        <ele>94.2</ele>
        <time>2026-08-24T14:37:44Z</time>
      </trkpt>
      <trkpt lat="49.24414" lon="3.98709">
        <ele>94.4</ele>
        <time>2026-08-24T14:37:45Z</time>
      </trkpt>
      <trkpt lat="49.2441" lon="3.98716">
        <ele>94.6</ele>
        <time>2026-08-24T14:37:46Z</time>
      </trkpt>
      <trkpt lat="49.24406" lon="3.98723">
        <ele>94.8</ele>
        <time>2026-08-24T14:37:47Z</time>
      </trkpt>
      <trkpt lat="49.24403" lon="3.9873">
        <ele>95</ele>
        <time>2026-08-24T14:37:48Z</time>
      </trkpt>
      <trkpt lat="49.24399" lon="3.98737">
        <ele>95</ele>
        <time>2026-08-24T14:37:49Z</time>
      </trkpt>
      <trkpt lat="49.24395" lon="3.98744">
        <ele>95</ele>
        <time>2026-08-24T14:37:50Z</time>
      </trkpt>
      <trkpt lat="49.24392" lon="3.98751">
        <ele>95.2</ele>
        <time>2026-08-24T14:37:51Z</time>
      </trkpt>
      <trkpt lat="49.24388" lon="3.98758">
        <ele>95.2</ele>
        <time>2026-08-24T14:37:52Z</time>
      </trkpt>
      <trkpt lat="49.24384" lon="3.98765">
        <ele>95.2</ele>
        <time>2026-08-24T14:37:53Z</time>
      </trkpt>
      <trkpt lat="49.2438" lon="3.98772">
        <ele>95.2</ele>
        <time>2026-08-24T14:37:54Z</time>
      </trkpt>
      <trkpt lat="49.24377" lon="3.9878">
        <ele>95.2</ele>
        <time>2026-08-24T14:37:55Z</time>
      </trkpt>
      <trkpt lat="49.24373" lon="3.98787">
        <ele>95.2</ele>
        <time>2026-08-24T14:37:56Z</time>
      </trkpt>
      <trkpt lat="49.24369" lon="3.98794">
        <ele>95.4</ele>
        <time>2026-08-24T14:37:57Z</time>
      </trkpt>
      <trkpt lat="49.24366" lon="3.98801">
        <ele>95.4</ele>
        <time>2026-08-24T14:37:58Z</time>
      </trkpt>
      <trkpt lat="49.24362" lon="3.98808">
        <ele>95.6</ele>
        <time>2026-08-24T14:37:59Z</time>
      </trkpt>
      <trkpt lat="49.24358" lon="3.98816">
        <ele>95.8</ele>
        <time>2026-08-24T14:38:00Z</time>
      </trkpt>
      <trkpt lat="49.24354" lon="3.98823">
        <ele>95.8</ele>
        <time>2026-08-24T14:38:01Z</time>
      </trkpt>
      <trkpt lat="49.24351" lon="3.9883">
        <ele>96</ele>
        <time>2026-08-24T14:38:02Z</time>
      </trkpt>
      <trkpt lat="49.24347" lon="3.98837">
        <ele>96.2</ele>
        <time>2026-08-24T14:38:03Z</time>
      </trkpt>
      <trkpt lat="49.24343" lon="3.98845">
        <ele>96.4</ele>
        <time>2026-08-24T14:38:04Z</time>
      </trkpt>
      <trkpt lat="49.24339" lon="3.98852">
        <ele>96.6</ele>
        <time>2026-08-24T14:38:05Z</time>
      </trkpt>
      <trkpt lat="49.24335" lon="3.9886">
        <ele>96.6</ele>
        <time>2026-08-24T14:38:06Z</time>
      </trkpt>
      <trkpt lat="49.24331" lon="3.98867">
        <ele>96.6</ele>
        <time>2026-08-24T14:38:07Z</time>
      </trkpt>
      <trkpt lat="49.24327" lon="3.98875">
        <ele>96.4</ele>
        <time>2026-08-24T14:38:08Z</time>
      </trkpt>
      <trkpt lat="49.24323" lon="3.98883">
        <ele>96.4</ele>
        <time>2026-08-24T14:38:09Z</time>
      </trkpt>
      <trkpt lat="49.24319" lon="3.98891">
        <ele>96.2</ele>
        <time>2026-08-24T14:38:10Z</time>
      </trkpt>
      <trkpt lat="49.24314" lon="3.98899">
        <ele>96</ele>
        <time>2026-08-24T14:38:11Z</time>
      </trkpt>
      <trkpt lat="49.2431" lon="3.98907">
        <ele>96</ele>
        <time>2026-08-24T14:38:12Z</time>
      </trkpt>
      <trkpt lat="49.24306" lon="3.98915">
        <ele>96</ele>
        <time>2026-08-24T14:38:13Z</time>
      </trkpt>
      <trkpt lat="49.24302" lon="3.98924">
        <ele>95.8</ele>
        <time>2026-08-24T14:38:14Z</time>
      </trkpt>
      <trkpt lat="49.24297" lon="3.98932">
        <ele>95.8</ele>
        <time>2026-08-24T14:38:15Z</time>
      </trkpt>
      <trkpt lat="49.24293" lon="3.9894">
        <ele>95.6</ele>
        <time>2026-08-24T14:38:16Z</time>
      </trkpt>
      <trkpt lat="49.24289" lon="3.98948">
        <ele>95.4</ele>
        <time>2026-08-24T14:38:17Z</time>
      </trkpt>
      <trkpt lat="49.24285" lon="3.98957">
        <ele>95.4</ele>
        <time>2026-08-24T14:38:18Z</time>
      </trkpt>
      <trkpt lat="49.24281" lon="3.98965">
        <ele>95.4</ele>
        <time>2026-08-24T14:38:19Z</time>
      </trkpt>
      <trkpt lat="49.24276" lon="3.98973">
        <ele>95.2</ele>
        <time>2026-08-24T14:38:20Z</time>
      </trkpt>
      <trkpt lat="49.24272" lon="3.98982">
        <ele>95</ele>
        <time>2026-08-24T14:38:21Z</time>
      </trkpt>
      <trkpt lat="49.24268" lon="3.98991">
        <ele>94.8</ele>
        <time>2026-08-24T14:38:22Z</time>
      </trkpt>
      <trkpt lat="49.24263" lon="3.99001">
        <ele>94.6</ele>
        <time>2026-08-24T14:38:23Z</time>
      </trkpt>
      <trkpt lat="49.24259" lon="3.99012">
        <ele>94.4</ele>
        <time>2026-08-24T14:38:24Z</time>
      </trkpt>
      <trkpt lat="49.24255" lon="3.99022">
        <ele>94</ele>
        <time>2026-08-24T14:38:25Z</time>
      </trkpt>
      <trkpt lat="49.24251" lon="3.99033">
        <ele>93.8</ele>
        <time>2026-08-24T14:38:26Z</time>
      </trkpt>
      <trkpt lat="49.24248" lon="3.99044">
        <ele>93.4</ele>
        <time>2026-08-24T14:38:27Z</time>
      </trkpt>
      <trkpt lat="49.24244" lon="3.99055">
        <ele>93.2</ele>
        <time>2026-08-24T14:38:28Z</time>
      </trkpt>
      <trkpt lat="49.2424" lon="3.99066">
        <ele>93</ele>
        <time>2026-08-24T14:38:29Z</time>
      </trkpt>
      <trkpt lat="49.24236" lon="3.99077">
        <ele>92.8</ele>
        <time>2026-08-24T14:38:30Z</time>
      </trkpt>
      <trkpt lat="49.24233" lon="3.99089">
        <ele>92.6</ele>
        <time>2026-08-24T14:38:31Z</time>
      </trkpt>
      <trkpt lat="49.24229" lon="3.991">
        <ele>92.4</ele>
        <time>2026-08-24T14:38:32Z</time>
      </trkpt>
      <trkpt lat="49.24225" lon="3.99111">
        <ele>92.2</ele>
        <time>2026-08-24T14:38:33Z</time>
      </trkpt>
      <trkpt lat="49.24222" lon="3.99122">
        <ele>91.8</ele>
        <time>2026-08-24T14:38:34Z</time>
      </trkpt>
      <trkpt lat="49.24218" lon="3.99132">
        <ele>91.4</ele>
        <time>2026-08-24T14:38:35Z</time>
      </trkpt>
      <trkpt lat="49.24214" lon="3.99141">
        <ele>91.2</ele>
        <time>2026-08-24T14:38:36Z</time>
      </trkpt>
      <trkpt lat="49.2421" lon="3.99151">
        <ele>90.8</ele>
        <time>2026-08-24T14:38:37Z</time>
      </trkpt>
      <trkpt lat="49.24205" lon="3.99159">
        <ele>90.4</ele>
        <time>2026-08-24T14:38:38Z</time>
      </trkpt>
      <trkpt lat="49.24202" lon="3.99166">
        <ele>90.2</ele>
        <time>2026-08-24T14:38:39Z</time>
      </trkpt>
      <trkpt lat="49.24199" lon="3.99171">
        <ele>90.2</ele>
        <time>2026-08-24T14:38:40Z</time>
      </trkpt>
      <trkpt lat="49.24197" lon="3.99174">
        <ele>90</ele>
        <time>2026-08-24T14:38:41Z</time>
      </trkpt>
      <trkpt lat="49.24194" lon="3.99176">
        <ele>90.2</ele>
        <time>2026-08-24T14:38:42Z</time>
      </trkpt>
      <trkpt lat="49.24191" lon="3.99178">
        <ele>90.2</ele>
        <time>2026-08-24T14:38:43Z</time>
      </trkpt>
      <trkpt lat="49.24188" lon="3.99179">
        <ele>90.6</ele>
        <time>2026-08-24T14:38:44Z</time>
      </trkpt>
      <trkpt lat="49.24184" lon="3.9918">
        <ele>90.6</ele>
        <time>2026-08-24T14:38:45Z</time>
      </trkpt>
      <trkpt lat="49.2418" lon="3.99181">
        <ele>90.8</ele>
        <time>2026-08-24T14:38:46Z</time>
      </trkpt>
      <trkpt lat="49.24176" lon="3.99183">
        <ele>90.8</ele>
        <time>2026-08-24T14:38:47Z</time>
      </trkpt>
      <trkpt lat="49.24172" lon="3.99186">
        <ele>90.8</ele>
        <time>2026-08-24T14:38:48Z</time>
      </trkpt>
      <trkpt lat="49.24168" lon="3.9919">
        <ele>90.8</ele>
        <time>2026-08-24T14:38:49Z</time>
      </trkpt>
      <trkpt lat="49.24166" lon="3.99197">
        <ele>90.8</ele>
        <time>2026-08-24T14:38:50Z</time>
      </trkpt>
      <trkpt lat="49.24164" lon="3.99205">
        <ele>90.8</ele>
        <time>2026-08-24T14:38:51Z</time>
      </trkpt>
      <trkpt lat="49.24165" lon="3.99213">
        <ele>90.6</ele>
        <time>2026-08-24T14:38:52Z</time>
      </trkpt>
      <trkpt lat="49.24167" lon="3.99222">
        <ele>90.6</ele>
        <time>2026-08-24T14:38:53Z</time>
      </trkpt>
      <trkpt lat="49.2417" lon="3.9923">
        <ele>90.6</ele>
        <time>2026-08-24T14:38:54Z</time>
      </trkpt>
      <trkpt lat="49.24175" lon="3.99238">
        <ele>90.4</ele>
        <time>2026-08-24T14:38:55Z</time>
      </trkpt>
      <trkpt lat="49.2418" lon="3.99245">
        <ele>90.2</ele>
        <time>2026-08-24T14:38:56Z</time>
      </trkpt>
      <trkpt lat="49.24185" lon="3.99253">
        <ele>90</ele>
        <time>2026-08-24T14:38:57Z</time>
      </trkpt>
      <trkpt lat="49.2419" lon="3.9926">
        <ele>89.8</ele>
        <time>2026-08-24T14:38:58Z</time>
      </trkpt>
      <trkpt lat="49.24195" lon="3.99268">
        <ele>89.6</ele>
        <time>2026-08-24T14:38:59Z</time>
      </trkpt>
      <trkpt lat="49.24201" lon="3.99275">
        <ele>89.6</ele>
        <time>2026-08-24T14:39:00Z</time>
      </trkpt>
      <trkpt lat="49.24207" lon="3.99283">
        <ele>89.4</ele>
        <time>2026-08-24T14:39:01Z</time>
      </trkpt>
      <trkpt lat="49.24213" lon="3.99291">
        <ele>89.4</ele>
        <time>2026-08-24T14:39:02Z</time>
      </trkpt>
      <trkpt lat="49.24219" lon="3.99299">
        <ele>89.4</ele>
        <time>2026-08-24T14:39:03Z</time>
      </trkpt>
      <trkpt lat="49.24225" lon="3.99307">
        <ele>89.2</ele>
        <time>2026-08-24T14:39:04Z</time>
      </trkpt>
      <trkpt lat="49.24231" lon="3.99314">
        <ele>89</ele>
        <time>2026-08-24T14:39:05Z</time>
      </trkpt>
      <trkpt lat="49.24238" lon="3.99322">
        <ele>88.8</ele>
        <time>2026-08-24T14:39:06Z</time>
      </trkpt>
      <trkpt lat="49.24244" lon="3.9933">
        <ele>88.4</ele>
        <time>2026-08-24T14:39:07Z</time>
      </trkpt>
      <trkpt lat="49.24251" lon="3.99338">
        <ele>88.2</ele>
        <time>2026-08-24T14:39:08Z</time>
      </trkpt>
      <trkpt lat="49.24257" lon="3.99346">
        <ele>88.2</ele>
        <time>2026-08-24T14:39:09Z</time>
      </trkpt>
      <trkpt lat="49.24263" lon="3.99354">
        <ele>87.8</ele>
        <time>2026-08-24T14:39:10Z</time>
      </trkpt>
      <trkpt lat="49.24269" lon="3.99362">
        <ele>87.8</ele>
        <time>2026-08-24T14:39:11Z</time>
      </trkpt>
      <trkpt lat="49.24274" lon="3.99369">
        <ele>87.8</ele>
        <time>2026-08-24T14:39:12Z</time>
      </trkpt>
      <trkpt lat="49.2428" lon="3.99377">
        <ele>87.6</ele>
        <time>2026-08-24T14:39:13Z</time>
      </trkpt>
      <trkpt lat="49.24287" lon="3.99385">
        <ele>87.4</ele>
        <time>2026-08-24T14:39:14Z</time>
      </trkpt>
      <trkpt lat="49.24293" lon="3.99393">
        <ele>87.4</ele>
        <time>2026-08-24T14:39:15Z</time>
      </trkpt>
      <trkpt lat="49.24299" lon="3.99401">
        <ele>87.2</ele>
        <time>2026-08-24T14:39:16Z</time>
      </trkpt>
      <trkpt lat="49.24306" lon="3.99409">
        <ele>87.2</ele>
        <time>2026-08-24T14:39:17Z</time>
      </trkpt>
      <trkpt lat="49.24312" lon="3.99417">
        <ele>87</ele>
        <time>2026-08-24T14:39:18Z</time>
      </trkpt>
      <trkpt lat="49.24318" lon="3.99425">
        <ele>86.8</ele>
        <time>2026-08-24T14:39:19Z</time>
      </trkpt>
      <trkpt lat="49.24325" lon="3.99433">
        <ele>86.6</ele>
        <time>2026-08-24T14:39:20Z</time>
      </trkpt>
      <trkpt lat="49.24331" lon="3.99441">
        <ele>86.4</ele>
        <time>2026-08-24T14:39:21Z</time>
      </trkpt>
      <trkpt lat="49.24337" lon="3.9945">
        <ele>86.2</ele>
        <time>2026-08-24T14:39:22Z</time>
      </trkpt>
      <trkpt lat="49.24344" lon="3.99458">
        <ele>86.2</ele>
        <time>2026-08-24T14:39:23Z</time>
      </trkpt>
      <trkpt lat="49.2435" lon="3.99466">
        <ele>86.2</ele>
        <time>2026-08-24T14:39:24Z</time>
      </trkpt>
      <trkpt lat="49.24356" lon="3.99474">
        <ele>86.2</ele>
        <time>2026-08-24T14:39:25Z</time>
      </trkpt>
      <trkpt lat="49.24362" lon="3.99481">
        <ele>86</ele>
        <time>2026-08-24T14:39:26Z</time>
      </trkpt>
      <trkpt lat="49.24368" lon="3.99489">
        <ele>86</ele>
        <time>2026-08-24T14:39:27Z</time>
      </trkpt>
      <trkpt lat="49.24374" lon="3.99497">
        <ele>85.8</ele>
        <time>2026-08-24T14:39:28Z</time>
      </trkpt>
      <trkpt lat="49.2438" lon="3.99504">
        <ele>85.6</ele>
        <time>2026-08-24T14:39:29Z</time>
      </trkpt>
      <trkpt lat="49.24386" lon="3.99511">
        <ele>85.6</ele>
        <time>2026-08-24T14:39:30Z</time>
      </trkpt>
      <trkpt lat="49.24392" lon="3.99519">
        <ele>85.6</ele>
        <time>2026-08-24T14:39:31Z</time>
      </trkpt>
      <trkpt lat="49.24398" lon="3.99526">
        <ele>85.4</ele>
        <time>2026-08-24T14:39:32Z</time>
      </trkpt>
      <trkpt lat="49.24403" lon="3.99533">
        <ele>85.4</ele>
        <time>2026-08-24T14:39:33Z</time>
      </trkpt>
      <trkpt lat="49.24409" lon="3.99541">
        <ele>85.4</ele>
        <time>2026-08-24T14:39:34Z</time>
      </trkpt>
      <trkpt lat="49.24415" lon="3.99548">
        <ele>85.4</ele>
        <time>2026-08-24T14:39:35Z</time>
      </trkpt>
      <trkpt lat="49.24421" lon="3.99556">
        <ele>85.6</ele>
        <time>2026-08-24T14:39:36Z</time>
      </trkpt>
      <trkpt lat="49.24426" lon="3.99563">
        <ele>85.8</ele>
        <time>2026-08-24T14:39:37Z</time>
      </trkpt>
      <trkpt lat="49.24432" lon="3.9957">
        <ele>86</ele>
        <time>2026-08-24T14:39:38Z</time>
      </trkpt>
      <trkpt lat="49.24438" lon="3.99578">
        <ele>85.8</ele>
        <time>2026-08-24T14:39:39Z</time>
      </trkpt>
      <trkpt lat="49.24444" lon="3.99585">
        <ele>85.8</ele>
        <time>2026-08-24T14:39:40Z</time>
      </trkpt>
      <trkpt lat="49.2445" lon="3.99593">
        <ele>85.6</ele>
        <time>2026-08-24T14:39:41Z</time>
      </trkpt>
      <trkpt lat="49.24456" lon="3.996">
        <ele>85.6</ele>
        <time>2026-08-24T14:39:42Z</time>
      </trkpt>
      <trkpt lat="49.24461" lon="3.99607">
        <ele>85.4</ele>
        <time>2026-08-24T14:39:43Z</time>
      </trkpt>
      <trkpt lat="49.24467" lon="3.99614">
        <ele>85.4</ele>
        <time>2026-08-24T14:39:44Z</time>
      </trkpt>
      <trkpt lat="49.24472" lon="3.99621">
        <ele>85.4</ele>
        <time>2026-08-24T14:39:45Z</time>
      </trkpt>
      <trkpt lat="49.24478" lon="3.99628">
        <ele>85.6</ele>
        <time>2026-08-24T14:39:46Z</time>
      </trkpt>
      <trkpt lat="49.24483" lon="3.99635">
        <ele>85.6</ele>
        <time>2026-08-24T14:39:47Z</time>
      </trkpt>
      <trkpt lat="49.24489" lon="3.99642">
        <ele>85.6</ele>
        <time>2026-08-24T14:39:48Z</time>
      </trkpt>
      <trkpt lat="49.24494" lon="3.99649">
        <ele>85.6</ele>
        <time>2026-08-24T14:39:49Z</time>
      </trkpt>
      <trkpt lat="49.245" lon="3.99656">
        <ele>85.6</ele>
        <time>2026-08-24T14:39:50Z</time>
      </trkpt>
      <trkpt lat="49.24505" lon="3.99663">
        <ele>85.6</ele>
        <time>2026-08-24T14:39:51Z</time>
      </trkpt>
      <trkpt lat="49.24511" lon="3.99671">
        <ele>85.6</ele>
        <time>2026-08-24T14:39:52Z</time>
      </trkpt>
      <trkpt lat="49.24516" lon="3.99678">
        <ele>85.4</ele>
        <time>2026-08-24T14:39:53Z</time>
      </trkpt>
      <trkpt lat="49.24522" lon="3.99685">
        <ele>85.4</ele>
        <time>2026-08-24T14:39:54Z</time>
      </trkpt>
      <trkpt lat="49.24528" lon="3.99692">
        <ele>85.4</ele>
        <time>2026-08-24T14:39:55Z</time>
      </trkpt>
      <trkpt lat="49.24534" lon="3.99699">
        <ele>84.8</ele>
        <time>2026-08-24T14:39:56Z</time>
      </trkpt>
      <trkpt lat="49.24539" lon="3.99706">
        <ele>84.4</ele>
        <time>2026-08-24T14:39:57Z</time>
      </trkpt>
      <trkpt lat="49.24545" lon="3.99714">
        <ele>84.2</ele>
        <time>2026-08-24T14:39:58Z</time>
      </trkpt>
      <trkpt lat="49.24551" lon="3.99721">
        <ele>83.8</ele>
        <time>2026-08-24T14:39:59Z</time>
      </trkpt>
      <trkpt lat="49.24556" lon="3.99729">
        <ele>83.6</ele>
        <time>2026-08-24T14:40:00Z</time>
      </trkpt>
      <trkpt lat="49.24562" lon="3.99736">
        <ele>83.4</ele>
        <time>2026-08-24T14:40:01Z</time>
      </trkpt>
      <trkpt lat="49.24568" lon="3.99744">
        <ele>83.4</ele>
        <time>2026-08-24T14:40:02Z</time>
      </trkpt>
      <trkpt lat="49.24574" lon="3.99752">
        <ele>83.2</ele>
        <time>2026-08-24T14:40:03Z</time>
      </trkpt>
      <trkpt lat="49.2458" lon="3.99759">
        <ele>83</ele>
        <time>2026-08-24T14:40:04Z</time>
      </trkpt>
      <trkpt lat="49.24586" lon="3.99767">
        <ele>82.6</ele>
        <time>2026-08-24T14:40:05Z</time>
      </trkpt>
      <trkpt lat="49.24592" lon="3.99774">
        <ele>82.4</ele>
        <time>2026-08-24T14:40:06Z</time>
      </trkpt>
      <trkpt lat="49.24598" lon="3.99782">
        <ele>82</ele>
        <time>2026-08-24T14:40:07Z</time>
      </trkpt>
      <trkpt lat="49.24604" lon="3.9979">
        <ele>81.6</ele>
        <time>2026-08-24T14:40:08Z</time>
      </trkpt>
      <trkpt lat="49.2461" lon="3.99797">
        <ele>81.2</ele>
        <time>2026-08-24T14:40:09Z</time>
      </trkpt>
      <trkpt lat="49.24616" lon="3.99805">
        <ele>81</ele>
        <time>2026-08-24T14:40:10Z</time>
      </trkpt>
      <trkpt lat="49.24622" lon="3.99812">
        <ele>80.8</ele>
        <time>2026-08-24T14:40:11Z</time>
      </trkpt>
      <trkpt lat="49.24628" lon="3.99819">
        <ele>80.6</ele>
        <time>2026-08-24T14:40:12Z</time>
      </trkpt>
      <trkpt lat="49.24633" lon="3.99827">
        <ele>80.6</ele>
        <time>2026-08-24T14:40:13Z</time>
      </trkpt>
      <trkpt lat="49.24639" lon="3.99834">
        <ele>80.6</ele>
        <time>2026-08-24T14:40:14Z</time>
      </trkpt>
      <trkpt lat="49.24645" lon="3.99842">
        <ele>80.8</ele>
        <time>2026-08-24T14:40:15Z</time>
      </trkpt>
      <trkpt lat="49.2465" lon="3.99849">
        <ele>80.6</ele>
        <time>2026-08-24T14:40:16Z</time>
      </trkpt>
      <trkpt lat="49.24656" lon="3.99856">
        <ele>80.4</ele>
        <time>2026-08-24T14:40:17Z</time>
      </trkpt>
      <trkpt lat="49.24661" lon="3.99863">
        <ele>80.4</ele>
        <time>2026-08-24T14:40:18Z</time>
      </trkpt>
      <trkpt lat="49.24667" lon="3.9987">
        <ele>80.4</ele>
        <time>2026-08-24T14:40:19Z</time>
      </trkpt>
      <trkpt lat="49.24672" lon="3.99877">
        <ele>80.2</ele>
        <time>2026-08-24T14:40:20Z</time>
      </trkpt>
      <trkpt lat="49.24677" lon="3.99884">
        <ele>80.2</ele>
        <time>2026-08-24T14:40:21Z</time>
      </trkpt>
      <trkpt lat="49.24683" lon="3.99892">
        <ele>80.2</ele>
        <time>2026-08-24T14:40:22Z</time>
      </trkpt>
      <trkpt lat="49.24688" lon="3.999">
        <ele>80</ele>
        <time>2026-08-24T14:40:23Z</time>
      </trkpt>
      <trkpt lat="49.24693" lon="3.99908">
        <ele>79.8</ele>
        <time>2026-08-24T14:40:24Z</time>
      </trkpt>
      <trkpt lat="49.24697" lon="3.99916">
        <ele>79.6</ele>
        <time>2026-08-24T14:40:25Z</time>
      </trkpt>
      <trkpt lat="49.24701" lon="3.99924">
        <ele>79.2</ele>
        <time>2026-08-24T14:40:26Z</time>
      </trkpt>
      <trkpt lat="49.24705" lon="3.99932">
        <ele>79</ele>
        <time>2026-08-24T14:40:27Z</time>
      </trkpt>
      <trkpt lat="49.24707" lon="3.99938">
        <ele>79</ele>
        <time>2026-08-24T14:40:28Z</time>
      </trkpt>
      <trkpt lat="49.24707" lon="3.99943">
        <ele>79</ele>
        <time>2026-08-24T14:40:29Z</time>
      </trkpt>
      <trkpt lat="49.24707" lon="3.99948">
        <ele>79.2</ele>
        <time>2026-08-24T14:40:30Z</time>
      </trkpt>
      <trkpt lat="49.24708" lon="3.99953">
        <ele>79.4</ele>
        <time>2026-08-24T14:40:31Z</time>
      </trkpt>
      <trkpt lat="49.2471" lon="3.99958">
        <ele>79.6</ele>
        <time>2026-08-24T14:40:32Z</time>
      </trkpt>
      <trkpt lat="49.24711" lon="3.99964">
        <ele>79.8</ele>
        <time>2026-08-24T14:40:33Z</time>
      </trkpt>
      <trkpt lat="49.24712" lon="3.9997">
        <ele>79.8</ele>
        <time>2026-08-24T14:40:34Z</time>
      </trkpt>
      <trkpt lat="49.24713" lon="3.99977">
        <ele>79.8</ele>
        <time>2026-08-24T14:40:35Z</time>
      </trkpt>
      <trkpt lat="49.24714" lon="3.99984">
        <ele>79.8</ele>
        <time>2026-08-24T14:40:36Z</time>
      </trkpt>
      <trkpt lat="49.24714" lon="3.99991">
        <ele>79.8</ele>
        <time>2026-08-24T14:40:37Z</time>
      </trkpt>
      <trkpt lat="49.24715" lon="3.99999">
        <ele>79.8</ele>
        <time>2026-08-24T14:40:38Z</time>
      </trkpt>
      <trkpt lat="49.24715" lon="4.00006">
        <ele>79.6</ele>
        <time>2026-08-24T14:40:39Z</time>
      </trkpt>
      <trkpt lat="49.24716" lon="4.00014">
        <ele>79.6</ele>
        <time>2026-08-24T14:40:40Z</time>
      </trkpt>
      <trkpt lat="49.24717" lon="4.00022">
        <ele>79.4</ele>
        <time>2026-08-24T14:40:41Z</time>
      </trkpt>
      <trkpt lat="49.24718" lon="4.0003">
        <ele>79.2</ele>
        <time>2026-08-24T14:40:42Z</time>
      </trkpt>
      <trkpt lat="49.24718" lon="4.00039">
        <ele>79</ele>
        <time>2026-08-24T14:40:43Z</time>
      </trkpt>
      <trkpt lat="49.24719" lon="4.00047">
        <ele>79</ele>
        <time>2026-08-24T14:40:44Z</time>
      </trkpt>
      <trkpt lat="49.2472" lon="4.00055">
        <ele>78.8</ele>
        <time>2026-08-24T14:40:45Z</time>
      </trkpt>
      <trkpt lat="49.24721" lon="4.00063">
        <ele>78.8</ele>
        <time>2026-08-24T14:40:46Z</time>
      </trkpt>
      <trkpt lat="49.24721" lon="4.00071">
        <ele>78.8</ele>
        <time>2026-08-24T14:40:47Z</time>
      </trkpt>
      <trkpt lat="49.24722" lon="4.00078">
        <ele>79</ele>
        <time>2026-08-24T14:40:48Z</time>
      </trkpt>
      <trkpt lat="49.24722" lon="4.00086">
        <ele>79.2</ele>
        <time>2026-08-24T14:40:49Z</time>
      </trkpt>
      <trkpt lat="49.24723" lon="4.00094">
        <ele>79.4</ele>
        <time>2026-08-24T14:40:50Z</time>
      </trkpt>
      <trkpt lat="49.24724" lon="4.00102">
        <ele>79.6</ele>
        <time>2026-08-24T14:40:51Z</time>
      </trkpt>
      <trkpt lat="49.24724" lon="4.0011">
        <ele>79.8</ele>
        <time>2026-08-24T14:40:52Z</time>
      </trkpt>
      <trkpt lat="49.24725" lon="4.00117">
        <ele>80</ele>
        <time>2026-08-24T14:40:53Z</time>
      </trkpt>
      <trkpt lat="49.24726" lon="4.00125">
        <ele>80.2</ele>
        <time>2026-08-24T14:40:54Z</time>
      </trkpt>
      <trkpt lat="49.24727" lon="4.00133">
        <ele>80.2</ele>
        <time>2026-08-24T14:40:55Z</time>
      </trkpt>
      <trkpt lat="49.24727" lon="4.0014">
        <ele>80.4</ele>
        <time>2026-08-24T14:40:56Z</time>
      </trkpt>
      <trkpt lat="49.24728" lon="4.00148">
        <ele>80.6</ele>
        <time>2026-08-24T14:40:57Z</time>
      </trkpt>
      <trkpt lat="49.24728" lon="4.00154">
        <ele>80.8</ele>
        <time>2026-08-24T14:40:58Z</time>
      </trkpt>
      <trkpt lat="49.24729" lon="4.00161">
        <ele>81</ele>
        <time>2026-08-24T14:40:59Z</time>
      </trkpt>
      <trkpt lat="49.24729" lon="4.00168">
        <ele>81.2</ele>
        <time>2026-08-24T14:41:00Z</time>
      </trkpt>
      <trkpt lat="49.2473" lon="4.00175">
        <ele>81.2</ele>
        <time>2026-08-24T14:41:01Z</time>
      </trkpt>
      <trkpt lat="49.24731" lon="4.00181">
        <ele>81.4</ele>
        <time>2026-08-24T14:41:02Z</time>
      </trkpt>
      <trkpt lat="49.24732" lon="4.00188">
        <ele>81.6</ele>
        <time>2026-08-24T14:41:03Z</time>
      </trkpt>
      <trkpt lat="49.24732" lon="4.00194">
        <ele>81.6</ele>
        <time>2026-08-24T14:41:04Z</time>
      </trkpt>
      <trkpt lat="49.24733" lon="4.002">
        <ele>81.8</ele>
        <time>2026-08-24T14:41:05Z</time>
      </trkpt>
      <trkpt lat="49.24734" lon="4.00206">
        <ele>82</ele>
        <time>2026-08-24T14:41:06Z</time>
      </trkpt>
      <trkpt lat="49.24734" lon="4.00213">
        <ele>82.2</ele>
        <time>2026-08-24T14:41:07Z</time>
      </trkpt>
      <trkpt lat="49.24735" lon="4.00219">
        <ele>82.4</ele>
        <time>2026-08-24T14:41:08Z</time>
      </trkpt>
      <trkpt lat="49.24735" lon="4.00225">
        <ele>82.6</ele>
        <time>2026-08-24T14:41:09Z</time>
      </trkpt>
      <trkpt lat="49.24736" lon="4.0023">
        <ele>82.8</ele>
        <time>2026-08-24T14:41:10Z</time>
      </trkpt>
      <trkpt lat="49.24736" lon="4.00237">
        <ele>83</ele>
        <time>2026-08-24T14:41:11Z</time>
      </trkpt>
      <trkpt lat="49.24736" lon="4.00242">
        <ele>83</ele>
        <time>2026-08-24T14:41:12Z</time>
      </trkpt>
      <trkpt lat="49.24737" lon="4.00248">
        <ele>83.2</ele>
        <time>2026-08-24T14:41:13Z</time>
      </trkpt>
      <trkpt lat="49.24737" lon="4.00254">
        <ele>83.2</ele>
        <time>2026-08-24T14:41:14Z</time>
      </trkpt>
      <trkpt lat="49.24738" lon="4.0026">
        <ele>83.2</ele>
        <time>2026-08-24T14:41:15Z</time>
      </trkpt>
      <trkpt lat="49.24738" lon="4.00266">
        <ele>83.4</ele>
        <time>2026-08-24T14:41:16Z</time>
      </trkpt>
      <trkpt lat="49.24739" lon="4.00272">
        <ele>83.4</ele>
        <time>2026-08-24T14:41:17Z</time>
      </trkpt>
      <trkpt lat="49.2474" lon="4.00278">
        <ele>83.6</ele>
        <time>2026-08-24T14:41:18Z</time>
      </trkpt>
      <trkpt lat="49.2474" lon="4.00284">
        <ele>83.8</ele>
        <time>2026-08-24T14:41:19Z</time>
      </trkpt>
      <trkpt lat="49.24741" lon="4.0029">
        <ele>83.8</ele>
        <time>2026-08-24T14:41:20Z</time>
      </trkpt>
      <trkpt lat="49.24742" lon="4.00296">
        <ele>84.2</ele>
        <time>2026-08-24T14:41:21Z</time>
      </trkpt>
      <trkpt lat="49.24742" lon="4.00302">
        <ele>84.4</ele>
        <time>2026-08-24T14:41:22Z</time>
      </trkpt>
      <trkpt lat="49.24743" lon="4.00308">
        <ele>84.8</ele>
        <time>2026-08-24T14:41:23Z</time>
      </trkpt>
      <trkpt lat="49.24743" lon="4.00315">
        <ele>85</ele>
        <time>2026-08-24T14:41:24Z</time>
      </trkpt>
      <trkpt lat="49.24744" lon="4.00321">
        <ele>85.4</ele>
        <time>2026-08-24T14:41:25Z</time>
      </trkpt>
      <trkpt lat="49.24745" lon="4.00327">
        <ele>85.8</ele>
        <time>2026-08-24T14:41:26Z</time>
      </trkpt>
      <trkpt lat="49.24746" lon="4.00333">
        <ele>86</ele>
        <time>2026-08-24T14:41:27Z</time>
      </trkpt>
      <trkpt lat="49.24747" lon="4.0034">
        <ele>86</ele>
        <time>2026-08-24T14:41:28Z</time>
      </trkpt>
      <trkpt lat="49.24747" lon="4.00345">
        <ele>86</ele>
        <time>2026-08-24T14:41:29Z</time>
      </trkpt>
      <trkpt lat="49.24748" lon="4.00351">
        <ele>86.2</ele>
        <time>2026-08-24T14:41:30Z</time>
      </trkpt>
      <trkpt lat="49.24748" lon="4.00356">
        <ele>86.2</ele>
        <time>2026-08-24T14:41:31Z</time>
      </trkpt>
      <trkpt lat="49.24748" lon="4.0036">
        <ele>86.4</ele>
        <time>2026-08-24T14:41:32Z</time>
      </trkpt>
      <trkpt lat="49.24749" lon="4.00364">
        <ele>86.6</ele>
        <time>2026-08-24T14:41:33Z</time>
      </trkpt>
      <trkpt lat="49.24749" lon="4.00368">
        <ele>86.8</ele>
        <time>2026-08-24T14:41:34Z</time>
      </trkpt>
      <trkpt lat="49.2475" lon="4.00371">
        <ele>87.2</ele>
        <time>2026-08-24T14:41:35Z</time>
      </trkpt>
      <trkpt lat="49.24751" lon="4.00375">
        <ele>87.4</ele>
        <time>2026-08-24T14:41:36Z</time>
      </trkpt>
      <trkpt lat="49.24752" lon="4.00378">
        <ele>87.8</ele>
        <time>2026-08-24T14:41:37Z</time>
      </trkpt>
      <trkpt lat="49.24753" lon="4.00381">
        <ele>88</ele>
        <time>2026-08-24T14:41:38Z</time>
      </trkpt>
      <trkpt lat="49.24754" lon="4.00385">
        <ele>88.2</ele>
        <time>2026-08-24T14:41:39Z</time>
      </trkpt>
      <trkpt lat="49.24755" lon="4.00388">
        <ele>88.4</ele>
        <time>2026-08-24T14:41:40Z</time>
      </trkpt>
      <trkpt lat="49.24756" lon="4.00391">
        <ele>88.4</ele>
        <time>2026-08-24T14:41:41Z</time>
      </trkpt>
      <trkpt lat="49.24756" lon="4.00394">
        <ele>88.4</ele>
        <time>2026-08-24T14:41:42Z</time>
      </trkpt>
      <trkpt lat="49.24757" lon="4.00397">
        <ele>88.6</ele>
        <time>2026-08-24T14:41:43Z</time>
      </trkpt>
      <trkpt lat="49.24757" lon="4.00399">
        <ele>88.6</ele>
        <time>2026-08-24T14:41:44Z</time>
      </trkpt>
      <trkpt lat="49.24757" lon="4.00401">
        <ele>88.8</ele>
        <time>2026-08-24T14:41:45Z</time>
      </trkpt>
      <trkpt lat="49.24758" lon="4.00403">
        <ele>88.8</ele>
        <time>2026-08-24T14:41:46Z</time>
      </trkpt>
      <trkpt lat="49.24758" lon="4.00404">
        <ele>89</ele>
        <time>2026-08-24T14:41:47Z</time>
      </trkpt>
      <trkpt lat="49.24758" lon="4.00405">
        <ele>89.4</ele>
        <time>2026-08-24T14:41:48Z</time>
      </trkpt>
      <trkpt lat="49.24761" lon="4.00411">
        <ele>89.4</ele>
        <time>2026-08-24T14:42:06Z</time>
      </trkpt>
      <trkpt lat="49.24764" lon="4.00413">
        <ele>89.4</ele>
        <time>2026-08-24T14:42:07Z</time>
      </trkpt>
      <trkpt lat="49.24767" lon="4.00414">
        <ele>89.2</ele>
        <time>2026-08-24T14:42:08Z</time>
      </trkpt>
      <trkpt lat="49.24771" lon="4.00414">
        <ele>89.2</ele>
        <time>2026-08-24T14:42:09Z</time>
      </trkpt>
      <trkpt lat="49.24775" lon="4.00414">
        <ele>89</ele>
        <time>2026-08-24T14:42:10Z</time>
      </trkpt>
      <trkpt lat="49.2478" lon="4.00413">
        <ele>88.8</ele>
        <time>2026-08-24T14:42:11Z</time>
      </trkpt>
      <trkpt lat="49.24785" lon="4.00412">
        <ele>88.6</ele>
        <time>2026-08-24T14:42:12Z</time>
      </trkpt>
      <trkpt lat="49.24789" lon="4.00411">
        <ele>88.6</ele>
        <time>2026-08-24T14:42:13Z</time>
      </trkpt>
      <trkpt lat="49.24794" lon="4.0041">
        <ele>88.4</ele>
        <time>2026-08-24T14:42:14Z</time>
      </trkpt>
      <trkpt lat="49.24799" lon="4.00409">
        <ele>88.2</ele>
        <time>2026-08-24T14:42:15Z</time>
      </trkpt>
      <trkpt lat="49.24803" lon="4.00408">
        <ele>88.2</ele>
        <time>2026-08-24T14:42:16Z</time>
      </trkpt>
      <trkpt lat="49.24808" lon="4.00407">
        <ele>88</ele>
        <time>2026-08-24T14:42:17Z</time>
      </trkpt>
      <trkpt lat="49.24812" lon="4.00406">
        <ele>88</ele>
        <time>2026-08-24T14:42:18Z</time>
      </trkpt>
      <trkpt lat="49.24817" lon="4.00405">
        <ele>88</ele>
        <time>2026-08-24T14:42:19Z</time>
      </trkpt>
      <trkpt lat="49.24822" lon="4.00404">
        <ele>88</ele>
        <time>2026-08-24T14:42:20Z</time>
      </trkpt>
      <trkpt lat="49.24828" lon="4.00404">
        <ele>88</ele>
        <time>2026-08-24T14:42:21Z</time>
      </trkpt>
      <trkpt lat="49.24833" lon="4.00404">
        <ele>88</ele>
        <time>2026-08-24T14:42:22Z</time>
      </trkpt>
      <trkpt lat="49.24838" lon="4.00404">
        <ele>87.8</ele>
        <time>2026-08-24T14:42:23Z</time>
      </trkpt>
      <trkpt lat="49.24844" lon="4.00404">
        <ele>87.8</ele>
        <time>2026-08-24T14:42:24Z</time>
      </trkpt>
      <trkpt lat="49.24849" lon="4.00404">
        <ele>87.6</ele>
        <time>2026-08-24T14:42:25Z</time>
      </trkpt>
      <trkpt lat="49.24854" lon="4.00403">
        <ele>87.4</ele>
        <time>2026-08-24T14:42:26Z</time>
      </trkpt>
      <trkpt lat="49.24859" lon="4.00402">
        <ele>87.4</ele>
        <time>2026-08-24T14:42:27Z</time>
      </trkpt>
      <trkpt lat="49.24864" lon="4.00401">
        <ele>87.2</ele>
        <time>2026-08-24T14:42:28Z</time>
      </trkpt>
      <trkpt lat="49.24869" lon="4.004">
        <ele>87</ele>
        <time>2026-08-24T14:42:29Z</time>
      </trkpt>
      <trkpt lat="49.24874" lon="4.00399">
        <ele>87.2</ele>
        <time>2026-08-24T14:42:30Z</time>
      </trkpt>
      <trkpt lat="49.24879" lon="4.00398">
        <ele>87</ele>
        <time>2026-08-24T14:42:31Z</time>
      </trkpt>
      <trkpt lat="49.24885" lon="4.00397">
        <ele>87</ele>
        <time>2026-08-24T14:42:32Z</time>
      </trkpt>
      <trkpt lat="49.24891" lon="4.00395">
        <ele>87</ele>
        <time>2026-08-24T14:42:33Z</time>
      </trkpt>
      <trkpt lat="49.24897" lon="4.00394">
        <ele>87</ele>
        <time>2026-08-24T14:42:34Z</time>
      </trkpt>
      <trkpt lat="49.24903" lon="4.00393">
        <ele>87</ele>
        <time>2026-08-24T14:42:35Z</time>
      </trkpt>
      <trkpt lat="49.24909" lon="4.00391">
        <ele>86.8</ele>
        <time>2026-08-24T14:42:36Z</time>
      </trkpt>
      <trkpt lat="49.24915" lon="4.0039">
        <ele>86.8</ele>
        <time>2026-08-24T14:42:37Z</time>
      </trkpt>
      <trkpt lat="49.24922" lon="4.00388">
        <ele>86.8</ele>
        <time>2026-08-24T14:42:38Z</time>
      </trkpt>
      <trkpt lat="49.24928" lon="4.00387">
        <ele>86.6</ele>
        <time>2026-08-24T14:42:39Z</time>
      </trkpt>
      <trkpt lat="49.24935" lon="4.00385">
        <ele>86.2</ele>
        <time>2026-08-24T14:42:40Z</time>
      </trkpt>
      <trkpt lat="49.24942" lon="4.00383">
        <ele>85.6</ele>
        <time>2026-08-24T14:42:41Z</time>
      </trkpt>
      <trkpt lat="49.24949" lon="4.00382">
        <ele>85</ele>
        <time>2026-08-24T14:42:42Z</time>
      </trkpt>
      <trkpt lat="49.24956" lon="4.0038">
        <ele>84.8</ele>
        <time>2026-08-24T14:42:43Z</time>
      </trkpt>
      <trkpt lat="49.24963" lon="4.00379">
        <ele>84.4</ele>
        <time>2026-08-24T14:42:44Z</time>
      </trkpt>
      <trkpt lat="49.24971" lon="4.00378">
        <ele>84</ele>
        <time>2026-08-24T14:42:45Z</time>
      </trkpt>
      <trkpt lat="49.24979" lon="4.00379">
        <ele>83.6</ele>
        <time>2026-08-24T14:42:46Z</time>
      </trkpt>
      <trkpt lat="49.24987" lon="4.00382">
        <ele>83.2</ele>
        <time>2026-08-24T14:42:47Z</time>
      </trkpt>
      <trkpt lat="49.24996" lon="4.00386">
        <ele>82.8</ele>
        <time>2026-08-24T14:42:48Z</time>
      </trkpt>
      <trkpt lat="49.25003" lon="4.0039">
        <ele>82.2</ele>
        <time>2026-08-24T14:42:49Z</time>
      </trkpt>
      <trkpt lat="49.25011" lon="4.00395">
        <ele>81.8</ele>
        <time>2026-08-24T14:42:50Z</time>
      </trkpt>
      <trkpt lat="49.25018" lon="4.00398">
        <ele>81.4</ele>
        <time>2026-08-24T14:42:51Z</time>
      </trkpt>
      <trkpt lat="49.25025" lon="4.00402">
        <ele>81</ele>
        <time>2026-08-24T14:42:52Z</time>
      </trkpt>
      <trkpt lat="49.25032" lon="4.00406">
        <ele>80.6</ele>
        <time>2026-08-24T14:42:53Z</time>
      </trkpt>
      <trkpt lat="49.25039" lon="4.0041">
        <ele>80.4</ele>
        <time>2026-08-24T14:42:54Z</time>
      </trkpt>
      <trkpt lat="49.25046" lon="4.00414">
        <ele>80</ele>
        <time>2026-08-24T14:42:55Z</time>
      </trkpt>
      <trkpt lat="49.25054" lon="4.00418">
        <ele>79.6</ele>
        <time>2026-08-24T14:42:56Z</time>
      </trkpt>
      <trkpt lat="49.25061" lon="4.00423">
        <ele>79.4</ele>
        <time>2026-08-24T14:42:57Z</time>
      </trkpt>
      <trkpt lat="49.25069" lon="4.00427">
        <ele>79</ele>
        <time>2026-08-24T14:42:58Z</time>
      </trkpt>
      <trkpt lat="49.25076" lon="4.00432">
        <ele>78.6</ele>
        <time>2026-08-24T14:42:59Z</time>
      </trkpt>
      <trkpt lat="49.25084" lon="4.00437">
        <ele>78.6</ele>
        <time>2026-08-24T14:43:00Z</time>
      </trkpt>
      <trkpt lat="49.25091" lon="4.00443">
        <ele>78.4</ele>
        <time>2026-08-24T14:43:01Z</time>
      </trkpt>
      <trkpt lat="49.25097" lon="4.0045">
        <ele>78.2</ele>
        <time>2026-08-24T14:43:02Z</time>
      </trkpt>
      <trkpt lat="49.25101" lon="4.0046">
        <ele>78.2</ele>
        <time>2026-08-24T14:43:03Z</time>
      </trkpt>
      <trkpt lat="49.25104" lon="4.00471">
        <ele>78</ele>
        <time>2026-08-24T14:43:04Z</time>
      </trkpt>
      <trkpt lat="49.25105" lon="4.00482">
        <ele>77.8</ele>
        <time>2026-08-24T14:43:05Z</time>
      </trkpt>
      <trkpt lat="49.25107" lon="4.00492">
        <ele>77.6</ele>
        <time>2026-08-24T14:43:06Z</time>
      </trkpt>
      <trkpt lat="49.25108" lon="4.00502">
        <ele>77.4</ele>
        <time>2026-08-24T14:43:07Z</time>
      </trkpt>
      <trkpt lat="49.25109" lon="4.00512">
        <ele>77.2</ele>
        <time>2026-08-24T14:43:08Z</time>
      </trkpt>
      <trkpt lat="49.25111" lon="4.0052">
        <ele>77.2</ele>
        <time>2026-08-24T14:43:09Z</time>
      </trkpt>
      <trkpt lat="49.25113" lon="4.00528">
        <ele>77.2</ele>
        <time>2026-08-24T14:43:10Z</time>
      </trkpt>
      <trkpt lat="49.25115" lon="4.00535">
        <ele>77.4</ele>
        <time>2026-08-24T14:43:11Z</time>
      </trkpt>
      <trkpt lat="49.25117" lon="4.00543">
        <ele>77.6</ele>
        <time>2026-08-24T14:43:12Z</time>
      </trkpt>
      <trkpt lat="49.25119" lon="4.0055">
        <ele>77.6</ele>
        <time>2026-08-24T14:43:13Z</time>
      </trkpt>
      <trkpt lat="49.2512" lon="4.00558">
        <ele>77.8</ele>
        <time>2026-08-24T14:43:14Z</time>
      </trkpt>
      <trkpt lat="49.25121" lon="4.00567">
        <ele>77.8</ele>
        <time>2026-08-24T14:43:15Z</time>
      </trkpt>
      <trkpt lat="49.2512" lon="4.00577">
        <ele>77.6</ele>
        <time>2026-08-24T14:43:16Z</time>
      </trkpt>
      <trkpt lat="49.25118" lon="4.00586">
        <ele>77.4</ele>
        <time>2026-08-24T14:43:17Z</time>
      </trkpt>
      <trkpt lat="49.25116" lon="4.00595">
        <ele>77.2</ele>
        <time>2026-08-24T14:43:18Z</time>
      </trkpt>
      <trkpt lat="49.25113" lon="4.00603">
        <ele>76.8</ele>
        <time>2026-08-24T14:43:19Z</time>
      </trkpt>
      <trkpt lat="49.2511" lon="4.00612">
        <ele>76.6</ele>
        <time>2026-08-24T14:43:20Z</time>
      </trkpt>
      <trkpt lat="49.25107" lon="4.0062">
        <ele>76.6</ele>
        <time>2026-08-24T14:43:21Z</time>
      </trkpt>
      <trkpt lat="49.25105" lon="4.00629">
        <ele>76.6</ele>
        <time>2026-08-24T14:43:22Z</time>
      </trkpt>
      <trkpt lat="49.25102" lon="4.00637">
        <ele>76.6</ele>
        <time>2026-08-24T14:43:23Z</time>
      </trkpt>
      <trkpt lat="49.251" lon="4.00646">
        <ele>76.8</ele>
        <time>2026-08-24T14:43:24Z</time>
      </trkpt>
      <trkpt lat="49.25098" lon="4.00655">
        <ele>76.8</ele>
        <time>2026-08-24T14:43:25Z</time>
      </trkpt>
      <trkpt lat="49.25095" lon="4.00663">
        <ele>76.8</ele>
        <time>2026-08-24T14:43:26Z</time>
      </trkpt>
      <trkpt lat="49.25093" lon="4.00671">
        <ele>77</ele>
        <time>2026-08-24T14:43:27Z</time>
      </trkpt>
      <trkpt lat="49.25091" lon="4.00679">
        <ele>77</ele>
        <time>2026-08-24T14:43:28Z</time>
      </trkpt>
      <trkpt lat="49.25089" lon="4.00687">
        <ele>76.8</ele>
        <time>2026-08-24T14:43:29Z</time>
      </trkpt>
      <trkpt lat="49.25087" lon="4.00695">
        <ele>76.8</ele>
        <time>2026-08-24T14:43:30Z</time>
      </trkpt>
      <trkpt lat="49.25085" lon="4.00703">
        <ele>76.8</ele>
        <time>2026-08-24T14:43:31Z</time>
      </trkpt>
      <trkpt lat="49.25083" lon="4.00711">
        <ele>76.8</ele>
        <time>2026-08-24T14:43:32Z</time>
      </trkpt>
      <trkpt lat="49.25081" lon="4.00719">
        <ele>76.8</ele>
        <time>2026-08-24T14:43:33Z</time>
      </trkpt>
      <trkpt lat="49.25079" lon="4.00728">
        <ele>76.8</ele>
        <time>2026-08-24T14:43:34Z</time>
      </trkpt>
      <trkpt lat="49.25077" lon="4.00736">
        <ele>76.8</ele>
        <time>2026-08-24T14:43:35Z</time>
      </trkpt>
      <trkpt lat="49.25075" lon="4.00744">
        <ele>76.8</ele>
        <time>2026-08-24T14:43:36Z</time>
      </trkpt>
      <trkpt lat="49.25073" lon="4.00751">
        <ele>76.8</ele>
        <time>2026-08-24T14:43:37Z</time>
      </trkpt>
      <trkpt lat="49.25071" lon="4.00759">
        <ele>76.8</ele>
        <time>2026-08-24T14:43:38Z</time>
      </trkpt>
      <trkpt lat="49.25068" lon="4.00765">
        <ele>77</ele>
        <time>2026-08-24T14:43:39Z</time>
      </trkpt>
      <trkpt lat="49.25066" lon="4.00772">
        <ele>77.2</ele>
        <time>2026-08-24T14:43:40Z</time>
      </trkpt>
      <trkpt lat="49.25064" lon="4.00779">
        <ele>77.4</ele>
        <time>2026-08-24T14:43:41Z</time>
      </trkpt>
      <trkpt lat="49.25062" lon="4.00786">
        <ele>77.4</ele>
        <time>2026-08-24T14:43:42Z</time>
      </trkpt>
      <trkpt lat="49.2506" lon="4.00793">
        <ele>77.4</ele>
        <time>2026-08-24T14:43:43Z</time>
      </trkpt>
      <trkpt lat="49.25057" lon="4.00801">
        <ele>77.4</ele>
        <time>2026-08-24T14:43:44Z</time>
      </trkpt>
      <trkpt lat="49.25055" lon="4.00808">
        <ele>77.2</ele>
        <time>2026-08-24T14:43:45Z</time>
      </trkpt>
      <trkpt lat="49.25052" lon="4.00816">
        <ele>77.2</ele>
        <time>2026-08-24T14:43:46Z</time>
      </trkpt>
      <trkpt lat="49.2505" lon="4.00823">
        <ele>77.2</ele>
        <time>2026-08-24T14:43:47Z</time>
      </trkpt>
      <trkpt lat="49.25047" lon="4.00831">
        <ele>77.4</ele>
        <time>2026-08-24T14:43:48Z</time>
      </trkpt>
      <trkpt lat="49.25044" lon="4.00839">
        <ele>77.4</ele>
        <time>2026-08-24T14:43:49Z</time>
      </trkpt>
      <trkpt lat="49.25042" lon="4.00846">
        <ele>77.6</ele>
        <time>2026-08-24T14:43:50Z</time>
      </trkpt>
      <trkpt lat="49.25039" lon="4.00854">
        <ele>77.8</ele>
        <time>2026-08-24T14:43:51Z</time>
      </trkpt>
      <trkpt lat="49.25036" lon="4.00861">
        <ele>78</ele>
        <time>2026-08-24T14:43:52Z</time>
      </trkpt>
      <trkpt lat="49.25034" lon="4.00869">
        <ele>78.4</ele>
        <time>2026-08-24T14:43:53Z</time>
      </trkpt>
      <trkpt lat="49.25031" lon="4.00876">
        <ele>78.6</ele>
        <time>2026-08-24T14:43:54Z</time>
      </trkpt>
      <trkpt lat="49.25028" lon="4.00883">
        <ele>78.8</ele>
        <time>2026-08-24T14:43:55Z</time>
      </trkpt>
      <trkpt lat="49.25025" lon="4.0089">
        <ele>78.8</ele>
        <time>2026-08-24T14:43:56Z</time>
      </trkpt>
      <trkpt lat="49.25022" lon="4.00897">
        <ele>78.6</ele>
        <time>2026-08-24T14:43:57Z</time>
      </trkpt>
      <trkpt lat="49.2502" lon="4.00904">
        <ele>78.6</ele>
        <time>2026-08-24T14:43:58Z</time>
      </trkpt>
      <trkpt lat="49.25017" lon="4.00912">
        <ele>78.6</ele>
        <time>2026-08-24T14:43:59Z</time>
      </trkpt>
      <trkpt lat="49.25015" lon="4.0092">
        <ele>78.8</ele>
        <time>2026-08-24T14:44:00Z</time>
      </trkpt>
      <trkpt lat="49.25012" lon="4.00928">
        <ele>78.8</ele>
        <time>2026-08-24T14:44:01Z</time>
      </trkpt>
      <trkpt lat="49.25009" lon="4.00936">
        <ele>78.8</ele>
        <time>2026-08-24T14:44:02Z</time>
      </trkpt>
      <trkpt lat="49.25006" lon="4.00944">
        <ele>78.8</ele>
        <time>2026-08-24T14:44:03Z</time>
      </trkpt>
      <trkpt lat="49.25003" lon="4.00952">
        <ele>78.6</ele>
        <time>2026-08-24T14:44:04Z</time>
      </trkpt>
      <trkpt lat="49.25" lon="4.00961">
        <ele>78.4</ele>
        <time>2026-08-24T14:44:05Z</time>
      </trkpt>
      <trkpt lat="49.24997" lon="4.00969">
        <ele>78.2</ele>
        <time>2026-08-24T14:44:06Z</time>
      </trkpt>
      <trkpt lat="49.24994" lon="4.00978">
        <ele>78</ele>
        <time>2026-08-24T14:44:07Z</time>
      </trkpt>
      <trkpt lat="49.24991" lon="4.00987">
        <ele>78.2</ele>
        <time>2026-08-24T14:44:08Z</time>
      </trkpt>
      <trkpt lat="49.24988" lon="4.00996">
        <ele>78.2</ele>
        <time>2026-08-24T14:44:09Z</time>
      </trkpt>
      <trkpt lat="49.24985" lon="4.01004">
        <ele>78</ele>
        <time>2026-08-24T14:44:10Z</time>
      </trkpt>
      <trkpt lat="49.24982" lon="4.01013">
        <ele>78.2</ele>
        <time>2026-08-24T14:44:11Z</time>
      </trkpt>
      <trkpt lat="49.24979" lon="4.01022">
        <ele>78.2</ele>
        <time>2026-08-24T14:44:12Z</time>
      </trkpt>
      <trkpt lat="49.24976" lon="4.01031">
        <ele>78</ele>
        <time>2026-08-24T14:44:13Z</time>
      </trkpt>
      <trkpt lat="49.24973" lon="4.0104">
        <ele>78</ele>
        <time>2026-08-24T14:44:14Z</time>
      </trkpt>
      <trkpt lat="49.2497" lon="4.01049">
        <ele>78</ele>
        <time>2026-08-24T14:44:15Z</time>
      </trkpt>
      <trkpt lat="49.24967" lon="4.01057">
        <ele>78</ele>
        <time>2026-08-24T14:44:16Z</time>
      </trkpt>
      <trkpt lat="49.24964" lon="4.01066">
        <ele>78</ele>
        <time>2026-08-24T14:44:17Z</time>
      </trkpt>
      <trkpt lat="49.24961" lon="4.01074">
        <ele>78</ele>
        <time>2026-08-24T14:44:18Z</time>
      </trkpt>
      <trkpt lat="49.24959" lon="4.01083">
        <ele>78</ele>
        <time>2026-08-24T14:44:19Z</time>
      </trkpt>
      <trkpt lat="49.24956" lon="4.01091">
        <ele>78</ele>
        <time>2026-08-24T14:44:20Z</time>
      </trkpt>
      <trkpt lat="49.24953" lon="4.01099">
        <ele>78</ele>
        <time>2026-08-24T14:44:21Z</time>
      </trkpt>
      <trkpt lat="49.24951" lon="4.01107">
        <ele>78</ele>
        <time>2026-08-24T14:44:22Z</time>
      </trkpt>
      <trkpt lat="49.24948" lon="4.01115">
        <ele>78</ele>
        <time>2026-08-24T14:44:23Z</time>
      </trkpt>
      <trkpt lat="49.24945" lon="4.01124">
        <ele>78</ele>
        <time>2026-08-24T14:44:24Z</time>
      </trkpt>
      <trkpt lat="49.24942" lon="4.01132">
        <ele>78</ele>
        <time>2026-08-24T14:44:25Z</time>
      </trkpt>
      <trkpt lat="49.24939" lon="4.01141">
        <ele>78.2</ele>
        <time>2026-08-24T14:44:26Z</time>
      </trkpt>
      <trkpt lat="49.24936" lon="4.0115">
        <ele>78</ele>
        <time>2026-08-24T14:44:27Z</time>
      </trkpt>
      <trkpt lat="49.24933" lon="4.01159">
        <ele>78</ele>
        <time>2026-08-24T14:44:28Z</time>
      </trkpt>
      <trkpt lat="49.2493" lon="4.01168">
        <ele>77.8</ele>
        <time>2026-08-24T14:44:29Z</time>
      </trkpt>
      <trkpt lat="49.24927" lon="4.01177">
        <ele>77.4</ele>
        <time>2026-08-24T14:44:30Z</time>
      </trkpt>
      <trkpt lat="49.24924" lon="4.01186">
        <ele>77</ele>
        <time>2026-08-24T14:44:31Z</time>
      </trkpt>
      <trkpt lat="49.24921" lon="4.01195">
        <ele>76.8</ele>
        <time>2026-08-24T14:44:32Z</time>
      </trkpt>
      <trkpt lat="49.24919" lon="4.01203">
        <ele>76.8</ele>
        <time>2026-08-24T14:44:33Z</time>
      </trkpt>
      <trkpt lat="49.24916" lon="4.01212">
        <ele>77</ele>
        <time>2026-08-24T14:44:34Z</time>
      </trkpt>
      <trkpt lat="49.24913" lon="4.01221">
        <ele>77.4</ele>
        <time>2026-08-24T14:44:35Z</time>
      </trkpt>
      <trkpt lat="49.2491" lon="4.0123">
        <ele>77.8</ele>
        <time>2026-08-24T14:44:36Z</time>
      </trkpt>
      <trkpt lat="49.24907" lon="4.01238">
        <ele>78.2</ele>
        <time>2026-08-24T14:44:37Z</time>
      </trkpt>
      <trkpt lat="49.24905" lon="4.01247">
        <ele>78.2</ele>
        <time>2026-08-24T14:44:38Z</time>
      </trkpt>
      <trkpt lat="49.24902" lon="4.01255">
        <ele>78.4</ele>
        <time>2026-08-24T14:44:39Z</time>
      </trkpt>
      <trkpt lat="49.24899" lon="4.01262">
        <ele>78.4</ele>
        <time>2026-08-24T14:44:40Z</time>
      </trkpt>
      <trkpt lat="49.24897" lon="4.01269">
        <ele>78.4</ele>
        <time>2026-08-24T14:44:41Z</time>
      </trkpt>
      <trkpt lat="49.24893" lon="4.01275">
        <ele>78.2</ele>
        <time>2026-08-24T14:44:42Z</time>
      </trkpt>
      <trkpt lat="49.24889" lon="4.01279">
        <ele>78.2</ele>
        <time>2026-08-24T14:44:43Z</time>
      </trkpt>
      <trkpt lat="49.24886" lon="4.0128">
        <ele>78.2</ele>
        <time>2026-08-24T14:44:44Z</time>
      </trkpt>
      <trkpt lat="49.24883" lon="4.01281">
        <ele>78.2</ele>
        <time>2026-08-24T14:44:45Z</time>
      </trkpt>
      <trkpt lat="49.24881" lon="4.01282">
        <ele>78.4</ele>
        <time>2026-08-24T14:44:46Z</time>
      </trkpt>
      <trkpt lat="49.24879" lon="4.01283">
        <ele>78.6</ele>
        <time>2026-08-24T14:44:47Z</time>
      </trkpt>
      <trkpt lat="49.24877" lon="4.01283">
        <ele>78.8</ele>
        <time>2026-08-24T14:44:48Z</time>
      </trkpt>
      <trkpt lat="49.24877" lon="4.01283">
        <ele>79</ele>
        <time>2026-08-24T14:44:49Z</time>
      </trkpt>
      <trkpt lat="49.24877" lon="4.01283">
        <ele>79</ele>
        <time>2026-08-24T14:44:50Z</time>
      </trkpt>
      <trkpt lat="49.24877" lon="4.01283">
        <ele>79.2</ele>
        <time>2026-08-24T14:44:51Z</time>
      </trkpt>
      <trkpt lat="49.24872" lon="4.01285">
        <ele>78.8</ele>
        <time>2026-08-24T14:45:33Z</time>
      </trkpt>
      <trkpt lat="49.2487" lon="4.01287">
        <ele>78.8</ele>
        <time>2026-08-24T14:45:34Z</time>
      </trkpt>
      <trkpt lat="49.24868" lon="4.01289">
        <ele>78.8</ele>
        <time>2026-08-24T14:45:35Z</time>
      </trkpt>
      <trkpt lat="49.24866" lon="4.01293">
        <ele>79</ele>
        <time>2026-08-24T14:45:36Z</time>
      </trkpt>
      <trkpt lat="49.24865" lon="4.01298">
        <ele>79</ele>
        <time>2026-08-24T14:45:37Z</time>
      </trkpt>
      <trkpt lat="49.24864" lon="4.01303">
        <ele>78.8</ele>
        <time>2026-08-24T14:45:38Z</time>
      </trkpt>
      <trkpt lat="49.24864" lon="4.01309">
        <ele>78.8</ele>
        <time>2026-08-24T14:45:39Z</time>
      </trkpt>
      <trkpt lat="49.24864" lon="4.01314">
        <ele>78.8</ele>
        <time>2026-08-24T14:45:40Z</time>
      </trkpt>
      <trkpt lat="49.24865" lon="4.01321">
        <ele>78.6</ele>
        <time>2026-08-24T14:45:41Z</time>
      </trkpt>
      <trkpt lat="49.24866" lon="4.01329">
        <ele>78.4</ele>
        <time>2026-08-24T14:45:42Z</time>
      </trkpt>
      <trkpt lat="49.24868" lon="4.01337">
        <ele>78.4</ele>
        <time>2026-08-24T14:45:43Z</time>
      </trkpt>
      <trkpt lat="49.2487" lon="4.01346">
        <ele>78.2</ele>
        <time>2026-08-24T14:45:44Z</time>
      </trkpt>
      <trkpt lat="49.24871" lon="4.01355">
        <ele>78.2</ele>
        <time>2026-08-24T14:45:45Z</time>
      </trkpt>
      <trkpt lat="49.24873" lon="4.01364">
        <ele>78</ele>
        <time>2026-08-24T14:45:46Z</time>
      </trkpt>
      <trkpt lat="49.24874" lon="4.01374">
        <ele>78</ele>
        <time>2026-08-24T14:45:47Z</time>
      </trkpt>
      <trkpt lat="49.24876" lon="4.01384">
        <ele>78</ele>
        <time>2026-08-24T14:45:48Z</time>
      </trkpt>
      <trkpt lat="49.24877" lon="4.01394">
        <ele>78</ele>
        <time>2026-08-24T14:45:49Z</time>
      </trkpt>
      <trkpt lat="49.24878" lon="4.01404">
        <ele>78</ele>
        <time>2026-08-24T14:45:50Z</time>
      </trkpt>
      <trkpt lat="49.2488" lon="4.01415">
        <ele>78</ele>
        <time>2026-08-24T14:45:51Z</time>
      </trkpt>
      <trkpt lat="49.24882" lon="4.01426">
        <ele>78</ele>
        <time>2026-08-24T14:45:52Z</time>
      </trkpt>
      <trkpt lat="49.24883" lon="4.01437">
        <ele>78</ele>
        <time>2026-08-24T14:45:53Z</time>
      </trkpt>
      <trkpt lat="49.24885" lon="4.01448">
        <ele>77.8</ele>
        <time>2026-08-24T14:45:54Z</time>
      </trkpt>
      <trkpt lat="49.24887" lon="4.01459">
        <ele>77.6</ele>
        <time>2026-08-24T14:45:55Z</time>
      </trkpt>
      <trkpt lat="49.24888" lon="4.01471">
        <ele>77.6</ele>
        <time>2026-08-24T14:45:56Z</time>
      </trkpt>
      <trkpt lat="49.2489" lon="4.01482">
        <ele>77.4</ele>
        <time>2026-08-24T14:45:57Z</time>
      </trkpt>
      <trkpt lat="49.24892" lon="4.01493">
        <ele>77.4</ele>
        <time>2026-08-24T14:45:58Z</time>
      </trkpt>
      <trkpt lat="49.24894" lon="4.01504">
        <ele>77.2</ele>
        <time>2026-08-24T14:45:59Z</time>
      </trkpt>
      <trkpt lat="49.24895" lon="4.01514">
        <ele>77.2</ele>
        <time>2026-08-24T14:46:00Z</time>
      </trkpt>
      <trkpt lat="49.24897" lon="4.01525">
        <ele>77.4</ele>
        <time>2026-08-24T14:46:01Z</time>
      </trkpt>
      <trkpt lat="49.24899" lon="4.01536">
        <ele>77.4</ele>
        <time>2026-08-24T14:46:02Z</time>
      </trkpt>
      <trkpt lat="49.24901" lon="4.01547">
        <ele>77.4</ele>
        <time>2026-08-24T14:46:03Z</time>
      </trkpt>
      <trkpt lat="49.24903" lon="4.01558">
        <ele>77.4</ele>
        <time>2026-08-24T14:46:04Z</time>
      </trkpt>
      <trkpt lat="49.24905" lon="4.01568">
        <ele>77.4</ele>
        <time>2026-08-24T14:46:05Z</time>
      </trkpt>
      <trkpt lat="49.24907" lon="4.0158">
        <ele>77.4</ele>
        <time>2026-08-24T14:46:06Z</time>
      </trkpt>
      <trkpt lat="49.24908" lon="4.01591">
        <ele>77.4</ele>
        <time>2026-08-24T14:46:07Z</time>
      </trkpt>
      <trkpt lat="49.2491" lon="4.01602">
        <ele>77.4</ele>
        <time>2026-08-24T14:46:08Z</time>
      </trkpt>
      <trkpt lat="49.24911" lon="4.01614">
        <ele>77.2</ele>
        <time>2026-08-24T14:46:09Z</time>
      </trkpt>
      <trkpt lat="49.24912" lon="4.01625">
        <ele>77.2</ele>
        <time>2026-08-24T14:46:10Z</time>
      </trkpt>
      <trkpt lat="49.24914" lon="4.01637">
        <ele>77.2</ele>
        <time>2026-08-24T14:46:11Z</time>
      </trkpt>
      <trkpt lat="49.24915" lon="4.01648">
        <ele>77.2</ele>
        <time>2026-08-24T14:46:12Z</time>
      </trkpt>
      <trkpt lat="49.24916" lon="4.0166">
        <ele>77.4</ele>
        <time>2026-08-24T14:46:13Z</time>
      </trkpt>
      <trkpt lat="49.24918" lon="4.01671">
        <ele>77.4</ele>
        <time>2026-08-24T14:46:14Z</time>
      </trkpt>
      <trkpt lat="49.24919" lon="4.01683">
        <ele>77.6</ele>
        <time>2026-08-24T14:46:15Z</time>
      </trkpt>
      <trkpt lat="49.24921" lon="4.01694">
        <ele>77.8</ele>
        <time>2026-08-24T14:46:16Z</time>
      </trkpt>
      <trkpt lat="49.24923" lon="4.01705">
        <ele>78</ele>
        <time>2026-08-24T14:46:17Z</time>
      </trkpt>
      <trkpt lat="49.24926" lon="4.01716">
        <ele>78</ele>
        <time>2026-08-24T14:46:18Z</time>
      </trkpt>
      <trkpt lat="49.24929" lon="4.01727">
        <ele>78</ele>
        <time>2026-08-24T14:46:19Z</time>
      </trkpt>
      <trkpt lat="49.24933" lon="4.01737">
        <ele>78</ele>
        <time>2026-08-24T14:46:20Z</time>
      </trkpt>
      <trkpt lat="49.24936" lon="4.01747">
        <ele>77.8</ele>
        <time>2026-08-24T14:46:21Z</time>
      </trkpt>
      <trkpt lat="49.24939" lon="4.01757">
        <ele>77.6</ele>
        <time>2026-08-24T14:46:22Z</time>
      </trkpt>
      <trkpt lat="49.24943" lon="4.01767">
        <ele>77.6</ele>
        <time>2026-08-24T14:46:23Z</time>
      </trkpt>
      <trkpt lat="49.24947" lon="4.01776">
        <ele>77.6</ele>
        <time>2026-08-24T14:46:24Z</time>
      </trkpt>
      <trkpt lat="49.2495" lon="4.01786">
        <ele>77.8</ele>
        <time>2026-08-24T14:46:25Z</time>
      </trkpt>
      <trkpt lat="49.24954" lon="4.01796">
        <ele>77.8</ele>
        <time>2026-08-24T14:46:26Z</time>
      </trkpt>
      <trkpt lat="49.24957" lon="4.01806">
        <ele>77.8</ele>
        <time>2026-08-24T14:46:27Z</time>
      </trkpt>
      <trkpt lat="49.2496" lon="4.01816">
        <ele>77.8</ele>
        <time>2026-08-24T14:46:28Z</time>
      </trkpt>
      <trkpt lat="49.24964" lon="4.01826">
        <ele>77.6</ele>
        <time>2026-08-24T14:46:29Z</time>
      </trkpt>
      <trkpt lat="49.24967" lon="4.01835">
        <ele>77.4</ele>
        <time>2026-08-24T14:46:30Z</time>
      </trkpt>
      <trkpt lat="49.24971" lon="4.01844">
        <ele>77.2</ele>
        <time>2026-08-24T14:46:31Z</time>
      </trkpt>
      <trkpt lat="49.24974" lon="4.01853">
        <ele>77</ele>
        <time>2026-08-24T14:46:32Z</time>
      </trkpt>
      <trkpt lat="49.24977" lon="4.01862">
        <ele>77</ele>
        <time>2026-08-24T14:46:33Z</time>
      </trkpt>
      <trkpt lat="49.2498" lon="4.0187">
        <ele>76.8</ele>
        <time>2026-08-24T14:46:34Z</time>
      </trkpt>
      <trkpt lat="49.24983" lon="4.01877">
        <ele>76.8</ele>
        <time>2026-08-24T14:46:35Z</time>
      </trkpt>
      <trkpt lat="49.24986" lon="4.01885">
        <ele>77</ele>
        <time>2026-08-24T14:46:36Z</time>
      </trkpt>
      <trkpt lat="49.24989" lon="4.01893">
        <ele>77.2</ele>
        <time>2026-08-24T14:46:37Z</time>
      </trkpt>
      <trkpt lat="49.24991" lon="4.019">
        <ele>77.2</ele>
        <time>2026-08-24T14:46:38Z</time>
      </trkpt>
      <trkpt lat="49.24994" lon="4.01908">
        <ele>77.4</ele>
        <time>2026-08-24T14:46:39Z</time>
      </trkpt>
      <trkpt lat="49.24996" lon="4.01914">
        <ele>77.6</ele>
        <time>2026-08-24T14:46:40Z</time>
      </trkpt>
      <trkpt lat="49.24998" lon="4.0192">
        <ele>77.6</ele>
        <time>2026-08-24T14:46:41Z</time>
      </trkpt>
      <trkpt lat="49.25" lon="4.01926">
        <ele>77.6</ele>
        <time>2026-08-24T14:46:42Z</time>
      </trkpt>
      <trkpt lat="49.25002" lon="4.01931">
        <ele>77.6</ele>
        <time>2026-08-24T14:46:43Z</time>
      </trkpt>
      <trkpt lat="49.25003" lon="4.01936">
        <ele>77.6</ele>
        <time>2026-08-24T14:46:44Z</time>
      </trkpt>
      <trkpt lat="49.25004" lon="4.0194">
        <ele>77.6</ele>
        <time>2026-08-24T14:46:45Z</time>
      </trkpt>
      <trkpt lat="49.25005" lon="4.01944">
        <ele>77.8</ele>
        <time>2026-08-24T14:46:46Z</time>
      </trkpt>
      <trkpt lat="49.25005" lon="4.01947">
        <ele>78</ele>
        <time>2026-08-24T14:46:47Z</time>
      </trkpt>
      <trkpt lat="49.25004" lon="4.0195">
        <ele>78.2</ele>
        <time>2026-08-24T14:46:48Z</time>
      </trkpt>
      <trkpt lat="49.25003" lon="4.01951">
        <ele>78.4</ele>
        <time>2026-08-24T14:46:49Z</time>
      </trkpt>
      <trkpt lat="49.25003" lon="4.01952">
        <ele>78.6</ele>
        <time>2026-08-24T14:46:50Z</time>
      </trkpt>
      <trkpt lat="49.25003" lon="4.01952">
        <ele>79</ele>
        <time>2026-08-24T14:46:51Z</time>
      </trkpt>
      <trkpt lat="49.25001" lon="4.01961">
        <ele>79.2</ele>
        <time>2026-08-24T14:47:17Z</time>
      </trkpt>
      <trkpt lat="49.25002" lon="4.01964">
        <ele>79</ele>
        <time>2026-08-24T14:47:18Z</time>
      </trkpt>
      <trkpt lat="49.25003" lon="4.01967">
        <ele>79</ele>
        <time>2026-08-24T14:47:19Z</time>
      </trkpt>
      <trkpt lat="49.25004" lon="4.01971">
        <ele>78.8</ele>
        <time>2026-08-24T14:47:20Z</time>
      </trkpt>
      <trkpt lat="49.25007" lon="4.01974">
        <ele>78.6</ele>
        <time>2026-08-24T14:47:21Z</time>
      </trkpt>
      <trkpt lat="49.2501" lon="4.01976">
        <ele>78.6</ele>
        <time>2026-08-24T14:47:22Z</time>
      </trkpt>
      <trkpt lat="49.25013" lon="4.01979">
        <ele>78.4</ele>
        <time>2026-08-24T14:47:23Z</time>
      </trkpt>
      <trkpt lat="49.25015" lon="4.01982">
        <ele>78.4</ele>
        <time>2026-08-24T14:47:24Z</time>
      </trkpt>
      <trkpt lat="49.25017" lon="4.01987">
        <ele>78.4</ele>
        <time>2026-08-24T14:47:25Z</time>
      </trkpt>
      <trkpt lat="49.25019" lon="4.01993">
        <ele>78.4</ele>
        <time>2026-08-24T14:47:26Z</time>
      </trkpt>
      <trkpt lat="49.25021" lon="4.01998">
        <ele>78.4</ele>
        <time>2026-08-24T14:47:27Z</time>
      </trkpt>
      <trkpt lat="49.25023" lon="4.02004">
        <ele>78.4</ele>
        <time>2026-08-24T14:47:28Z</time>
      </trkpt>
      <trkpt lat="49.25025" lon="4.0201">
        <ele>78.4</ele>
        <time>2026-08-24T14:47:29Z</time>
      </trkpt>
      <trkpt lat="49.25028" lon="4.02015">
        <ele>78.6</ele>
        <time>2026-08-24T14:47:30Z</time>
      </trkpt>
      <trkpt lat="49.2503" lon="4.02021">
        <ele>78.8</ele>
        <time>2026-08-24T14:47:31Z</time>
      </trkpt>
      <trkpt lat="49.25032" lon="4.02028">
        <ele>78.8</ele>
        <time>2026-08-24T14:47:32Z</time>
      </trkpt>
      <trkpt lat="49.25035" lon="4.02034">
        <ele>79</ele>
        <time>2026-08-24T14:47:33Z</time>
      </trkpt>
      <trkpt lat="49.25037" lon="4.02041">
        <ele>79</ele>
        <time>2026-08-24T14:47:34Z</time>
      </trkpt>
      <trkpt lat="49.25039" lon="4.02047">
        <ele>79.2</ele>
        <time>2026-08-24T14:47:35Z</time>
      </trkpt>
      <trkpt lat="49.25042" lon="4.02054">
        <ele>79.2</ele>
        <time>2026-08-24T14:47:36Z</time>
      </trkpt>
      <trkpt lat="49.25045" lon="4.02061">
        <ele>79.4</ele>
        <time>2026-08-24T14:47:37Z</time>
      </trkpt>
      <trkpt lat="49.25047" lon="4.02068">
        <ele>79.4</ele>
        <time>2026-08-24T14:47:38Z</time>
      </trkpt>
      <trkpt lat="49.2505" lon="4.02074">
        <ele>79.6</ele>
        <time>2026-08-24T14:47:39Z</time>
      </trkpt>
      <trkpt lat="49.25053" lon="4.02081">
        <ele>79.8</ele>
        <time>2026-08-24T14:47:40Z</time>
      </trkpt>
      <trkpt lat="49.25056" lon="4.02088">
        <ele>80</ele>
        <time>2026-08-24T14:47:41Z</time>
      </trkpt>
      <trkpt lat="49.2506" lon="4.02095">
        <ele>80.2</ele>
        <time>2026-08-24T14:47:42Z</time>
      </trkpt>
      <trkpt lat="49.25063" lon="4.02101">
        <ele>80.4</ele>
        <time>2026-08-24T14:47:43Z</time>
      </trkpt>
      <trkpt lat="49.25065" lon="4.02109">
        <ele>80.8</ele>
        <time>2026-08-24T14:47:44Z</time>
      </trkpt>
      <trkpt lat="49.25068" lon="4.02116">
        <ele>81</ele>
        <time>2026-08-24T14:47:45Z</time>
      </trkpt>
      <trkpt lat="49.2507" lon="4.02123">
        <ele>81.4</ele>
        <time>2026-08-24T14:47:46Z</time>
      </trkpt>
      <trkpt lat="49.25073" lon="4.02131">
        <ele>81.6</ele>
        <time>2026-08-24T14:47:47Z</time>
      </trkpt>
      <trkpt lat="49.25076" lon="4.02138">
        <ele>82</ele>
        <time>2026-08-24T14:47:48Z</time>
      </trkpt>
      <trkpt lat="49.25078" lon="4.02146">
        <ele>82.2</ele>
        <time>2026-08-24T14:47:49Z</time>
      </trkpt>
      <trkpt lat="49.25081" lon="4.02153">
        <ele>82.4</ele>
        <time>2026-08-24T14:47:50Z</time>
      </trkpt>
      <trkpt lat="49.25084" lon="4.02161">
        <ele>82.6</ele>
        <time>2026-08-24T14:47:51Z</time>
      </trkpt>
      <trkpt lat="49.25087" lon="4.02169">
        <ele>82.8</ele>
        <time>2026-08-24T14:47:52Z</time>
      </trkpt>
      <trkpt lat="49.2509" lon="4.02177">
        <ele>83</ele>
        <time>2026-08-24T14:47:53Z</time>
      </trkpt>
      <trkpt lat="49.25093" lon="4.02185">
        <ele>83</ele>
        <time>2026-08-24T14:47:54Z</time>
      </trkpt>
      <trkpt lat="49.25096" lon="4.02193">
        <ele>83.2</ele>
        <time>2026-08-24T14:47:55Z</time>
      </trkpt>
      <trkpt lat="49.25099" lon="4.02201">
        <ele>83.2</ele>
        <time>2026-08-24T14:47:56Z</time>
      </trkpt>
      <trkpt lat="49.25102" lon="4.02208">
        <ele>83.2</ele>
        <time>2026-08-24T14:47:57Z</time>
      </trkpt>
      <trkpt lat="49.25105" lon="4.02217">
        <ele>83.2</ele>
        <time>2026-08-24T14:47:58Z</time>
      </trkpt>
      <trkpt lat="49.25108" lon="4.02225">
        <ele>83.2</ele>
        <time>2026-08-24T14:47:59Z</time>
      </trkpt>
      <trkpt lat="49.25111" lon="4.02234">
        <ele>83</ele>
        <time>2026-08-24T14:48:00Z</time>
      </trkpt>
      <trkpt lat="49.25115" lon="4.02243">
        <ele>82.8</ele>
        <time>2026-08-24T14:48:01Z</time>
      </trkpt>
      <trkpt lat="49.25118" lon="4.02252">
        <ele>82.6</ele>
        <time>2026-08-24T14:48:02Z</time>
      </trkpt>
      <trkpt lat="49.25122" lon="4.02261">
        <ele>82.2</ele>
        <time>2026-08-24T14:48:03Z</time>
      </trkpt>
      <trkpt lat="49.25125" lon="4.02271">
        <ele>81.8</ele>
        <time>2026-08-24T14:48:04Z</time>
      </trkpt>
      <trkpt lat="49.25128" lon="4.0228">
        <ele>81.6</ele>
        <time>2026-08-24T14:48:05Z</time>
      </trkpt>
      <trkpt lat="49.25131" lon="4.0229">
        <ele>81.2</ele>
        <time>2026-08-24T14:48:06Z</time>
      </trkpt>
      <trkpt lat="49.25134" lon="4.02298">
        <ele>81</ele>
        <time>2026-08-24T14:48:07Z</time>
      </trkpt>
      <trkpt lat="49.25136" lon="4.02306">
        <ele>81</ele>
        <time>2026-08-24T14:48:08Z</time>
      </trkpt>
      <trkpt lat="49.25138" lon="4.02313">
        <ele>80.8</ele>
        <time>2026-08-24T14:48:09Z</time>
      </trkpt>
      <trkpt lat="49.2514" lon="4.0232">
        <ele>80.8</ele>
        <time>2026-08-24T14:48:10Z</time>
      </trkpt>
      <trkpt lat="49.25142" lon="4.02326">
        <ele>80.6</ele>
        <time>2026-08-24T14:48:11Z</time>
      </trkpt>
      <trkpt lat="49.25145" lon="4.02331">
        <ele>80.6</ele>
        <time>2026-08-24T14:48:12Z</time>
      </trkpt>
      <trkpt lat="49.25148" lon="4.02334">
        <ele>80.8</ele>
        <time>2026-08-24T14:48:13Z</time>
      </trkpt>
      <trkpt lat="49.25151" lon="4.02335">
        <ele>80.8</ele>
        <time>2026-08-24T14:48:14Z</time>
      </trkpt>
      <trkpt lat="49.25155" lon="4.02335">
        <ele>80.8</ele>
        <time>2026-08-24T14:48:15Z</time>
      </trkpt>
      <trkpt lat="49.2516" lon="4.02335">
        <ele>80.8</ele>
        <time>2026-08-24T14:48:16Z</time>
      </trkpt>
      <trkpt lat="49.25164" lon="4.02334">
        <ele>80.6</ele>
        <time>2026-08-24T14:48:17Z</time>
      </trkpt>
      <trkpt lat="49.25169" lon="4.02333">
        <ele>80.6</ele>
        <time>2026-08-24T14:48:18Z</time>
      </trkpt>
      <trkpt lat="49.25174" lon="4.0233">
        <ele>80.4</ele>
        <time>2026-08-24T14:48:19Z</time>
      </trkpt>
      <trkpt lat="49.25179" lon="4.02327">
        <ele>80.2</ele>
        <time>2026-08-24T14:48:20Z</time>
      </trkpt>
      <trkpt lat="49.25184" lon="4.02322">
        <ele>80</ele>
        <time>2026-08-24T14:48:21Z</time>
      </trkpt>
      <trkpt lat="49.25189" lon="4.02316">
        <ele>79.8</ele>
        <time>2026-08-24T14:48:22Z</time>
      </trkpt>
      <trkpt lat="49.25194" lon="4.0231">
        <ele>79.6</ele>
        <time>2026-08-24T14:48:23Z</time>
      </trkpt>
      <trkpt lat="49.252" lon="4.02303">
        <ele>79.2</ele>
        <time>2026-08-24T14:48:24Z</time>
      </trkpt>
      <trkpt lat="49.25205" lon="4.02297">
        <ele>79.2</ele>
        <time>2026-08-24T14:48:25Z</time>
      </trkpt>
      <trkpt lat="49.25211" lon="4.0229">
        <ele>78.8</ele>
        <time>2026-08-24T14:48:26Z</time>
      </trkpt>
      <trkpt lat="49.25217" lon="4.02283">
        <ele>78.6</ele>
        <time>2026-08-24T14:48:27Z</time>
      </trkpt>
      <trkpt lat="49.25222" lon="4.02277">
        <ele>78.4</ele>
        <time>2026-08-24T14:48:28Z</time>
      </trkpt>
      <trkpt lat="49.25228" lon="4.0227">
        <ele>78.4</ele>
        <time>2026-08-24T14:48:29Z</time>
      </trkpt>
      <trkpt lat="49.25233" lon="4.02263">
        <ele>78.2</ele>
        <time>2026-08-24T14:48:30Z</time>
      </trkpt>
      <trkpt lat="49.25239" lon="4.02257">
        <ele>78.2</ele>
        <time>2026-08-24T14:48:31Z</time>
      </trkpt>
      <trkpt lat="49.25244" lon="4.02251">
        <ele>78</ele>
        <time>2026-08-24T14:48:32Z</time>
      </trkpt>
      <trkpt lat="49.25249" lon="4.02245">
        <ele>78</ele>
        <time>2026-08-24T14:48:33Z</time>
      </trkpt>
      <trkpt lat="49.25254" lon="4.02239">
        <ele>77.8</ele>
        <time>2026-08-24T14:48:34Z</time>
      </trkpt>
      <trkpt lat="49.25259" lon="4.02233">
        <ele>77.8</ele>
        <time>2026-08-24T14:48:35Z</time>
      </trkpt>
      <trkpt lat="49.25264" lon="4.02226">
        <ele>77.8</ele>
        <time>2026-08-24T14:48:36Z</time>
      </trkpt>
      <trkpt lat="49.25269" lon="4.0222">
        <ele>78</ele>
        <time>2026-08-24T14:48:37Z</time>
      </trkpt>
      <trkpt lat="49.25274" lon="4.02215">
        <ele>78</ele>
        <time>2026-08-24T14:48:38Z</time>
      </trkpt>
      <trkpt lat="49.25278" lon="4.02209">
        <ele>78</ele>
        <time>2026-08-24T14:48:39Z</time>
      </trkpt>
      <trkpt lat="49.25282" lon="4.02205">
        <ele>78.2</ele>
        <time>2026-08-24T14:48:40Z</time>
      </trkpt>
      <trkpt lat="49.25285" lon="4.02202">
        <ele>78.2</ele>
        <time>2026-08-24T14:48:41Z</time>
      </trkpt>
      <trkpt lat="49.25288" lon="4.02199">
        <ele>78.2</ele>
        <time>2026-08-24T14:48:42Z</time>
      </trkpt>
      <trkpt lat="49.25291" lon="4.02197">
        <ele>78.2</ele>
        <time>2026-08-24T14:48:43Z</time>
      </trkpt>
      <trkpt lat="49.25294" lon="4.02194">
        <ele>78.2</ele>
        <time>2026-08-24T14:48:44Z</time>
      </trkpt>
      <trkpt lat="49.25297" lon="4.02194">
        <ele>78.2</ele>
        <time>2026-08-24T14:48:45Z</time>
      </trkpt>
      <trkpt lat="49.25301" lon="4.02196">
        <ele>78</ele>
        <time>2026-08-24T14:48:46Z</time>
      </trkpt>
      <trkpt lat="49.25304" lon="4.022">
        <ele>78</ele>
        <time>2026-08-24T14:48:47Z</time>
      </trkpt>
      <trkpt lat="49.25307" lon="4.02205">
        <ele>77.8</ele>
        <time>2026-08-24T14:48:48Z</time>
      </trkpt>
      <trkpt lat="49.2531" lon="4.0221">
        <ele>77.8</ele>
        <time>2026-08-24T14:48:49Z</time>
      </trkpt>
      <trkpt lat="49.25313" lon="4.02216">
        <ele>77.8</ele>
        <time>2026-08-24T14:48:50Z</time>
      </trkpt>
      <trkpt lat="49.25316" lon="4.02222">
        <ele>77.6</ele>
        <time>2026-08-24T14:48:51Z</time>
      </trkpt>
      <trkpt lat="49.25319" lon="4.02229">
        <ele>77.6</ele>
        <time>2026-08-24T14:48:52Z</time>
      </trkpt>
      <trkpt lat="49.25322" lon="4.02236">
        <ele>77.6</ele>
        <time>2026-08-24T14:48:53Z</time>
      </trkpt>
      <trkpt lat="49.25326" lon="4.02242">
        <ele>77.6</ele>
        <time>2026-08-24T14:48:54Z</time>
      </trkpt>
      <trkpt lat="49.25329" lon="4.02249">
        <ele>77.6</ele>
        <time>2026-08-24T14:48:55Z</time>
      </trkpt>
      <trkpt lat="49.25332" lon="4.02257">
        <ele>77.6</ele>
        <time>2026-08-24T14:48:56Z</time>
      </trkpt>
      <trkpt lat="49.25336" lon="4.02264">
        <ele>77.8</ele>
        <time>2026-08-24T14:48:57Z</time>
      </trkpt>
      <trkpt lat="49.25339" lon="4.02271">
        <ele>77.8</ele>
        <time>2026-08-24T14:48:58Z</time>
      </trkpt>
      <trkpt lat="49.25343" lon="4.02278">
        <ele>77.6</ele>
        <time>2026-08-24T14:48:59Z</time>
      </trkpt>
      <trkpt lat="49.25346" lon="4.02285">
        <ele>77.6</ele>
        <time>2026-08-24T14:49:00Z</time>
      </trkpt>
      <trkpt lat="49.2535" lon="4.02292">
        <ele>77.6</ele>
        <time>2026-08-24T14:49:01Z</time>
      </trkpt>
      <trkpt lat="49.25353" lon="4.023">
        <ele>77.4</ele>
        <time>2026-08-24T14:49:02Z</time>
      </trkpt>
      <trkpt lat="49.25356" lon="4.02308">
        <ele>77.4</ele>
        <time>2026-08-24T14:49:03Z</time>
      </trkpt>
      <trkpt lat="49.25359" lon="4.02315">
        <ele>77.4</ele>
        <time>2026-08-24T14:49:04Z</time>
      </trkpt>
      <trkpt lat="49.25363" lon="4.02323">
        <ele>77.4</ele>
        <time>2026-08-24T14:49:05Z</time>
      </trkpt>
      <trkpt lat="49.25366" lon="4.02331">
        <ele>77.4</ele>
        <time>2026-08-24T14:49:06Z</time>
      </trkpt>
      <trkpt lat="49.25369" lon="4.02339">
        <ele>77.4</ele>
        <time>2026-08-24T14:49:07Z</time>
      </trkpt>
      <trkpt lat="49.25372" lon="4.02346">
        <ele>77.6</ele>
        <time>2026-08-24T14:49:08Z</time>
      </trkpt>
      <trkpt lat="49.25374" lon="4.02353">
        <ele>77.6</ele>
        <time>2026-08-24T14:49:09Z</time>
      </trkpt>
      <trkpt lat="49.25377" lon="4.0236">
        <ele>77.8</ele>
        <time>2026-08-24T14:49:10Z</time>
      </trkpt>
      <trkpt lat="49.25379" lon="4.02365">
        <ele>78.2</ele>
        <time>2026-08-24T14:49:11Z</time>
      </trkpt>
      <trkpt lat="49.25381" lon="4.02371">
        <ele>78.4</ele>
        <time>2026-08-24T14:49:12Z</time>
      </trkpt>
      <trkpt lat="49.25384" lon="4.02377">
        <ele>78.8</ele>
        <time>2026-08-24T14:49:13Z</time>
      </trkpt>
      <trkpt lat="49.25386" lon="4.02383">
        <ele>79</ele>
        <time>2026-08-24T14:49:14Z</time>
      </trkpt>
      <trkpt lat="49.25389" lon="4.02389">
        <ele>79</ele>
        <time>2026-08-24T14:49:15Z</time>
      </trkpt>
      <trkpt lat="49.25391" lon="4.02395">
        <ele>79</ele>
        <time>2026-08-24T14:49:16Z</time>
      </trkpt>
      <trkpt lat="49.25394" lon="4.02402">
        <ele>79</ele>
        <time>2026-08-24T14:49:17Z</time>
      </trkpt>
      <trkpt lat="49.25396" lon="4.02409">
        <ele>78.8</ele>
        <time>2026-08-24T14:49:18Z</time>
      </trkpt>
      <trkpt lat="49.25398" lon="4.02417">
        <ele>79</ele>
        <time>2026-08-24T14:49:19Z</time>
      </trkpt>
      <trkpt lat="49.25401" lon="4.02424">
        <ele>79</ele>
        <time>2026-08-24T14:49:20Z</time>
      </trkpt>
      <trkpt lat="49.25404" lon="4.02431">
        <ele>79</ele>
        <time>2026-08-24T14:49:21Z</time>
      </trkpt>
      <trkpt lat="49.25407" lon="4.02439">
        <ele>79</ele>
        <time>2026-08-24T14:49:22Z</time>
      </trkpt>
      <trkpt lat="49.25409" lon="4.02446">
        <ele>79</ele>
        <time>2026-08-24T14:49:23Z</time>
      </trkpt>
      <trkpt lat="49.25412" lon="4.02454">
        <ele>79</ele>
        <time>2026-08-24T14:49:24Z</time>
      </trkpt>
      <trkpt lat="49.25415" lon="4.02461">
        <ele>79</ele>
        <time>2026-08-24T14:49:25Z</time>
      </trkpt>
      <trkpt lat="49.25418" lon="4.02468">
        <ele>79</ele>
        <time>2026-08-24T14:49:26Z</time>
      </trkpt>
      <trkpt lat="49.25421" lon="4.02476">
        <ele>79</ele>
        <time>2026-08-24T14:49:27Z</time>
      </trkpt>
      <trkpt lat="49.25424" lon="4.02483">
        <ele>79</ele>
        <time>2026-08-24T14:49:28Z</time>
      </trkpt>
      <trkpt lat="49.25426" lon="4.0249">
        <ele>78.8</ele>
        <time>2026-08-24T14:49:29Z</time>
      </trkpt>
      <trkpt lat="49.25429" lon="4.02497">
        <ele>78.8</ele>
        <time>2026-08-24T14:49:30Z</time>
      </trkpt>
      <trkpt lat="49.25432" lon="4.02503">
        <ele>78.8</ele>
        <time>2026-08-24T14:49:31Z</time>
      </trkpt>
      <trkpt lat="49.25435" lon="4.0251">
        <ele>78.8</ele>
        <time>2026-08-24T14:49:32Z</time>
      </trkpt>
      <trkpt lat="49.25437" lon="4.02517">
        <ele>79</ele>
        <time>2026-08-24T14:49:33Z</time>
      </trkpt>
      <trkpt lat="49.25439" lon="4.02523">
        <ele>79.2</ele>
        <time>2026-08-24T14:49:34Z</time>
      </trkpt>
      <trkpt lat="49.25441" lon="4.02529">
        <ele>79.2</ele>
        <time>2026-08-24T14:49:35Z</time>
      </trkpt>
      <trkpt lat="49.25443" lon="4.02535">
        <ele>79.4</ele>
        <time>2026-08-24T14:49:36Z</time>
      </trkpt>
      <trkpt lat="49.25445" lon="4.02541">
        <ele>79.6</ele>
        <time>2026-08-24T14:49:37Z</time>
      </trkpt>
      <trkpt lat="49.25448" lon="4.02546">
        <ele>79.8</ele>
        <time>2026-08-24T14:49:38Z</time>
      </trkpt>
      <trkpt lat="49.2545" lon="4.02552">
        <ele>79.8</ele>
        <time>2026-08-24T14:49:39Z</time>
      </trkpt>
      <trkpt lat="49.25452" lon="4.02558">
        <ele>80</ele>
        <time>2026-08-24T14:49:40Z</time>
      </trkpt>
      <trkpt lat="49.25454" lon="4.02564">
        <ele>80.2</ele>
        <time>2026-08-24T14:49:41Z</time>
      </trkpt>
      <trkpt lat="49.25456" lon="4.02571">
        <ele>80.2</ele>
        <time>2026-08-24T14:49:42Z</time>
      </trkpt>
      <trkpt lat="49.25458" lon="4.02577">
        <ele>80.2</ele>
        <time>2026-08-24T14:49:43Z</time>
      </trkpt>
      <trkpt lat="49.25461" lon="4.02583">
        <ele>80.4</ele>
        <time>2026-08-24T14:49:44Z</time>
      </trkpt>
      <trkpt lat="49.25463" lon="4.0259">
        <ele>80.2</ele>
        <time>2026-08-24T14:49:45Z</time>
      </trkpt>
      <trkpt lat="49.25466" lon="4.02597">
        <ele>80.2</ele>
        <time>2026-08-24T14:49:46Z</time>
      </trkpt>
      <trkpt lat="49.25468" lon="4.02603">
        <ele>80.2</ele>
        <time>2026-08-24T14:49:47Z</time>
      </trkpt>
      <trkpt lat="49.25471" lon="4.0261">
        <ele>80.4</ele>
        <time>2026-08-24T14:49:48Z</time>
      </trkpt>
      <trkpt lat="49.25474" lon="4.02618">
        <ele>80.2</ele>
        <time>2026-08-24T14:49:49Z</time>
      </trkpt>
      <trkpt lat="49.25476" lon="4.02625">
        <ele>80.2</ele>
        <time>2026-08-24T14:49:50Z</time>
      </trkpt>
      <trkpt lat="49.25479" lon="4.02632">
        <ele>80.2</ele>
        <time>2026-08-24T14:49:51Z</time>
      </trkpt>
      <trkpt lat="49.25481" lon="4.02639">
        <ele>80.2</ele>
        <time>2026-08-24T14:49:52Z</time>
      </trkpt>
      <trkpt lat="49.25483" lon="4.02647">
        <ele>80.2</ele>
        <time>2026-08-24T14:49:53Z</time>
      </trkpt>
      <trkpt lat="49.25486" lon="4.02654">
        <ele>80.4</ele>
        <time>2026-08-24T14:49:54Z</time>
      </trkpt>
      <trkpt lat="49.25489" lon="4.02661">
        <ele>80.4</ele>
        <time>2026-08-24T14:49:55Z</time>
      </trkpt>
      <trkpt lat="49.25491" lon="4.02668">
        <ele>80.4</ele>
        <time>2026-08-24T14:49:56Z</time>
      </trkpt>
      <trkpt lat="49.25494" lon="4.02674">
        <ele>80.4</ele>
        <time>2026-08-24T14:49:57Z</time>
      </trkpt>
      <trkpt lat="49.25497" lon="4.02681">
        <ele>80.4</ele>
        <time>2026-08-24T14:49:58Z</time>
      </trkpt>
      <trkpt lat="49.25499" lon="4.02687">
        <ele>80.4</ele>
        <time>2026-08-24T14:49:59Z</time>
      </trkpt>
      <trkpt lat="49.25502" lon="4.02693">
        <ele>80.4</ele>
        <time>2026-08-24T14:50:00Z</time>
      </trkpt>
      <trkpt lat="49.25502" lon="4.02699">
        <ele>80.6</ele>
        <time>2026-08-24T14:50:01Z</time>
      </trkpt>
      <trkpt lat="49.25502" lon="4.02706">
        <ele>81</ele>
        <time>2026-08-24T14:50:02Z</time>
      </trkpt>
      <trkpt lat="49.25502" lon="4.02713">
        <ele>81.2</ele>
        <time>2026-08-24T14:50:03Z</time>
      </trkpt>
      <trkpt lat="49.25502" lon="4.02719">
        <ele>81.6</ele>
        <time>2026-08-24T14:50:04Z</time>
      </trkpt>
      <trkpt lat="49.25502" lon="4.02724">
        <ele>82</ele>
        <time>2026-08-24T14:50:05Z</time>
      </trkpt>
      <trkpt lat="49.25503" lon="4.02728">
        <ele>82</ele>
        <time>2026-08-24T14:50:06Z</time>
      </trkpt>
      <trkpt lat="49.25504" lon="4.02732">
        <ele>81.8</ele>
        <time>2026-08-24T14:50:07Z</time>
      </trkpt>
      <trkpt lat="49.25505" lon="4.02735">
        <ele>81.8</ele>
        <time>2026-08-24T14:50:08Z</time>
      </trkpt>
      <trkpt lat="49.25507" lon="4.02738">
        <ele>81.8</ele>
        <time>2026-08-24T14:50:09Z</time>
      </trkpt>
      <trkpt lat="49.25509" lon="4.02741">
        <ele>81.8</ele>
        <time>2026-08-24T14:50:10Z</time>
      </trkpt>
      <trkpt lat="49.25511" lon="4.02744">
        <ele>81.8</ele>
        <time>2026-08-24T14:50:11Z</time>
      </trkpt>
      <trkpt lat="49.25514" lon="4.02746">
        <ele>81.8</ele>
        <time>2026-08-24T14:50:12Z</time>
      </trkpt>
      <trkpt lat="49.25516" lon="4.02749">
        <ele>81.8</ele>
        <time>2026-08-24T14:50:13Z</time>
      </trkpt>
      <trkpt lat="49.25517" lon="4.0275">
        <ele>81.6</ele>
        <time>2026-08-24T14:50:14Z</time>
      </trkpt>
      <trkpt lat="49.25518" lon="4.02751">
        <ele>81.6</ele>
        <time>2026-08-24T14:50:15Z</time>
      </trkpt>
      <trkpt lat="49.25519" lon="4.02751">
        <ele>81.6</ele>
        <time>2026-08-24T14:50:16Z</time>
      </trkpt>
      <trkpt lat="49.2552" lon="4.02752">
        <ele>81.6</ele>
        <time>2026-08-24T14:50:17Z</time>
      </trkpt>
      <trkpt lat="49.25521" lon="4.02754">
        <ele>81.8</ele>
        <time>2026-08-24T14:50:18Z</time>
      </trkpt>
      <trkpt lat="49.25522" lon="4.02756">
        <ele>81.8</ele>
        <time>2026-08-24T14:50:19Z</time>
      </trkpt>
      <trkpt lat="49.25523" lon="4.02758">
        <ele>81.8</ele>
        <time>2026-08-24T14:50:20Z</time>
      </trkpt>
      <trkpt lat="49.25524" lon="4.02761">
        <ele>81.8</ele>
        <time>2026-08-24T14:50:21Z</time>
      </trkpt>
      <trkpt lat="49.25525" lon="4.02764">
        <ele>81.8</ele>
        <time>2026-08-24T14:50:22Z</time>
      </trkpt>
      <trkpt lat="49.25526" lon="4.02768">
        <ele>81.8</ele>
        <time>2026-08-24T14:50:23Z</time>
      </trkpt>
      <trkpt lat="49.25527" lon="4.02771">
        <ele>81.8</ele>
        <time>2026-08-24T14:50:24Z</time>
      </trkpt>
      <trkpt lat="49.25528" lon="4.02775">
        <ele>81.8</ele>
        <time>2026-08-24T14:50:25Z</time>
      </trkpt>
      <trkpt lat="49.25529" lon="4.02778">
        <ele>81.8</ele>
        <time>2026-08-24T14:50:26Z</time>
      </trkpt>
      <trkpt lat="49.25531" lon="4.02782">
        <ele>81.8</ele>
        <time>2026-08-24T14:50:27Z</time>
      </trkpt>
      <trkpt lat="49.25532" lon="4.02785">
        <ele>81.8</ele>
        <time>2026-08-24T14:50:28Z</time>
      </trkpt>
      <trkpt lat="49.25534" lon="4.02789">
        <ele>82</ele>
        <time>2026-08-24T14:50:29Z</time>
      </trkpt>
      <trkpt lat="49.25535" lon="4.02792">
        <ele>82</ele>
        <time>2026-08-24T14:50:30Z</time>
      </trkpt>
      <trkpt lat="49.25537" lon="4.02796">
        <ele>82</ele>
        <time>2026-08-24T14:50:31Z</time>
      </trkpt>
      <trkpt lat="49.25538" lon="4.028">
        <ele>82</ele>
        <time>2026-08-24T14:50:32Z</time>
      </trkpt>
      <trkpt lat="49.25539" lon="4.02805">
        <ele>82</ele>
        <time>2026-08-24T14:50:33Z</time>
      </trkpt>
      <trkpt lat="49.25541" lon="4.0281">
        <ele>81.8</ele>
        <time>2026-08-24T14:50:34Z</time>
      </trkpt>
      <trkpt lat="49.25542" lon="4.02816">
        <ele>81.6</ele>
        <time>2026-08-24T14:50:35Z</time>
      </trkpt>
      <trkpt lat="49.25544" lon="4.02821">
        <ele>81.6</ele>
        <time>2026-08-24T14:50:36Z</time>
      </trkpt>
      <trkpt lat="49.25546" lon="4.02826">
        <ele>81.6</ele>
        <time>2026-08-24T14:50:37Z</time>
      </trkpt>
      <trkpt lat="49.25548" lon="4.02832">
        <ele>81.8</ele>
        <time>2026-08-24T14:50:38Z</time>
      </trkpt>
      <trkpt lat="49.2555" lon="4.02837">
        <ele>82</ele>
        <time>2026-08-24T14:50:39Z</time>
      </trkpt>
      <trkpt lat="49.25552" lon="4.02843">
        <ele>82</ele>
        <time>2026-08-24T14:50:40Z</time>
      </trkpt>
      <trkpt lat="49.25553" lon="4.02848">
        <ele>82</ele>
        <time>2026-08-24T14:50:41Z</time>
      </trkpt>
      <trkpt lat="49.25555" lon="4.02854">
        <ele>82.2</ele>
        <time>2026-08-24T14:50:42Z</time>
      </trkpt>
      <trkpt lat="49.25557" lon="4.02858">
        <ele>82</ele>
        <time>2026-08-24T14:50:43Z</time>
      </trkpt>
      <trkpt lat="49.25558" lon="4.02862">
        <ele>82</ele>
        <time>2026-08-24T14:50:44Z</time>
      </trkpt>
      <trkpt lat="49.2556" lon="4.02865">
        <ele>82.2</ele>
        <time>2026-08-24T14:50:45Z</time>
      </trkpt>
      <trkpt lat="49.25561" lon="4.02868">
        <ele>82.4</ele>
        <time>2026-08-24T14:50:46Z</time>
      </trkpt>
      <trkpt lat="49.25562" lon="4.02869">
        <ele>82.4</ele>
        <time>2026-08-24T14:50:47Z</time>
      </trkpt>
      <trkpt lat="49.25563" lon="4.02871">
        <ele>82.6</ele>
        <time>2026-08-24T14:50:48Z</time>
      </trkpt>
      <trkpt lat="49.25564" lon="4.02873">
        <ele>82.6</ele>
        <time>2026-08-24T14:50:49Z</time>
      </trkpt>
      <trkpt lat="49.25564" lon="4.02873">
        <ele>82.8</ele>
        <time>2026-08-24T14:50:50Z</time>
      </trkpt>
      <trkpt lat="49.25564" lon="4.02873">
        <ele>82.8</ele>
        <time>2026-08-24T14:50:51Z</time>
      </trkpt>
      <trkpt lat="49.25566" lon="4.0288">
        <ele>83</ele>
        <time>2026-08-24T14:51:06Z</time>
      </trkpt>
      <trkpt lat="49.25566" lon="4.02882">
        <ele>83</ele>
        <time>2026-08-24T14:51:07Z</time>
      </trkpt>
      <trkpt lat="49.25565" lon="4.02884">
        <ele>83</ele>
        <time>2026-08-24T14:51:08Z</time>
      </trkpt>
      <trkpt lat="49.25566" lon="4.02887">
        <ele>83</ele>
        <time>2026-08-24T14:51:09Z</time>
      </trkpt>
      <trkpt lat="49.25566" lon="4.0289">
        <ele>83</ele>
        <time>2026-08-24T14:51:10Z</time>
      </trkpt>
      <trkpt lat="49.25567" lon="4.02893">
        <ele>83</ele>
        <time>2026-08-24T14:51:11Z</time>
      </trkpt>
      <trkpt lat="49.25567" lon="4.02897">
        <ele>83</ele>
        <time>2026-08-24T14:51:12Z</time>
      </trkpt>
      <trkpt lat="49.25568" lon="4.029">
        <ele>83</ele>
        <time>2026-08-24T14:51:13Z</time>
      </trkpt>
      <trkpt lat="49.25568" lon="4.02902">
        <ele>83</ele>
        <time>2026-08-24T14:51:14Z</time>
      </trkpt>
      <trkpt lat="49.25568" lon="4.02904">
        <ele>83</ele>
        <time>2026-08-24T14:51:15Z</time>
      </trkpt>
      <trkpt lat="49.25569" lon="4.02906">
        <ele>83</ele>
        <time>2026-08-24T14:51:16Z</time>
      </trkpt>
      <trkpt lat="49.2557" lon="4.02909">
        <ele>83</ele>
        <time>2026-08-24T14:51:17Z</time>
      </trkpt>
      <trkpt lat="49.25571" lon="4.02912">
        <ele>83</ele>
        <time>2026-08-24T14:51:18Z</time>
      </trkpt>
      <trkpt lat="49.25572" lon="4.02916">
        <ele>83</ele>
        <time>2026-08-24T14:51:19Z</time>
      </trkpt>
      <trkpt lat="49.25573" lon="4.0292">
        <ele>83</ele>
        <time>2026-08-24T14:51:20Z</time>
      </trkpt>
      <trkpt lat="49.25575" lon="4.02925">
        <ele>83</ele>
        <time>2026-08-24T14:51:21Z</time>
      </trkpt>
      <trkpt lat="49.25576" lon="4.02929">
        <ele>83</ele>
        <time>2026-08-24T14:51:22Z</time>
      </trkpt>
      <trkpt lat="49.25578" lon="4.02934">
        <ele>83</ele>
        <time>2026-08-24T14:51:23Z</time>
      </trkpt>
      <trkpt lat="49.2558" lon="4.02939">
        <ele>83</ele>
        <time>2026-08-24T14:51:24Z</time>
      </trkpt>
      <trkpt lat="49.25582" lon="4.02944">
        <ele>83.2</ele>
        <time>2026-08-24T14:51:25Z</time>
      </trkpt>
      <trkpt lat="49.25584" lon="4.02948">
        <ele>83.2</ele>
        <time>2026-08-24T14:51:26Z</time>
      </trkpt>
      <trkpt lat="49.25585" lon="4.02953">
        <ele>83.4</ele>
        <time>2026-08-24T14:51:27Z</time>
      </trkpt>
      <trkpt lat="49.25587" lon="4.02959">
        <ele>83.4</ele>
        <time>2026-08-24T14:51:28Z</time>
      </trkpt>
      <trkpt lat="49.25588" lon="4.02964">
        <ele>83.6</ele>
        <time>2026-08-24T14:51:29Z</time>
      </trkpt>
      <trkpt lat="49.25589" lon="4.02969">
        <ele>83.6</ele>
        <time>2026-08-24T14:51:30Z</time>
      </trkpt>
      <trkpt lat="49.25591" lon="4.02974">
        <ele>83.8</ele>
        <time>2026-08-24T14:51:31Z</time>
      </trkpt>
      <trkpt lat="49.25592" lon="4.02979">
        <ele>84</ele>
        <time>2026-08-24T14:51:32Z</time>
      </trkpt>
      <trkpt lat="49.25594" lon="4.02983">
        <ele>84</ele>
        <time>2026-08-24T14:51:33Z</time>
      </trkpt>
      <trkpt lat="49.25595" lon="4.02988">
        <ele>84.2</ele>
        <time>2026-08-24T14:51:34Z</time>
      </trkpt>
      <trkpt lat="49.25597" lon="4.02993">
        <ele>84.2</ele>
        <time>2026-08-24T14:51:35Z</time>
      </trkpt>
      <trkpt lat="49.25598" lon="4.02997">
        <ele>84.2</ele>
        <time>2026-08-24T14:51:36Z</time>
      </trkpt>
      <trkpt lat="49.25599" lon="4.03001">
        <ele>84.4</ele>
        <time>2026-08-24T14:51:37Z</time>
      </trkpt>
      <trkpt lat="49.256" lon="4.03005">
        <ele>84.4</ele>
        <time>2026-08-24T14:51:38Z</time>
      </trkpt>
      <trkpt lat="49.25601" lon="4.03008">
        <ele>84.6</ele>
        <time>2026-08-24T14:51:39Z</time>
      </trkpt>
      <trkpt lat="49.25603" lon="4.03011">
        <ele>84.8</ele>
        <time>2026-08-24T14:51:40Z</time>
      </trkpt>
      <trkpt lat="49.25604" lon="4.03014">
        <ele>84.8</ele>
        <time>2026-08-24T14:51:41Z</time>
      </trkpt>
      <trkpt lat="49.25605" lon="4.03017">
        <ele>85</ele>
        <time>2026-08-24T14:51:42Z</time>
      </trkpt>
      <trkpt lat="49.25606" lon="4.0302">
        <ele>85.2</ele>
        <time>2026-08-24T14:51:43Z</time>
      </trkpt>
      <trkpt lat="49.25607" lon="4.03023">
        <ele>85.2</ele>
        <time>2026-08-24T14:51:44Z</time>
      </trkpt>
      <trkpt lat="49.25608" lon="4.03025">
        <ele>85.2</ele>
        <time>2026-08-24T14:51:45Z</time>
      </trkpt>
      <trkpt lat="49.25608" lon="4.03027">
        <ele>85.2</ele>
        <time>2026-08-24T14:51:46Z</time>
      </trkpt>
      <trkpt lat="49.25609" lon="4.03029">
        <ele>85.2</ele>
        <time>2026-08-24T14:51:47Z</time>
      </trkpt>
      <trkpt lat="49.25609" lon="4.0303">
        <ele>85.4</ele>
        <time>2026-08-24T14:51:48Z</time>
      </trkpt>
      <trkpt lat="49.25609" lon="4.0303">
        <ele>85.4</ele>
        <time>2026-08-24T14:51:49Z</time>
      </trkpt>
      <trkpt lat="49.25609" lon="4.0303">
        <ele>85.4</ele>
        <time>2026-08-24T14:51:50Z</time>
      </trkpt>
      <trkpt lat="49.25613" lon="4.03035">
        <ele>85.4</ele>
        <time>2026-08-24T14:51:54Z</time>
      </trkpt>
      <trkpt lat="49.25614" lon="4.03038">
        <ele>85.4</ele>
        <time>2026-08-24T14:51:55Z</time>
      </trkpt>
      <trkpt lat="49.25616" lon="4.03042">
        <ele>85.4</ele>
        <time>2026-08-24T14:51:56Z</time>
      </trkpt>
      <trkpt lat="49.25617" lon="4.03046">
        <ele>85.4</ele>
        <time>2026-08-24T14:51:57Z</time>
      </trkpt>
      <trkpt lat="49.25619" lon="4.0305">
        <ele>85.4</ele>
        <time>2026-08-24T14:51:58Z</time>
      </trkpt>
      <trkpt lat="49.25619" lon="4.03055">
        <ele>85.6</ele>
        <time>2026-08-24T14:51:59Z</time>
      </trkpt>
      <trkpt lat="49.25619" lon="4.0306">
        <ele>85.8</ele>
        <time>2026-08-24T14:52:00Z</time>
      </trkpt>
      <trkpt lat="49.25618" lon="4.03065">
        <ele>86.2</ele>
        <time>2026-08-24T14:52:01Z</time>
      </trkpt>
      <trkpt lat="49.25617" lon="4.03069">
        <ele>86.4</ele>
        <time>2026-08-24T14:52:02Z</time>
      </trkpt>
      <trkpt lat="49.25615" lon="4.03072">
        <ele>86.6</ele>
        <time>2026-08-24T14:52:03Z</time>
      </trkpt>
      <trkpt lat="49.25612" lon="4.03075">
        <ele>86.8</ele>
        <time>2026-08-24T14:52:04Z</time>
      </trkpt>
      <trkpt lat="49.25609" lon="4.03078">
        <ele>86.8</ele>
        <time>2026-08-24T14:52:05Z</time>
      </trkpt>
      <trkpt lat="49.25606" lon="4.0308">
        <ele>86.4</ele>
        <time>2026-08-24T14:52:06Z</time>
      </trkpt>
      <trkpt lat="49.25603" lon="4.03083">
        <ele>86.2</ele>
        <time>2026-08-24T14:52:07Z</time>
      </trkpt>
      <trkpt lat="49.256" lon="4.03086">
        <ele>86</ele>
        <time>2026-08-24T14:52:08Z</time>
      </trkpt>
      <trkpt lat="49.25596" lon="4.03088">
        <ele>86</ele>
        <time>2026-08-24T14:52:09Z</time>
      </trkpt>
      <trkpt lat="49.25593" lon="4.03091">
        <ele>86</ele>
        <time>2026-08-24T14:52:10Z</time>
      </trkpt>
      <trkpt lat="49.25589" lon="4.03094">
        <ele>85.8</ele>
        <time>2026-08-24T14:52:11Z</time>
      </trkpt>
      <trkpt lat="49.25586" lon="4.03096">
        <ele>85.8</ele>
        <time>2026-08-24T14:52:12Z</time>
      </trkpt>
      <trkpt lat="49.25582" lon="4.03099">
        <ele>85.8</ele>
        <time>2026-08-24T14:52:13Z</time>
      </trkpt>
      <trkpt lat="49.25579" lon="4.03102">
        <ele>85.6</ele>
        <time>2026-08-24T14:52:14Z</time>
      </trkpt>
      <trkpt lat="49.25576" lon="4.03106">
        <ele>85.8</ele>
        <time>2026-08-24T14:52:15Z</time>
      </trkpt>
      <trkpt lat="49.25572" lon="4.03109">
        <ele>86.4</ele>
        <time>2026-08-24T14:52:16Z</time>
      </trkpt>
      <trkpt lat="49.25569" lon="4.03112">
        <ele>86.6</ele>
        <time>2026-08-24T14:52:17Z</time>
      </trkpt>
      <trkpt lat="49.25566" lon="4.03115">
        <ele>86.8</ele>
        <time>2026-08-24T14:52:18Z</time>
      </trkpt>
      <trkpt lat="49.25563" lon="4.03118">
        <ele>86.8</ele>
        <time>2026-08-24T14:52:19Z</time>
      </trkpt>
      <trkpt lat="49.25559" lon="4.03121">
        <ele>87</ele>
        <time>2026-08-24T14:52:20Z</time>
      </trkpt>
      <trkpt lat="49.25556" lon="4.03124">
        <ele>87</ele>
        <time>2026-08-24T14:52:21Z</time>
      </trkpt>
      <trkpt lat="49.25553" lon="4.03127">
        <ele>87</ele>
        <time>2026-08-24T14:52:22Z</time>
      </trkpt>
      <trkpt lat="49.2555" lon="4.0313">
        <ele>87</ele>
        <time>2026-08-24T14:52:23Z</time>
      </trkpt>
      <trkpt lat="49.25548" lon="4.03133">
        <ele>87</ele>
        <time>2026-08-24T14:52:24Z</time>
      </trkpt>
      <trkpt lat="49.25548" lon="4.03137">
        <ele>86.8</ele>
        <time>2026-08-24T14:52:25Z</time>
      </trkpt>
      <trkpt lat="49.25548" lon="4.03141">
        <ele>86.8</ele>
        <time>2026-08-24T14:52:26Z</time>
      </trkpt>
      <trkpt lat="49.25549" lon="4.03145">
        <ele>86.6</ele>
        <time>2026-08-24T14:52:27Z</time>
      </trkpt>
      <trkpt lat="49.2555" lon="4.0315">
        <ele>86.6</ele>
        <time>2026-08-24T14:52:28Z</time>
      </trkpt>
      <trkpt lat="49.25552" lon="4.03155">
        <ele>86.4</ele>
        <time>2026-08-24T14:52:29Z</time>
      </trkpt>
      <trkpt lat="49.25554" lon="4.03161">
        <ele>86.2</ele>
        <time>2026-08-24T14:52:30Z</time>
      </trkpt>
      <trkpt lat="49.25556" lon="4.03167">
        <ele>86</ele>
        <time>2026-08-24T14:52:31Z</time>
      </trkpt>
      <trkpt lat="49.25558" lon="4.03172">
        <ele>85.8</ele>
        <time>2026-08-24T14:52:32Z</time>
      </trkpt>
      <trkpt lat="49.2556" lon="4.03179">
        <ele>85.6</ele>
        <time>2026-08-24T14:52:33Z</time>
      </trkpt>
      <trkpt lat="49.25562" lon="4.03185">
        <ele>85.6</ele>
        <time>2026-08-24T14:52:34Z</time>
      </trkpt>
      <trkpt lat="49.25564" lon="4.03192">
        <ele>85.6</ele>
        <time>2026-08-24T14:52:35Z</time>
      </trkpt>
      <trkpt lat="49.25566" lon="4.03198">
        <ele>85.6</ele>
        <time>2026-08-24T14:52:36Z</time>
      </trkpt>
      <trkpt lat="49.25568" lon="4.03204">
        <ele>85.6</ele>
        <time>2026-08-24T14:52:37Z</time>
      </trkpt>
      <trkpt lat="49.2557" lon="4.0321">
        <ele>85.6</ele>
        <time>2026-08-24T14:52:38Z</time>
      </trkpt>
      <trkpt lat="49.25572" lon="4.03217">
        <ele>85.8</ele>
        <time>2026-08-24T14:52:39Z</time>
      </trkpt>
      <trkpt lat="49.25575" lon="4.03223">
        <ele>85.8</ele>
        <time>2026-08-24T14:52:40Z</time>
      </trkpt>
      <trkpt lat="49.25577" lon="4.0323">
        <ele>85.8</ele>
        <time>2026-08-24T14:52:41Z</time>
      </trkpt>
      <trkpt lat="49.25579" lon="4.03236">
        <ele>86</ele>
        <time>2026-08-24T14:52:42Z</time>
      </trkpt>
      <trkpt lat="49.25581" lon="4.03242">
        <ele>86</ele>
        <time>2026-08-24T14:52:43Z</time>
      </trkpt>
      <trkpt lat="49.25583" lon="4.03248">
        <ele>86</ele>
        <time>2026-08-24T14:52:44Z</time>
      </trkpt>
      <trkpt lat="49.25585" lon="4.03253">
        <ele>86</ele>
        <time>2026-08-24T14:52:45Z</time>
      </trkpt>
      <trkpt lat="49.25588" lon="4.03259">
        <ele>86.2</ele>
        <time>2026-08-24T14:52:46Z</time>
      </trkpt>
      <trkpt lat="49.2559" lon="4.03265">
        <ele>86.2</ele>
        <time>2026-08-24T14:52:47Z</time>
      </trkpt>
      <trkpt lat="49.25592" lon="4.0327">
        <ele>86.2</ele>
        <time>2026-08-24T14:52:48Z</time>
      </trkpt>
      <trkpt lat="49.25593" lon="4.03274">
        <ele>86.2</ele>
        <time>2026-08-24T14:52:49Z</time>
      </trkpt>
      <trkpt lat="49.25596" lon="4.03279">
        <ele>86.4</ele>
        <time>2026-08-24T14:52:50Z</time>
      </trkpt>
      <trkpt lat="49.25598" lon="4.03283">
        <ele>86.4</ele>
        <time>2026-08-24T14:52:51Z</time>
      </trkpt>
      <trkpt lat="49.25599" lon="4.03287">
        <ele>86.6</ele>
        <time>2026-08-24T14:52:52Z</time>
      </trkpt>
      <trkpt lat="49.25601" lon="4.0329">
        <ele>86.6</ele>
        <time>2026-08-24T14:52:53Z</time>
      </trkpt>
      <trkpt lat="49.25602" lon="4.03291">
        <ele>86.8</ele>
        <time>2026-08-24T14:52:54Z</time>
      </trkpt>
      <trkpt lat="49.25602" lon="4.03293">
        <ele>86.8</ele>
        <time>2026-08-24T14:52:55Z</time>
      </trkpt>
      <trkpt lat="49.25602" lon="4.03294">
        <ele>87</ele>
        <time>2026-08-24T14:52:56Z</time>
      </trkpt>
      <trkpt lat="49.25602" lon="4.03294">
        <ele>87</ele>
        <time>2026-08-24T14:52:57Z</time>
      </trkpt>
      <trkpt lat="49.25605" lon="4.03302">
        <ele>87.8</ele>
        <time>2026-08-24T14:53:16Z</time>
      </trkpt>
      <trkpt lat="49.25606" lon="4.03305">
        <ele>87.6</ele>
        <time>2026-08-24T14:53:17Z</time>
      </trkpt>
      <trkpt lat="49.25606" lon="4.03307">
        <ele>87.6</ele>
        <time>2026-08-24T14:53:18Z</time>
      </trkpt>
      <trkpt lat="49.25607" lon="4.0331">
        <ele>87.4</ele>
        <time>2026-08-24T14:53:19Z</time>
      </trkpt>
      <trkpt lat="49.25608" lon="4.03313">
        <ele>87.2</ele>
        <time>2026-08-24T14:53:20Z</time>
      </trkpt>
      <trkpt lat="49.25609" lon="4.03316">
        <ele>87.2</ele>
        <time>2026-08-24T14:53:21Z</time>
      </trkpt>
      <trkpt lat="49.25611" lon="4.03318">
        <ele>87.2</ele>
        <time>2026-08-24T14:53:22Z</time>
      </trkpt>
      <trkpt lat="49.25612" lon="4.03321">
        <ele>87.2</ele>
        <time>2026-08-24T14:53:23Z</time>
      </trkpt>
      <trkpt lat="49.25613" lon="4.03323">
        <ele>87.4</ele>
        <time>2026-08-24T14:53:24Z</time>
      </trkpt>
      <trkpt lat="49.25613" lon="4.03326">
        <ele>87.4</ele>
        <time>2026-08-24T14:53:25Z</time>
      </trkpt>
      <trkpt lat="49.25614" lon="4.03328">
        <ele>87.6</ele>
        <time>2026-08-24T14:53:26Z</time>
      </trkpt>
      <trkpt lat="49.25615" lon="4.03329">
        <ele>87.6</ele>
        <time>2026-08-24T14:53:27Z</time>
      </trkpt>
      <trkpt lat="49.25616" lon="4.03331">
        <ele>87.6</ele>
        <time>2026-08-24T14:53:28Z</time>
      </trkpt>
      <trkpt lat="49.25616" lon="4.03332">
        <ele>87.6</ele>
        <time>2026-08-24T14:53:29Z</time>
      </trkpt>
      <trkpt lat="49.25617" lon="4.03333">
        <ele>87.6</ele>
        <time>2026-08-24T14:53:30Z</time>
      </trkpt>
      <trkpt lat="49.25617" lon="4.03333">
        <ele>87.6</ele>
        <time>2026-08-24T14:53:31Z</time>
      </trkpt>
      <trkpt lat="49.25617" lon="4.03333">
        <ele>87.4</ele>
        <time>2026-08-24T14:53:32Z</time>
      </trkpt>
      <trkpt lat="49.25619" lon="4.03338">
        <ele>87.2</ele>
        <time>2026-08-24T14:53:43Z</time>
      </trkpt>
      <trkpt lat="49.25621" lon="4.0334">
        <ele>87.2</ele>
        <time>2026-08-24T14:53:44Z</time>
      </trkpt>
      <trkpt lat="49.25624" lon="4.03341">
        <ele>87.2</ele>
        <time>2026-08-24T14:53:45Z</time>
      </trkpt>
      <trkpt lat="49.25627" lon="4.03341">
        <ele>87</ele>
        <time>2026-08-24T14:53:46Z</time>
      </trkpt>
      <trkpt lat="49.25631" lon="4.03339">
        <ele>86.8</ele>
        <time>2026-08-24T14:53:47Z</time>
      </trkpt>
      <trkpt lat="49.25635" lon="4.03337">
        <ele>86.6</ele>
        <time>2026-08-24T14:53:48Z</time>
      </trkpt>
      <trkpt lat="49.25639" lon="4.03334">
        <ele>86.4</ele>
        <time>2026-08-24T14:53:49Z</time>
      </trkpt>
      <trkpt lat="49.25643" lon="4.0333">
        <ele>86.4</ele>
        <time>2026-08-24T14:53:50Z</time>
      </trkpt>
      <trkpt lat="49.25647" lon="4.03327">
        <ele>86.2</ele>
        <time>2026-08-24T14:53:51Z</time>
      </trkpt>
      <trkpt lat="49.25651" lon="4.03323">
        <ele>86.4</ele>
        <time>2026-08-24T14:53:52Z</time>
      </trkpt>
      <trkpt lat="49.25655" lon="4.03319">
        <ele>86.2</ele>
        <time>2026-08-24T14:53:53Z</time>
      </trkpt>
      <trkpt lat="49.25659" lon="4.03315">
        <ele>86.4</ele>
        <time>2026-08-24T14:53:54Z</time>
      </trkpt>
      <trkpt lat="49.25663" lon="4.03311">
        <ele>86.4</ele>
        <time>2026-08-24T14:53:55Z</time>
      </trkpt>
      <trkpt lat="49.25667" lon="4.03307">
        <ele>86.6</ele>
        <time>2026-08-24T14:53:56Z</time>
      </trkpt>
      <trkpt lat="49.25671" lon="4.03304">
        <ele>86.6</ele>
        <time>2026-08-24T14:53:57Z</time>
      </trkpt>
      <trkpt lat="49.25675" lon="4.03301">
        <ele>86.8</ele>
        <time>2026-08-24T14:53:58Z</time>
      </trkpt>
      <trkpt lat="49.25679" lon="4.03297">
        <ele>86.8</ele>
        <time>2026-08-24T14:53:59Z</time>
      </trkpt>
      <trkpt lat="49.25683" lon="4.03294">
        <ele>86.8</ele>
        <time>2026-08-24T14:54:00Z</time>
      </trkpt>
      <trkpt lat="49.25688" lon="4.0329">
        <ele>87</ele>
        <time>2026-08-24T14:54:01Z</time>
      </trkpt>
      <trkpt lat="49.25692" lon="4.03286">
        <ele>87</ele>
        <time>2026-08-24T14:54:02Z</time>
      </trkpt>
      <trkpt lat="49.25697" lon="4.03283">
        <ele>87.2</ele>
        <time>2026-08-24T14:54:03Z</time>
      </trkpt>
      <trkpt lat="49.25701" lon="4.03279">
        <ele>87.2</ele>
        <time>2026-08-24T14:54:04Z</time>
      </trkpt>
      <trkpt lat="49.25706" lon="4.03275">
        <ele>87.2</ele>
        <time>2026-08-24T14:54:05Z</time>
      </trkpt>
      <trkpt lat="49.2571" lon="4.03271">
        <ele>87.4</ele>
        <time>2026-08-24T14:54:06Z</time>
      </trkpt>
      <trkpt lat="49.25714" lon="4.03267">
        <ele>87.4</ele>
        <time>2026-08-24T14:54:07Z</time>
      </trkpt>
      <trkpt lat="49.25718" lon="4.03263">
        <ele>87.6</ele>
        <time>2026-08-24T14:54:08Z</time>
      </trkpt>
      <trkpt lat="49.25722" lon="4.03259">
        <ele>87.6</ele>
        <time>2026-08-24T14:54:09Z</time>
      </trkpt>
      <trkpt lat="49.25726" lon="4.03254">
        <ele>87.6</ele>
        <time>2026-08-24T14:54:10Z</time>
      </trkpt>
      <trkpt lat="49.2573" lon="4.0325">
        <ele>87.6</ele>
        <time>2026-08-24T14:54:11Z</time>
      </trkpt>
      <trkpt lat="49.25734" lon="4.03246">
        <ele>87.8</ele>
        <time>2026-08-24T14:54:12Z</time>
      </trkpt>
      <trkpt lat="49.25738" lon="4.03242">
        <ele>87.8</ele>
        <time>2026-08-24T14:54:13Z</time>
      </trkpt>
      <trkpt lat="49.25742" lon="4.03238">
        <ele>87.8</ele>
        <time>2026-08-24T14:54:14Z</time>
      </trkpt>
      <trkpt lat="49.25747" lon="4.03233">
        <ele>87.8</ele>
        <time>2026-08-24T14:54:15Z</time>
      </trkpt>
      <trkpt lat="49.25751" lon="4.03228">
        <ele>87.8</ele>
        <time>2026-08-24T14:54:16Z</time>
      </trkpt>
      <trkpt lat="49.25755" lon="4.03223">
        <ele>87.8</ele>
        <time>2026-08-24T14:54:17Z</time>
      </trkpt>
      <trkpt lat="49.25757" lon="4.03218">
        <ele>87.8</ele>
        <time>2026-08-24T14:54:18Z</time>
      </trkpt>
      <trkpt lat="49.25761" lon="4.03214">
        <ele>87.8</ele>
        <time>2026-08-24T14:54:19Z</time>
      </trkpt>
      <trkpt lat="49.25764" lon="4.03215">
        <ele>88</ele>
        <time>2026-08-24T14:54:20Z</time>
      </trkpt>
      <trkpt lat="49.25767" lon="4.03219">
        <ele>88</ele>
        <time>2026-08-24T14:54:21Z</time>
      </trkpt>
      <trkpt lat="49.2577" lon="4.03223">
        <ele>88</ele>
        <time>2026-08-24T14:54:22Z</time>
      </trkpt>
      <trkpt lat="49.25773" lon="4.03228">
        <ele>88</ele>
        <time>2026-08-24T14:54:23Z</time>
      </trkpt>
      <trkpt lat="49.25775" lon="4.03233">
        <ele>88</ele>
        <time>2026-08-24T14:54:24Z</time>
      </trkpt>
      <trkpt lat="49.25778" lon="4.03239">
        <ele>87.8</ele>
        <time>2026-08-24T14:54:25Z</time>
      </trkpt>
      <trkpt lat="49.25781" lon="4.03243">
        <ele>87.8</ele>
        <time>2026-08-24T14:54:26Z</time>
      </trkpt>
      <trkpt lat="49.25785" lon="4.03245">
        <ele>87.8</ele>
        <time>2026-08-24T14:54:27Z</time>
      </trkpt>
      <trkpt lat="49.25788" lon="4.03248">
        <ele>87.6</ele>
        <time>2026-08-24T14:54:28Z</time>
      </trkpt>
      <trkpt lat="49.25792" lon="4.0325">
        <ele>87.6</ele>
        <time>2026-08-24T14:54:29Z</time>
      </trkpt>
      <trkpt lat="49.25795" lon="4.03254">
        <ele>87.8</ele>
        <time>2026-08-24T14:54:30Z</time>
      </trkpt>
      <trkpt lat="49.25797" lon="4.03259">
        <ele>87.8</ele>
        <time>2026-08-24T14:54:31Z</time>
      </trkpt>
      <trkpt lat="49.25798" lon="4.03266">
        <ele>87.6</ele>
        <time>2026-08-24T14:54:32Z</time>
      </trkpt>
      <trkpt lat="49.25799" lon="4.03272">
        <ele>87.6</ele>
        <time>2026-08-24T14:54:33Z</time>
      </trkpt>
      <trkpt lat="49.25798" lon="4.03279">
        <ele>87.4</ele>
        <time>2026-08-24T14:54:34Z</time>
      </trkpt>
      <trkpt lat="49.25798" lon="4.03286">
        <ele>87.6</ele>
        <time>2026-08-24T14:54:35Z</time>
      </trkpt>
      <trkpt lat="49.25797" lon="4.03293">
        <ele>87.6</ele>
        <time>2026-08-24T14:54:36Z</time>
      </trkpt>
      <trkpt lat="49.25797" lon="4.033">
        <ele>87.6</ele>
        <time>2026-08-24T14:54:37Z</time>
      </trkpt>
      <trkpt lat="49.25797" lon="4.03307">
        <ele>87.6</ele>
        <time>2026-08-24T14:54:38Z</time>
      </trkpt>
      <trkpt lat="49.25797" lon="4.03315">
        <ele>87.8</ele>
        <time>2026-08-24T14:54:39Z</time>
      </trkpt>
      <trkpt lat="49.25796" lon="4.03322">
        <ele>87.8</ele>
        <time>2026-08-24T14:54:40Z</time>
      </trkpt>
      <trkpt lat="49.25796" lon="4.0333">
        <ele>88</ele>
        <time>2026-08-24T14:54:41Z</time>
      </trkpt>
      <trkpt lat="49.25796" lon="4.03337">
        <ele>88.2</ele>
        <time>2026-08-24T14:54:42Z</time>
      </trkpt>
      <trkpt lat="49.25795" lon="4.03345">
        <ele>88.4</ele>
        <time>2026-08-24T14:54:43Z</time>
      </trkpt>
      <trkpt lat="49.25794" lon="4.03353">
        <ele>88.6</ele>
        <time>2026-08-24T14:54:44Z</time>
      </trkpt>
      <trkpt lat="49.25793" lon="4.0336">
        <ele>88.8</ele>
        <time>2026-08-24T14:54:45Z</time>
      </trkpt>
      <trkpt lat="49.25793" lon="4.03366">
        <ele>88.8</ele>
        <time>2026-08-24T14:54:46Z</time>
      </trkpt>
      <trkpt lat="49.25793" lon="4.03373">
        <ele>89</ele>
        <time>2026-08-24T14:54:47Z</time>
      </trkpt>
      <trkpt lat="49.25793" lon="4.03379">
        <ele>89</ele>
        <time>2026-08-24T14:54:48Z</time>
      </trkpt>
      <trkpt lat="49.25793" lon="4.03385">
        <ele>89.2</ele>
        <time>2026-08-24T14:54:49Z</time>
      </trkpt>
      <trkpt lat="49.25795" lon="4.03391">
        <ele>89.2</ele>
        <time>2026-08-24T14:54:50Z</time>
      </trkpt>
      <trkpt lat="49.25798" lon="4.03396">
        <ele>89.2</ele>
        <time>2026-08-24T14:54:51Z</time>
      </trkpt>
      <trkpt lat="49.258" lon="4.03401">
        <ele>89.2</ele>
        <time>2026-08-24T14:54:52Z</time>
      </trkpt>
      <trkpt lat="49.25803" lon="4.03407">
        <ele>89.4</ele>
        <time>2026-08-24T14:54:53Z</time>
      </trkpt>
      <trkpt lat="49.25806" lon="4.03413">
        <ele>89.4</ele>
        <time>2026-08-24T14:54:54Z</time>
      </trkpt>
      <trkpt lat="49.25809" lon="4.03419">
        <ele>89.4</ele>
        <time>2026-08-24T14:54:55Z</time>
      </trkpt>
      <trkpt lat="49.25811" lon="4.03425">
        <ele>89.4</ele>
        <time>2026-08-24T14:54:56Z</time>
      </trkpt>
      <trkpt lat="49.25814" lon="4.03431">
        <ele>89.4</ele>
        <time>2026-08-24T14:54:57Z</time>
      </trkpt>
      <trkpt lat="49.25817" lon="4.03437">
        <ele>89.2</ele>
        <time>2026-08-24T14:54:58Z</time>
      </trkpt>
      <trkpt lat="49.2582" lon="4.03443">
        <ele>89.2</ele>
        <time>2026-08-24T14:54:59Z</time>
      </trkpt>
      <trkpt lat="49.25823" lon="4.03448">
        <ele>89.2</ele>
        <time>2026-08-24T14:55:00Z</time>
      </trkpt>
      <trkpt lat="49.25826" lon="4.03453">
        <ele>89.2</ele>
        <time>2026-08-24T14:55:01Z</time>
      </trkpt>
      <trkpt lat="49.25829" lon="4.03458">
        <ele>89.2</ele>
        <time>2026-08-24T14:55:02Z</time>
      </trkpt>
      <trkpt lat="49.25832" lon="4.03462">
        <ele>89.4</ele>
        <time>2026-08-24T14:55:03Z</time>
      </trkpt>
      <trkpt lat="49.25833" lon="4.03466">
        <ele>89.6</ele>
        <time>2026-08-24T14:55:04Z</time>
      </trkpt>
      <trkpt lat="49.25835" lon="4.03469">
        <ele>89.8</ele>
        <time>2026-08-24T14:55:05Z</time>
      </trkpt>
      <trkpt lat="49.25838" lon="4.03471">
        <ele>89.8</ele>
        <time>2026-08-24T14:55:06Z</time>
      </trkpt>
      <trkpt lat="49.2584" lon="4.03474">
        <ele>90</ele>
        <time>2026-08-24T14:55:07Z</time>
      </trkpt>
      <trkpt lat="49.25842" lon="4.03477">
        <ele>90</ele>
        <time>2026-08-24T14:55:08Z</time>
      </trkpt>
      <trkpt lat="49.25845" lon="4.03481">
        <ele>89.8</ele>
        <time>2026-08-24T14:55:09Z</time>
      </trkpt>
      <trkpt lat="49.25847" lon="4.03485">
        <ele>89.8</ele>
        <time>2026-08-24T14:55:10Z</time>
      </trkpt>
      <trkpt lat="49.25849" lon="4.0349">
        <ele>89.8</ele>
        <time>2026-08-24T14:55:11Z</time>
      </trkpt>
      <trkpt lat="49.25852" lon="4.03494">
        <ele>89.8</ele>
        <time>2026-08-24T14:55:12Z</time>
      </trkpt>
      <trkpt lat="49.25854" lon="4.03499">
        <ele>90</ele>
        <time>2026-08-24T14:55:13Z</time>
      </trkpt>
      <trkpt lat="49.25856" lon="4.03503">
        <ele>90</ele>
        <time>2026-08-24T14:55:14Z</time>
      </trkpt>
      <trkpt lat="49.25858" lon="4.03508">
        <ele>90</ele>
        <time>2026-08-24T14:55:15Z</time>
      </trkpt>
      <trkpt lat="49.2586" lon="4.03513">
        <ele>90</ele>
        <time>2026-08-24T14:55:16Z</time>
      </trkpt>
      <trkpt lat="49.25862" lon="4.03518">
        <ele>90</ele>
        <time>2026-08-24T14:55:17Z</time>
      </trkpt>
      <trkpt lat="49.25864" lon="4.03523">
        <ele>90</ele>
        <time>2026-08-24T14:55:18Z</time>
      </trkpt>
      <trkpt lat="49.25866" lon="4.03528">
        <ele>90</ele>
        <time>2026-08-24T14:55:19Z</time>
      </trkpt>
      <trkpt lat="49.25868" lon="4.03532">
        <ele>90.2</ele>
        <time>2026-08-24T14:55:20Z</time>
      </trkpt>
      <trkpt lat="49.25869" lon="4.03536">
        <ele>90.2</ele>
        <time>2026-08-24T14:55:21Z</time>
      </trkpt>
      <trkpt lat="49.25871" lon="4.03541">
        <ele>90.4</ele>
        <time>2026-08-24T14:55:22Z</time>
      </trkpt>
      <trkpt lat="49.25872" lon="4.03545">
        <ele>90.4</ele>
        <time>2026-08-24T14:55:23Z</time>
      </trkpt>
      <trkpt lat="49.25873" lon="4.03549">
        <ele>90.6</ele>
        <time>2026-08-24T14:55:24Z</time>
      </trkpt>
      <trkpt lat="49.25874" lon="4.03553">
        <ele>90.6</ele>
        <time>2026-08-24T14:55:25Z</time>
      </trkpt>
      <trkpt lat="49.25876" lon="4.03557">
        <ele>90.8</ele>
        <time>2026-08-24T14:55:26Z</time>
      </trkpt>
      <trkpt lat="49.25877" lon="4.0356">
        <ele>90.8</ele>
        <time>2026-08-24T14:55:27Z</time>
      </trkpt>
      <trkpt lat="49.25878" lon="4.03564">
        <ele>91</ele>
        <time>2026-08-24T14:55:28Z</time>
      </trkpt>
      <trkpt lat="49.25879" lon="4.03567">
        <ele>91</ele>
        <time>2026-08-24T14:55:29Z</time>
      </trkpt>
      <trkpt lat="49.25881" lon="4.0357">
        <ele>91.2</ele>
        <time>2026-08-24T14:55:30Z</time>
      </trkpt>
      <trkpt lat="49.25882" lon="4.03573">
        <ele>91.2</ele>
        <time>2026-08-24T14:55:31Z</time>
      </trkpt>
      <trkpt lat="49.25883" lon="4.03575">
        <ele>91.4</ele>
        <time>2026-08-24T14:55:32Z</time>
      </trkpt>
      <trkpt lat="49.25883" lon="4.03577">
        <ele>91.4</ele>
        <time>2026-08-24T14:55:33Z</time>
      </trkpt>
      <trkpt lat="49.25883" lon="4.03577">
        <ele>91.4</ele>
        <time>2026-08-24T14:55:34Z</time>
      </trkpt>
      <trkpt lat="49.25884" lon="4.03577">
        <ele>91.4</ele>
        <time>2026-08-24T14:55:35Z</time>
      </trkpt>
    </trkseg>
  </trk>
</gpx>